<?xml version="1.0" encoding="UTF-8" standalone="no" ?>
<gpx xmlns="http://www.topografix.com/GPX/1/1" xmlns:xsi="http://www.w3.org/2001/XMLSchema-instance" xsi:schemaLocation="http://www.topografix.com/GPX/1/1 http://www.topografix.com/GPX/1/1/gpx.xsd" version="1.1" creator="VisuGPX - https://www.visugpx.com">
  <metadata>
    <name>Ventimiglia Gouna Dolce Acqua</name>
    <desc><![CDATA[Longue montée par une piste, déjeuner à Gouna, et descentes de ouf....
Réservé aux VTTistes expérimentés...]]></desc>
  </metadata>
  <trk>
    <name><![CDATA[Ventimiglia Cyclisme]]></name>
    <extensions>
      <line xmlns="http://www.topografix.com/GPX/gpx_style/0/2">
        <color>0000FF</color>
        <width>4</width>
      </line>
    </extensions>
    <trkseg>
      <trkpt lat="43.84594" lon="7.58859">
        <ele>61</ele>
        <time>2022-09-10T07:42:41.000Z</time>
      </trkpt>
      <trkpt lat="43.84594" lon="7.58858">
        <ele>60.799999237061</ele>
        <time>2022-09-10T07:42:48.000Z</time>
      </trkpt>
      <trkpt lat="43.84595" lon="7.58858">
        <ele>60.599998474121</ele>
        <time>2022-09-10T07:43:13.000Z</time>
      </trkpt>
      <trkpt lat="43.84596" lon="7.58856">
        <ele>60.799999237061</ele>
        <time>2022-09-10T07:43:30.000Z</time>
      </trkpt>
      <trkpt lat="43.84597" lon="7.58855">
        <ele>60.799999237061</ele>
        <time>2022-09-10T07:43:38.000Z</time>
      </trkpt>
      <trkpt lat="43.84598" lon="7.58854">
        <ele>61</ele>
        <time>2022-09-10T07:43:46.000Z</time>
      </trkpt>
      <trkpt lat="43.84598" lon="7.58854">
        <ele>61</ele>
        <time>2022-09-10T07:43:53.000Z</time>
      </trkpt>
      <trkpt lat="43.84598" lon="7.58852">
        <ele>60.799999237061</ele>
        <time>2022-09-10T07:44:11.000Z</time>
      </trkpt>
      <trkpt lat="43.84601" lon="7.58847">
        <ele>60.799999237061</ele>
        <time>2022-09-10T07:44:15.000Z</time>
      </trkpt>
      <trkpt lat="43.84603" lon="7.58846">
        <ele>61</ele>
        <time>2022-09-10T07:44:16.000Z</time>
      </trkpt>
      <trkpt lat="43.8461" lon="7.58833">
        <ele>61</ele>
        <time>2022-09-10T07:44:23.000Z</time>
      </trkpt>
      <trkpt lat="43.84612" lon="7.5883">
        <ele>61</ele>
        <time>2022-09-10T07:44:25.000Z</time>
      </trkpt>
      <trkpt lat="43.84617" lon="7.58831">
        <ele>61</ele>
        <time>2022-09-10T07:44:28.000Z</time>
      </trkpt>
      <trkpt lat="43.84625" lon="7.58833">
        <ele>61.200000762939</ele>
        <time>2022-09-10T07:44:33.000Z</time>
      </trkpt>
      <trkpt lat="43.84631" lon="7.58828">
        <ele>61</ele>
        <time>2022-09-10T07:44:39.000Z</time>
      </trkpt>
      <trkpt lat="43.84639" lon="7.58817">
        <ele>61.200000762939</ele>
        <time>2022-09-10T07:44:47.000Z</time>
      </trkpt>
      <trkpt lat="43.84644" lon="7.58814">
        <ele>61.200000762939</ele>
        <time>2022-09-10T07:44:53.000Z</time>
      </trkpt>
      <trkpt lat="43.84644" lon="7.58814">
        <ele>61.200000762939</ele>
        <time>2022-09-10T07:44:59.000Z</time>
      </trkpt>
      <trkpt lat="43.84644" lon="7.58815">
        <ele>61</ele>
        <time>2022-09-10T07:45:18.000Z</time>
      </trkpt>
      <trkpt lat="43.84643" lon="7.58815">
        <ele>61</ele>
        <time>2022-09-10T07:45:39.000Z</time>
      </trkpt>
      <trkpt lat="43.84642" lon="7.58818">
        <ele>60.799999237061</ele>
        <time>2022-09-10T07:45:45.000Z</time>
      </trkpt>
      <trkpt lat="43.84642" lon="7.58818">
        <ele>61</ele>
        <time>2022-09-10T07:45:58.000Z</time>
      </trkpt>
      <trkpt lat="43.84642" lon="7.58817">
        <ele>60.799999237061</ele>
        <time>2022-09-10T07:46:22.000Z</time>
      </trkpt>
      <trkpt lat="43.8464" lon="7.58817">
        <ele>60.799999237061</ele>
        <time>2022-09-10T07:46:36.000Z</time>
      </trkpt>
      <trkpt lat="43.8464" lon="7.58815">
        <ele>60.799999237061</ele>
        <time>2022-09-10T07:46:41.000Z</time>
      </trkpt>
      <trkpt lat="43.84643" lon="7.5881">
        <ele>60.599998474121</ele>
        <time>2022-09-10T07:46:45.000Z</time>
      </trkpt>
      <trkpt lat="43.84644" lon="7.58808">
        <ele>60.599998474121</ele>
        <time>2022-09-10T07:46:46.000Z</time>
      </trkpt>
      <trkpt lat="43.84653" lon="7.58795">
        <ele>60.599998474121</ele>
        <time>2022-09-10T07:46:51.000Z</time>
      </trkpt>
      <trkpt lat="43.84665" lon="7.58775">
        <ele>60.799999237061</ele>
        <time>2022-09-10T07:46:57.000Z</time>
      </trkpt>
      <trkpt lat="43.84683" lon="7.58747">
        <ele>60.799999237061</ele>
        <time>2022-09-10T07:47:04.000Z</time>
      </trkpt>
      <trkpt lat="43.84705" lon="7.58711">
        <ele>61</ele>
        <time>2022-09-10T07:47:13.000Z</time>
      </trkpt>
      <trkpt lat="43.84716" lon="7.58695">
        <ele>61.200000762939</ele>
        <time>2022-09-10T07:47:19.000Z</time>
      </trkpt>
      <trkpt lat="43.84732" lon="7.58665">
        <ele>61.400001525879</ele>
        <time>2022-09-10T07:47:28.000Z</time>
      </trkpt>
      <trkpt lat="43.84746" lon="7.58632">
        <ele>61.799999237061</ele>
        <time>2022-09-10T07:47:37.000Z</time>
      </trkpt>
      <trkpt lat="43.84752" lon="7.58617">
        <ele>62</ele>
        <time>2022-09-10T07:47:41.000Z</time>
      </trkpt>
      <trkpt lat="43.84762" lon="7.58593">
        <ele>62</ele>
        <time>2022-09-10T07:47:47.000Z</time>
      </trkpt>
      <trkpt lat="43.84777" lon="7.58553">
        <ele>62</ele>
        <time>2022-09-10T07:47:57.000Z</time>
      </trkpt>
      <trkpt lat="43.84794" lon="7.58509">
        <ele>62.400001525879</ele>
        <time>2022-09-10T07:48:08.000Z</time>
      </trkpt>
      <trkpt lat="43.8481" lon="7.58471">
        <ele>62.400001525879</ele>
        <time>2022-09-10T07:48:17.000Z</time>
      </trkpt>
      <trkpt lat="43.84825" lon="7.58432">
        <ele>62.599998474121</ele>
        <time>2022-09-10T07:48:26.000Z</time>
      </trkpt>
      <trkpt lat="43.8484" lon="7.58398">
        <ele>62.799999237061</ele>
        <time>2022-09-10T07:48:34.000Z</time>
      </trkpt>
      <trkpt lat="43.84854" lon="7.58363">
        <ele>62.799999237061</ele>
        <time>2022-09-10T07:48:42.000Z</time>
      </trkpt>
      <trkpt lat="43.84863" lon="7.58326">
        <ele>63</ele>
        <time>2022-09-10T07:48:50.000Z</time>
      </trkpt>
      <trkpt lat="43.8487" lon="7.58282">
        <ele>63.200000762939</ele>
        <time>2022-09-10T07:48:59.000Z</time>
      </trkpt>
      <trkpt lat="43.84877" lon="7.58237">
        <ele>63.599998474121</ele>
        <time>2022-09-10T07:49:08.000Z</time>
      </trkpt>
      <trkpt lat="43.84882" lon="7.58198">
        <ele>63.799999237061</ele>
        <time>2022-09-10T07:49:16.000Z</time>
      </trkpt>
      <trkpt lat="43.84888" lon="7.58157">
        <ele>63.799999237061</ele>
        <time>2022-09-10T07:49:24.000Z</time>
      </trkpt>
      <trkpt lat="43.84891" lon="7.58142">
        <ele>64</ele>
        <time>2022-09-10T07:49:27.000Z</time>
      </trkpt>
      <trkpt lat="43.84896" lon="7.58108">
        <ele>64.199996948242</ele>
        <time>2022-09-10T07:49:34.000Z</time>
      </trkpt>
      <trkpt lat="43.84902" lon="7.58069">
        <ele>64.599998474121</ele>
        <time>2022-09-10T07:49:42.000Z</time>
      </trkpt>
      <trkpt lat="43.84913" lon="7.58032">
        <ele>64.599998474121</ele>
        <time>2022-09-10T07:49:50.000Z</time>
      </trkpt>
      <trkpt lat="43.84922" lon="7.58017">
        <ele>64.800003051758</ele>
        <time>2022-09-10T07:49:55.000Z</time>
      </trkpt>
      <trkpt lat="43.84926" lon="7.58016">
        <ele>65</ele>
        <time>2022-09-10T07:49:56.000Z</time>
      </trkpt>
      <trkpt lat="43.84933" lon="7.58019">
        <ele>65.199996948242</ele>
        <time>2022-09-10T07:49:58.000Z</time>
      </trkpt>
      <trkpt lat="43.84951" lon="7.58026">
        <ele>64.199996948242</ele>
        <time>2022-09-10T07:50:02.000Z</time>
      </trkpt>
      <trkpt lat="43.84956" lon="7.58029">
        <ele>63.799999237061</ele>
        <time>2022-09-10T07:50:03.000Z</time>
      </trkpt>
      <trkpt lat="43.84959" lon="7.58032">
        <ele>63.599998474121</ele>
        <time>2022-09-10T07:50:04.000Z</time>
      </trkpt>
      <trkpt lat="43.84986" lon="7.58057">
        <ele>64.199996948242</ele>
        <time>2022-09-10T07:50:12.000Z</time>
      </trkpt>
      <trkpt lat="43.84998" lon="7.5807">
        <ele>64.599998474121</ele>
        <time>2022-09-10T07:50:17.000Z</time>
      </trkpt>
      <trkpt lat="43.85004" lon="7.58075">
        <ele>65.400001525879</ele>
        <time>2022-09-10T07:50:20.000Z</time>
      </trkpt>
      <trkpt lat="43.85011" lon="7.5808">
        <ele>66</ele>
        <time>2022-09-10T07:50:23.000Z</time>
      </trkpt>
      <trkpt lat="43.85019" lon="7.58085">
        <ele>66.400001525879</ele>
        <time>2022-09-10T07:50:26.000Z</time>
      </trkpt>
      <trkpt lat="43.85029" lon="7.58088">
        <ele>66.800003051758</ele>
        <time>2022-09-10T07:50:30.000Z</time>
      </trkpt>
      <trkpt lat="43.85046" lon="7.58087">
        <ele>67</ele>
        <time>2022-09-10T07:50:35.000Z</time>
      </trkpt>
      <trkpt lat="43.85066" lon="7.58088">
        <ele>67</ele>
        <time>2022-09-10T07:50:42.000Z</time>
      </trkpt>
      <trkpt lat="43.8507" lon="7.58091">
        <ele>67.599998474121</ele>
        <time>2022-09-10T07:50:44.000Z</time>
      </trkpt>
      <trkpt lat="43.85075" lon="7.58094">
        <ele>68.800003051758</ele>
        <time>2022-09-10T07:50:47.000Z</time>
      </trkpt>
      <trkpt lat="43.85077" lon="7.58096">
        <ele>69</ele>
        <time>2022-09-10T07:50:48.000Z</time>
      </trkpt>
      <trkpt lat="43.8508" lon="7.58098">
        <ele>69.800003051758</ele>
        <time>2022-09-10T07:50:50.000Z</time>
      </trkpt>
      <trkpt lat="43.85086" lon="7.58102">
        <ele>70.800003051758</ele>
        <time>2022-09-10T07:50:53.000Z</time>
      </trkpt>
      <trkpt lat="43.85093" lon="7.58108">
        <ele>72</ele>
        <time>2022-09-10T07:50:57.000Z</time>
      </trkpt>
      <trkpt lat="43.851" lon="7.58113">
        <ele>73.199996948242</ele>
        <time>2022-09-10T07:51:01.000Z</time>
      </trkpt>
      <trkpt lat="43.85107" lon="7.58118">
        <ele>74.199996948242</ele>
        <time>2022-09-10T07:51:05.000Z</time>
      </trkpt>
      <trkpt lat="43.85111" lon="7.58121">
        <ele>74.800003051758</ele>
        <time>2022-09-10T07:51:07.000Z</time>
      </trkpt>
      <trkpt lat="43.85116" lon="7.58124">
        <ele>75.400001525879</ele>
        <time>2022-09-10T07:51:10.000Z</time>
      </trkpt>
      <trkpt lat="43.85124" lon="7.58129">
        <ele>76.800003051758</ele>
        <time>2022-09-10T07:51:14.000Z</time>
      </trkpt>
      <trkpt lat="43.85129" lon="7.58132">
        <ele>77.599998474121</ele>
        <time>2022-09-10T07:51:17.000Z</time>
      </trkpt>
      <trkpt lat="43.85131" lon="7.58133">
        <ele>77.800003051758</ele>
        <time>2022-09-10T07:51:18.000Z</time>
      </trkpt>
      <trkpt lat="43.85138" lon="7.58138">
        <ele>79</ele>
        <time>2022-09-10T07:51:22.000Z</time>
      </trkpt>
      <trkpt lat="43.85142" lon="7.5814">
        <ele>79.599998474121</ele>
        <time>2022-09-10T07:51:24.000Z</time>
      </trkpt>
      <trkpt lat="43.85145" lon="7.58141">
        <ele>80.199996948242</ele>
        <time>2022-09-10T07:51:26.000Z</time>
      </trkpt>
      <trkpt lat="43.8515" lon="7.58145">
        <ele>81.199996948242</ele>
        <time>2022-09-10T07:51:29.000Z</time>
      </trkpt>
      <trkpt lat="43.85156" lon="7.58148">
        <ele>82.199996948242</ele>
        <time>2022-09-10T07:51:32.000Z</time>
      </trkpt>
      <trkpt lat="43.85163" lon="7.58152">
        <ele>83.400001525879</ele>
        <time>2022-09-10T07:51:36.000Z</time>
      </trkpt>
      <trkpt lat="43.85171" lon="7.58158">
        <ele>84.599998474121</ele>
        <time>2022-09-10T07:51:41.000Z</time>
      </trkpt>
      <trkpt lat="43.85177" lon="7.58161">
        <ele>85.599998474121</ele>
        <time>2022-09-10T07:51:44.000Z</time>
      </trkpt>
      <trkpt lat="43.85182" lon="7.58168">
        <ele>86.400001525879</ele>
        <time>2022-09-10T07:51:47.000Z</time>
      </trkpt>
      <trkpt lat="43.85183" lon="7.5817">
        <ele>86.800003051758</ele>
        <time>2022-09-10T07:51:48.000Z</time>
      </trkpt>
      <trkpt lat="43.85186" lon="7.58177">
        <ele>87.800003051758</ele>
        <time>2022-09-10T07:51:51.000Z</time>
      </trkpt>
      <trkpt lat="43.85187" lon="7.58179">
        <ele>88</ele>
        <time>2022-09-10T07:51:52.000Z</time>
      </trkpt>
      <trkpt lat="43.85189" lon="7.58186">
        <ele>89</ele>
        <time>2022-09-10T07:51:55.000Z</time>
      </trkpt>
      <trkpt lat="43.85191" lon="7.58193">
        <ele>90</ele>
        <time>2022-09-10T07:51:58.000Z</time>
      </trkpt>
      <trkpt lat="43.85191" lon="7.58196">
        <ele>90.400001525879</ele>
        <time>2022-09-10T07:51:59.000Z</time>
      </trkpt>
      <trkpt lat="43.85192" lon="7.58203">
        <ele>91.199996948242</ele>
        <time>2022-09-10T07:52:02.000Z</time>
      </trkpt>
      <trkpt lat="43.85192" lon="7.58212">
        <ele>92.400001525879</ele>
        <time>2022-09-10T07:52:06.000Z</time>
      </trkpt>
      <trkpt lat="43.85192" lon="7.58214">
        <ele>92.599998474121</ele>
        <time>2022-09-10T07:52:07.000Z</time>
      </trkpt>
      <trkpt lat="43.85192" lon="7.58218">
        <ele>93.400001525879</ele>
        <time>2022-09-10T07:52:09.000Z</time>
      </trkpt>
      <trkpt lat="43.85193" lon="7.58225">
        <ele>94.400001525879</ele>
        <time>2022-09-10T07:52:12.000Z</time>
      </trkpt>
      <trkpt lat="43.85193" lon="7.58231">
        <ele>95.400001525879</ele>
        <time>2022-09-10T07:52:15.000Z</time>
      </trkpt>
      <trkpt lat="43.85193" lon="7.58233">
        <ele>95.599998474121</ele>
        <time>2022-09-10T07:52:16.000Z</time>
      </trkpt>
      <trkpt lat="43.85194" lon="7.58235">
        <ele>96</ele>
        <time>2022-09-10T07:52:17.000Z</time>
      </trkpt>
      <trkpt lat="43.85198" lon="7.58242">
        <ele>96.800003051758</ele>
        <time>2022-09-10T07:52:21.000Z</time>
      </trkpt>
      <trkpt lat="43.85205" lon="7.58247">
        <ele>98</ele>
        <time>2022-09-10T07:52:26.000Z</time>
      </trkpt>
      <trkpt lat="43.8521" lon="7.58251">
        <ele>98.599998474121</ele>
        <time>2022-09-10T07:52:30.000Z</time>
      </trkpt>
      <trkpt lat="43.85213" lon="7.58254">
        <ele>99</ele>
        <time>2022-09-10T07:52:32.000Z</time>
      </trkpt>
      <trkpt lat="43.85219" lon="7.58256">
        <ele>100</ele>
        <time>2022-09-10T07:52:36.000Z</time>
      </trkpt>
      <trkpt lat="43.85224" lon="7.58259">
        <ele>101.19999694824</ele>
        <time>2022-09-10T07:52:40.000Z</time>
      </trkpt>
      <trkpt lat="43.85229" lon="7.58261">
        <ele>102.40000152588</ele>
        <time>2022-09-10T07:52:43.000Z</time>
      </trkpt>
      <trkpt lat="43.85233" lon="7.58263">
        <ele>103.19999694824</ele>
        <time>2022-09-10T07:52:46.000Z</time>
      </trkpt>
      <trkpt lat="43.85235" lon="7.58264">
        <ele>103.59999847412</ele>
        <time>2022-09-10T07:52:47.000Z</time>
      </trkpt>
      <trkpt lat="43.8524" lon="7.58267">
        <ele>104.40000152588</ele>
        <time>2022-09-10T07:52:51.000Z</time>
      </trkpt>
      <trkpt lat="43.85241" lon="7.58268">
        <ele>104.80000305176</ele>
        <time>2022-09-10T07:52:52.000Z</time>
      </trkpt>
      <trkpt lat="43.85246" lon="7.58276">
        <ele>105.80000305176</ele>
        <time>2022-09-10T07:52:57.000Z</time>
      </trkpt>
      <trkpt lat="43.85248" lon="7.58278">
        <ele>105.80000305176</ele>
        <time>2022-09-10T07:52:58.000Z</time>
      </trkpt>
      <trkpt lat="43.85261" lon="7.58297">
        <ele>106.19999694824</ele>
        <time>2022-09-10T07:53:07.000Z</time>
      </trkpt>
      <trkpt lat="43.85275" lon="7.58319">
        <ele>105.80000305176</ele>
        <time>2022-09-10T07:53:14.000Z</time>
      </trkpt>
      <trkpt lat="43.85278" lon="7.5834">
        <ele>106</ele>
        <time>2022-09-10T07:53:20.000Z</time>
      </trkpt>
      <trkpt lat="43.85278" lon="7.58358">
        <ele>106.80000305176</ele>
        <time>2022-09-10T07:53:25.000Z</time>
      </trkpt>
      <trkpt lat="43.85281" lon="7.58373">
        <ele>107.40000152588</ele>
        <time>2022-09-10T07:53:29.000Z</time>
      </trkpt>
      <trkpt lat="43.85286" lon="7.5838">
        <ele>108.19999694824</ele>
        <time>2022-09-10T07:53:32.000Z</time>
      </trkpt>
      <trkpt lat="43.85291" lon="7.58381">
        <ele>108.80000305176</ele>
        <time>2022-09-10T07:53:34.000Z</time>
      </trkpt>
      <trkpt lat="43.85295" lon="7.58381">
        <ele>109.40000152588</ele>
        <time>2022-09-10T07:53:36.000Z</time>
      </trkpt>
      <trkpt lat="43.85303" lon="7.58376">
        <ele>110.40000152588</ele>
        <time>2022-09-10T07:53:40.000Z</time>
      </trkpt>
      <trkpt lat="43.85305" lon="7.58375">
        <ele>110.80000305176</ele>
        <time>2022-09-10T07:53:41.000Z</time>
      </trkpt>
      <trkpt lat="43.8531" lon="7.58369">
        <ele>111.80000305176</ele>
        <time>2022-09-10T07:53:44.000Z</time>
      </trkpt>
      <trkpt lat="43.85314" lon="7.5836">
        <ele>113</ele>
        <time>2022-09-10T07:53:48.000Z</time>
      </trkpt>
      <trkpt lat="43.85318" lon="7.58351">
        <ele>114.19999694824</ele>
        <time>2022-09-10T07:53:52.000Z</time>
      </trkpt>
      <trkpt lat="43.8532" lon="7.58344">
        <ele>115.19999694824</ele>
        <time>2022-09-10T07:53:55.000Z</time>
      </trkpt>
      <trkpt lat="43.85321" lon="7.58341">
        <ele>115.59999847412</ele>
        <time>2022-09-10T07:53:56.000Z</time>
      </trkpt>
      <trkpt lat="43.85325" lon="7.58328">
        <ele>116.40000152588</ele>
        <time>2022-09-10T07:54:01.000Z</time>
      </trkpt>
      <trkpt lat="43.85325" lon="7.58327">
        <ele>116.59999847412</ele>
        <time>2022-09-10T07:54:02.000Z</time>
      </trkpt>
      <trkpt lat="43.85328" lon="7.58321">
        <ele>117.40000152588</ele>
        <time>2022-09-10T07:54:05.000Z</time>
      </trkpt>
      <trkpt lat="43.8533" lon="7.58315">
        <ele>118.59999847412</ele>
        <time>2022-09-10T07:54:08.000Z</time>
      </trkpt>
      <trkpt lat="43.85332" lon="7.58309">
        <ele>119.59999847412</ele>
        <time>2022-09-10T07:54:11.000Z</time>
      </trkpt>
      <trkpt lat="43.85333" lon="7.58307">
        <ele>119.80000305176</ele>
        <time>2022-09-10T07:54:12.000Z</time>
      </trkpt>
      <trkpt lat="43.85336" lon="7.58302">
        <ele>120.80000305176</ele>
        <time>2022-09-10T07:54:15.000Z</time>
      </trkpt>
      <trkpt lat="43.85341" lon="7.58296">
        <ele>122.19999694824</ele>
        <time>2022-09-10T07:54:19.000Z</time>
      </trkpt>
      <trkpt lat="43.85344" lon="7.58291">
        <ele>123.19999694824</ele>
        <time>2022-09-10T07:54:22.000Z</time>
      </trkpt>
      <trkpt lat="43.85348" lon="7.58288">
        <ele>124.40000152588</ele>
        <time>2022-09-10T07:54:25.000Z</time>
      </trkpt>
      <trkpt lat="43.85352" lon="7.58284">
        <ele>125.59999847412</ele>
        <time>2022-09-10T07:54:28.000Z</time>
      </trkpt>
      <trkpt lat="43.85356" lon="7.5828">
        <ele>126.80000305176</ele>
        <time>2022-09-10T07:54:31.000Z</time>
      </trkpt>
      <trkpt lat="43.85358" lon="7.58279">
        <ele>127</ele>
        <time>2022-09-10T07:54:32.000Z</time>
      </trkpt>
      <trkpt lat="43.85361" lon="7.58276">
        <ele>127.80000305176</ele>
        <time>2022-09-10T07:54:35.000Z</time>
      </trkpt>
      <trkpt lat="43.85364" lon="7.58267">
        <ele>129</ele>
        <time>2022-09-10T07:54:39.000Z</time>
      </trkpt>
      <trkpt lat="43.85368" lon="7.58257">
        <ele>130</ele>
        <time>2022-09-10T07:54:43.000Z</time>
      </trkpt>
      <trkpt lat="43.85369" lon="7.58244">
        <ele>131</ele>
        <time>2022-09-10T07:54:48.000Z</time>
      </trkpt>
      <trkpt lat="43.8537" lon="7.58241">
        <ele>131.19999694824</ele>
        <time>2022-09-10T07:54:49.000Z</time>
      </trkpt>
      <trkpt lat="43.85368" lon="7.58231">
        <ele>132.19999694824</ele>
        <time>2022-09-10T07:54:53.000Z</time>
      </trkpt>
      <trkpt lat="43.85368" lon="7.58229">
        <ele>132.60000610352</ele>
        <time>2022-09-10T07:54:54.000Z</time>
      </trkpt>
      <trkpt lat="43.85369" lon="7.58227">
        <ele>133</ele>
        <time>2022-09-10T07:54:55.000Z</time>
      </trkpt>
      <trkpt lat="43.8537" lon="7.58225">
        <ele>133.19999694824</ele>
        <time>2022-09-10T07:54:56.000Z</time>
      </trkpt>
      <trkpt lat="43.85374" lon="7.58225">
        <ele>133.80000305176</ele>
        <time>2022-09-10T07:54:58.000Z</time>
      </trkpt>
      <trkpt lat="43.85376" lon="7.58228">
        <ele>134.39999389648</ele>
        <time>2022-09-10T07:55:00.000Z</time>
      </trkpt>
      <trkpt lat="43.85377" lon="7.58233">
        <ele>135</ele>
        <time>2022-09-10T07:55:02.000Z</time>
      </trkpt>
      <trkpt lat="43.85378" lon="7.58237">
        <ele>135.39999389648</ele>
        <time>2022-09-10T07:55:04.000Z</time>
      </trkpt>
      <trkpt lat="43.85377" lon="7.58243">
        <ele>135.80000305176</ele>
        <time>2022-09-10T07:55:06.000Z</time>
      </trkpt>
      <trkpt lat="43.85377" lon="7.58252">
        <ele>136.39999389648</ele>
        <time>2022-09-10T07:55:10.000Z</time>
      </trkpt>
      <trkpt lat="43.85377" lon="7.58255">
        <ele>136.60000610352</ele>
        <time>2022-09-10T07:55:11.000Z</time>
      </trkpt>
      <trkpt lat="43.85376" lon="7.58269">
        <ele>137.80000305176</ele>
        <time>2022-09-10T07:55:17.000Z</time>
      </trkpt>
      <trkpt lat="43.85374" lon="7.58276">
        <ele>138.80000305176</ele>
        <time>2022-09-10T07:55:20.000Z</time>
      </trkpt>
      <trkpt lat="43.85373" lon="7.58278">
        <ele>139</ele>
        <time>2022-09-10T07:55:21.000Z</time>
      </trkpt>
      <trkpt lat="43.85368" lon="7.58291">
        <ele>140.19999694824</ele>
        <time>2022-09-10T07:55:27.000Z</time>
      </trkpt>
      <trkpt lat="43.85367" lon="7.58293">
        <ele>140.39999389648</ele>
        <time>2022-09-10T07:55:28.000Z</time>
      </trkpt>
      <trkpt lat="43.85361" lon="7.58301">
        <ele>141.39999389648</ele>
        <time>2022-09-10T07:55:33.000Z</time>
      </trkpt>
      <trkpt lat="43.8536" lon="7.58302">
        <ele>141.60000610352</ele>
        <time>2022-09-10T07:55:34.000Z</time>
      </trkpt>
      <trkpt lat="43.85357" lon="7.5831">
        <ele>142.39999389648</ele>
        <time>2022-09-10T07:55:38.000Z</time>
      </trkpt>
      <trkpt lat="43.85356" lon="7.58317">
        <ele>143.19999694824</ele>
        <time>2022-09-10T07:55:41.000Z</time>
      </trkpt>
      <trkpt lat="43.85358" lon="7.58322">
        <ele>143.60000610352</ele>
        <time>2022-09-10T07:55:43.000Z</time>
      </trkpt>
      <trkpt lat="43.85362" lon="7.58332">
        <ele>144.80000305176</ele>
        <time>2022-09-10T07:55:48.000Z</time>
      </trkpt>
      <trkpt lat="43.85361" lon="7.58341">
        <ele>145.80000305176</ele>
        <time>2022-09-10T07:55:52.000Z</time>
      </trkpt>
      <trkpt lat="43.8536" lon="7.58348">
        <ele>146.39999389648</ele>
        <time>2022-09-10T07:55:55.000Z</time>
      </trkpt>
      <trkpt lat="43.85358" lon="7.58354">
        <ele>147</ele>
        <time>2022-09-10T07:55:58.000Z</time>
      </trkpt>
      <trkpt lat="43.85357" lon="7.58362">
        <ele>147.60000610352</ele>
        <time>2022-09-10T07:56:01.000Z</time>
      </trkpt>
      <trkpt lat="43.85357" lon="7.58367">
        <ele>147.80000305176</ele>
        <time>2022-09-10T07:56:03.000Z</time>
      </trkpt>
      <trkpt lat="43.85357" lon="7.58372">
        <ele>148.19999694824</ele>
        <time>2022-09-10T07:56:05.000Z</time>
      </trkpt>
      <trkpt lat="43.85356" lon="7.58381">
        <ele>149.19999694824</ele>
        <time>2022-09-10T07:56:09.000Z</time>
      </trkpt>
      <trkpt lat="43.85357" lon="7.58391">
        <ele>150.19999694824</ele>
        <time>2022-09-10T07:56:13.000Z</time>
      </trkpt>
      <trkpt lat="43.85357" lon="7.58394">
        <ele>150.39999389648</ele>
        <time>2022-09-10T07:56:14.000Z</time>
      </trkpt>
      <trkpt lat="43.85361" lon="7.58402">
        <ele>151.39999389648</ele>
        <time>2022-09-10T07:56:18.000Z</time>
      </trkpt>
      <trkpt lat="43.85363" lon="7.58409">
        <ele>152</ele>
        <time>2022-09-10T07:56:21.000Z</time>
      </trkpt>
      <trkpt lat="43.85363" lon="7.58416">
        <ele>152.60000610352</ele>
        <time>2022-09-10T07:56:24.000Z</time>
      </trkpt>
      <trkpt lat="43.85361" lon="7.58422">
        <ele>153.39999389648</ele>
        <time>2022-09-10T07:56:27.000Z</time>
      </trkpt>
      <trkpt lat="43.8536" lon="7.58427">
        <ele>153.80000305176</ele>
        <time>2022-09-10T07:56:29.000Z</time>
      </trkpt>
      <trkpt lat="43.85358" lon="7.58439">
        <ele>154.80000305176</ele>
        <time>2022-09-10T07:56:34.000Z</time>
      </trkpt>
      <trkpt lat="43.85359" lon="7.58441">
        <ele>155</ele>
        <time>2022-09-10T07:56:35.000Z</time>
      </trkpt>
      <trkpt lat="43.8536" lon="7.58453">
        <ele>156.19999694824</ele>
        <time>2022-09-10T07:56:40.000Z</time>
      </trkpt>
      <trkpt lat="43.85361" lon="7.5846">
        <ele>157.19999694824</ele>
        <time>2022-09-10T07:56:43.000Z</time>
      </trkpt>
      <trkpt lat="43.85362" lon="7.58469">
        <ele>158.19999694824</ele>
        <time>2022-09-10T07:56:47.000Z</time>
      </trkpt>
      <trkpt lat="43.85363" lon="7.58477">
        <ele>159.39999389648</ele>
        <time>2022-09-10T07:56:51.000Z</time>
      </trkpt>
      <trkpt lat="43.85363" lon="7.58479">
        <ele>159.80000305176</ele>
        <time>2022-09-10T07:56:52.000Z</time>
      </trkpt>
      <trkpt lat="43.85364" lon="7.58484">
        <ele>160.39999389648</ele>
        <time>2022-09-10T07:56:54.000Z</time>
      </trkpt>
      <trkpt lat="43.85365" lon="7.58493">
        <ele>161.60000610352</ele>
        <time>2022-09-10T07:56:58.000Z</time>
      </trkpt>
      <trkpt lat="43.85365" lon="7.58498">
        <ele>162.39999389648</ele>
        <time>2022-09-10T07:57:00.000Z</time>
      </trkpt>
      <trkpt lat="43.85365" lon="7.58501">
        <ele>162.80000305176</ele>
        <time>2022-09-10T07:57:01.000Z</time>
      </trkpt>
      <trkpt lat="43.85364" lon="7.5851">
        <ele>164</ele>
        <time>2022-09-10T07:57:05.000Z</time>
      </trkpt>
      <trkpt lat="43.85364" lon="7.58514">
        <ele>164.60000610352</ele>
        <time>2022-09-10T07:57:07.000Z</time>
      </trkpt>
      <trkpt lat="43.85364" lon="7.58517">
        <ele>165</ele>
        <time>2022-09-10T07:57:08.000Z</time>
      </trkpt>
      <trkpt lat="43.85363" lon="7.58526">
        <ele>166</ele>
        <time>2022-09-10T07:57:12.000Z</time>
      </trkpt>
      <trkpt lat="43.85364" lon="7.58535">
        <ele>167</ele>
        <time>2022-09-10T07:57:16.000Z</time>
      </trkpt>
      <trkpt lat="43.85364" lon="7.58542">
        <ele>168.19999694824</ele>
        <time>2022-09-10T07:57:19.000Z</time>
      </trkpt>
      <trkpt lat="43.85365" lon="7.58548">
        <ele>169.39999389648</ele>
        <time>2022-09-10T07:57:22.000Z</time>
      </trkpt>
      <trkpt lat="43.85367" lon="7.58554">
        <ele>170.39999389648</ele>
        <time>2022-09-10T07:57:25.000Z</time>
      </trkpt>
      <trkpt lat="43.85368" lon="7.58557">
        <ele>170.60000610352</ele>
        <time>2022-09-10T07:57:26.000Z</time>
      </trkpt>
      <trkpt lat="43.85374" lon="7.58563">
        <ele>171.80000305176</ele>
        <time>2022-09-10T07:57:30.000Z</time>
      </trkpt>
      <trkpt lat="43.85375" lon="7.58564">
        <ele>172</ele>
        <time>2022-09-10T07:57:31.000Z</time>
      </trkpt>
      <trkpt lat="43.85381" lon="7.5857">
        <ele>173</ele>
        <time>2022-09-10T07:57:35.000Z</time>
      </trkpt>
      <trkpt lat="43.85387" lon="7.58576">
        <ele>174.19999694824</ele>
        <time>2022-09-10T07:57:39.000Z</time>
      </trkpt>
      <trkpt lat="43.85395" lon="7.58583">
        <ele>175.19999694824</ele>
        <time>2022-09-10T07:57:44.000Z</time>
      </trkpt>
      <trkpt lat="43.854" lon="7.58586">
        <ele>175.80000305176</ele>
        <time>2022-09-10T07:57:47.000Z</time>
      </trkpt>
      <trkpt lat="43.85413" lon="7.58592">
        <ele>176.19999694824</ele>
        <time>2022-09-10T07:57:54.000Z</time>
      </trkpt>
      <trkpt lat="43.85415" lon="7.58593">
        <ele>176.19999694824</ele>
        <time>2022-09-10T07:57:55.000Z</time>
      </trkpt>
      <trkpt lat="43.85428" lon="7.58599">
        <ele>177</ele>
        <time>2022-09-10T07:58:03.000Z</time>
      </trkpt>
      <trkpt lat="43.85435" lon="7.58602">
        <ele>177.19999694824</ele>
        <time>2022-09-10T07:58:07.000Z</time>
      </trkpt>
      <trkpt lat="43.85443" lon="7.58605">
        <ele>178</ele>
        <time>2022-09-10T07:58:12.000Z</time>
      </trkpt>
      <trkpt lat="43.85448" lon="7.58608">
        <ele>178.39999389648</ele>
        <time>2022-09-10T07:58:15.000Z</time>
      </trkpt>
      <trkpt lat="43.85456" lon="7.5861">
        <ele>179.39999389648</ele>
        <time>2022-09-10T07:58:20.000Z</time>
      </trkpt>
      <trkpt lat="43.85462" lon="7.58613">
        <ele>180.39999389648</ele>
        <time>2022-09-10T07:58:24.000Z</time>
      </trkpt>
      <trkpt lat="43.85468" lon="7.58615">
        <ele>181.19999694824</ele>
        <time>2022-09-10T07:58:28.000Z</time>
      </trkpt>
      <trkpt lat="43.8547" lon="7.58616">
        <ele>181.60000610352</ele>
        <time>2022-09-10T07:58:29.000Z</time>
      </trkpt>
      <trkpt lat="43.85475" lon="7.58619">
        <ele>182.80000305176</ele>
        <time>2022-09-10T07:58:33.000Z</time>
      </trkpt>
      <trkpt lat="43.85481" lon="7.58623">
        <ele>184</ele>
        <time>2022-09-10T07:58:37.000Z</time>
      </trkpt>
      <trkpt lat="43.85482" lon="7.58624">
        <ele>184.39999389648</ele>
        <time>2022-09-10T07:58:38.000Z</time>
      </trkpt>
      <trkpt lat="43.85486" lon="7.58627">
        <ele>185.19999694824</ele>
        <time>2022-09-10T07:58:41.000Z</time>
      </trkpt>
      <trkpt lat="43.85492" lon="7.58631">
        <ele>186.39999389648</ele>
        <time>2022-09-10T07:58:46.000Z</time>
      </trkpt>
      <trkpt lat="43.85496" lon="7.58634">
        <ele>187.39999389648</ele>
        <time>2022-09-10T07:58:49.000Z</time>
      </trkpt>
      <trkpt lat="43.85501" lon="7.58637">
        <ele>188.60000610352</ele>
        <time>2022-09-10T07:58:53.000Z</time>
      </trkpt>
      <trkpt lat="43.85504" lon="7.5864">
        <ele>189.60000610352</ele>
        <time>2022-09-10T07:58:56.000Z</time>
      </trkpt>
      <trkpt lat="43.85505" lon="7.58641">
        <ele>189.80000305176</ele>
        <time>2022-09-10T07:58:57.000Z</time>
      </trkpt>
      <trkpt lat="43.85512" lon="7.58645">
        <ele>191</ele>
        <time>2022-09-10T07:59:02.000Z</time>
      </trkpt>
      <trkpt lat="43.85515" lon="7.58647">
        <ele>191.39999389648</ele>
        <time>2022-09-10T07:59:04.000Z</time>
      </trkpt>
      <trkpt lat="43.85517" lon="7.5865">
        <ele>192</ele>
        <time>2022-09-10T07:59:06.000Z</time>
      </trkpt>
      <trkpt lat="43.85523" lon="7.58652">
        <ele>192.80000305176</ele>
        <time>2022-09-10T07:59:10.000Z</time>
      </trkpt>
      <trkpt lat="43.85525" lon="7.58653">
        <ele>193</ele>
        <time>2022-09-10T07:59:11.000Z</time>
      </trkpt>
      <trkpt lat="43.85537" lon="7.58657">
        <ele>194.19999694824</ele>
        <time>2022-09-10T07:59:19.000Z</time>
      </trkpt>
      <trkpt lat="43.85546" lon="7.5866">
        <ele>195.19999694824</ele>
        <time>2022-09-10T07:59:25.000Z</time>
      </trkpt>
      <trkpt lat="43.8555" lon="7.58661">
        <ele>196</ele>
        <time>2022-09-10T07:59:28.000Z</time>
      </trkpt>
      <trkpt lat="43.85553" lon="7.58662">
        <ele>196.39999389648</ele>
        <time>2022-09-10T07:59:30.000Z</time>
      </trkpt>
      <trkpt lat="43.85561" lon="7.58663">
        <ele>197.39999389648</ele>
        <time>2022-09-10T07:59:35.000Z</time>
      </trkpt>
      <trkpt lat="43.85562" lon="7.58663">
        <ele>197.80000305176</ele>
        <time>2022-09-10T07:59:36.000Z</time>
      </trkpt>
      <trkpt lat="43.85568" lon="7.58664">
        <ele>198.60000610352</ele>
        <time>2022-09-10T07:59:40.000Z</time>
      </trkpt>
      <trkpt lat="43.85572" lon="7.58664">
        <ele>199.60000610352</ele>
        <time>2022-09-10T07:59:43.000Z</time>
      </trkpt>
      <trkpt lat="43.85574" lon="7.58664">
        <ele>199.80000305176</ele>
        <time>2022-09-10T07:59:44.000Z</time>
      </trkpt>
      <trkpt lat="43.85581" lon="7.58665">
        <ele>200.80000305176</ele>
        <time>2022-09-10T07:59:49.000Z</time>
      </trkpt>
      <trkpt lat="43.85584" lon="7.58666">
        <ele>201.39999389648</ele>
        <time>2022-09-10T07:59:51.000Z</time>
      </trkpt>
      <trkpt lat="43.85586" lon="7.58668">
        <ele>201.80000305176</ele>
        <time>2022-09-10T07:59:53.000Z</time>
      </trkpt>
      <trkpt lat="43.85591" lon="7.58673">
        <ele>202.60000610352</ele>
        <time>2022-09-10T07:59:57.000Z</time>
      </trkpt>
      <trkpt lat="43.85592" lon="7.58674">
        <ele>203</ele>
        <time>2022-09-10T07:59:58.000Z</time>
      </trkpt>
      <trkpt lat="43.85597" lon="7.58682">
        <ele>204</ele>
        <time>2022-09-10T08:00:03.000Z</time>
      </trkpt>
      <trkpt lat="43.85599" lon="7.58685">
        <ele>204.39999389648</ele>
        <time>2022-09-10T08:00:05.000Z</time>
      </trkpt>
      <trkpt lat="43.85602" lon="7.58692">
        <ele>205.19999694824</ele>
        <time>2022-09-10T08:00:09.000Z</time>
      </trkpt>
      <trkpt lat="43.85605" lon="7.58699">
        <ele>205.60000610352</ele>
        <time>2022-09-10T08:00:13.000Z</time>
      </trkpt>
      <trkpt lat="43.85607" lon="7.58704">
        <ele>206.19999694824</ele>
        <time>2022-09-10T08:00:16.000Z</time>
      </trkpt>
      <trkpt lat="43.85613" lon="7.58714">
        <ele>207.39999389648</ele>
        <time>2022-09-10T08:00:21.000Z</time>
      </trkpt>
      <trkpt lat="43.85619" lon="7.58721">
        <ele>208.39999389648</ele>
        <time>2022-09-10T08:00:26.000Z</time>
      </trkpt>
      <trkpt lat="43.85622" lon="7.58723">
        <ele>208.80000305176</ele>
        <time>2022-09-10T08:00:28.000Z</time>
      </trkpt>
      <trkpt lat="43.85628" lon="7.58724">
        <ele>209.60000610352</ele>
        <time>2022-09-10T08:00:32.000Z</time>
      </trkpt>
      <trkpt lat="43.8563" lon="7.58721">
        <ele>210.19999694824</ele>
        <time>2022-09-10T08:00:34.000Z</time>
      </trkpt>
      <trkpt lat="43.85629" lon="7.58717">
        <ele>210.80000305176</ele>
        <time>2022-09-10T08:00:36.000Z</time>
      </trkpt>
      <trkpt lat="43.85627" lon="7.58713">
        <ele>211.39999389648</ele>
        <time>2022-09-10T08:00:38.000Z</time>
      </trkpt>
      <trkpt lat="43.85626" lon="7.58711">
        <ele>211.60000610352</ele>
        <time>2022-09-10T08:00:39.000Z</time>
      </trkpt>
      <trkpt lat="43.85624" lon="7.5871">
        <ele>211.80000305176</ele>
        <time>2022-09-10T08:00:40.000Z</time>
      </trkpt>
      <trkpt lat="43.85619" lon="7.587">
        <ele>212.80000305176</ele>
        <time>2022-09-10T08:00:45.000Z</time>
      </trkpt>
      <trkpt lat="43.85618" lon="7.58695">
        <ele>213.19999694824</ele>
        <time>2022-09-10T08:00:47.000Z</time>
      </trkpt>
      <trkpt lat="43.85616" lon="7.58681">
        <ele>213.80000305176</ele>
        <time>2022-09-10T08:00:53.000Z</time>
      </trkpt>
      <trkpt lat="43.85615" lon="7.58674">
        <ele>214.60000610352</ele>
        <time>2022-09-10T08:00:56.000Z</time>
      </trkpt>
      <trkpt lat="43.85615" lon="7.58669">
        <ele>215</ele>
        <time>2022-09-10T08:00:58.000Z</time>
      </trkpt>
      <trkpt lat="43.85614" lon="7.58658">
        <ele>216.39999389648</ele>
        <time>2022-09-10T08:01:03.000Z</time>
      </trkpt>
      <trkpt lat="43.85617" lon="7.58648">
        <ele>217.60000610352</ele>
        <time>2022-09-10T08:01:09.000Z</time>
      </trkpt>
      <trkpt lat="43.85617" lon="7.58647">
        <ele>217.60000610352</ele>
        <time>2022-09-10T08:01:10.000Z</time>
      </trkpt>
      <trkpt lat="43.85619" lon="7.58645">
        <ele>218.39999389648</ele>
        <time>2022-09-10T08:01:12.000Z</time>
      </trkpt>
      <trkpt lat="43.8562" lon="7.58645">
        <ele>218.60000610352</ele>
        <time>2022-09-10T08:01:13.000Z</time>
      </trkpt>
      <trkpt lat="43.85621" lon="7.58646">
        <ele>218.80000305176</ele>
        <time>2022-09-10T08:01:14.000Z</time>
      </trkpt>
      <trkpt lat="43.85624" lon="7.58648">
        <ele>219.39999389648</ele>
        <time>2022-09-10T08:01:17.000Z</time>
      </trkpt>
      <trkpt lat="43.85625" lon="7.5865">
        <ele>219.60000610352</ele>
        <time>2022-09-10T08:01:18.000Z</time>
      </trkpt>
      <trkpt lat="43.85625" lon="7.58651">
        <ele>219.80000305176</ele>
        <time>2022-09-10T08:01:19.000Z</time>
      </trkpt>
      <trkpt lat="43.85625" lon="7.58655">
        <ele>220.19999694824</ele>
        <time>2022-09-10T08:01:22.000Z</time>
      </trkpt>
      <trkpt lat="43.85626" lon="7.58659">
        <ele>220.60000610352</ele>
        <time>2022-09-10T08:01:25.000Z</time>
      </trkpt>
      <trkpt lat="43.85626" lon="7.58662">
        <ele>221</ele>
        <time>2022-09-10T08:01:27.000Z</time>
      </trkpt>
      <trkpt lat="43.85628" lon="7.58667">
        <ele>222</ele>
        <time>2022-09-10T08:01:31.000Z</time>
      </trkpt>
      <trkpt lat="43.85629" lon="7.58669">
        <ele>222.39999389648</ele>
        <time>2022-09-10T08:01:32.000Z</time>
      </trkpt>
      <trkpt lat="43.85629" lon="7.5867">
        <ele>222.60000610352</ele>
        <time>2022-09-10T08:01:33.000Z</time>
      </trkpt>
      <trkpt lat="43.85631" lon="7.58674">
        <ele>223.19999694824</ele>
        <time>2022-09-10T08:01:36.000Z</time>
      </trkpt>
      <trkpt lat="43.85633" lon="7.58677">
        <ele>223.60000610352</ele>
        <time>2022-09-10T08:01:38.000Z</time>
      </trkpt>
      <trkpt lat="43.85634" lon="7.58678">
        <ele>223.80000305176</ele>
        <time>2022-09-10T08:01:39.000Z</time>
      </trkpt>
      <trkpt lat="43.85636" lon="7.5868">
        <ele>224</ele>
        <time>2022-09-10T08:01:41.000Z</time>
      </trkpt>
      <trkpt lat="43.85639" lon="7.58682">
        <ele>224.19999694824</ele>
        <time>2022-09-10T08:01:43.000Z</time>
      </trkpt>
      <trkpt lat="43.85642" lon="7.58683">
        <ele>224.80000305176</ele>
        <time>2022-09-10T08:01:46.000Z</time>
      </trkpt>
      <trkpt lat="43.85645" lon="7.58683">
        <ele>225.19999694824</ele>
        <time>2022-09-10T08:01:48.000Z</time>
      </trkpt>
      <trkpt lat="43.85654" lon="7.58684">
        <ele>226.60000610352</ele>
        <time>2022-09-10T08:01:54.000Z</time>
      </trkpt>
      <trkpt lat="43.85655" lon="7.58684">
        <ele>226.80000305176</ele>
        <time>2022-09-10T08:01:55.000Z</time>
      </trkpt>
      <trkpt lat="43.85663" lon="7.58683">
        <ele>227.60000610352</ele>
        <time>2022-09-10T08:02:00.000Z</time>
      </trkpt>
      <trkpt lat="43.85668" lon="7.58685">
        <ele>228.39999389648</ele>
        <time>2022-09-10T08:02:03.000Z</time>
      </trkpt>
      <trkpt lat="43.85671" lon="7.58687">
        <ele>228.80000305176</ele>
        <time>2022-09-10T08:02:05.000Z</time>
      </trkpt>
      <trkpt lat="43.85681" lon="7.58695">
        <ele>230</ele>
        <time>2022-09-10T08:02:12.000Z</time>
      </trkpt>
      <trkpt lat="43.8569" lon="7.58704">
        <ele>231.19999694824</ele>
        <time>2022-09-10T08:02:19.000Z</time>
      </trkpt>
      <trkpt lat="43.85691" lon="7.58705">
        <ele>231.39999389648</ele>
        <time>2022-09-10T08:02:20.000Z</time>
      </trkpt>
      <trkpt lat="43.85696" lon="7.58709">
        <ele>232.19999694824</ele>
        <time>2022-09-10T08:02:23.000Z</time>
      </trkpt>
      <trkpt lat="43.85703" lon="7.58714">
        <ele>233.19999694824</ele>
        <time>2022-09-10T08:02:28.000Z</time>
      </trkpt>
      <trkpt lat="43.85705" lon="7.58715">
        <ele>233.39999389648</ele>
        <time>2022-09-10T08:02:29.000Z</time>
      </trkpt>
      <trkpt lat="43.85713" lon="7.5872">
        <ele>234.39999389648</ele>
        <time>2022-09-10T08:02:35.000Z</time>
      </trkpt>
      <trkpt lat="43.85716" lon="7.58723">
        <ele>234.80000305176</ele>
        <time>2022-09-10T08:02:37.000Z</time>
      </trkpt>
      <trkpt lat="43.8572" lon="7.58726">
        <ele>235.60000610352</ele>
        <time>2022-09-10T08:02:40.000Z</time>
      </trkpt>
      <trkpt lat="43.85725" lon="7.58731">
        <ele>236.60000610352</ele>
        <time>2022-09-10T08:02:44.000Z</time>
      </trkpt>
      <trkpt lat="43.85726" lon="7.58731">
        <ele>236.80000305176</ele>
        <time>2022-09-10T08:02:45.000Z</time>
      </trkpt>
      <trkpt lat="43.85731" lon="7.58734">
        <ele>237.80000305176</ele>
        <time>2022-09-10T08:02:49.000Z</time>
      </trkpt>
      <trkpt lat="43.85735" lon="7.58736">
        <ele>238.39999389648</ele>
        <time>2022-09-10T08:02:52.000Z</time>
      </trkpt>
      <trkpt lat="43.85739" lon="7.58737">
        <ele>238.80000305176</ele>
        <time>2022-09-10T08:02:55.000Z</time>
      </trkpt>
      <trkpt lat="43.85746" lon="7.58738">
        <ele>240</ele>
        <time>2022-09-10T08:02:59.000Z</time>
      </trkpt>
      <trkpt lat="43.85748" lon="7.58738">
        <ele>240.80000305176</ele>
        <time>2022-09-10T08:03:01.000Z</time>
      </trkpt>
      <trkpt lat="43.85751" lon="7.58738">
        <ele>241.19999694824</ele>
        <time>2022-09-10T08:03:03.000Z</time>
      </trkpt>
      <trkpt lat="43.85756" lon="7.58739">
        <ele>242.39999389648</ele>
        <time>2022-09-10T08:03:07.000Z</time>
      </trkpt>
      <trkpt lat="43.85763" lon="7.58743">
        <ele>243.39999389648</ele>
        <time>2022-09-10T08:03:12.000Z</time>
      </trkpt>
      <trkpt lat="43.85766" lon="7.58745">
        <ele>243.80000305176</ele>
        <time>2022-09-10T08:03:14.000Z</time>
      </trkpt>
      <trkpt lat="43.8577" lon="7.58748">
        <ele>244.60000610352</ele>
        <time>2022-09-10T08:03:17.000Z</time>
      </trkpt>
      <trkpt lat="43.85775" lon="7.58753">
        <ele>245.80000305176</ele>
        <time>2022-09-10T08:03:21.000Z</time>
      </trkpt>
      <trkpt lat="43.85776" lon="7.58754">
        <ele>246</ele>
        <time>2022-09-10T08:03:22.000Z</time>
      </trkpt>
      <trkpt lat="43.8578" lon="7.58757">
        <ele>247</ele>
        <time>2022-09-10T08:03:25.000Z</time>
      </trkpt>
      <trkpt lat="43.85785" lon="7.58761">
        <ele>248</ele>
        <time>2022-09-10T08:03:29.000Z</time>
      </trkpt>
      <trkpt lat="43.8579" lon="7.58766">
        <ele>249</ele>
        <time>2022-09-10T08:03:33.000Z</time>
      </trkpt>
      <trkpt lat="43.85793" lon="7.58771">
        <ele>250</ele>
        <time>2022-09-10T08:03:36.000Z</time>
      </trkpt>
      <trkpt lat="43.85796" lon="7.58774">
        <ele>251</ele>
        <time>2022-09-10T08:03:39.000Z</time>
      </trkpt>
      <trkpt lat="43.85797" lon="7.58776">
        <ele>251.19999694824</ele>
        <time>2022-09-10T08:03:40.000Z</time>
      </trkpt>
      <trkpt lat="43.85801" lon="7.58781">
        <ele>252.39999389648</ele>
        <time>2022-09-10T08:03:44.000Z</time>
      </trkpt>
      <trkpt lat="43.85807" lon="7.58786">
        <ele>253.60000610352</ele>
        <time>2022-09-10T08:03:49.000Z</time>
      </trkpt>
      <trkpt lat="43.85813" lon="7.58788">
        <ele>254.80000305176</ele>
        <time>2022-09-10T08:03:53.000Z</time>
      </trkpt>
      <trkpt lat="43.85818" lon="7.5879">
        <ele>255.80000305176</ele>
        <time>2022-09-10T08:03:57.000Z</time>
      </trkpt>
      <trkpt lat="43.85827" lon="7.58791">
        <ele>257</ele>
        <time>2022-09-10T08:04:02.000Z</time>
      </trkpt>
      <trkpt lat="43.85832" lon="7.58791">
        <ele>257.60000610352</ele>
        <time>2022-09-10T08:04:05.000Z</time>
      </trkpt>
      <trkpt lat="43.85836" lon="7.58791">
        <ele>258</ele>
        <time>2022-09-10T08:04:07.000Z</time>
      </trkpt>
      <trkpt lat="43.85843" lon="7.58792">
        <ele>259</ele>
        <time>2022-09-10T08:04:11.000Z</time>
      </trkpt>
      <trkpt lat="43.85845" lon="7.58792">
        <ele>259.20001220703</ele>
        <time>2022-09-10T08:04:12.000Z</time>
      </trkpt>
      <trkpt lat="43.85852" lon="7.58792">
        <ele>260</ele>
        <time>2022-09-10T08:04:16.000Z</time>
      </trkpt>
      <trkpt lat="43.85867" lon="7.58795">
        <ele>261.20001220703</ele>
        <time>2022-09-10T08:04:23.000Z</time>
      </trkpt>
      <trkpt lat="43.8588" lon="7.58806">
        <ele>262</ele>
        <time>2022-09-10T08:04:30.000Z</time>
      </trkpt>
      <trkpt lat="43.85886" lon="7.58813">
        <ele>262.20001220703</ele>
        <time>2022-09-10T08:04:33.000Z</time>
      </trkpt>
      <trkpt lat="43.85895" lon="7.58821">
        <ele>263</ele>
        <time>2022-09-10T08:04:38.000Z</time>
      </trkpt>
      <trkpt lat="43.85908" lon="7.58832">
        <ele>263.39999389648</ele>
        <time>2022-09-10T08:04:45.000Z</time>
      </trkpt>
      <trkpt lat="43.8591" lon="7.58833">
        <ele>263.39999389648</ele>
        <time>2022-09-10T08:04:46.000Z</time>
      </trkpt>
      <trkpt lat="43.85918" lon="7.5884">
        <ele>264.39999389648</ele>
        <time>2022-09-10T08:04:51.000Z</time>
      </trkpt>
      <trkpt lat="43.85923" lon="7.58845">
        <ele>265.20001220703</ele>
        <time>2022-09-10T08:04:54.000Z</time>
      </trkpt>
      <trkpt lat="43.85924" lon="7.58846">
        <ele>265.39999389648</ele>
        <time>2022-09-10T08:04:55.000Z</time>
      </trkpt>
      <trkpt lat="43.85931" lon="7.58852">
        <ele>266.39999389648</ele>
        <time>2022-09-10T08:04:59.000Z</time>
      </trkpt>
      <trkpt lat="43.85938" lon="7.58861">
        <ele>267.60000610352</ele>
        <time>2022-09-10T08:05:04.000Z</time>
      </trkpt>
      <trkpt lat="43.85944" lon="7.58869">
        <ele>268.60000610352</ele>
        <time>2022-09-10T08:05:08.000Z</time>
      </trkpt>
      <trkpt lat="43.85952" lon="7.58878">
        <ele>269.60000610352</ele>
        <time>2022-09-10T08:05:13.000Z</time>
      </trkpt>
      <trkpt lat="43.85958" lon="7.58889">
        <ele>270.79998779297</ele>
        <time>2022-09-10T08:05:19.000Z</time>
      </trkpt>
      <trkpt lat="43.8596" lon="7.58893">
        <ele>271.39999389648</ele>
        <time>2022-09-10T08:05:21.000Z</time>
      </trkpt>
      <trkpt lat="43.85962" lon="7.58897">
        <ele>272</ele>
        <time>2022-09-10T08:05:23.000Z</time>
      </trkpt>
      <trkpt lat="43.85968" lon="7.58906">
        <ele>273</ele>
        <time>2022-09-10T08:05:27.000Z</time>
      </trkpt>
      <trkpt lat="43.8597" lon="7.58914">
        <ele>274</ele>
        <time>2022-09-10T08:05:31.000Z</time>
      </trkpt>
      <trkpt lat="43.85971" lon="7.58921">
        <ele>274.60000610352</ele>
        <time>2022-09-10T08:05:34.000Z</time>
      </trkpt>
      <trkpt lat="43.85967" lon="7.58937">
        <ele>275</ele>
        <time>2022-09-10T08:05:39.000Z</time>
      </trkpt>
      <trkpt lat="43.85955" lon="7.58948">
        <ele>274.60000610352</ele>
        <time>2022-09-10T08:05:45.000Z</time>
      </trkpt>
      <trkpt lat="43.85947" lon="7.58953">
        <ele>275</ele>
        <time>2022-09-10T08:05:49.000Z</time>
      </trkpt>
      <trkpt lat="43.85943" lon="7.58957">
        <ele>275.60000610352</ele>
        <time>2022-09-10T08:05:52.000Z</time>
      </trkpt>
      <trkpt lat="43.85939" lon="7.58961">
        <ele>276.20001220703</ele>
        <time>2022-09-10T08:05:55.000Z</time>
      </trkpt>
      <trkpt lat="43.85936" lon="7.58968">
        <ele>277.39999389648</ele>
        <time>2022-09-10T08:05:59.000Z</time>
      </trkpt>
      <trkpt lat="43.85936" lon="7.5897">
        <ele>277.60000610352</ele>
        <time>2022-09-10T08:06:00.000Z</time>
      </trkpt>
      <trkpt lat="43.85934" lon="7.58979">
        <ele>278.60000610352</ele>
        <time>2022-09-10T08:06:04.000Z</time>
      </trkpt>
      <trkpt lat="43.85934" lon="7.58986">
        <ele>279.20001220703</ele>
        <time>2022-09-10T08:06:07.000Z</time>
      </trkpt>
      <trkpt lat="43.85934" lon="7.58991">
        <ele>279.60000610352</ele>
        <time>2022-09-10T08:06:09.000Z</time>
      </trkpt>
      <trkpt lat="43.85933" lon="7.59">
        <ele>280.79998779297</ele>
        <time>2022-09-10T08:06:12.000Z</time>
      </trkpt>
      <trkpt lat="43.85932" lon="7.59009">
        <ele>282</ele>
        <time>2022-09-10T08:06:15.000Z</time>
      </trkpt>
      <trkpt lat="43.85931" lon="7.59015">
        <ele>283</ele>
        <time>2022-09-10T08:06:17.000Z</time>
      </trkpt>
      <trkpt lat="43.85928" lon="7.59024">
        <ele>284.39999389648</ele>
        <time>2022-09-10T08:06:20.000Z</time>
      </trkpt>
      <trkpt lat="43.85925" lon="7.59029">
        <ele>285.20001220703</ele>
        <time>2022-09-10T08:06:22.000Z</time>
      </trkpt>
      <trkpt lat="43.85924" lon="7.59031">
        <ele>285.60000610352</ele>
        <time>2022-09-10T08:06:23.000Z</time>
      </trkpt>
      <trkpt lat="43.85916" lon="7.59036">
        <ele>286.60000610352</ele>
        <time>2022-09-10T08:06:27.000Z</time>
      </trkpt>
      <trkpt lat="43.85902" lon="7.59039">
        <ele>287.60000610352</ele>
        <time>2022-09-10T08:06:34.000Z</time>
      </trkpt>
      <trkpt lat="43.859" lon="7.5904">
        <ele>287.79998779297</ele>
        <time>2022-09-10T08:06:35.000Z</time>
      </trkpt>
      <trkpt lat="43.85886" lon="7.59051">
        <ele>287.79998779297</ele>
        <time>2022-09-10T08:06:43.000Z</time>
      </trkpt>
      <trkpt lat="43.85887" lon="7.59062">
        <ele>288.79998779297</ele>
        <time>2022-09-10T08:06:47.000Z</time>
      </trkpt>
      <trkpt lat="43.85888" lon="7.59065">
        <ele>289.20001220703</ele>
        <time>2022-09-10T08:06:48.000Z</time>
      </trkpt>
      <trkpt lat="43.8589" lon="7.5907">
        <ele>290</ele>
        <time>2022-09-10T08:06:50.000Z</time>
      </trkpt>
      <trkpt lat="43.85895" lon="7.59079">
        <ele>291</ele>
        <time>2022-09-10T08:06:54.000Z</time>
      </trkpt>
      <trkpt lat="43.85896" lon="7.59081">
        <ele>291.20001220703</ele>
        <time>2022-09-10T08:06:55.000Z</time>
      </trkpt>
      <trkpt lat="43.859" lon="7.59089">
        <ele>292.20001220703</ele>
        <time>2022-09-10T08:06:58.000Z</time>
      </trkpt>
      <trkpt lat="43.85906" lon="7.591">
        <ele>293.39999389648</ele>
        <time>2022-09-10T08:07:02.000Z</time>
      </trkpt>
      <trkpt lat="43.8591" lon="7.5911">
        <ele>294.60000610352</ele>
        <time>2022-09-10T08:07:05.000Z</time>
      </trkpt>
      <trkpt lat="43.85913" lon="7.59116">
        <ele>296</ele>
        <time>2022-09-10T08:07:07.000Z</time>
      </trkpt>
      <trkpt lat="43.85915" lon="7.59123">
        <ele>297.60000610352</ele>
        <time>2022-09-10T08:07:09.000Z</time>
      </trkpt>
      <trkpt lat="43.85916" lon="7.59126">
        <ele>297.79998779297</ele>
        <time>2022-09-10T08:07:10.000Z</time>
      </trkpt>
      <trkpt lat="43.85917" lon="7.59129">
        <ele>298.60000610352</ele>
        <time>2022-09-10T08:07:11.000Z</time>
      </trkpt>
      <trkpt lat="43.85919" lon="7.59136">
        <ele>299.60000610352</ele>
        <time>2022-09-10T08:07:13.000Z</time>
      </trkpt>
      <trkpt lat="43.85922" lon="7.59146">
        <ele>300.79998779297</ele>
        <time>2022-09-10T08:07:16.000Z</time>
      </trkpt>
      <trkpt lat="43.85926" lon="7.59156">
        <ele>302</ele>
        <time>2022-09-10T08:07:19.000Z</time>
      </trkpt>
      <trkpt lat="43.85928" lon="7.59164">
        <ele>303.20001220703</ele>
        <time>2022-09-10T08:07:22.000Z</time>
      </trkpt>
      <trkpt lat="43.85929" lon="7.59167">
        <ele>303.60000610352</ele>
        <time>2022-09-10T08:07:23.000Z</time>
      </trkpt>
      <trkpt lat="43.8593" lon="7.59173">
        <ele>304.39999389648</ele>
        <time>2022-09-10T08:07:25.000Z</time>
      </trkpt>
      <trkpt lat="43.85934" lon="7.59188">
        <ele>305.20001220703</ele>
        <time>2022-09-10T08:07:30.000Z</time>
      </trkpt>
      <trkpt lat="43.85945" lon="7.59209">
        <ele>305.39999389648</ele>
        <time>2022-09-10T08:07:37.000Z</time>
      </trkpt>
      <trkpt lat="43.85946" lon="7.59216">
        <ele>305.39999389648</ele>
        <time>2022-09-10T08:07:39.000Z</time>
      </trkpt>
      <trkpt lat="43.85949" lon="7.59228">
        <ele>306.20001220703</ele>
        <time>2022-09-10T08:07:43.000Z</time>
      </trkpt>
      <trkpt lat="43.85952" lon="7.59233">
        <ele>306.79998779297</ele>
        <time>2022-09-10T08:07:45.000Z</time>
      </trkpt>
      <trkpt lat="43.8596" lon="7.59242">
        <ele>307.39999389648</ele>
        <time>2022-09-10T08:07:49.000Z</time>
      </trkpt>
      <trkpt lat="43.85968" lon="7.5925">
        <ele>307.79998779297</ele>
        <time>2022-09-10T08:07:53.000Z</time>
      </trkpt>
      <trkpt lat="43.85974" lon="7.59255">
        <ele>308.60000610352</ele>
        <time>2022-09-10T08:07:56.000Z</time>
      </trkpt>
      <trkpt lat="43.85976" lon="7.59256">
        <ele>308.79998779297</ele>
        <time>2022-09-10T08:07:57.000Z</time>
      </trkpt>
      <trkpt lat="43.85981" lon="7.59261">
        <ele>309.79998779297</ele>
        <time>2022-09-10T08:08:00.000Z</time>
      </trkpt>
      <trkpt lat="43.85988" lon="7.59269">
        <ele>311</ele>
        <time>2022-09-10T08:08:04.000Z</time>
      </trkpt>
      <trkpt lat="43.85989" lon="7.59271">
        <ele>311.20001220703</ele>
        <time>2022-09-10T08:08:05.000Z</time>
      </trkpt>
      <trkpt lat="43.86" lon="7.59288">
        <ele>312</ele>
        <time>2022-09-10T08:08:12.000Z</time>
      </trkpt>
      <trkpt lat="43.86006" lon="7.59296">
        <ele>312.60000610352</ele>
        <time>2022-09-10T08:08:16.000Z</time>
      </trkpt>
      <trkpt lat="43.86011" lon="7.59304">
        <ele>313.20001220703</ele>
        <time>2022-09-10T08:08:19.000Z</time>
      </trkpt>
      <trkpt lat="43.86019" lon="7.59312">
        <ele>314.20001220703</ele>
        <time>2022-09-10T08:08:23.000Z</time>
      </trkpt>
      <trkpt lat="43.86021" lon="7.59314">
        <ele>314.60000610352</ele>
        <time>2022-09-10T08:08:24.000Z</time>
      </trkpt>
      <trkpt lat="43.86025" lon="7.59317">
        <ele>315.20001220703</ele>
        <time>2022-09-10T08:08:26.000Z</time>
      </trkpt>
      <trkpt lat="43.8604" lon="7.59331">
        <ele>316.60000610352</ele>
        <time>2022-09-10T08:08:34.000Z</time>
      </trkpt>
      <trkpt lat="43.86044" lon="7.59334">
        <ele>317</ele>
        <time>2022-09-10T08:08:36.000Z</time>
      </trkpt>
      <trkpt lat="43.86051" lon="7.59343">
        <ele>317.60000610352</ele>
        <time>2022-09-10T08:08:40.000Z</time>
      </trkpt>
      <trkpt lat="43.86055" lon="7.59351">
        <ele>319</ele>
        <time>2022-09-10T08:08:44.000Z</time>
      </trkpt>
      <trkpt lat="43.86057" lon="7.59359">
        <ele>320.20001220703</ele>
        <time>2022-09-10T08:08:48.000Z</time>
      </trkpt>
      <trkpt lat="43.86058" lon="7.59367">
        <ele>320.79998779297</ele>
        <time>2022-09-10T08:08:51.000Z</time>
      </trkpt>
      <trkpt lat="43.86059" lon="7.59372">
        <ele>321.39999389648</ele>
        <time>2022-09-10T08:08:53.000Z</time>
      </trkpt>
      <trkpt lat="43.86062" lon="7.59393">
        <ele>322.39999389648</ele>
        <time>2022-09-10T08:09:00.000Z</time>
      </trkpt>
      <trkpt lat="43.86062" lon="7.59397">
        <ele>322.60000610352</ele>
        <time>2022-09-10T08:09:01.000Z</time>
      </trkpt>
      <trkpt lat="43.86064" lon="7.59423">
        <ele>323</ele>
        <time>2022-09-10T08:09:09.000Z</time>
      </trkpt>
      <trkpt lat="43.86065" lon="7.59436">
        <ele>323.60000610352</ele>
        <time>2022-09-10T08:09:13.000Z</time>
      </trkpt>
      <trkpt lat="43.86068" lon="7.59453">
        <ele>324.20001220703</ele>
        <time>2022-09-10T08:09:19.000Z</time>
      </trkpt>
      <trkpt lat="43.86071" lon="7.5946">
        <ele>324.60000610352</ele>
        <time>2022-09-10T08:09:22.000Z</time>
      </trkpt>
      <trkpt lat="43.86079" lon="7.59468">
        <ele>325</ele>
        <time>2022-09-10T08:09:27.000Z</time>
      </trkpt>
      <trkpt lat="43.8609" lon="7.59472">
        <ele>325.60000610352</ele>
        <time>2022-09-10T08:09:32.000Z</time>
      </trkpt>
      <trkpt lat="43.86094" lon="7.59473">
        <ele>325.79998779297</ele>
        <time>2022-09-10T08:09:34.000Z</time>
      </trkpt>
      <trkpt lat="43.86102" lon="7.59477">
        <ele>326.60000610352</ele>
        <time>2022-09-10T08:09:38.000Z</time>
      </trkpt>
      <trkpt lat="43.86112" lon="7.59484">
        <ele>327.60000610352</ele>
        <time>2022-09-10T08:09:43.000Z</time>
      </trkpt>
      <trkpt lat="43.86113" lon="7.59485">
        <ele>328</ele>
        <time>2022-09-10T08:09:44.000Z</time>
      </trkpt>
      <trkpt lat="43.86118" lon="7.59495">
        <ele>329.20001220703</ele>
        <time>2022-09-10T08:09:48.000Z</time>
      </trkpt>
      <trkpt lat="43.86119" lon="7.59497">
        <ele>329.39999389648</ele>
        <time>2022-09-10T08:09:49.000Z</time>
      </trkpt>
      <trkpt lat="43.86121" lon="7.59505">
        <ele>330.20001220703</ele>
        <time>2022-09-10T08:09:52.000Z</time>
      </trkpt>
      <trkpt lat="43.86124" lon="7.59517">
        <ele>331</ele>
        <time>2022-09-10T08:09:56.000Z</time>
      </trkpt>
      <trkpt lat="43.86124" lon="7.59519">
        <ele>331.20001220703</ele>
        <time>2022-09-10T08:09:57.000Z</time>
      </trkpt>
      <trkpt lat="43.86132" lon="7.59538">
        <ele>332</ele>
        <time>2022-09-10T08:10:04.000Z</time>
      </trkpt>
      <trkpt lat="43.86136" lon="7.59543">
        <ele>332.20001220703</ele>
        <time>2022-09-10T08:10:06.000Z</time>
      </trkpt>
      <trkpt lat="43.86148" lon="7.59561">
        <ele>332.60000610352</ele>
        <time>2022-09-10T08:10:13.000Z</time>
      </trkpt>
      <trkpt lat="43.86155" lon="7.59568">
        <ele>332.79998779297</ele>
        <time>2022-09-10T08:10:18.000Z</time>
      </trkpt>
      <trkpt lat="43.86155" lon="7.59568">
        <ele>333.20001220703</ele>
        <time>2022-09-10T08:10:22.000Z</time>
      </trkpt>
      <trkpt lat="43.86155" lon="7.59568">
        <ele>333.39999389648</ele>
        <time>2022-09-10T08:10:23.000Z</time>
      </trkpt>
      <trkpt lat="43.86155" lon="7.59568">
        <ele>333.39999389648</ele>
        <time>2022-09-10T08:10:37.000Z</time>
      </trkpt>
      <trkpt lat="43.86154" lon="7.59568">
        <ele>333.20001220703</ele>
        <time>2022-09-10T08:11:01.000Z</time>
      </trkpt>
      <trkpt lat="43.86154" lon="7.59568">
        <ele>332.79998779297</ele>
        <time>2022-09-10T08:11:24.000Z</time>
      </trkpt>
      <trkpt lat="43.86155" lon="7.59569">
        <ele>332.79998779297</ele>
        <time>2022-09-10T08:11:45.000Z</time>
      </trkpt>
      <trkpt lat="43.86154" lon="7.59569">
        <ele>332.79998779297</ele>
        <time>2022-09-10T08:12:04.000Z</time>
      </trkpt>
      <trkpt lat="43.86154" lon="7.59569">
        <ele>332.60000610352</ele>
        <time>2022-09-10T08:12:27.000Z</time>
      </trkpt>
      <trkpt lat="43.86153" lon="7.59569">
        <ele>332.60000610352</ele>
        <time>2022-09-10T08:12:46.000Z</time>
      </trkpt>
      <trkpt lat="43.86153" lon="7.59569">
        <ele>332.60000610352</ele>
        <time>2022-09-10T08:13:04.000Z</time>
      </trkpt>
      <trkpt lat="43.86152" lon="7.5957">
        <ele>332.39999389648</ele>
        <time>2022-09-10T08:13:26.000Z</time>
      </trkpt>
      <trkpt lat="43.86153" lon="7.5957">
        <ele>332.39999389648</ele>
        <time>2022-09-10T08:13:50.000Z</time>
      </trkpt>
      <trkpt lat="43.86153" lon="7.5957">
        <ele>332.20001220703</ele>
        <time>2022-09-10T08:14:01.000Z</time>
      </trkpt>
      <trkpt lat="43.86153" lon="7.5957">
        <ele>332.20001220703</ele>
        <time>2022-09-10T08:14:10.000Z</time>
      </trkpt>
      <trkpt lat="43.86154" lon="7.5957">
        <ele>332.20001220703</ele>
        <time>2022-09-10T08:14:31.000Z</time>
      </trkpt>
      <trkpt lat="43.86153" lon="7.5957">
        <ele>331.79998779297</ele>
        <time>2022-09-10T08:14:54.000Z</time>
      </trkpt>
      <trkpt lat="43.86154" lon="7.59572">
        <ele>331.79998779297</ele>
        <time>2022-09-10T08:15:20.000Z</time>
      </trkpt>
      <trkpt lat="43.86155" lon="7.59573">
        <ele>331.60000610352</ele>
        <time>2022-09-10T08:15:43.000Z</time>
      </trkpt>
      <trkpt lat="43.86155" lon="7.59574">
        <ele>331.60000610352</ele>
        <time>2022-09-10T08:16:05.000Z</time>
      </trkpt>
      <trkpt lat="43.86155" lon="7.59574">
        <ele>331.60000610352</ele>
        <time>2022-09-10T08:16:18.000Z</time>
      </trkpt>
      <trkpt lat="43.86156" lon="7.59576">
        <ele>331.60000610352</ele>
        <time>2022-09-10T08:16:23.000Z</time>
      </trkpt>
      <trkpt lat="43.86157" lon="7.59582">
        <ele>331.60000610352</ele>
        <time>2022-09-10T08:16:26.000Z</time>
      </trkpt>
      <trkpt lat="43.86154" lon="7.59594">
        <ele>332.20001220703</ele>
        <time>2022-09-10T08:16:32.000Z</time>
      </trkpt>
      <trkpt lat="43.86154" lon="7.59596">
        <ele>332.39999389648</ele>
        <time>2022-09-10T08:16:33.000Z</time>
      </trkpt>
      <trkpt lat="43.86152" lon="7.59606">
        <ele>333.39999389648</ele>
        <time>2022-09-10T08:16:38.000Z</time>
      </trkpt>
      <trkpt lat="43.86153" lon="7.59612">
        <ele>334.60000610352</ele>
        <time>2022-09-10T08:16:42.000Z</time>
      </trkpt>
      <trkpt lat="43.86153" lon="7.59614">
        <ele>335.20001220703</ele>
        <time>2022-09-10T08:16:44.000Z</time>
      </trkpt>
      <trkpt lat="43.86155" lon="7.59617">
        <ele>335.79998779297</ele>
        <time>2022-09-10T08:16:46.000Z</time>
      </trkpt>
      <trkpt lat="43.86162" lon="7.59625">
        <ele>336.60000610352</ele>
        <time>2022-09-10T08:16:50.000Z</time>
      </trkpt>
      <trkpt lat="43.86163" lon="7.59627">
        <ele>336.79998779297</ele>
        <time>2022-09-10T08:16:51.000Z</time>
      </trkpt>
      <trkpt lat="43.86168" lon="7.59631">
        <ele>338.20001220703</ele>
        <time>2022-09-10T08:16:54.000Z</time>
      </trkpt>
      <trkpt lat="43.8617" lon="7.59634">
        <ele>339.20001220703</ele>
        <time>2022-09-10T08:16:56.000Z</time>
      </trkpt>
      <trkpt lat="43.86171" lon="7.59635">
        <ele>339.60000610352</ele>
        <time>2022-09-10T08:16:57.000Z</time>
      </trkpt>
      <trkpt lat="43.86175" lon="7.5964">
        <ele>340.60000610352</ele>
        <time>2022-09-10T08:17:01.000Z</time>
      </trkpt>
      <trkpt lat="43.86178" lon="7.59642">
        <ele>341</ele>
        <time>2022-09-10T08:17:03.000Z</time>
      </trkpt>
      <trkpt lat="43.86181" lon="7.59645">
        <ele>341.79998779297</ele>
        <time>2022-09-10T08:17:06.000Z</time>
      </trkpt>
      <trkpt lat="43.86185" lon="7.59653">
        <ele>342.60000610352</ele>
        <time>2022-09-10T08:17:11.000Z</time>
      </trkpt>
      <trkpt lat="43.86185" lon="7.59655">
        <ele>342.79998779297</ele>
        <time>2022-09-10T08:17:12.000Z</time>
      </trkpt>
      <trkpt lat="43.86184" lon="7.59659">
        <ele>343.20001220703</ele>
        <time>2022-09-10T08:17:14.000Z</time>
      </trkpt>
      <trkpt lat="43.86182" lon="7.59662">
        <ele>343.79998779297</ele>
        <time>2022-09-10T08:17:16.000Z</time>
      </trkpt>
      <trkpt lat="43.8618" lon="7.59663">
        <ele>344</ele>
        <time>2022-09-10T08:17:17.000Z</time>
      </trkpt>
      <trkpt lat="43.86174" lon="7.59666">
        <ele>345</ele>
        <time>2022-09-10T08:17:22.000Z</time>
      </trkpt>
      <trkpt lat="43.86172" lon="7.59666">
        <ele>345.20001220703</ele>
        <time>2022-09-10T08:17:23.000Z</time>
      </trkpt>
      <trkpt lat="43.86168" lon="7.59667">
        <ele>346</ele>
        <time>2022-09-10T08:17:26.000Z</time>
      </trkpt>
      <trkpt lat="43.86162" lon="7.59665">
        <ele>347</ele>
        <time>2022-09-10T08:17:31.000Z</time>
      </trkpt>
      <trkpt lat="43.86161" lon="7.59665">
        <ele>347</ele>
        <time>2022-09-10T08:17:32.000Z</time>
      </trkpt>
      <trkpt lat="43.8615" lon="7.59657">
        <ele>347.60000610352</ele>
        <time>2022-09-10T08:17:40.000Z</time>
      </trkpt>
      <trkpt lat="43.86138" lon="7.59648">
        <ele>347.60000610352</ele>
        <time>2022-09-10T08:17:47.000Z</time>
      </trkpt>
      <trkpt lat="43.86127" lon="7.59639">
        <ele>347.60000610352</ele>
        <time>2022-09-10T08:17:54.000Z</time>
      </trkpt>
      <trkpt lat="43.86119" lon="7.59633">
        <ele>348</ele>
        <time>2022-09-10T08:17:59.000Z</time>
      </trkpt>
      <trkpt lat="43.86118" lon="7.59632">
        <ele>348.20001220703</ele>
        <time>2022-09-10T08:18:00.000Z</time>
      </trkpt>
      <trkpt lat="43.86101" lon="7.59625">
        <ele>347.79998779297</ele>
        <time>2022-09-10T08:18:07.000Z</time>
      </trkpt>
      <trkpt lat="43.86085" lon="7.5963">
        <ele>347.39999389648</ele>
        <time>2022-09-10T08:18:14.000Z</time>
      </trkpt>
      <trkpt lat="43.86079" lon="7.59633">
        <ele>348</ele>
        <time>2022-09-10T08:18:20.000Z</time>
      </trkpt>
      <trkpt lat="43.86079" lon="7.59633">
        <ele>348.79998779297</ele>
        <time>2022-09-10T08:18:39.000Z</time>
      </trkpt>
      <trkpt lat="43.86079" lon="7.59634">
        <ele>349</ele>
        <time>2022-09-10T08:18:57.000Z</time>
      </trkpt>
      <trkpt lat="43.86079" lon="7.59633">
        <ele>349.20001220703</ele>
        <time>2022-09-10T08:19:09.000Z</time>
      </trkpt>
      <trkpt lat="43.86079" lon="7.59633">
        <ele>349.20001220703</ele>
        <time>2022-09-10T08:19:21.000Z</time>
      </trkpt>
      <trkpt lat="43.86079" lon="7.59634">
        <ele>349.20001220703</ele>
        <time>2022-09-10T08:19:47.000Z</time>
      </trkpt>
      <trkpt lat="43.86079" lon="7.59635">
        <ele>349.20001220703</ele>
        <time>2022-09-10T08:20:07.000Z</time>
      </trkpt>
      <trkpt lat="43.86079" lon="7.59635">
        <ele>349.39999389648</ele>
        <time>2022-09-10T08:20:23.000Z</time>
      </trkpt>
      <trkpt lat="43.86079" lon="7.59636">
        <ele>349.39999389648</ele>
        <time>2022-09-10T08:20:34.000Z</time>
      </trkpt>
      <trkpt lat="43.8608" lon="7.59636">
        <ele>349</ele>
        <time>2022-09-10T08:20:42.000Z</time>
      </trkpt>
      <trkpt lat="43.8608" lon="7.59636">
        <ele>349.39999389648</ele>
        <time>2022-09-10T08:20:51.000Z</time>
      </trkpt>
      <trkpt lat="43.86074" lon="7.59639">
        <ele>349.39999389648</ele>
        <time>2022-09-10T08:20:57.000Z</time>
      </trkpt>
      <trkpt lat="43.86058" lon="7.59651">
        <ele>350.39999389648</ele>
        <time>2022-09-10T08:21:04.000Z</time>
      </trkpt>
      <trkpt lat="43.86052" lon="7.59654">
        <ele>351.79998779297</ele>
        <time>2022-09-10T08:21:07.000Z</time>
      </trkpt>
      <trkpt lat="43.86046" lon="7.59656">
        <ele>353.20001220703</ele>
        <time>2022-09-10T08:21:10.000Z</time>
      </trkpt>
      <trkpt lat="43.86041" lon="7.59659">
        <ele>354</ele>
        <time>2022-09-10T08:21:12.000Z</time>
      </trkpt>
      <trkpt lat="43.86038" lon="7.5966">
        <ele>354.20001220703</ele>
        <time>2022-09-10T08:21:13.000Z</time>
      </trkpt>
      <trkpt lat="43.86027" lon="7.59666">
        <ele>355.39999389648</ele>
        <time>2022-09-10T08:21:18.000Z</time>
      </trkpt>
      <trkpt lat="43.86025" lon="7.59669">
        <ele>355.60000610352</ele>
        <time>2022-09-10T08:21:19.000Z</time>
      </trkpt>
      <trkpt lat="43.86021" lon="7.59679">
        <ele>356.60000610352</ele>
        <time>2022-09-10T08:21:22.000Z</time>
      </trkpt>
      <trkpt lat="43.8602" lon="7.59686">
        <ele>357.39999389648</ele>
        <time>2022-09-10T08:21:24.000Z</time>
      </trkpt>
      <trkpt lat="43.8602" lon="7.59689">
        <ele>357.79998779297</ele>
        <time>2022-09-10T08:21:25.000Z</time>
      </trkpt>
      <trkpt lat="43.86021" lon="7.59697">
        <ele>359.20001220703</ele>
        <time>2022-09-10T08:21:28.000Z</time>
      </trkpt>
      <trkpt lat="43.86023" lon="7.59699">
        <ele>359.60000610352</ele>
        <time>2022-09-10T08:21:29.000Z</time>
      </trkpt>
      <trkpt lat="43.86027" lon="7.59696">
        <ele>360.20001220703</ele>
        <time>2022-09-10T08:21:31.000Z</time>
      </trkpt>
      <trkpt lat="43.86028" lon="7.59693">
        <ele>360.60000610352</ele>
        <time>2022-09-10T08:21:32.000Z</time>
      </trkpt>
      <trkpt lat="43.86028" lon="7.59687">
        <ele>361.39999389648</ele>
        <time>2022-09-10T08:21:34.000Z</time>
      </trkpt>
      <trkpt lat="43.86031" lon="7.5968">
        <ele>362.39999389648</ele>
        <time>2022-09-10T08:21:37.000Z</time>
      </trkpt>
      <trkpt lat="43.86037" lon="7.59675">
        <ele>363.79998779297</ele>
        <time>2022-09-10T08:21:41.000Z</time>
      </trkpt>
      <trkpt lat="43.86039" lon="7.59675">
        <ele>364.20001220703</ele>
        <time>2022-09-10T08:21:42.000Z</time>
      </trkpt>
      <trkpt lat="43.86042" lon="7.59679">
        <ele>365</ele>
        <time>2022-09-10T08:21:44.000Z</time>
      </trkpt>
      <trkpt lat="43.86042" lon="7.59684">
        <ele>365.60000610352</ele>
        <time>2022-09-10T08:21:46.000Z</time>
      </trkpt>
      <trkpt lat="43.86042" lon="7.59686">
        <ele>366</ele>
        <time>2022-09-10T08:21:47.000Z</time>
      </trkpt>
      <trkpt lat="43.86042" lon="7.59691">
        <ele>366.79998779297</ele>
        <time>2022-09-10T08:21:49.000Z</time>
      </trkpt>
      <trkpt lat="43.86043" lon="7.59693">
        <ele>367</ele>
        <time>2022-09-10T08:21:50.000Z</time>
      </trkpt>
      <trkpt lat="43.86043" lon="7.59697">
        <ele>367.60000610352</ele>
        <time>2022-09-10T08:21:52.000Z</time>
      </trkpt>
      <trkpt lat="43.86044" lon="7.597">
        <ele>368.20001220703</ele>
        <time>2022-09-10T08:21:54.000Z</time>
      </trkpt>
      <trkpt lat="43.86046" lon="7.59702">
        <ele>368.60000610352</ele>
        <time>2022-09-10T08:21:56.000Z</time>
      </trkpt>
      <trkpt lat="43.86048" lon="7.59702">
        <ele>368.79998779297</ele>
        <time>2022-09-10T08:21:57.000Z</time>
      </trkpt>
      <trkpt lat="43.86051" lon="7.59699">
        <ele>369.60000610352</ele>
        <time>2022-09-10T08:21:59.000Z</time>
      </trkpt>
      <trkpt lat="43.86052" lon="7.59692">
        <ele>370.39999389648</ele>
        <time>2022-09-10T08:22:02.000Z</time>
      </trkpt>
      <trkpt lat="43.86053" lon="7.59689">
        <ele>370.79998779297</ele>
        <time>2022-09-10T08:22:03.000Z</time>
      </trkpt>
      <trkpt lat="43.86056" lon="7.59683">
        <ele>371.79998779297</ele>
        <time>2022-09-10T08:22:06.000Z</time>
      </trkpt>
      <trkpt lat="43.86059" lon="7.5968">
        <ele>372.60000610352</ele>
        <time>2022-09-10T08:22:08.000Z</time>
      </trkpt>
      <trkpt lat="43.86061" lon="7.5968">
        <ele>373</ele>
        <time>2022-09-10T08:22:09.000Z</time>
      </trkpt>
      <trkpt lat="43.86065" lon="7.59684">
        <ele>374.20001220703</ele>
        <time>2022-09-10T08:22:12.000Z</time>
      </trkpt>
      <trkpt lat="43.86066" lon="7.59686">
        <ele>374.39999389648</ele>
        <time>2022-09-10T08:22:13.000Z</time>
      </trkpt>
      <trkpt lat="43.86065" lon="7.59692">
        <ele>375.20001220703</ele>
        <time>2022-09-10T08:22:16.000Z</time>
      </trkpt>
      <trkpt lat="43.86065" lon="7.59694">
        <ele>375.60000610352</ele>
        <time>2022-09-10T08:22:17.000Z</time>
      </trkpt>
      <trkpt lat="43.86065" lon="7.59697">
        <ele>376</ele>
        <time>2022-09-10T08:22:18.000Z</time>
      </trkpt>
      <trkpt lat="43.86066" lon="7.597">
        <ele>376.60000610352</ele>
        <time>2022-09-10T08:22:20.000Z</time>
      </trkpt>
      <trkpt lat="43.86069" lon="7.59708">
        <ele>377.79998779297</ele>
        <time>2022-09-10T08:22:24.000Z</time>
      </trkpt>
      <trkpt lat="43.8607" lon="7.59714">
        <ele>378.79998779297</ele>
        <time>2022-09-10T08:22:27.000Z</time>
      </trkpt>
      <trkpt lat="43.86072" lon="7.59723">
        <ele>379.60000610352</ele>
        <time>2022-09-10T08:22:31.000Z</time>
      </trkpt>
      <trkpt lat="43.86073" lon="7.59725">
        <ele>379.79998779297</ele>
        <time>2022-09-10T08:22:32.000Z</time>
      </trkpt>
      <trkpt lat="43.86074" lon="7.59731">
        <ele>381</ele>
        <time>2022-09-10T08:22:35.000Z</time>
      </trkpt>
      <trkpt lat="43.86075" lon="7.59738">
        <ele>382</ele>
        <time>2022-09-10T08:22:38.000Z</time>
      </trkpt>
      <trkpt lat="43.86075" lon="7.59746">
        <ele>383.20001220703</ele>
        <time>2022-09-10T08:22:42.000Z</time>
      </trkpt>
      <trkpt lat="43.86075" lon="7.59757">
        <ele>384.39999389648</ele>
        <time>2022-09-10T08:22:47.000Z</time>
      </trkpt>
      <trkpt lat="43.86075" lon="7.5976">
        <ele>384.60000610352</ele>
        <time>2022-09-10T08:22:48.000Z</time>
      </trkpt>
      <trkpt lat="43.86072" lon="7.59769">
        <ele>385.39999389648</ele>
        <time>2022-09-10T08:22:52.000Z</time>
      </trkpt>
      <trkpt lat="43.8607" lon="7.59775">
        <ele>386.39999389648</ele>
        <time>2022-09-10T08:22:55.000Z</time>
      </trkpt>
      <trkpt lat="43.86069" lon="7.59778">
        <ele>386.60000610352</ele>
        <time>2022-09-10T08:22:56.000Z</time>
      </trkpt>
      <trkpt lat="43.86063" lon="7.59794">
        <ele>387.60000610352</ele>
        <time>2022-09-10T08:23:03.000Z</time>
      </trkpt>
      <trkpt lat="43.8606" lon="7.59802">
        <ele>387.79998779297</ele>
        <time>2022-09-10T08:23:06.000Z</time>
      </trkpt>
      <trkpt lat="43.86055" lon="7.59816">
        <ele>388.60000610352</ele>
        <time>2022-09-10T08:23:12.000Z</time>
      </trkpt>
      <trkpt lat="43.86053" lon="7.59824">
        <ele>389</ele>
        <time>2022-09-10T08:23:15.000Z</time>
      </trkpt>
      <trkpt lat="43.86051" lon="7.59832">
        <ele>389.60000610352</ele>
        <time>2022-09-10T08:23:18.000Z</time>
      </trkpt>
      <trkpt lat="43.8605" lon="7.59843">
        <ele>390.79998779297</ele>
        <time>2022-09-10T08:23:22.000Z</time>
      </trkpt>
      <trkpt lat="43.8605" lon="7.59848">
        <ele>391.20001220703</ele>
        <time>2022-09-10T08:23:24.000Z</time>
      </trkpt>
      <trkpt lat="43.86048" lon="7.59858">
        <ele>392.20001220703</ele>
        <time>2022-09-10T08:23:28.000Z</time>
      </trkpt>
      <trkpt lat="43.86047" lon="7.59864">
        <ele>393.20001220703</ele>
        <time>2022-09-10T08:23:31.000Z</time>
      </trkpt>
      <trkpt lat="43.86046" lon="7.59866">
        <ele>393.39999389648</ele>
        <time>2022-09-10T08:23:32.000Z</time>
      </trkpt>
      <trkpt lat="43.86046" lon="7.59871">
        <ele>393.79998779297</ele>
        <time>2022-09-10T08:23:36.000Z</time>
      </trkpt>
      <trkpt lat="43.86046" lon="7.59891">
        <ele>393.60000610352</ele>
        <time>2022-09-10T08:23:42.000Z</time>
      </trkpt>
      <trkpt lat="43.86051" lon="7.59915">
        <ele>393</ele>
        <time>2022-09-10T08:23:47.000Z</time>
      </trkpt>
      <trkpt lat="43.86051" lon="7.59923">
        <ele>392.60000610352</ele>
        <time>2022-09-10T08:23:48.000Z</time>
      </trkpt>
      <trkpt lat="43.86051" lon="7.5993">
        <ele>391.79998779297</ele>
        <time>2022-09-10T08:23:49.000Z</time>
      </trkpt>
      <trkpt lat="43.86052" lon="7.59936">
        <ele>391.39999389648</ele>
        <time>2022-09-10T08:23:50.000Z</time>
      </trkpt>
      <trkpt lat="43.86056" lon="7.59945">
        <ele>390.39999389648</ele>
        <time>2022-09-10T08:23:52.000Z</time>
      </trkpt>
      <trkpt lat="43.86058" lon="7.59948">
        <ele>390.20001220703</ele>
        <time>2022-09-10T08:23:53.000Z</time>
      </trkpt>
      <trkpt lat="43.86061" lon="7.59951">
        <ele>390.20001220703</ele>
        <time>2022-09-10T08:23:54.000Z</time>
      </trkpt>
      <trkpt lat="43.86069" lon="7.59961">
        <ele>391.39999389648</ele>
        <time>2022-09-10T08:23:58.000Z</time>
      </trkpt>
      <trkpt lat="43.86072" lon="7.59966">
        <ele>392.20001220703</ele>
        <time>2022-09-10T08:24:00.000Z</time>
      </trkpt>
      <trkpt lat="43.86076" lon="7.59972">
        <ele>392.79998779297</ele>
        <time>2022-09-10T08:24:02.000Z</time>
      </trkpt>
      <trkpt lat="43.86082" lon="7.59991">
        <ele>393.39999389648</ele>
        <time>2022-09-10T08:24:08.000Z</time>
      </trkpt>
      <trkpt lat="43.86092" lon="7.60016">
        <ele>393.39999389648</ele>
        <time>2022-09-10T08:24:16.000Z</time>
      </trkpt>
      <trkpt lat="43.86096" lon="7.60024">
        <ele>393.79998779297</ele>
        <time>2022-09-10T08:24:19.000Z</time>
      </trkpt>
      <trkpt lat="43.86101" lon="7.60038">
        <ele>395</ele>
        <time>2022-09-10T08:24:24.000Z</time>
      </trkpt>
      <trkpt lat="43.86101" lon="7.60041">
        <ele>395</ele>
        <time>2022-09-10T08:24:25.000Z</time>
      </trkpt>
      <trkpt lat="43.86103" lon="7.60065">
        <ele>395.60000610352</ele>
        <time>2022-09-10T08:24:32.000Z</time>
      </trkpt>
      <trkpt lat="43.86102" lon="7.60082">
        <ele>396</ele>
        <time>2022-09-10T08:24:37.000Z</time>
      </trkpt>
      <trkpt lat="43.861" lon="7.60088">
        <ele>396.20001220703</ele>
        <time>2022-09-10T08:24:39.000Z</time>
      </trkpt>
      <trkpt lat="43.86094" lon="7.60102">
        <ele>397.20001220703</ele>
        <time>2022-09-10T08:24:44.000Z</time>
      </trkpt>
      <trkpt lat="43.86092" lon="7.60108">
        <ele>397.39999389648</ele>
        <time>2022-09-10T08:24:46.000Z</time>
      </trkpt>
      <trkpt lat="43.86092" lon="7.60123">
        <ele>398.20001220703</ele>
        <time>2022-09-10T08:24:51.000Z</time>
      </trkpt>
      <trkpt lat="43.86093" lon="7.60126">
        <ele>398.39999389648</ele>
        <time>2022-09-10T08:24:52.000Z</time>
      </trkpt>
      <trkpt lat="43.86092" lon="7.60138">
        <ele>399</ele>
        <time>2022-09-10T08:24:56.000Z</time>
      </trkpt>
      <trkpt lat="43.86091" lon="7.6014">
        <ele>399</ele>
        <time>2022-09-10T08:24:57.000Z</time>
      </trkpt>
      <trkpt lat="43.86083" lon="7.60147">
        <ele>399.20001220703</ele>
        <time>2022-09-10T08:25:01.000Z</time>
      </trkpt>
      <trkpt lat="43.8608" lon="7.60151">
        <ele>399.60000610352</ele>
        <time>2022-09-10T08:25:03.000Z</time>
      </trkpt>
      <trkpt lat="43.86072" lon="7.60158">
        <ele>400.39999389648</ele>
        <time>2022-09-10T08:25:07.000Z</time>
      </trkpt>
      <trkpt lat="43.86071" lon="7.6016">
        <ele>400.39999389648</ele>
        <time>2022-09-10T08:25:08.000Z</time>
      </trkpt>
      <trkpt lat="43.86068" lon="7.60163">
        <ele>401</ele>
        <time>2022-09-10T08:25:10.000Z</time>
      </trkpt>
      <trkpt lat="43.86063" lon="7.60164">
        <ele>401.60000610352</ele>
        <time>2022-09-10T08:25:12.000Z</time>
      </trkpt>
      <trkpt lat="43.86061" lon="7.60165">
        <ele>402</ele>
        <time>2022-09-10T08:25:13.000Z</time>
      </trkpt>
      <trkpt lat="43.86058" lon="7.60167">
        <ele>403</ele>
        <time>2022-09-10T08:25:15.000Z</time>
      </trkpt>
      <trkpt lat="43.86054" lon="7.6017">
        <ele>403.60000610352</ele>
        <time>2022-09-10T08:25:17.000Z</time>
      </trkpt>
      <trkpt lat="43.8605" lon="7.60173">
        <ele>404</ele>
        <time>2022-09-10T08:25:19.000Z</time>
      </trkpt>
      <trkpt lat="43.86049" lon="7.60175">
        <ele>404.20001220703</ele>
        <time>2022-09-10T08:25:20.000Z</time>
      </trkpt>
      <trkpt lat="43.86043" lon="7.60177">
        <ele>405.20001220703</ele>
        <time>2022-09-10T08:25:23.000Z</time>
      </trkpt>
      <trkpt lat="43.86038" lon="7.60175">
        <ele>405.60000610352</ele>
        <time>2022-09-10T08:25:25.000Z</time>
      </trkpt>
      <trkpt lat="43.86034" lon="7.60169">
        <ele>406.20001220703</ele>
        <time>2022-09-10T08:25:28.000Z</time>
      </trkpt>
      <trkpt lat="43.86031" lon="7.60165">
        <ele>406.79998779297</ele>
        <time>2022-09-10T08:25:30.000Z</time>
      </trkpt>
      <trkpt lat="43.86028" lon="7.60161">
        <ele>407.39999389648</ele>
        <time>2022-09-10T08:25:32.000Z</time>
      </trkpt>
      <trkpt lat="43.86024" lon="7.60156">
        <ele>408.60000610352</ele>
        <time>2022-09-10T08:25:35.000Z</time>
      </trkpt>
      <trkpt lat="43.86017" lon="7.60152">
        <ele>409.79998779297</ele>
        <time>2022-09-10T08:25:39.000Z</time>
      </trkpt>
      <trkpt lat="43.8601" lon="7.60152">
        <ele>410.20001220703</ele>
        <time>2022-09-10T08:25:42.000Z</time>
      </trkpt>
      <trkpt lat="43.86004" lon="7.60153">
        <ele>410.79998779297</ele>
        <time>2022-09-10T08:25:45.000Z</time>
      </trkpt>
      <trkpt lat="43.85995" lon="7.60155">
        <ele>412</ele>
        <time>2022-09-10T08:25:50.000Z</time>
      </trkpt>
      <trkpt lat="43.85993" lon="7.60158">
        <ele>412.60000610352</ele>
        <time>2022-09-10T08:25:51.000Z</time>
      </trkpt>
      <trkpt lat="43.8599" lon="7.60162">
        <ele>413.60000610352</ele>
        <time>2022-09-10T08:25:53.000Z</time>
      </trkpt>
      <trkpt lat="43.85992" lon="7.60168">
        <ele>414.79998779297</ele>
        <time>2022-09-10T08:25:56.000Z</time>
      </trkpt>
      <trkpt lat="43.86001" lon="7.60165">
        <ele>416</ele>
        <time>2022-09-10T08:26:00.000Z</time>
      </trkpt>
      <trkpt lat="43.86007" lon="7.60168">
        <ele>417</ele>
        <time>2022-09-10T08:26:03.000Z</time>
      </trkpt>
      <trkpt lat="43.86009" lon="7.60169">
        <ele>417.60000610352</ele>
        <time>2022-09-10T08:26:04.000Z</time>
      </trkpt>
      <trkpt lat="43.86011" lon="7.60171">
        <ele>418</ele>
        <time>2022-09-10T08:26:05.000Z</time>
      </trkpt>
      <trkpt lat="43.86013" lon="7.60174">
        <ele>418.20001220703</ele>
        <time>2022-09-10T08:26:06.000Z</time>
      </trkpt>
      <trkpt lat="43.86014" lon="7.60182">
        <ele>419.39999389648</ele>
        <time>2022-09-10T08:26:09.000Z</time>
      </trkpt>
      <trkpt lat="43.86015" lon="7.60185">
        <ele>419.39999389648</ele>
        <time>2022-09-10T08:26:10.000Z</time>
      </trkpt>
      <trkpt lat="43.86017" lon="7.60199">
        <ele>420.60000610352</ele>
        <time>2022-09-10T08:26:15.000Z</time>
      </trkpt>
      <trkpt lat="43.8602" lon="7.60207">
        <ele>421.20001220703</ele>
        <time>2022-09-10T08:26:18.000Z</time>
      </trkpt>
      <trkpt lat="43.86022" lon="7.60211">
        <ele>421.60000610352</ele>
        <time>2022-09-10T08:26:20.000Z</time>
      </trkpt>
      <trkpt lat="43.86027" lon="7.6022">
        <ele>422.39999389648</ele>
        <time>2022-09-10T08:26:23.000Z</time>
      </trkpt>
      <trkpt lat="43.86028" lon="7.60222">
        <ele>422.79998779297</ele>
        <time>2022-09-10T08:26:24.000Z</time>
      </trkpt>
      <trkpt lat="43.86031" lon="7.60227">
        <ele>423.79998779297</ele>
        <time>2022-09-10T08:26:26.000Z</time>
      </trkpt>
      <trkpt lat="43.86035" lon="7.60229">
        <ele>425</ele>
        <time>2022-09-10T08:26:29.000Z</time>
      </trkpt>
      <trkpt lat="43.86044" lon="7.6023">
        <ele>426.60000610352</ele>
        <time>2022-09-10T08:26:33.000Z</time>
      </trkpt>
      <trkpt lat="43.86047" lon="7.60231">
        <ele>427.60000610352</ele>
        <time>2022-09-10T08:26:35.000Z</time>
      </trkpt>
      <trkpt lat="43.86049" lon="7.60233">
        <ele>428</ele>
        <time>2022-09-10T08:26:36.000Z</time>
      </trkpt>
      <trkpt lat="43.8605" lon="7.60236">
        <ele>428.39999389648</ele>
        <time>2022-09-10T08:26:37.000Z</time>
      </trkpt>
      <trkpt lat="43.8605" lon="7.60238">
        <ele>428.79998779297</ele>
        <time>2022-09-10T08:26:38.000Z</time>
      </trkpt>
      <trkpt lat="43.86047" lon="7.60243">
        <ele>429.60000610352</ele>
        <time>2022-09-10T08:26:40.000Z</time>
      </trkpt>
      <trkpt lat="43.86044" lon="7.60244">
        <ele>430</ele>
        <time>2022-09-10T08:26:41.000Z</time>
      </trkpt>
      <trkpt lat="43.86036" lon="7.60246">
        <ele>431</ele>
        <time>2022-09-10T08:26:45.000Z</time>
      </trkpt>
      <trkpt lat="43.86034" lon="7.60246">
        <ele>431.20001220703</ele>
        <time>2022-09-10T08:26:46.000Z</time>
      </trkpt>
      <trkpt lat="43.86022" lon="7.60244">
        <ele>432.20001220703</ele>
        <time>2022-09-10T08:26:51.000Z</time>
      </trkpt>
      <trkpt lat="43.86018" lon="7.6024">
        <ele>432.60000610352</ele>
        <time>2022-09-10T08:26:53.000Z</time>
      </trkpt>
      <trkpt lat="43.86013" lon="7.60233">
        <ele>433.39999389648</ele>
        <time>2022-09-10T08:26:56.000Z</time>
      </trkpt>
      <trkpt lat="43.86007" lon="7.60226">
        <ele>434.39999389648</ele>
        <time>2022-09-10T08:27:00.000Z</time>
      </trkpt>
      <trkpt lat="43.86005" lon="7.60226">
        <ele>434.20001220703</ele>
        <time>2022-09-10T08:27:01.000Z</time>
      </trkpt>
      <trkpt lat="43.86001" lon="7.60231">
        <ele>435.39999389648</ele>
        <time>2022-09-10T08:27:04.000Z</time>
      </trkpt>
      <trkpt lat="43.86" lon="7.60233">
        <ele>435.60000610352</ele>
        <time>2022-09-10T08:27:05.000Z</time>
      </trkpt>
      <trkpt lat="43.86" lon="7.60236">
        <ele>436</ele>
        <time>2022-09-10T08:27:06.000Z</time>
      </trkpt>
      <trkpt lat="43.86" lon="7.60245">
        <ele>436.60000610352</ele>
        <time>2022-09-10T08:27:09.000Z</time>
      </trkpt>
      <trkpt lat="43.86" lon="7.60248">
        <ele>437.20001220703</ele>
        <time>2022-09-10T08:27:10.000Z</time>
      </trkpt>
      <trkpt lat="43.85999" lon="7.60253">
        <ele>438.20001220703</ele>
        <time>2022-09-10T08:27:12.000Z</time>
      </trkpt>
      <trkpt lat="43.85999" lon="7.60256">
        <ele>438.60000610352</ele>
        <time>2022-09-10T08:27:13.000Z</time>
      </trkpt>
      <trkpt lat="43.86" lon="7.60257">
        <ele>439.20001220703</ele>
        <time>2022-09-10T08:27:14.000Z</time>
      </trkpt>
      <trkpt lat="43.86004" lon="7.60263">
        <ele>440.39999389648</ele>
        <time>2022-09-10T08:27:17.000Z</time>
      </trkpt>
      <trkpt lat="43.86008" lon="7.60265">
        <ele>441.20001220703</ele>
        <time>2022-09-10T08:27:19.000Z</time>
      </trkpt>
      <trkpt lat="43.8601" lon="7.60266">
        <ele>441.60000610352</ele>
        <time>2022-09-10T08:27:20.000Z</time>
      </trkpt>
      <trkpt lat="43.86016" lon="7.60274">
        <ele>442.60000610352</ele>
        <time>2022-09-10T08:27:24.000Z</time>
      </trkpt>
      <trkpt lat="43.86019" lon="7.60279">
        <ele>443.20001220703</ele>
        <time>2022-09-10T08:27:26.000Z</time>
      </trkpt>
      <trkpt lat="43.86023" lon="7.60286">
        <ele>444</ele>
        <time>2022-09-10T08:27:29.000Z</time>
      </trkpt>
      <trkpt lat="43.86026" lon="7.60291">
        <ele>444.79998779297</ele>
        <time>2022-09-10T08:27:32.000Z</time>
      </trkpt>
      <trkpt lat="43.86028" lon="7.60292">
        <ele>445.20001220703</ele>
        <time>2022-09-10T08:27:33.000Z</time>
      </trkpt>
      <trkpt lat="43.86036" lon="7.60293">
        <ele>446.20001220703</ele>
        <time>2022-09-10T08:27:37.000Z</time>
      </trkpt>
      <trkpt lat="43.86038" lon="7.60293">
        <ele>446.60000610352</ele>
        <time>2022-09-10T08:27:38.000Z</time>
      </trkpt>
      <trkpt lat="43.86042" lon="7.60292">
        <ele>447.39999389648</ele>
        <time>2022-09-10T08:27:40.000Z</time>
      </trkpt>
      <trkpt lat="43.86047" lon="7.6029">
        <ele>448.39999389648</ele>
        <time>2022-09-10T08:27:43.000Z</time>
      </trkpt>
      <trkpt lat="43.86051" lon="7.60288">
        <ele>449.20001220703</ele>
        <time>2022-09-10T08:27:45.000Z</time>
      </trkpt>
      <trkpt lat="43.86055" lon="7.60287">
        <ele>449.79998779297</ele>
        <time>2022-09-10T08:27:47.000Z</time>
      </trkpt>
      <trkpt lat="43.86061" lon="7.60288">
        <ele>450.79998779297</ele>
        <time>2022-09-10T08:27:50.000Z</time>
      </trkpt>
      <trkpt lat="43.86067" lon="7.60291">
        <ele>452.39999389648</ele>
        <time>2022-09-10T08:27:53.000Z</time>
      </trkpt>
      <trkpt lat="43.86074" lon="7.60295">
        <ele>453.39999389648</ele>
        <time>2022-09-10T08:27:57.000Z</time>
      </trkpt>
      <trkpt lat="43.86083" lon="7.60302">
        <ele>454.20001220703</ele>
        <time>2022-09-10T08:28:02.000Z</time>
      </trkpt>
      <trkpt lat="43.86087" lon="7.60305">
        <ele>454.60000610352</ele>
        <time>2022-09-10T08:28:04.000Z</time>
      </trkpt>
      <trkpt lat="43.86095" lon="7.60309">
        <ele>455.60000610352</ele>
        <time>2022-09-10T08:28:08.000Z</time>
      </trkpt>
      <trkpt lat="43.86108" lon="7.60302">
        <ele>456.39999389648</ele>
        <time>2022-09-10T08:28:14.000Z</time>
      </trkpt>
      <trkpt lat="43.86112" lon="7.60298">
        <ele>456.79998779297</ele>
        <time>2022-09-10T08:28:16.000Z</time>
      </trkpt>
      <trkpt lat="43.86119" lon="7.6029">
        <ele>457.39999389648</ele>
        <time>2022-09-10T08:28:20.000Z</time>
      </trkpt>
      <trkpt lat="43.86123" lon="7.60286">
        <ele>457.79998779297</ele>
        <time>2022-09-10T08:28:22.000Z</time>
      </trkpt>
      <trkpt lat="43.86131" lon="7.60274">
        <ele>458.79998779297</ele>
        <time>2022-09-10T08:28:27.000Z</time>
      </trkpt>
      <trkpt lat="43.86133" lon="7.60273">
        <ele>459</ele>
        <time>2022-09-10T08:28:28.000Z</time>
      </trkpt>
      <trkpt lat="43.86138" lon="7.60267">
        <ele>460.60000610352</ele>
        <time>2022-09-10T08:28:31.000Z</time>
      </trkpt>
      <trkpt lat="43.86144" lon="7.60265">
        <ele>461.79998779297</ele>
        <time>2022-09-10T08:28:34.000Z</time>
      </trkpt>
      <trkpt lat="43.86152" lon="7.60265">
        <ele>463.20001220703</ele>
        <time>2022-09-10T08:28:37.000Z</time>
      </trkpt>
      <trkpt lat="43.86156" lon="7.60268">
        <ele>463.79998779297</ele>
        <time>2022-09-10T08:28:39.000Z</time>
      </trkpt>
      <trkpt lat="43.86157" lon="7.60271">
        <ele>464</ele>
        <time>2022-09-10T08:28:40.000Z</time>
      </trkpt>
      <trkpt lat="43.86158" lon="7.60273">
        <ele>464.39999389648</ele>
        <time>2022-09-10T08:28:41.000Z</time>
      </trkpt>
      <trkpt lat="43.86161" lon="7.60276">
        <ele>465.39999389648</ele>
        <time>2022-09-10T08:28:43.000Z</time>
      </trkpt>
      <trkpt lat="43.86165" lon="7.60277">
        <ele>466.60000610352</ele>
        <time>2022-09-10T08:28:45.000Z</time>
      </trkpt>
      <trkpt lat="43.86168" lon="7.60278">
        <ele>467</ele>
        <time>2022-09-10T08:28:46.000Z</time>
      </trkpt>
      <trkpt lat="43.86172" lon="7.60279">
        <ele>467.79998779297</ele>
        <time>2022-09-10T08:28:48.000Z</time>
      </trkpt>
      <trkpt lat="43.86177" lon="7.60281">
        <ele>469.20001220703</ele>
        <time>2022-09-10T08:28:51.000Z</time>
      </trkpt>
      <trkpt lat="43.86179" lon="7.60282">
        <ele>469.79998779297</ele>
        <time>2022-09-10T08:28:52.000Z</time>
      </trkpt>
      <trkpt lat="43.8618" lon="7.60285">
        <ele>470.20001220703</ele>
        <time>2022-09-10T08:28:53.000Z</time>
      </trkpt>
      <trkpt lat="43.8618" lon="7.60288">
        <ele>470.79998779297</ele>
        <time>2022-09-10T08:28:54.000Z</time>
      </trkpt>
      <trkpt lat="43.86177" lon="7.60293">
        <ele>471.39999389648</ele>
        <time>2022-09-10T08:28:56.000Z</time>
      </trkpt>
      <trkpt lat="43.86174" lon="7.60294">
        <ele>471.79998779297</ele>
        <time>2022-09-10T08:28:57.000Z</time>
      </trkpt>
      <trkpt lat="43.86167" lon="7.60294">
        <ele>472.60000610352</ele>
        <time>2022-09-10T08:29:00.000Z</time>
      </trkpt>
      <trkpt lat="43.86165" lon="7.60294">
        <ele>472.79998779297</ele>
        <time>2022-09-10T08:29:01.000Z</time>
      </trkpt>
      <trkpt lat="43.86153" lon="7.60299">
        <ele>474.39999389648</ele>
        <time>2022-09-10T08:29:07.000Z</time>
      </trkpt>
      <trkpt lat="43.86151" lon="7.60309">
        <ele>475.79998779297</ele>
        <time>2022-09-10T08:29:10.000Z</time>
      </trkpt>
      <trkpt lat="43.86147" lon="7.60318">
        <ele>476.39999389648</ele>
        <time>2022-09-10T08:29:13.000Z</time>
      </trkpt>
      <trkpt lat="43.86146" lon="7.60324">
        <ele>476.79998779297</ele>
        <time>2022-09-10T08:29:15.000Z</time>
      </trkpt>
      <trkpt lat="43.86142" lon="7.60334">
        <ele>478</ele>
        <time>2022-09-10T08:29:19.000Z</time>
      </trkpt>
      <trkpt lat="43.86141" lon="7.60337">
        <ele>478.20001220703</ele>
        <time>2022-09-10T08:29:20.000Z</time>
      </trkpt>
      <trkpt lat="43.86137" lon="7.60345">
        <ele>479.20001220703</ele>
        <time>2022-09-10T08:29:23.000Z</time>
      </trkpt>
      <trkpt lat="43.86131" lon="7.60355">
        <ele>479.79998779297</ele>
        <time>2022-09-10T08:29:27.000Z</time>
      </trkpt>
      <trkpt lat="43.86126" lon="7.60361">
        <ele>480.20001220703</ele>
        <time>2022-09-10T08:29:30.000Z</time>
      </trkpt>
      <trkpt lat="43.8612" lon="7.60365">
        <ele>480.39999389648</ele>
        <time>2022-09-10T08:29:33.000Z</time>
      </trkpt>
      <trkpt lat="43.86106" lon="7.60367">
        <ele>480.79998779297</ele>
        <time>2022-09-10T08:29:39.000Z</time>
      </trkpt>
      <trkpt lat="43.86101" lon="7.60366">
        <ele>481.20001220703</ele>
        <time>2022-09-10T08:29:41.000Z</time>
      </trkpt>
      <trkpt lat="43.86091" lon="7.60362">
        <ele>481.79998779297</ele>
        <time>2022-09-10T08:29:46.000Z</time>
      </trkpt>
      <trkpt lat="43.86086" lon="7.60364">
        <ele>482.39999389648</ele>
        <time>2022-09-10T08:29:49.000Z</time>
      </trkpt>
      <trkpt lat="43.86081" lon="7.60368">
        <ele>483.20001220703</ele>
        <time>2022-09-10T08:29:52.000Z</time>
      </trkpt>
      <trkpt lat="43.86081" lon="7.60371">
        <ele>483.39999389648</ele>
        <time>2022-09-10T08:29:53.000Z</time>
      </trkpt>
      <trkpt lat="43.86081" lon="7.60373">
        <ele>483.60000610352</ele>
        <time>2022-09-10T08:29:54.000Z</time>
      </trkpt>
      <trkpt lat="43.86084" lon="7.60376">
        <ele>484</ele>
        <time>2022-09-10T08:29:56.000Z</time>
      </trkpt>
      <trkpt lat="43.8609" lon="7.60373">
        <ele>484.60000610352</ele>
        <time>2022-09-10T08:29:59.000Z</time>
      </trkpt>
      <trkpt lat="43.86092" lon="7.60373">
        <ele>485</ele>
        <time>2022-09-10T08:30:00.000Z</time>
      </trkpt>
      <trkpt lat="43.86097" lon="7.60374">
        <ele>485.79998779297</ele>
        <time>2022-09-10T08:30:03.000Z</time>
      </trkpt>
      <trkpt lat="43.86099" lon="7.60375">
        <ele>486</ele>
        <time>2022-09-10T08:30:04.000Z</time>
      </trkpt>
      <trkpt lat="43.86102" lon="7.60378">
        <ele>486.39999389648</ele>
        <time>2022-09-10T08:30:06.000Z</time>
      </trkpt>
      <trkpt lat="43.86106" lon="7.60381">
        <ele>487</ele>
        <time>2022-09-10T08:30:08.000Z</time>
      </trkpt>
      <trkpt lat="43.86111" lon="7.60384">
        <ele>488</ele>
        <time>2022-09-10T08:30:11.000Z</time>
      </trkpt>
      <trkpt lat="43.86112" lon="7.60384">
        <ele>488.39999389648</ele>
        <time>2022-09-10T08:30:12.000Z</time>
      </trkpt>
      <trkpt lat="43.86114" lon="7.60385">
        <ele>489</ele>
        <time>2022-09-10T08:30:14.000Z</time>
      </trkpt>
      <trkpt lat="43.86121" lon="7.60387">
        <ele>490</ele>
        <time>2022-09-10T08:30:18.000Z</time>
      </trkpt>
      <trkpt lat="43.86123" lon="7.60387">
        <ele>490.20001220703</ele>
        <time>2022-09-10T08:30:19.000Z</time>
      </trkpt>
      <trkpt lat="43.8613" lon="7.6039">
        <ele>491.60000610352</ele>
        <time>2022-09-10T08:30:23.000Z</time>
      </trkpt>
      <trkpt lat="43.86135" lon="7.6039">
        <ele>492.60000610352</ele>
        <time>2022-09-10T08:30:26.000Z</time>
      </trkpt>
      <trkpt lat="43.86137" lon="7.60389">
        <ele>492.79998779297</ele>
        <time>2022-09-10T08:30:27.000Z</time>
      </trkpt>
      <trkpt lat="43.8614" lon="7.60389">
        <ele>493.79998779297</ele>
        <time>2022-09-10T08:30:29.000Z</time>
      </trkpt>
      <trkpt lat="43.86144" lon="7.60387">
        <ele>494.79998779297</ele>
        <time>2022-09-10T08:30:32.000Z</time>
      </trkpt>
      <trkpt lat="43.86148" lon="7.60385">
        <ele>495.60000610352</ele>
        <time>2022-09-10T08:30:34.000Z</time>
      </trkpt>
      <trkpt lat="43.8615" lon="7.60384">
        <ele>496</ele>
        <time>2022-09-10T08:30:35.000Z</time>
      </trkpt>
      <trkpt lat="43.86154" lon="7.6038">
        <ele>497</ele>
        <time>2022-09-10T08:30:38.000Z</time>
      </trkpt>
      <trkpt lat="43.86158" lon="7.60376">
        <ele>498.20001220703</ele>
        <time>2022-09-10T08:30:41.000Z</time>
      </trkpt>
      <trkpt lat="43.86162" lon="7.60371">
        <ele>499.20001220703</ele>
        <time>2022-09-10T08:30:44.000Z</time>
      </trkpt>
      <trkpt lat="43.86167" lon="7.60367">
        <ele>500.39999389648</ele>
        <time>2022-09-10T08:30:47.000Z</time>
      </trkpt>
      <trkpt lat="43.8617" lon="7.60364">
        <ele>501</ele>
        <time>2022-09-10T08:30:49.000Z</time>
      </trkpt>
      <trkpt lat="43.86176" lon="7.60362">
        <ele>501.79998779297</ele>
        <time>2022-09-10T08:30:52.000Z</time>
      </trkpt>
      <trkpt lat="43.86182" lon="7.60363">
        <ele>502.39999389648</ele>
        <time>2022-09-10T08:30:55.000Z</time>
      </trkpt>
      <trkpt lat="43.86187" lon="7.60364">
        <ele>502.79998779297</ele>
        <time>2022-09-10T08:30:57.000Z</time>
      </trkpt>
      <trkpt lat="43.86198" lon="7.60362">
        <ele>503.60000610352</ele>
        <time>2022-09-10T08:31:02.000Z</time>
      </trkpt>
      <trkpt lat="43.86201" lon="7.6036">
        <ele>503.79998779297</ele>
        <time>2022-09-10T08:31:04.000Z</time>
      </trkpt>
      <trkpt lat="43.86208" lon="7.60356">
        <ele>504.79998779297</ele>
        <time>2022-09-10T08:31:08.000Z</time>
      </trkpt>
      <trkpt lat="43.8621" lon="7.60354">
        <ele>505.20001220703</ele>
        <time>2022-09-10T08:31:09.000Z</time>
      </trkpt>
      <trkpt lat="43.86215" lon="7.6035">
        <ele>506.20001220703</ele>
        <time>2022-09-10T08:31:12.000Z</time>
      </trkpt>
      <trkpt lat="43.8622" lon="7.60348">
        <ele>507.39999389648</ele>
        <time>2022-09-10T08:31:15.000Z</time>
      </trkpt>
      <trkpt lat="43.86222" lon="7.60348">
        <ele>507.60000610352</ele>
        <time>2022-09-10T08:31:16.000Z</time>
      </trkpt>
      <trkpt lat="43.86228" lon="7.60347">
        <ele>508.39999389648</ele>
        <time>2022-09-10T08:31:19.000Z</time>
      </trkpt>
      <trkpt lat="43.86235" lon="7.60349">
        <ele>508.79998779297</ele>
        <time>2022-09-10T08:31:23.000Z</time>
      </trkpt>
      <trkpt lat="43.8624" lon="7.60349">
        <ele>509.39999389648</ele>
        <time>2022-09-10T08:31:27.000Z</time>
      </trkpt>
      <trkpt lat="43.86243" lon="7.6035">
        <ele>509.79998779297</ele>
        <time>2022-09-10T08:31:30.000Z</time>
      </trkpt>
      <trkpt lat="43.86247" lon="7.60351">
        <ele>510.20001220703</ele>
        <time>2022-09-10T08:31:36.000Z</time>
      </trkpt>
      <trkpt lat="43.86246" lon="7.60351">
        <ele>510</ele>
        <time>2022-09-10T08:31:47.000Z</time>
      </trkpt>
      <trkpt lat="43.86246" lon="7.60351">
        <ele>510</ele>
        <time>2022-09-10T08:32:04.000Z</time>
      </trkpt>
      <trkpt lat="43.86246" lon="7.6035">
        <ele>510</ele>
        <time>2022-09-10T08:32:27.000Z</time>
      </trkpt>
      <trkpt lat="43.86246" lon="7.6035">
        <ele>510</ele>
        <time>2022-09-10T08:32:46.000Z</time>
      </trkpt>
      <trkpt lat="43.86246" lon="7.6035">
        <ele>505.60000610352</ele>
        <time>2022-09-10T08:33:08.000Z</time>
      </trkpt>
      <trkpt lat="43.86246" lon="7.6035">
        <ele>508.60000610352</ele>
        <time>2022-09-10T08:33:09.000Z</time>
      </trkpt>
      <trkpt lat="43.86246" lon="7.60351">
        <ele>508.60000610352</ele>
        <time>2022-09-10T08:33:14.000Z</time>
      </trkpt>
      <trkpt lat="43.86246" lon="7.60351">
        <ele>508.60000610352</ele>
        <time>2022-09-10T08:33:34.000Z</time>
      </trkpt>
      <trkpt lat="43.86245" lon="7.60351">
        <ele>508.79998779297</ele>
        <time>2022-09-10T08:33:47.000Z</time>
      </trkpt>
      <trkpt lat="43.86245" lon="7.60352">
        <ele>509</ele>
        <time>2022-09-10T08:33:57.000Z</time>
      </trkpt>
      <trkpt lat="43.86245" lon="7.60351">
        <ele>509</ele>
        <time>2022-09-10T08:34:12.000Z</time>
      </trkpt>
      <trkpt lat="43.86245" lon="7.6035">
        <ele>509</ele>
        <time>2022-09-10T08:34:43.000Z</time>
      </trkpt>
      <trkpt lat="43.86245" lon="7.60349">
        <ele>508.79998779297</ele>
        <time>2022-09-10T08:35:09.000Z</time>
      </trkpt>
      <trkpt lat="43.86245" lon="7.60349">
        <ele>508.79998779297</ele>
        <time>2022-09-10T08:35:41.000Z</time>
      </trkpt>
      <trkpt lat="43.86245" lon="7.60349">
        <ele>508.60000610352</ele>
        <time>2022-09-10T08:36:01.000Z</time>
      </trkpt>
      <trkpt lat="43.86245" lon="7.60348">
        <ele>508.60000610352</ele>
        <time>2022-09-10T08:36:23.000Z</time>
      </trkpt>
      <trkpt lat="43.86245" lon="7.60348">
        <ele>509</ele>
        <time>2022-09-10T08:36:42.000Z</time>
      </trkpt>
      <trkpt lat="43.86245" lon="7.60349">
        <ele>508.60000610352</ele>
        <time>2022-09-10T08:36:52.000Z</time>
      </trkpt>
      <trkpt lat="43.86245" lon="7.60349">
        <ele>508.20001220703</ele>
        <time>2022-09-10T08:37:13.000Z</time>
      </trkpt>
      <trkpt lat="43.86245" lon="7.60349">
        <ele>508.39999389648</ele>
        <time>2022-09-10T08:37:31.000Z</time>
      </trkpt>
      <trkpt lat="43.86245" lon="7.60349">
        <ele>508.60000610352</ele>
        <time>2022-09-10T08:37:37.000Z</time>
      </trkpt>
      <trkpt lat="43.86243" lon="7.60349">
        <ele>508.60000610352</ele>
        <time>2022-09-10T08:37:44.000Z</time>
      </trkpt>
      <trkpt lat="43.86244" lon="7.60349">
        <ele>508.20001220703</ele>
        <time>2022-09-10T08:37:51.000Z</time>
      </trkpt>
      <trkpt lat="43.86243" lon="7.6035">
        <ele>508.20001220703</ele>
        <time>2022-09-10T08:37:52.000Z</time>
      </trkpt>
      <trkpt lat="43.86243" lon="7.60349">
        <ele>508.39999389648</ele>
        <time>2022-09-10T08:37:58.000Z</time>
      </trkpt>
      <trkpt lat="43.86242" lon="7.60349">
        <ele>508.39999389648</ele>
        <time>2022-09-10T08:38:07.000Z</time>
      </trkpt>
      <trkpt lat="43.86239" lon="7.60353">
        <ele>508.39999389648</ele>
        <time>2022-09-10T08:38:26.000Z</time>
      </trkpt>
      <trkpt lat="43.86228" lon="7.60358">
        <ele>508.60000610352</ele>
        <time>2022-09-10T08:38:32.000Z</time>
      </trkpt>
      <trkpt lat="43.86219" lon="7.60367">
        <ele>510</ele>
        <time>2022-09-10T08:38:37.000Z</time>
      </trkpt>
      <trkpt lat="43.86215" lon="7.60371">
        <ele>510.60000610352</ele>
        <time>2022-09-10T08:38:39.000Z</time>
      </trkpt>
      <trkpt lat="43.8621" lon="7.60374">
        <ele>511.39999389648</ele>
        <time>2022-09-10T08:38:41.000Z</time>
      </trkpt>
      <trkpt lat="43.86206" lon="7.6038">
        <ele>512.20001220703</ele>
        <time>2022-09-10T08:38:44.000Z</time>
      </trkpt>
      <trkpt lat="43.86204" lon="7.60383">
        <ele>512.40002441406</ele>
        <time>2022-09-10T08:38:45.000Z</time>
      </trkpt>
      <trkpt lat="43.8619" lon="7.60392">
        <ele>513</ele>
        <time>2022-09-10T08:38:51.000Z</time>
      </trkpt>
      <trkpt lat="43.86184" lon="7.60394">
        <ele>513.20001220703</ele>
        <time>2022-09-10T08:38:54.000Z</time>
      </trkpt>
      <trkpt lat="43.86179" lon="7.60399">
        <ele>513.79998779297</ele>
        <time>2022-09-10T08:38:56.000Z</time>
      </trkpt>
      <trkpt lat="43.86177" lon="7.60401">
        <ele>514.20001220703</ele>
        <time>2022-09-10T08:38:57.000Z</time>
      </trkpt>
      <trkpt lat="43.86172" lon="7.60408">
        <ele>515</ele>
        <time>2022-09-10T08:39:00.000Z</time>
      </trkpt>
      <trkpt lat="43.86167" lon="7.60412">
        <ele>515</ele>
        <time>2022-09-10T08:39:02.000Z</time>
      </trkpt>
      <trkpt lat="43.86152" lon="7.60424">
        <ele>514.59997558594</ele>
        <time>2022-09-10T08:39:07.000Z</time>
      </trkpt>
      <trkpt lat="43.86133" lon="7.60434">
        <ele>514.20001220703</ele>
        <time>2022-09-10T08:39:14.000Z</time>
      </trkpt>
      <trkpt lat="43.86128" lon="7.60439">
        <ele>514.79998779297</ele>
        <time>2022-09-10T08:39:17.000Z</time>
      </trkpt>
      <trkpt lat="43.86128" lon="7.60439">
        <ele>515.79998779297</ele>
        <time>2022-09-10T08:39:19.000Z</time>
      </trkpt>
      <trkpt lat="43.86126" lon="7.60441">
        <ele>516.40002441406</ele>
        <time>2022-09-10T08:39:20.000Z</time>
      </trkpt>
      <trkpt lat="43.86124" lon="7.60442">
        <ele>517.40002441406</ele>
        <time>2022-09-10T08:39:22.000Z</time>
      </trkpt>
      <trkpt lat="43.86123" lon="7.60444">
        <ele>517.59997558594</ele>
        <time>2022-09-10T08:39:23.000Z</time>
      </trkpt>
      <trkpt lat="43.86121" lon="7.60449">
        <ele>518</ele>
        <time>2022-09-10T08:39:25.000Z</time>
      </trkpt>
      <trkpt lat="43.86116" lon="7.60454">
        <ele>519</ele>
        <time>2022-09-10T08:39:29.000Z</time>
      </trkpt>
      <trkpt lat="43.86115" lon="7.60456">
        <ele>519.59997558594</ele>
        <time>2022-09-10T08:39:30.000Z</time>
      </trkpt>
      <trkpt lat="43.86115" lon="7.60457">
        <ele>520</ele>
        <time>2022-09-10T08:39:31.000Z</time>
      </trkpt>
      <trkpt lat="43.86113" lon="7.60459">
        <ele>521.20001220703</ele>
        <time>2022-09-10T08:39:33.000Z</time>
      </trkpt>
      <trkpt lat="43.86111" lon="7.60461">
        <ele>521.79998779297</ele>
        <time>2022-09-10T08:39:35.000Z</time>
      </trkpt>
      <trkpt lat="43.8611" lon="7.60461">
        <ele>522.20001220703</ele>
        <time>2022-09-10T08:39:39.000Z</time>
      </trkpt>
      <trkpt lat="43.8611" lon="7.60461">
        <ele>522.20001220703</ele>
        <time>2022-09-10T08:39:52.000Z</time>
      </trkpt>
      <trkpt lat="43.8611" lon="7.60461">
        <ele>522.20001220703</ele>
        <time>2022-09-10T08:39:56.000Z</time>
      </trkpt>
      <trkpt lat="43.86106" lon="7.60464">
        <ele>522.20001220703</ele>
        <time>2022-09-10T08:40:00.000Z</time>
      </trkpt>
      <trkpt lat="43.86104" lon="7.60464">
        <ele>522.20001220703</ele>
        <time>2022-09-10T08:40:01.000Z</time>
      </trkpt>
      <trkpt lat="43.86099" lon="7.6047">
        <ele>522.20001220703</ele>
        <time>2022-09-10T08:40:04.000Z</time>
      </trkpt>
      <trkpt lat="43.86095" lon="7.60472">
        <ele>522</ele>
        <time>2022-09-10T08:40:06.000Z</time>
      </trkpt>
      <trkpt lat="43.86079" lon="7.60481">
        <ele>522.20001220703</ele>
        <time>2022-09-10T08:40:12.000Z</time>
      </trkpt>
      <trkpt lat="43.86071" lon="7.60492">
        <ele>522.79998779297</ele>
        <time>2022-09-10T08:40:17.000Z</time>
      </trkpt>
      <trkpt lat="43.86065" lon="7.60499">
        <ele>523.40002441406</ele>
        <time>2022-09-10T08:40:20.000Z</time>
      </trkpt>
      <trkpt lat="43.86062" lon="7.605">
        <ele>523.59997558594</ele>
        <time>2022-09-10T08:40:21.000Z</time>
      </trkpt>
      <trkpt lat="43.86053" lon="7.60508">
        <ele>523.40002441406</ele>
        <time>2022-09-10T08:40:23.000Z</time>
      </trkpt>
      <trkpt lat="43.86049" lon="7.60513">
        <ele>522.59997558594</ele>
        <time>2022-09-10T08:40:24.000Z</time>
      </trkpt>
      <trkpt lat="43.86045" lon="7.60517">
        <ele>522</ele>
        <time>2022-09-10T08:40:25.000Z</time>
      </trkpt>
      <trkpt lat="43.86042" lon="7.60519">
        <ele>521</ele>
        <time>2022-09-10T08:40:26.000Z</time>
      </trkpt>
      <trkpt lat="43.86039" lon="7.60522">
        <ele>520.20001220703</ele>
        <time>2022-09-10T08:40:27.000Z</time>
      </trkpt>
      <trkpt lat="43.86036" lon="7.60526">
        <ele>519.79998779297</ele>
        <time>2022-09-10T08:40:28.000Z</time>
      </trkpt>
      <trkpt lat="43.86032" lon="7.6053">
        <ele>519</ele>
        <time>2022-09-10T08:40:29.000Z</time>
      </trkpt>
      <trkpt lat="43.86029" lon="7.60533">
        <ele>518.59997558594</ele>
        <time>2022-09-10T08:40:30.000Z</time>
      </trkpt>
      <trkpt lat="43.86026" lon="7.60535">
        <ele>517.79998779297</ele>
        <time>2022-09-10T08:40:33.000Z</time>
      </trkpt>
      <trkpt lat="43.86025" lon="7.60536">
        <ele>517.59997558594</ele>
        <time>2022-09-10T08:40:34.000Z</time>
      </trkpt>
      <trkpt lat="43.86016" lon="7.60548">
        <ele>518</ele>
        <time>2022-09-10T08:40:37.000Z</time>
      </trkpt>
      <trkpt lat="43.8601" lon="7.60557">
        <ele>517.59997558594</ele>
        <time>2022-09-10T08:40:39.000Z</time>
      </trkpt>
      <trkpt lat="43.86003" lon="7.60567">
        <ele>516.59997558594</ele>
        <time>2022-09-10T08:40:41.000Z</time>
      </trkpt>
      <trkpt lat="43.86001" lon="7.60571">
        <ele>515.20001220703</ele>
        <time>2022-09-10T08:40:42.000Z</time>
      </trkpt>
      <trkpt lat="43.86" lon="7.60571">
        <ele>513.79998779297</ele>
        <time>2022-09-10T08:40:43.000Z</time>
      </trkpt>
      <trkpt lat="43.85996" lon="7.60572">
        <ele>512.59997558594</ele>
        <time>2022-09-10T08:40:45.000Z</time>
      </trkpt>
      <trkpt lat="43.85995" lon="7.60572">
        <ele>514.40002441406</ele>
        <time>2022-09-10T08:40:48.000Z</time>
      </trkpt>
      <trkpt lat="43.85994" lon="7.60572">
        <ele>515.20001220703</ele>
        <time>2022-09-10T08:40:49.000Z</time>
      </trkpt>
      <trkpt lat="43.85994" lon="7.60572">
        <ele>515.79998779297</ele>
        <time>2022-09-10T08:40:50.000Z</time>
      </trkpt>
      <trkpt lat="43.8599" lon="7.60574">
        <ele>516.59997558594</ele>
        <time>2022-09-10T08:40:55.000Z</time>
      </trkpt>
      <trkpt lat="43.85988" lon="7.60578">
        <ele>516.79998779297</ele>
        <time>2022-09-10T08:40:57.000Z</time>
      </trkpt>
      <trkpt lat="43.85981" lon="7.60588">
        <ele>517.20001220703</ele>
        <time>2022-09-10T08:41:00.000Z</time>
      </trkpt>
      <trkpt lat="43.85975" lon="7.60594">
        <ele>516.59997558594</ele>
        <time>2022-09-10T08:41:03.000Z</time>
      </trkpt>
      <trkpt lat="43.85966" lon="7.60587">
        <ele>516.59997558594</ele>
        <time>2022-09-10T08:41:07.000Z</time>
      </trkpt>
      <trkpt lat="43.85951" lon="7.60589">
        <ele>516.79998779297</ele>
        <time>2022-09-10T08:41:10.000Z</time>
      </trkpt>
      <trkpt lat="43.85937" lon="7.60588">
        <ele>515.40002441406</ele>
        <time>2022-09-10T08:41:14.000Z</time>
      </trkpt>
      <trkpt lat="43.85929" lon="7.60578">
        <ele>515.59997558594</ele>
        <time>2022-09-10T08:41:18.000Z</time>
      </trkpt>
      <trkpt lat="43.8592" lon="7.60564">
        <ele>515.20001220703</ele>
        <time>2022-09-10T08:41:21.000Z</time>
      </trkpt>
      <trkpt lat="43.85916" lon="7.60562">
        <ele>514.40002441406</ele>
        <time>2022-09-10T08:41:22.000Z</time>
      </trkpt>
      <trkpt lat="43.85905" lon="7.6056">
        <ele>513.20001220703</ele>
        <time>2022-09-10T08:41:24.000Z</time>
      </trkpt>
      <trkpt lat="43.859" lon="7.60561">
        <ele>512.40002441406</ele>
        <time>2022-09-10T08:41:25.000Z</time>
      </trkpt>
      <trkpt lat="43.85895" lon="7.60561">
        <ele>511.60000610352</ele>
        <time>2022-09-10T08:41:26.000Z</time>
      </trkpt>
      <trkpt lat="43.85884" lon="7.60558">
        <ele>510.60000610352</ele>
        <time>2022-09-10T08:41:28.000Z</time>
      </trkpt>
      <trkpt lat="43.8588" lon="7.60555">
        <ele>510.20001220703</ele>
        <time>2022-09-10T08:41:29.000Z</time>
      </trkpt>
      <trkpt lat="43.85876" lon="7.60551">
        <ele>510</ele>
        <time>2022-09-10T08:41:30.000Z</time>
      </trkpt>
      <trkpt lat="43.85874" lon="7.60547">
        <ele>510</ele>
        <time>2022-09-10T08:41:31.000Z</time>
      </trkpt>
      <trkpt lat="43.85871" lon="7.60538">
        <ele>510.20001220703</ele>
        <time>2022-09-10T08:41:33.000Z</time>
      </trkpt>
      <trkpt lat="43.85857" lon="7.60516">
        <ele>511</ele>
        <time>2022-09-10T08:41:39.000Z</time>
      </trkpt>
      <trkpt lat="43.85854" lon="7.60512">
        <ele>511.20001220703</ele>
        <time>2022-09-10T08:41:40.000Z</time>
      </trkpt>
      <trkpt lat="43.85847" lon="7.60509">
        <ele>511.20001220703</ele>
        <time>2022-09-10T08:41:42.000Z</time>
      </trkpt>
      <trkpt lat="43.85845" lon="7.6051">
        <ele>511</ele>
        <time>2022-09-10T08:41:43.000Z</time>
      </trkpt>
      <trkpt lat="43.85845" lon="7.6051">
        <ele>511</ele>
        <time>2022-09-10T08:41:46.000Z</time>
      </trkpt>
      <trkpt lat="43.85838" lon="7.60507">
        <ele>511.39999389648</ele>
        <time>2022-09-10T08:41:53.000Z</time>
      </trkpt>
      <trkpt lat="43.85829" lon="7.60502">
        <ele>510.79998779297</ele>
        <time>2022-09-10T08:41:57.000Z</time>
      </trkpt>
      <trkpt lat="43.8583" lon="7.60502">
        <ele>510.20001220703</ele>
        <time>2022-09-10T08:42:00.000Z</time>
      </trkpt>
      <trkpt lat="43.85829" lon="7.60502">
        <ele>510</ele>
        <time>2022-09-10T08:42:01.000Z</time>
      </trkpt>
      <trkpt lat="43.8583" lon="7.60502">
        <ele>510.20001220703</ele>
        <time>2022-09-10T08:42:11.000Z</time>
      </trkpt>
      <trkpt lat="43.85829" lon="7.60503">
        <ele>510.20001220703</ele>
        <time>2022-09-10T08:42:20.000Z</time>
      </trkpt>
      <trkpt lat="43.8583" lon="7.60503">
        <ele>510.20001220703</ele>
        <time>2022-09-10T08:42:36.000Z</time>
      </trkpt>
      <trkpt lat="43.8583" lon="7.60503">
        <ele>510.39999389648</ele>
        <time>2022-09-10T08:42:44.000Z</time>
      </trkpt>
      <trkpt lat="43.85828" lon="7.60503">
        <ele>510.60000610352</ele>
        <time>2022-09-10T08:42:45.000Z</time>
      </trkpt>
      <trkpt lat="43.85822" lon="7.60506">
        <ele>510.39999389648</ele>
        <time>2022-09-10T08:42:48.000Z</time>
      </trkpt>
      <trkpt lat="43.85811" lon="7.60501">
        <ele>509.79998779297</ele>
        <time>2022-09-10T08:42:52.000Z</time>
      </trkpt>
      <trkpt lat="43.8581" lon="7.60496">
        <ele>509.20001220703</ele>
        <time>2022-09-10T08:42:53.000Z</time>
      </trkpt>
      <trkpt lat="43.8581" lon="7.60492">
        <ele>508.39999389648</ele>
        <time>2022-09-10T08:42:54.000Z</time>
      </trkpt>
      <trkpt lat="43.8581" lon="7.60488">
        <ele>508</ele>
        <time>2022-09-10T08:42:55.000Z</time>
      </trkpt>
      <trkpt lat="43.85809" lon="7.60486">
        <ele>507.20001220703</ele>
        <time>2022-09-10T08:42:56.000Z</time>
      </trkpt>
      <trkpt lat="43.85807" lon="7.60485">
        <ele>506.39999389648</ele>
        <time>2022-09-10T08:42:57.000Z</time>
      </trkpt>
      <trkpt lat="43.85805" lon="7.60485">
        <ele>505.79998779297</ele>
        <time>2022-09-10T08:42:58.000Z</time>
      </trkpt>
      <trkpt lat="43.858" lon="7.60484">
        <ele>505</ele>
        <time>2022-09-10T08:42:59.000Z</time>
      </trkpt>
      <trkpt lat="43.85791" lon="7.60482">
        <ele>504</ele>
        <time>2022-09-10T08:43:01.000Z</time>
      </trkpt>
      <trkpt lat="43.85788" lon="7.60483">
        <ele>503.39999389648</ele>
        <time>2022-09-10T08:43:02.000Z</time>
      </trkpt>
      <trkpt lat="43.85786" lon="7.60487">
        <ele>503.39999389648</ele>
        <time>2022-09-10T08:43:04.000Z</time>
      </trkpt>
      <trkpt lat="43.85785" lon="7.60488">
        <ele>502.79998779297</ele>
        <time>2022-09-10T08:43:06.000Z</time>
      </trkpt>
      <trkpt lat="43.85785" lon="7.60488">
        <ele>502.79998779297</ele>
        <time>2022-09-10T08:43:08.000Z</time>
      </trkpt>
      <trkpt lat="43.85785" lon="7.60489">
        <ele>503</ele>
        <time>2022-09-10T08:43:28.000Z</time>
      </trkpt>
      <trkpt lat="43.85785" lon="7.60489">
        <ele>501.79998779297</ele>
        <time>2022-09-10T08:43:54.000Z</time>
      </trkpt>
      <trkpt lat="43.85785" lon="7.60489">
        <ele>501</ele>
        <time>2022-09-10T08:44:00.000Z</time>
      </trkpt>
      <trkpt lat="43.85785" lon="7.60489">
        <ele>500.60000610352</ele>
        <time>2022-09-10T08:44:02.000Z</time>
      </trkpt>
      <trkpt lat="43.85785" lon="7.60489">
        <ele>499.39999389648</ele>
        <time>2022-09-10T08:44:09.000Z</time>
      </trkpt>
      <trkpt lat="43.85785" lon="7.60489">
        <ele>498.39999389648</ele>
        <time>2022-09-10T08:44:17.000Z</time>
      </trkpt>
      <trkpt lat="43.85785" lon="7.60489">
        <ele>497.79998779297</ele>
        <time>2022-09-10T08:44:32.000Z</time>
      </trkpt>
      <trkpt lat="43.85785" lon="7.60489">
        <ele>497.79998779297</ele>
        <time>2022-09-10T08:44:51.000Z</time>
      </trkpt>
      <trkpt lat="43.85785" lon="7.6049">
        <ele>497.60000610352</ele>
        <time>2022-09-10T08:45:23.000Z</time>
      </trkpt>
      <trkpt lat="43.85784" lon="7.60491">
        <ele>497.60000610352</ele>
        <time>2022-09-10T08:45:52.000Z</time>
      </trkpt>
      <trkpt lat="43.85784" lon="7.60491">
        <ele>497.39999389648</ele>
        <time>2022-09-10T08:45:54.000Z</time>
      </trkpt>
      <trkpt lat="43.8578" lon="7.60487">
        <ele>497.39999389648</ele>
        <time>2022-09-10T08:45:57.000Z</time>
      </trkpt>
      <trkpt lat="43.85777" lon="7.60483">
        <ele>497.20001220703</ele>
        <time>2022-09-10T08:45:59.000Z</time>
      </trkpt>
      <trkpt lat="43.85771" lon="7.60481">
        <ele>496.60000610352</ele>
        <time>2022-09-10T08:46:01.000Z</time>
      </trkpt>
      <trkpt lat="43.85767" lon="7.6048">
        <ele>496</ele>
        <time>2022-09-10T08:46:02.000Z</time>
      </trkpt>
      <trkpt lat="43.85758" lon="7.60478">
        <ele>494.79998779297</ele>
        <time>2022-09-10T08:46:04.000Z</time>
      </trkpt>
      <trkpt lat="43.8575" lon="7.60475">
        <ele>492.60000610352</ele>
        <time>2022-09-10T08:46:06.000Z</time>
      </trkpt>
      <trkpt lat="43.85745" lon="7.60474">
        <ele>490.79998779297</ele>
        <time>2022-09-10T08:46:07.000Z</time>
      </trkpt>
      <trkpt lat="43.85735" lon="7.60471">
        <ele>489</ele>
        <time>2022-09-10T08:46:09.000Z</time>
      </trkpt>
      <trkpt lat="43.85727" lon="7.60468">
        <ele>488</ele>
        <time>2022-09-10T08:46:11.000Z</time>
      </trkpt>
      <trkpt lat="43.85722" lon="7.60464">
        <ele>486.39999389648</ele>
        <time>2022-09-10T08:46:13.000Z</time>
      </trkpt>
      <trkpt lat="43.85714" lon="7.6046">
        <ele>484.79998779297</ele>
        <time>2022-09-10T08:46:15.000Z</time>
      </trkpt>
      <trkpt lat="43.8571" lon="7.60457">
        <ele>484</ele>
        <time>2022-09-10T08:46:16.000Z</time>
      </trkpt>
      <trkpt lat="43.85705" lon="7.60452">
        <ele>483.60000610352</ele>
        <time>2022-09-10T08:46:17.000Z</time>
      </trkpt>
      <trkpt lat="43.85695" lon="7.60443">
        <ele>482.20001220703</ele>
        <time>2022-09-10T08:46:19.000Z</time>
      </trkpt>
      <trkpt lat="43.8569" lon="7.6044">
        <ele>481.60000610352</ele>
        <time>2022-09-10T08:46:20.000Z</time>
      </trkpt>
      <trkpt lat="43.85683" lon="7.60442">
        <ele>480.60000610352</ele>
        <time>2022-09-10T08:46:21.000Z</time>
      </trkpt>
      <trkpt lat="43.85677" lon="7.60443">
        <ele>479.79998779297</ele>
        <time>2022-09-10T08:46:22.000Z</time>
      </trkpt>
      <trkpt lat="43.8567" lon="7.60444">
        <ele>478.60000610352</ele>
        <time>2022-09-10T08:46:23.000Z</time>
      </trkpt>
      <trkpt lat="43.85664" lon="7.60446">
        <ele>477</ele>
        <time>2022-09-10T08:46:24.000Z</time>
      </trkpt>
      <trkpt lat="43.85652" lon="7.60455">
        <ele>475.39999389648</ele>
        <time>2022-09-10T08:46:26.000Z</time>
      </trkpt>
      <trkpt lat="43.85636" lon="7.60466">
        <ele>474</ele>
        <time>2022-09-10T08:46:29.000Z</time>
      </trkpt>
      <trkpt lat="43.85631" lon="7.60465">
        <ele>473.60000610352</ele>
        <time>2022-09-10T08:46:30.000Z</time>
      </trkpt>
      <trkpt lat="43.85625" lon="7.60464">
        <ele>473.60000610352</ele>
        <time>2022-09-10T08:46:31.000Z</time>
      </trkpt>
      <trkpt lat="43.85615" lon="7.60469">
        <ele>473.20001220703</ele>
        <time>2022-09-10T08:46:33.000Z</time>
      </trkpt>
      <trkpt lat="43.85608" lon="7.60471">
        <ele>472.79998779297</ele>
        <time>2022-09-10T08:46:34.000Z</time>
      </trkpt>
      <trkpt lat="43.85594" lon="7.60469">
        <ele>473</ele>
        <time>2022-09-10T08:46:36.000Z</time>
      </trkpt>
      <trkpt lat="43.85588" lon="7.60468">
        <ele>472.20001220703</ele>
        <time>2022-09-10T08:46:37.000Z</time>
      </trkpt>
      <trkpt lat="43.85583" lon="7.60468">
        <ele>471.39999389648</ele>
        <time>2022-09-10T08:46:38.000Z</time>
      </trkpt>
      <trkpt lat="43.85578" lon="7.60466">
        <ele>471</ele>
        <time>2022-09-10T08:46:39.000Z</time>
      </trkpt>
      <trkpt lat="43.85572" lon="7.60465">
        <ele>469.79998779297</ele>
        <time>2022-09-10T08:46:40.000Z</time>
      </trkpt>
      <trkpt lat="43.85566" lon="7.60463">
        <ele>469.60000610352</ele>
        <time>2022-09-10T08:46:41.000Z</time>
      </trkpt>
      <trkpt lat="43.85548" lon="7.6046">
        <ele>469</ele>
        <time>2022-09-10T08:46:44.000Z</time>
      </trkpt>
      <trkpt lat="43.85542" lon="7.60457">
        <ele>468.79998779297</ele>
        <time>2022-09-10T08:46:45.000Z</time>
      </trkpt>
      <trkpt lat="43.85538" lon="7.60452">
        <ele>468</ele>
        <time>2022-09-10T08:46:46.000Z</time>
      </trkpt>
      <trkpt lat="43.85531" lon="7.6045">
        <ele>467.60000610352</ele>
        <time>2022-09-10T08:46:47.000Z</time>
      </trkpt>
      <trkpt lat="43.85526" lon="7.60448">
        <ele>467.20001220703</ele>
        <time>2022-09-10T08:46:48.000Z</time>
      </trkpt>
      <trkpt lat="43.85515" lon="7.60444">
        <ele>466.39999389648</ele>
        <time>2022-09-10T08:46:50.000Z</time>
      </trkpt>
      <trkpt lat="43.8551" lon="7.60441">
        <ele>466.20001220703</ele>
        <time>2022-09-10T08:46:51.000Z</time>
      </trkpt>
      <trkpt lat="43.85503" lon="7.60438">
        <ele>466.20001220703</ele>
        <time>2022-09-10T08:46:53.000Z</time>
      </trkpt>
      <trkpt lat="43.85488" lon="7.60435">
        <ele>467.79998779297</ele>
        <time>2022-09-10T08:46:57.000Z</time>
      </trkpt>
      <trkpt lat="43.85484" lon="7.60436">
        <ele>468</ele>
        <time>2022-09-10T08:46:58.000Z</time>
      </trkpt>
      <trkpt lat="43.85473" lon="7.6044">
        <ele>467.60000610352</ele>
        <time>2022-09-10T08:47:01.000Z</time>
      </trkpt>
      <trkpt lat="43.85464" lon="7.60443">
        <ele>466.60000610352</ele>
        <time>2022-09-10T08:47:03.000Z</time>
      </trkpt>
      <trkpt lat="43.85453" lon="7.60443">
        <ele>465.60000610352</ele>
        <time>2022-09-10T08:47:06.000Z</time>
      </trkpt>
      <trkpt lat="43.85448" lon="7.60442">
        <ele>465.20001220703</ele>
        <time>2022-09-10T08:47:07.000Z</time>
      </trkpt>
      <trkpt lat="43.85432" lon="7.60438">
        <ele>464</ele>
        <time>2022-09-10T08:47:10.000Z</time>
      </trkpt>
      <trkpt lat="43.85427" lon="7.60433">
        <ele>463.20001220703</ele>
        <time>2022-09-10T08:47:11.000Z</time>
      </trkpt>
      <trkpt lat="43.85422" lon="7.60429">
        <ele>462.60000610352</ele>
        <time>2022-09-10T08:47:12.000Z</time>
      </trkpt>
      <trkpt lat="43.85408" lon="7.60419">
        <ele>461.60000610352</ele>
        <time>2022-09-10T08:47:15.000Z</time>
      </trkpt>
      <trkpt lat="43.85404" lon="7.60415">
        <ele>461</ele>
        <time>2022-09-10T08:47:16.000Z</time>
      </trkpt>
      <trkpt lat="43.85399" lon="7.6041">
        <ele>460.39999389648</ele>
        <time>2022-09-10T08:47:17.000Z</time>
      </trkpt>
      <trkpt lat="43.85395" lon="7.60406">
        <ele>460.39999389648</ele>
        <time>2022-09-10T08:47:18.000Z</time>
      </trkpt>
      <trkpt lat="43.85388" lon="7.60403">
        <ele>459.39999389648</ele>
        <time>2022-09-10T08:47:20.000Z</time>
      </trkpt>
      <trkpt lat="43.85377" lon="7.6041">
        <ele>458.20001220703</ele>
        <time>2022-09-10T08:47:23.000Z</time>
      </trkpt>
      <trkpt lat="43.85373" lon="7.60414">
        <ele>458.20001220703</ele>
        <time>2022-09-10T08:47:24.000Z</time>
      </trkpt>
      <trkpt lat="43.85361" lon="7.6043">
        <ele>457.39999389648</ele>
        <time>2022-09-10T08:47:27.000Z</time>
      </trkpt>
      <trkpt lat="43.85357" lon="7.60435">
        <ele>457.20001220703</ele>
        <time>2022-09-10T08:47:28.000Z</time>
      </trkpt>
      <trkpt lat="43.85354" lon="7.60437">
        <ele>457</ele>
        <time>2022-09-10T08:47:29.000Z</time>
      </trkpt>
      <trkpt lat="43.85341" lon="7.60445">
        <ele>456.20001220703</ele>
        <time>2022-09-10T08:47:32.000Z</time>
      </trkpt>
      <trkpt lat="43.85332" lon="7.60454">
        <ele>455.60000610352</ele>
        <time>2022-09-10T08:47:34.000Z</time>
      </trkpt>
      <trkpt lat="43.85326" lon="7.60454">
        <ele>455.20001220703</ele>
        <time>2022-09-10T08:47:35.000Z</time>
      </trkpt>
      <trkpt lat="43.8532" lon="7.60454">
        <ele>454.39999389648</ele>
        <time>2022-09-10T08:47:36.000Z</time>
      </trkpt>
      <trkpt lat="43.8531" lon="7.60452">
        <ele>453.39999389648</ele>
        <time>2022-09-10T08:47:38.000Z</time>
      </trkpt>
      <trkpt lat="43.85306" lon="7.60448">
        <ele>453</ele>
        <time>2022-09-10T08:47:39.000Z</time>
      </trkpt>
      <trkpt lat="43.85303" lon="7.60445">
        <ele>453</ele>
        <time>2022-09-10T08:47:40.000Z</time>
      </trkpt>
      <trkpt lat="43.85299" lon="7.60446">
        <ele>452.79998779297</ele>
        <time>2022-09-10T08:47:41.000Z</time>
      </trkpt>
      <trkpt lat="43.85291" lon="7.60443">
        <ele>452.39999389648</ele>
        <time>2022-09-10T08:47:43.000Z</time>
      </trkpt>
      <trkpt lat="43.85281" lon="7.60438">
        <ele>452.39999389648</ele>
        <time>2022-09-10T08:47:45.000Z</time>
      </trkpt>
      <trkpt lat="43.85276" lon="7.60436">
        <ele>452.39999389648</ele>
        <time>2022-09-10T08:47:46.000Z</time>
      </trkpt>
      <trkpt lat="43.85272" lon="7.60436">
        <ele>452.20001220703</ele>
        <time>2022-09-10T08:47:47.000Z</time>
      </trkpt>
      <trkpt lat="43.85254" lon="7.60441">
        <ele>451.60000610352</ele>
        <time>2022-09-10T08:47:52.000Z</time>
      </trkpt>
      <trkpt lat="43.8525" lon="7.60442">
        <ele>451</ele>
        <time>2022-09-10T08:47:53.000Z</time>
      </trkpt>
      <trkpt lat="43.85237" lon="7.60442">
        <ele>449.79998779297</ele>
        <time>2022-09-10T08:47:56.000Z</time>
      </trkpt>
      <trkpt lat="43.85232" lon="7.60442">
        <ele>449.60000610352</ele>
        <time>2022-09-10T08:47:57.000Z</time>
      </trkpt>
      <trkpt lat="43.85224" lon="7.60444">
        <ele>449</ele>
        <time>2022-09-10T08:47:59.000Z</time>
      </trkpt>
      <trkpt lat="43.85217" lon="7.60443">
        <ele>448.79998779297</ele>
        <time>2022-09-10T08:48:01.000Z</time>
      </trkpt>
      <trkpt lat="43.85209" lon="7.60441">
        <ele>448.79998779297</ele>
        <time>2022-09-10T08:48:03.000Z</time>
      </trkpt>
      <trkpt lat="43.85197" lon="7.6043">
        <ele>449.20001220703</ele>
        <time>2022-09-10T08:48:07.000Z</time>
      </trkpt>
      <trkpt lat="43.8519" lon="7.60434">
        <ele>450.20001220703</ele>
        <time>2022-09-10T08:48:10.000Z</time>
      </trkpt>
      <trkpt lat="43.85188" lon="7.60437">
        <ele>451</ele>
        <time>2022-09-10T08:48:11.000Z</time>
      </trkpt>
      <trkpt lat="43.85185" lon="7.60437">
        <ele>451.60000610352</ele>
        <time>2022-09-10T08:48:12.000Z</time>
      </trkpt>
      <trkpt lat="43.8518" lon="7.60436">
        <ele>452.79998779297</ele>
        <time>2022-09-10T08:48:14.000Z</time>
      </trkpt>
      <trkpt lat="43.85175" lon="7.60438">
        <ele>453.60000610352</ele>
        <time>2022-09-10T08:48:16.000Z</time>
      </trkpt>
      <trkpt lat="43.85172" lon="7.6044">
        <ele>454</ele>
        <time>2022-09-10T08:48:17.000Z</time>
      </trkpt>
      <trkpt lat="43.85166" lon="7.60444">
        <ele>454.60000610352</ele>
        <time>2022-09-10T08:48:19.000Z</time>
      </trkpt>
      <trkpt lat="43.85158" lon="7.60445">
        <ele>455</ele>
        <time>2022-09-10T08:48:21.000Z</time>
      </trkpt>
      <trkpt lat="43.85149" lon="7.60449">
        <ele>455</ele>
        <time>2022-09-10T08:48:23.000Z</time>
      </trkpt>
      <trkpt lat="43.85136" lon="7.60453">
        <ele>454.39999389648</ele>
        <time>2022-09-10T08:48:26.000Z</time>
      </trkpt>
      <trkpt lat="43.85126" lon="7.60454">
        <ele>454</ele>
        <time>2022-09-10T08:48:28.000Z</time>
      </trkpt>
      <trkpt lat="43.85122" lon="7.60455">
        <ele>453.79998779297</ele>
        <time>2022-09-10T08:48:29.000Z</time>
      </trkpt>
      <trkpt lat="43.85107" lon="7.60458">
        <ele>454.20001220703</ele>
        <time>2022-09-10T08:48:33.000Z</time>
      </trkpt>
      <trkpt lat="43.85082" lon="7.60467">
        <ele>454.20001220703</ele>
        <time>2022-09-10T08:48:39.000Z</time>
      </trkpt>
      <trkpt lat="43.85071" lon="7.60483">
        <ele>452.60000610352</ele>
        <time>2022-09-10T08:48:42.000Z</time>
      </trkpt>
      <trkpt lat="43.85061" lon="7.60492">
        <ele>451.60000610352</ele>
        <time>2022-09-10T08:48:44.000Z</time>
      </trkpt>
      <trkpt lat="43.85051" lon="7.60493">
        <ele>450.60000610352</ele>
        <time>2022-09-10T08:48:46.000Z</time>
      </trkpt>
      <trkpt lat="43.85046" lon="7.60492">
        <ele>450.20001220703</ele>
        <time>2022-09-10T08:48:47.000Z</time>
      </trkpt>
      <trkpt lat="43.85042" lon="7.60491">
        <ele>449.39999389648</ele>
        <time>2022-09-10T08:48:48.000Z</time>
      </trkpt>
      <trkpt lat="43.85039" lon="7.60494">
        <ele>448.39999389648</ele>
        <time>2022-09-10T08:48:49.000Z</time>
      </trkpt>
      <trkpt lat="43.85034" lon="7.60498">
        <ele>447</ele>
        <time>2022-09-10T08:48:50.000Z</time>
      </trkpt>
      <trkpt lat="43.85026" lon="7.60507">
        <ele>445.39999389648</ele>
        <time>2022-09-10T08:48:52.000Z</time>
      </trkpt>
      <trkpt lat="43.85023" lon="7.60512">
        <ele>444.39999389648</ele>
        <time>2022-09-10T08:48:53.000Z</time>
      </trkpt>
      <trkpt lat="43.85015" lon="7.60519">
        <ele>443</ele>
        <time>2022-09-10T08:48:55.000Z</time>
      </trkpt>
      <trkpt lat="43.85003" lon="7.60523">
        <ele>441.60000610352</ele>
        <time>2022-09-10T08:48:57.000Z</time>
      </trkpt>
      <trkpt lat="43.84998" lon="7.60524">
        <ele>440.39999389648</ele>
        <time>2022-09-10T08:48:58.000Z</time>
      </trkpt>
      <trkpt lat="43.84989" lon="7.60531">
        <ele>438.39999389648</ele>
        <time>2022-09-10T08:49:00.000Z</time>
      </trkpt>
      <trkpt lat="43.84985" lon="7.60534">
        <ele>436.79998779297</ele>
        <time>2022-09-10T08:49:01.000Z</time>
      </trkpt>
      <trkpt lat="43.84982" lon="7.60537">
        <ele>435.39999389648</ele>
        <time>2022-09-10T08:49:02.000Z</time>
      </trkpt>
      <trkpt lat="43.84981" lon="7.60539">
        <ele>434.39999389648</ele>
        <time>2022-09-10T08:49:03.000Z</time>
      </trkpt>
      <trkpt lat="43.84981" lon="7.60542">
        <ele>433</ele>
        <time>2022-09-10T08:49:04.000Z</time>
      </trkpt>
      <trkpt lat="43.84979" lon="7.60547">
        <ele>431.20001220703</ele>
        <time>2022-09-10T08:49:06.000Z</time>
      </trkpt>
      <trkpt lat="43.84978" lon="7.6055">
        <ele>429.79998779297</ele>
        <time>2022-09-10T08:49:08.000Z</time>
      </trkpt>
      <trkpt lat="43.84979" lon="7.60551">
        <ele>429.39999389648</ele>
        <time>2022-09-10T08:49:09.000Z</time>
      </trkpt>
      <trkpt lat="43.8498" lon="7.60551">
        <ele>429</ele>
        <time>2022-09-10T08:49:11.000Z</time>
      </trkpt>
      <trkpt lat="43.84984" lon="7.60553">
        <ele>429</ele>
        <time>2022-09-10T08:49:14.000Z</time>
      </trkpt>
      <trkpt lat="43.84994" lon="7.60561">
        <ele>429.20001220703</ele>
        <time>2022-09-10T08:49:21.000Z</time>
      </trkpt>
      <trkpt lat="43.84996" lon="7.60562">
        <ele>429</ele>
        <time>2022-09-10T08:49:25.000Z</time>
      </trkpt>
      <trkpt lat="43.84999" lon="7.60565">
        <ele>429</ele>
        <time>2022-09-10T08:49:34.000Z</time>
      </trkpt>
      <trkpt lat="43.85009" lon="7.60577">
        <ele>429</ele>
        <time>2022-09-10T08:49:39.000Z</time>
      </trkpt>
      <trkpt lat="43.85024" lon="7.60591">
        <ele>428.79998779297</ele>
        <time>2022-09-10T08:49:45.000Z</time>
      </trkpt>
      <trkpt lat="43.85037" lon="7.60582">
        <ele>428.39999389648</ele>
        <time>2022-09-10T08:49:49.000Z</time>
      </trkpt>
      <trkpt lat="43.85055" lon="7.60567">
        <ele>427.60000610352</ele>
        <time>2022-09-10T08:49:53.000Z</time>
      </trkpt>
      <trkpt lat="43.8506" lon="7.60565">
        <ele>427.20001220703</ele>
        <time>2022-09-10T08:49:54.000Z</time>
      </trkpt>
      <trkpt lat="43.8507" lon="7.60564">
        <ele>426.60000610352</ele>
        <time>2022-09-10T08:49:56.000Z</time>
      </trkpt>
      <trkpt lat="43.85084" lon="7.60567">
        <ele>425.60000610352</ele>
        <time>2022-09-10T08:49:59.000Z</time>
      </trkpt>
      <trkpt lat="43.85089" lon="7.60568">
        <ele>425.39999389648</ele>
        <time>2022-09-10T08:50:00.000Z</time>
      </trkpt>
      <trkpt lat="43.85102" lon="7.60572">
        <ele>424.60000610352</ele>
        <time>2022-09-10T08:50:03.000Z</time>
      </trkpt>
      <trkpt lat="43.85106" lon="7.60571">
        <ele>424.39999389648</ele>
        <time>2022-09-10T08:50:04.000Z</time>
      </trkpt>
      <trkpt lat="43.85111" lon="7.60569">
        <ele>424.20001220703</ele>
        <time>2022-09-10T08:50:05.000Z</time>
      </trkpt>
      <trkpt lat="43.85117" lon="7.60567">
        <ele>423.79998779297</ele>
        <time>2022-09-10T08:50:06.000Z</time>
      </trkpt>
      <trkpt lat="43.85128" lon="7.6056">
        <ele>423.20001220703</ele>
        <time>2022-09-10T08:50:08.000Z</time>
      </trkpt>
      <trkpt lat="43.85134" lon="7.60557">
        <ele>422.79998779297</ele>
        <time>2022-09-10T08:50:09.000Z</time>
      </trkpt>
      <trkpt lat="43.85147" lon="7.60551">
        <ele>421.60000610352</ele>
        <time>2022-09-10T08:50:11.000Z</time>
      </trkpt>
      <trkpt lat="43.85162" lon="7.6055">
        <ele>420.60000610352</ele>
        <time>2022-09-10T08:50:13.000Z</time>
      </trkpt>
      <trkpt lat="43.85186" lon="7.60557">
        <ele>419.20001220703</ele>
        <time>2022-09-10T08:50:16.000Z</time>
      </trkpt>
      <trkpt lat="43.85195" lon="7.60562">
        <ele>418.60000610352</ele>
        <time>2022-09-10T08:50:17.000Z</time>
      </trkpt>
      <trkpt lat="43.85203" lon="7.60566">
        <ele>418</ele>
        <time>2022-09-10T08:50:18.000Z</time>
      </trkpt>
      <trkpt lat="43.8522" lon="7.60574">
        <ele>416.60000610352</ele>
        <time>2022-09-10T08:50:20.000Z</time>
      </trkpt>
      <trkpt lat="43.85235" lon="7.60584">
        <ele>415.20001220703</ele>
        <time>2022-09-10T08:50:22.000Z</time>
      </trkpt>
      <trkpt lat="43.85241" lon="7.60591">
        <ele>414.39999389648</ele>
        <time>2022-09-10T08:50:23.000Z</time>
      </trkpt>
      <trkpt lat="43.85246" lon="7.60597">
        <ele>414</ele>
        <time>2022-09-10T08:50:24.000Z</time>
      </trkpt>
      <trkpt lat="43.85252" lon="7.60605">
        <ele>413</ele>
        <time>2022-09-10T08:50:26.000Z</time>
      </trkpt>
      <trkpt lat="43.85254" lon="7.60607">
        <ele>412.60000610352</ele>
        <time>2022-09-10T08:50:27.000Z</time>
      </trkpt>
      <trkpt lat="43.85265" lon="7.6061">
        <ele>411.39999389648</ele>
        <time>2022-09-10T08:50:31.000Z</time>
      </trkpt>
      <trkpt lat="43.85279" lon="7.6061">
        <ele>410.79998779297</ele>
        <time>2022-09-10T08:50:35.000Z</time>
      </trkpt>
      <trkpt lat="43.85288" lon="7.60615">
        <ele>410.20001220703</ele>
        <time>2022-09-10T08:50:37.000Z</time>
      </trkpt>
      <trkpt lat="43.85296" lon="7.60624">
        <ele>409.60000610352</ele>
        <time>2022-09-10T08:50:39.000Z</time>
      </trkpt>
      <trkpt lat="43.85304" lon="7.60634">
        <ele>409</ele>
        <time>2022-09-10T08:50:41.000Z</time>
      </trkpt>
      <trkpt lat="43.85308" lon="7.6064">
        <ele>408.60000610352</ele>
        <time>2022-09-10T08:50:42.000Z</time>
      </trkpt>
      <trkpt lat="43.85316" lon="7.60651">
        <ele>408</ele>
        <time>2022-09-10T08:50:44.000Z</time>
      </trkpt>
      <trkpt lat="43.85324" lon="7.60662">
        <ele>407.39999389648</ele>
        <time>2022-09-10T08:50:46.000Z</time>
      </trkpt>
      <trkpt lat="43.85331" lon="7.60676">
        <ele>406.60000610352</ele>
        <time>2022-09-10T08:50:48.000Z</time>
      </trkpt>
      <trkpt lat="43.85334" lon="7.60682">
        <ele>406.20001220703</ele>
        <time>2022-09-10T08:50:49.000Z</time>
      </trkpt>
      <trkpt lat="43.8534" lon="7.60695">
        <ele>405.39999389648</ele>
        <time>2022-09-10T08:50:51.000Z</time>
      </trkpt>
      <trkpt lat="43.85343" lon="7.60701">
        <ele>405</ele>
        <time>2022-09-10T08:50:52.000Z</time>
      </trkpt>
      <trkpt lat="43.8535" lon="7.60712">
        <ele>404.20001220703</ele>
        <time>2022-09-10T08:50:54.000Z</time>
      </trkpt>
      <trkpt lat="43.85363" lon="7.60724">
        <ele>403.20001220703</ele>
        <time>2022-09-10T08:50:57.000Z</time>
      </trkpt>
      <trkpt lat="43.85372" lon="7.6073">
        <ele>402.39999389648</ele>
        <time>2022-09-10T08:50:59.000Z</time>
      </trkpt>
      <trkpt lat="43.85376" lon="7.60732">
        <ele>402</ele>
        <time>2022-09-10T08:51:00.000Z</time>
      </trkpt>
      <trkpt lat="43.85386" lon="7.60734">
        <ele>401.39999389648</ele>
        <time>2022-09-10T08:51:03.000Z</time>
      </trkpt>
      <trkpt lat="43.85389" lon="7.60732">
        <ele>401</ele>
        <time>2022-09-10T08:51:04.000Z</time>
      </trkpt>
      <trkpt lat="43.85392" lon="7.6073">
        <ele>400.60000610352</ele>
        <time>2022-09-10T08:51:05.000Z</time>
      </trkpt>
      <trkpt lat="43.854" lon="7.60724">
        <ele>400</ele>
        <time>2022-09-10T08:51:07.000Z</time>
      </trkpt>
      <trkpt lat="43.85404" lon="7.60721">
        <ele>399.79998779297</ele>
        <time>2022-09-10T08:51:08.000Z</time>
      </trkpt>
      <trkpt lat="43.85416" lon="7.60713">
        <ele>398.79998779297</ele>
        <time>2022-09-10T08:51:12.000Z</time>
      </trkpt>
      <trkpt lat="43.85433" lon="7.60711">
        <ele>397.79998779297</ele>
        <time>2022-09-10T08:51:18.000Z</time>
      </trkpt>
      <trkpt lat="43.85451" lon="7.6071">
        <ele>396.79998779297</ele>
        <time>2022-09-10T08:51:24.000Z</time>
      </trkpt>
      <trkpt lat="43.85455" lon="7.60711">
        <ele>396.60000610352</ele>
        <time>2022-09-10T08:51:25.000Z</time>
      </trkpt>
      <trkpt lat="43.85469" lon="7.60711">
        <ele>395.60000610352</ele>
        <time>2022-09-10T08:51:30.000Z</time>
      </trkpt>
      <trkpt lat="43.85472" lon="7.60711">
        <ele>395.39999389648</ele>
        <time>2022-09-10T08:51:31.000Z</time>
      </trkpt>
      <trkpt lat="43.85481" lon="7.60714">
        <ele>394.39999389648</ele>
        <time>2022-09-10T08:51:36.000Z</time>
      </trkpt>
      <trkpt lat="43.8549" lon="7.60721">
        <ele>393.60000610352</ele>
        <time>2022-09-10T08:51:42.000Z</time>
      </trkpt>
      <trkpt lat="43.85491" lon="7.6072">
        <ele>393.39999389648</ele>
        <time>2022-09-10T08:51:43.000Z</time>
      </trkpt>
      <trkpt lat="43.85491" lon="7.60719">
        <ele>393.20001220703</ele>
        <time>2022-09-10T08:51:44.000Z</time>
      </trkpt>
      <trkpt lat="43.8549" lon="7.60718">
        <ele>393</ele>
        <time>2022-09-10T08:51:45.000Z</time>
      </trkpt>
      <trkpt lat="43.85489" lon="7.60718">
        <ele>392.79998779297</ele>
        <time>2022-09-10T08:51:46.000Z</time>
      </trkpt>
      <trkpt lat="43.85482" lon="7.60715">
        <ele>393.20001220703</ele>
        <time>2022-09-10T08:51:51.000Z</time>
      </trkpt>
      <trkpt lat="43.85467" lon="7.60711">
        <ele>393.79998779297</ele>
        <time>2022-09-10T08:51:57.000Z</time>
      </trkpt>
      <trkpt lat="43.8546" lon="7.6071">
        <ele>394.20001220703</ele>
        <time>2022-09-10T08:52:00.000Z</time>
      </trkpt>
      <trkpt lat="43.8545" lon="7.60708">
        <ele>395.20001220703</ele>
        <time>2022-09-10T08:52:04.000Z</time>
      </trkpt>
      <trkpt lat="43.85447" lon="7.60708">
        <ele>395.20001220703</ele>
        <time>2022-09-10T08:52:05.000Z</time>
      </trkpt>
      <trkpt lat="43.8543" lon="7.60708">
        <ele>396.39999389648</ele>
        <time>2022-09-10T08:52:12.000Z</time>
      </trkpt>
      <trkpt lat="43.85409" lon="7.60715">
        <ele>397.39999389648</ele>
        <time>2022-09-10T08:52:21.000Z</time>
      </trkpt>
      <trkpt lat="43.85396" lon="7.60725">
        <ele>398.39999389648</ele>
        <time>2022-09-10T08:52:27.000Z</time>
      </trkpt>
      <trkpt lat="43.8539" lon="7.60729">
        <ele>399</ele>
        <time>2022-09-10T08:52:30.000Z</time>
      </trkpt>
      <trkpt lat="43.8538" lon="7.60731">
        <ele>399.39999389648</ele>
        <time>2022-09-10T08:52:34.000Z</time>
      </trkpt>
      <trkpt lat="43.85375" lon="7.6073">
        <ele>399.79998779297</ele>
        <time>2022-09-10T08:52:36.000Z</time>
      </trkpt>
      <trkpt lat="43.85365" lon="7.60723">
        <ele>400.60000610352</ele>
        <time>2022-09-10T08:52:41.000Z</time>
      </trkpt>
      <trkpt lat="43.85362" lon="7.6072">
        <ele>400.79998779297</ele>
        <time>2022-09-10T08:52:43.000Z</time>
      </trkpt>
      <trkpt lat="43.8535" lon="7.6071">
        <ele>401.60000610352</ele>
        <time>2022-09-10T08:52:50.000Z</time>
      </trkpt>
      <trkpt lat="43.85346" lon="7.60706">
        <ele>402</ele>
        <time>2022-09-10T08:52:52.000Z</time>
      </trkpt>
      <trkpt lat="43.85341" lon="7.60697">
        <ele>402.60000610352</ele>
        <time>2022-09-10T08:52:56.000Z</time>
      </trkpt>
      <trkpt lat="43.85336" lon="7.60687">
        <ele>403</ele>
        <time>2022-09-10T08:53:00.000Z</time>
      </trkpt>
      <trkpt lat="43.8533" lon="7.60673">
        <ele>403.60000610352</ele>
        <time>2022-09-10T08:53:05.000Z</time>
      </trkpt>
      <trkpt lat="43.8532" lon="7.60654">
        <ele>404.79998779297</ele>
        <time>2022-09-10T08:53:12.000Z</time>
      </trkpt>
      <trkpt lat="43.85309" lon="7.6064">
        <ele>405.79998779297</ele>
        <time>2022-09-10T08:53:18.000Z</time>
      </trkpt>
      <trkpt lat="43.85304" lon="7.60633">
        <ele>406.39999389648</ele>
        <time>2022-09-10T08:53:21.000Z</time>
      </trkpt>
      <trkpt lat="43.85299" lon="7.60627">
        <ele>406.79998779297</ele>
        <time>2022-09-10T08:53:24.000Z</time>
      </trkpt>
      <trkpt lat="43.85288" lon="7.60613">
        <ele>407.60000610352</ele>
        <time>2022-09-10T08:53:30.000Z</time>
      </trkpt>
      <trkpt lat="43.85284" lon="7.60609">
        <ele>408</ele>
        <time>2022-09-10T08:53:32.000Z</time>
      </trkpt>
      <trkpt lat="43.85272" lon="7.60606">
        <ele>408.79998779297</ele>
        <time>2022-09-10T08:53:37.000Z</time>
      </trkpt>
      <trkpt lat="43.85267" lon="7.60606">
        <ele>409.20001220703</ele>
        <time>2022-09-10T08:53:39.000Z</time>
      </trkpt>
      <trkpt lat="43.85255" lon="7.60602">
        <ele>410.20001220703</ele>
        <time>2022-09-10T08:53:44.000Z</time>
      </trkpt>
      <trkpt lat="43.85243" lon="7.60589">
        <ele>411.39999389648</ele>
        <time>2022-09-10T08:53:50.000Z</time>
      </trkpt>
      <trkpt lat="43.85241" lon="7.60586">
        <ele>411.39999389648</ele>
        <time>2022-09-10T08:53:51.000Z</time>
      </trkpt>
      <trkpt lat="43.85228" lon="7.60576">
        <ele>412.39999389648</ele>
        <time>2022-09-10T08:53:57.000Z</time>
      </trkpt>
      <trkpt lat="43.85226" lon="7.60575">
        <ele>412.60000610352</ele>
        <time>2022-09-10T08:53:58.000Z</time>
      </trkpt>
      <trkpt lat="43.85216" lon="7.60571">
        <ele>413.60000610352</ele>
        <time>2022-09-10T08:54:03.000Z</time>
      </trkpt>
      <trkpt lat="43.85208" lon="7.60567">
        <ele>414.20001220703</ele>
        <time>2022-09-10T08:54:07.000Z</time>
      </trkpt>
      <trkpt lat="43.85202" lon="7.60564">
        <ele>414.60000610352</ele>
        <time>2022-09-10T08:54:10.000Z</time>
      </trkpt>
      <trkpt lat="43.85193" lon="7.6056">
        <ele>415.20001220703</ele>
        <time>2022-09-10T08:54:15.000Z</time>
      </trkpt>
      <trkpt lat="43.85185" lon="7.60556">
        <ele>415.79998779297</ele>
        <time>2022-09-10T08:54:19.000Z</time>
      </trkpt>
      <trkpt lat="43.85177" lon="7.60552">
        <ele>416.39999389648</ele>
        <time>2022-09-10T08:54:23.000Z</time>
      </trkpt>
      <trkpt lat="43.8517" lon="7.60548">
        <ele>416.79998779297</ele>
        <time>2022-09-10T08:54:27.000Z</time>
      </trkpt>
      <trkpt lat="43.85163" lon="7.60546">
        <ele>417.20001220703</ele>
        <time>2022-09-10T08:54:31.000Z</time>
      </trkpt>
      <trkpt lat="43.85153" lon="7.60548">
        <ele>417.79998779297</ele>
        <time>2022-09-10T08:54:36.000Z</time>
      </trkpt>
      <trkpt lat="43.8515" lon="7.60549">
        <ele>418.20001220703</ele>
        <time>2022-09-10T08:54:38.000Z</time>
      </trkpt>
      <trkpt lat="43.85137" lon="7.60555">
        <ele>419</ele>
        <time>2022-09-10T08:54:45.000Z</time>
      </trkpt>
      <trkpt lat="43.85135" lon="7.60556">
        <ele>419</ele>
        <time>2022-09-10T08:54:46.000Z</time>
      </trkpt>
      <trkpt lat="43.85123" lon="7.60562">
        <ele>420</ele>
        <time>2022-09-10T08:54:52.000Z</time>
      </trkpt>
      <trkpt lat="43.85119" lon="7.60565">
        <ele>420.20001220703</ele>
        <time>2022-09-10T08:54:54.000Z</time>
      </trkpt>
      <trkpt lat="43.85107" lon="7.60574">
        <ele>421</ele>
        <time>2022-09-10T08:55:02.000Z</time>
      </trkpt>
      <trkpt lat="43.851" lon="7.60577">
        <ele>421.60000610352</ele>
        <time>2022-09-10T08:55:06.000Z</time>
      </trkpt>
      <trkpt lat="43.85095" lon="7.60577">
        <ele>422</ele>
        <time>2022-09-10T08:55:08.000Z</time>
      </trkpt>
      <trkpt lat="43.85072" lon="7.60583">
        <ele>421.20001220703</ele>
        <time>2022-09-10T08:55:17.000Z</time>
      </trkpt>
      <trkpt lat="43.85048" lon="7.60594">
        <ele>420.60000610352</ele>
        <time>2022-09-10T08:55:25.000Z</time>
      </trkpt>
      <trkpt lat="43.85034" lon="7.60611">
        <ele>420</ele>
        <time>2022-09-10T08:55:30.000Z</time>
      </trkpt>
      <trkpt lat="43.85028" lon="7.60619">
        <ele>419.79998779297</ele>
        <time>2022-09-10T08:55:32.000Z</time>
      </trkpt>
      <trkpt lat="43.8502" lon="7.60625">
        <ele>419.39999389648</ele>
        <time>2022-09-10T08:55:34.000Z</time>
      </trkpt>
      <trkpt lat="43.85007" lon="7.6062">
        <ele>418.79998779297</ele>
        <time>2022-09-10T08:55:37.000Z</time>
      </trkpt>
      <trkpt lat="43.84999" lon="7.60613">
        <ele>418.39999389648</ele>
        <time>2022-09-10T08:55:39.000Z</time>
      </trkpt>
      <trkpt lat="43.84983" lon="7.60599">
        <ele>417.79998779297</ele>
        <time>2022-09-10T08:55:43.000Z</time>
      </trkpt>
      <trkpt lat="43.8497" lon="7.60588">
        <ele>417.39999389648</ele>
        <time>2022-09-10T08:55:46.000Z</time>
      </trkpt>
      <trkpt lat="43.84965" lon="7.60587">
        <ele>417.20001220703</ele>
        <time>2022-09-10T08:55:47.000Z</time>
      </trkpt>
      <trkpt lat="43.84956" lon="7.60593">
        <ele>417</ele>
        <time>2022-09-10T08:55:49.000Z</time>
      </trkpt>
      <trkpt lat="43.84945" lon="7.6061">
        <ele>417</ele>
        <time>2022-09-10T08:55:52.000Z</time>
      </trkpt>
      <trkpt lat="43.84941" lon="7.60614">
        <ele>416.79998779297</ele>
        <time>2022-09-10T08:55:53.000Z</time>
      </trkpt>
      <trkpt lat="43.8492" lon="7.60647">
        <ele>415.79998779297</ele>
        <time>2022-09-10T08:55:59.000Z</time>
      </trkpt>
      <trkpt lat="43.84917" lon="7.60653">
        <ele>415.60000610352</ele>
        <time>2022-09-10T08:56:00.000Z</time>
      </trkpt>
      <trkpt lat="43.84905" lon="7.60684">
        <ele>415.39999389648</ele>
        <time>2022-09-10T08:56:05.000Z</time>
      </trkpt>
      <trkpt lat="43.84901" lon="7.60689">
        <ele>415.20001220703</ele>
        <time>2022-09-10T08:56:06.000Z</time>
      </trkpt>
      <trkpt lat="43.84888" lon="7.60702">
        <ele>414.60000610352</ele>
        <time>2022-09-10T08:56:09.000Z</time>
      </trkpt>
      <trkpt lat="43.8488" lon="7.60709">
        <ele>414.39999389648</ele>
        <time>2022-09-10T08:56:11.000Z</time>
      </trkpt>
      <trkpt lat="43.84862" lon="7.60728">
        <ele>414.20001220703</ele>
        <time>2022-09-10T08:56:16.000Z</time>
      </trkpt>
      <trkpt lat="43.84858" lon="7.60739">
        <ele>414.20001220703</ele>
        <time>2022-09-10T08:56:18.000Z</time>
      </trkpt>
      <trkpt lat="43.84847" lon="7.60765">
        <ele>413.60000610352</ele>
        <time>2022-09-10T08:56:23.000Z</time>
      </trkpt>
      <trkpt lat="43.84842" lon="7.60769">
        <ele>413.60000610352</ele>
        <time>2022-09-10T08:56:24.000Z</time>
      </trkpt>
      <trkpt lat="43.84827" lon="7.6077">
        <ele>413</ele>
        <time>2022-09-10T08:56:27.000Z</time>
      </trkpt>
      <trkpt lat="43.84802" lon="7.60773">
        <ele>412.39999389648</ele>
        <time>2022-09-10T08:56:32.000Z</time>
      </trkpt>
      <trkpt lat="43.84792" lon="7.60777">
        <ele>412.20001220703</ele>
        <time>2022-09-10T08:56:34.000Z</time>
      </trkpt>
      <trkpt lat="43.84788" lon="7.60781">
        <ele>412.20001220703</ele>
        <time>2022-09-10T08:56:35.000Z</time>
      </trkpt>
      <trkpt lat="43.84779" lon="7.608">
        <ele>411.79998779297</ele>
        <time>2022-09-10T08:56:38.000Z</time>
      </trkpt>
      <trkpt lat="43.84778" lon="7.60816">
        <ele>411.39999389648</ele>
        <time>2022-09-10T08:56:40.000Z</time>
      </trkpt>
      <trkpt lat="43.84782" lon="7.60829">
        <ele>411</ele>
        <time>2022-09-10T08:56:42.000Z</time>
      </trkpt>
      <trkpt lat="43.84783" lon="7.60835">
        <ele>410.79998779297</ele>
        <time>2022-09-10T08:56:43.000Z</time>
      </trkpt>
      <trkpt lat="43.84789" lon="7.60859">
        <ele>411</ele>
        <time>2022-09-10T08:56:48.000Z</time>
      </trkpt>
      <trkpt lat="43.8479" lon="7.60873">
        <ele>411</ele>
        <time>2022-09-10T08:56:51.000Z</time>
      </trkpt>
      <trkpt lat="43.84787" lon="7.60881">
        <ele>410.60000610352</ele>
        <time>2022-09-10T08:56:53.000Z</time>
      </trkpt>
      <trkpt lat="43.84782" lon="7.60887">
        <ele>410.39999389648</ele>
        <time>2022-09-10T08:56:55.000Z</time>
      </trkpt>
      <trkpt lat="43.84778" lon="7.60891">
        <ele>409.79998779297</ele>
        <time>2022-09-10T08:56:57.000Z</time>
      </trkpt>
      <trkpt lat="43.84766" lon="7.60902">
        <ele>409.20001220703</ele>
        <time>2022-09-10T08:57:01.000Z</time>
      </trkpt>
      <trkpt lat="43.84759" lon="7.60907">
        <ele>409</ele>
        <time>2022-09-10T08:57:03.000Z</time>
      </trkpt>
      <trkpt lat="43.84739" lon="7.60923">
        <ele>408.20001220703</ele>
        <time>2022-09-10T08:57:09.000Z</time>
      </trkpt>
      <trkpt lat="43.84733" lon="7.60929">
        <ele>408</ele>
        <time>2022-09-10T08:57:11.000Z</time>
      </trkpt>
      <trkpt lat="43.84716" lon="7.60946">
        <ele>407.39999389648</ele>
        <time>2022-09-10T08:57:17.000Z</time>
      </trkpt>
      <trkpt lat="43.8471" lon="7.60952">
        <ele>407.20001220703</ele>
        <time>2022-09-10T08:57:19.000Z</time>
      </trkpt>
      <trkpt lat="43.84696" lon="7.60965">
        <ele>407.20001220703</ele>
        <time>2022-09-10T08:57:24.000Z</time>
      </trkpt>
      <trkpt lat="43.84683" lon="7.60976">
        <ele>406.20001220703</ele>
        <time>2022-09-10T08:57:30.000Z</time>
      </trkpt>
      <trkpt lat="43.84681" lon="7.60978">
        <ele>406.20001220703</ele>
        <time>2022-09-10T08:57:31.000Z</time>
      </trkpt>
      <trkpt lat="43.84661" lon="7.60992">
        <ele>405.79998779297</ele>
        <time>2022-09-10T08:57:39.000Z</time>
      </trkpt>
      <trkpt lat="43.8464" lon="7.61006">
        <ele>405.60000610352</ele>
        <time>2022-09-10T08:57:47.000Z</time>
      </trkpt>
      <trkpt lat="43.84634" lon="7.6101">
        <ele>405</ele>
        <time>2022-09-10T08:57:49.000Z</time>
      </trkpt>
      <trkpt lat="43.84613" lon="7.61025">
        <ele>404.39999389648</ele>
        <time>2022-09-10T08:57:55.000Z</time>
      </trkpt>
      <trkpt lat="43.84607" lon="7.61032">
        <ele>404</ele>
        <time>2022-09-10T08:57:57.000Z</time>
      </trkpt>
      <trkpt lat="43.84595" lon="7.61046">
        <ele>403.20001220703</ele>
        <time>2022-09-10T08:58:01.000Z</time>
      </trkpt>
      <trkpt lat="43.84585" lon="7.61057">
        <ele>403</ele>
        <time>2022-09-10T08:58:04.000Z</time>
      </trkpt>
      <trkpt lat="43.84579" lon="7.61065">
        <ele>402.79998779297</ele>
        <time>2022-09-10T08:58:06.000Z</time>
      </trkpt>
      <trkpt lat="43.84574" lon="7.61075">
        <ele>403</ele>
        <time>2022-09-10T08:58:08.000Z</time>
      </trkpt>
      <trkpt lat="43.84562" lon="7.61099">
        <ele>402.79998779297</ele>
        <time>2022-09-10T08:58:13.000Z</time>
      </trkpt>
      <trkpt lat="43.84554" lon="7.61105">
        <ele>402.60000610352</ele>
        <time>2022-09-10T08:58:15.000Z</time>
      </trkpt>
      <trkpt lat="43.84534" lon="7.6112">
        <ele>401.79998779297</ele>
        <time>2022-09-10T08:58:20.000Z</time>
      </trkpt>
      <trkpt lat="43.84525" lon="7.61126">
        <ele>401.60000610352</ele>
        <time>2022-09-10T08:58:22.000Z</time>
      </trkpt>
      <trkpt lat="43.84504" lon="7.61141">
        <ele>400.79998779297</ele>
        <time>2022-09-10T08:58:27.000Z</time>
      </trkpt>
      <trkpt lat="43.845" lon="7.61143">
        <ele>400.60000610352</ele>
        <time>2022-09-10T08:58:28.000Z</time>
      </trkpt>
      <trkpt lat="43.84496" lon="7.61144">
        <ele>400.39999389648</ele>
        <time>2022-09-10T08:58:29.000Z</time>
      </trkpt>
      <trkpt lat="43.84476" lon="7.61147">
        <ele>400</ele>
        <time>2022-09-10T08:58:34.000Z</time>
      </trkpt>
      <trkpt lat="43.84474" lon="7.61146">
        <ele>399.60000610352</ele>
        <time>2022-09-10T08:58:35.000Z</time>
      </trkpt>
      <trkpt lat="43.84468" lon="7.61143">
        <ele>399</ele>
        <time>2022-09-10T08:58:38.000Z</time>
      </trkpt>
      <trkpt lat="43.84458" lon="7.6114">
        <ele>398.60000610352</ele>
        <time>2022-09-10T08:58:44.000Z</time>
      </trkpt>
      <trkpt lat="43.84454" lon="7.6114">
        <ele>398.60000610352</ele>
        <time>2022-09-10T08:58:47.000Z</time>
      </trkpt>
      <trkpt lat="43.84454" lon="7.61139">
        <ele>398.39999389648</ele>
        <time>2022-09-10T08:58:52.000Z</time>
      </trkpt>
      <trkpt lat="43.84454" lon="7.61139">
        <ele>398.39999389648</ele>
        <time>2022-09-10T08:59:05.000Z</time>
      </trkpt>
      <trkpt lat="43.84454" lon="7.61139">
        <ele>398.60000610352</ele>
        <time>2022-09-10T08:59:17.000Z</time>
      </trkpt>
      <trkpt lat="43.84455" lon="7.61138">
        <ele>398.60000610352</ele>
        <time>2022-09-10T08:59:38.000Z</time>
      </trkpt>
      <trkpt lat="43.84455" lon="7.61138">
        <ele>398.60000610352</ele>
        <time>2022-09-10T08:59:58.000Z</time>
      </trkpt>
      <trkpt lat="43.84456" lon="7.6114">
        <ele>398.39999389648</ele>
        <time>2022-09-10T09:00:09.000Z</time>
      </trkpt>
      <trkpt lat="43.84464" lon="7.61139">
        <ele>398.79998779297</ele>
        <time>2022-09-10T09:00:15.000Z</time>
      </trkpt>
      <trkpt lat="43.84475" lon="7.61144">
        <ele>399.20001220703</ele>
        <time>2022-09-10T09:00:21.000Z</time>
      </trkpt>
      <trkpt lat="43.84489" lon="7.61145">
        <ele>399.39999389648</ele>
        <time>2022-09-10T09:00:28.000Z</time>
      </trkpt>
      <trkpt lat="43.84498" lon="7.61142">
        <ele>399.60000610352</ele>
        <time>2022-09-10T09:00:33.000Z</time>
      </trkpt>
      <trkpt lat="43.84504" lon="7.61139">
        <ele>400</ele>
        <time>2022-09-10T09:00:36.000Z</time>
      </trkpt>
      <trkpt lat="43.84521" lon="7.61128">
        <ele>400.60000610352</ele>
        <time>2022-09-10T09:00:45.000Z</time>
      </trkpt>
      <trkpt lat="43.84535" lon="7.61118">
        <ele>400.79998779297</ele>
        <time>2022-09-10T09:00:52.000Z</time>
      </trkpt>
      <trkpt lat="43.84553" lon="7.61104">
        <ele>401.20001220703</ele>
        <time>2022-09-10T09:01:01.000Z</time>
      </trkpt>
      <trkpt lat="43.84568" lon="7.61089">
        <ele>401.79998779297</ele>
        <time>2022-09-10T09:01:09.000Z</time>
      </trkpt>
      <trkpt lat="43.84578" lon="7.61067">
        <ele>402.39999389648</ele>
        <time>2022-09-10T09:01:17.000Z</time>
      </trkpt>
      <trkpt lat="43.8459" lon="7.61053">
        <ele>402.60000610352</ele>
        <time>2022-09-10T09:01:23.000Z</time>
      </trkpt>
      <trkpt lat="43.84605" lon="7.61037">
        <ele>402.79998779297</ele>
        <time>2022-09-10T09:01:30.000Z</time>
      </trkpt>
      <trkpt lat="43.84607" lon="7.61034">
        <ele>403</ele>
        <time>2022-09-10T09:01:31.000Z</time>
      </trkpt>
      <trkpt lat="43.84621" lon="7.61021">
        <ele>403.39999389648</ele>
        <time>2022-09-10T09:01:38.000Z</time>
      </trkpt>
      <trkpt lat="43.84637" lon="7.6101">
        <ele>403.79998779297</ele>
        <time>2022-09-10T09:01:45.000Z</time>
      </trkpt>
      <trkpt lat="43.8464" lon="7.61009">
        <ele>404</ele>
        <time>2022-09-10T09:01:46.000Z</time>
      </trkpt>
      <trkpt lat="43.84654" lon="7.61001">
        <ele>404.60000610352</ele>
        <time>2022-09-10T09:01:54.000Z</time>
      </trkpt>
      <trkpt lat="43.84654" lon="7.61002">
        <ele>404.60000610352</ele>
        <time>2022-09-10T09:01:59.000Z</time>
      </trkpt>
      <trkpt lat="43.84653" lon="7.61002">
        <ele>404.60000610352</ele>
        <time>2022-09-10T09:02:00.000Z</time>
      </trkpt>
      <trkpt lat="43.8465" lon="7.61004">
        <ele>404.20001220703</ele>
        <time>2022-09-10T09:02:03.000Z</time>
      </trkpt>
      <trkpt lat="43.8465" lon="7.61004">
        <ele>404.20001220703</ele>
        <time>2022-09-10T09:02:10.000Z</time>
      </trkpt>
      <trkpt lat="43.84652" lon="7.61002">
        <ele>404.20001220703</ele>
        <time>2022-09-10T09:02:16.000Z</time>
      </trkpt>
      <trkpt lat="43.84654" lon="7.61">
        <ele>404</ele>
        <time>2022-09-10T09:02:22.000Z</time>
      </trkpt>
      <trkpt lat="43.84663" lon="7.60995">
        <ele>404.60000610352</ele>
        <time>2022-09-10T09:02:27.000Z</time>
      </trkpt>
      <trkpt lat="43.84682" lon="7.6098">
        <ele>405</ele>
        <time>2022-09-10T09:02:34.000Z</time>
      </trkpt>
      <trkpt lat="43.84704" lon="7.60962">
        <ele>405.60000610352</ele>
        <time>2022-09-10T09:02:41.000Z</time>
      </trkpt>
      <trkpt lat="43.84712" lon="7.60953">
        <ele>406</ele>
        <time>2022-09-10T09:02:44.000Z</time>
      </trkpt>
      <trkpt lat="43.84724" lon="7.60941">
        <ele>406.20001220703</ele>
        <time>2022-09-10T09:02:48.000Z</time>
      </trkpt>
      <trkpt lat="43.8475" lon="7.60918">
        <ele>406.79998779297</ele>
        <time>2022-09-10T09:02:57.000Z</time>
      </trkpt>
      <trkpt lat="43.84753" lon="7.60916">
        <ele>407</ele>
        <time>2022-09-10T09:02:58.000Z</time>
      </trkpt>
      <trkpt lat="43.84771" lon="7.609">
        <ele>407.60000610352</ele>
        <time>2022-09-10T09:03:05.000Z</time>
      </trkpt>
      <trkpt lat="43.8478" lon="7.60891">
        <ele>408</ele>
        <time>2022-09-10T09:03:09.000Z</time>
      </trkpt>
      <trkpt lat="43.84789" lon="7.60878">
        <ele>408.39999389648</ele>
        <time>2022-09-10T09:03:14.000Z</time>
      </trkpt>
      <trkpt lat="43.84789" lon="7.6086">
        <ele>409</ele>
        <time>2022-09-10T09:03:19.000Z</time>
      </trkpt>
      <trkpt lat="43.84788" lon="7.60853">
        <ele>409</ele>
        <time>2022-09-10T09:03:21.000Z</time>
      </trkpt>
      <trkpt lat="43.84785" lon="7.60843">
        <ele>409.39999389648</ele>
        <time>2022-09-10T09:03:24.000Z</time>
      </trkpt>
      <trkpt lat="43.84779" lon="7.60822">
        <ele>409.79998779297</ele>
        <time>2022-09-10T09:03:30.000Z</time>
      </trkpt>
      <trkpt lat="43.84781" lon="7.608">
        <ele>410.20001220703</ele>
        <time>2022-09-10T09:03:36.000Z</time>
      </trkpt>
      <trkpt lat="43.84789" lon="7.60786">
        <ele>410.60000610352</ele>
        <time>2022-09-10T09:03:41.000Z</time>
      </trkpt>
      <trkpt lat="43.84805" lon="7.6078">
        <ele>411.20001220703</ele>
        <time>2022-09-10T09:03:47.000Z</time>
      </trkpt>
      <trkpt lat="43.84808" lon="7.60779">
        <ele>411.20001220703</ele>
        <time>2022-09-10T09:03:48.000Z</time>
      </trkpt>
      <trkpt lat="43.84827" lon="7.60778">
        <ele>411.79998779297</ele>
        <time>2022-09-10T09:03:55.000Z</time>
      </trkpt>
      <trkpt lat="43.84844" lon="7.60774">
        <ele>412.20001220703</ele>
        <time>2022-09-10T09:04:01.000Z</time>
      </trkpt>
      <trkpt lat="43.84846" lon="7.60771">
        <ele>412.39999389648</ele>
        <time>2022-09-10T09:04:02.000Z</time>
      </trkpt>
      <trkpt lat="43.84855" lon="7.60748">
        <ele>412.79998779297</ele>
        <time>2022-09-10T09:04:08.000Z</time>
      </trkpt>
      <trkpt lat="43.84863" lon="7.60731">
        <ele>413.39999389648</ele>
        <time>2022-09-10T09:04:13.000Z</time>
      </trkpt>
      <trkpt lat="43.84868" lon="7.60726">
        <ele>413.39999389648</ele>
        <time>2022-09-10T09:04:15.000Z</time>
      </trkpt>
      <trkpt lat="43.84886" lon="7.6071">
        <ele>413.60000610352</ele>
        <time>2022-09-10T09:04:22.000Z</time>
      </trkpt>
      <trkpt lat="43.84908" lon="7.60685">
        <ele>414.20001220703</ele>
        <time>2022-09-10T09:04:31.000Z</time>
      </trkpt>
      <trkpt lat="43.84913" lon="7.60671">
        <ele>414.39999389648</ele>
        <time>2022-09-10T09:04:35.000Z</time>
      </trkpt>
      <trkpt lat="43.84916" lon="7.60662">
        <ele>414.60000610352</ele>
        <time>2022-09-10T09:04:37.000Z</time>
      </trkpt>
      <trkpt lat="43.84925" lon="7.60645">
        <ele>415</ele>
        <time>2022-09-10T09:04:42.000Z</time>
      </trkpt>
      <trkpt lat="43.84935" lon="7.6063">
        <ele>415.39999389648</ele>
        <time>2022-09-10T09:04:47.000Z</time>
      </trkpt>
      <trkpt lat="43.84942" lon="7.60621">
        <ele>415.79998779297</ele>
        <time>2022-09-10T09:04:50.000Z</time>
      </trkpt>
      <trkpt lat="43.84955" lon="7.60603">
        <ele>416.20001220703</ele>
        <time>2022-09-10T09:04:56.000Z</time>
      </trkpt>
      <trkpt lat="43.84964" lon="7.60594">
        <ele>416.60000610352</ele>
        <time>2022-09-10T09:05:00.000Z</time>
      </trkpt>
      <trkpt lat="43.84971" lon="7.60595">
        <ele>416.79998779297</ele>
        <time>2022-09-10T09:05:02.000Z</time>
      </trkpt>
      <trkpt lat="43.84984" lon="7.60605">
        <ele>417.20001220703</ele>
        <time>2022-09-10T09:05:07.000Z</time>
      </trkpt>
      <trkpt lat="43.84994" lon="7.60613">
        <ele>417.60000610352</ele>
        <time>2022-09-10T09:05:11.000Z</time>
      </trkpt>
      <trkpt lat="43.85008" lon="7.60625">
        <ele>418</ele>
        <time>2022-09-10T09:05:17.000Z</time>
      </trkpt>
      <trkpt lat="43.85025" lon="7.60628">
        <ele>418.20001220703</ele>
        <time>2022-09-10T09:05:23.000Z</time>
      </trkpt>
      <trkpt lat="43.85034" lon="7.60617">
        <ele>418.60000610352</ele>
        <time>2022-09-10T09:05:27.000Z</time>
      </trkpt>
      <trkpt lat="43.85036" lon="7.60615">
        <ele>418.79998779297</ele>
        <time>2022-09-10T09:05:28.000Z</time>
      </trkpt>
      <trkpt lat="43.85052" lon="7.60592">
        <ele>419.39999389648</ele>
        <time>2022-09-10T09:05:36.000Z</time>
      </trkpt>
      <trkpt lat="43.85056" lon="7.60589">
        <ele>419.79998779297</ele>
        <time>2022-09-10T09:05:38.000Z</time>
      </trkpt>
      <trkpt lat="43.85067" lon="7.60584">
        <ele>420.79998779297</ele>
        <time>2022-09-10T09:05:43.000Z</time>
      </trkpt>
      <trkpt lat="43.85082" lon="7.60579">
        <ele>421.79998779297</ele>
        <time>2022-09-10T09:05:51.000Z</time>
      </trkpt>
      <trkpt lat="43.85085" lon="7.60579">
        <ele>422.20001220703</ele>
        <time>2022-09-10T09:05:56.000Z</time>
      </trkpt>
      <trkpt lat="43.85085" lon="7.60579">
        <ele>422.60000610352</ele>
        <time>2022-09-10T09:06:13.000Z</time>
      </trkpt>
      <trkpt lat="43.85086" lon="7.60578">
        <ele>422.60000610352</ele>
        <time>2022-09-10T09:06:22.000Z</time>
      </trkpt>
      <trkpt lat="43.85086" lon="7.60578">
        <ele>422.60000610352</ele>
        <time>2022-09-10T09:06:45.000Z</time>
      </trkpt>
      <trkpt lat="43.85087" lon="7.60578">
        <ele>422.60000610352</ele>
        <time>2022-09-10T09:07:06.000Z</time>
      </trkpt>
      <trkpt lat="43.85087" lon="7.60578">
        <ele>422.39999389648</ele>
        <time>2022-09-10T09:07:37.000Z</time>
      </trkpt>
      <trkpt lat="43.85088" lon="7.60577">
        <ele>422.39999389648</ele>
        <time>2022-09-10T09:07:52.000Z</time>
      </trkpt>
      <trkpt lat="43.85089" lon="7.60577">
        <ele>422.39999389648</ele>
        <time>2022-09-10T09:07:58.000Z</time>
      </trkpt>
      <trkpt lat="43.85088" lon="7.60577">
        <ele>422.20001220703</ele>
        <time>2022-09-10T09:08:16.000Z</time>
      </trkpt>
      <trkpt lat="43.85087" lon="7.60578">
        <ele>422.20001220703</ele>
        <time>2022-09-10T09:08:37.000Z</time>
      </trkpt>
      <trkpt lat="43.85087" lon="7.60577">
        <ele>422.20001220703</ele>
        <time>2022-09-10T09:08:55.000Z</time>
      </trkpt>
      <trkpt lat="43.85087" lon="7.60577">
        <ele>422.20001220703</ele>
        <time>2022-09-10T09:09:06.000Z</time>
      </trkpt>
      <trkpt lat="43.85087" lon="7.60577">
        <ele>421.79998779297</ele>
        <time>2022-09-10T09:09:27.000Z</time>
      </trkpt>
      <trkpt lat="43.85087" lon="7.60577">
        <ele>421.79998779297</ele>
        <time>2022-09-10T09:09:38.000Z</time>
      </trkpt>
      <trkpt lat="43.85087" lon="7.60577">
        <ele>421.79998779297</ele>
        <time>2022-09-10T09:09:55.000Z</time>
      </trkpt>
      <trkpt lat="43.85088" lon="7.60577">
        <ele>421.20001220703</ele>
        <time>2022-09-10T09:10:06.000Z</time>
      </trkpt>
      <trkpt lat="43.85088" lon="7.60577">
        <ele>421.60000610352</ele>
        <time>2022-09-10T09:10:23.000Z</time>
      </trkpt>
      <trkpt lat="43.85089" lon="7.60577">
        <ele>421.39999389648</ele>
        <time>2022-09-10T09:10:40.000Z</time>
      </trkpt>
      <trkpt lat="43.85089" lon="7.60576">
        <ele>421.39999389648</ele>
        <time>2022-09-10T09:10:46.000Z</time>
      </trkpt>
      <trkpt lat="43.8509" lon="7.60575">
        <ele>421.39999389648</ele>
        <time>2022-09-10T09:10:47.000Z</time>
      </trkpt>
      <trkpt lat="43.85093" lon="7.60568">
        <ele>421.20001220703</ele>
        <time>2022-09-10T09:10:51.000Z</time>
      </trkpt>
      <trkpt lat="43.85099" lon="7.60554">
        <ele>421.20001220703</ele>
        <time>2022-09-10T09:10:56.000Z</time>
      </trkpt>
      <trkpt lat="43.85103" lon="7.60551">
        <ele>421.39999389648</ele>
        <time>2022-09-10T09:10:58.000Z</time>
      </trkpt>
      <trkpt lat="43.85116" lon="7.60547">
        <ele>422</ele>
        <time>2022-09-10T09:11:03.000Z</time>
      </trkpt>
      <trkpt lat="43.85134" lon="7.60541">
        <ele>422.39999389648</ele>
        <time>2022-09-10T09:11:11.000Z</time>
      </trkpt>
      <trkpt lat="43.85146" lon="7.60537">
        <ele>423</ele>
        <time>2022-09-10T09:11:16.000Z</time>
      </trkpt>
      <trkpt lat="43.85155" lon="7.60533">
        <ele>423.39999389648</ele>
        <time>2022-09-10T09:11:20.000Z</time>
      </trkpt>
      <trkpt lat="43.85172" lon="7.60527">
        <ele>424</ele>
        <time>2022-09-10T09:11:27.000Z</time>
      </trkpt>
      <trkpt lat="43.85176" lon="7.60526">
        <ele>424.20001220703</ele>
        <time>2022-09-10T09:11:29.000Z</time>
      </trkpt>
      <trkpt lat="43.85191" lon="7.60521">
        <ele>425</ele>
        <time>2022-09-10T09:11:36.000Z</time>
      </trkpt>
      <trkpt lat="43.85193" lon="7.6052">
        <ele>425</ele>
        <time>2022-09-10T09:11:37.000Z</time>
      </trkpt>
      <trkpt lat="43.85206" lon="7.60517">
        <ele>425.60000610352</ele>
        <time>2022-09-10T09:11:43.000Z</time>
      </trkpt>
      <trkpt lat="43.85215" lon="7.60517">
        <ele>426</ele>
        <time>2022-09-10T09:11:47.000Z</time>
      </trkpt>
      <trkpt lat="43.85222" lon="7.60516">
        <ele>426.39999389648</ele>
        <time>2022-09-10T09:11:50.000Z</time>
      </trkpt>
      <trkpt lat="43.85239" lon="7.60519">
        <ele>427</ele>
        <time>2022-09-10T09:11:57.000Z</time>
      </trkpt>
      <trkpt lat="43.85246" lon="7.6052">
        <ele>427.20001220703</ele>
        <time>2022-09-10T09:12:00.000Z</time>
      </trkpt>
      <trkpt lat="43.85261" lon="7.60521">
        <ele>427.79998779297</ele>
        <time>2022-09-10T09:12:06.000Z</time>
      </trkpt>
      <trkpt lat="43.85263" lon="7.60521">
        <ele>427.79998779297</ele>
        <time>2022-09-10T09:12:07.000Z</time>
      </trkpt>
      <trkpt lat="43.85268" lon="7.60521">
        <ele>428.20001220703</ele>
        <time>2022-09-10T09:12:09.000Z</time>
      </trkpt>
      <trkpt lat="43.85279" lon="7.60522">
        <ele>428.60000610352</ele>
        <time>2022-09-10T09:12:14.000Z</time>
      </trkpt>
      <trkpt lat="43.85287" lon="7.60523">
        <ele>429.39999389648</ele>
        <time>2022-09-10T09:12:18.000Z</time>
      </trkpt>
      <trkpt lat="43.85292" lon="7.60524">
        <ele>429.60000610352</ele>
        <time>2022-09-10T09:12:20.000Z</time>
      </trkpt>
      <trkpt lat="43.85301" lon="7.60525">
        <ele>430.39999389648</ele>
        <time>2022-09-10T09:12:24.000Z</time>
      </trkpt>
      <trkpt lat="43.85312" lon="7.60528">
        <ele>431</ele>
        <time>2022-09-10T09:12:29.000Z</time>
      </trkpt>
      <trkpt lat="43.8532" lon="7.60531">
        <ele>431.60000610352</ele>
        <time>2022-09-10T09:12:33.000Z</time>
      </trkpt>
      <trkpt lat="43.85328" lon="7.60536">
        <ele>432.39999389648</ele>
        <time>2022-09-10T09:12:37.000Z</time>
      </trkpt>
      <trkpt lat="43.8533" lon="7.60536">
        <ele>432.60000610352</ele>
        <time>2022-09-10T09:12:38.000Z</time>
      </trkpt>
      <trkpt lat="43.85344" lon="7.60542">
        <ele>433.60000610352</ele>
        <time>2022-09-10T09:12:44.000Z</time>
      </trkpt>
      <trkpt lat="43.85356" lon="7.60549">
        <ele>434.79998779297</ele>
        <time>2022-09-10T09:12:50.000Z</time>
      </trkpt>
      <trkpt lat="43.85358" lon="7.60551">
        <ele>434.79998779297</ele>
        <time>2022-09-10T09:12:51.000Z</time>
      </trkpt>
      <trkpt lat="43.85372" lon="7.60561">
        <ele>435.79998779297</ele>
        <time>2022-09-10T09:12:58.000Z</time>
      </trkpt>
      <trkpt lat="43.85378" lon="7.60566">
        <ele>436.20001220703</ele>
        <time>2022-09-10T09:13:01.000Z</time>
      </trkpt>
      <trkpt lat="43.85387" lon="7.60573">
        <ele>436.79998779297</ele>
        <time>2022-09-10T09:13:05.000Z</time>
      </trkpt>
      <trkpt lat="43.85402" lon="7.60584">
        <ele>437.79998779297</ele>
        <time>2022-09-10T09:13:12.000Z</time>
      </trkpt>
      <trkpt lat="43.85404" lon="7.60585">
        <ele>438</ele>
        <time>2022-09-10T09:13:13.000Z</time>
      </trkpt>
      <trkpt lat="43.85413" lon="7.60593">
        <ele>439</ele>
        <time>2022-09-10T09:13:18.000Z</time>
      </trkpt>
      <trkpt lat="43.85429" lon="7.60596">
        <ele>440</ele>
        <time>2022-09-10T09:13:25.000Z</time>
      </trkpt>
      <trkpt lat="43.85443" lon="7.60591">
        <ele>441.20001220703</ele>
        <time>2022-09-10T09:13:31.000Z</time>
      </trkpt>
      <trkpt lat="43.85455" lon="7.6058">
        <ele>442.20001220703</ele>
        <time>2022-09-10T09:13:37.000Z</time>
      </trkpt>
      <trkpt lat="43.85457" lon="7.60578">
        <ele>442.39999389648</ele>
        <time>2022-09-10T09:13:38.000Z</time>
      </trkpt>
      <trkpt lat="43.8547" lon="7.60567">
        <ele>443.20001220703</ele>
        <time>2022-09-10T09:13:44.000Z</time>
      </trkpt>
      <trkpt lat="43.85479" lon="7.60562">
        <ele>443.79998779297</ele>
        <time>2022-09-10T09:13:48.000Z</time>
      </trkpt>
      <trkpt lat="43.85487" lon="7.60558">
        <ele>444.39999389648</ele>
        <time>2022-09-10T09:13:51.000Z</time>
      </trkpt>
      <trkpt lat="43.85504" lon="7.60551">
        <ele>445.39999389648</ele>
        <time>2022-09-10T09:13:58.000Z</time>
      </trkpt>
      <trkpt lat="43.85528" lon="7.60543">
        <ele>446.60000610352</ele>
        <time>2022-09-10T09:14:07.000Z</time>
      </trkpt>
      <trkpt lat="43.8553" lon="7.60542">
        <ele>446.79998779297</ele>
        <time>2022-09-10T09:14:08.000Z</time>
      </trkpt>
      <trkpt lat="43.85552" lon="7.60539">
        <ele>447.60000610352</ele>
        <time>2022-09-10T09:14:16.000Z</time>
      </trkpt>
      <trkpt lat="43.85554" lon="7.60538">
        <ele>447.79998779297</ele>
        <time>2022-09-10T09:14:17.000Z</time>
      </trkpt>
      <trkpt lat="43.85572" lon="7.60536">
        <ele>448.60000610352</ele>
        <time>2022-09-10T09:14:24.000Z</time>
      </trkpt>
      <trkpt lat="43.8558" lon="7.60535">
        <ele>449.20001220703</ele>
        <time>2022-09-10T09:14:27.000Z</time>
      </trkpt>
      <trkpt lat="43.85587" lon="7.60534">
        <ele>449.60000610352</ele>
        <time>2022-09-10T09:14:30.000Z</time>
      </trkpt>
      <trkpt lat="43.85604" lon="7.6053">
        <ele>450.39999389648</ele>
        <time>2022-09-10T09:14:37.000Z</time>
      </trkpt>
      <trkpt lat="43.85615" lon="7.60531">
        <ele>450.79998779297</ele>
        <time>2022-09-10T09:14:41.000Z</time>
      </trkpt>
      <trkpt lat="43.85622" lon="7.60534">
        <ele>451.39999389648</ele>
        <time>2022-09-10T09:14:44.000Z</time>
      </trkpt>
      <trkpt lat="43.85627" lon="7.60536">
        <ele>451.79998779297</ele>
        <time>2022-09-10T09:14:46.000Z</time>
      </trkpt>
      <trkpt lat="43.85644" lon="7.60546">
        <ele>452.39999389648</ele>
        <time>2022-09-10T09:14:53.000Z</time>
      </trkpt>
      <trkpt lat="43.85655" lon="7.60554">
        <ele>452.79998779297</ele>
        <time>2022-09-10T09:14:58.000Z</time>
      </trkpt>
      <trkpt lat="43.85659" lon="7.60558">
        <ele>453.20001220703</ele>
        <time>2022-09-10T09:15:00.000Z</time>
      </trkpt>
      <trkpt lat="43.85667" lon="7.60569">
        <ele>453.79998779297</ele>
        <time>2022-09-10T09:15:04.000Z</time>
      </trkpt>
      <trkpt lat="43.8567" lon="7.60578">
        <ele>454.39999389648</ele>
        <time>2022-09-10T09:15:07.000Z</time>
      </trkpt>
      <trkpt lat="43.85673" lon="7.60592">
        <ele>455</ele>
        <time>2022-09-10T09:15:11.000Z</time>
      </trkpt>
      <trkpt lat="43.85673" lon="7.60603">
        <ele>455.39999389648</ele>
        <time>2022-09-10T09:15:14.000Z</time>
      </trkpt>
      <trkpt lat="43.85673" lon="7.60621">
        <ele>456.20001220703</ele>
        <time>2022-09-10T09:15:19.000Z</time>
      </trkpt>
      <trkpt lat="43.85671" lon="7.60645">
        <ele>457.20001220703</ele>
        <time>2022-09-10T09:15:26.000Z</time>
      </trkpt>
      <trkpt lat="43.85671" lon="7.60649">
        <ele>457.20001220703</ele>
        <time>2022-09-10T09:15:27.000Z</time>
      </trkpt>
      <trkpt lat="43.85674" lon="7.60668">
        <ele>457.79998779297</ele>
        <time>2022-09-10T09:15:33.000Z</time>
      </trkpt>
      <trkpt lat="43.85679" lon="7.60677">
        <ele>458.39999389648</ele>
        <time>2022-09-10T09:15:36.000Z</time>
      </trkpt>
      <trkpt lat="43.85689" lon="7.60691">
        <ele>459.39999389648</ele>
        <time>2022-09-10T09:15:41.000Z</time>
      </trkpt>
      <trkpt lat="43.85693" lon="7.60696">
        <ele>459.60000610352</ele>
        <time>2022-09-10T09:15:43.000Z</time>
      </trkpt>
      <trkpt lat="43.85706" lon="7.60715">
        <ele>460.39999389648</ele>
        <time>2022-09-10T09:15:50.000Z</time>
      </trkpt>
      <trkpt lat="43.8571" lon="7.6072">
        <ele>460.60000610352</ele>
        <time>2022-09-10T09:15:52.000Z</time>
      </trkpt>
      <trkpt lat="43.85721" lon="7.60736">
        <ele>461.79998779297</ele>
        <time>2022-09-10T09:15:58.000Z</time>
      </trkpt>
      <trkpt lat="43.85725" lon="7.60741">
        <ele>462</ele>
        <time>2022-09-10T09:16:00.000Z</time>
      </trkpt>
      <trkpt lat="43.85742" lon="7.60766">
        <ele>462.79998779297</ele>
        <time>2022-09-10T09:16:09.000Z</time>
      </trkpt>
      <trkpt lat="43.85746" lon="7.60771">
        <ele>463.20001220703</ele>
        <time>2022-09-10T09:16:11.000Z</time>
      </trkpt>
      <trkpt lat="43.85757" lon="7.60792">
        <ele>464</ele>
        <time>2022-09-10T09:16:18.000Z</time>
      </trkpt>
      <trkpt lat="43.85759" lon="7.60795">
        <ele>464.20001220703</ele>
        <time>2022-09-10T09:16:19.000Z</time>
      </trkpt>
      <trkpt lat="43.85774" lon="7.60823">
        <ele>465</ele>
        <time>2022-09-10T09:16:28.000Z</time>
      </trkpt>
      <trkpt lat="43.85776" lon="7.60826">
        <ele>465.20001220703</ele>
        <time>2022-09-10T09:16:29.000Z</time>
      </trkpt>
      <trkpt lat="43.85784" lon="7.6084">
        <ele>466</ele>
        <time>2022-09-10T09:16:34.000Z</time>
      </trkpt>
      <trkpt lat="43.85789" lon="7.60844">
        <ele>466.39999389648</ele>
        <time>2022-09-10T09:16:36.000Z</time>
      </trkpt>
      <trkpt lat="43.85802" lon="7.60846">
        <ele>466.79998779297</ele>
        <time>2022-09-10T09:16:41.000Z</time>
      </trkpt>
      <trkpt lat="43.85813" lon="7.60844">
        <ele>467.20001220703</ele>
        <time>2022-09-10T09:16:45.000Z</time>
      </trkpt>
      <trkpt lat="43.85827" lon="7.6084">
        <ele>468</ele>
        <time>2022-09-10T09:16:50.000Z</time>
      </trkpt>
      <trkpt lat="43.85833" lon="7.60839">
        <ele>468.20001220703</ele>
        <time>2022-09-10T09:16:52.000Z</time>
      </trkpt>
      <trkpt lat="43.85861" lon="7.60832">
        <ele>469.39999389648</ele>
        <time>2022-09-10T09:17:02.000Z</time>
      </trkpt>
      <trkpt lat="43.85863" lon="7.60832">
        <ele>469.39999389648</ele>
        <time>2022-09-10T09:17:03.000Z</time>
      </trkpt>
      <trkpt lat="43.85887" lon="7.60829">
        <ele>470.39999389648</ele>
        <time>2022-09-10T09:17:11.000Z</time>
      </trkpt>
      <trkpt lat="43.8589" lon="7.60828">
        <ele>470.39999389648</ele>
        <time>2022-09-10T09:17:12.000Z</time>
      </trkpt>
      <trkpt lat="43.85915" lon="7.60828">
        <ele>471.39999389648</ele>
        <time>2022-09-10T09:17:21.000Z</time>
      </trkpt>
      <trkpt lat="43.85921" lon="7.60827">
        <ele>471.60000610352</ele>
        <time>2022-09-10T09:17:23.000Z</time>
      </trkpt>
      <trkpt lat="43.85943" lon="7.60821">
        <ele>472.39999389648</ele>
        <time>2022-09-10T09:17:31.000Z</time>
      </trkpt>
      <trkpt lat="43.85946" lon="7.60819">
        <ele>472.39999389648</ele>
        <time>2022-09-10T09:17:32.000Z</time>
      </trkpt>
      <trkpt lat="43.85969" lon="7.60804">
        <ele>473.60000610352</ele>
        <time>2022-09-10T09:17:41.000Z</time>
      </trkpt>
      <trkpt lat="43.8599" lon="7.60793">
        <ele>474.39999389648</ele>
        <time>2022-09-10T09:17:49.000Z</time>
      </trkpt>
      <trkpt lat="43.85995" lon="7.60791">
        <ele>474.60000610352</ele>
        <time>2022-09-10T09:17:51.000Z</time>
      </trkpt>
      <trkpt lat="43.8601" lon="7.60782">
        <ele>475</ele>
        <time>2022-09-10T09:17:57.000Z</time>
      </trkpt>
      <trkpt lat="43.86016" lon="7.60771">
        <ele>475.60000610352</ele>
        <time>2022-09-10T09:18:01.000Z</time>
      </trkpt>
      <trkpt lat="43.86017" lon="7.60767">
        <ele>475.79998779297</ele>
        <time>2022-09-10T09:18:02.000Z</time>
      </trkpt>
      <trkpt lat="43.86015" lon="7.60746">
        <ele>476.60000610352</ele>
        <time>2022-09-10T09:18:08.000Z</time>
      </trkpt>
      <trkpt lat="43.86015" lon="7.60729">
        <ele>477.39999389648</ele>
        <time>2022-09-10T09:18:13.000Z</time>
      </trkpt>
      <trkpt lat="43.86017" lon="7.60717">
        <ele>477.79998779297</ele>
        <time>2022-09-10T09:18:16.000Z</time>
      </trkpt>
      <trkpt lat="43.8602" lon="7.607">
        <ele>478.39999389648</ele>
        <time>2022-09-10T09:18:21.000Z</time>
      </trkpt>
      <trkpt lat="43.86023" lon="7.60683">
        <ele>478.79998779297</ele>
        <time>2022-09-10T09:18:26.000Z</time>
      </trkpt>
      <trkpt lat="43.86025" lon="7.60672">
        <ele>479</ele>
        <time>2022-09-10T09:18:29.000Z</time>
      </trkpt>
      <trkpt lat="43.86027" lon="7.60647">
        <ele>479.60000610352</ele>
        <time>2022-09-10T09:18:36.000Z</time>
      </trkpt>
      <trkpt lat="43.8603" lon="7.60636">
        <ele>479.79998779297</ele>
        <time>2022-09-10T09:18:39.000Z</time>
      </trkpt>
      <trkpt lat="43.86035" lon="7.60626">
        <ele>480</ele>
        <time>2022-09-10T09:18:42.000Z</time>
      </trkpt>
      <trkpt lat="43.86053" lon="7.60609">
        <ele>480.39999389648</ele>
        <time>2022-09-10T09:18:49.000Z</time>
      </trkpt>
      <trkpt lat="43.86069" lon="7.60593">
        <ele>480.79998779297</ele>
        <time>2022-09-10T09:18:56.000Z</time>
      </trkpt>
      <trkpt lat="43.86074" lon="7.60589">
        <ele>481</ele>
        <time>2022-09-10T09:18:58.000Z</time>
      </trkpt>
      <trkpt lat="43.86086" lon="7.60578">
        <ele>481.20001220703</ele>
        <time>2022-09-10T09:19:03.000Z</time>
      </trkpt>
      <trkpt lat="43.86102" lon="7.60563">
        <ele>481.79998779297</ele>
        <time>2022-09-10T09:19:10.000Z</time>
      </trkpt>
      <trkpt lat="43.86104" lon="7.60561">
        <ele>482</ele>
        <time>2022-09-10T09:19:11.000Z</time>
      </trkpt>
      <trkpt lat="43.86123" lon="7.60545">
        <ele>483</ele>
        <time>2022-09-10T09:19:19.000Z</time>
      </trkpt>
      <trkpt lat="43.86125" lon="7.60543">
        <ele>483</ele>
        <time>2022-09-10T09:19:20.000Z</time>
      </trkpt>
      <trkpt lat="43.86142" lon="7.60524">
        <ele>484</ele>
        <time>2022-09-10T09:19:28.000Z</time>
      </trkpt>
      <trkpt lat="43.86144" lon="7.60521">
        <ele>484</ele>
        <time>2022-09-10T09:19:29.000Z</time>
      </trkpt>
      <trkpt lat="43.86156" lon="7.60507">
        <ele>484.79998779297</ele>
        <time>2022-09-10T09:19:35.000Z</time>
      </trkpt>
      <trkpt lat="43.86163" lon="7.605">
        <ele>485.20001220703</ele>
        <time>2022-09-10T09:19:38.000Z</time>
      </trkpt>
      <trkpt lat="43.86177" lon="7.60487">
        <ele>485.79998779297</ele>
        <time>2022-09-10T09:19:44.000Z</time>
      </trkpt>
      <trkpt lat="43.86195" lon="7.60471">
        <ele>486.20001220703</ele>
        <time>2022-09-10T09:19:52.000Z</time>
      </trkpt>
      <trkpt lat="43.862" lon="7.60466">
        <ele>486.20001220703</ele>
        <time>2022-09-10T09:19:56.000Z</time>
      </trkpt>
      <trkpt lat="43.86201" lon="7.60465">
        <ele>486.39999389648</ele>
        <time>2022-09-10T09:19:57.000Z</time>
      </trkpt>
      <trkpt lat="43.86206" lon="7.60457">
        <ele>486.60000610352</ele>
        <time>2022-09-10T09:20:04.000Z</time>
      </trkpt>
      <trkpt lat="43.86215" lon="7.60446">
        <ele>487</ele>
        <time>2022-09-10T09:20:11.000Z</time>
      </trkpt>
      <trkpt lat="43.86219" lon="7.60442">
        <ele>487.20001220703</ele>
        <time>2022-09-10T09:20:14.000Z</time>
      </trkpt>
      <trkpt lat="43.86228" lon="7.60434">
        <ele>487.39999389648</ele>
        <time>2022-09-10T09:20:19.000Z</time>
      </trkpt>
      <trkpt lat="43.86245" lon="7.60423">
        <ele>488.20001220703</ele>
        <time>2022-09-10T09:20:27.000Z</time>
      </trkpt>
      <trkpt lat="43.86248" lon="7.60422">
        <ele>488.20001220703</ele>
        <time>2022-09-10T09:20:28.000Z</time>
      </trkpt>
      <trkpt lat="43.86264" lon="7.60421">
        <ele>488.39999389648</ele>
        <time>2022-09-10T09:20:34.000Z</time>
      </trkpt>
      <trkpt lat="43.86282" lon="7.60421">
        <ele>488.60000610352</ele>
        <time>2022-09-10T09:20:41.000Z</time>
      </trkpt>
      <trkpt lat="43.86301" lon="7.60414">
        <ele>489</ele>
        <time>2022-09-10T09:20:48.000Z</time>
      </trkpt>
      <trkpt lat="43.86305" lon="7.60411">
        <ele>489.20001220703</ele>
        <time>2022-09-10T09:20:50.000Z</time>
      </trkpt>
      <trkpt lat="43.8632" lon="7.604">
        <ele>490</ele>
        <time>2022-09-10T09:20:56.000Z</time>
      </trkpt>
      <trkpt lat="43.86325" lon="7.60397">
        <ele>490.39999389648</ele>
        <time>2022-09-10T09:20:58.000Z</time>
      </trkpt>
      <trkpt lat="43.86343" lon="7.60386">
        <ele>491.39999389648</ele>
        <time>2022-09-10T09:21:05.000Z</time>
      </trkpt>
      <trkpt lat="43.8636" lon="7.60376">
        <ele>492.60000610352</ele>
        <time>2022-09-10T09:21:12.000Z</time>
      </trkpt>
      <trkpt lat="43.86365" lon="7.60374">
        <ele>492.79998779297</ele>
        <time>2022-09-10T09:21:14.000Z</time>
      </trkpt>
      <trkpt lat="43.86375" lon="7.60371">
        <ele>493.60000610352</ele>
        <time>2022-09-10T09:21:18.000Z</time>
      </trkpt>
      <trkpt lat="43.86384" lon="7.60368">
        <ele>494.39999389648</ele>
        <time>2022-09-10T09:21:22.000Z</time>
      </trkpt>
      <trkpt lat="43.86389" lon="7.60366">
        <ele>494.60000610352</ele>
        <time>2022-09-10T09:21:24.000Z</time>
      </trkpt>
      <trkpt lat="43.86404" lon="7.60361">
        <ele>495.20001220703</ele>
        <time>2022-09-10T09:21:30.000Z</time>
      </trkpt>
      <trkpt lat="43.86412" lon="7.60358">
        <ele>495.79998779297</ele>
        <time>2022-09-10T09:21:34.000Z</time>
      </trkpt>
      <trkpt lat="43.86419" lon="7.60356">
        <ele>496.39999389648</ele>
        <time>2022-09-10T09:21:37.000Z</time>
      </trkpt>
      <trkpt lat="43.86428" lon="7.60353">
        <ele>497</ele>
        <time>2022-09-10T09:21:41.000Z</time>
      </trkpt>
      <trkpt lat="43.86432" lon="7.60352">
        <ele>497.39999389648</ele>
        <time>2022-09-10T09:21:43.000Z</time>
      </trkpt>
      <trkpt lat="43.86442" lon="7.60348">
        <ele>498.20001220703</ele>
        <time>2022-09-10T09:21:47.000Z</time>
      </trkpt>
      <trkpt lat="43.86447" lon="7.60346">
        <ele>498.39999389648</ele>
        <time>2022-09-10T09:21:49.000Z</time>
      </trkpt>
      <trkpt lat="43.86457" lon="7.60339">
        <ele>499.20001220703</ele>
        <time>2022-09-10T09:21:54.000Z</time>
      </trkpt>
      <trkpt lat="43.86459" lon="7.60336">
        <ele>499.20001220703</ele>
        <time>2022-09-10T09:21:55.000Z</time>
      </trkpt>
      <trkpt lat="43.8646" lon="7.60319">
        <ele>499.60000610352</ele>
        <time>2022-09-10T09:22:00.000Z</time>
      </trkpt>
      <trkpt lat="43.86453" lon="7.60302">
        <ele>500.20001220703</ele>
        <time>2022-09-10T09:22:05.000Z</time>
      </trkpt>
      <trkpt lat="43.8645" lon="7.60295">
        <ele>500.60000610352</ele>
        <time>2022-09-10T09:22:07.000Z</time>
      </trkpt>
      <trkpt lat="43.86442" lon="7.60276">
        <ele>501.39999389648</ele>
        <time>2022-09-10T09:22:13.000Z</time>
      </trkpt>
      <trkpt lat="43.8644" lon="7.60273">
        <ele>501.39999389648</ele>
        <time>2022-09-10T09:22:14.000Z</time>
      </trkpt>
      <trkpt lat="43.86432" lon="7.60247">
        <ele>502.20001220703</ele>
        <time>2022-09-10T09:22:21.000Z</time>
      </trkpt>
      <trkpt lat="43.86432" lon="7.60243">
        <ele>502.39999389648</ele>
        <time>2022-09-10T09:22:22.000Z</time>
      </trkpt>
      <trkpt lat="43.86435" lon="7.60221">
        <ele>503</ele>
        <time>2022-09-10T09:22:27.000Z</time>
      </trkpt>
      <trkpt lat="43.86439" lon="7.60202">
        <ele>503.39999389648</ele>
        <time>2022-09-10T09:22:32.000Z</time>
      </trkpt>
      <trkpt lat="43.86441" lon="7.60194">
        <ele>503.60000610352</ele>
        <time>2022-09-10T09:22:34.000Z</time>
      </trkpt>
      <trkpt lat="43.86454" lon="7.60171">
        <ele>503.79998779297</ele>
        <time>2022-09-10T09:22:41.000Z</time>
      </trkpt>
      <trkpt lat="43.86473" lon="7.60156">
        <ele>504.20001220703</ele>
        <time>2022-09-10T09:22:48.000Z</time>
      </trkpt>
      <trkpt lat="43.86479" lon="7.60153">
        <ele>504.39999389648</ele>
        <time>2022-09-10T09:22:50.000Z</time>
      </trkpt>
      <trkpt lat="43.86496" lon="7.60145">
        <ele>505</ele>
        <time>2022-09-10T09:22:56.000Z</time>
      </trkpt>
      <trkpt lat="43.86516" lon="7.60131">
        <ele>505.60000610352</ele>
        <time>2022-09-10T09:23:03.000Z</time>
      </trkpt>
      <trkpt lat="43.86518" lon="7.60128">
        <ele>505.60000610352</ele>
        <time>2022-09-10T09:23:04.000Z</time>
      </trkpt>
      <trkpt lat="43.86536" lon="7.60112">
        <ele>506.39999389648</ele>
        <time>2022-09-10T09:23:11.000Z</time>
      </trkpt>
      <trkpt lat="43.86539" lon="7.60111">
        <ele>506.60000610352</ele>
        <time>2022-09-10T09:23:12.000Z</time>
      </trkpt>
      <trkpt lat="43.86561" lon="7.60102">
        <ele>507.60000610352</ele>
        <time>2022-09-10T09:23:20.000Z</time>
      </trkpt>
      <trkpt lat="43.86564" lon="7.60101">
        <ele>507.79998779297</ele>
        <time>2022-09-10T09:23:21.000Z</time>
      </trkpt>
      <trkpt lat="43.86586" lon="7.60091">
        <ele>508.60000610352</ele>
        <time>2022-09-10T09:23:29.000Z</time>
      </trkpt>
      <trkpt lat="43.86589" lon="7.60088">
        <ele>508.79998779297</ele>
        <time>2022-09-10T09:23:30.000Z</time>
      </trkpt>
      <trkpt lat="43.86597" lon="7.60071">
        <ele>509.39999389648</ele>
        <time>2022-09-10T09:23:35.000Z</time>
      </trkpt>
      <trkpt lat="43.86603" lon="7.60053">
        <ele>509.79998779297</ele>
        <time>2022-09-10T09:23:40.000Z</time>
      </trkpt>
      <trkpt lat="43.86607" lon="7.60045">
        <ele>510.20001220703</ele>
        <time>2022-09-10T09:23:42.000Z</time>
      </trkpt>
      <trkpt lat="43.86616" lon="7.60029">
        <ele>511</ele>
        <time>2022-09-10T09:23:47.000Z</time>
      </trkpt>
      <trkpt lat="43.86622" lon="7.6002">
        <ele>511.20001220703</ele>
        <time>2022-09-10T09:23:50.000Z</time>
      </trkpt>
      <trkpt lat="43.86633" lon="7.60001">
        <ele>512</ele>
        <time>2022-09-10T09:23:56.000Z</time>
      </trkpt>
      <trkpt lat="43.86642" lon="7.59975">
        <ele>512.79998779297</ele>
        <time>2022-09-10T09:24:03.000Z</time>
      </trkpt>
      <trkpt lat="43.86648" lon="7.59966">
        <ele>513.20001220703</ele>
        <time>2022-09-10T09:24:06.000Z</time>
      </trkpt>
      <trkpt lat="43.86655" lon="7.59959">
        <ele>513.59997558594</ele>
        <time>2022-09-10T09:24:09.000Z</time>
      </trkpt>
      <trkpt lat="43.86671" lon="7.59945">
        <ele>514.20001220703</ele>
        <time>2022-09-10T09:24:16.000Z</time>
      </trkpt>
      <trkpt lat="43.86673" lon="7.59942">
        <ele>514.20001220703</ele>
        <time>2022-09-10T09:24:17.000Z</time>
      </trkpt>
      <trkpt lat="43.86686" lon="7.59925">
        <ele>515</ele>
        <time>2022-09-10T09:24:24.000Z</time>
      </trkpt>
      <trkpt lat="43.8669" lon="7.5992">
        <ele>515.20001220703</ele>
        <time>2022-09-10T09:24:26.000Z</time>
      </trkpt>
      <trkpt lat="43.86702" lon="7.59906">
        <ele>515.79998779297</ele>
        <time>2022-09-10T09:24:32.000Z</time>
      </trkpt>
      <trkpt lat="43.86713" lon="7.59898">
        <ele>516.20001220703</ele>
        <time>2022-09-10T09:24:37.000Z</time>
      </trkpt>
      <trkpt lat="43.86715" lon="7.59897">
        <ele>516.40002441406</ele>
        <time>2022-09-10T09:24:38.000Z</time>
      </trkpt>
      <trkpt lat="43.86729" lon="7.59901">
        <ele>516.59997558594</ele>
        <time>2022-09-10T09:24:43.000Z</time>
      </trkpt>
      <trkpt lat="43.86752" lon="7.5991">
        <ele>517</ele>
        <time>2022-09-10T09:24:52.000Z</time>
      </trkpt>
      <trkpt lat="43.86764" lon="7.59914">
        <ele>517.40002441406</ele>
        <time>2022-09-10T09:24:56.000Z</time>
      </trkpt>
      <trkpt lat="43.86767" lon="7.59915">
        <ele>517.40002441406</ele>
        <time>2022-09-10T09:24:57.000Z</time>
      </trkpt>
      <trkpt lat="43.8679" lon="7.59918">
        <ele>517.79998779297</ele>
        <time>2022-09-10T09:25:05.000Z</time>
      </trkpt>
      <trkpt lat="43.86814" lon="7.5991">
        <ele>518.40002441406</ele>
        <time>2022-09-10T09:25:13.000Z</time>
      </trkpt>
      <trkpt lat="43.86817" lon="7.59909">
        <ele>518.40002441406</ele>
        <time>2022-09-10T09:25:14.000Z</time>
      </trkpt>
      <trkpt lat="43.86838" lon="7.59907">
        <ele>519</ele>
        <time>2022-09-10T09:25:21.000Z</time>
      </trkpt>
      <trkpt lat="43.86853" lon="7.59922">
        <ele>519.40002441406</ele>
        <time>2022-09-10T09:25:27.000Z</time>
      </trkpt>
      <trkpt lat="43.86855" lon="7.59925">
        <ele>519.59997558594</ele>
        <time>2022-09-10T09:25:28.000Z</time>
      </trkpt>
      <trkpt lat="43.86876" lon="7.5995">
        <ele>519.79998779297</ele>
        <time>2022-09-10T09:25:37.000Z</time>
      </trkpt>
      <trkpt lat="43.86897" lon="7.5996">
        <ele>520.59997558594</ele>
        <time>2022-09-10T09:25:44.000Z</time>
      </trkpt>
      <trkpt lat="43.86924" lon="7.59971">
        <ele>521.20001220703</ele>
        <time>2022-09-10T09:25:53.000Z</time>
      </trkpt>
      <trkpt lat="43.86939" lon="7.59976">
        <ele>521.59997558594</ele>
        <time>2022-09-10T09:25:58.000Z</time>
      </trkpt>
      <trkpt lat="43.8696" lon="7.59982">
        <ele>522</ele>
        <time>2022-09-10T09:26:05.000Z</time>
      </trkpt>
      <trkpt lat="43.86974" lon="7.59973">
        <ele>522.40002441406</ele>
        <time>2022-09-10T09:26:10.000Z</time>
      </trkpt>
      <trkpt lat="43.86981" lon="7.59954">
        <ele>522.59997558594</ele>
        <time>2022-09-10T09:26:15.000Z</time>
      </trkpt>
      <trkpt lat="43.86982" lon="7.5995">
        <ele>522.79998779297</ele>
        <time>2022-09-10T09:26:16.000Z</time>
      </trkpt>
      <trkpt lat="43.86985" lon="7.59924">
        <ele>523.20001220703</ele>
        <time>2022-09-10T09:26:22.000Z</time>
      </trkpt>
      <trkpt lat="43.86994" lon="7.59904">
        <ele>523.40002441406</ele>
        <time>2022-09-10T09:26:28.000Z</time>
      </trkpt>
      <trkpt lat="43.87007" lon="7.59901">
        <ele>523.59997558594</ele>
        <time>2022-09-10T09:26:32.000Z</time>
      </trkpt>
      <trkpt lat="43.87014" lon="7.59902">
        <ele>523.79998779297</ele>
        <time>2022-09-10T09:26:34.000Z</time>
      </trkpt>
      <trkpt lat="43.87029" lon="7.59904">
        <ele>523.79998779297</ele>
        <time>2022-09-10T09:26:39.000Z</time>
      </trkpt>
      <trkpt lat="43.87054" lon="7.59903">
        <ele>524.40002441406</ele>
        <time>2022-09-10T09:26:47.000Z</time>
      </trkpt>
      <trkpt lat="43.87065" lon="7.59888">
        <ele>524.79998779297</ele>
        <time>2022-09-10T09:26:52.000Z</time>
      </trkpt>
      <trkpt lat="43.87067" lon="7.59885">
        <ele>525</ele>
        <time>2022-09-10T09:26:53.000Z</time>
      </trkpt>
      <trkpt lat="43.87082" lon="7.59873">
        <ele>525.40002441406</ele>
        <time>2022-09-10T09:26:59.000Z</time>
      </trkpt>
      <trkpt lat="43.87101" lon="7.59873">
        <ele>525.59997558594</ele>
        <time>2022-09-10T09:27:05.000Z</time>
      </trkpt>
      <trkpt lat="43.87117" lon="7.59871">
        <ele>525.79998779297</ele>
        <time>2022-09-10T09:27:10.000Z</time>
      </trkpt>
      <trkpt lat="43.87124" lon="7.5987">
        <ele>526</ele>
        <time>2022-09-10T09:27:12.000Z</time>
      </trkpt>
      <trkpt lat="43.87146" lon="7.59872">
        <ele>526</ele>
        <time>2022-09-10T09:27:19.000Z</time>
      </trkpt>
      <trkpt lat="43.87168" lon="7.59871">
        <ele>526</ele>
        <time>2022-09-10T09:27:26.000Z</time>
      </trkpt>
      <trkpt lat="43.87185" lon="7.5986">
        <ele>526.20001220703</ele>
        <time>2022-09-10T09:27:32.000Z</time>
      </trkpt>
      <trkpt lat="43.87193" lon="7.59844">
        <ele>526.40002441406</ele>
        <time>2022-09-10T09:27:37.000Z</time>
      </trkpt>
      <trkpt lat="43.87196" lon="7.59835">
        <ele>527</ele>
        <time>2022-09-10T09:27:40.000Z</time>
      </trkpt>
      <trkpt lat="43.87199" lon="7.59829">
        <ele>527.20001220703</ele>
        <time>2022-09-10T09:27:42.000Z</time>
      </trkpt>
      <trkpt lat="43.87207" lon="7.59817">
        <ele>527.59997558594</ele>
        <time>2022-09-10T09:27:47.000Z</time>
      </trkpt>
      <trkpt lat="43.87215" lon="7.59804">
        <ele>528</ele>
        <time>2022-09-10T09:27:52.000Z</time>
      </trkpt>
      <trkpt lat="43.87219" lon="7.59799">
        <ele>527.59997558594</ele>
        <time>2022-09-10T09:27:54.000Z</time>
      </trkpt>
      <trkpt lat="43.87231" lon="7.59784">
        <ele>528.59997558594</ele>
        <time>2022-09-10T09:28:01.000Z</time>
      </trkpt>
      <trkpt lat="43.8724" lon="7.59774">
        <ele>528.79998779297</ele>
        <time>2022-09-10T09:28:06.000Z</time>
      </trkpt>
      <trkpt lat="43.87253" lon="7.59762">
        <ele>529.20001220703</ele>
        <time>2022-09-10T09:28:13.000Z</time>
      </trkpt>
      <trkpt lat="43.87254" lon="7.5976">
        <ele>529.20001220703</ele>
        <time>2022-09-10T09:28:14.000Z</time>
      </trkpt>
      <trkpt lat="43.87261" lon="7.59749">
        <ele>529.40002441406</ele>
        <time>2022-09-10T09:28:21.000Z</time>
      </trkpt>
      <trkpt lat="43.87269" lon="7.5973">
        <ele>530.20001220703</ele>
        <time>2022-09-10T09:28:29.000Z</time>
      </trkpt>
      <trkpt lat="43.87269" lon="7.59728">
        <ele>530.20001220703</ele>
        <time>2022-09-10T09:28:30.000Z</time>
      </trkpt>
      <trkpt lat="43.87271" lon="7.59721">
        <ele>530.40002441406</ele>
        <time>2022-09-10T09:28:34.000Z</time>
      </trkpt>
      <trkpt lat="43.87277" lon="7.59705">
        <ele>531</ele>
        <time>2022-09-10T09:28:42.000Z</time>
      </trkpt>
      <trkpt lat="43.87278" lon="7.59704">
        <ele>531.20001220703</ele>
        <time>2022-09-10T09:28:43.000Z</time>
      </trkpt>
      <trkpt lat="43.87286" lon="7.5969">
        <ele>531.40002441406</ele>
        <time>2022-09-10T09:28:50.000Z</time>
      </trkpt>
      <trkpt lat="43.87291" lon="7.59676">
        <ele>531.79998779297</ele>
        <time>2022-09-10T09:28:57.000Z</time>
      </trkpt>
      <trkpt lat="43.87288" lon="7.59666">
        <ele>532.20001220703</ele>
        <time>2022-09-10T09:29:02.000Z</time>
      </trkpt>
      <trkpt lat="43.87287" lon="7.59662">
        <ele>532.59997558594</ele>
        <time>2022-09-10T09:29:04.000Z</time>
      </trkpt>
      <trkpt lat="43.87276" lon="7.59646">
        <ele>533</ele>
        <time>2022-09-10T09:29:12.000Z</time>
      </trkpt>
      <trkpt lat="43.87272" lon="7.5964">
        <ele>533.40002441406</ele>
        <time>2022-09-10T09:29:15.000Z</time>
      </trkpt>
      <trkpt lat="43.87266" lon="7.59631">
        <ele>533.20001220703</ele>
        <time>2022-09-10T09:29:19.000Z</time>
      </trkpt>
      <trkpt lat="43.87257" lon="7.59611">
        <ele>533.59997558594</ele>
        <time>2022-09-10T09:29:27.000Z</time>
      </trkpt>
      <trkpt lat="43.87249" lon="7.596">
        <ele>534.40002441406</ele>
        <time>2022-09-10T09:29:33.000Z</time>
      </trkpt>
      <trkpt lat="43.87248" lon="7.596">
        <ele>534.59997558594</ele>
        <time>2022-09-10T09:29:34.000Z</time>
      </trkpt>
      <trkpt lat="43.87242" lon="7.59601">
        <ele>535.40002441406</ele>
        <time>2022-09-10T09:29:38.000Z</time>
      </trkpt>
      <trkpt lat="43.87232" lon="7.59606">
        <ele>535.59997558594</ele>
        <time>2022-09-10T09:29:44.000Z</time>
      </trkpt>
      <trkpt lat="43.87228" lon="7.59607">
        <ele>535.79998779297</ele>
        <time>2022-09-10T09:29:46.000Z</time>
      </trkpt>
      <trkpt lat="43.87213" lon="7.59608">
        <ele>536.20001220703</ele>
        <time>2022-09-10T09:29:53.000Z</time>
      </trkpt>
      <trkpt lat="43.87201" lon="7.59603">
        <ele>536.79998779297</ele>
        <time>2022-09-10T09:29:59.000Z</time>
      </trkpt>
      <trkpt lat="43.872" lon="7.59602">
        <ele>537</ele>
        <time>2022-09-10T09:30:00.000Z</time>
      </trkpt>
      <trkpt lat="43.8719" lon="7.59593">
        <ele>537.20001220703</ele>
        <time>2022-09-10T09:30:05.000Z</time>
      </trkpt>
      <trkpt lat="43.87183" lon="7.59583">
        <ele>538</ele>
        <time>2022-09-10T09:30:10.000Z</time>
      </trkpt>
      <trkpt lat="43.87179" lon="7.59579">
        <ele>538.20001220703</ele>
        <time>2022-09-10T09:30:12.000Z</time>
      </trkpt>
      <trkpt lat="43.87171" lon="7.59574">
        <ele>538.79998779297</ele>
        <time>2022-09-10T09:30:17.000Z</time>
      </trkpt>
      <trkpt lat="43.87166" lon="7.59571">
        <ele>539</ele>
        <time>2022-09-10T09:30:20.000Z</time>
      </trkpt>
      <trkpt lat="43.8716" lon="7.59566">
        <ele>539.20001220703</ele>
        <time>2022-09-10T09:30:24.000Z</time>
      </trkpt>
      <trkpt lat="43.87153" lon="7.59555">
        <ele>540</ele>
        <time>2022-09-10T09:30:30.000Z</time>
      </trkpt>
      <trkpt lat="43.87152" lon="7.59553">
        <ele>540.20001220703</ele>
        <time>2022-09-10T09:30:31.000Z</time>
      </trkpt>
      <trkpt lat="43.87149" lon="7.59537">
        <ele>541.20001220703</ele>
        <time>2022-09-10T09:30:38.000Z</time>
      </trkpt>
      <trkpt lat="43.87148" lon="7.59524">
        <ele>541.59997558594</ele>
        <time>2022-09-10T09:30:44.000Z</time>
      </trkpt>
      <trkpt lat="43.87147" lon="7.59508">
        <ele>542</ele>
        <time>2022-09-10T09:30:50.000Z</time>
      </trkpt>
      <trkpt lat="43.87147" lon="7.59505">
        <ele>542.20001220703</ele>
        <time>2022-09-10T09:30:51.000Z</time>
      </trkpt>
      <trkpt lat="43.87147" lon="7.59489">
        <ele>543.20001220703</ele>
        <time>2022-09-10T09:30:57.000Z</time>
      </trkpt>
      <trkpt lat="43.87146" lon="7.59486">
        <ele>543.20001220703</ele>
        <time>2022-09-10T09:30:58.000Z</time>
      </trkpt>
      <trkpt lat="43.87141" lon="7.59474">
        <ele>544.20001220703</ele>
        <time>2022-09-10T09:31:03.000Z</time>
      </trkpt>
      <trkpt lat="43.8714" lon="7.59472">
        <ele>544.40002441406</ele>
        <time>2022-09-10T09:31:04.000Z</time>
      </trkpt>
      <trkpt lat="43.87131" lon="7.59457">
        <ele>545.40002441406</ele>
        <time>2022-09-10T09:31:11.000Z</time>
      </trkpt>
      <trkpt lat="43.87122" lon="7.59451">
        <ele>546.40002441406</ele>
        <time>2022-09-10T09:31:16.000Z</time>
      </trkpt>
      <trkpt lat="43.8712" lon="7.59451">
        <ele>546.40002441406</ele>
        <time>2022-09-10T09:31:17.000Z</time>
      </trkpt>
      <trkpt lat="43.87118" lon="7.5945">
        <ele>546.59997558594</ele>
        <time>2022-09-10T09:31:18.000Z</time>
      </trkpt>
      <trkpt lat="43.87113" lon="7.59444">
        <ele>547.20001220703</ele>
        <time>2022-09-10T09:31:21.000Z</time>
      </trkpt>
      <trkpt lat="43.87111" lon="7.59442">
        <ele>547.40002441406</ele>
        <time>2022-09-10T09:31:22.000Z</time>
      </trkpt>
      <trkpt lat="43.87107" lon="7.59431">
        <ele>547.79998779297</ele>
        <time>2022-09-10T09:31:27.000Z</time>
      </trkpt>
      <trkpt lat="43.87104" lon="7.59424">
        <ele>548.59997558594</ele>
        <time>2022-09-10T09:31:30.000Z</time>
      </trkpt>
      <trkpt lat="43.87099" lon="7.59417">
        <ele>549.40002441406</ele>
        <time>2022-09-10T09:31:34.000Z</time>
      </trkpt>
      <trkpt lat="43.87095" lon="7.59413">
        <ele>549.59997558594</ele>
        <time>2022-09-10T09:31:36.000Z</time>
      </trkpt>
      <trkpt lat="43.8709" lon="7.59404">
        <ele>550.40002441406</ele>
        <time>2022-09-10T09:31:40.000Z</time>
      </trkpt>
      <trkpt lat="43.8709" lon="7.59398">
        <ele>550.79998779297</ele>
        <time>2022-09-10T09:31:42.000Z</time>
      </trkpt>
      <trkpt lat="43.87092" lon="7.59388">
        <ele>551.59997558594</ele>
        <time>2022-09-10T09:31:46.000Z</time>
      </trkpt>
      <trkpt lat="43.87093" lon="7.59386">
        <ele>551.79998779297</ele>
        <time>2022-09-10T09:31:47.000Z</time>
      </trkpt>
      <trkpt lat="43.87098" lon="7.59375">
        <ele>553</ele>
        <time>2022-09-10T09:31:52.000Z</time>
      </trkpt>
      <trkpt lat="43.87098" lon="7.59372">
        <ele>553</ele>
        <time>2022-09-10T09:31:53.000Z</time>
      </trkpt>
      <trkpt lat="43.871" lon="7.59361">
        <ele>554</ele>
        <time>2022-09-10T09:31:57.000Z</time>
      </trkpt>
      <trkpt lat="43.87102" lon="7.59356">
        <ele>554.40002441406</ele>
        <time>2022-09-10T09:31:59.000Z</time>
      </trkpt>
      <trkpt lat="43.87105" lon="7.59343">
        <ele>555.20001220703</ele>
        <time>2022-09-10T09:32:04.000Z</time>
      </trkpt>
      <trkpt lat="43.87107" lon="7.59332">
        <ele>555.59997558594</ele>
        <time>2022-09-10T09:32:08.000Z</time>
      </trkpt>
      <trkpt lat="43.87108" lon="7.59323">
        <ele>556.40002441406</ele>
        <time>2022-09-10T09:32:11.000Z</time>
      </trkpt>
      <trkpt lat="43.87109" lon="7.59311">
        <ele>557</ele>
        <time>2022-09-10T09:32:15.000Z</time>
      </trkpt>
      <trkpt lat="43.87109" lon="7.59308">
        <ele>557.40002441406</ele>
        <time>2022-09-10T09:32:16.000Z</time>
      </trkpt>
      <trkpt lat="43.87106" lon="7.59293">
        <ele>557.79998779297</ele>
        <time>2022-09-10T09:32:21.000Z</time>
      </trkpt>
      <trkpt lat="43.87105" lon="7.59283">
        <ele>558.40002441406</ele>
        <time>2022-09-10T09:32:25.000Z</time>
      </trkpt>
      <trkpt lat="43.87105" lon="7.59277">
        <ele>558.79998779297</ele>
        <time>2022-09-10T09:32:27.000Z</time>
      </trkpt>
      <trkpt lat="43.87108" lon="7.5926">
        <ele>559.40002441406</ele>
        <time>2022-09-10T09:32:33.000Z</time>
      </trkpt>
      <trkpt lat="43.87109" lon="7.59258">
        <ele>559.59997558594</ele>
        <time>2022-09-10T09:32:34.000Z</time>
      </trkpt>
      <trkpt lat="43.87115" lon="7.59237">
        <ele>560.40002441406</ele>
        <time>2022-09-10T09:32:41.000Z</time>
      </trkpt>
      <trkpt lat="43.87115" lon="7.59234">
        <ele>560.40002441406</ele>
        <time>2022-09-10T09:32:42.000Z</time>
      </trkpt>
      <trkpt lat="43.87115" lon="7.59219">
        <ele>561.40002441406</ele>
        <time>2022-09-10T09:32:47.000Z</time>
      </trkpt>
      <trkpt lat="43.87114" lon="7.59216">
        <ele>561.59997558594</ele>
        <time>2022-09-10T09:32:48.000Z</time>
      </trkpt>
      <trkpt lat="43.87108" lon="7.59206">
        <ele>562.79998779297</ele>
        <time>2022-09-10T09:32:52.000Z</time>
      </trkpt>
      <trkpt lat="43.87105" lon="7.59201">
        <ele>563.20001220703</ele>
        <time>2022-09-10T09:32:54.000Z</time>
      </trkpt>
      <trkpt lat="43.87094" lon="7.59192">
        <ele>564</ele>
        <time>2022-09-10T09:33:00.000Z</time>
      </trkpt>
      <trkpt lat="43.8709" lon="7.59191">
        <ele>564.40002441406</ele>
        <time>2022-09-10T09:33:02.000Z</time>
      </trkpt>
      <trkpt lat="43.87079" lon="7.5919">
        <ele>565.20001220703</ele>
        <time>2022-09-10T09:33:07.000Z</time>
      </trkpt>
      <trkpt lat="43.87077" lon="7.5919">
        <ele>565.40002441406</ele>
        <time>2022-09-10T09:33:08.000Z</time>
      </trkpt>
      <trkpt lat="43.87067" lon="7.59189">
        <ele>566.40002441406</ele>
        <time>2022-09-10T09:33:14.000Z</time>
      </trkpt>
      <trkpt lat="43.87058" lon="7.59176">
        <ele>567</ele>
        <time>2022-09-10T09:33:20.000Z</time>
      </trkpt>
      <trkpt lat="43.87056" lon="7.59171">
        <ele>567.59997558594</ele>
        <time>2022-09-10T09:33:22.000Z</time>
      </trkpt>
      <trkpt lat="43.87053" lon="7.59159">
        <ele>568</ele>
        <time>2022-09-10T09:33:26.000Z</time>
      </trkpt>
      <trkpt lat="43.87052" lon="7.59148">
        <ele>568.59997558594</ele>
        <time>2022-09-10T09:33:30.000Z</time>
      </trkpt>
      <trkpt lat="43.87052" lon="7.59145">
        <ele>568.59997558594</ele>
        <time>2022-09-10T09:33:31.000Z</time>
      </trkpt>
      <trkpt lat="43.87051" lon="7.59127">
        <ele>569.59997558594</ele>
        <time>2022-09-10T09:33:37.000Z</time>
      </trkpt>
      <trkpt lat="43.8705" lon="7.59124">
        <ele>569.79998779297</ele>
        <time>2022-09-10T09:33:38.000Z</time>
      </trkpt>
      <trkpt lat="43.87046" lon="7.5911">
        <ele>570.79998779297</ele>
        <time>2022-09-10T09:33:43.000Z</time>
      </trkpt>
      <trkpt lat="43.87043" lon="7.59105">
        <ele>571</ele>
        <time>2022-09-10T09:33:45.000Z</time>
      </trkpt>
      <trkpt lat="43.87036" lon="7.59094">
        <ele>571.79998779297</ele>
        <time>2022-09-10T09:33:50.000Z</time>
      </trkpt>
      <trkpt lat="43.87034" lon="7.59089">
        <ele>572</ele>
        <time>2022-09-10T09:33:52.000Z</time>
      </trkpt>
      <trkpt lat="43.87032" lon="7.59075">
        <ele>572.79998779297</ele>
        <time>2022-09-10T09:33:57.000Z</time>
      </trkpt>
      <trkpt lat="43.87032" lon="7.59072">
        <ele>573</ele>
        <time>2022-09-10T09:33:58.000Z</time>
      </trkpt>
      <trkpt lat="43.87035" lon="7.59057">
        <ele>573.59997558594</ele>
        <time>2022-09-10T09:34:03.000Z</time>
      </trkpt>
      <trkpt lat="43.87037" lon="7.59051">
        <ele>574</ele>
        <time>2022-09-10T09:34:05.000Z</time>
      </trkpt>
      <trkpt lat="43.8704" lon="7.59034">
        <ele>575</ele>
        <time>2022-09-10T09:34:10.000Z</time>
      </trkpt>
      <trkpt lat="43.87041" lon="7.59031">
        <ele>575.20001220703</ele>
        <time>2022-09-10T09:34:11.000Z</time>
      </trkpt>
      <trkpt lat="43.87044" lon="7.59014">
        <ele>576.20001220703</ele>
        <time>2022-09-10T09:34:16.000Z</time>
      </trkpt>
      <trkpt lat="43.87045" lon="7.5901">
        <ele>576.20001220703</ele>
        <time>2022-09-10T09:34:17.000Z</time>
      </trkpt>
      <trkpt lat="43.87045" lon="7.58993">
        <ele>577.40002441406</ele>
        <time>2022-09-10T09:34:22.000Z</time>
      </trkpt>
      <trkpt lat="43.87046" lon="7.58971">
        <ele>578.59997558594</ele>
        <time>2022-09-10T09:34:29.000Z</time>
      </trkpt>
      <trkpt lat="43.87055" lon="7.58957">
        <ele>579.59997558594</ele>
        <time>2022-09-10T09:34:35.000Z</time>
      </trkpt>
      <trkpt lat="43.87062" lon="7.5894">
        <ele>580.59997558594</ele>
        <time>2022-09-10T09:34:41.000Z</time>
      </trkpt>
      <trkpt lat="43.87063" lon="7.58937">
        <ele>580.79998779297</ele>
        <time>2022-09-10T09:34:42.000Z</time>
      </trkpt>
      <trkpt lat="43.87064" lon="7.58924">
        <ele>581.79998779297</ele>
        <time>2022-09-10T09:34:46.000Z</time>
      </trkpt>
      <trkpt lat="43.87063" lon="7.58918">
        <ele>582</ele>
        <time>2022-09-10T09:34:48.000Z</time>
      </trkpt>
      <trkpt lat="43.87065" lon="7.58901">
        <ele>583</ele>
        <time>2022-09-10T09:34:54.000Z</time>
      </trkpt>
      <trkpt lat="43.8707" lon="7.58888">
        <ele>584</ele>
        <time>2022-09-10T09:34:59.000Z</time>
      </trkpt>
      <trkpt lat="43.87071" lon="7.58885">
        <ele>584.20001220703</ele>
        <time>2022-09-10T09:35:00.000Z</time>
      </trkpt>
      <trkpt lat="43.87079" lon="7.58868">
        <ele>585</ele>
        <time>2022-09-10T09:35:06.000Z</time>
      </trkpt>
      <trkpt lat="43.8708" lon="7.58866">
        <ele>585.20001220703</ele>
        <time>2022-09-10T09:35:07.000Z</time>
      </trkpt>
      <trkpt lat="43.87086" lon="7.58851">
        <ele>586.20001220703</ele>
        <time>2022-09-10T09:35:12.000Z</time>
      </trkpt>
      <trkpt lat="43.87088" lon="7.58845">
        <ele>586.59997558594</ele>
        <time>2022-09-10T09:35:14.000Z</time>
      </trkpt>
      <trkpt lat="43.87093" lon="7.58831">
        <ele>587.40002441406</ele>
        <time>2022-09-10T09:35:19.000Z</time>
      </trkpt>
      <trkpt lat="43.87095" lon="7.58825">
        <ele>587.79998779297</ele>
        <time>2022-09-10T09:35:21.000Z</time>
      </trkpt>
      <trkpt lat="43.87099" lon="7.58816">
        <ele>588.59997558594</ele>
        <time>2022-09-10T09:35:24.000Z</time>
      </trkpt>
      <trkpt lat="43.87104" lon="7.58808">
        <ele>588.79998779297</ele>
        <time>2022-09-10T09:35:27.000Z</time>
      </trkpt>
      <trkpt lat="43.87109" lon="7.58803">
        <ele>589.59997558594</ele>
        <time>2022-09-10T09:35:30.000Z</time>
      </trkpt>
      <trkpt lat="43.87115" lon="7.58799">
        <ele>590</ele>
        <time>2022-09-10T09:35:33.000Z</time>
      </trkpt>
      <trkpt lat="43.87123" lon="7.58795">
        <ele>590.59997558594</ele>
        <time>2022-09-10T09:35:37.000Z</time>
      </trkpt>
      <trkpt lat="43.87127" lon="7.58792">
        <ele>591.20001220703</ele>
        <time>2022-09-10T09:35:39.000Z</time>
      </trkpt>
      <trkpt lat="43.87135" lon="7.58786">
        <ele>591.59997558594</ele>
        <time>2022-09-10T09:35:43.000Z</time>
      </trkpt>
      <trkpt lat="43.87141" lon="7.5878">
        <ele>591.79998779297</ele>
        <time>2022-09-10T09:35:46.000Z</time>
      </trkpt>
      <trkpt lat="43.87151" lon="7.58771">
        <ele>592.79998779297</ele>
        <time>2022-09-10T09:35:51.000Z</time>
      </trkpt>
      <trkpt lat="43.87155" lon="7.58767">
        <ele>593.20001220703</ele>
        <time>2022-09-10T09:35:53.000Z</time>
      </trkpt>
      <trkpt lat="43.87164" lon="7.58756">
        <ele>593.40002441406</ele>
        <time>2022-09-10T09:35:58.000Z</time>
      </trkpt>
      <trkpt lat="43.87171" lon="7.5875">
        <ele>594</ele>
        <time>2022-09-10T09:36:01.000Z</time>
      </trkpt>
      <trkpt lat="43.87179" lon="7.58741">
        <ele>595</ele>
        <time>2022-09-10T09:36:05.000Z</time>
      </trkpt>
      <trkpt lat="43.87181" lon="7.58739">
        <ele>595.59997558594</ele>
        <time>2022-09-10T09:36:06.000Z</time>
      </trkpt>
      <trkpt lat="43.87189" lon="7.58732">
        <ele>596.20001220703</ele>
        <time>2022-09-10T09:36:10.000Z</time>
      </trkpt>
      <trkpt lat="43.87194" lon="7.58727">
        <ele>596.59997558594</ele>
        <time>2022-09-10T09:36:12.000Z</time>
      </trkpt>
      <trkpt lat="43.87199" lon="7.58723">
        <ele>597.20001220703</ele>
        <time>2022-09-10T09:36:14.000Z</time>
      </trkpt>
      <trkpt lat="43.8721" lon="7.58715">
        <ele>598</ele>
        <time>2022-09-10T09:36:19.000Z</time>
      </trkpt>
      <trkpt lat="43.87212" lon="7.58714">
        <ele>598.20001220703</ele>
        <time>2022-09-10T09:36:20.000Z</time>
      </trkpt>
      <trkpt lat="43.87222" lon="7.58708">
        <ele>599.40002441406</ele>
        <time>2022-09-10T09:36:25.000Z</time>
      </trkpt>
      <trkpt lat="43.87231" lon="7.58703">
        <ele>600</ele>
        <time>2022-09-10T09:36:29.000Z</time>
      </trkpt>
      <trkpt lat="43.87235" lon="7.58701">
        <ele>600.40002441406</ele>
        <time>2022-09-10T09:36:31.000Z</time>
      </trkpt>
      <trkpt lat="43.87245" lon="7.58696">
        <ele>601.40002441406</ele>
        <time>2022-09-10T09:36:36.000Z</time>
      </trkpt>
      <trkpt lat="43.8726" lon="7.5869">
        <ele>602.59997558594</ele>
        <time>2022-09-10T09:36:43.000Z</time>
      </trkpt>
      <trkpt lat="43.87268" lon="7.58688">
        <ele>603.79998779297</ele>
        <time>2022-09-10T09:36:47.000Z</time>
      </trkpt>
      <trkpt lat="43.87276" lon="7.58684">
        <ele>604.79998779297</ele>
        <time>2022-09-10T09:36:52.000Z</time>
      </trkpt>
      <trkpt lat="43.87278" lon="7.58683">
        <ele>605</ele>
        <time>2022-09-10T09:36:53.000Z</time>
      </trkpt>
      <trkpt lat="43.87291" lon="7.58672">
        <ele>605.79998779297</ele>
        <time>2022-09-10T09:37:00.000Z</time>
      </trkpt>
      <trkpt lat="43.87292" lon="7.5867">
        <ele>606</ele>
        <time>2022-09-10T09:37:01.000Z</time>
      </trkpt>
      <trkpt lat="43.873" lon="7.58666">
        <ele>607.20001220703</ele>
        <time>2022-09-10T09:37:05.000Z</time>
      </trkpt>
      <trkpt lat="43.87302" lon="7.58665">
        <ele>607.40002441406</ele>
        <time>2022-09-10T09:37:06.000Z</time>
      </trkpt>
      <trkpt lat="43.87312" lon="7.58653">
        <ele>608.20001220703</ele>
        <time>2022-09-10T09:37:12.000Z</time>
      </trkpt>
      <trkpt lat="43.87315" lon="7.58649">
        <ele>608.59997558594</ele>
        <time>2022-09-10T09:37:14.000Z</time>
      </trkpt>
      <trkpt lat="43.87321" lon="7.5864">
        <ele>609.40002441406</ele>
        <time>2022-09-10T09:37:18.000Z</time>
      </trkpt>
      <trkpt lat="43.87324" lon="7.58638">
        <ele>609.79998779297</ele>
        <time>2022-09-10T09:37:20.000Z</time>
      </trkpt>
      <trkpt lat="43.8733" lon="7.58633">
        <ele>610.40002441406</ele>
        <time>2022-09-10T09:37:23.000Z</time>
      </trkpt>
      <trkpt lat="43.87335" lon="7.58628">
        <ele>610.79998779297</ele>
        <time>2022-09-10T09:37:26.000Z</time>
      </trkpt>
      <trkpt lat="43.87346" lon="7.58622">
        <ele>611.79998779297</ele>
        <time>2022-09-10T09:37:31.000Z</time>
      </trkpt>
      <trkpt lat="43.87353" lon="7.58621">
        <ele>612.20001220703</ele>
        <time>2022-09-10T09:37:34.000Z</time>
      </trkpt>
      <trkpt lat="43.87362" lon="7.5862">
        <ele>613</ele>
        <time>2022-09-10T09:37:38.000Z</time>
      </trkpt>
      <trkpt lat="43.8737" lon="7.58619">
        <ele>613.59997558594</ele>
        <time>2022-09-10T09:37:41.000Z</time>
      </trkpt>
      <trkpt lat="43.87372" lon="7.5862">
        <ele>613.59997558594</ele>
        <time>2022-09-10T09:37:42.000Z</time>
      </trkpt>
      <trkpt lat="43.87377" lon="7.58626">
        <ele>614.20001220703</ele>
        <time>2022-09-10T09:37:45.000Z</time>
      </trkpt>
      <trkpt lat="43.87384" lon="7.5864">
        <ele>614.59997558594</ele>
        <time>2022-09-10T09:37:51.000Z</time>
      </trkpt>
      <trkpt lat="43.87389" lon="7.58649">
        <ele>615.20001220703</ele>
        <time>2022-09-10T09:37:55.000Z</time>
      </trkpt>
      <trkpt lat="43.87391" lon="7.58653">
        <ele>615.59997558594</ele>
        <time>2022-09-10T09:37:57.000Z</time>
      </trkpt>
      <trkpt lat="43.87396" lon="7.58658">
        <ele>616.40002441406</ele>
        <time>2022-09-10T09:38:00.000Z</time>
      </trkpt>
      <trkpt lat="43.874" lon="7.58661">
        <ele>617.20001220703</ele>
        <time>2022-09-10T09:38:02.000Z</time>
      </trkpt>
      <trkpt lat="43.87402" lon="7.58662">
        <ele>617.40002441406</ele>
        <time>2022-09-10T09:38:03.000Z</time>
      </trkpt>
      <trkpt lat="43.87415" lon="7.58659">
        <ele>618.20001220703</ele>
        <time>2022-09-10T09:38:08.000Z</time>
      </trkpt>
      <trkpt lat="43.87417" lon="7.58657">
        <ele>618.40002441406</ele>
        <time>2022-09-10T09:38:09.000Z</time>
      </trkpt>
      <trkpt lat="43.87429" lon="7.58647">
        <ele>619.40002441406</ele>
        <time>2022-09-10T09:38:14.000Z</time>
      </trkpt>
      <trkpt lat="43.8743" lon="7.58645">
        <ele>619.59997558594</ele>
        <time>2022-09-10T09:38:15.000Z</time>
      </trkpt>
      <trkpt lat="43.87437" lon="7.5864">
        <ele>620.79998779297</ele>
        <time>2022-09-10T09:38:18.000Z</time>
      </trkpt>
      <trkpt lat="43.87445" lon="7.58633">
        <ele>621.59997558594</ele>
        <time>2022-09-10T09:38:22.000Z</time>
      </trkpt>
      <trkpt lat="43.87447" lon="7.58632">
        <ele>621.79998779297</ele>
        <time>2022-09-10T09:38:23.000Z</time>
      </trkpt>
      <trkpt lat="43.87457" lon="7.58624">
        <ele>622.79998779297</ele>
        <time>2022-09-10T09:38:28.000Z</time>
      </trkpt>
      <trkpt lat="43.87459" lon="7.58622">
        <ele>623</ele>
        <time>2022-09-10T09:38:29.000Z</time>
      </trkpt>
      <trkpt lat="43.87469" lon="7.58614">
        <ele>624.20001220703</ele>
        <time>2022-09-10T09:38:34.000Z</time>
      </trkpt>
      <trkpt lat="43.87479" lon="7.5861">
        <ele>625.20001220703</ele>
        <time>2022-09-10T09:38:39.000Z</time>
      </trkpt>
      <trkpt lat="43.87481" lon="7.58608">
        <ele>625.40002441406</ele>
        <time>2022-09-10T09:38:40.000Z</time>
      </trkpt>
      <trkpt lat="43.87494" lon="7.58603">
        <ele>626.20001220703</ele>
        <time>2022-09-10T09:38:45.000Z</time>
      </trkpt>
      <trkpt lat="43.87496" lon="7.58602">
        <ele>626.59997558594</ele>
        <time>2022-09-10T09:38:46.000Z</time>
      </trkpt>
      <trkpt lat="43.87505" lon="7.58597">
        <ele>627.59997558594</ele>
        <time>2022-09-10T09:38:50.000Z</time>
      </trkpt>
      <trkpt lat="43.87507" lon="7.58595">
        <ele>627.79998779297</ele>
        <time>2022-09-10T09:38:51.000Z</time>
      </trkpt>
      <trkpt lat="43.87517" lon="7.58586">
        <ele>628.79998779297</ele>
        <time>2022-09-10T09:38:56.000Z</time>
      </trkpt>
      <trkpt lat="43.87529" lon="7.58579">
        <ele>630</ele>
        <time>2022-09-10T09:39:01.000Z</time>
      </trkpt>
      <trkpt lat="43.87546" lon="7.58576">
        <ele>630.79998779297</ele>
        <time>2022-09-10T09:39:07.000Z</time>
      </trkpt>
      <trkpt lat="43.87549" lon="7.58575">
        <ele>631</ele>
        <time>2022-09-10T09:39:08.000Z</time>
      </trkpt>
      <trkpt lat="43.87562" lon="7.58576">
        <ele>632.20001220703</ele>
        <time>2022-09-10T09:39:13.000Z</time>
      </trkpt>
      <trkpt lat="43.87573" lon="7.58581">
        <ele>633.59997558594</ele>
        <time>2022-09-10T09:39:18.000Z</time>
      </trkpt>
      <trkpt lat="43.87584" lon="7.58585">
        <ele>634.59997558594</ele>
        <time>2022-09-10T09:39:23.000Z</time>
      </trkpt>
      <trkpt lat="43.87589" lon="7.58586">
        <ele>635</ele>
        <time>2022-09-10T09:39:25.000Z</time>
      </trkpt>
      <trkpt lat="43.87594" lon="7.58587">
        <ele>635.59997558594</ele>
        <time>2022-09-10T09:39:27.000Z</time>
      </trkpt>
      <trkpt lat="43.87605" lon="7.58585">
        <ele>636.20001220703</ele>
        <time>2022-09-10T09:39:31.000Z</time>
      </trkpt>
      <trkpt lat="43.87613" lon="7.58585">
        <ele>636.79998779297</ele>
        <time>2022-09-10T09:39:34.000Z</time>
      </trkpt>
      <trkpt lat="43.8762" lon="7.58584">
        <ele>637.20001220703</ele>
        <time>2022-09-10T09:39:36.000Z</time>
      </trkpt>
      <trkpt lat="43.87627" lon="7.58583">
        <ele>638</ele>
        <time>2022-09-10T09:39:39.000Z</time>
      </trkpt>
      <trkpt lat="43.87628" lon="7.58582">
        <ele>638.40002441406</ele>
        <time>2022-09-10T09:39:40.000Z</time>
      </trkpt>
      <trkpt lat="43.87632" lon="7.58582">
        <ele>639</ele>
        <time>2022-09-10T09:39:42.000Z</time>
      </trkpt>
      <trkpt lat="43.87637" lon="7.58581">
        <ele>639.40002441406</ele>
        <time>2022-09-10T09:39:44.000Z</time>
      </trkpt>
      <trkpt lat="43.87646" lon="7.5858">
        <ele>640.20001220703</ele>
        <time>2022-09-10T09:39:48.000Z</time>
      </trkpt>
      <trkpt lat="43.87651" lon="7.58579">
        <ele>640.59997558594</ele>
        <time>2022-09-10T09:39:50.000Z</time>
      </trkpt>
      <trkpt lat="43.87659" lon="7.58578">
        <ele>641.40002441406</ele>
        <time>2022-09-10T09:39:54.000Z</time>
      </trkpt>
      <trkpt lat="43.87668" lon="7.58577">
        <ele>642.40002441406</ele>
        <time>2022-09-10T09:39:58.000Z</time>
      </trkpt>
      <trkpt lat="43.8768" lon="7.58575">
        <ele>643.40002441406</ele>
        <time>2022-09-10T09:40:04.000Z</time>
      </trkpt>
      <trkpt lat="43.87692" lon="7.58573">
        <ele>644.59997558594</ele>
        <time>2022-09-10T09:40:09.000Z</time>
      </trkpt>
      <trkpt lat="43.87694" lon="7.58573">
        <ele>644.79998779297</ele>
        <time>2022-09-10T09:40:10.000Z</time>
      </trkpt>
      <trkpt lat="43.87706" lon="7.58572">
        <ele>645.79998779297</ele>
        <time>2022-09-10T09:40:16.000Z</time>
      </trkpt>
      <trkpt lat="43.87715" lon="7.5857">
        <ele>646.79998779297</ele>
        <time>2022-09-10T09:40:20.000Z</time>
      </trkpt>
      <trkpt lat="43.87721" lon="7.58568">
        <ele>647.20001220703</ele>
        <time>2022-09-10T09:40:23.000Z</time>
      </trkpt>
      <trkpt lat="43.87728" lon="7.58565">
        <ele>647.79998779297</ele>
        <time>2022-09-10T09:40:27.000Z</time>
      </trkpt>
      <trkpt lat="43.87732" lon="7.58563">
        <ele>648.20001220703</ele>
        <time>2022-09-10T09:40:29.000Z</time>
      </trkpt>
      <trkpt lat="43.87742" lon="7.58558">
        <ele>649.20001220703</ele>
        <time>2022-09-10T09:40:34.000Z</time>
      </trkpt>
      <trkpt lat="43.87744" lon="7.58557">
        <ele>649.40002441406</ele>
        <time>2022-09-10T09:40:35.000Z</time>
      </trkpt>
      <trkpt lat="43.87753" lon="7.58548">
        <ele>650.40002441406</ele>
        <time>2022-09-10T09:40:41.000Z</time>
      </trkpt>
      <trkpt lat="43.87754" lon="7.58547">
        <ele>650.40002441406</ele>
        <time>2022-09-10T09:40:42.000Z</time>
      </trkpt>
      <trkpt lat="43.87763" lon="7.58537">
        <ele>651.40002441406</ele>
        <time>2022-09-10T09:40:48.000Z</time>
      </trkpt>
      <trkpt lat="43.87772" lon="7.58523">
        <ele>652.40002441406</ele>
        <time>2022-09-10T09:40:55.000Z</time>
      </trkpt>
      <trkpt lat="43.87774" lon="7.58518">
        <ele>653</ele>
        <time>2022-09-10T09:40:57.000Z</time>
      </trkpt>
      <trkpt lat="43.87777" lon="7.58514">
        <ele>653.59997558594</ele>
        <time>2022-09-10T09:40:59.000Z</time>
      </trkpt>
      <trkpt lat="43.87782" lon="7.58501">
        <ele>654</ele>
        <time>2022-09-10T09:41:04.000Z</time>
      </trkpt>
      <trkpt lat="43.87785" lon="7.58493">
        <ele>654.59997558594</ele>
        <time>2022-09-10T09:41:07.000Z</time>
      </trkpt>
      <trkpt lat="43.87788" lon="7.58478">
        <ele>655.79998779297</ele>
        <time>2022-09-10T09:41:12.000Z</time>
      </trkpt>
      <trkpt lat="43.87792" lon="7.58461">
        <ele>656.59997558594</ele>
        <time>2022-09-10T09:41:18.000Z</time>
      </trkpt>
      <trkpt lat="43.87794" lon="7.58459">
        <ele>656.79998779297</ele>
        <time>2022-09-10T09:41:19.000Z</time>
      </trkpt>
      <trkpt lat="43.878" lon="7.58452">
        <ele>657.79998779297</ele>
        <time>2022-09-10T09:41:23.000Z</time>
      </trkpt>
      <trkpt lat="43.87802" lon="7.5845">
        <ele>658</ele>
        <time>2022-09-10T09:41:24.000Z</time>
      </trkpt>
      <trkpt lat="43.87814" lon="7.58442">
        <ele>659</ele>
        <time>2022-09-10T09:41:30.000Z</time>
      </trkpt>
      <trkpt lat="43.87823" lon="7.5844">
        <ele>660</ele>
        <time>2022-09-10T09:41:34.000Z</time>
      </trkpt>
      <trkpt lat="43.87827" lon="7.58439">
        <ele>660.20001220703</ele>
        <time>2022-09-10T09:41:36.000Z</time>
      </trkpt>
      <trkpt lat="43.87841" lon="7.58434">
        <ele>661</ele>
        <time>2022-09-10T09:41:43.000Z</time>
      </trkpt>
      <trkpt lat="43.87851" lon="7.5843">
        <ele>662.20001220703</ele>
        <time>2022-09-10T09:41:48.000Z</time>
      </trkpt>
      <trkpt lat="43.87854" lon="7.58427">
        <ele>662.59997558594</ele>
        <time>2022-09-10T09:41:50.000Z</time>
      </trkpt>
      <trkpt lat="43.87861" lon="7.58421">
        <ele>663.20001220703</ele>
        <time>2022-09-10T09:41:54.000Z</time>
      </trkpt>
      <trkpt lat="43.87867" lon="7.58413">
        <ele>664</ele>
        <time>2022-09-10T09:41:58.000Z</time>
      </trkpt>
      <trkpt lat="43.8787" lon="7.58406">
        <ele>664.20001220703</ele>
        <time>2022-09-10T09:42:01.000Z</time>
      </trkpt>
      <trkpt lat="43.87874" lon="7.58394">
        <ele>665</ele>
        <time>2022-09-10T09:42:06.000Z</time>
      </trkpt>
      <trkpt lat="43.87875" lon="7.58392">
        <ele>665.20001220703</ele>
        <time>2022-09-10T09:42:07.000Z</time>
      </trkpt>
      <trkpt lat="43.87877" lon="7.58381">
        <ele>666.20001220703</ele>
        <time>2022-09-10T09:42:11.000Z</time>
      </trkpt>
      <trkpt lat="43.87877" lon="7.58378">
        <ele>666.40002441406</ele>
        <time>2022-09-10T09:42:12.000Z</time>
      </trkpt>
      <trkpt lat="43.87879" lon="7.58372">
        <ele>666.79998779297</ele>
        <time>2022-09-10T09:42:14.000Z</time>
      </trkpt>
      <trkpt lat="43.87881" lon="7.58368">
        <ele>667.40002441406</ele>
        <time>2022-09-10T09:42:16.000Z</time>
      </trkpt>
      <trkpt lat="43.87883" lon="7.58365">
        <ele>667.59997558594</ele>
        <time>2022-09-10T09:42:17.000Z</time>
      </trkpt>
      <trkpt lat="43.87888" lon="7.58354">
        <ele>668.59997558594</ele>
        <time>2022-09-10T09:42:21.000Z</time>
      </trkpt>
      <trkpt lat="43.87902" lon="7.58333">
        <ele>669.79998779297</ele>
        <time>2022-09-10T09:42:29.000Z</time>
      </trkpt>
      <trkpt lat="43.87908" lon="7.58321">
        <ele>670.79998779297</ele>
        <time>2022-09-10T09:42:33.000Z</time>
      </trkpt>
      <trkpt lat="43.87913" lon="7.58312">
        <ele>671.59997558594</ele>
        <time>2022-09-10T09:42:36.000Z</time>
      </trkpt>
      <trkpt lat="43.87914" lon="7.58309">
        <ele>671.79998779297</ele>
        <time>2022-09-10T09:42:37.000Z</time>
      </trkpt>
      <trkpt lat="43.87921" lon="7.58295">
        <ele>672.79998779297</ele>
        <time>2022-09-10T09:42:42.000Z</time>
      </trkpt>
      <trkpt lat="43.87925" lon="7.58289">
        <ele>673.20001220703</ele>
        <time>2022-09-10T09:42:44.000Z</time>
      </trkpt>
      <trkpt lat="43.87934" lon="7.58274">
        <ele>674</ele>
        <time>2022-09-10T09:42:50.000Z</time>
      </trkpt>
      <trkpt lat="43.87942" lon="7.58262">
        <ele>675</ele>
        <time>2022-09-10T09:42:55.000Z</time>
      </trkpt>
      <trkpt lat="43.87944" lon="7.58258">
        <ele>675</ele>
        <time>2022-09-10T09:42:56.000Z</time>
      </trkpt>
      <trkpt lat="43.87953" lon="7.58243">
        <ele>676</ele>
        <time>2022-09-10T09:43:01.000Z</time>
      </trkpt>
      <trkpt lat="43.87955" lon="7.5824">
        <ele>676.20001220703</ele>
        <time>2022-09-10T09:43:02.000Z</time>
      </trkpt>
      <trkpt lat="43.87965" lon="7.58222">
        <ele>677.20001220703</ele>
        <time>2022-09-10T09:43:08.000Z</time>
      </trkpt>
      <trkpt lat="43.87967" lon="7.58219">
        <ele>677.20001220703</ele>
        <time>2022-09-10T09:43:09.000Z</time>
      </trkpt>
      <trkpt lat="43.87976" lon="7.58205">
        <ele>678.20001220703</ele>
        <time>2022-09-10T09:43:14.000Z</time>
      </trkpt>
      <trkpt lat="43.87989" lon="7.58186">
        <ele>679.40002441406</ele>
        <time>2022-09-10T09:43:21.000Z</time>
      </trkpt>
      <trkpt lat="43.88001" lon="7.5817">
        <ele>680.20001220703</ele>
        <time>2022-09-10T09:43:27.000Z</time>
      </trkpt>
      <trkpt lat="43.88003" lon="7.58167">
        <ele>680.40002441406</ele>
        <time>2022-09-10T09:43:28.000Z</time>
      </trkpt>
      <trkpt lat="43.88013" lon="7.58157">
        <ele>681.40002441406</ele>
        <time>2022-09-10T09:43:32.000Z</time>
      </trkpt>
      <trkpt lat="43.88015" lon="7.58155">
        <ele>681.59997558594</ele>
        <time>2022-09-10T09:43:33.000Z</time>
      </trkpt>
      <trkpt lat="43.88029" lon="7.58137">
        <ele>682.59997558594</ele>
        <time>2022-09-10T09:43:40.000Z</time>
      </trkpt>
      <trkpt lat="43.88041" lon="7.58122">
        <ele>683.59997558594</ele>
        <time>2022-09-10T09:43:46.000Z</time>
      </trkpt>
      <trkpt lat="43.88043" lon="7.5812">
        <ele>683.79998779297</ele>
        <time>2022-09-10T09:43:47.000Z</time>
      </trkpt>
      <trkpt lat="43.88054" lon="7.58107">
        <ele>684.79998779297</ele>
        <time>2022-09-10T09:43:53.000Z</time>
      </trkpt>
      <trkpt lat="43.88061" lon="7.58099">
        <ele>686</ele>
        <time>2022-09-10T09:43:57.000Z</time>
      </trkpt>
      <trkpt lat="43.88063" lon="7.58097">
        <ele>686</ele>
        <time>2022-09-10T09:43:58.000Z</time>
      </trkpt>
      <trkpt lat="43.8807" lon="7.5809">
        <ele>687</ele>
        <time>2022-09-10T09:44:02.000Z</time>
      </trkpt>
      <trkpt lat="43.88072" lon="7.58089">
        <ele>687.20001220703</ele>
        <time>2022-09-10T09:44:03.000Z</time>
      </trkpt>
      <trkpt lat="43.8808" lon="7.58084">
        <ele>688</ele>
        <time>2022-09-10T09:44:07.000Z</time>
      </trkpt>
      <trkpt lat="43.88084" lon="7.58083">
        <ele>688.40002441406</ele>
        <time>2022-09-10T09:44:09.000Z</time>
      </trkpt>
      <trkpt lat="43.88094" lon="7.58088">
        <ele>689.20001220703</ele>
        <time>2022-09-10T09:44:14.000Z</time>
      </trkpt>
      <trkpt lat="43.88096" lon="7.58101">
        <ele>689.59997558594</ele>
        <time>2022-09-10T09:44:19.000Z</time>
      </trkpt>
      <trkpt lat="43.88095" lon="7.58116">
        <ele>690.40002441406</ele>
        <time>2022-09-10T09:44:24.000Z</time>
      </trkpt>
      <trkpt lat="43.88094" lon="7.58122">
        <ele>690.59997558594</ele>
        <time>2022-09-10T09:44:26.000Z</time>
      </trkpt>
      <trkpt lat="43.88093" lon="7.58138">
        <ele>691.40002441406</ele>
        <time>2022-09-10T09:44:31.000Z</time>
      </trkpt>
      <trkpt lat="43.88093" lon="7.58147">
        <ele>692</ele>
        <time>2022-09-10T09:44:34.000Z</time>
      </trkpt>
      <trkpt lat="43.88093" lon="7.58157">
        <ele>692.40002441406</ele>
        <time>2022-09-10T09:44:37.000Z</time>
      </trkpt>
      <trkpt lat="43.88093" lon="7.58173">
        <ele>693</ele>
        <time>2022-09-10T09:44:41.000Z</time>
      </trkpt>
      <trkpt lat="43.88093" lon="7.58181">
        <ele>693.59997558594</ele>
        <time>2022-09-10T09:44:43.000Z</time>
      </trkpt>
      <trkpt lat="43.88094" lon="7.58202">
        <ele>694.40002441406</ele>
        <time>2022-09-10T09:44:49.000Z</time>
      </trkpt>
      <trkpt lat="43.88095" lon="7.58205">
        <ele>695.20001220703</ele>
        <time>2022-09-10T09:44:50.000Z</time>
      </trkpt>
      <trkpt lat="43.88099" lon="7.58227">
        <ele>695.20001220703</ele>
        <time>2022-09-10T09:44:56.000Z</time>
      </trkpt>
      <trkpt lat="43.88107" lon="7.5825">
        <ele>696</ele>
        <time>2022-09-10T09:45:03.000Z</time>
      </trkpt>
      <trkpt lat="43.88108" lon="7.58252">
        <ele>696.20001220703</ele>
        <time>2022-09-10T09:45:04.000Z</time>
      </trkpt>
      <trkpt lat="43.88117" lon="7.58265">
        <ele>697</ele>
        <time>2022-09-10T09:45:09.000Z</time>
      </trkpt>
      <trkpt lat="43.8812" lon="7.58269">
        <ele>697.20001220703</ele>
        <time>2022-09-10T09:45:11.000Z</time>
      </trkpt>
      <trkpt lat="43.8813" lon="7.58276">
        <ele>698.40002441406</ele>
        <time>2022-09-10T09:45:16.000Z</time>
      </trkpt>
      <trkpt lat="43.88143" lon="7.58279">
        <ele>699.40002441406</ele>
        <time>2022-09-10T09:45:21.000Z</time>
      </trkpt>
      <trkpt lat="43.88145" lon="7.58281">
        <ele>699.79998779297</ele>
        <time>2022-09-10T09:45:22.000Z</time>
      </trkpt>
      <trkpt lat="43.88154" lon="7.58289">
        <ele>700.59997558594</ele>
        <time>2022-09-10T09:45:26.000Z</time>
      </trkpt>
      <trkpt lat="43.88159" lon="7.58294">
        <ele>701.20001220703</ele>
        <time>2022-09-10T09:45:28.000Z</time>
      </trkpt>
      <trkpt lat="43.88163" lon="7.58298">
        <ele>701.59997558594</ele>
        <time>2022-09-10T09:45:30.000Z</time>
      </trkpt>
      <trkpt lat="43.8817" lon="7.58306">
        <ele>703</ele>
        <time>2022-09-10T09:45:34.000Z</time>
      </trkpt>
      <trkpt lat="43.88172" lon="7.58309">
        <ele>703.40002441406</ele>
        <time>2022-09-10T09:45:35.000Z</time>
      </trkpt>
      <trkpt lat="43.88181" lon="7.58321">
        <ele>704.20001220703</ele>
        <time>2022-09-10T09:45:40.000Z</time>
      </trkpt>
      <trkpt lat="43.88183" lon="7.58324">
        <ele>704.79998779297</ele>
        <time>2022-09-10T09:45:41.000Z</time>
      </trkpt>
      <trkpt lat="43.88187" lon="7.58332">
        <ele>705.59997558594</ele>
        <time>2022-09-10T09:45:44.000Z</time>
      </trkpt>
      <trkpt lat="43.8819" lon="7.58341">
        <ele>706</ele>
        <time>2022-09-10T09:45:47.000Z</time>
      </trkpt>
      <trkpt lat="43.88191" lon="7.58348">
        <ele>706.59997558594</ele>
        <time>2022-09-10T09:45:49.000Z</time>
      </trkpt>
      <trkpt lat="43.88193" lon="7.58362">
        <ele>707.79998779297</ele>
        <time>2022-09-10T09:45:53.000Z</time>
      </trkpt>
      <trkpt lat="43.88195" lon="7.58381">
        <ele>709</ele>
        <time>2022-09-10T09:45:59.000Z</time>
      </trkpt>
      <trkpt lat="43.88197" lon="7.58395">
        <ele>710</ele>
        <time>2022-09-10T09:46:03.000Z</time>
      </trkpt>
      <trkpt lat="43.88198" lon="7.58401">
        <ele>710.59997558594</ele>
        <time>2022-09-10T09:46:05.000Z</time>
      </trkpt>
      <trkpt lat="43.88201" lon="7.5841">
        <ele>711.20001220703</ele>
        <time>2022-09-10T09:46:08.000Z</time>
      </trkpt>
      <trkpt lat="43.88202" lon="7.58419">
        <ele>711.59997558594</ele>
        <time>2022-09-10T09:46:11.000Z</time>
      </trkpt>
      <trkpt lat="43.88203" lon="7.58431">
        <ele>712.40002441406</ele>
        <time>2022-09-10T09:46:15.000Z</time>
      </trkpt>
      <trkpt lat="43.88205" lon="7.5844">
        <ele>713.40002441406</ele>
        <time>2022-09-10T09:46:18.000Z</time>
      </trkpt>
      <trkpt lat="43.88206" lon="7.58443">
        <ele>713.59997558594</ele>
        <time>2022-09-10T09:46:19.000Z</time>
      </trkpt>
      <trkpt lat="43.88209" lon="7.5846">
        <ele>714.59997558594</ele>
        <time>2022-09-10T09:46:25.000Z</time>
      </trkpt>
      <trkpt lat="43.88213" lon="7.58464">
        <ele>715.79998779297</ele>
        <time>2022-09-10T09:46:29.000Z</time>
      </trkpt>
      <trkpt lat="43.88215" lon="7.58464">
        <ele>716</ele>
        <time>2022-09-10T09:46:30.000Z</time>
      </trkpt>
      <trkpt lat="43.88216" lon="7.58464">
        <ele>716.79998779297</ele>
        <time>2022-09-10T09:46:34.000Z</time>
      </trkpt>
      <trkpt lat="43.88216" lon="7.58464">
        <ele>716.79998779297</ele>
        <time>2022-09-10T09:46:35.000Z</time>
      </trkpt>
      <trkpt lat="43.88217" lon="7.58463">
        <ele>716.79998779297</ele>
        <time>2022-09-10T09:46:36.000Z</time>
      </trkpt>
      <trkpt lat="43.88221" lon="7.58461">
        <ele>717</ele>
        <time>2022-09-10T09:46:39.000Z</time>
      </trkpt>
      <trkpt lat="43.88232" lon="7.58454">
        <ele>717.40002441406</ele>
        <time>2022-09-10T09:46:44.000Z</time>
      </trkpt>
      <trkpt lat="43.88238" lon="7.5845">
        <ele>718</ele>
        <time>2022-09-10T09:46:47.000Z</time>
      </trkpt>
      <trkpt lat="43.88246" lon="7.58445">
        <ele>719.20001220703</ele>
        <time>2022-09-10T09:46:51.000Z</time>
      </trkpt>
      <trkpt lat="43.88248" lon="7.58444">
        <ele>719.40002441406</ele>
        <time>2022-09-10T09:46:52.000Z</time>
      </trkpt>
      <trkpt lat="43.88254" lon="7.5844">
        <ele>720.20001220703</ele>
        <time>2022-09-10T09:46:55.000Z</time>
      </trkpt>
      <trkpt lat="43.8826" lon="7.58436">
        <ele>720.59997558594</ele>
        <time>2022-09-10T09:46:58.000Z</time>
      </trkpt>
      <trkpt lat="43.88269" lon="7.5843">
        <ele>721.40002441406</ele>
        <time>2022-09-10T09:47:02.000Z</time>
      </trkpt>
      <trkpt lat="43.88271" lon="7.58428">
        <ele>721.59997558594</ele>
        <time>2022-09-10T09:47:03.000Z</time>
      </trkpt>
      <trkpt lat="43.88275" lon="7.58425">
        <ele>722.40002441406</ele>
        <time>2022-09-10T09:47:05.000Z</time>
      </trkpt>
      <trkpt lat="43.88285" lon="7.5842">
        <ele>723.59997558594</ele>
        <time>2022-09-10T09:47:09.000Z</time>
      </trkpt>
      <trkpt lat="43.88287" lon="7.58419">
        <ele>723.79998779297</ele>
        <time>2022-09-10T09:47:10.000Z</time>
      </trkpt>
      <trkpt lat="43.88296" lon="7.58416">
        <ele>724.59997558594</ele>
        <time>2022-09-10T09:47:14.000Z</time>
      </trkpt>
      <trkpt lat="43.88304" lon="7.58415">
        <ele>725.59997558594</ele>
        <time>2022-09-10T09:47:18.000Z</time>
      </trkpt>
      <trkpt lat="43.88306" lon="7.58414">
        <ele>725.79998779297</ele>
        <time>2022-09-10T09:47:19.000Z</time>
      </trkpt>
      <trkpt lat="43.88315" lon="7.58412">
        <ele>726.59997558594</ele>
        <time>2022-09-10T09:47:23.000Z</time>
      </trkpt>
      <trkpt lat="43.8832" lon="7.58412">
        <ele>727</ele>
        <time>2022-09-10T09:47:25.000Z</time>
      </trkpt>
      <trkpt lat="43.8833" lon="7.58413">
        <ele>727.59997558594</ele>
        <time>2022-09-10T09:47:29.000Z</time>
      </trkpt>
      <trkpt lat="43.88338" lon="7.58416">
        <ele>728.20001220703</ele>
        <time>2022-09-10T09:47:32.000Z</time>
      </trkpt>
      <trkpt lat="43.88344" lon="7.58419">
        <ele>728.59997558594</ele>
        <time>2022-09-10T09:47:34.000Z</time>
      </trkpt>
      <trkpt lat="43.88354" lon="7.58428">
        <ele>729.40002441406</ele>
        <time>2022-09-10T09:47:38.000Z</time>
      </trkpt>
      <trkpt lat="43.88359" lon="7.5843">
        <ele>729.79998779297</ele>
        <time>2022-09-10T09:47:40.000Z</time>
      </trkpt>
      <trkpt lat="43.88367" lon="7.58432">
        <ele>730.40002441406</ele>
        <time>2022-09-10T09:47:43.000Z</time>
      </trkpt>
      <trkpt lat="43.88375" lon="7.58431">
        <ele>731.20001220703</ele>
        <time>2022-09-10T09:47:46.000Z</time>
      </trkpt>
      <trkpt lat="43.88378" lon="7.58431">
        <ele>731.40002441406</ele>
        <time>2022-09-10T09:47:47.000Z</time>
      </trkpt>
      <trkpt lat="43.88387" lon="7.58431">
        <ele>731.79998779297</ele>
        <time>2022-09-10T09:47:51.000Z</time>
      </trkpt>
      <trkpt lat="43.8839" lon="7.58431">
        <ele>732.40002441406</ele>
        <time>2022-09-10T09:47:53.000Z</time>
      </trkpt>
      <trkpt lat="43.884" lon="7.58433">
        <ele>733.40002441406</ele>
        <time>2022-09-10T09:47:57.000Z</time>
      </trkpt>
      <trkpt lat="43.88402" lon="7.58435">
        <ele>733.40002441406</ele>
        <time>2022-09-10T09:47:58.000Z</time>
      </trkpt>
      <trkpt lat="43.8841" lon="7.58447">
        <ele>734.59997558594</ele>
        <time>2022-09-10T09:48:03.000Z</time>
      </trkpt>
      <trkpt lat="43.88418" lon="7.58463">
        <ele>735.40002441406</ele>
        <time>2022-09-10T09:48:09.000Z</time>
      </trkpt>
      <trkpt lat="43.88418" lon="7.58467">
        <ele>735.59997558594</ele>
        <time>2022-09-10T09:48:10.000Z</time>
      </trkpt>
      <trkpt lat="43.88418" lon="7.58475">
        <ele>736.20001220703</ele>
        <time>2022-09-10T09:48:12.000Z</time>
      </trkpt>
      <trkpt lat="43.88417" lon="7.58479">
        <ele>736.40002441406</ele>
        <time>2022-09-10T09:48:13.000Z</time>
      </trkpt>
      <trkpt lat="43.88416" lon="7.58482">
        <ele>736.59997558594</ele>
        <time>2022-09-10T09:48:14.000Z</time>
      </trkpt>
      <trkpt lat="43.88418" lon="7.58495">
        <ele>737.20001220703</ele>
        <time>2022-09-10T09:48:18.000Z</time>
      </trkpt>
      <trkpt lat="43.88422" lon="7.58501">
        <ele>737.79998779297</ele>
        <time>2022-09-10T09:48:20.000Z</time>
      </trkpt>
      <trkpt lat="43.88431" lon="7.58512">
        <ele>738.59997558594</ele>
        <time>2022-09-10T09:48:24.000Z</time>
      </trkpt>
      <trkpt lat="43.88446" lon="7.58523">
        <ele>739</ele>
        <time>2022-09-10T09:48:30.000Z</time>
      </trkpt>
      <trkpt lat="43.88463" lon="7.58539">
        <ele>739.40002441406</ele>
        <time>2022-09-10T09:48:37.000Z</time>
      </trkpt>
      <trkpt lat="43.88479" lon="7.58549">
        <ele>740</ele>
        <time>2022-09-10T09:48:43.000Z</time>
      </trkpt>
      <trkpt lat="43.88484" lon="7.58552">
        <ele>740.40002441406</ele>
        <time>2022-09-10T09:48:45.000Z</time>
      </trkpt>
      <trkpt lat="43.88506" lon="7.58565">
        <ele>740.79998779297</ele>
        <time>2022-09-10T09:48:52.000Z</time>
      </trkpt>
      <trkpt lat="43.88513" lon="7.58569">
        <ele>741</ele>
        <time>2022-09-10T09:48:54.000Z</time>
      </trkpt>
      <trkpt lat="43.88526" lon="7.58573">
        <ele>742</ele>
        <time>2022-09-10T09:48:58.000Z</time>
      </trkpt>
      <trkpt lat="43.88537" lon="7.58576">
        <ele>743.20001220703</ele>
        <time>2022-09-10T09:49:02.000Z</time>
      </trkpt>
      <trkpt lat="43.8854" lon="7.58577">
        <ele>743.59997558594</ele>
        <time>2022-09-10T09:49:03.000Z</time>
      </trkpt>
      <trkpt lat="43.8855" lon="7.58576">
        <ele>744.40002441406</ele>
        <time>2022-09-10T09:49:07.000Z</time>
      </trkpt>
      <trkpt lat="43.88556" lon="7.58574">
        <ele>745.20001220703</ele>
        <time>2022-09-10T09:49:09.000Z</time>
      </trkpt>
      <trkpt lat="43.88562" lon="7.58572">
        <ele>745.59997558594</ele>
        <time>2022-09-10T09:49:11.000Z</time>
      </trkpt>
      <trkpt lat="43.88577" lon="7.58564">
        <ele>746.20001220703</ele>
        <time>2022-09-10T09:49:16.000Z</time>
      </trkpt>
      <trkpt lat="43.88582" lon="7.58558">
        <ele>746.79998779297</ele>
        <time>2022-09-10T09:49:18.000Z</time>
      </trkpt>
      <trkpt lat="43.88588" lon="7.58547">
        <ele>747</ele>
        <time>2022-09-10T09:49:21.000Z</time>
      </trkpt>
      <trkpt lat="43.88601" lon="7.58529">
        <ele>748.20001220703</ele>
        <time>2022-09-10T09:49:27.000Z</time>
      </trkpt>
      <trkpt lat="43.88605" lon="7.58522">
        <ele>748.40002441406</ele>
        <time>2022-09-10T09:49:29.000Z</time>
      </trkpt>
      <trkpt lat="43.88617" lon="7.58511">
        <ele>749.40002441406</ele>
        <time>2022-09-10T09:49:34.000Z</time>
      </trkpt>
      <trkpt lat="43.88622" lon="7.58507">
        <ele>749.79998779297</ele>
        <time>2022-09-10T09:49:36.000Z</time>
      </trkpt>
      <trkpt lat="43.88627" lon="7.58505">
        <ele>750.40002441406</ele>
        <time>2022-09-10T09:49:38.000Z</time>
      </trkpt>
      <trkpt lat="43.88635" lon="7.58499">
        <ele>751.59997558594</ele>
        <time>2022-09-10T09:49:42.000Z</time>
      </trkpt>
      <trkpt lat="43.88647" lon="7.58494">
        <ele>752.59997558594</ele>
        <time>2022-09-10T09:49:47.000Z</time>
      </trkpt>
      <trkpt lat="43.88649" lon="7.58492">
        <ele>753</ele>
        <time>2022-09-10T09:49:48.000Z</time>
      </trkpt>
      <trkpt lat="43.88659" lon="7.58488">
        <ele>753.79998779297</ele>
        <time>2022-09-10T09:49:52.000Z</time>
      </trkpt>
      <trkpt lat="43.88666" lon="7.58485">
        <ele>754.79998779297</ele>
        <time>2022-09-10T09:49:55.000Z</time>
      </trkpt>
      <trkpt lat="43.88668" lon="7.58485">
        <ele>755.20001220703</ele>
        <time>2022-09-10T09:49:56.000Z</time>
      </trkpt>
      <trkpt lat="43.88686" lon="7.5848">
        <ele>756.59997558594</ele>
        <time>2022-09-10T09:50:02.000Z</time>
      </trkpt>
      <trkpt lat="43.88693" lon="7.58479">
        <ele>757.79998779297</ele>
        <time>2022-09-10T09:50:05.000Z</time>
      </trkpt>
      <trkpt lat="43.88702" lon="7.58479">
        <ele>758.59997558594</ele>
        <time>2022-09-10T09:50:08.000Z</time>
      </trkpt>
      <trkpt lat="43.88704" lon="7.58478">
        <ele>758.79998779297</ele>
        <time>2022-09-10T09:50:09.000Z</time>
      </trkpt>
      <trkpt lat="43.88718" lon="7.58473">
        <ele>760.20001220703</ele>
        <time>2022-09-10T09:50:14.000Z</time>
      </trkpt>
      <trkpt lat="43.88723" lon="7.5847">
        <ele>760.79998779297</ele>
        <time>2022-09-10T09:50:16.000Z</time>
      </trkpt>
      <trkpt lat="43.88728" lon="7.58468">
        <ele>761.40002441406</ele>
        <time>2022-09-10T09:50:18.000Z</time>
      </trkpt>
      <trkpt lat="43.88736" lon="7.58466">
        <ele>762.40002441406</ele>
        <time>2022-09-10T09:50:21.000Z</time>
      </trkpt>
      <trkpt lat="43.88738" lon="7.58466">
        <ele>762.59997558594</ele>
        <time>2022-09-10T09:50:22.000Z</time>
      </trkpt>
      <trkpt lat="43.88746" lon="7.58465">
        <ele>763.40002441406</ele>
        <time>2022-09-10T09:50:25.000Z</time>
      </trkpt>
      <trkpt lat="43.88755" lon="7.58464">
        <ele>764.59997558594</ele>
        <time>2022-09-10T09:50:29.000Z</time>
      </trkpt>
      <trkpt lat="43.8876" lon="7.58464">
        <ele>765.20001220703</ele>
        <time>2022-09-10T09:50:31.000Z</time>
      </trkpt>
      <trkpt lat="43.88768" lon="7.58465">
        <ele>766</ele>
        <time>2022-09-10T09:50:34.000Z</time>
      </trkpt>
      <trkpt lat="43.88775" lon="7.58468">
        <ele>766.79998779297</ele>
        <time>2022-09-10T09:50:37.000Z</time>
      </trkpt>
      <trkpt lat="43.88777" lon="7.58469">
        <ele>767.20001220703</ele>
        <time>2022-09-10T09:50:38.000Z</time>
      </trkpt>
      <trkpt lat="43.88787" lon="7.58476">
        <ele>768.20001220703</ele>
        <time>2022-09-10T09:50:43.000Z</time>
      </trkpt>
      <trkpt lat="43.88792" lon="7.58479">
        <ele>768.59997558594</ele>
        <time>2022-09-10T09:50:45.000Z</time>
      </trkpt>
      <trkpt lat="43.88799" lon="7.58484">
        <ele>769.40002441406</ele>
        <time>2022-09-10T09:50:48.000Z</time>
      </trkpt>
      <trkpt lat="43.8881" lon="7.58494">
        <ele>770.40002441406</ele>
        <time>2022-09-10T09:50:53.000Z</time>
      </trkpt>
      <trkpt lat="43.88812" lon="7.58496">
        <ele>770.59997558594</ele>
        <time>2022-09-10T09:50:54.000Z</time>
      </trkpt>
      <trkpt lat="43.88825" lon="7.58512">
        <ele>771.59997558594</ele>
        <time>2022-09-10T09:51:00.000Z</time>
      </trkpt>
      <trkpt lat="43.88826" lon="7.58514">
        <ele>771.59997558594</ele>
        <time>2022-09-10T09:51:01.000Z</time>
      </trkpt>
      <trkpt lat="43.88835" lon="7.58525">
        <ele>772.59997558594</ele>
        <time>2022-09-10T09:51:07.000Z</time>
      </trkpt>
      <trkpt lat="43.88837" lon="7.58526">
        <ele>773.40002441406</ele>
        <time>2022-09-10T09:51:12.000Z</time>
      </trkpt>
      <trkpt lat="43.88837" lon="7.58527">
        <ele>773.79998779297</ele>
        <time>2022-09-10T09:51:14.000Z</time>
      </trkpt>
      <trkpt lat="43.88837" lon="7.58527">
        <ele>773.59997558594</ele>
        <time>2022-09-10T09:51:19.000Z</time>
      </trkpt>
      <trkpt lat="43.88837" lon="7.58528">
        <ele>773.59997558594</ele>
        <time>2022-09-10T09:51:27.000Z</time>
      </trkpt>
      <trkpt lat="43.88838" lon="7.58527">
        <ele>773.20001220703</ele>
        <time>2022-09-10T09:51:32.000Z</time>
      </trkpt>
      <trkpt lat="43.88837" lon="7.58527">
        <ele>773.20001220703</ele>
        <time>2022-09-10T09:51:36.000Z</time>
      </trkpt>
      <trkpt lat="43.88835" lon="7.58529">
        <ele>773.20001220703</ele>
        <time>2022-09-10T09:51:42.000Z</time>
      </trkpt>
      <trkpt lat="43.88834" lon="7.58529">
        <ele>773.20001220703</ele>
        <time>2022-09-10T09:51:52.000Z</time>
      </trkpt>
      <trkpt lat="43.88833" lon="7.58529">
        <ele>773</ele>
        <time>2022-09-10T09:52:11.000Z</time>
      </trkpt>
      <trkpt lat="43.88832" lon="7.58529">
        <ele>772.59997558594</ele>
        <time>2022-09-10T09:52:16.000Z</time>
      </trkpt>
      <trkpt lat="43.88832" lon="7.58529">
        <ele>772.59997558594</ele>
        <time>2022-09-10T09:52:18.000Z</time>
      </trkpt>
      <trkpt lat="43.88831" lon="7.58529">
        <ele>772</ele>
        <time>2022-09-10T09:52:33.000Z</time>
      </trkpt>
      <trkpt lat="43.8883" lon="7.58527">
        <ele>772</ele>
        <time>2022-09-10T09:52:50.000Z</time>
      </trkpt>
      <trkpt lat="43.8883" lon="7.58523">
        <ele>772</ele>
        <time>2022-09-10T09:53:09.000Z</time>
      </trkpt>
      <trkpt lat="43.88829" lon="7.58521">
        <ele>772</ele>
        <time>2022-09-10T09:53:22.000Z</time>
      </trkpt>
      <trkpt lat="43.8883" lon="7.58521">
        <ele>771.79998779297</ele>
        <time>2022-09-10T09:53:39.000Z</time>
      </trkpt>
      <trkpt lat="43.88831" lon="7.58524">
        <ele>771.59997558594</ele>
        <time>2022-09-10T09:53:51.000Z</time>
      </trkpt>
      <trkpt lat="43.88831" lon="7.58524">
        <ele>771.79998779297</ele>
        <time>2022-09-10T09:54:01.000Z</time>
      </trkpt>
      <trkpt lat="43.88832" lon="7.58526">
        <ele>772</ele>
        <time>2022-09-10T09:54:20.000Z</time>
      </trkpt>
      <trkpt lat="43.88832" lon="7.58527">
        <ele>772</ele>
        <time>2022-09-10T09:54:30.000Z</time>
      </trkpt>
      <trkpt lat="43.88833" lon="7.58527">
        <ele>771.79998779297</ele>
        <time>2022-09-10T09:54:41.000Z</time>
      </trkpt>
      <trkpt lat="43.88835" lon="7.58528">
        <ele>772.20001220703</ele>
        <time>2022-09-10T09:54:48.000Z</time>
      </trkpt>
      <trkpt lat="43.88836" lon="7.58529">
        <ele>772.40002441406</ele>
        <time>2022-09-10T09:54:54.000Z</time>
      </trkpt>
      <trkpt lat="43.88836" lon="7.58529">
        <ele>772.40002441406</ele>
        <time>2022-09-10T09:55:03.000Z</time>
      </trkpt>
      <trkpt lat="43.88836" lon="7.58529">
        <ele>772.59997558594</ele>
        <time>2022-09-10T09:55:06.000Z</time>
      </trkpt>
      <trkpt lat="43.88836" lon="7.58529">
        <ele>772</ele>
        <time>2022-09-10T09:55:13.000Z</time>
      </trkpt>
      <trkpt lat="43.88836" lon="7.58529">
        <ele>771.79998779297</ele>
        <time>2022-09-10T09:55:26.000Z</time>
      </trkpt>
      <trkpt lat="43.88836" lon="7.58529">
        <ele>772.20001220703</ele>
        <time>2022-09-10T09:55:40.000Z</time>
      </trkpt>
      <trkpt lat="43.88836" lon="7.58528">
        <ele>771.79998779297</ele>
        <time>2022-09-10T09:55:50.000Z</time>
      </trkpt>
      <trkpt lat="43.88836" lon="7.58529">
        <ele>772.20001220703</ele>
        <time>2022-09-10T09:55:59.000Z</time>
      </trkpt>
      <trkpt lat="43.88833" lon="7.58528">
        <ele>772</ele>
        <time>2022-09-10T09:56:04.000Z</time>
      </trkpt>
      <trkpt lat="43.88833" lon="7.58528">
        <ele>772</ele>
        <time>2022-09-10T09:56:14.000Z</time>
      </trkpt>
      <trkpt lat="43.88833" lon="7.58528">
        <ele>772</ele>
        <time>2022-09-10T09:56:23.000Z</time>
      </trkpt>
      <trkpt lat="43.88833" lon="7.58528">
        <ele>772</ele>
        <time>2022-09-10T09:56:36.000Z</time>
      </trkpt>
      <trkpt lat="43.88833" lon="7.58528">
        <ele>772</ele>
        <time>2022-09-10T09:56:49.000Z</time>
      </trkpt>
      <trkpt lat="43.88833" lon="7.58528">
        <ele>772.20001220703</ele>
        <time>2022-09-10T09:57:04.000Z</time>
      </trkpt>
      <trkpt lat="43.88833" lon="7.58527">
        <ele>771.79998779297</ele>
        <time>2022-09-10T09:57:23.000Z</time>
      </trkpt>
      <trkpt lat="43.88833" lon="7.58528">
        <ele>771.79998779297</ele>
        <time>2022-09-10T09:57:35.000Z</time>
      </trkpt>
      <trkpt lat="43.88832" lon="7.58527">
        <ele>772</ele>
        <time>2022-09-10T09:57:46.000Z</time>
      </trkpt>
      <trkpt lat="43.88833" lon="7.58528">
        <ele>771.79998779297</ele>
        <time>2022-09-10T09:58:09.000Z</time>
      </trkpt>
      <trkpt lat="43.88833" lon="7.58529">
        <ele>771.79998779297</ele>
        <time>2022-09-10T09:58:43.000Z</time>
      </trkpt>
      <trkpt lat="43.88834" lon="7.58528">
        <ele>771.79998779297</ele>
        <time>2022-09-10T09:58:51.000Z</time>
      </trkpt>
      <trkpt lat="43.88837" lon="7.58528">
        <ele>772</ele>
        <time>2022-09-10T09:58:57.000Z</time>
      </trkpt>
      <trkpt lat="43.88838" lon="7.58527">
        <ele>772</ele>
        <time>2022-09-10T09:59:06.000Z</time>
      </trkpt>
      <trkpt lat="43.88838" lon="7.58527">
        <ele>771.59997558594</ele>
        <time>2022-09-10T09:59:10.000Z</time>
      </trkpt>
      <trkpt lat="43.88838" lon="7.58527">
        <ele>771.79998779297</ele>
        <time>2022-09-10T09:59:18.000Z</time>
      </trkpt>
      <trkpt lat="43.88837" lon="7.58526">
        <ele>771.20001220703</ele>
        <time>2022-09-10T09:59:38.000Z</time>
      </trkpt>
      <trkpt lat="43.88839" lon="7.58525">
        <ele>771.40002441406</ele>
        <time>2022-09-10T09:59:48.000Z</time>
      </trkpt>
      <trkpt lat="43.88838" lon="7.58524">
        <ele>771.40002441406</ele>
        <time>2022-09-10T09:59:59.000Z</time>
      </trkpt>
      <trkpt lat="43.88838" lon="7.58525">
        <ele>771.20001220703</ele>
        <time>2022-09-10T10:00:05.000Z</time>
      </trkpt>
      <trkpt lat="43.88838" lon="7.58526">
        <ele>771.59997558594</ele>
        <time>2022-09-10T10:00:12.000Z</time>
      </trkpt>
      <trkpt lat="43.88839" lon="7.58523">
        <ele>772</ele>
        <time>2022-09-10T10:00:19.000Z</time>
      </trkpt>
      <trkpt lat="43.88841" lon="7.58518">
        <ele>772</ele>
        <time>2022-09-10T10:00:25.000Z</time>
      </trkpt>
      <trkpt lat="43.88845" lon="7.58501">
        <ele>771.79998779297</ele>
        <time>2022-09-10T10:00:31.000Z</time>
      </trkpt>
      <trkpt lat="43.88846" lon="7.58485">
        <ele>772.59997558594</ele>
        <time>2022-09-10T10:00:36.000Z</time>
      </trkpt>
      <trkpt lat="43.88847" lon="7.58479">
        <ele>772.79998779297</ele>
        <time>2022-09-10T10:00:38.000Z</time>
      </trkpt>
      <trkpt lat="43.88849" lon="7.58467">
        <ele>773.79998779297</ele>
        <time>2022-09-10T10:00:42.000Z</time>
      </trkpt>
      <trkpt lat="43.8885" lon="7.58464">
        <ele>774</ele>
        <time>2022-09-10T10:00:43.000Z</time>
      </trkpt>
      <trkpt lat="43.88855" lon="7.58449">
        <ele>775</ele>
        <time>2022-09-10T10:00:48.000Z</time>
      </trkpt>
      <trkpt lat="43.88864" lon="7.58442">
        <ele>775.40002441406</ele>
        <time>2022-09-10T10:00:52.000Z</time>
      </trkpt>
      <trkpt lat="43.8887" lon="7.58438">
        <ele>776</ele>
        <time>2022-09-10T10:00:55.000Z</time>
      </trkpt>
      <trkpt lat="43.88875" lon="7.58433">
        <ele>776.40002441406</ele>
        <time>2022-09-10T10:00:58.000Z</time>
      </trkpt>
      <trkpt lat="43.88879" lon="7.58431">
        <ele>777</ele>
        <time>2022-09-10T10:01:00.000Z</time>
      </trkpt>
      <trkpt lat="43.88886" lon="7.58425">
        <ele>777.59997558594</ele>
        <time>2022-09-10T10:01:04.000Z</time>
      </trkpt>
      <trkpt lat="43.88893" lon="7.58422">
        <ele>778.20001220703</ele>
        <time>2022-09-10T10:01:08.000Z</time>
      </trkpt>
      <trkpt lat="43.88895" lon="7.58422">
        <ele>778.40002441406</ele>
        <time>2022-09-10T10:01:09.000Z</time>
      </trkpt>
      <trkpt lat="43.88902" lon="7.5842">
        <ele>779.20001220703</ele>
        <time>2022-09-10T10:01:12.000Z</time>
      </trkpt>
      <trkpt lat="43.88908" lon="7.58418">
        <ele>779.79998779297</ele>
        <time>2022-09-10T10:01:15.000Z</time>
      </trkpt>
      <trkpt lat="43.88915" lon="7.58416">
        <ele>780.40002441406</ele>
        <time>2022-09-10T10:01:18.000Z</time>
      </trkpt>
      <trkpt lat="43.88921" lon="7.58414">
        <ele>781</ele>
        <time>2022-09-10T10:01:21.000Z</time>
      </trkpt>
      <trkpt lat="43.88933" lon="7.58413">
        <ele>781.40002441406</ele>
        <time>2022-09-10T10:01:26.000Z</time>
      </trkpt>
      <trkpt lat="43.88938" lon="7.58412">
        <ele>781.40002441406</ele>
        <time>2022-09-10T10:01:28.000Z</time>
      </trkpt>
      <trkpt lat="43.88955" lon="7.58409">
        <ele>782.40002441406</ele>
        <time>2022-09-10T10:01:34.000Z</time>
      </trkpt>
      <trkpt lat="43.88958" lon="7.58408">
        <ele>782.79998779297</ele>
        <time>2022-09-10T10:01:35.000Z</time>
      </trkpt>
      <trkpt lat="43.8897" lon="7.58405">
        <ele>783.79998779297</ele>
        <time>2022-09-10T10:01:39.000Z</time>
      </trkpt>
      <trkpt lat="43.8898" lon="7.58401">
        <ele>784.20001220703</ele>
        <time>2022-09-10T10:01:42.000Z</time>
      </trkpt>
      <trkpt lat="43.88998" lon="7.58396">
        <ele>785</ele>
        <time>2022-09-10T10:01:48.000Z</time>
      </trkpt>
      <trkpt lat="43.89004" lon="7.58395">
        <ele>785.20001220703</ele>
        <time>2022-09-10T10:01:50.000Z</time>
      </trkpt>
      <trkpt lat="43.89016" lon="7.58392">
        <ele>786</ele>
        <time>2022-09-10T10:01:54.000Z</time>
      </trkpt>
      <trkpt lat="43.89026" lon="7.58388">
        <ele>787.20001220703</ele>
        <time>2022-09-10T10:01:58.000Z</time>
      </trkpt>
      <trkpt lat="43.89041" lon="7.5838">
        <ele>787.59997558594</ele>
        <time>2022-09-10T10:02:05.000Z</time>
      </trkpt>
      <trkpt lat="43.89053" lon="7.58371">
        <ele>788.40002441406</ele>
        <time>2022-09-10T10:02:10.000Z</time>
      </trkpt>
      <trkpt lat="43.89061" lon="7.58362">
        <ele>789</ele>
        <time>2022-09-10T10:02:14.000Z</time>
      </trkpt>
      <trkpt lat="43.89069" lon="7.58354">
        <ele>789.40002441406</ele>
        <time>2022-09-10T10:02:18.000Z</time>
      </trkpt>
      <trkpt lat="43.89077" lon="7.58346">
        <ele>789.79998779297</ele>
        <time>2022-09-10T10:02:22.000Z</time>
      </trkpt>
      <trkpt lat="43.89089" lon="7.5833">
        <ele>790</ele>
        <time>2022-09-10T10:02:28.000Z</time>
      </trkpt>
      <trkpt lat="43.89094" lon="7.58321">
        <ele>790.59997558594</ele>
        <time>2022-09-10T10:02:31.000Z</time>
      </trkpt>
      <trkpt lat="43.89097" lon="7.58312">
        <ele>790.59997558594</ele>
        <time>2022-09-10T10:02:34.000Z</time>
      </trkpt>
      <trkpt lat="43.89099" lon="7.58295">
        <ele>791.20001220703</ele>
        <time>2022-09-10T10:02:39.000Z</time>
      </trkpt>
      <trkpt lat="43.891" lon="7.58281">
        <ele>791.79998779297</ele>
        <time>2022-09-10T10:02:43.000Z</time>
      </trkpt>
      <trkpt lat="43.89101" lon="7.58278">
        <ele>791.79998779297</ele>
        <time>2022-09-10T10:02:44.000Z</time>
      </trkpt>
      <trkpt lat="43.8911" lon="7.58255">
        <ele>793</ele>
        <time>2022-09-10T10:02:52.000Z</time>
      </trkpt>
      <trkpt lat="43.89117" lon="7.5824">
        <ele>793.79998779297</ele>
        <time>2022-09-10T10:02:58.000Z</time>
      </trkpt>
      <trkpt lat="43.89121" lon="7.5823">
        <ele>794</ele>
        <time>2022-09-10T10:03:01.000Z</time>
      </trkpt>
      <trkpt lat="43.89126" lon="7.58218">
        <ele>794.20001220703</ele>
        <time>2022-09-10T10:03:05.000Z</time>
      </trkpt>
      <trkpt lat="43.89133" lon="7.58199">
        <ele>795</ele>
        <time>2022-09-10T10:03:11.000Z</time>
      </trkpt>
      <trkpt lat="43.89137" lon="7.58188">
        <ele>795.79998779297</ele>
        <time>2022-09-10T10:03:15.000Z</time>
      </trkpt>
      <trkpt lat="43.89141" lon="7.58179">
        <ele>796</ele>
        <time>2022-09-10T10:03:18.000Z</time>
      </trkpt>
      <trkpt lat="43.8915" lon="7.58167">
        <ele>796.40002441406</ele>
        <time>2022-09-10T10:03:23.000Z</time>
      </trkpt>
      <trkpt lat="43.89157" lon="7.58157">
        <ele>797.20001220703</ele>
        <time>2022-09-10T10:03:27.000Z</time>
      </trkpt>
      <trkpt lat="43.89166" lon="7.58145">
        <ele>797.79998779297</ele>
        <time>2022-09-10T10:03:32.000Z</time>
      </trkpt>
      <trkpt lat="43.89169" lon="7.5814">
        <ele>798.20001220703</ele>
        <time>2022-09-10T10:03:34.000Z</time>
      </trkpt>
      <trkpt lat="43.89181" lon="7.58124">
        <ele>799.20001220703</ele>
        <time>2022-09-10T10:03:41.000Z</time>
      </trkpt>
      <trkpt lat="43.89192" lon="7.58108">
        <ele>800.40002441406</ele>
        <time>2022-09-10T10:03:47.000Z</time>
      </trkpt>
      <trkpt lat="43.89199" lon="7.58094">
        <ele>801.59997558594</ele>
        <time>2022-09-10T10:03:52.000Z</time>
      </trkpt>
      <trkpt lat="43.89204" lon="7.58079">
        <ele>802</ele>
        <time>2022-09-10T10:03:56.000Z</time>
      </trkpt>
      <trkpt lat="43.89206" lon="7.58065">
        <ele>802.79998779297</ele>
        <time>2022-09-10T10:04:00.000Z</time>
      </trkpt>
      <trkpt lat="43.89206" lon="7.58061">
        <ele>803.20001220703</ele>
        <time>2022-09-10T10:04:01.000Z</time>
      </trkpt>
      <trkpt lat="43.89206" lon="7.58054">
        <ele>803.79998779297</ele>
        <time>2022-09-10T10:04:03.000Z</time>
      </trkpt>
      <trkpt lat="43.89207" lon="7.58039">
        <ele>804.79998779297</ele>
        <time>2022-09-10T10:04:07.000Z</time>
      </trkpt>
      <trkpt lat="43.89208" lon="7.58032">
        <ele>805</ele>
        <time>2022-09-10T10:04:09.000Z</time>
      </trkpt>
      <trkpt lat="43.89206" lon="7.58023">
        <ele>805.40002441406</ele>
        <time>2022-09-10T10:04:11.000Z</time>
      </trkpt>
      <trkpt lat="43.89202" lon="7.58011">
        <ele>806</ele>
        <time>2022-09-10T10:04:14.000Z</time>
      </trkpt>
      <trkpt lat="43.89201" lon="7.58008">
        <ele>806.40002441406</ele>
        <time>2022-09-10T10:04:15.000Z</time>
      </trkpt>
      <trkpt lat="43.89197" lon="7.58">
        <ele>806.40002441406</ele>
        <time>2022-09-10T10:04:17.000Z</time>
      </trkpt>
      <trkpt lat="43.89187" lon="7.57982">
        <ele>807.20001220703</ele>
        <time>2022-09-10T10:04:22.000Z</time>
      </trkpt>
      <trkpt lat="43.89175" lon="7.57957">
        <ele>807.20001220703</ele>
        <time>2022-09-10T10:04:28.000Z</time>
      </trkpt>
      <trkpt lat="43.89172" lon="7.57948">
        <ele>807.40002441406</ele>
        <time>2022-09-10T10:04:30.000Z</time>
      </trkpt>
      <trkpt lat="43.89169" lon="7.57934">
        <ele>808.40002441406</ele>
        <time>2022-09-10T10:04:33.000Z</time>
      </trkpt>
      <trkpt lat="43.89167" lon="7.57925">
        <ele>809</ele>
        <time>2022-09-10T10:04:35.000Z</time>
      </trkpt>
      <trkpt lat="43.89162" lon="7.57904">
        <ele>809.40002441406</ele>
        <time>2022-09-10T10:04:40.000Z</time>
      </trkpt>
      <trkpt lat="43.89159" lon="7.57899">
        <ele>809.79998779297</ele>
        <time>2022-09-10T10:04:41.000Z</time>
      </trkpt>
      <trkpt lat="43.89152" lon="7.57888">
        <ele>810.40002441406</ele>
        <time>2022-09-10T10:04:44.000Z</time>
      </trkpt>
      <trkpt lat="43.89148" lon="7.57878">
        <ele>810.79998779297</ele>
        <time>2022-09-10T10:04:47.000Z</time>
      </trkpt>
      <trkpt lat="43.89139" lon="7.57859">
        <ele>811.59997558594</ele>
        <time>2022-09-10T10:04:52.000Z</time>
      </trkpt>
      <trkpt lat="43.89137" lon="7.57854">
        <ele>811.59997558594</ele>
        <time>2022-09-10T10:04:53.000Z</time>
      </trkpt>
      <trkpt lat="43.8913" lon="7.57832">
        <ele>812.20001220703</ele>
        <time>2022-09-10T10:04:58.000Z</time>
      </trkpt>
      <trkpt lat="43.8913" lon="7.57818">
        <ele>812.59997558594</ele>
        <time>2022-09-10T10:05:01.000Z</time>
      </trkpt>
      <trkpt lat="43.8913" lon="7.57809">
        <ele>812.79998779297</ele>
        <time>2022-09-10T10:05:03.000Z</time>
      </trkpt>
      <trkpt lat="43.89131" lon="7.57791">
        <ele>813.59997558594</ele>
        <time>2022-09-10T10:05:07.000Z</time>
      </trkpt>
      <trkpt lat="43.89131" lon="7.57772">
        <ele>814.79998779297</ele>
        <time>2022-09-10T10:05:11.000Z</time>
      </trkpt>
      <trkpt lat="43.89126" lon="7.57754">
        <ele>816</ele>
        <time>2022-09-10T10:05:15.000Z</time>
      </trkpt>
      <trkpt lat="43.89122" lon="7.57745">
        <ele>816.59997558594</ele>
        <time>2022-09-10T10:05:17.000Z</time>
      </trkpt>
      <trkpt lat="43.89118" lon="7.57736">
        <ele>817.20001220703</ele>
        <time>2022-09-10T10:05:19.000Z</time>
      </trkpt>
      <trkpt lat="43.89118" lon="7.57723">
        <ele>817.79998779297</ele>
        <time>2022-09-10T10:05:22.000Z</time>
      </trkpt>
      <trkpt lat="43.8912" lon="7.57715">
        <ele>818.40002441406</ele>
        <time>2022-09-10T10:05:24.000Z</time>
      </trkpt>
      <trkpt lat="43.89121" lon="7.57697">
        <ele>819.20001220703</ele>
        <time>2022-09-10T10:05:28.000Z</time>
      </trkpt>
      <trkpt lat="43.8912" lon="7.57692">
        <ele>819.40002441406</ele>
        <time>2022-09-10T10:05:29.000Z</time>
      </trkpt>
      <trkpt lat="43.89114" lon="7.5768">
        <ele>820</ele>
        <time>2022-09-10T10:05:32.000Z</time>
      </trkpt>
      <trkpt lat="43.89105" lon="7.57664">
        <ele>820.59997558594</ele>
        <time>2022-09-10T10:05:37.000Z</time>
      </trkpt>
      <trkpt lat="43.89104" lon="7.57661">
        <ele>820.79998779297</ele>
        <time>2022-09-10T10:05:38.000Z</time>
      </trkpt>
      <trkpt lat="43.89104" lon="7.57651">
        <ele>821.59997558594</ele>
        <time>2022-09-10T10:05:42.000Z</time>
      </trkpt>
      <trkpt lat="43.89107" lon="7.57646">
        <ele>821.79998779297</ele>
        <time>2022-09-10T10:05:44.000Z</time>
      </trkpt>
      <trkpt lat="43.89109" lon="7.57643">
        <ele>822</ele>
        <time>2022-09-10T10:05:46.000Z</time>
      </trkpt>
      <trkpt lat="43.89112" lon="7.5764">
        <ele>822.20001220703</ele>
        <time>2022-09-10T10:05:49.000Z</time>
      </trkpt>
      <trkpt lat="43.89114" lon="7.57637">
        <ele>822.20001220703</ele>
        <time>2022-09-10T10:05:52.000Z</time>
      </trkpt>
      <trkpt lat="43.89114" lon="7.57634">
        <ele>822.59997558594</ele>
        <time>2022-09-10T10:05:56.000Z</time>
      </trkpt>
      <trkpt lat="43.89113" lon="7.57636">
        <ele>822.40002441406</ele>
        <time>2022-09-10T10:05:58.000Z</time>
      </trkpt>
      <trkpt lat="43.89108" lon="7.57644">
        <ele>822.40002441406</ele>
        <time>2022-09-10T10:06:02.000Z</time>
      </trkpt>
      <trkpt lat="43.89106" lon="7.57648">
        <ele>822.20001220703</ele>
        <time>2022-09-10T10:06:08.000Z</time>
      </trkpt>
      <trkpt lat="43.89105" lon="7.57648">
        <ele>822.59997558594</ele>
        <time>2022-09-10T10:06:19.000Z</time>
      </trkpt>
      <trkpt lat="43.89105" lon="7.57648">
        <ele>822.79998779297</ele>
        <time>2022-09-10T10:06:28.000Z</time>
      </trkpt>
      <trkpt lat="43.89106" lon="7.57648">
        <ele>823</ele>
        <time>2022-09-10T10:06:49.000Z</time>
      </trkpt>
      <trkpt lat="43.89107" lon="7.5765">
        <ele>823</ele>
        <time>2022-09-10T10:07:09.000Z</time>
      </trkpt>
      <trkpt lat="43.89102" lon="7.57658">
        <ele>822.79998779297</ele>
        <time>2022-09-10T10:07:14.000Z</time>
      </trkpt>
      <trkpt lat="43.89099" lon="7.5766">
        <ele>823.79998779297</ele>
        <time>2022-09-10T10:07:18.000Z</time>
      </trkpt>
      <trkpt lat="43.89099" lon="7.5766">
        <ele>825</ele>
        <time>2022-09-10T10:07:21.000Z</time>
      </trkpt>
      <trkpt lat="43.89097" lon="7.57659">
        <ele>825</ele>
        <time>2022-09-10T10:07:26.000Z</time>
      </trkpt>
      <trkpt lat="43.89096" lon="7.57659">
        <ele>825.20001220703</ele>
        <time>2022-09-10T10:07:33.000Z</time>
      </trkpt>
      <trkpt lat="43.89095" lon="7.57656">
        <ele>825.59997558594</ele>
        <time>2022-09-10T10:07:40.000Z</time>
      </trkpt>
      <trkpt lat="43.89096" lon="7.57656">
        <ele>826</ele>
        <time>2022-09-10T10:07:43.000Z</time>
      </trkpt>
      <trkpt lat="43.89094" lon="7.57654">
        <ele>826.40002441406</ele>
        <time>2022-09-10T10:07:49.000Z</time>
      </trkpt>
      <trkpt lat="43.89093" lon="7.57652">
        <ele>827.20001220703</ele>
        <time>2022-09-10T10:07:54.000Z</time>
      </trkpt>
      <trkpt lat="43.89093" lon="7.57651">
        <ele>827.40002441406</ele>
        <time>2022-09-10T10:07:56.000Z</time>
      </trkpt>
      <trkpt lat="43.89091" lon="7.57649">
        <ele>828.20001220703</ele>
        <time>2022-09-10T10:08:01.000Z</time>
      </trkpt>
      <trkpt lat="43.89089" lon="7.57648">
        <ele>829.20001220703</ele>
        <time>2022-09-10T10:08:05.000Z</time>
      </trkpt>
      <trkpt lat="43.89089" lon="7.57648">
        <ele>829.59997558594</ele>
        <time>2022-09-10T10:08:06.000Z</time>
      </trkpt>
      <trkpt lat="43.89089" lon="7.57648">
        <ele>830.59997558594</ele>
        <time>2022-09-10T10:08:09.000Z</time>
      </trkpt>
      <trkpt lat="43.89089" lon="7.57648">
        <ele>830.79998779297</ele>
        <time>2022-09-10T10:08:12.000Z</time>
      </trkpt>
      <trkpt lat="43.89088" lon="7.57647">
        <ele>831</ele>
        <time>2022-09-10T10:08:25.000Z</time>
      </trkpt>
      <trkpt lat="43.89084" lon="7.57644">
        <ele>831.59997558594</ele>
        <time>2022-09-10T10:08:31.000Z</time>
      </trkpt>
      <trkpt lat="43.89083" lon="7.57642">
        <ele>832.20001220703</ele>
        <time>2022-09-10T10:08:34.000Z</time>
      </trkpt>
      <trkpt lat="43.89081" lon="7.57642">
        <ele>832.79998779297</ele>
        <time>2022-09-10T10:08:37.000Z</time>
      </trkpt>
      <trkpt lat="43.89081" lon="7.57642">
        <ele>833.20001220703</ele>
        <time>2022-09-10T10:08:39.000Z</time>
      </trkpt>
      <trkpt lat="43.8908" lon="7.57642">
        <ele>833.59997558594</ele>
        <time>2022-09-10T10:08:48.000Z</time>
      </trkpt>
      <trkpt lat="43.89079" lon="7.57642">
        <ele>833.59997558594</ele>
        <time>2022-09-10T10:08:49.000Z</time>
      </trkpt>
      <trkpt lat="43.89075" lon="7.57642">
        <ele>833.59997558594</ele>
        <time>2022-09-10T10:08:52.000Z</time>
      </trkpt>
      <trkpt lat="43.8907" lon="7.57642">
        <ele>833.79998779297</ele>
        <time>2022-09-10T10:08:55.000Z</time>
      </trkpt>
      <trkpt lat="43.89067" lon="7.57642">
        <ele>834.20001220703</ele>
        <time>2022-09-10T10:08:57.000Z</time>
      </trkpt>
      <trkpt lat="43.89066" lon="7.57641">
        <ele>834.40002441406</ele>
        <time>2022-09-10T10:08:58.000Z</time>
      </trkpt>
      <trkpt lat="43.89066" lon="7.5764">
        <ele>834.79998779297</ele>
        <time>2022-09-10T10:09:00.000Z</time>
      </trkpt>
      <trkpt lat="43.8907" lon="7.57635">
        <ele>835.20001220703</ele>
        <time>2022-09-10T10:09:06.000Z</time>
      </trkpt>
      <trkpt lat="43.89076" lon="7.57623">
        <ele>835.79998779297</ele>
        <time>2022-09-10T10:09:12.000Z</time>
      </trkpt>
      <trkpt lat="43.89077" lon="7.57621">
        <ele>836.20001220703</ele>
        <time>2022-09-10T10:09:13.000Z</time>
      </trkpt>
      <trkpt lat="43.89081" lon="7.57616">
        <ele>837.20001220703</ele>
        <time>2022-09-10T10:09:16.000Z</time>
      </trkpt>
      <trkpt lat="43.89082" lon="7.57613">
        <ele>838.79998779297</ele>
        <time>2022-09-10T10:09:19.000Z</time>
      </trkpt>
      <trkpt lat="43.89084" lon="7.57609">
        <ele>839.79998779297</ele>
        <time>2022-09-10T10:09:26.000Z</time>
      </trkpt>
      <trkpt lat="43.89084" lon="7.57608">
        <ele>839.79998779297</ele>
        <time>2022-09-10T10:09:27.000Z</time>
      </trkpt>
      <trkpt lat="43.89084" lon="7.57606">
        <ele>841</ele>
        <time>2022-09-10T10:09:32.000Z</time>
      </trkpt>
      <trkpt lat="43.89084" lon="7.57606">
        <ele>841.20001220703</ele>
        <time>2022-09-10T10:09:34.000Z</time>
      </trkpt>
      <trkpt lat="43.89085" lon="7.57605">
        <ele>841.20001220703</ele>
        <time>2022-09-10T10:09:47.000Z</time>
      </trkpt>
      <trkpt lat="43.89088" lon="7.57598">
        <ele>841.59997558594</ele>
        <time>2022-09-10T10:09:51.000Z</time>
      </trkpt>
      <trkpt lat="43.89088" lon="7.57595">
        <ele>841.59997558594</ele>
        <time>2022-09-10T10:09:52.000Z</time>
      </trkpt>
      <trkpt lat="43.89089" lon="7.57592">
        <ele>842</ele>
        <time>2022-09-10T10:09:53.000Z</time>
      </trkpt>
      <trkpt lat="43.8909" lon="7.57589">
        <ele>843.59997558594</ele>
        <time>2022-09-10T10:09:56.000Z</time>
      </trkpt>
      <trkpt lat="43.8909" lon="7.57588">
        <ele>844.20001220703</ele>
        <time>2022-09-10T10:09:57.000Z</time>
      </trkpt>
      <trkpt lat="43.8909" lon="7.57588">
        <ele>844.59997558594</ele>
        <time>2022-09-10T10:09:58.000Z</time>
      </trkpt>
      <trkpt lat="43.89091" lon="7.57586">
        <ele>845.59997558594</ele>
        <time>2022-09-10T10:10:03.000Z</time>
      </trkpt>
      <trkpt lat="43.89091" lon="7.57586">
        <ele>845.59997558594</ele>
        <time>2022-09-10T10:10:04.000Z</time>
      </trkpt>
      <trkpt lat="43.89096" lon="7.57575">
        <ele>846.40002441406</ele>
        <time>2022-09-10T10:10:09.000Z</time>
      </trkpt>
      <trkpt lat="43.89097" lon="7.57573">
        <ele>846.79998779297</ele>
        <time>2022-09-10T10:10:10.000Z</time>
      </trkpt>
      <trkpt lat="43.89098" lon="7.57569">
        <ele>848</ele>
        <time>2022-09-10T10:10:12.000Z</time>
      </trkpt>
      <trkpt lat="43.89099" lon="7.57567">
        <ele>849</ele>
        <time>2022-09-10T10:10:13.000Z</time>
      </trkpt>
      <trkpt lat="43.89101" lon="7.57559">
        <ele>850</ele>
        <time>2022-09-10T10:10:16.000Z</time>
      </trkpt>
      <trkpt lat="43.89103" lon="7.57557">
        <ele>850.59997558594</ele>
        <time>2022-09-10T10:10:17.000Z</time>
      </trkpt>
      <trkpt lat="43.89105" lon="7.57553">
        <ele>851.20001220703</ele>
        <time>2022-09-10T10:10:19.000Z</time>
      </trkpt>
      <trkpt lat="43.89107" lon="7.57549">
        <ele>852.59997558594</ele>
        <time>2022-09-10T10:10:22.000Z</time>
      </trkpt>
      <trkpt lat="43.89107" lon="7.5755">
        <ele>853.59997558594</ele>
        <time>2022-09-10T10:10:23.000Z</time>
      </trkpt>
      <trkpt lat="43.89107" lon="7.57549">
        <ele>854.40002441406</ele>
        <time>2022-09-10T10:10:24.000Z</time>
      </trkpt>
      <trkpt lat="43.89107" lon="7.57549">
        <ele>855.59997558594</ele>
        <time>2022-09-10T10:10:26.000Z</time>
      </trkpt>
      <trkpt lat="43.89109" lon="7.57546">
        <ele>856.20001220703</ele>
        <time>2022-09-10T10:10:31.000Z</time>
      </trkpt>
      <trkpt lat="43.8911" lon="7.57542">
        <ele>856.40002441406</ele>
        <time>2022-09-10T10:10:33.000Z</time>
      </trkpt>
      <trkpt lat="43.89111" lon="7.57541">
        <ele>856.59997558594</ele>
        <time>2022-09-10T10:10:35.000Z</time>
      </trkpt>
      <trkpt lat="43.89112" lon="7.57541">
        <ele>857</ele>
        <time>2022-09-10T10:10:36.000Z</time>
      </trkpt>
      <trkpt lat="43.89112" lon="7.57541">
        <ele>858</ele>
        <time>2022-09-10T10:10:42.000Z</time>
      </trkpt>
      <trkpt lat="43.89112" lon="7.57541">
        <ele>858</ele>
        <time>2022-09-10T10:10:48.000Z</time>
      </trkpt>
      <trkpt lat="43.89112" lon="7.57541">
        <ele>857.79998779297</ele>
        <time>2022-09-10T10:11:03.000Z</time>
      </trkpt>
      <trkpt lat="43.89114" lon="7.5754">
        <ele>857.79998779297</ele>
        <time>2022-09-10T10:11:10.000Z</time>
      </trkpt>
      <trkpt lat="43.89115" lon="7.57543">
        <ele>858</ele>
        <time>2022-09-10T10:11:18.000Z</time>
      </trkpt>
      <trkpt lat="43.89117" lon="7.57544">
        <ele>857.79998779297</ele>
        <time>2022-09-10T10:11:23.000Z</time>
      </trkpt>
      <trkpt lat="43.8912" lon="7.57545">
        <ele>857.40002441406</ele>
        <time>2022-09-10T10:11:27.000Z</time>
      </trkpt>
      <trkpt lat="43.89121" lon="7.57546">
        <ele>857.20001220703</ele>
        <time>2022-09-10T10:11:28.000Z</time>
      </trkpt>
      <trkpt lat="43.89122" lon="7.57547">
        <ele>857</ele>
        <time>2022-09-10T10:11:30.000Z</time>
      </trkpt>
      <trkpt lat="43.89125" lon="7.57546">
        <ele>856.40002441406</ele>
        <time>2022-09-10T10:11:33.000Z</time>
      </trkpt>
      <trkpt lat="43.89126" lon="7.57545">
        <ele>855.79998779297</ele>
        <time>2022-09-10T10:11:36.000Z</time>
      </trkpt>
      <trkpt lat="43.89126" lon="7.57545">
        <ele>855.59997558594</ele>
        <time>2022-09-10T10:11:37.000Z</time>
      </trkpt>
      <trkpt lat="43.89127" lon="7.57545">
        <ele>855.20001220703</ele>
        <time>2022-09-10T10:11:43.000Z</time>
      </trkpt>
      <trkpt lat="43.89133" lon="7.57545">
        <ele>855.40002441406</ele>
        <time>2022-09-10T10:11:47.000Z</time>
      </trkpt>
      <trkpt lat="43.89145" lon="7.57544">
        <ele>855.20001220703</ele>
        <time>2022-09-10T10:11:52.000Z</time>
      </trkpt>
      <trkpt lat="43.89149" lon="7.57542">
        <ele>854.40002441406</ele>
        <time>2022-09-10T10:11:54.000Z</time>
      </trkpt>
      <trkpt lat="43.89153" lon="7.5754">
        <ele>853.20001220703</ele>
        <time>2022-09-10T10:11:56.000Z</time>
      </trkpt>
      <trkpt lat="43.89153" lon="7.57539">
        <ele>852.40002441406</ele>
        <time>2022-09-10T10:11:57.000Z</time>
      </trkpt>
      <trkpt lat="43.89153" lon="7.5754">
        <ele>851.79998779297</ele>
        <time>2022-09-10T10:11:58.000Z</time>
      </trkpt>
      <trkpt lat="43.89154" lon="7.57537">
        <ele>851.59997558594</ele>
        <time>2022-09-10T10:12:02.000Z</time>
      </trkpt>
      <trkpt lat="43.89158" lon="7.57534">
        <ele>852.59997558594</ele>
        <time>2022-09-10T10:12:09.000Z</time>
      </trkpt>
      <trkpt lat="43.89159" lon="7.57535">
        <ele>852.59997558594</ele>
        <time>2022-09-10T10:12:11.000Z</time>
      </trkpt>
      <trkpt lat="43.89162" lon="7.57535">
        <ele>851.40002441406</ele>
        <time>2022-09-10T10:12:15.000Z</time>
      </trkpt>
      <trkpt lat="43.89162" lon="7.57535">
        <ele>850.59997558594</ele>
        <time>2022-09-10T10:12:17.000Z</time>
      </trkpt>
      <trkpt lat="43.89166" lon="7.57533">
        <ele>850.59997558594</ele>
        <time>2022-09-10T10:12:21.000Z</time>
      </trkpt>
      <trkpt lat="43.89179" lon="7.57529">
        <ele>849.79998779297</ele>
        <time>2022-09-10T10:12:28.000Z</time>
      </trkpt>
      <trkpt lat="43.89182" lon="7.57528">
        <ele>849</ele>
        <time>2022-09-10T10:12:29.000Z</time>
      </trkpt>
      <trkpt lat="43.89183" lon="7.57527">
        <ele>847.79998779297</ele>
        <time>2022-09-10T10:12:31.000Z</time>
      </trkpt>
      <trkpt lat="43.89184" lon="7.57527">
        <ele>847.40002441406</ele>
        <time>2022-09-10T10:12:32.000Z</time>
      </trkpt>
      <trkpt lat="43.89183" lon="7.57526">
        <ele>847.40002441406</ele>
        <time>2022-09-10T10:12:40.000Z</time>
      </trkpt>
      <trkpt lat="43.89191" lon="7.57524">
        <ele>847.40002441406</ele>
        <time>2022-09-10T10:12:43.000Z</time>
      </trkpt>
      <trkpt lat="43.892" lon="7.57524">
        <ele>846.79998779297</ele>
        <time>2022-09-10T10:12:47.000Z</time>
      </trkpt>
      <trkpt lat="43.89202" lon="7.57523">
        <ele>846.59997558594</ele>
        <time>2022-09-10T10:12:49.000Z</time>
      </trkpt>
      <trkpt lat="43.89205" lon="7.57522">
        <ele>846.59997558594</ele>
        <time>2022-09-10T10:12:51.000Z</time>
      </trkpt>
      <trkpt lat="43.89208" lon="7.57522">
        <ele>846.40002441406</ele>
        <time>2022-09-10T10:12:54.000Z</time>
      </trkpt>
      <trkpt lat="43.89211" lon="7.5752">
        <ele>845.79998779297</ele>
        <time>2022-09-10T10:12:57.000Z</time>
      </trkpt>
      <trkpt lat="43.89217" lon="7.57518">
        <ele>845.40002441406</ele>
        <time>2022-09-10T10:13:00.000Z</time>
      </trkpt>
      <trkpt lat="43.89225" lon="7.57517">
        <ele>845</ele>
        <time>2022-09-10T10:13:05.000Z</time>
      </trkpt>
      <trkpt lat="43.89235" lon="7.57517">
        <ele>846.79998779297</ele>
        <time>2022-09-10T10:13:11.000Z</time>
      </trkpt>
      <trkpt lat="43.89242" lon="7.57517">
        <ele>848</ele>
        <time>2022-09-10T10:13:14.000Z</time>
      </trkpt>
      <trkpt lat="43.89248" lon="7.57517">
        <ele>849.40002441406</ele>
        <time>2022-09-10T10:13:17.000Z</time>
      </trkpt>
      <trkpt lat="43.89251" lon="7.57517">
        <ele>850.59997558594</ele>
        <time>2022-09-10T10:13:19.000Z</time>
      </trkpt>
      <trkpt lat="43.89254" lon="7.57515">
        <ele>852</ele>
        <time>2022-09-10T10:13:21.000Z</time>
      </trkpt>
      <trkpt lat="43.89258" lon="7.57513">
        <ele>853.79998779297</ele>
        <time>2022-09-10T10:13:23.000Z</time>
      </trkpt>
      <trkpt lat="43.8926" lon="7.57512">
        <ele>854.79998779297</ele>
        <time>2022-09-10T10:13:24.000Z</time>
      </trkpt>
      <trkpt lat="43.89262" lon="7.57511">
        <ele>855.59997558594</ele>
        <time>2022-09-10T10:13:25.000Z</time>
      </trkpt>
      <trkpt lat="43.89264" lon="7.57511">
        <ele>856.59997558594</ele>
        <time>2022-09-10T10:13:26.000Z</time>
      </trkpt>
      <trkpt lat="43.89267" lon="7.5751">
        <ele>858.40002441406</ele>
        <time>2022-09-10T10:13:28.000Z</time>
      </trkpt>
      <trkpt lat="43.8927" lon="7.57509">
        <ele>859.59997558594</ele>
        <time>2022-09-10T10:13:30.000Z</time>
      </trkpt>
      <trkpt lat="43.89274" lon="7.57508">
        <ele>860.40002441406</ele>
        <time>2022-09-10T10:13:32.000Z</time>
      </trkpt>
      <trkpt lat="43.89276" lon="7.57507">
        <ele>860.79998779297</ele>
        <time>2022-09-10T10:13:33.000Z</time>
      </trkpt>
      <trkpt lat="43.89284" lon="7.57504">
        <ele>862</ele>
        <time>2022-09-10T10:13:37.000Z</time>
      </trkpt>
      <trkpt lat="43.89288" lon="7.57503">
        <ele>863</ele>
        <time>2022-09-10T10:13:39.000Z</time>
      </trkpt>
      <trkpt lat="43.89291" lon="7.575">
        <ele>864.79998779297</ele>
        <time>2022-09-10T10:13:41.000Z</time>
      </trkpt>
      <trkpt lat="43.89292" lon="7.57499">
        <ele>865.79998779297</ele>
        <time>2022-09-10T10:13:42.000Z</time>
      </trkpt>
      <trkpt lat="43.89296" lon="7.57496">
        <ele>867.40002441406</ele>
        <time>2022-09-10T10:13:44.000Z</time>
      </trkpt>
      <trkpt lat="43.89299" lon="7.57494">
        <ele>868.59997558594</ele>
        <time>2022-09-10T10:13:46.000Z</time>
      </trkpt>
      <trkpt lat="43.89303" lon="7.57492">
        <ele>869.79998779297</ele>
        <time>2022-09-10T10:13:48.000Z</time>
      </trkpt>
      <trkpt lat="43.89307" lon="7.57489">
        <ele>870.79998779297</ele>
        <time>2022-09-10T10:13:51.000Z</time>
      </trkpt>
      <trkpt lat="43.8931" lon="7.57486">
        <ele>871.20001220703</ele>
        <time>2022-09-10T10:13:53.000Z</time>
      </trkpt>
      <trkpt lat="43.89312" lon="7.57483">
        <ele>871.79998779297</ele>
        <time>2022-09-10T10:13:55.000Z</time>
      </trkpt>
      <trkpt lat="43.89313" lon="7.57476">
        <ele>872.79998779297</ele>
        <time>2022-09-10T10:13:58.000Z</time>
      </trkpt>
      <trkpt lat="43.89313" lon="7.57474">
        <ele>873.40002441406</ele>
        <time>2022-09-10T10:13:59.000Z</time>
      </trkpt>
      <trkpt lat="43.89312" lon="7.57471">
        <ele>874.20001220703</ele>
        <time>2022-09-10T10:14:01.000Z</time>
      </trkpt>
      <trkpt lat="43.89309" lon="7.57465">
        <ele>875.20001220703</ele>
        <time>2022-09-10T10:14:04.000Z</time>
      </trkpt>
      <trkpt lat="43.89305" lon="7.57453">
        <ele>874.79998779297</ele>
        <time>2022-09-10T10:14:08.000Z</time>
      </trkpt>
      <trkpt lat="43.89304" lon="7.57447">
        <ele>874.40002441406</ele>
        <time>2022-09-10T10:14:13.000Z</time>
      </trkpt>
      <trkpt lat="43.89304" lon="7.57447">
        <ele>875.20001220703</ele>
        <time>2022-09-10T10:14:20.000Z</time>
      </trkpt>
      <trkpt lat="43.89304" lon="7.57447">
        <ele>875.20001220703</ele>
        <time>2022-09-10T10:14:29.000Z</time>
      </trkpt>
      <trkpt lat="43.89304" lon="7.57447">
        <ele>875.20001220703</ele>
        <time>2022-09-10T10:14:48.000Z</time>
      </trkpt>
      <trkpt lat="43.89304" lon="7.57445">
        <ele>875.20001220703</ele>
        <time>2022-09-10T10:14:56.000Z</time>
      </trkpt>
      <trkpt lat="43.89305" lon="7.57442">
        <ele>875.20001220703</ele>
        <time>2022-09-10T10:14:58.000Z</time>
      </trkpt>
      <trkpt lat="43.89306" lon="7.57435">
        <ele>875.20001220703</ele>
        <time>2022-09-10T10:15:00.000Z</time>
      </trkpt>
      <trkpt lat="43.89308" lon="7.57425">
        <ele>874.20001220703</ele>
        <time>2022-09-10T10:15:04.000Z</time>
      </trkpt>
      <trkpt lat="43.89308" lon="7.57422">
        <ele>873.79998779297</ele>
        <time>2022-09-10T10:15:05.000Z</time>
      </trkpt>
      <trkpt lat="43.8931" lon="7.57414">
        <ele>872.79998779297</ele>
        <time>2022-09-10T10:15:07.000Z</time>
      </trkpt>
      <trkpt lat="43.89309" lon="7.57407">
        <ele>871.59997558594</ele>
        <time>2022-09-10T10:15:09.000Z</time>
      </trkpt>
      <trkpt lat="43.89308" lon="7.57402">
        <ele>871.40002441406</ele>
        <time>2022-09-10T10:15:10.000Z</time>
      </trkpt>
      <trkpt lat="43.89309" lon="7.57391">
        <ele>869.79998779297</ele>
        <time>2022-09-10T10:15:12.000Z</time>
      </trkpt>
      <trkpt lat="43.89311" lon="7.5738">
        <ele>867.79998779297</ele>
        <time>2022-09-10T10:15:14.000Z</time>
      </trkpt>
      <trkpt lat="43.89312" lon="7.57375">
        <ele>866.59997558594</ele>
        <time>2022-09-10T10:15:15.000Z</time>
      </trkpt>
      <trkpt lat="43.89314" lon="7.57363">
        <ele>865.40002441406</ele>
        <time>2022-09-10T10:15:17.000Z</time>
      </trkpt>
      <trkpt lat="43.89318" lon="7.57346">
        <ele>864.20001220703</ele>
        <time>2022-09-10T10:15:20.000Z</time>
      </trkpt>
      <trkpt lat="43.89315" lon="7.57332">
        <ele>863.40002441406</ele>
        <time>2022-09-10T10:15:24.000Z</time>
      </trkpt>
      <trkpt lat="43.89315" lon="7.5733">
        <ele>863.59997558594</ele>
        <time>2022-09-10T10:15:25.000Z</time>
      </trkpt>
      <trkpt lat="43.89316" lon="7.57323">
        <ele>865.40002441406</ele>
        <time>2022-09-10T10:15:28.000Z</time>
      </trkpt>
      <trkpt lat="43.8932" lon="7.57313">
        <ele>866.40002441406</ele>
        <time>2022-09-10T10:15:31.000Z</time>
      </trkpt>
      <trkpt lat="43.89333" lon="7.57305">
        <ele>866.20001220703</ele>
        <time>2022-09-10T10:15:35.000Z</time>
      </trkpt>
      <trkpt lat="43.89342" lon="7.57307">
        <ele>865.40002441406</ele>
        <time>2022-09-10T10:15:38.000Z</time>
      </trkpt>
      <trkpt lat="43.89344" lon="7.57307">
        <ele>865.20001220703</ele>
        <time>2022-09-10T10:15:39.000Z</time>
      </trkpt>
      <trkpt lat="43.89351" lon="7.57312">
        <ele>864.20001220703</ele>
        <time>2022-09-10T10:15:42.000Z</time>
      </trkpt>
      <trkpt lat="43.89356" lon="7.57317">
        <ele>863.79998779297</ele>
        <time>2022-09-10T10:15:44.000Z</time>
      </trkpt>
      <trkpt lat="43.89358" lon="7.5732">
        <ele>863.20001220703</ele>
        <time>2022-09-10T10:15:45.000Z</time>
      </trkpt>
      <trkpt lat="43.89363" lon="7.57322">
        <ele>861.79998779297</ele>
        <time>2022-09-10T10:15:47.000Z</time>
      </trkpt>
      <trkpt lat="43.89365" lon="7.57321">
        <ele>861</ele>
        <time>2022-09-10T10:15:48.000Z</time>
      </trkpt>
      <trkpt lat="43.89367" lon="7.5732">
        <ele>860.40002441406</ele>
        <time>2022-09-10T10:15:49.000Z</time>
      </trkpt>
      <trkpt lat="43.89379" lon="7.57314">
        <ele>861</ele>
        <time>2022-09-10T10:15:56.000Z</time>
      </trkpt>
      <trkpt lat="43.89384" lon="7.57311">
        <ele>861.59997558594</ele>
        <time>2022-09-10T10:15:59.000Z</time>
      </trkpt>
      <trkpt lat="43.89392" lon="7.57305">
        <ele>862.79998779297</ele>
        <time>2022-09-10T10:16:04.000Z</time>
      </trkpt>
      <trkpt lat="43.89396" lon="7.57303">
        <ele>863.20001220703</ele>
        <time>2022-09-10T10:16:06.000Z</time>
      </trkpt>
      <trkpt lat="43.89404" lon="7.57296">
        <ele>863.79998779297</ele>
        <time>2022-09-10T10:16:11.000Z</time>
      </trkpt>
      <trkpt lat="43.89409" lon="7.57292">
        <ele>864.20001220703</ele>
        <time>2022-09-10T10:16:14.000Z</time>
      </trkpt>
      <trkpt lat="43.89415" lon="7.57286">
        <ele>864.79998779297</ele>
        <time>2022-09-10T10:16:18.000Z</time>
      </trkpt>
      <trkpt lat="43.89418" lon="7.57284">
        <ele>865.20001220703</ele>
        <time>2022-09-10T10:16:20.000Z</time>
      </trkpt>
      <trkpt lat="43.89425" lon="7.5728">
        <ele>866</ele>
        <time>2022-09-10T10:16:24.000Z</time>
      </trkpt>
      <trkpt lat="43.89432" lon="7.57278">
        <ele>867</ele>
        <time>2022-09-10T10:16:28.000Z</time>
      </trkpt>
      <trkpt lat="43.89437" lon="7.57277">
        <ele>867.40002441406</ele>
        <time>2022-09-10T10:16:30.000Z</time>
      </trkpt>
      <trkpt lat="43.89445" lon="7.57277">
        <ele>867.79998779297</ele>
        <time>2022-09-10T10:16:34.000Z</time>
      </trkpt>
      <trkpt lat="43.8945" lon="7.57277">
        <ele>868.40002441406</ele>
        <time>2022-09-10T10:16:37.000Z</time>
      </trkpt>
      <trkpt lat="43.89454" lon="7.57276">
        <ele>869.20001220703</ele>
        <time>2022-09-10T10:16:40.000Z</time>
      </trkpt>
      <trkpt lat="43.89456" lon="7.57275">
        <ele>869.59997558594</ele>
        <time>2022-09-10T10:16:41.000Z</time>
      </trkpt>
      <trkpt lat="43.89464" lon="7.57272">
        <ele>870.59997558594</ele>
        <time>2022-09-10T10:16:46.000Z</time>
      </trkpt>
      <trkpt lat="43.89466" lon="7.57272">
        <ele>870.59997558594</ele>
        <time>2022-09-10T10:16:47.000Z</time>
      </trkpt>
      <trkpt lat="43.89475" lon="7.57269">
        <ele>871.59997558594</ele>
        <time>2022-09-10T10:16:53.000Z</time>
      </trkpt>
      <trkpt lat="43.89477" lon="7.57268">
        <ele>871.79998779297</ele>
        <time>2022-09-10T10:16:54.000Z</time>
      </trkpt>
      <trkpt lat="43.89488" lon="7.57267">
        <ele>872.79998779297</ele>
        <time>2022-09-10T10:17:00.000Z</time>
      </trkpt>
      <trkpt lat="43.8949" lon="7.57267">
        <ele>873</ele>
        <time>2022-09-10T10:17:01.000Z</time>
      </trkpt>
      <trkpt lat="43.89498" lon="7.57264">
        <ele>873.59997558594</ele>
        <time>2022-09-10T10:17:06.000Z</time>
      </trkpt>
      <trkpt lat="43.89501" lon="7.57263">
        <ele>874</ele>
        <time>2022-09-10T10:17:08.000Z</time>
      </trkpt>
      <trkpt lat="43.89512" lon="7.57261">
        <ele>875</ele>
        <time>2022-09-10T10:17:14.000Z</time>
      </trkpt>
      <trkpt lat="43.89526" lon="7.57257">
        <ele>876</ele>
        <time>2022-09-10T10:17:22.000Z</time>
      </trkpt>
      <trkpt lat="43.89539" lon="7.57255">
        <ele>877</ele>
        <time>2022-09-10T10:17:29.000Z</time>
      </trkpt>
      <trkpt lat="43.89541" lon="7.57255">
        <ele>877</ele>
        <time>2022-09-10T10:17:30.000Z</time>
      </trkpt>
      <trkpt lat="43.8955" lon="7.57251">
        <ele>878.40002441406</ele>
        <time>2022-09-10T10:17:35.000Z</time>
      </trkpt>
      <trkpt lat="43.89552" lon="7.57251">
        <ele>878.40002441406</ele>
        <time>2022-09-10T10:17:36.000Z</time>
      </trkpt>
      <trkpt lat="43.89561" lon="7.57249">
        <ele>879.59997558594</ele>
        <time>2022-09-10T10:17:41.000Z</time>
      </trkpt>
      <trkpt lat="43.89567" lon="7.57247">
        <ele>880.20001220703</ele>
        <time>2022-09-10T10:17:46.000Z</time>
      </trkpt>
      <trkpt lat="43.89571" lon="7.57246">
        <ele>880.59997558594</ele>
        <time>2022-09-10T10:17:48.000Z</time>
      </trkpt>
      <trkpt lat="43.89581" lon="7.57243">
        <ele>881.20001220703</ele>
        <time>2022-09-10T10:17:53.000Z</time>
      </trkpt>
      <trkpt lat="43.89585" lon="7.57242">
        <ele>881.59997558594</ele>
        <time>2022-09-10T10:17:55.000Z</time>
      </trkpt>
      <trkpt lat="43.89597" lon="7.57239">
        <ele>882.40002441406</ele>
        <time>2022-09-10T10:18:01.000Z</time>
      </trkpt>
      <trkpt lat="43.89601" lon="7.57239">
        <ele>882.79998779297</ele>
        <time>2022-09-10T10:18:03.000Z</time>
      </trkpt>
      <trkpt lat="43.89615" lon="7.57234">
        <ele>883.59997558594</ele>
        <time>2022-09-10T10:18:10.000Z</time>
      </trkpt>
      <trkpt lat="43.89616" lon="7.57234">
        <ele>884</ele>
        <time>2022-09-10T10:18:11.000Z</time>
      </trkpt>
      <trkpt lat="43.89627" lon="7.57232">
        <ele>884.79998779297</ele>
        <time>2022-09-10T10:18:16.000Z</time>
      </trkpt>
      <trkpt lat="43.89631" lon="7.57232">
        <ele>885</ele>
        <time>2022-09-10T10:18:18.000Z</time>
      </trkpt>
      <trkpt lat="43.89639" lon="7.57232">
        <ele>885.59997558594</ele>
        <time>2022-09-10T10:18:22.000Z</time>
      </trkpt>
      <trkpt lat="43.89644" lon="7.5723">
        <ele>886</ele>
        <time>2022-09-10T10:18:25.000Z</time>
      </trkpt>
      <trkpt lat="43.89651" lon="7.57227">
        <ele>886.79998779297</ele>
        <time>2022-09-10T10:18:29.000Z</time>
      </trkpt>
      <trkpt lat="43.89653" lon="7.57226">
        <ele>887.20001220703</ele>
        <time>2022-09-10T10:18:30.000Z</time>
      </trkpt>
      <trkpt lat="43.89662" lon="7.5722">
        <ele>887.79998779297</ele>
        <time>2022-09-10T10:18:35.000Z</time>
      </trkpt>
      <trkpt lat="43.89667" lon="7.57216">
        <ele>888.20001220703</ele>
        <time>2022-09-10T10:18:38.000Z</time>
      </trkpt>
      <trkpt lat="43.89674" lon="7.5721">
        <ele>888.79998779297</ele>
        <time>2022-09-10T10:18:42.000Z</time>
      </trkpt>
      <trkpt lat="43.89679" lon="7.57207">
        <ele>889.40002441406</ele>
        <time>2022-09-10T10:18:45.000Z</time>
      </trkpt>
      <trkpt lat="43.89683" lon="7.57204">
        <ele>890</ele>
        <time>2022-09-10T10:18:47.000Z</time>
      </trkpt>
      <trkpt lat="43.89686" lon="7.57201">
        <ele>890.59997558594</ele>
        <time>2022-09-10T10:18:49.000Z</time>
      </trkpt>
      <trkpt lat="43.89693" lon="7.57197">
        <ele>891</ele>
        <time>2022-09-10T10:18:53.000Z</time>
      </trkpt>
      <trkpt lat="43.89701" lon="7.57192">
        <ele>891.79998779297</ele>
        <time>2022-09-10T10:18:58.000Z</time>
      </trkpt>
      <trkpt lat="43.89705" lon="7.5719">
        <ele>892</ele>
        <time>2022-09-10T10:19:00.000Z</time>
      </trkpt>
      <trkpt lat="43.8971" lon="7.57187">
        <ele>892.79998779297</ele>
        <time>2022-09-10T10:19:03.000Z</time>
      </trkpt>
      <trkpt lat="43.89718" lon="7.5718">
        <ele>893.20001220703</ele>
        <time>2022-09-10T10:19:07.000Z</time>
      </trkpt>
      <trkpt lat="43.89725" lon="7.57175">
        <ele>893.79998779297</ele>
        <time>2022-09-10T10:19:11.000Z</time>
      </trkpt>
      <trkpt lat="43.8973" lon="7.57169">
        <ele>894.59997558594</ele>
        <time>2022-09-10T10:19:15.000Z</time>
      </trkpt>
      <trkpt lat="43.89733" lon="7.57165">
        <ele>895</ele>
        <time>2022-09-10T10:19:17.000Z</time>
      </trkpt>
      <trkpt lat="43.8974" lon="7.57154">
        <ele>896.20001220703</ele>
        <time>2022-09-10T10:19:22.000Z</time>
      </trkpt>
      <trkpt lat="43.89747" lon="7.57143">
        <ele>897.20001220703</ele>
        <time>2022-09-10T10:19:27.000Z</time>
      </trkpt>
      <trkpt lat="43.89756" lon="7.57133">
        <ele>898</ele>
        <time>2022-09-10T10:19:33.000Z</time>
      </trkpt>
      <trkpt lat="43.89757" lon="7.57131">
        <ele>898.40002441406</ele>
        <time>2022-09-10T10:19:34.000Z</time>
      </trkpt>
      <trkpt lat="43.89766" lon="7.57123">
        <ele>899.59997558594</ele>
        <time>2022-09-10T10:19:39.000Z</time>
      </trkpt>
      <trkpt lat="43.89768" lon="7.57122">
        <ele>899.79998779297</ele>
        <time>2022-09-10T10:19:40.000Z</time>
      </trkpt>
      <trkpt lat="43.89775" lon="7.57116">
        <ele>900.79998779297</ele>
        <time>2022-09-10T10:19:44.000Z</time>
      </trkpt>
      <trkpt lat="43.89778" lon="7.57113">
        <ele>901.20001220703</ele>
        <time>2022-09-10T10:19:46.000Z</time>
      </trkpt>
      <trkpt lat="43.89783" lon="7.57109">
        <ele>901.79998779297</ele>
        <time>2022-09-10T10:19:49.000Z</time>
      </trkpt>
      <trkpt lat="43.89789" lon="7.57102">
        <ele>902.40002441406</ele>
        <time>2022-09-10T10:19:53.000Z</time>
      </trkpt>
      <trkpt lat="43.89792" lon="7.571">
        <ele>902.79998779297</ele>
        <time>2022-09-10T10:19:55.000Z</time>
      </trkpt>
      <trkpt lat="43.89799" lon="7.57095">
        <ele>903.40002441406</ele>
        <time>2022-09-10T10:19:59.000Z</time>
      </trkpt>
      <trkpt lat="43.89803" lon="7.57092">
        <ele>904</ele>
        <time>2022-09-10T10:20:01.000Z</time>
      </trkpt>
      <trkpt lat="43.89812" lon="7.57085">
        <ele>904.79998779297</ele>
        <time>2022-09-10T10:20:06.000Z</time>
      </trkpt>
      <trkpt lat="43.89814" lon="7.57082">
        <ele>905</ele>
        <time>2022-09-10T10:20:08.000Z</time>
      </trkpt>
      <trkpt lat="43.89819" lon="7.57075">
        <ele>905.59997558594</ele>
        <time>2022-09-10T10:20:12.000Z</time>
      </trkpt>
      <trkpt lat="43.89821" lon="7.57068">
        <ele>906.20001220703</ele>
        <time>2022-09-10T10:20:15.000Z</time>
      </trkpt>
      <trkpt lat="43.8982" lon="7.57066">
        <ele>906.40002441406</ele>
        <time>2022-09-10T10:20:16.000Z</time>
      </trkpt>
      <trkpt lat="43.89817" lon="7.57063">
        <ele>906.59997558594</ele>
        <time>2022-09-10T10:20:18.000Z</time>
      </trkpt>
      <trkpt lat="43.89811" lon="7.57063">
        <ele>907.20001220703</ele>
        <time>2022-09-10T10:20:22.000Z</time>
      </trkpt>
      <trkpt lat="43.8981" lon="7.57064">
        <ele>907.40002441406</ele>
        <time>2022-09-10T10:20:23.000Z</time>
      </trkpt>
      <trkpt lat="43.89807" lon="7.57065">
        <ele>907.40002441406</ele>
        <time>2022-09-10T10:20:24.000Z</time>
      </trkpt>
      <trkpt lat="43.89802" lon="7.5707">
        <ele>908</ele>
        <time>2022-09-10T10:20:28.000Z</time>
      </trkpt>
      <trkpt lat="43.898" lon="7.57071">
        <ele>908.20001220703</ele>
        <time>2022-09-10T10:20:29.000Z</time>
      </trkpt>
      <trkpt lat="43.89791" lon="7.57078">
        <ele>909</ele>
        <time>2022-09-10T10:20:35.000Z</time>
      </trkpt>
      <trkpt lat="43.89784" lon="7.57083">
        <ele>909.20001220703</ele>
        <time>2022-09-10T10:20:39.000Z</time>
      </trkpt>
      <trkpt lat="43.89779" lon="7.57086">
        <ele>909.59997558594</ele>
        <time>2022-09-10T10:20:42.000Z</time>
      </trkpt>
      <trkpt lat="43.89765" lon="7.57093">
        <ele>910.40002441406</ele>
        <time>2022-09-10T10:20:49.000Z</time>
      </trkpt>
      <trkpt lat="43.89763" lon="7.57094">
        <ele>910.40002441406</ele>
        <time>2022-09-10T10:20:50.000Z</time>
      </trkpt>
      <trkpt lat="43.89748" lon="7.57097">
        <ele>911</ele>
        <time>2022-09-10T10:20:58.000Z</time>
      </trkpt>
      <trkpt lat="43.89737" lon="7.571">
        <ele>911.40002441406</ele>
        <time>2022-09-10T10:21:03.000Z</time>
      </trkpt>
      <trkpt lat="43.89735" lon="7.571">
        <ele>911.59997558594</ele>
        <time>2022-09-10T10:21:04.000Z</time>
      </trkpt>
      <trkpt lat="43.89726" lon="7.57103">
        <ele>912.40002441406</ele>
        <time>2022-09-10T10:21:08.000Z</time>
      </trkpt>
      <trkpt lat="43.89722" lon="7.57104">
        <ele>912.59997558594</ele>
        <time>2022-09-10T10:21:10.000Z</time>
      </trkpt>
      <trkpt lat="43.89705" lon="7.57104">
        <ele>913.59997558594</ele>
        <time>2022-09-10T10:21:17.000Z</time>
      </trkpt>
      <trkpt lat="43.89692" lon="7.57105">
        <ele>914.20001220703</ele>
        <time>2022-09-10T10:21:23.000Z</time>
      </trkpt>
      <trkpt lat="43.89684" lon="7.57107">
        <ele>914.79998779297</ele>
        <time>2022-09-10T10:21:26.000Z</time>
      </trkpt>
      <trkpt lat="43.8968" lon="7.5711">
        <ele>915</ele>
        <time>2022-09-10T10:21:28.000Z</time>
      </trkpt>
      <trkpt lat="43.89663" lon="7.57114">
        <ele>915.79998779297</ele>
        <time>2022-09-10T10:21:35.000Z</time>
      </trkpt>
      <trkpt lat="43.89648" lon="7.57111">
        <ele>916.40002441406</ele>
        <time>2022-09-10T10:21:41.000Z</time>
      </trkpt>
      <trkpt lat="43.8964" lon="7.5711">
        <ele>916.79998779297</ele>
        <time>2022-09-10T10:21:44.000Z</time>
      </trkpt>
      <trkpt lat="43.8963" lon="7.57108">
        <ele>917.79998779297</ele>
        <time>2022-09-10T10:21:48.000Z</time>
      </trkpt>
      <trkpt lat="43.89625" lon="7.57107">
        <ele>918</ele>
        <time>2022-09-10T10:21:50.000Z</time>
      </trkpt>
      <trkpt lat="43.89601" lon="7.57104">
        <ele>918.79998779297</ele>
        <time>2022-09-10T10:21:59.000Z</time>
      </trkpt>
      <trkpt lat="43.89589" lon="7.57102">
        <ele>920</ele>
        <time>2022-09-10T10:22:04.000Z</time>
      </trkpt>
      <trkpt lat="43.89583" lon="7.571">
        <ele>920.40002441406</ele>
        <time>2022-09-10T10:22:07.000Z</time>
      </trkpt>
      <trkpt lat="43.89575" lon="7.57091">
        <ele>920.79998779297</ele>
        <time>2022-09-10T10:22:12.000Z</time>
      </trkpt>
      <trkpt lat="43.89575" lon="7.57086">
        <ele>921.20001220703</ele>
        <time>2022-09-10T10:22:14.000Z</time>
      </trkpt>
      <trkpt lat="43.89578" lon="7.57083">
        <ele>921.59997558594</ele>
        <time>2022-09-10T10:22:16.000Z</time>
      </trkpt>
      <trkpt lat="43.89585" lon="7.57081">
        <ele>922.20001220703</ele>
        <time>2022-09-10T10:22:19.000Z</time>
      </trkpt>
      <trkpt lat="43.89589" lon="7.57081">
        <ele>922.59997558594</ele>
        <time>2022-09-10T10:22:21.000Z</time>
      </trkpt>
      <trkpt lat="43.89596" lon="7.5708">
        <ele>923.40002441406</ele>
        <time>2022-09-10T10:22:24.000Z</time>
      </trkpt>
      <trkpt lat="43.89601" lon="7.57079">
        <ele>923.79998779297</ele>
        <time>2022-09-10T10:22:26.000Z</time>
      </trkpt>
      <trkpt lat="43.89605" lon="7.57078">
        <ele>924</ele>
        <time>2022-09-10T10:22:28.000Z</time>
      </trkpt>
      <trkpt lat="43.89614" lon="7.57077">
        <ele>924.59997558594</ele>
        <time>2022-09-10T10:22:32.000Z</time>
      </trkpt>
      <trkpt lat="43.89625" lon="7.57075">
        <ele>925.79998779297</ele>
        <time>2022-09-10T10:22:37.000Z</time>
      </trkpt>
      <trkpt lat="43.89638" lon="7.57071">
        <ele>926.79998779297</ele>
        <time>2022-09-10T10:22:43.000Z</time>
      </trkpt>
      <trkpt lat="43.8964" lon="7.57071">
        <ele>927</ele>
        <time>2022-09-10T10:22:44.000Z</time>
      </trkpt>
      <trkpt lat="43.89649" lon="7.57066">
        <ele>927.40002441406</ele>
        <time>2022-09-10T10:22:49.000Z</time>
      </trkpt>
      <trkpt lat="43.89654" lon="7.57064">
        <ele>928.20001220703</ele>
        <time>2022-09-10T10:22:52.000Z</time>
      </trkpt>
      <trkpt lat="43.89661" lon="7.57061">
        <ele>929.20001220703</ele>
        <time>2022-09-10T10:22:56.000Z</time>
      </trkpt>
      <trkpt lat="43.89663" lon="7.5706">
        <ele>929.40002441406</ele>
        <time>2022-09-10T10:22:57.000Z</time>
      </trkpt>
      <trkpt lat="43.89674" lon="7.57055">
        <ele>930</ele>
        <time>2022-09-10T10:23:03.000Z</time>
      </trkpt>
      <trkpt lat="43.89678" lon="7.57052">
        <ele>930.40002441406</ele>
        <time>2022-09-10T10:23:06.000Z</time>
      </trkpt>
      <trkpt lat="43.89681" lon="7.5705">
        <ele>930.79998779297</ele>
        <time>2022-09-10T10:23:08.000Z</time>
      </trkpt>
      <trkpt lat="43.89684" lon="7.57047">
        <ele>931.59997558594</ele>
        <time>2022-09-10T10:23:11.000Z</time>
      </trkpt>
      <trkpt lat="43.89689" lon="7.57044">
        <ele>932</ele>
        <time>2022-09-10T10:23:14.000Z</time>
      </trkpt>
      <trkpt lat="43.89695" lon="7.57038">
        <ele>932.59997558594</ele>
        <time>2022-09-10T10:23:18.000Z</time>
      </trkpt>
      <trkpt lat="43.89702" lon="7.57033">
        <ele>933</ele>
        <time>2022-09-10T10:23:22.000Z</time>
      </trkpt>
      <trkpt lat="43.8971" lon="7.57027">
        <ele>933.79998779297</ele>
        <time>2022-09-10T10:23:27.000Z</time>
      </trkpt>
      <trkpt lat="43.89718" lon="7.57019">
        <ele>935</ele>
        <time>2022-09-10T10:23:32.000Z</time>
      </trkpt>
      <trkpt lat="43.8972" lon="7.57017">
        <ele>935.20001220703</ele>
        <time>2022-09-10T10:23:33.000Z</time>
      </trkpt>
      <trkpt lat="43.89731" lon="7.57007">
        <ele>936</ele>
        <time>2022-09-10T10:23:38.000Z</time>
      </trkpt>
      <trkpt lat="43.89735" lon="7.57003">
        <ele>936.20001220703</ele>
        <time>2022-09-10T10:23:40.000Z</time>
      </trkpt>
      <trkpt lat="43.89747" lon="7.56995">
        <ele>937.20001220703</ele>
        <time>2022-09-10T10:23:45.000Z</time>
      </trkpt>
      <trkpt lat="43.89754" lon="7.5699">
        <ele>938</ele>
        <time>2022-09-10T10:23:48.000Z</time>
      </trkpt>
      <trkpt lat="43.89756" lon="7.56988">
        <ele>938.20001220703</ele>
        <time>2022-09-10T10:23:49.000Z</time>
      </trkpt>
      <trkpt lat="43.89771" lon="7.56975">
        <ele>939.40002441406</ele>
        <time>2022-09-10T10:23:56.000Z</time>
      </trkpt>
      <trkpt lat="43.89774" lon="7.56973">
        <ele>939.59997558594</ele>
        <time>2022-09-10T10:23:57.000Z</time>
      </trkpt>
      <trkpt lat="43.89784" lon="7.56966">
        <ele>940.59997558594</ele>
        <time>2022-09-10T10:24:01.000Z</time>
      </trkpt>
      <trkpt lat="43.89791" lon="7.5696">
        <ele>941</ele>
        <time>2022-09-10T10:24:04.000Z</time>
      </trkpt>
      <trkpt lat="43.89796" lon="7.56953">
        <ele>942</ele>
        <time>2022-09-10T10:24:07.000Z</time>
      </trkpt>
      <trkpt lat="43.898" lon="7.56947">
        <ele>942.79998779297</ele>
        <time>2022-09-10T10:24:09.000Z</time>
      </trkpt>
      <trkpt lat="43.89801" lon="7.56944">
        <ele>943</ele>
        <time>2022-09-10T10:24:10.000Z</time>
      </trkpt>
      <trkpt lat="43.89808" lon="7.56934">
        <ele>943.79998779297</ele>
        <time>2022-09-10T10:24:14.000Z</time>
      </trkpt>
      <trkpt lat="43.89812" lon="7.56932">
        <ele>944.20001220703</ele>
        <time>2022-09-10T10:24:16.000Z</time>
      </trkpt>
      <trkpt lat="43.89822" lon="7.56929">
        <ele>945.20001220703</ele>
        <time>2022-09-10T10:24:20.000Z</time>
      </trkpt>
      <trkpt lat="43.89825" lon="7.56928">
        <ele>945.40002441406</ele>
        <time>2022-09-10T10:24:21.000Z</time>
      </trkpt>
      <trkpt lat="43.89833" lon="7.56924">
        <ele>946.40002441406</ele>
        <time>2022-09-10T10:24:25.000Z</time>
      </trkpt>
      <trkpt lat="43.89838" lon="7.56922">
        <ele>947</ele>
        <time>2022-09-10T10:24:27.000Z</time>
      </trkpt>
      <trkpt lat="43.89841" lon="7.56919">
        <ele>947.59997558594</ele>
        <time>2022-09-10T10:24:29.000Z</time>
      </trkpt>
      <trkpt lat="43.89849" lon="7.56913">
        <ele>948.79998779297</ele>
        <time>2022-09-10T10:24:34.000Z</time>
      </trkpt>
      <trkpt lat="43.89855" lon="7.56907">
        <ele>949.79998779297</ele>
        <time>2022-09-10T10:24:38.000Z</time>
      </trkpt>
      <trkpt lat="43.89856" lon="7.56905">
        <ele>950</ele>
        <time>2022-09-10T10:24:39.000Z</time>
      </trkpt>
      <trkpt lat="43.89857" lon="7.56903">
        <ele>950.20001220703</ele>
        <time>2022-09-10T10:24:40.000Z</time>
      </trkpt>
      <trkpt lat="43.89861" lon="7.56899">
        <ele>951.20001220703</ele>
        <time>2022-09-10T10:24:43.000Z</time>
      </trkpt>
      <trkpt lat="43.89863" lon="7.56897">
        <ele>951.40002441406</ele>
        <time>2022-09-10T10:24:44.000Z</time>
      </trkpt>
      <trkpt lat="43.89868" lon="7.56892">
        <ele>952</ele>
        <time>2022-09-10T10:24:47.000Z</time>
      </trkpt>
      <trkpt lat="43.89869" lon="7.56891">
        <ele>952.20001220703</ele>
        <time>2022-09-10T10:24:48.000Z</time>
      </trkpt>
      <trkpt lat="43.89877" lon="7.56884">
        <ele>953</ele>
        <time>2022-09-10T10:24:53.000Z</time>
      </trkpt>
      <trkpt lat="43.89879" lon="7.56883">
        <ele>953.20001220703</ele>
        <time>2022-09-10T10:24:54.000Z</time>
      </trkpt>
      <trkpt lat="43.89881" lon="7.56882">
        <ele>953.40002441406</ele>
        <time>2022-09-10T10:24:55.000Z</time>
      </trkpt>
      <trkpt lat="43.89887" lon="7.56874">
        <ele>954.59997558594</ele>
        <time>2022-09-10T10:24:59.000Z</time>
      </trkpt>
      <trkpt lat="43.89888" lon="7.56872">
        <ele>954.79998779297</ele>
        <time>2022-09-10T10:25:00.000Z</time>
      </trkpt>
      <trkpt lat="43.89891" lon="7.56865">
        <ele>955.59997558594</ele>
        <time>2022-09-10T10:25:03.000Z</time>
      </trkpt>
      <trkpt lat="43.89893" lon="7.5686">
        <ele>956</ele>
        <time>2022-09-10T10:25:05.000Z</time>
      </trkpt>
      <trkpt lat="43.89894" lon="7.56858">
        <ele>956.20001220703</ele>
        <time>2022-09-10T10:25:06.000Z</time>
      </trkpt>
      <trkpt lat="43.89895" lon="7.56852">
        <ele>956.79998779297</ele>
        <time>2022-09-10T10:25:08.000Z</time>
      </trkpt>
      <trkpt lat="43.89898" lon="7.56844">
        <ele>957.20001220703</ele>
        <time>2022-09-10T10:25:11.000Z</time>
      </trkpt>
      <trkpt lat="43.89901" lon="7.56832">
        <ele>957.59997558594</ele>
        <time>2022-09-10T10:25:15.000Z</time>
      </trkpt>
      <trkpt lat="43.89901" lon="7.5683">
        <ele>958</ele>
        <time>2022-09-10T10:25:16.000Z</time>
      </trkpt>
      <trkpt lat="43.89904" lon="7.56817">
        <ele>959.20001220703</ele>
        <time>2022-09-10T10:25:20.000Z</time>
      </trkpt>
      <trkpt lat="43.89905" lon="7.56814">
        <ele>959.40002441406</ele>
        <time>2022-09-10T10:25:21.000Z</time>
      </trkpt>
      <trkpt lat="43.89909" lon="7.56797">
        <ele>960.40002441406</ele>
        <time>2022-09-10T10:25:27.000Z</time>
      </trkpt>
      <trkpt lat="43.89917" lon="7.56781">
        <ele>961.40002441406</ele>
        <time>2022-09-10T10:25:33.000Z</time>
      </trkpt>
      <trkpt lat="43.89918" lon="7.56778">
        <ele>961.59997558594</ele>
        <time>2022-09-10T10:25:34.000Z</time>
      </trkpt>
      <trkpt lat="43.89924" lon="7.56765">
        <ele>962.79998779297</ele>
        <time>2022-09-10T10:25:39.000Z</time>
      </trkpt>
      <trkpt lat="43.89928" lon="7.5675">
        <ele>963.79998779297</ele>
        <time>2022-09-10T10:25:44.000Z</time>
      </trkpt>
      <trkpt lat="43.89929" lon="7.56746">
        <ele>964</ele>
        <time>2022-09-10T10:25:45.000Z</time>
      </trkpt>
      <trkpt lat="43.89938" lon="7.56726">
        <ele>965</ele>
        <time>2022-09-10T10:25:52.000Z</time>
      </trkpt>
      <trkpt lat="43.89939" lon="7.56723">
        <ele>965.20001220703</ele>
        <time>2022-09-10T10:25:53.000Z</time>
      </trkpt>
      <trkpt lat="43.89947" lon="7.56712">
        <ele>966.40002441406</ele>
        <time>2022-09-10T10:25:58.000Z</time>
      </trkpt>
      <trkpt lat="43.89951" lon="7.56708">
        <ele>966.59997558594</ele>
        <time>2022-09-10T10:26:00.000Z</time>
      </trkpt>
      <trkpt lat="43.89963" lon="7.567">
        <ele>967.20001220703</ele>
        <time>2022-09-10T10:26:06.000Z</time>
      </trkpt>
      <trkpt lat="43.89965" lon="7.56699">
        <ele>967.59997558594</ele>
        <time>2022-09-10T10:26:07.000Z</time>
      </trkpt>
      <trkpt lat="43.89973" lon="7.56698">
        <ele>968.59997558594</ele>
        <time>2022-09-10T10:26:10.000Z</time>
      </trkpt>
      <trkpt lat="43.8998" lon="7.56697">
        <ele>969.40002441406</ele>
        <time>2022-09-10T10:26:13.000Z</time>
      </trkpt>
      <trkpt lat="43.89982" lon="7.56696">
        <ele>969.59997558594</ele>
        <time>2022-09-10T10:26:14.000Z</time>
      </trkpt>
      <trkpt lat="43.89991" lon="7.56691">
        <ele>970.40002441406</ele>
        <time>2022-09-10T10:26:19.000Z</time>
      </trkpt>
      <trkpt lat="43.89994" lon="7.56689">
        <ele>970.79998779297</ele>
        <time>2022-09-10T10:26:21.000Z</time>
      </trkpt>
      <trkpt lat="43.90001" lon="7.56683">
        <ele>971.79998779297</ele>
        <time>2022-09-10T10:26:25.000Z</time>
      </trkpt>
      <trkpt lat="43.90009" lon="7.56675">
        <ele>973</ele>
        <time>2022-09-10T10:26:30.000Z</time>
      </trkpt>
      <trkpt lat="43.9001" lon="7.56674">
        <ele>973.20001220703</ele>
        <time>2022-09-10T10:26:31.000Z</time>
      </trkpt>
      <trkpt lat="43.90013" lon="7.56674">
        <ele>973.59997558594</ele>
        <time>2022-09-10T10:26:35.000Z</time>
      </trkpt>
      <trkpt lat="43.90015" lon="7.56673">
        <ele>973.79998779297</ele>
        <time>2022-09-10T10:26:50.000Z</time>
      </trkpt>
      <trkpt lat="43.90015" lon="7.56674">
        <ele>973.59997558594</ele>
        <time>2022-09-10T10:26:56.000Z</time>
      </trkpt>
      <trkpt lat="43.90015" lon="7.56674">
        <ele>974</ele>
        <time>2022-09-10T10:27:02.000Z</time>
      </trkpt>
      <trkpt lat="43.90015" lon="7.56674">
        <ele>973.79998779297</ele>
        <time>2022-09-10T10:27:04.000Z</time>
      </trkpt>
      <trkpt lat="43.90016" lon="7.56673">
        <ele>974</ele>
        <time>2022-09-10T10:27:16.000Z</time>
      </trkpt>
      <trkpt lat="43.90018" lon="7.56672">
        <ele>973.79998779297</ele>
        <time>2022-09-10T10:27:25.000Z</time>
      </trkpt>
      <trkpt lat="43.90018" lon="7.56673">
        <ele>973.59997558594</ele>
        <time>2022-09-10T10:27:32.000Z</time>
      </trkpt>
      <trkpt lat="43.90019" lon="7.56673">
        <ele>973.79998779297</ele>
        <time>2022-09-10T10:27:39.000Z</time>
      </trkpt>
      <trkpt lat="43.90018" lon="7.56673">
        <ele>974</ele>
        <time>2022-09-10T10:27:45.000Z</time>
      </trkpt>
      <trkpt lat="43.90019" lon="7.56673">
        <ele>973.79998779297</ele>
        <time>2022-09-10T10:27:54.000Z</time>
      </trkpt>
      <trkpt lat="43.90019" lon="7.56674">
        <ele>974</ele>
        <time>2022-09-10T10:28:03.000Z</time>
      </trkpt>
      <trkpt lat="43.90019" lon="7.56674">
        <ele>974</ele>
        <time>2022-09-10T10:28:12.000Z</time>
      </trkpt>
      <trkpt lat="43.90019" lon="7.56674">
        <ele>974</ele>
        <time>2022-09-10T10:28:18.000Z</time>
      </trkpt>
      <trkpt lat="43.90019" lon="7.56674">
        <ele>973.59997558594</ele>
        <time>2022-09-10T10:28:28.000Z</time>
      </trkpt>
      <trkpt lat="43.90019" lon="7.56673">
        <ele>973.79998779297</ele>
        <time>2022-09-10T10:28:42.000Z</time>
      </trkpt>
      <trkpt lat="43.90019" lon="7.56671">
        <ele>973.59997558594</ele>
        <time>2022-09-10T10:28:52.000Z</time>
      </trkpt>
      <trkpt lat="43.90019" lon="7.5667">
        <ele>973.59997558594</ele>
        <time>2022-09-10T10:28:57.000Z</time>
      </trkpt>
      <trkpt lat="43.90022" lon="7.56668">
        <ele>973.79998779297</ele>
        <time>2022-09-10T10:29:03.000Z</time>
      </trkpt>
      <trkpt lat="43.90032" lon="7.56656">
        <ele>974.59997558594</ele>
        <time>2022-09-10T10:29:10.000Z</time>
      </trkpt>
      <trkpt lat="43.90039" lon="7.5665">
        <ele>975</ele>
        <time>2022-09-10T10:29:14.000Z</time>
      </trkpt>
      <trkpt lat="43.90042" lon="7.56647">
        <ele>975.20001220703</ele>
        <time>2022-09-10T10:29:16.000Z</time>
      </trkpt>
      <trkpt lat="43.90053" lon="7.56638">
        <ele>976.40002441406</ele>
        <time>2022-09-10T10:29:22.000Z</time>
      </trkpt>
      <trkpt lat="43.90061" lon="7.5663">
        <ele>977.40002441406</ele>
        <time>2022-09-10T10:29:27.000Z</time>
      </trkpt>
      <trkpt lat="43.90064" lon="7.56627">
        <ele>978</ele>
        <time>2022-09-10T10:29:29.000Z</time>
      </trkpt>
      <trkpt lat="43.90067" lon="7.56623">
        <ele>978.40002441406</ele>
        <time>2022-09-10T10:29:31.000Z</time>
      </trkpt>
      <trkpt lat="43.90075" lon="7.56613">
        <ele>979.20001220703</ele>
        <time>2022-09-10T10:29:36.000Z</time>
      </trkpt>
      <trkpt lat="43.9008" lon="7.56606">
        <ele>979.59997558594</ele>
        <time>2022-09-10T10:29:39.000Z</time>
      </trkpt>
      <trkpt lat="43.90084" lon="7.56597">
        <ele>980.59997558594</ele>
        <time>2022-09-10T10:29:43.000Z</time>
      </trkpt>
      <trkpt lat="43.90087" lon="7.56592">
        <ele>981</ele>
        <time>2022-09-10T10:29:45.000Z</time>
      </trkpt>
      <trkpt lat="43.90091" lon="7.56585">
        <ele>981.79998779297</ele>
        <time>2022-09-10T10:29:48.000Z</time>
      </trkpt>
      <trkpt lat="43.90096" lon="7.56577">
        <ele>982.59997558594</ele>
        <time>2022-09-10T10:29:52.000Z</time>
      </trkpt>
      <trkpt lat="43.90098" lon="7.56572">
        <ele>983</ele>
        <time>2022-09-10T10:29:54.000Z</time>
      </trkpt>
      <trkpt lat="43.90107" lon="7.56562">
        <ele>983.59997558594</ele>
        <time>2022-09-10T10:29:59.000Z</time>
      </trkpt>
      <trkpt lat="43.9011" lon="7.56558">
        <ele>984.20001220703</ele>
        <time>2022-09-10T10:30:01.000Z</time>
      </trkpt>
      <trkpt lat="43.90115" lon="7.56549">
        <ele>985.20001220703</ele>
        <time>2022-09-10T10:30:05.000Z</time>
      </trkpt>
      <trkpt lat="43.90119" lon="7.56542">
        <ele>985.79998779297</ele>
        <time>2022-09-10T10:30:08.000Z</time>
      </trkpt>
      <trkpt lat="43.90122" lon="7.56536">
        <ele>986.40002441406</ele>
        <time>2022-09-10T10:30:11.000Z</time>
      </trkpt>
      <trkpt lat="43.90128" lon="7.56527">
        <ele>987</ele>
        <time>2022-09-10T10:30:15.000Z</time>
      </trkpt>
      <trkpt lat="43.90132" lon="7.56524">
        <ele>987.40002441406</ele>
        <time>2022-09-10T10:30:17.000Z</time>
      </trkpt>
      <trkpt lat="43.9014" lon="7.56518">
        <ele>988.59997558594</ele>
        <time>2022-09-10T10:30:21.000Z</time>
      </trkpt>
      <trkpt lat="43.90143" lon="7.56516">
        <ele>988.79998779297</ele>
        <time>2022-09-10T10:30:22.000Z</time>
      </trkpt>
      <trkpt lat="43.9015" lon="7.56511">
        <ele>989.79998779297</ele>
        <time>2022-09-10T10:30:26.000Z</time>
      </trkpt>
      <trkpt lat="43.90157" lon="7.56505">
        <ele>990.59997558594</ele>
        <time>2022-09-10T10:30:30.000Z</time>
      </trkpt>
      <trkpt lat="43.9016" lon="7.56502">
        <ele>990.79998779297</ele>
        <time>2022-09-10T10:30:32.000Z</time>
      </trkpt>
      <trkpt lat="43.90166" lon="7.56497">
        <ele>991.59997558594</ele>
        <time>2022-09-10T10:30:36.000Z</time>
      </trkpt>
      <trkpt lat="43.9017" lon="7.56495">
        <ele>992</ele>
        <time>2022-09-10T10:30:38.000Z</time>
      </trkpt>
      <trkpt lat="43.90178" lon="7.56487">
        <ele>992.79998779297</ele>
        <time>2022-09-10T10:30:43.000Z</time>
      </trkpt>
      <trkpt lat="43.9018" lon="7.56486">
        <ele>993</ele>
        <time>2022-09-10T10:30:44.000Z</time>
      </trkpt>
      <trkpt lat="43.90188" lon="7.56478">
        <ele>994</ele>
        <time>2022-09-10T10:30:50.000Z</time>
      </trkpt>
      <trkpt lat="43.90195" lon="7.56472">
        <ele>995.20001220703</ele>
        <time>2022-09-10T10:30:55.000Z</time>
      </trkpt>
      <trkpt lat="43.90197" lon="7.5647">
        <ele>995.59997558594</ele>
        <time>2022-09-10T10:30:56.000Z</time>
      </trkpt>
      <trkpt lat="43.90201" lon="7.56466">
        <ele>996.40002441406</ele>
        <time>2022-09-10T10:30:59.000Z</time>
      </trkpt>
      <trkpt lat="43.90207" lon="7.56461">
        <ele>997</ele>
        <time>2022-09-10T10:31:03.000Z</time>
      </trkpt>
      <trkpt lat="43.90212" lon="7.56456">
        <ele>997.59997558594</ele>
        <time>2022-09-10T10:31:06.000Z</time>
      </trkpt>
      <trkpt lat="43.9022" lon="7.5645">
        <ele>998</ele>
        <time>2022-09-10T10:31:10.000Z</time>
      </trkpt>
      <trkpt lat="43.90225" lon="7.56447">
        <ele>998.79998779297</ele>
        <time>2022-09-10T10:31:13.000Z</time>
      </trkpt>
      <trkpt lat="43.90231" lon="7.56441">
        <ele>1000</ele>
        <time>2022-09-10T10:31:17.000Z</time>
      </trkpt>
      <trkpt lat="43.90244" lon="7.56433">
        <ele>1001</ele>
        <time>2022-09-10T10:31:24.000Z</time>
      </trkpt>
      <trkpt lat="43.90255" lon="7.56439">
        <ele>1001.5999755859</ele>
        <time>2022-09-10T10:31:29.000Z</time>
      </trkpt>
      <trkpt lat="43.90264" lon="7.56457">
        <ele>1002</ele>
        <time>2022-09-10T10:31:34.000Z</time>
      </trkpt>
      <trkpt lat="43.90272" lon="7.56468">
        <ele>1002.200012207</ele>
        <time>2022-09-10T10:31:37.000Z</time>
      </trkpt>
      <trkpt lat="43.90278" lon="7.56474">
        <ele>1002.200012207</ele>
        <time>2022-09-10T10:31:39.000Z</time>
      </trkpt>
      <trkpt lat="43.90301" lon="7.56487">
        <ele>1001.799987793</ele>
        <time>2022-09-10T10:31:45.000Z</time>
      </trkpt>
      <trkpt lat="43.90329" lon="7.56491">
        <ele>1002.200012207</ele>
        <time>2022-09-10T10:31:52.000Z</time>
      </trkpt>
      <trkpt lat="43.90343" lon="7.56487">
        <ele>1001.799987793</ele>
        <time>2022-09-10T10:31:56.000Z</time>
      </trkpt>
      <trkpt lat="43.90371" lon="7.56474">
        <ele>1003</ele>
        <time>2022-09-10T10:32:03.000Z</time>
      </trkpt>
      <trkpt lat="43.90375" lon="7.56473">
        <ele>1003.200012207</ele>
        <time>2022-09-10T10:32:04.000Z</time>
      </trkpt>
      <trkpt lat="43.90388" lon="7.56468">
        <ele>1003.4000244141</ele>
        <time>2022-09-10T10:32:07.000Z</time>
      </trkpt>
      <trkpt lat="43.90396" lon="7.56465">
        <ele>1003.799987793</ele>
        <time>2022-09-10T10:32:09.000Z</time>
      </trkpt>
      <trkpt lat="43.90411" lon="7.5646">
        <ele>1004.200012207</ele>
        <time>2022-09-10T10:32:13.000Z</time>
      </trkpt>
      <trkpt lat="43.90416" lon="7.5646">
        <ele>1004.200012207</ele>
        <time>2022-09-10T10:32:14.000Z</time>
      </trkpt>
      <trkpt lat="43.90432" lon="7.56472">
        <ele>1004.5999755859</ele>
        <time>2022-09-10T10:32:18.000Z</time>
      </trkpt>
      <trkpt lat="43.90455" lon="7.56492">
        <ele>1005.4000244141</ele>
        <time>2022-09-10T10:32:24.000Z</time>
      </trkpt>
      <trkpt lat="43.9046" lon="7.56494">
        <ele>1005.200012207</ele>
        <time>2022-09-10T10:32:25.000Z</time>
      </trkpt>
      <trkpt lat="43.90499" lon="7.56514">
        <ele>1006.200012207</ele>
        <time>2022-09-10T10:32:34.000Z</time>
      </trkpt>
      <trkpt lat="43.90507" lon="7.56517">
        <ele>1006</ele>
        <time>2022-09-10T10:32:36.000Z</time>
      </trkpt>
      <trkpt lat="43.90524" lon="7.56519">
        <ele>1006.200012207</ele>
        <time>2022-09-10T10:32:40.000Z</time>
      </trkpt>
      <trkpt lat="43.90528" lon="7.56518">
        <ele>1006.799987793</ele>
        <time>2022-09-10T10:32:41.000Z</time>
      </trkpt>
      <trkpt lat="43.90543" lon="7.56516">
        <ele>1007.799987793</ele>
        <time>2022-09-10T10:32:45.000Z</time>
      </trkpt>
      <trkpt lat="43.90566" lon="7.56507">
        <ele>1008.5999755859</ele>
        <time>2022-09-10T10:32:51.000Z</time>
      </trkpt>
      <trkpt lat="43.90585" lon="7.56502">
        <ele>1008.5999755859</ele>
        <time>2022-09-10T10:32:56.000Z</time>
      </trkpt>
      <trkpt lat="43.90592" lon="7.56506">
        <ele>1009</ele>
        <time>2022-09-10T10:32:58.000Z</time>
      </trkpt>
      <trkpt lat="43.90599" lon="7.56513">
        <ele>1009.5999755859</ele>
        <time>2022-09-10T10:33:00.000Z</time>
      </trkpt>
      <trkpt lat="43.90606" lon="7.56518">
        <ele>1010.200012207</ele>
        <time>2022-09-10T10:33:02.000Z</time>
      </trkpt>
      <trkpt lat="43.9063" lon="7.56539">
        <ele>1010.5999755859</ele>
        <time>2022-09-10T10:33:09.000Z</time>
      </trkpt>
      <trkpt lat="43.9064" lon="7.56549">
        <ele>1011.4000244141</ele>
        <time>2022-09-10T10:33:13.000Z</time>
      </trkpt>
      <trkpt lat="43.90646" lon="7.56553">
        <ele>1011.5999755859</ele>
        <time>2022-09-10T10:33:15.000Z</time>
      </trkpt>
      <trkpt lat="43.90653" lon="7.56559">
        <ele>1012.4000244141</ele>
        <time>2022-09-10T10:33:19.000Z</time>
      </trkpt>
      <trkpt lat="43.90654" lon="7.5656">
        <ele>1012.5999755859</ele>
        <time>2022-09-10T10:33:20.000Z</time>
      </trkpt>
      <trkpt lat="43.90654" lon="7.56561">
        <ele>1012.799987793</ele>
        <time>2022-09-10T10:33:25.000Z</time>
      </trkpt>
      <trkpt lat="43.90655" lon="7.56561">
        <ele>1013.4000244141</ele>
        <time>2022-09-10T10:33:36.000Z</time>
      </trkpt>
      <trkpt lat="43.90655" lon="7.56561">
        <ele>1013.4000244141</ele>
        <time>2022-09-10T10:33:37.000Z</time>
      </trkpt>
      <trkpt lat="43.90659" lon="7.56562">
        <ele>1013.5999755859</ele>
        <time>2022-09-10T10:34:05.000Z</time>
      </trkpt>
      <trkpt lat="43.90662" lon="7.56565">
        <ele>1013.5999755859</ele>
        <time>2022-09-10T10:34:12.000Z</time>
      </trkpt>
      <trkpt lat="43.90663" lon="7.56566">
        <ele>1013.5999755859</ele>
        <time>2022-09-10T10:34:13.000Z</time>
      </trkpt>
      <trkpt lat="43.9067" lon="7.5657">
        <ele>1013.799987793</ele>
        <time>2022-09-10T10:34:16.000Z</time>
      </trkpt>
      <trkpt lat="43.90672" lon="7.56571">
        <ele>1013.799987793</ele>
        <time>2022-09-10T10:34:17.000Z</time>
      </trkpt>
      <trkpt lat="43.90689" lon="7.56575">
        <ele>1014.200012207</ele>
        <time>2022-09-10T10:34:24.000Z</time>
      </trkpt>
      <trkpt lat="43.9069" lon="7.56575">
        <ele>1014.200012207</ele>
        <time>2022-09-10T10:34:29.000Z</time>
      </trkpt>
      <trkpt lat="43.9069" lon="7.56575">
        <ele>1014.4000244141</ele>
        <time>2022-09-10T10:34:30.000Z</time>
      </trkpt>
      <trkpt lat="43.9069" lon="7.56576">
        <ele>1014.799987793</ele>
        <time>2022-09-10T10:34:37.000Z</time>
      </trkpt>
      <trkpt lat="43.90691" lon="7.56576">
        <ele>1014.799987793</ele>
        <time>2022-09-10T10:34:57.000Z</time>
      </trkpt>
      <trkpt lat="43.90691" lon="7.56576">
        <ele>1014.5999755859</ele>
        <time>2022-09-10T10:35:06.000Z</time>
      </trkpt>
      <trkpt lat="43.9069" lon="7.56577">
        <ele>1014.799987793</ele>
        <time>2022-09-10T10:35:20.000Z</time>
      </trkpt>
      <trkpt lat="43.9069" lon="7.5658">
        <ele>1014.5999755859</ele>
        <time>2022-09-10T10:35:40.000Z</time>
      </trkpt>
      <trkpt lat="43.9069" lon="7.56579">
        <ele>1014.799987793</ele>
        <time>2022-09-10T10:35:51.000Z</time>
      </trkpt>
      <trkpt lat="43.90689" lon="7.56578">
        <ele>1014.799987793</ele>
        <time>2022-09-10T10:36:08.000Z</time>
      </trkpt>
      <trkpt lat="43.90688" lon="7.56578">
        <ele>1014.5999755859</ele>
        <time>2022-09-10T10:36:27.000Z</time>
      </trkpt>
      <trkpt lat="43.90688" lon="7.56578">
        <ele>1014.5999755859</ele>
        <time>2022-09-10T10:36:48.000Z</time>
      </trkpt>
      <trkpt lat="43.90688" lon="7.56577">
        <ele>1014.4000244141</ele>
        <time>2022-09-10T10:37:07.000Z</time>
      </trkpt>
      <trkpt lat="43.90688" lon="7.56577">
        <ele>1014.4000244141</ele>
        <time>2022-09-10T10:37:34.000Z</time>
      </trkpt>
      <trkpt lat="43.90688" lon="7.56576">
        <ele>1014.200012207</ele>
        <time>2022-09-10T10:37:58.000Z</time>
      </trkpt>
      <trkpt lat="43.90688" lon="7.56575">
        <ele>1014</ele>
        <time>2022-09-10T10:38:07.000Z</time>
      </trkpt>
      <trkpt lat="43.90689" lon="7.56575">
        <ele>1014</ele>
        <time>2022-09-10T10:38:36.000Z</time>
      </trkpt>
      <trkpt lat="43.90689" lon="7.56574">
        <ele>1014.200012207</ele>
        <time>2022-09-10T10:38:47.000Z</time>
      </trkpt>
      <trkpt lat="43.90689" lon="7.56576">
        <ele>1014</ele>
        <time>2022-09-10T10:39:07.000Z</time>
      </trkpt>
      <trkpt lat="43.9069" lon="7.56577">
        <ele>1014</ele>
        <time>2022-09-10T10:39:23.000Z</time>
      </trkpt>
      <trkpt lat="43.90691" lon="7.56582">
        <ele>1013.799987793</ele>
        <time>2022-09-10T10:39:40.000Z</time>
      </trkpt>
      <trkpt lat="43.90691" lon="7.56585">
        <ele>1013.799987793</ele>
        <time>2022-09-10T10:39:53.000Z</time>
      </trkpt>
      <trkpt lat="43.90691" lon="7.56586">
        <ele>1013.200012207</ele>
        <time>2022-09-10T10:40:03.000Z</time>
      </trkpt>
      <trkpt lat="43.90691" lon="7.56585">
        <ele>1013</ele>
        <time>2022-09-10T10:40:04.000Z</time>
      </trkpt>
      <trkpt lat="43.90694" lon="7.56584">
        <ele>1013.5999755859</ele>
        <time>2022-09-10T10:40:13.000Z</time>
      </trkpt>
      <trkpt lat="43.9071" lon="7.56584">
        <ele>1014</ele>
        <time>2022-09-10T10:40:19.000Z</time>
      </trkpt>
      <trkpt lat="43.90725" lon="7.56585">
        <ele>1014.200012207</ele>
        <time>2022-09-10T10:40:24.000Z</time>
      </trkpt>
      <trkpt lat="43.90728" lon="7.56585">
        <ele>1014.5999755859</ele>
        <time>2022-09-10T10:40:25.000Z</time>
      </trkpt>
      <trkpt lat="43.90745" lon="7.5659">
        <ele>1015.200012207</ele>
        <time>2022-09-10T10:40:30.000Z</time>
      </trkpt>
      <trkpt lat="43.90751" lon="7.56594">
        <ele>1015.200012207</ele>
        <time>2022-09-10T10:40:32.000Z</time>
      </trkpt>
      <trkpt lat="43.9077" lon="7.56609">
        <ele>1015.799987793</ele>
        <time>2022-09-10T10:40:39.000Z</time>
      </trkpt>
      <trkpt lat="43.90794" lon="7.56619">
        <ele>1016.200012207</ele>
        <time>2022-09-10T10:40:47.000Z</time>
      </trkpt>
      <trkpt lat="43.90796" lon="7.5662">
        <ele>1016.4000244141</ele>
        <time>2022-09-10T10:40:48.000Z</time>
      </trkpt>
      <trkpt lat="43.90799" lon="7.5662">
        <ele>1016.799987793</ele>
        <time>2022-09-10T10:40:51.000Z</time>
      </trkpt>
      <trkpt lat="43.90801" lon="7.56619">
        <ele>1017</ele>
        <time>2022-09-10T10:40:57.000Z</time>
      </trkpt>
      <trkpt lat="43.90802" lon="7.56619">
        <ele>1017</ele>
        <time>2022-09-10T10:41:04.000Z</time>
      </trkpt>
      <trkpt lat="43.90806" lon="7.56618">
        <ele>1017.200012207</ele>
        <time>2022-09-10T10:41:09.000Z</time>
      </trkpt>
      <trkpt lat="43.90814" lon="7.56613">
        <ele>1017.200012207</ele>
        <time>2022-09-10T10:41:14.000Z</time>
      </trkpt>
      <trkpt lat="43.90816" lon="7.56612">
        <ele>1017.4000244141</ele>
        <time>2022-09-10T10:41:15.000Z</time>
      </trkpt>
      <trkpt lat="43.90821" lon="7.56612">
        <ele>1017.5999755859</ele>
        <time>2022-09-10T10:41:17.000Z</time>
      </trkpt>
      <trkpt lat="43.90825" lon="7.56615">
        <ele>1017.5999755859</ele>
        <time>2022-09-10T10:41:19.000Z</time>
      </trkpt>
      <trkpt lat="43.90831" lon="7.56628">
        <ele>1017.4000244141</ele>
        <time>2022-09-10T10:41:23.000Z</time>
      </trkpt>
      <trkpt lat="43.90832" lon="7.56631">
        <ele>1017.5999755859</ele>
        <time>2022-09-10T10:41:24.000Z</time>
      </trkpt>
      <trkpt lat="43.90838" lon="7.56659">
        <ele>1018</ele>
        <time>2022-09-10T10:41:32.000Z</time>
      </trkpt>
      <trkpt lat="43.90847" lon="7.56697">
        <ele>1018.200012207</ele>
        <time>2022-09-10T10:41:42.000Z</time>
      </trkpt>
      <trkpt lat="43.90852" lon="7.56717">
        <ele>1018.4000244141</ele>
        <time>2022-09-10T10:41:47.000Z</time>
      </trkpt>
      <trkpt lat="43.90857" lon="7.56738">
        <ele>1018.5999755859</ele>
        <time>2022-09-10T10:41:52.000Z</time>
      </trkpt>
      <trkpt lat="43.90867" lon="7.5677">
        <ele>1019</ele>
        <time>2022-09-10T10:42:00.000Z</time>
      </trkpt>
      <trkpt lat="43.90869" lon="7.56778">
        <ele>1019.4000244141</ele>
        <time>2022-09-10T10:42:03.000Z</time>
      </trkpt>
      <trkpt lat="43.90872" lon="7.56782">
        <ele>1019.5999755859</ele>
        <time>2022-09-10T10:42:04.000Z</time>
      </trkpt>
      <trkpt lat="43.90882" lon="7.56797">
        <ele>1020.4000244141</ele>
        <time>2022-09-10T10:42:09.000Z</time>
      </trkpt>
      <trkpt lat="43.90884" lon="7.56799">
        <ele>1020.4000244141</ele>
        <time>2022-09-10T10:42:10.000Z</time>
      </trkpt>
      <trkpt lat="43.90897" lon="7.56813">
        <ele>1020.799987793</ele>
        <time>2022-09-10T10:42:16.000Z</time>
      </trkpt>
      <trkpt lat="43.90914" lon="7.5683">
        <ele>1021.4000244141</ele>
        <time>2022-09-10T10:42:23.000Z</time>
      </trkpt>
      <trkpt lat="43.90917" lon="7.56832">
        <ele>1021.5999755859</ele>
        <time>2022-09-10T10:42:24.000Z</time>
      </trkpt>
      <trkpt lat="43.90937" lon="7.56843">
        <ele>1022</ele>
        <time>2022-09-10T10:42:31.000Z</time>
      </trkpt>
      <trkpt lat="43.90954" lon="7.56847">
        <ele>1022.200012207</ele>
        <time>2022-09-10T10:42:37.000Z</time>
      </trkpt>
      <trkpt lat="43.9096" lon="7.56847">
        <ele>1022.5999755859</ele>
        <time>2022-09-10T10:42:39.000Z</time>
      </trkpt>
      <trkpt lat="43.9098" lon="7.56845">
        <ele>1023</ele>
        <time>2022-09-10T10:42:45.000Z</time>
      </trkpt>
      <trkpt lat="43.91008" lon="7.56833">
        <ele>1023.4000244141</ele>
        <time>2022-09-10T10:42:53.000Z</time>
      </trkpt>
      <trkpt lat="43.91018" lon="7.56827">
        <ele>1023.5999755859</ele>
        <time>2022-09-10T10:42:56.000Z</time>
      </trkpt>
      <trkpt lat="43.91034" lon="7.56817">
        <ele>1024.1999511719</ele>
        <time>2022-09-10T10:43:01.000Z</time>
      </trkpt>
      <trkpt lat="43.91047" lon="7.56804">
        <ele>1024.4000244141</ele>
        <time>2022-09-10T10:43:06.000Z</time>
      </trkpt>
      <trkpt lat="43.91056" lon="7.56784">
        <ele>1024.5999755859</ele>
        <time>2022-09-10T10:43:11.000Z</time>
      </trkpt>
      <trkpt lat="43.91067" lon="7.5675">
        <ele>1024.8000488281</ele>
        <time>2022-09-10T10:43:18.000Z</time>
      </trkpt>
      <trkpt lat="43.91079" lon="7.56731">
        <ele>1025</ele>
        <time>2022-09-10T10:43:23.000Z</time>
      </trkpt>
      <trkpt lat="43.91094" lon="7.56715">
        <ele>1025</ele>
        <time>2022-09-10T10:43:29.000Z</time>
      </trkpt>
      <trkpt lat="43.91108" lon="7.56704">
        <ele>1025.4000244141</ele>
        <time>2022-09-10T10:43:35.000Z</time>
      </trkpt>
      <trkpt lat="43.91115" lon="7.56695">
        <ele>1025.8000488281</ele>
        <time>2022-09-10T10:43:38.000Z</time>
      </trkpt>
      <trkpt lat="43.91123" lon="7.56687">
        <ele>1025.5999755859</ele>
        <time>2022-09-10T10:43:41.000Z</time>
      </trkpt>
      <trkpt lat="43.91135" lon="7.56665">
        <ele>1025.4000244141</ele>
        <time>2022-09-10T10:43:47.000Z</time>
      </trkpt>
      <trkpt lat="43.91136" lon="7.56657">
        <ele>1025.4000244141</ele>
        <time>2022-09-10T10:43:49.000Z</time>
      </trkpt>
      <trkpt lat="43.91137" lon="7.56648">
        <ele>1025.4000244141</ele>
        <time>2022-09-10T10:43:51.000Z</time>
      </trkpt>
      <trkpt lat="43.91142" lon="7.5662">
        <ele>1025.4000244141</ele>
        <time>2022-09-10T10:43:57.000Z</time>
      </trkpt>
      <trkpt lat="43.91145" lon="7.56611">
        <ele>1025.1999511719</ele>
        <time>2022-09-10T10:43:59.000Z</time>
      </trkpt>
      <trkpt lat="43.91148" lon="7.56609">
        <ele>1025.1999511719</ele>
        <time>2022-09-10T10:44:00.000Z</time>
      </trkpt>
      <trkpt lat="43.91161" lon="7.56608">
        <ele>1025</ele>
        <time>2022-09-10T10:44:04.000Z</time>
      </trkpt>
      <trkpt lat="43.91168" lon="7.56609">
        <ele>1025</ele>
        <time>2022-09-10T10:44:06.000Z</time>
      </trkpt>
      <trkpt lat="43.91178" lon="7.56608">
        <ele>1025</ele>
        <time>2022-09-10T10:44:09.000Z</time>
      </trkpt>
      <trkpt lat="43.91194" lon="7.56601">
        <ele>1025.4000244141</ele>
        <time>2022-09-10T10:44:14.000Z</time>
      </trkpt>
      <trkpt lat="43.9122" lon="7.56587">
        <ele>1025.8000488281</ele>
        <time>2022-09-10T10:44:22.000Z</time>
      </trkpt>
      <trkpt lat="43.91241" lon="7.56574">
        <ele>1026.4000244141</ele>
        <time>2022-09-10T10:44:29.000Z</time>
      </trkpt>
      <trkpt lat="43.91259" lon="7.56559">
        <ele>1026.5999755859</ele>
        <time>2022-09-10T10:44:36.000Z</time>
      </trkpt>
      <trkpt lat="43.91262" lon="7.56557">
        <ele>1026.8000488281</ele>
        <time>2022-09-10T10:44:37.000Z</time>
      </trkpt>
      <trkpt lat="43.91275" lon="7.56548">
        <ele>1027.4000244141</ele>
        <time>2022-09-10T10:44:42.000Z</time>
      </trkpt>
      <trkpt lat="43.91288" lon="7.56536">
        <ele>1028</ele>
        <time>2022-09-10T10:44:47.000Z</time>
      </trkpt>
      <trkpt lat="43.9129" lon="7.56534">
        <ele>1028</ele>
        <time>2022-09-10T10:44:48.000Z</time>
      </trkpt>
      <trkpt lat="43.91303" lon="7.56524">
        <ele>1028.1999511719</ele>
        <time>2022-09-10T10:44:53.000Z</time>
      </trkpt>
      <trkpt lat="43.91317" lon="7.56512">
        <ele>1028.8000488281</ele>
        <time>2022-09-10T10:44:59.000Z</time>
      </trkpt>
      <trkpt lat="43.91323" lon="7.56506">
        <ele>1029</ele>
        <time>2022-09-10T10:45:02.000Z</time>
      </trkpt>
      <trkpt lat="43.9133" lon="7.56502">
        <ele>1029.1999511719</ele>
        <time>2022-09-10T10:45:05.000Z</time>
      </trkpt>
      <trkpt lat="43.91341" lon="7.56491">
        <ele>1030</ele>
        <time>2022-09-10T10:45:10.000Z</time>
      </trkpt>
      <trkpt lat="43.91343" lon="7.56489">
        <ele>1030.1999511719</ele>
        <time>2022-09-10T10:45:11.000Z</time>
      </trkpt>
      <trkpt lat="43.91358" lon="7.56479">
        <ele>1030.4000244141</ele>
        <time>2022-09-10T10:45:17.000Z</time>
      </trkpt>
      <trkpt lat="43.91373" lon="7.56475">
        <ele>1031</ele>
        <time>2022-09-10T10:45:23.000Z</time>
      </trkpt>
      <trkpt lat="43.9138" lon="7.56484">
        <ele>1031.1999511719</ele>
        <time>2022-09-10T10:45:27.000Z</time>
      </trkpt>
      <trkpt lat="43.91381" lon="7.56488">
        <ele>1031.1999511719</ele>
        <time>2022-09-10T10:45:28.000Z</time>
      </trkpt>
      <trkpt lat="43.91379" lon="7.56495">
        <ele>1031.4000244141</ele>
        <time>2022-09-10T10:45:30.000Z</time>
      </trkpt>
      <trkpt lat="43.91378" lon="7.565">
        <ele>1031.1999511719</ele>
        <time>2022-09-10T10:45:31.000Z</time>
      </trkpt>
      <trkpt lat="43.91369" lon="7.56521">
        <ele>1030.8000488281</ele>
        <time>2022-09-10T10:45:36.000Z</time>
      </trkpt>
      <trkpt lat="43.91363" lon="7.56541">
        <ele>1030.1999511719</ele>
        <time>2022-09-10T10:45:40.000Z</time>
      </trkpt>
      <trkpt lat="43.91362" lon="7.56546">
        <ele>1030.1999511719</ele>
        <time>2022-09-10T10:45:41.000Z</time>
      </trkpt>
      <trkpt lat="43.91358" lon="7.56577">
        <ele>1029.1999511719</ele>
        <time>2022-09-10T10:45:47.000Z</time>
      </trkpt>
      <trkpt lat="43.91351" lon="7.56605">
        <ele>1028.8000488281</ele>
        <time>2022-09-10T10:45:53.000Z</time>
      </trkpt>
      <trkpt lat="43.91348" lon="7.5662">
        <ele>1028</ele>
        <time>2022-09-10T10:45:56.000Z</time>
      </trkpt>
      <trkpt lat="43.91349" lon="7.56636">
        <ele>1027.4000244141</ele>
        <time>2022-09-10T10:45:59.000Z</time>
      </trkpt>
      <trkpt lat="43.9135" lon="7.56642">
        <ele>1026.8000488281</ele>
        <time>2022-09-10T10:46:00.000Z</time>
      </trkpt>
      <trkpt lat="43.91356" lon="7.56658">
        <ele>1026.4000244141</ele>
        <time>2022-09-10T10:46:03.000Z</time>
      </trkpt>
      <trkpt lat="43.91365" lon="7.56672">
        <ele>1025.8000488281</ele>
        <time>2022-09-10T10:46:06.000Z</time>
      </trkpt>
      <trkpt lat="43.91372" lon="7.56684">
        <ele>1025</ele>
        <time>2022-09-10T10:46:09.000Z</time>
      </trkpt>
      <trkpt lat="43.91375" lon="7.56689">
        <ele>1024.5999755859</ele>
        <time>2022-09-10T10:46:10.000Z</time>
      </trkpt>
      <trkpt lat="43.91387" lon="7.56713">
        <ele>1023.4000244141</ele>
        <time>2022-09-10T10:46:15.000Z</time>
      </trkpt>
      <trkpt lat="43.91401" lon="7.56752">
        <ele>1022.4000244141</ele>
        <time>2022-09-10T10:46:23.000Z</time>
      </trkpt>
      <trkpt lat="43.91402" lon="7.56757">
        <ele>1022</ele>
        <time>2022-09-10T10:46:24.000Z</time>
      </trkpt>
      <trkpt lat="43.91411" lon="7.56784">
        <ele>1021.200012207</ele>
        <time>2022-09-10T10:46:30.000Z</time>
      </trkpt>
      <trkpt lat="43.91413" lon="7.56788">
        <ele>1020.5999755859</ele>
        <time>2022-09-10T10:46:31.000Z</time>
      </trkpt>
      <trkpt lat="43.91415" lon="7.56799">
        <ele>1019.4000244141</ele>
        <time>2022-09-10T10:46:34.000Z</time>
      </trkpt>
      <trkpt lat="43.91417" lon="7.56804">
        <ele>1019.200012207</ele>
        <time>2022-09-10T10:46:35.000Z</time>
      </trkpt>
      <trkpt lat="43.91424" lon="7.56822">
        <ele>1019.200012207</ele>
        <time>2022-09-10T10:46:39.000Z</time>
      </trkpt>
      <trkpt lat="43.91426" lon="7.56828">
        <ele>1019</ele>
        <time>2022-09-10T10:46:40.000Z</time>
      </trkpt>
      <trkpt lat="43.91429" lon="7.56841">
        <ele>1018.4000244141</ele>
        <time>2022-09-10T10:46:42.000Z</time>
      </trkpt>
      <trkpt lat="43.91431" lon="7.56854">
        <ele>1018.200012207</ele>
        <time>2022-09-10T10:46:44.000Z</time>
      </trkpt>
      <trkpt lat="43.91432" lon="7.5686">
        <ele>1017.799987793</ele>
        <time>2022-09-10T10:46:45.000Z</time>
      </trkpt>
      <trkpt lat="43.9143" lon="7.56878">
        <ele>1017.4000244141</ele>
        <time>2022-09-10T10:46:48.000Z</time>
      </trkpt>
      <trkpt lat="43.91427" lon="7.56882">
        <ele>1016.799987793</ele>
        <time>2022-09-10T10:46:49.000Z</time>
      </trkpt>
      <trkpt lat="43.91419" lon="7.56886">
        <ele>1016.799987793</ele>
        <time>2022-09-10T10:46:51.000Z</time>
      </trkpt>
      <trkpt lat="43.91402" lon="7.56881">
        <ele>1015.799987793</ele>
        <time>2022-09-10T10:46:55.000Z</time>
      </trkpt>
      <trkpt lat="43.91397" lon="7.56878">
        <ele>1015.5999755859</ele>
        <time>2022-09-10T10:46:56.000Z</time>
      </trkpt>
      <trkpt lat="43.9138" lon="7.5687">
        <ele>1014.5999755859</ele>
        <time>2022-09-10T10:47:00.000Z</time>
      </trkpt>
      <trkpt lat="43.91376" lon="7.56871">
        <ele>1014.4000244141</ele>
        <time>2022-09-10T10:47:01.000Z</time>
      </trkpt>
      <trkpt lat="43.91371" lon="7.56872">
        <ele>1014.200012207</ele>
        <time>2022-09-10T10:47:02.000Z</time>
      </trkpt>
      <trkpt lat="43.91355" lon="7.56885">
        <ele>1013.200012207</ele>
        <time>2022-09-10T10:47:06.000Z</time>
      </trkpt>
      <trkpt lat="43.91352" lon="7.5689">
        <ele>1012.4000244141</ele>
        <time>2022-09-10T10:47:07.000Z</time>
      </trkpt>
      <trkpt lat="43.9135" lon="7.56894">
        <ele>1011.799987793</ele>
        <time>2022-09-10T10:47:08.000Z</time>
      </trkpt>
      <trkpt lat="43.91348" lon="7.56903">
        <ele>1011</ele>
        <time>2022-09-10T10:47:10.000Z</time>
      </trkpt>
      <trkpt lat="43.91347" lon="7.56908">
        <ele>1010.5999755859</ele>
        <time>2022-09-10T10:47:11.000Z</time>
      </trkpt>
      <trkpt lat="43.91346" lon="7.56912">
        <ele>1010.4000244141</ele>
        <time>2022-09-10T10:47:12.000Z</time>
      </trkpt>
      <trkpt lat="43.91347" lon="7.56925">
        <ele>1009.5999755859</ele>
        <time>2022-09-10T10:47:15.000Z</time>
      </trkpt>
      <trkpt lat="43.9135" lon="7.56939">
        <ele>1008.5999755859</ele>
        <time>2022-09-10T10:47:18.000Z</time>
      </trkpt>
      <trkpt lat="43.91351" lon="7.56942">
        <ele>1008.200012207</ele>
        <time>2022-09-10T10:47:19.000Z</time>
      </trkpt>
      <trkpt lat="43.91352" lon="7.56948">
        <ele>1007.200012207</ele>
        <time>2022-09-10T10:47:23.000Z</time>
      </trkpt>
      <trkpt lat="43.91353" lon="7.56948">
        <ele>1006.5999755859</ele>
        <time>2022-09-10T10:47:30.000Z</time>
      </trkpt>
      <trkpt lat="43.91353" lon="7.56947">
        <ele>1006</ele>
        <time>2022-09-10T10:47:36.000Z</time>
      </trkpt>
      <trkpt lat="43.91353" lon="7.56948">
        <ele>1006</ele>
        <time>2022-09-10T10:47:42.000Z</time>
      </trkpt>
      <trkpt lat="43.91354" lon="7.56947">
        <ele>1006.4000244141</ele>
        <time>2022-09-10T10:47:48.000Z</time>
      </trkpt>
      <trkpt lat="43.91353" lon="7.56947">
        <ele>1007</ele>
        <time>2022-09-10T10:47:52.000Z</time>
      </trkpt>
      <trkpt lat="43.91353" lon="7.56948">
        <ele>1007.200012207</ele>
        <time>2022-09-10T10:47:59.000Z</time>
      </trkpt>
      <trkpt lat="43.91353" lon="7.56955">
        <ele>1007.5999755859</ele>
        <time>2022-09-10T10:48:04.000Z</time>
      </trkpt>
      <trkpt lat="43.91355" lon="7.56972">
        <ele>1007</ele>
        <time>2022-09-10T10:48:08.000Z</time>
      </trkpt>
      <trkpt lat="43.91358" lon="7.56995">
        <ele>1005.799987793</ele>
        <time>2022-09-10T10:48:12.000Z</time>
      </trkpt>
      <trkpt lat="43.91359" lon="7.57002">
        <ele>1005.5999755859</ele>
        <time>2022-09-10T10:48:13.000Z</time>
      </trkpt>
      <trkpt lat="43.91361" lon="7.57022">
        <ele>1004.799987793</ele>
        <time>2022-09-10T10:48:16.000Z</time>
      </trkpt>
      <trkpt lat="43.91363" lon="7.57034">
        <ele>1003.4000244141</ele>
        <time>2022-09-10T10:48:18.000Z</time>
      </trkpt>
      <trkpt lat="43.91365" lon="7.57045">
        <ele>1001.799987793</ele>
        <time>2022-09-10T10:48:20.000Z</time>
      </trkpt>
      <trkpt lat="43.91367" lon="7.57057">
        <ele>1001</ele>
        <time>2022-09-10T10:48:22.000Z</time>
      </trkpt>
      <trkpt lat="43.91369" lon="7.57069">
        <ele>1000.5999755859</ele>
        <time>2022-09-10T10:48:24.000Z</time>
      </trkpt>
      <trkpt lat="43.91373" lon="7.57081">
        <ele>1001.4000244141</ele>
        <time>2022-09-10T10:48:26.000Z</time>
      </trkpt>
      <trkpt lat="43.91389" lon="7.57108">
        <ele>1000.5999755859</ele>
        <time>2022-09-10T10:48:31.000Z</time>
      </trkpt>
      <trkpt lat="43.91393" lon="7.57112">
        <ele>1000.5999755859</ele>
        <time>2022-09-10T10:48:32.000Z</time>
      </trkpt>
      <trkpt lat="43.91416" lon="7.57137">
        <ele>999.40002441406</ele>
        <time>2022-09-10T10:48:38.000Z</time>
      </trkpt>
      <trkpt lat="43.9142" lon="7.5714">
        <ele>999.20001220703</ele>
        <time>2022-09-10T10:48:39.000Z</time>
      </trkpt>
      <trkpt lat="43.91439" lon="7.57157">
        <ele>999.20001220703</ele>
        <time>2022-09-10T10:48:45.000Z</time>
      </trkpt>
      <trkpt lat="43.91448" lon="7.57167">
        <ele>999.40002441406</ele>
        <time>2022-09-10T10:48:50.000Z</time>
      </trkpt>
      <trkpt lat="43.91499" lon="7.57207">
        <ele>999.20001220703</ele>
        <time>2022-09-10T10:49:20.000Z</time>
      </trkpt>
      <trkpt lat="43.91506" lon="7.57217">
        <ele>999.20001220703</ele>
        <time>2022-09-10T10:49:22.000Z</time>
      </trkpt>
      <trkpt lat="43.91518" lon="7.57241">
        <ele>1000</ele>
        <time>2022-09-10T10:49:29.000Z</time>
      </trkpt>
      <trkpt lat="43.91524" lon="7.57253">
        <ele>1000.5999755859</ele>
        <time>2022-09-10T10:49:33.000Z</time>
      </trkpt>
      <trkpt lat="43.91527" lon="7.57259">
        <ele>1000.5999755859</ele>
        <time>2022-09-10T10:49:35.000Z</time>
      </trkpt>
      <trkpt lat="43.91543" lon="7.57284">
        <ele>1001.5999755859</ele>
        <time>2022-09-10T10:49:45.000Z</time>
      </trkpt>
      <trkpt lat="43.91544" lon="7.57287">
        <ele>1001.5999755859</ele>
        <time>2022-09-10T10:49:46.000Z</time>
      </trkpt>
      <trkpt lat="43.91557" lon="7.57306">
        <ele>1002.5999755859</ele>
        <time>2022-09-10T10:49:54.000Z</time>
      </trkpt>
      <trkpt lat="43.91574" lon="7.57322">
        <ele>1003.4000244141</ele>
        <time>2022-09-10T10:50:02.000Z</time>
      </trkpt>
      <trkpt lat="43.91589" lon="7.57335">
        <ele>1003.5999755859</ele>
        <time>2022-09-10T10:50:08.000Z</time>
      </trkpt>
      <trkpt lat="43.91594" lon="7.57339">
        <ele>1003.799987793</ele>
        <time>2022-09-10T10:50:10.000Z</time>
      </trkpt>
      <trkpt lat="43.91616" lon="7.57357">
        <ele>1003.4000244141</ele>
        <time>2022-09-10T10:50:18.000Z</time>
      </trkpt>
      <trkpt lat="43.91631" lon="7.5737">
        <ele>1004.200012207</ele>
        <time>2022-09-10T10:50:25.000Z</time>
      </trkpt>
      <trkpt lat="43.91641" lon="7.57372">
        <ele>1004.799987793</ele>
        <time>2022-09-10T10:50:29.000Z</time>
      </trkpt>
      <trkpt lat="43.91644" lon="7.57371">
        <ele>1004.799987793</ele>
        <time>2022-09-10T10:50:30.000Z</time>
      </trkpt>
      <trkpt lat="43.91661" lon="7.57372">
        <ele>1005.200012207</ele>
        <time>2022-09-10T10:50:36.000Z</time>
      </trkpt>
      <trkpt lat="43.91669" lon="7.57389">
        <ele>1005.4000244141</ele>
        <time>2022-09-10T10:50:41.000Z</time>
      </trkpt>
      <trkpt lat="43.91672" lon="7.57396">
        <ele>1005.799987793</ele>
        <time>2022-09-10T10:50:43.000Z</time>
      </trkpt>
      <trkpt lat="43.91683" lon="7.57415">
        <ele>1005.799987793</ele>
        <time>2022-09-10T10:50:49.000Z</time>
      </trkpt>
      <trkpt lat="43.91699" lon="7.5742">
        <ele>1006</ele>
        <time>2022-09-10T10:50:54.000Z</time>
      </trkpt>
      <trkpt lat="43.91721" lon="7.5742">
        <ele>1006.5999755859</ele>
        <time>2022-09-10T10:51:01.000Z</time>
      </trkpt>
      <trkpt lat="43.91724" lon="7.57421">
        <ele>1006.799987793</ele>
        <time>2022-09-10T10:51:02.000Z</time>
      </trkpt>
      <trkpt lat="43.91739" lon="7.5742">
        <ele>1007</ele>
        <time>2022-09-10T10:51:07.000Z</time>
      </trkpt>
      <trkpt lat="43.9176" lon="7.57417">
        <ele>1007.799987793</ele>
        <time>2022-09-10T10:51:15.000Z</time>
      </trkpt>
      <trkpt lat="43.91763" lon="7.57416">
        <ele>1007.799987793</ele>
        <time>2022-09-10T10:51:16.000Z</time>
      </trkpt>
      <trkpt lat="43.91781" lon="7.57412">
        <ele>1008.5999755859</ele>
        <time>2022-09-10T10:51:23.000Z</time>
      </trkpt>
      <trkpt lat="43.91788" lon="7.57411">
        <ele>1008.799987793</ele>
        <time>2022-09-10T10:51:25.000Z</time>
      </trkpt>
      <trkpt lat="43.91801" lon="7.57408">
        <ele>1009.4000244141</ele>
        <time>2022-09-10T10:51:30.000Z</time>
      </trkpt>
      <trkpt lat="43.91816" lon="7.574">
        <ele>1010</ele>
        <time>2022-09-10T10:51:35.000Z</time>
      </trkpt>
      <trkpt lat="43.91818" lon="7.57399">
        <ele>1010.200012207</ele>
        <time>2022-09-10T10:51:36.000Z</time>
      </trkpt>
      <trkpt lat="43.91831" lon="7.57393">
        <ele>1011.200012207</ele>
        <time>2022-09-10T10:51:41.000Z</time>
      </trkpt>
      <trkpt lat="43.91833" lon="7.57391">
        <ele>1011.4000244141</ele>
        <time>2022-09-10T10:51:42.000Z</time>
      </trkpt>
      <trkpt lat="43.91848" lon="7.57387">
        <ele>1012.200012207</ele>
        <time>2022-09-10T10:51:48.000Z</time>
      </trkpt>
      <trkpt lat="43.91861" lon="7.57385">
        <ele>1013.200012207</ele>
        <time>2022-09-10T10:51:53.000Z</time>
      </trkpt>
      <trkpt lat="43.91867" lon="7.57385">
        <ele>1013.5999755859</ele>
        <time>2022-09-10T10:51:55.000Z</time>
      </trkpt>
      <trkpt lat="43.91876" lon="7.57384">
        <ele>1014.4000244141</ele>
        <time>2022-09-10T10:51:59.000Z</time>
      </trkpt>
      <trkpt lat="43.91883" lon="7.57382">
        <ele>1014.799987793</ele>
        <time>2022-09-10T10:52:02.000Z</time>
      </trkpt>
      <trkpt lat="43.91892" lon="7.57379">
        <ele>1015.799987793</ele>
        <time>2022-09-10T10:52:06.000Z</time>
      </trkpt>
      <trkpt lat="43.91896" lon="7.57376">
        <ele>1016</ele>
        <time>2022-09-10T10:52:08.000Z</time>
      </trkpt>
      <trkpt lat="43.9191" lon="7.5737">
        <ele>1017</ele>
        <time>2022-09-10T10:52:14.000Z</time>
      </trkpt>
      <trkpt lat="43.91913" lon="7.57369">
        <ele>1017</ele>
        <time>2022-09-10T10:52:15.000Z</time>
      </trkpt>
      <trkpt lat="43.91924" lon="7.57367">
        <ele>1018</ele>
        <time>2022-09-10T10:52:20.000Z</time>
      </trkpt>
      <trkpt lat="43.91928" lon="7.57365">
        <ele>1018.4000244141</ele>
        <time>2022-09-10T10:52:22.000Z</time>
      </trkpt>
      <trkpt lat="43.91941" lon="7.5736">
        <ele>1019.200012207</ele>
        <time>2022-09-10T10:52:28.000Z</time>
      </trkpt>
      <trkpt lat="43.91954" lon="7.57357">
        <ele>1020.200012207</ele>
        <time>2022-09-10T10:52:34.000Z</time>
      </trkpt>
      <trkpt lat="43.91956" lon="7.57357">
        <ele>1020.4000244141</ele>
        <time>2022-09-10T10:52:35.000Z</time>
      </trkpt>
      <trkpt lat="43.91973" lon="7.57352">
        <ele>1021.200012207</ele>
        <time>2022-09-10T10:52:42.000Z</time>
      </trkpt>
      <trkpt lat="43.91985" lon="7.5735">
        <ele>1022.4000244141</ele>
        <time>2022-09-10T10:52:47.000Z</time>
      </trkpt>
      <trkpt lat="43.92003" lon="7.57344">
        <ele>1023.5999755859</ele>
        <time>2022-09-10T10:52:54.000Z</time>
      </trkpt>
      <trkpt lat="43.92022" lon="7.57341">
        <ele>1024.4000244141</ele>
        <time>2022-09-10T10:53:01.000Z</time>
      </trkpt>
      <trkpt lat="43.92025" lon="7.57341">
        <ele>1024.8000488281</ele>
        <time>2022-09-10T10:53:02.000Z</time>
      </trkpt>
      <trkpt lat="43.92036" lon="7.57341">
        <ele>1025.8000488281</ele>
        <time>2022-09-10T10:53:06.000Z</time>
      </trkpt>
      <trkpt lat="43.92042" lon="7.57344">
        <ele>1026</ele>
        <time>2022-09-10T10:53:08.000Z</time>
      </trkpt>
      <trkpt lat="43.92056" lon="7.57353">
        <ele>1027</ele>
        <time>2022-09-10T10:53:13.000Z</time>
      </trkpt>
      <trkpt lat="43.92066" lon="7.57358">
        <ele>1027.4000244141</ele>
        <time>2022-09-10T10:53:16.000Z</time>
      </trkpt>
      <trkpt lat="43.92092" lon="7.57366">
        <ele>1027.8000488281</ele>
        <time>2022-09-10T10:53:24.000Z</time>
      </trkpt>
      <trkpt lat="43.92109" lon="7.57372">
        <ele>1028.1999511719</ele>
        <time>2022-09-10T10:53:29.000Z</time>
      </trkpt>
      <trkpt lat="43.92119" lon="7.57377">
        <ele>1028.4000244141</ele>
        <time>2022-09-10T10:53:32.000Z</time>
      </trkpt>
      <trkpt lat="43.92148" lon="7.57388">
        <ele>1028.4000244141</ele>
        <time>2022-09-10T10:53:40.000Z</time>
      </trkpt>
      <trkpt lat="43.92183" lon="7.57399">
        <ele>1028.5999755859</ele>
        <time>2022-09-10T10:53:49.000Z</time>
      </trkpt>
      <trkpt lat="43.92196" lon="7.574">
        <ele>1028.8000488281</ele>
        <time>2022-09-10T10:53:52.000Z</time>
      </trkpt>
      <trkpt lat="43.92204" lon="7.574">
        <ele>1029.4000244141</ele>
        <time>2022-09-10T10:53:54.000Z</time>
      </trkpt>
      <trkpt lat="43.92217" lon="7.574">
        <ele>1029.4000244141</ele>
        <time>2022-09-10T10:53:57.000Z</time>
      </trkpt>
      <trkpt lat="43.92247" lon="7.57398">
        <ele>1030</ele>
        <time>2022-09-10T10:54:04.000Z</time>
      </trkpt>
      <trkpt lat="43.92259" lon="7.57397">
        <ele>1030.4000244141</ele>
        <time>2022-09-10T10:54:07.000Z</time>
      </trkpt>
      <trkpt lat="43.92263" lon="7.57399">
        <ele>1030.5999755859</ele>
        <time>2022-09-10T10:54:08.000Z</time>
      </trkpt>
      <trkpt lat="43.92267" lon="7.57402">
        <ele>1030.5999755859</ele>
        <time>2022-09-10T10:54:09.000Z</time>
      </trkpt>
      <trkpt lat="43.92276" lon="7.57423">
        <ele>1031</ele>
        <time>2022-09-10T10:54:13.000Z</time>
      </trkpt>
      <trkpt lat="43.92276" lon="7.57435">
        <ele>1030.8000488281</ele>
        <time>2022-09-10T10:54:15.000Z</time>
      </trkpt>
      <trkpt lat="43.92275" lon="7.57463">
        <ele>1030.5999755859</ele>
        <time>2022-09-10T10:54:20.000Z</time>
      </trkpt>
      <trkpt lat="43.92275" lon="7.5749">
        <ele>1031.5999755859</ele>
        <time>2022-09-10T10:54:26.000Z</time>
      </trkpt>
      <trkpt lat="43.92276" lon="7.57495">
        <ele>1031.5999755859</ele>
        <time>2022-09-10T10:54:27.000Z</time>
      </trkpt>
      <trkpt lat="43.92277" lon="7.57517">
        <ele>1032.8000488281</ele>
        <time>2022-09-10T10:54:32.000Z</time>
      </trkpt>
      <trkpt lat="43.92277" lon="7.57525">
        <ele>1033.5999755859</ele>
        <time>2022-09-10T10:54:34.000Z</time>
      </trkpt>
      <trkpt lat="43.92278" lon="7.57532">
        <ele>1034.1999511719</ele>
        <time>2022-09-10T10:54:36.000Z</time>
      </trkpt>
      <trkpt lat="43.92279" lon="7.57548">
        <ele>1035.1999511719</ele>
        <time>2022-09-10T10:54:41.000Z</time>
      </trkpt>
      <trkpt lat="43.92279" lon="7.5756">
        <ele>1036.4000244141</ele>
        <time>2022-09-10T10:54:45.000Z</time>
      </trkpt>
      <trkpt lat="43.92279" lon="7.57571">
        <ele>1037.4000244141</ele>
        <time>2022-09-10T10:54:49.000Z</time>
      </trkpt>
      <trkpt lat="43.92279" lon="7.57574">
        <ele>1037.5999755859</ele>
        <time>2022-09-10T10:54:50.000Z</time>
      </trkpt>
      <trkpt lat="43.92279" lon="7.57585">
        <ele>1038.4000244141</ele>
        <time>2022-09-10T10:54:54.000Z</time>
      </trkpt>
      <trkpt lat="43.92278" lon="7.57593">
        <ele>1039.1999511719</ele>
        <time>2022-09-10T10:54:57.000Z</time>
      </trkpt>
      <trkpt lat="43.92278" lon="7.57598">
        <ele>1039.5999755859</ele>
        <time>2022-09-10T10:54:59.000Z</time>
      </trkpt>
      <trkpt lat="43.92276" lon="7.5761">
        <ele>1040.5999755859</ele>
        <time>2022-09-10T10:55:04.000Z</time>
      </trkpt>
      <trkpt lat="43.92276" lon="7.57613">
        <ele>1040.8000488281</ele>
        <time>2022-09-10T10:55:05.000Z</time>
      </trkpt>
      <trkpt lat="43.92274" lon="7.57628">
        <ele>1041.8000488281</ele>
        <time>2022-09-10T10:55:11.000Z</time>
      </trkpt>
      <trkpt lat="43.92276" lon="7.57649">
        <ele>1042.8000488281</ele>
        <time>2022-09-10T10:55:19.000Z</time>
      </trkpt>
      <trkpt lat="43.92282" lon="7.57672">
        <ele>1044</ele>
        <time>2022-09-10T10:55:27.000Z</time>
      </trkpt>
      <trkpt lat="43.92288" lon="7.57691">
        <ele>1045</ele>
        <time>2022-09-10T10:55:34.000Z</time>
      </trkpt>
      <trkpt lat="43.92289" lon="7.57694">
        <ele>1045.1999511719</ele>
        <time>2022-09-10T10:55:35.000Z</time>
      </trkpt>
      <trkpt lat="43.92295" lon="7.57709">
        <ele>1046</ele>
        <time>2022-09-10T10:55:41.000Z</time>
      </trkpt>
      <trkpt lat="43.92296" lon="7.57711">
        <ele>1046.1999511719</ele>
        <time>2022-09-10T10:55:42.000Z</time>
      </trkpt>
      <trkpt lat="43.92304" lon="7.57719">
        <ele>1047.1999511719</ele>
        <time>2022-09-10T10:55:47.000Z</time>
      </trkpt>
      <trkpt lat="43.92305" lon="7.5772">
        <ele>1047.1999511719</ele>
        <time>2022-09-10T10:55:48.000Z</time>
      </trkpt>
      <trkpt lat="43.9231" lon="7.57726">
        <ele>1047.8000488281</ele>
        <time>2022-09-10T10:55:52.000Z</time>
      </trkpt>
      <trkpt lat="43.92316" lon="7.57731">
        <ele>1048.5999755859</ele>
        <time>2022-09-10T10:55:55.000Z</time>
      </trkpt>
      <trkpt lat="43.92321" lon="7.57737">
        <ele>1048.8000488281</ele>
        <time>2022-09-10T10:55:58.000Z</time>
      </trkpt>
      <trkpt lat="43.92331" lon="7.57744">
        <ele>1049.5999755859</ele>
        <time>2022-09-10T10:56:03.000Z</time>
      </trkpt>
      <trkpt lat="43.92335" lon="7.57745">
        <ele>1049.8000488281</ele>
        <time>2022-09-10T10:56:05.000Z</time>
      </trkpt>
      <trkpt lat="43.92342" lon="7.57752">
        <ele>1050.4000244141</ele>
        <time>2022-09-10T10:56:09.000Z</time>
      </trkpt>
      <trkpt lat="43.92346" lon="7.57756">
        <ele>1050.8000488281</ele>
        <time>2022-09-10T10:56:11.000Z</time>
      </trkpt>
      <trkpt lat="43.92348" lon="7.57758">
        <ele>1051</ele>
        <time>2022-09-10T10:56:12.000Z</time>
      </trkpt>
      <trkpt lat="43.92358" lon="7.57767">
        <ele>1051.8000488281</ele>
        <time>2022-09-10T10:56:17.000Z</time>
      </trkpt>
      <trkpt lat="43.92361" lon="7.57771">
        <ele>1052.1999511719</ele>
        <time>2022-09-10T10:56:19.000Z</time>
      </trkpt>
      <trkpt lat="43.92367" lon="7.57777">
        <ele>1053</ele>
        <time>2022-09-10T10:56:22.000Z</time>
      </trkpt>
      <trkpt lat="43.92372" lon="7.57782">
        <ele>1053.4000244141</ele>
        <time>2022-09-10T10:56:25.000Z</time>
      </trkpt>
      <trkpt lat="43.92386" lon="7.57796">
        <ele>1054.1999511719</ele>
        <time>2022-09-10T10:56:33.000Z</time>
      </trkpt>
      <trkpt lat="43.92396" lon="7.57805">
        <ele>1055.1999511719</ele>
        <time>2022-09-10T10:56:39.000Z</time>
      </trkpt>
      <trkpt lat="43.92398" lon="7.57807">
        <ele>1055.4000244141</ele>
        <time>2022-09-10T10:56:40.000Z</time>
      </trkpt>
      <trkpt lat="43.92407" lon="7.57815">
        <ele>1056.8000488281</ele>
        <time>2022-09-10T10:56:45.000Z</time>
      </trkpt>
      <trkpt lat="43.92416" lon="7.57826">
        <ele>1057.8000488281</ele>
        <time>2022-09-10T10:56:51.000Z</time>
      </trkpt>
      <trkpt lat="43.92427" lon="7.57832">
        <ele>1058.5999755859</ele>
        <time>2022-09-10T10:56:57.000Z</time>
      </trkpt>
      <trkpt lat="43.92429" lon="7.57833">
        <ele>1058.8000488281</ele>
        <time>2022-09-10T10:56:58.000Z</time>
      </trkpt>
      <trkpt lat="43.92439" lon="7.57837">
        <ele>1060</ele>
        <time>2022-09-10T10:57:04.000Z</time>
      </trkpt>
      <trkpt lat="43.92448" lon="7.5784">
        <ele>1061</ele>
        <time>2022-09-10T10:57:09.000Z</time>
      </trkpt>
      <trkpt lat="43.92451" lon="7.57841">
        <ele>1061.1999511719</ele>
        <time>2022-09-10T10:57:11.000Z</time>
      </trkpt>
      <trkpt lat="43.92458" lon="7.57846">
        <ele>1062.1999511719</ele>
        <time>2022-09-10T10:57:16.000Z</time>
      </trkpt>
      <trkpt lat="43.92461" lon="7.57847">
        <ele>1062.4000244141</ele>
        <time>2022-09-10T10:57:18.000Z</time>
      </trkpt>
      <trkpt lat="43.92471" lon="7.57849">
        <ele>1063</ele>
        <time>2022-09-10T10:57:24.000Z</time>
      </trkpt>
      <trkpt lat="43.92473" lon="7.57849">
        <ele>1063.1999511719</ele>
        <time>2022-09-10T10:57:25.000Z</time>
      </trkpt>
      <trkpt lat="43.9248" lon="7.57851">
        <ele>1064.1999511719</ele>
        <time>2022-09-10T10:57:30.000Z</time>
      </trkpt>
      <trkpt lat="43.92482" lon="7.57852">
        <ele>1064.4000244141</ele>
        <time>2022-09-10T10:57:31.000Z</time>
      </trkpt>
      <trkpt lat="43.92491" lon="7.57854">
        <ele>1065.4000244141</ele>
        <time>2022-09-10T10:57:36.000Z</time>
      </trkpt>
      <trkpt lat="43.92493" lon="7.57854">
        <ele>1065.5999755859</ele>
        <time>2022-09-10T10:57:37.000Z</time>
      </trkpt>
      <trkpt lat="43.92501" lon="7.57856">
        <ele>1066.4000244141</ele>
        <time>2022-09-10T10:57:42.000Z</time>
      </trkpt>
      <trkpt lat="43.92503" lon="7.57857">
        <ele>1066.5999755859</ele>
        <time>2022-09-10T10:57:43.000Z</time>
      </trkpt>
      <trkpt lat="43.92513" lon="7.57857">
        <ele>1067.5999755859</ele>
        <time>2022-09-10T10:57:49.000Z</time>
      </trkpt>
      <trkpt lat="43.92515" lon="7.57857">
        <ele>1067.5999755859</ele>
        <time>2022-09-10T10:57:50.000Z</time>
      </trkpt>
      <trkpt lat="43.92521" lon="7.57858">
        <ele>1068.1999511719</ele>
        <time>2022-09-10T10:57:53.000Z</time>
      </trkpt>
      <trkpt lat="43.92527" lon="7.57858">
        <ele>1068.5999755859</ele>
        <time>2022-09-10T10:57:56.000Z</time>
      </trkpt>
      <trkpt lat="43.92535" lon="7.57859">
        <ele>1069</ele>
        <time>2022-09-10T10:58:00.000Z</time>
      </trkpt>
      <trkpt lat="43.92543" lon="7.57859">
        <ele>1069.8000488281</ele>
        <time>2022-09-10T10:58:04.000Z</time>
      </trkpt>
      <trkpt lat="43.92548" lon="7.57859">
        <ele>1070.4000244141</ele>
        <time>2022-09-10T10:58:06.000Z</time>
      </trkpt>
      <trkpt lat="43.92553" lon="7.57859">
        <ele>1071</ele>
        <time>2022-09-10T10:58:09.000Z</time>
      </trkpt>
      <trkpt lat="43.92556" lon="7.5786">
        <ele>1071.5999755859</ele>
        <time>2022-09-10T10:58:11.000Z</time>
      </trkpt>
      <trkpt lat="43.9256" lon="7.57861">
        <ele>1072</ele>
        <time>2022-09-10T10:58:13.000Z</time>
      </trkpt>
      <trkpt lat="43.92568" lon="7.57861">
        <ele>1072.8000488281</ele>
        <time>2022-09-10T10:58:17.000Z</time>
      </trkpt>
      <trkpt lat="43.92572" lon="7.57861">
        <ele>1073</ele>
        <time>2022-09-10T10:58:19.000Z</time>
      </trkpt>
      <trkpt lat="43.92579" lon="7.57862">
        <ele>1073.5999755859</ele>
        <time>2022-09-10T10:58:23.000Z</time>
      </trkpt>
      <trkpt lat="43.92587" lon="7.57862">
        <ele>1074.1999511719</ele>
        <time>2022-09-10T10:58:28.000Z</time>
      </trkpt>
      <trkpt lat="43.92597" lon="7.57859">
        <ele>1075.1999511719</ele>
        <time>2022-09-10T10:58:33.000Z</time>
      </trkpt>
      <trkpt lat="43.92601" lon="7.57856">
        <ele>1075.5999755859</ele>
        <time>2022-09-10T10:58:35.000Z</time>
      </trkpt>
      <trkpt lat="43.92612" lon="7.57851">
        <ele>1076.4000244141</ele>
        <time>2022-09-10T10:58:40.000Z</time>
      </trkpt>
      <trkpt lat="43.92616" lon="7.57849">
        <ele>1076.5999755859</ele>
        <time>2022-09-10T10:58:42.000Z</time>
      </trkpt>
      <trkpt lat="43.92626" lon="7.57842">
        <ele>1077.4000244141</ele>
        <time>2022-09-10T10:58:47.000Z</time>
      </trkpt>
      <trkpt lat="43.9263" lon="7.57839">
        <ele>1078</ele>
        <time>2022-09-10T10:58:49.000Z</time>
      </trkpt>
      <trkpt lat="43.92633" lon="7.57837">
        <ele>1078.4000244141</ele>
        <time>2022-09-10T10:58:51.000Z</time>
      </trkpt>
      <trkpt lat="43.92639" lon="7.57834">
        <ele>1079</ele>
        <time>2022-09-10T10:58:55.000Z</time>
      </trkpt>
      <trkpt lat="43.92648" lon="7.57829">
        <ele>1079.1999511719</ele>
        <time>2022-09-10T10:59:00.000Z</time>
      </trkpt>
      <trkpt lat="43.92652" lon="7.57827">
        <ele>1079.5999755859</ele>
        <time>2022-09-10T10:59:02.000Z</time>
      </trkpt>
      <trkpt lat="43.92659" lon="7.57822">
        <ele>1080.1999511719</ele>
        <time>2022-09-10T10:59:06.000Z</time>
      </trkpt>
      <trkpt lat="43.9267" lon="7.57811">
        <ele>1080.5999755859</ele>
        <time>2022-09-10T10:59:11.000Z</time>
      </trkpt>
      <trkpt lat="43.92672" lon="7.57808">
        <ele>1080.8000488281</ele>
        <time>2022-09-10T10:59:12.000Z</time>
      </trkpt>
      <trkpt lat="43.92682" lon="7.57793">
        <ele>1081.5999755859</ele>
        <time>2022-09-10T10:59:17.000Z</time>
      </trkpt>
      <trkpt lat="43.92684" lon="7.5779">
        <ele>1082</ele>
        <time>2022-09-10T10:59:18.000Z</time>
      </trkpt>
      <trkpt lat="43.92696" lon="7.57774">
        <ele>1082.5999755859</ele>
        <time>2022-09-10T10:59:24.000Z</time>
      </trkpt>
      <trkpt lat="43.92698" lon="7.5777">
        <ele>1082.8000488281</ele>
        <time>2022-09-10T10:59:26.000Z</time>
      </trkpt>
      <trkpt lat="43.92707" lon="7.57759">
        <ele>1083.5999755859</ele>
        <time>2022-09-10T10:59:30.000Z</time>
      </trkpt>
      <trkpt lat="43.92713" lon="7.57754">
        <ele>1083.8000488281</ele>
        <time>2022-09-10T10:59:33.000Z</time>
      </trkpt>
      <trkpt lat="43.92716" lon="7.57752">
        <ele>1084</ele>
        <time>2022-09-10T10:59:34.000Z</time>
      </trkpt>
      <trkpt lat="43.92728" lon="7.57742">
        <ele>1084.8000488281</ele>
        <time>2022-09-10T10:59:40.000Z</time>
      </trkpt>
      <trkpt lat="43.9273" lon="7.57741">
        <ele>1085</ele>
        <time>2022-09-10T10:59:41.000Z</time>
      </trkpt>
      <trkpt lat="43.92741" lon="7.57732">
        <ele>1085.4000244141</ele>
        <time>2022-09-10T10:59:46.000Z</time>
      </trkpt>
      <trkpt lat="43.92753" lon="7.57728">
        <ele>1086</ele>
        <time>2022-09-10T10:59:50.000Z</time>
      </trkpt>
      <trkpt lat="43.92756" lon="7.57728">
        <ele>1086.1999511719</ele>
        <time>2022-09-10T10:59:51.000Z</time>
      </trkpt>
      <trkpt lat="43.92768" lon="7.57732">
        <ele>1087.4000244141</ele>
        <time>2022-09-10T10:59:56.000Z</time>
      </trkpt>
      <trkpt lat="43.92771" lon="7.57733">
        <ele>1087.4000244141</ele>
        <time>2022-09-10T10:59:57.000Z</time>
      </trkpt>
      <trkpt lat="43.9279" lon="7.5773">
        <ele>1088.4000244141</ele>
        <time>2022-09-10T11:00:04.000Z</time>
      </trkpt>
      <trkpt lat="43.92803" lon="7.57718">
        <ele>1089</ele>
        <time>2022-09-10T11:00:10.000Z</time>
      </trkpt>
      <trkpt lat="43.92806" lon="7.57714">
        <ele>1089.4000244141</ele>
        <time>2022-09-10T11:00:12.000Z</time>
      </trkpt>
      <trkpt lat="43.9281" lon="7.57709">
        <ele>1089.8000488281</ele>
        <time>2022-09-10T11:00:14.000Z</time>
      </trkpt>
      <trkpt lat="43.92821" lon="7.57694">
        <ele>1090.4000244141</ele>
        <time>2022-09-10T11:00:19.000Z</time>
      </trkpt>
      <trkpt lat="43.92836" lon="7.57681">
        <ele>1091.5999755859</ele>
        <time>2022-09-10T11:00:25.000Z</time>
      </trkpt>
      <trkpt lat="43.9285" lon="7.57665">
        <ele>1092.5999755859</ele>
        <time>2022-09-10T11:00:32.000Z</time>
      </trkpt>
      <trkpt lat="43.92861" lon="7.57646">
        <ele>1093.1999511719</ele>
        <time>2022-09-10T11:00:38.000Z</time>
      </trkpt>
      <trkpt lat="43.92867" lon="7.57637">
        <ele>1093.8000488281</ele>
        <time>2022-09-10T11:00:41.000Z</time>
      </trkpt>
      <trkpt lat="43.92873" lon="7.57634">
        <ele>1094.1999511719</ele>
        <time>2022-09-10T11:00:43.000Z</time>
      </trkpt>
      <trkpt lat="43.92884" lon="7.57633">
        <ele>1094.8000488281</ele>
        <time>2022-09-10T11:00:47.000Z</time>
      </trkpt>
      <trkpt lat="43.92889" lon="7.57631">
        <ele>1095.1999511719</ele>
        <time>2022-09-10T11:00:49.000Z</time>
      </trkpt>
      <trkpt lat="43.92904" lon="7.5762">
        <ele>1095.8000488281</ele>
        <time>2022-09-10T11:00:55.000Z</time>
      </trkpt>
      <trkpt lat="43.92911" lon="7.57614">
        <ele>1096</ele>
        <time>2022-09-10T11:00:58.000Z</time>
      </trkpt>
      <trkpt lat="43.9292" lon="7.57605">
        <ele>1096.4000244141</ele>
        <time>2022-09-10T11:01:02.000Z</time>
      </trkpt>
      <trkpt lat="43.92924" lon="7.57602">
        <ele>1097</ele>
        <time>2022-09-10T11:01:04.000Z</time>
      </trkpt>
      <trkpt lat="43.92937" lon="7.57589">
        <ele>1098</ele>
        <time>2022-09-10T11:01:10.000Z</time>
      </trkpt>
      <trkpt lat="43.92954" lon="7.57574">
        <ele>1099</ele>
        <time>2022-09-10T11:01:17.000Z</time>
      </trkpt>
      <trkpt lat="43.92956" lon="7.57572">
        <ele>1099</ele>
        <time>2022-09-10T11:01:18.000Z</time>
      </trkpt>
      <trkpt lat="43.92969" lon="7.57559">
        <ele>1100.1999511719</ele>
        <time>2022-09-10T11:01:24.000Z</time>
      </trkpt>
      <trkpt lat="43.92981" lon="7.57553">
        <ele>1101.1999511719</ele>
        <time>2022-09-10T11:01:30.000Z</time>
      </trkpt>
      <trkpt lat="43.92998" lon="7.57555">
        <ele>1102</ele>
        <time>2022-09-10T11:01:37.000Z</time>
      </trkpt>
      <trkpt lat="43.93004" lon="7.57559">
        <ele>1102.1999511719</ele>
        <time>2022-09-10T11:01:40.000Z</time>
      </trkpt>
      <trkpt lat="43.93014" lon="7.57564">
        <ele>1102.8000488281</ele>
        <time>2022-09-10T11:01:44.000Z</time>
      </trkpt>
      <trkpt lat="43.93022" lon="7.57564">
        <ele>1103.1999511719</ele>
        <time>2022-09-10T11:01:47.000Z</time>
      </trkpt>
      <trkpt lat="43.93034" lon="7.57562">
        <ele>1103.4000244141</ele>
        <time>2022-09-10T11:01:51.000Z</time>
      </trkpt>
      <trkpt lat="43.93053" lon="7.57557">
        <ele>1103.5999755859</ele>
        <time>2022-09-10T11:01:57.000Z</time>
      </trkpt>
      <trkpt lat="43.93066" lon="7.57559">
        <ele>1103.1999511719</ele>
        <time>2022-09-10T11:02:01.000Z</time>
      </trkpt>
      <trkpt lat="43.93076" lon="7.57578">
        <ele>1103.8000488281</ele>
        <time>2022-09-10T11:02:06.000Z</time>
      </trkpt>
      <trkpt lat="43.93079" lon="7.57607">
        <ele>1103.8000488281</ele>
        <time>2022-09-10T11:02:12.000Z</time>
      </trkpt>
      <trkpt lat="43.93082" lon="7.5765">
        <ele>1103.5999755859</ele>
        <time>2022-09-10T11:02:20.000Z</time>
      </trkpt>
      <trkpt lat="43.9308" lon="7.57679">
        <ele>1103.1999511719</ele>
        <time>2022-09-10T11:02:26.000Z</time>
      </trkpt>
      <trkpt lat="43.93078" lon="7.57718">
        <ele>1103.5999755859</ele>
        <time>2022-09-10T11:02:34.000Z</time>
      </trkpt>
      <trkpt lat="43.93078" lon="7.57723">
        <ele>1103.5999755859</ele>
        <time>2022-09-10T11:02:35.000Z</time>
      </trkpt>
      <trkpt lat="43.93083" lon="7.57744">
        <ele>1104</ele>
        <time>2022-09-10T11:02:39.000Z</time>
      </trkpt>
      <trkpt lat="43.93089" lon="7.57758">
        <ele>1104.4000244141</ele>
        <time>2022-09-10T11:02:42.000Z</time>
      </trkpt>
      <trkpt lat="43.93093" lon="7.57768">
        <ele>1104.8000488281</ele>
        <time>2022-09-10T11:02:44.000Z</time>
      </trkpt>
      <trkpt lat="43.93097" lon="7.57784">
        <ele>1105.5999755859</ele>
        <time>2022-09-10T11:02:47.000Z</time>
      </trkpt>
      <trkpt lat="43.93098" lon="7.57794">
        <ele>1105.5999755859</ele>
        <time>2022-09-10T11:02:49.000Z</time>
      </trkpt>
      <trkpt lat="43.93101" lon="7.57825">
        <ele>1106.8000488281</ele>
        <time>2022-09-10T11:02:55.000Z</time>
      </trkpt>
      <trkpt lat="43.93103" lon="7.57835">
        <ele>1107.1999511719</ele>
        <time>2022-09-10T11:02:57.000Z</time>
      </trkpt>
      <trkpt lat="43.93115" lon="7.5787">
        <ele>1107.8000488281</ele>
        <time>2022-09-10T11:03:04.000Z</time>
      </trkpt>
      <trkpt lat="43.93116" lon="7.57875">
        <ele>1108</ele>
        <time>2022-09-10T11:03:05.000Z</time>
      </trkpt>
      <trkpt lat="43.93128" lon="7.57896">
        <ele>1108.1999511719</ele>
        <time>2022-09-10T11:03:10.000Z</time>
      </trkpt>
      <trkpt lat="43.93141" lon="7.57901">
        <ele>1108.4000244141</ele>
        <time>2022-09-10T11:03:14.000Z</time>
      </trkpt>
      <trkpt lat="43.93153" lon="7.57902">
        <ele>1108.8000488281</ele>
        <time>2022-09-10T11:03:18.000Z</time>
      </trkpt>
      <trkpt lat="43.9316" lon="7.57902">
        <ele>1109.1999511719</ele>
        <time>2022-09-10T11:03:20.000Z</time>
      </trkpt>
      <trkpt lat="43.93179" lon="7.57904">
        <ele>1109.8000488281</ele>
        <time>2022-09-10T11:03:26.000Z</time>
      </trkpt>
      <trkpt lat="43.93186" lon="7.57907">
        <ele>1110.1999511719</ele>
        <time>2022-09-10T11:03:28.000Z</time>
      </trkpt>
      <trkpt lat="43.93199" lon="7.57915">
        <ele>1110.5999755859</ele>
        <time>2022-09-10T11:03:32.000Z</time>
      </trkpt>
      <trkpt lat="43.93216" lon="7.57931">
        <ele>1110.5999755859</ele>
        <time>2022-09-10T11:03:38.000Z</time>
      </trkpt>
      <trkpt lat="43.93234" lon="7.57953">
        <ele>1111.1999511719</ele>
        <time>2022-09-10T11:03:45.000Z</time>
      </trkpt>
      <trkpt lat="43.93237" lon="7.57956">
        <ele>1111.1999511719</ele>
        <time>2022-09-10T11:03:46.000Z</time>
      </trkpt>
      <trkpt lat="43.93252" lon="7.57963">
        <ele>1111.5999755859</ele>
        <time>2022-09-10T11:03:51.000Z</time>
      </trkpt>
      <trkpt lat="43.93264" lon="7.57966">
        <ele>1112.1999511719</ele>
        <time>2022-09-10T11:03:55.000Z</time>
      </trkpt>
      <trkpt lat="43.9327" lon="7.57967">
        <ele>1112.4000244141</ele>
        <time>2022-09-10T11:03:57.000Z</time>
      </trkpt>
      <trkpt lat="43.93293" lon="7.5797">
        <ele>1113.1999511719</ele>
        <time>2022-09-10T11:04:04.000Z</time>
      </trkpt>
      <trkpt lat="43.93307" lon="7.5798">
        <ele>1113.5999755859</ele>
        <time>2022-09-10T11:04:09.000Z</time>
      </trkpt>
      <trkpt lat="43.93324" lon="7.58008">
        <ele>1113.8000488281</ele>
        <time>2022-09-10T11:04:17.000Z</time>
      </trkpt>
      <trkpt lat="43.93334" lon="7.58018">
        <ele>1114.4000244141</ele>
        <time>2022-09-10T11:04:21.000Z</time>
      </trkpt>
      <trkpt lat="43.93343" lon="7.58022">
        <ele>1115</ele>
        <time>2022-09-10T11:04:24.000Z</time>
      </trkpt>
      <trkpt lat="43.93353" lon="7.58028">
        <ele>1115.5999755859</ele>
        <time>2022-09-10T11:04:28.000Z</time>
      </trkpt>
      <trkpt lat="43.93361" lon="7.58033">
        <ele>1115.8000488281</ele>
        <time>2022-09-10T11:04:31.000Z</time>
      </trkpt>
      <trkpt lat="43.93371" lon="7.58038">
        <ele>1116.5999755859</ele>
        <time>2022-09-10T11:04:35.000Z</time>
      </trkpt>
      <trkpt lat="43.93378" lon="7.58043">
        <ele>1117</ele>
        <time>2022-09-10T11:04:38.000Z</time>
      </trkpt>
      <trkpt lat="43.93386" lon="7.58051">
        <ele>1117.8000488281</ele>
        <time>2022-09-10T11:04:42.000Z</time>
      </trkpt>
      <trkpt lat="43.9339" lon="7.58056">
        <ele>1118.4000244141</ele>
        <time>2022-09-10T11:04:44.000Z</time>
      </trkpt>
      <trkpt lat="43.93396" lon="7.58064">
        <ele>1119</ele>
        <time>2022-09-10T11:04:47.000Z</time>
      </trkpt>
      <trkpt lat="43.93404" lon="7.58076">
        <ele>1119.8000488281</ele>
        <time>2022-09-10T11:04:51.000Z</time>
      </trkpt>
      <trkpt lat="43.93408" lon="7.58084">
        <ele>1120</ele>
        <time>2022-09-10T11:04:53.000Z</time>
      </trkpt>
      <trkpt lat="43.9342" lon="7.58102">
        <ele>1121</ele>
        <time>2022-09-10T11:04:59.000Z</time>
      </trkpt>
      <trkpt lat="43.93423" lon="7.58104">
        <ele>1121</ele>
        <time>2022-09-10T11:05:00.000Z</time>
      </trkpt>
      <trkpt lat="43.93436" lon="7.58121">
        <ele>1122.4000244141</ele>
        <time>2022-09-10T11:05:06.000Z</time>
      </trkpt>
      <trkpt lat="43.93441" lon="7.58125">
        <ele>1122.5999755859</ele>
        <time>2022-09-10T11:05:08.000Z</time>
      </trkpt>
      <trkpt lat="43.93458" lon="7.58141">
        <ele>1123.5999755859</ele>
        <time>2022-09-10T11:05:15.000Z</time>
      </trkpt>
      <trkpt lat="43.93472" lon="7.58149">
        <ele>1124.5999755859</ele>
        <time>2022-09-10T11:05:20.000Z</time>
      </trkpt>
      <trkpt lat="43.93477" lon="7.58152">
        <ele>1125</ele>
        <time>2022-09-10T11:05:22.000Z</time>
      </trkpt>
      <trkpt lat="43.93488" lon="7.58157">
        <ele>1125.8000488281</ele>
        <time>2022-09-10T11:05:26.000Z</time>
      </trkpt>
      <trkpt lat="43.93499" lon="7.58163">
        <ele>1126.1999511719</ele>
        <time>2022-09-10T11:05:30.000Z</time>
      </trkpt>
      <trkpt lat="43.93508" lon="7.58166">
        <ele>1126.8000488281</ele>
        <time>2022-09-10T11:05:33.000Z</time>
      </trkpt>
      <trkpt lat="43.93516" lon="7.58171">
        <ele>1127</ele>
        <time>2022-09-10T11:05:36.000Z</time>
      </trkpt>
      <trkpt lat="43.93527" lon="7.58179">
        <ele>1128</ele>
        <time>2022-09-10T11:05:40.000Z</time>
      </trkpt>
      <trkpt lat="43.93534" lon="7.58185">
        <ele>1128.4000244141</ele>
        <time>2022-09-10T11:05:43.000Z</time>
      </trkpt>
      <trkpt lat="43.93546" lon="7.58195">
        <ele>1129</ele>
        <time>2022-09-10T11:05:48.000Z</time>
      </trkpt>
      <trkpt lat="43.93558" lon="7.58206">
        <ele>1130</ele>
        <time>2022-09-10T11:05:52.000Z</time>
      </trkpt>
      <trkpt lat="43.93573" lon="7.58221">
        <ele>1131</ele>
        <time>2022-09-10T11:05:59.000Z</time>
      </trkpt>
      <trkpt lat="43.93576" lon="7.58223">
        <ele>1131.1999511719</ele>
        <time>2022-09-10T11:06:00.000Z</time>
      </trkpt>
      <trkpt lat="43.93588" lon="7.58232">
        <ele>1132.4000244141</ele>
        <time>2022-09-10T11:06:05.000Z</time>
      </trkpt>
      <trkpt lat="43.93591" lon="7.58233">
        <ele>1132.5999755859</ele>
        <time>2022-09-10T11:06:06.000Z</time>
      </trkpt>
      <trkpt lat="43.93599" lon="7.58238">
        <ele>1133.5999755859</ele>
        <time>2022-09-10T11:06:10.000Z</time>
      </trkpt>
      <trkpt lat="43.93604" lon="7.58239">
        <ele>1134</ele>
        <time>2022-09-10T11:06:12.000Z</time>
      </trkpt>
      <trkpt lat="43.93608" lon="7.58238">
        <ele>1134.5999755859</ele>
        <time>2022-09-10T11:06:14.000Z</time>
      </trkpt>
      <trkpt lat="43.93617" lon="7.58236">
        <ele>1135.4000244141</ele>
        <time>2022-09-10T11:06:18.000Z</time>
      </trkpt>
      <trkpt lat="43.9362" lon="7.58236">
        <ele>1135.5999755859</ele>
        <time>2022-09-10T11:06:19.000Z</time>
      </trkpt>
      <trkpt lat="43.93629" lon="7.58234">
        <ele>1136.4000244141</ele>
        <time>2022-09-10T11:06:24.000Z</time>
      </trkpt>
      <trkpt lat="43.93634" lon="7.58232">
        <ele>1137</ele>
        <time>2022-09-10T11:06:27.000Z</time>
      </trkpt>
      <trkpt lat="43.93641" lon="7.58227">
        <ele>1137.8000488281</ele>
        <time>2022-09-10T11:06:31.000Z</time>
      </trkpt>
      <trkpt lat="43.93642" lon="7.58226">
        <ele>1138</ele>
        <time>2022-09-10T11:06:32.000Z</time>
      </trkpt>
      <trkpt lat="43.93644" lon="7.58223">
        <ele>1138.1999511719</ele>
        <time>2022-09-10T11:06:33.000Z</time>
      </trkpt>
      <trkpt lat="43.93647" lon="7.5822">
        <ele>1138.5999755859</ele>
        <time>2022-09-10T11:06:35.000Z</time>
      </trkpt>
      <trkpt lat="43.93651" lon="7.58214">
        <ele>1139</ele>
        <time>2022-09-10T11:06:38.000Z</time>
      </trkpt>
      <trkpt lat="43.93652" lon="7.58213">
        <ele>1139</ele>
        <time>2022-09-10T11:06:39.000Z</time>
      </trkpt>
      <trkpt lat="43.93659" lon="7.58205">
        <ele>1140</ele>
        <time>2022-09-10T11:06:44.000Z</time>
      </trkpt>
      <trkpt lat="43.93661" lon="7.58204">
        <ele>1140.1999511719</ele>
        <time>2022-09-10T11:06:45.000Z</time>
      </trkpt>
      <trkpt lat="43.93667" lon="7.58198">
        <ele>1141</ele>
        <time>2022-09-10T11:06:49.000Z</time>
      </trkpt>
      <trkpt lat="43.9367" lon="7.58196">
        <ele>1141.4000244141</ele>
        <time>2022-09-10T11:06:51.000Z</time>
      </trkpt>
      <trkpt lat="43.93678" lon="7.58189">
        <ele>1142.4000244141</ele>
        <time>2022-09-10T11:06:56.000Z</time>
      </trkpt>
      <trkpt lat="43.93688" lon="7.58178">
        <ele>1143.1999511719</ele>
        <time>2022-09-10T11:07:03.000Z</time>
      </trkpt>
      <trkpt lat="43.93689" lon="7.58177">
        <ele>1143.5999755859</ele>
        <time>2022-09-10T11:07:04.000Z</time>
      </trkpt>
      <trkpt lat="43.93696" lon="7.58168">
        <ele>1144.5999755859</ele>
        <time>2022-09-10T11:07:09.000Z</time>
      </trkpt>
      <trkpt lat="43.93697" lon="7.58167">
        <ele>1144.5999755859</ele>
        <time>2022-09-10T11:07:10.000Z</time>
      </trkpt>
      <trkpt lat="43.93704" lon="7.58157">
        <ele>1145.5999755859</ele>
        <time>2022-09-10T11:07:16.000Z</time>
      </trkpt>
      <trkpt lat="43.93712" lon="7.58144">
        <ele>1146.8000488281</ele>
        <time>2022-09-10T11:07:23.000Z</time>
      </trkpt>
      <trkpt lat="43.93713" lon="7.58142">
        <ele>1146.8000488281</ele>
        <time>2022-09-10T11:07:24.000Z</time>
      </trkpt>
      <trkpt lat="43.93718" lon="7.58134">
        <ele>1147.8000488281</ele>
        <time>2022-09-10T11:07:28.000Z</time>
      </trkpt>
      <trkpt lat="43.93721" lon="7.58131">
        <ele>1148</ele>
        <time>2022-09-10T11:07:30.000Z</time>
      </trkpt>
      <trkpt lat="43.93726" lon="7.58122">
        <ele>1148.8000488281</ele>
        <time>2022-09-10T11:07:35.000Z</time>
      </trkpt>
      <trkpt lat="43.93728" lon="7.58118">
        <ele>1149.1999511719</ele>
        <time>2022-09-10T11:07:37.000Z</time>
      </trkpt>
      <trkpt lat="43.93733" lon="7.58111">
        <ele>1149.8000488281</ele>
        <time>2022-09-10T11:07:41.000Z</time>
      </trkpt>
      <trkpt lat="43.93735" lon="7.58107">
        <ele>1150.1999511719</ele>
        <time>2022-09-10T11:07:43.000Z</time>
      </trkpt>
      <trkpt lat="43.9374" lon="7.58098">
        <ele>1150.8000488281</ele>
        <time>2022-09-10T11:07:47.000Z</time>
      </trkpt>
      <trkpt lat="43.93743" lon="7.58093">
        <ele>1151.1999511719</ele>
        <time>2022-09-10T11:07:49.000Z</time>
      </trkpt>
      <trkpt lat="43.9375" lon="7.58084">
        <ele>1152</ele>
        <time>2022-09-10T11:07:54.000Z</time>
      </trkpt>
      <trkpt lat="43.9376" lon="7.58074">
        <ele>1153.1999511719</ele>
        <time>2022-09-10T11:08:00.000Z</time>
      </trkpt>
      <trkpt lat="43.93768" lon="7.58066">
        <ele>1154.1999511719</ele>
        <time>2022-09-10T11:08:05.000Z</time>
      </trkpt>
      <trkpt lat="43.93778" lon="7.58057">
        <ele>1155.1999511719</ele>
        <time>2022-09-10T11:08:11.000Z</time>
      </trkpt>
      <trkpt lat="43.93779" lon="7.58056">
        <ele>1155.4000244141</ele>
        <time>2022-09-10T11:08:12.000Z</time>
      </trkpt>
      <trkpt lat="43.93786" lon="7.58047">
        <ele>1156.1999511719</ele>
        <time>2022-09-10T11:08:17.000Z</time>
      </trkpt>
      <trkpt lat="43.93792" lon="7.58039">
        <ele>1156.5999755859</ele>
        <time>2022-09-10T11:08:20.000Z</time>
      </trkpt>
      <trkpt lat="43.93798" lon="7.58027">
        <ele>1156.4000244141</ele>
        <time>2022-09-10T11:08:24.000Z</time>
      </trkpt>
      <trkpt lat="43.93806" lon="7.58008">
        <ele>1157.1999511719</ele>
        <time>2022-09-10T11:08:30.000Z</time>
      </trkpt>
      <trkpt lat="43.93812" lon="7.57991">
        <ele>1156.8000488281</ele>
        <time>2022-09-10T11:08:35.000Z</time>
      </trkpt>
      <trkpt lat="43.93819" lon="7.57978">
        <ele>1156.5999755859</ele>
        <time>2022-09-10T11:08:39.000Z</time>
      </trkpt>
      <trkpt lat="43.93828" lon="7.57966">
        <ele>1156.8000488281</ele>
        <time>2022-09-10T11:08:42.000Z</time>
      </trkpt>
      <trkpt lat="43.93832" lon="7.57962">
        <ele>1156.5999755859</ele>
        <time>2022-09-10T11:08:43.000Z</time>
      </trkpt>
      <trkpt lat="43.93844" lon="7.57947">
        <ele>1156.4000244141</ele>
        <time>2022-09-10T11:08:46.000Z</time>
      </trkpt>
      <trkpt lat="43.93853" lon="7.57938">
        <ele>1155.8000488281</ele>
        <time>2022-09-10T11:08:48.000Z</time>
      </trkpt>
      <trkpt lat="43.93858" lon="7.57932">
        <ele>1154.8000488281</ele>
        <time>2022-09-10T11:08:49.000Z</time>
      </trkpt>
      <trkpt lat="43.93869" lon="7.57922">
        <ele>1153.1999511719</ele>
        <time>2022-09-10T11:08:51.000Z</time>
      </trkpt>
      <trkpt lat="43.93875" lon="7.57916">
        <ele>1152.5999755859</ele>
        <time>2022-09-10T11:08:52.000Z</time>
      </trkpt>
      <trkpt lat="43.93879" lon="7.57912">
        <ele>1152</ele>
        <time>2022-09-10T11:08:53.000Z</time>
      </trkpt>
      <trkpt lat="43.93896" lon="7.57897">
        <ele>1150.5999755859</ele>
        <time>2022-09-10T11:08:56.000Z</time>
      </trkpt>
      <trkpt lat="43.93902" lon="7.57893">
        <ele>1149.5999755859</ele>
        <time>2022-09-10T11:08:57.000Z</time>
      </trkpt>
      <trkpt lat="43.93908" lon="7.5789">
        <ele>1149</ele>
        <time>2022-09-10T11:08:58.000Z</time>
      </trkpt>
      <trkpt lat="43.93922" lon="7.57883">
        <ele>1148</ele>
        <time>2022-09-10T11:09:00.000Z</time>
      </trkpt>
      <trkpt lat="43.93937" lon="7.57879">
        <ele>1147</ele>
        <time>2022-09-10T11:09:02.000Z</time>
      </trkpt>
      <trkpt lat="43.93944" lon="7.5788">
        <ele>1146.5999755859</ele>
        <time>2022-09-10T11:09:03.000Z</time>
      </trkpt>
      <trkpt lat="43.93952" lon="7.5788">
        <ele>1146.8000488281</ele>
        <time>2022-09-10T11:09:04.000Z</time>
      </trkpt>
      <trkpt lat="43.93976" lon="7.57881">
        <ele>1145.4000244141</ele>
        <time>2022-09-10T11:09:07.000Z</time>
      </trkpt>
      <trkpt lat="43.93983" lon="7.57883">
        <ele>1144.5999755859</ele>
        <time>2022-09-10T11:09:08.000Z</time>
      </trkpt>
      <trkpt lat="43.93991" lon="7.57885">
        <ele>1144</ele>
        <time>2022-09-10T11:09:09.000Z</time>
      </trkpt>
      <trkpt lat="43.93998" lon="7.57888">
        <ele>1143.4000244141</ele>
        <time>2022-09-10T11:09:10.000Z</time>
      </trkpt>
      <trkpt lat="43.94005" lon="7.57891">
        <ele>1142.5999755859</ele>
        <time>2022-09-10T11:09:11.000Z</time>
      </trkpt>
      <trkpt lat="43.94029" lon="7.57897">
        <ele>1141.5999755859</ele>
        <time>2022-09-10T11:09:14.000Z</time>
      </trkpt>
      <trkpt lat="43.94035" lon="7.57902">
        <ele>1141.1999511719</ele>
        <time>2022-09-10T11:09:15.000Z</time>
      </trkpt>
      <trkpt lat="43.94043" lon="7.57916">
        <ele>1140.5999755859</ele>
        <time>2022-09-10T11:09:17.000Z</time>
      </trkpt>
      <trkpt lat="43.94042" lon="7.57921">
        <ele>1140.4000244141</ele>
        <time>2022-09-10T11:09:18.000Z</time>
      </trkpt>
      <trkpt lat="43.9404" lon="7.57928">
        <ele>1140.1999511719</ele>
        <time>2022-09-10T11:09:19.000Z</time>
      </trkpt>
      <trkpt lat="43.94029" lon="7.57936">
        <ele>1140.5999755859</ele>
        <time>2022-09-10T11:09:22.000Z</time>
      </trkpt>
      <trkpt lat="43.94009" lon="7.5795">
        <ele>1140.8000488281</ele>
        <time>2022-09-10T11:09:27.000Z</time>
      </trkpt>
      <trkpt lat="43.93998" lon="7.57961">
        <ele>1141</ele>
        <time>2022-09-10T11:09:30.000Z</time>
      </trkpt>
      <trkpt lat="43.93995" lon="7.57972">
        <ele>1140.8000488281</ele>
        <time>2022-09-10T11:09:32.000Z</time>
      </trkpt>
      <trkpt lat="43.93993" lon="7.57992">
        <ele>1139.8000488281</ele>
        <time>2022-09-10T11:09:35.000Z</time>
      </trkpt>
      <trkpt lat="43.93993" lon="7.57999">
        <ele>1139.1999511719</ele>
        <time>2022-09-10T11:09:36.000Z</time>
      </trkpt>
      <trkpt lat="43.93995" lon="7.58005">
        <ele>1139</ele>
        <time>2022-09-10T11:09:37.000Z</time>
      </trkpt>
      <trkpt lat="43.94002" lon="7.58022">
        <ele>1138.5999755859</ele>
        <time>2022-09-10T11:09:40.000Z</time>
      </trkpt>
      <trkpt lat="43.94004" lon="7.58028">
        <ele>1138.4000244141</ele>
        <time>2022-09-10T11:09:41.000Z</time>
      </trkpt>
      <trkpt lat="43.94007" lon="7.58033">
        <ele>1138</ele>
        <time>2022-09-10T11:09:42.000Z</time>
      </trkpt>
      <trkpt lat="43.94018" lon="7.58057">
        <ele>1137</ele>
        <time>2022-09-10T11:09:46.000Z</time>
      </trkpt>
      <trkpt lat="43.94024" lon="7.58069">
        <ele>1135.8000488281</ele>
        <time>2022-09-10T11:09:48.000Z</time>
      </trkpt>
      <trkpt lat="43.9403" lon="7.58082">
        <ele>1135</ele>
        <time>2022-09-10T11:09:50.000Z</time>
      </trkpt>
      <trkpt lat="43.94033" lon="7.58089">
        <ele>1134.5999755859</ele>
        <time>2022-09-10T11:09:51.000Z</time>
      </trkpt>
      <trkpt lat="43.94036" lon="7.58105">
        <ele>1134</ele>
        <time>2022-09-10T11:09:53.000Z</time>
      </trkpt>
      <trkpt lat="43.94036" lon="7.58115">
        <ele>1133.5999755859</ele>
        <time>2022-09-10T11:09:54.000Z</time>
      </trkpt>
      <trkpt lat="43.94038" lon="7.5814">
        <ele>1132.4000244141</ele>
        <time>2022-09-10T11:09:57.000Z</time>
      </trkpt>
      <trkpt lat="43.94039" lon="7.58148">
        <ele>1132.1999511719</ele>
        <time>2022-09-10T11:09:58.000Z</time>
      </trkpt>
      <trkpt lat="43.94043" lon="7.58165">
        <ele>1131.8000488281</ele>
        <time>2022-09-10T11:10:00.000Z</time>
      </trkpt>
      <trkpt lat="43.94046" lon="7.58172">
        <ele>1131.1999511719</ele>
        <time>2022-09-10T11:10:01.000Z</time>
      </trkpt>
      <trkpt lat="43.94051" lon="7.58178">
        <ele>1130.5999755859</ele>
        <time>2022-09-10T11:10:02.000Z</time>
      </trkpt>
      <trkpt lat="43.94055" lon="7.58183">
        <ele>1130</ele>
        <time>2022-09-10T11:10:03.000Z</time>
      </trkpt>
      <trkpt lat="43.94066" lon="7.58192">
        <ele>1128.5999755859</ele>
        <time>2022-09-10T11:10:05.000Z</time>
      </trkpt>
      <trkpt lat="43.94076" lon="7.58202">
        <ele>1128</ele>
        <time>2022-09-10T11:10:07.000Z</time>
      </trkpt>
      <trkpt lat="43.9408" lon="7.58208">
        <ele>1128</ele>
        <time>2022-09-10T11:10:08.000Z</time>
      </trkpt>
      <trkpt lat="43.94089" lon="7.58228">
        <ele>1127.4000244141</ele>
        <time>2022-09-10T11:10:11.000Z</time>
      </trkpt>
      <trkpt lat="43.94093" lon="7.58241">
        <ele>1126.8000488281</ele>
        <time>2022-09-10T11:10:13.000Z</time>
      </trkpt>
      <trkpt lat="43.94094" lon="7.58248">
        <ele>1126.5999755859</ele>
        <time>2022-09-10T11:10:14.000Z</time>
      </trkpt>
      <trkpt lat="43.94095" lon="7.58255">
        <ele>1126.1999511719</ele>
        <time>2022-09-10T11:10:15.000Z</time>
      </trkpt>
      <trkpt lat="43.94095" lon="7.58277">
        <ele>1126</ele>
        <time>2022-09-10T11:10:18.000Z</time>
      </trkpt>
      <trkpt lat="43.94094" lon="7.58291">
        <ele>1126.1999511719</ele>
        <time>2022-09-10T11:10:20.000Z</time>
      </trkpt>
      <trkpt lat="43.94095" lon="7.58297">
        <ele>1126.1999511719</ele>
        <time>2022-09-10T11:10:21.000Z</time>
      </trkpt>
      <trkpt lat="43.941" lon="7.58317">
        <ele>1126</ele>
        <time>2022-09-10T11:10:24.000Z</time>
      </trkpt>
      <trkpt lat="43.94115" lon="7.58368">
        <ele>1125.5999755859</ele>
        <time>2022-09-10T11:10:32.000Z</time>
      </trkpt>
      <trkpt lat="43.94124" lon="7.5841">
        <ele>1125.1999511719</ele>
        <time>2022-09-10T11:10:39.000Z</time>
      </trkpt>
      <trkpt lat="43.94135" lon="7.58459">
        <ele>1125.1999511719</ele>
        <time>2022-09-10T11:10:47.000Z</time>
      </trkpt>
      <trkpt lat="43.94138" lon="7.58472">
        <ele>1125.4000244141</ele>
        <time>2022-09-10T11:10:49.000Z</time>
      </trkpt>
      <trkpt lat="43.94136" lon="7.58484">
        <ele>1125.5999755859</ele>
        <time>2022-09-10T11:10:51.000Z</time>
      </trkpt>
      <trkpt lat="43.94127" lon="7.58503">
        <ele>1125.8000488281</ele>
        <time>2022-09-10T11:10:55.000Z</time>
      </trkpt>
      <trkpt lat="43.9412" lon="7.58518">
        <ele>1126</ele>
        <time>2022-09-10T11:10:58.000Z</time>
      </trkpt>
      <trkpt lat="43.94112" lon="7.58534">
        <ele>1126.1999511719</ele>
        <time>2022-09-10T11:11:01.000Z</time>
      </trkpt>
      <trkpt lat="43.94105" lon="7.58542">
        <ele>1126.1999511719</ele>
        <time>2022-09-10T11:11:03.000Z</time>
      </trkpt>
      <trkpt lat="43.9409" lon="7.58559">
        <ele>1126</ele>
        <time>2022-09-10T11:11:07.000Z</time>
      </trkpt>
      <trkpt lat="43.94072" lon="7.58584">
        <ele>1126</ele>
        <time>2022-09-10T11:11:13.000Z</time>
      </trkpt>
      <trkpt lat="43.9407" lon="7.58595">
        <ele>1126</ele>
        <time>2022-09-10T11:11:15.000Z</time>
      </trkpt>
      <trkpt lat="43.94069" lon="7.58619">
        <ele>1126.1999511719</ele>
        <time>2022-09-10T11:11:19.000Z</time>
      </trkpt>
      <trkpt lat="43.94069" lon="7.58625">
        <ele>1126</ele>
        <time>2022-09-10T11:11:20.000Z</time>
      </trkpt>
      <trkpt lat="43.94063" lon="7.58647">
        <ele>1126.1999511719</ele>
        <time>2022-09-10T11:11:24.000Z</time>
      </trkpt>
      <trkpt lat="43.94059" lon="7.58674">
        <ele>1126.8000488281</ele>
        <time>2022-09-10T11:11:29.000Z</time>
      </trkpt>
      <trkpt lat="43.94059" lon="7.5868">
        <ele>1126.5999755859</ele>
        <time>2022-09-10T11:11:30.000Z</time>
      </trkpt>
      <trkpt lat="43.94059" lon="7.58686">
        <ele>1126.8000488281</ele>
        <time>2022-09-10T11:11:31.000Z</time>
      </trkpt>
      <trkpt lat="43.94058" lon="7.58711">
        <ele>1126</ele>
        <time>2022-09-10T11:11:35.000Z</time>
      </trkpt>
      <trkpt lat="43.94049" lon="7.58733">
        <ele>1126.5999755859</ele>
        <time>2022-09-10T11:11:39.000Z</time>
      </trkpt>
      <trkpt lat="43.94046" lon="7.58739">
        <ele>1126.5999755859</ele>
        <time>2022-09-10T11:11:40.000Z</time>
      </trkpt>
      <trkpt lat="43.94046" lon="7.5875">
        <ele>1126.8000488281</ele>
        <time>2022-09-10T11:11:42.000Z</time>
      </trkpt>
      <trkpt lat="43.94055" lon="7.58774">
        <ele>1126.4000244141</ele>
        <time>2022-09-10T11:11:46.000Z</time>
      </trkpt>
      <trkpt lat="43.94069" lon="7.58798">
        <ele>1125.1999511719</ele>
        <time>2022-09-10T11:11:50.000Z</time>
      </trkpt>
      <trkpt lat="43.94073" lon="7.58804">
        <ele>1124.8000488281</ele>
        <time>2022-09-10T11:11:51.000Z</time>
      </trkpt>
      <trkpt lat="43.94082" lon="7.58816">
        <ele>1123.5999755859</ele>
        <time>2022-09-10T11:11:53.000Z</time>
      </trkpt>
      <trkpt lat="43.94092" lon="7.58829">
        <ele>1122.1999511719</ele>
        <time>2022-09-10T11:11:55.000Z</time>
      </trkpt>
      <trkpt lat="43.94102" lon="7.58842">
        <ele>1121.4000244141</ele>
        <time>2022-09-10T11:11:57.000Z</time>
      </trkpt>
      <trkpt lat="43.94108" lon="7.58848">
        <ele>1121</ele>
        <time>2022-09-10T11:11:58.000Z</time>
      </trkpt>
      <trkpt lat="43.94119" lon="7.58861">
        <ele>1119.8000488281</ele>
        <time>2022-09-10T11:12:00.000Z</time>
      </trkpt>
      <trkpt lat="43.9413" lon="7.58872">
        <ele>1118.1999511719</ele>
        <time>2022-09-10T11:12:02.000Z</time>
      </trkpt>
      <trkpt lat="43.94135" lon="7.58877">
        <ele>1117.5999755859</ele>
        <time>2022-09-10T11:12:03.000Z</time>
      </trkpt>
      <trkpt lat="43.9414" lon="7.58882">
        <ele>1117</ele>
        <time>2022-09-10T11:12:04.000Z</time>
      </trkpt>
      <trkpt lat="43.94149" lon="7.58891">
        <ele>1115.4000244141</ele>
        <time>2022-09-10T11:12:06.000Z</time>
      </trkpt>
      <trkpt lat="43.94153" lon="7.58896">
        <ele>1115</ele>
        <time>2022-09-10T11:12:07.000Z</time>
      </trkpt>
      <trkpt lat="43.94157" lon="7.58898">
        <ele>1114.8000488281</ele>
        <time>2022-09-10T11:12:08.000Z</time>
      </trkpt>
      <trkpt lat="43.94162" lon="7.58901">
        <ele>1114.4000244141</ele>
        <time>2022-09-10T11:12:09.000Z</time>
      </trkpt>
      <trkpt lat="43.94174" lon="7.58904">
        <ele>1114.4000244141</ele>
        <time>2022-09-10T11:12:11.000Z</time>
      </trkpt>
      <trkpt lat="43.9418" lon="7.58905">
        <ele>1114.5999755859</ele>
        <time>2022-09-10T11:12:12.000Z</time>
      </trkpt>
      <trkpt lat="43.94196" lon="7.58905">
        <ele>1115.1999511719</ele>
        <time>2022-09-10T11:12:15.000Z</time>
      </trkpt>
      <trkpt lat="43.94207" lon="7.58905">
        <ele>1115.4000244141</ele>
        <time>2022-09-10T11:12:17.000Z</time>
      </trkpt>
      <trkpt lat="43.94217" lon="7.58905">
        <ele>1115.5999755859</ele>
        <time>2022-09-10T11:12:19.000Z</time>
      </trkpt>
      <trkpt lat="43.9423" lon="7.58907">
        <ele>1115.8000488281</ele>
        <time>2022-09-10T11:12:22.000Z</time>
      </trkpt>
      <trkpt lat="43.94244" lon="7.58919">
        <ele>1116.1999511719</ele>
        <time>2022-09-10T11:12:26.000Z</time>
      </trkpt>
      <trkpt lat="43.94298" lon="7.58985">
        <ele>1116.1999511719</ele>
        <time>2022-09-10T11:12:44.000Z</time>
      </trkpt>
      <trkpt lat="43.943" lon="7.58995">
        <ele>1116.1999511719</ele>
        <time>2022-09-10T11:12:46.000Z</time>
      </trkpt>
      <trkpt lat="43.9432" lon="7.59001">
        <ele>1115.8000488281</ele>
        <time>2022-09-10T11:12:52.000Z</time>
      </trkpt>
      <trkpt lat="43.94324" lon="7.58999">
        <ele>1116</ele>
        <time>2022-09-10T11:12:53.000Z</time>
      </trkpt>
      <trkpt lat="43.94335" lon="7.59002">
        <ele>1116.4000244141</ele>
        <time>2022-09-10T11:12:57.000Z</time>
      </trkpt>
      <trkpt lat="43.94342" lon="7.59003">
        <ele>1116.5999755859</ele>
        <time>2022-09-10T11:12:59.000Z</time>
      </trkpt>
      <trkpt lat="43.9435" lon="7.59007">
        <ele>1116.5999755859</ele>
        <time>2022-09-10T11:13:01.000Z</time>
      </trkpt>
      <trkpt lat="43.94354" lon="7.59022">
        <ele>1116.8000488281</ele>
        <time>2022-09-10T11:13:04.000Z</time>
      </trkpt>
      <trkpt lat="43.94348" lon="7.59033">
        <ele>1117</ele>
        <time>2022-09-10T11:13:07.000Z</time>
      </trkpt>
      <trkpt lat="43.94336" lon="7.59037">
        <ele>1117</ele>
        <time>2022-09-10T11:13:11.000Z</time>
      </trkpt>
      <trkpt lat="43.94328" lon="7.59038">
        <ele>1117.5999755859</ele>
        <time>2022-09-10T11:13:14.000Z</time>
      </trkpt>
      <trkpt lat="43.94326" lon="7.59039">
        <ele>1117.8000488281</ele>
        <time>2022-09-10T11:13:15.000Z</time>
      </trkpt>
      <trkpt lat="43.9431" lon="7.59048">
        <ele>1118.1999511719</ele>
        <time>2022-09-10T11:13:20.000Z</time>
      </trkpt>
      <trkpt lat="43.94297" lon="7.59051">
        <ele>1118.8000488281</ele>
        <time>2022-09-10T11:13:24.000Z</time>
      </trkpt>
      <trkpt lat="43.94283" lon="7.59052">
        <ele>1119.5999755859</ele>
        <time>2022-09-10T11:13:29.000Z</time>
      </trkpt>
      <trkpt lat="43.94281" lon="7.59054">
        <ele>1120</ele>
        <time>2022-09-10T11:13:30.000Z</time>
      </trkpt>
      <trkpt lat="43.94272" lon="7.59066">
        <ele>1120.8000488281</ele>
        <time>2022-09-10T11:13:34.000Z</time>
      </trkpt>
      <trkpt lat="43.9427" lon="7.59069">
        <ele>1121.1999511719</ele>
        <time>2022-09-10T11:13:35.000Z</time>
      </trkpt>
      <trkpt lat="43.94258" lon="7.59087">
        <ele>1122</ele>
        <time>2022-09-10T11:13:41.000Z</time>
      </trkpt>
      <trkpt lat="43.94256" lon="7.59089">
        <ele>1122.1999511719</ele>
        <time>2022-09-10T11:13:42.000Z</time>
      </trkpt>
      <trkpt lat="43.94249" lon="7.59105">
        <ele>1123.4000244141</ele>
        <time>2022-09-10T11:13:47.000Z</time>
      </trkpt>
      <trkpt lat="43.94239" lon="7.59125">
        <ele>1124.4000244141</ele>
        <time>2022-09-10T11:13:53.000Z</time>
      </trkpt>
      <trkpt lat="43.94238" lon="7.59129">
        <ele>1124.5999755859</ele>
        <time>2022-09-10T11:13:54.000Z</time>
      </trkpt>
      <trkpt lat="43.94233" lon="7.59144">
        <ele>1125.4000244141</ele>
        <time>2022-09-10T11:13:58.000Z</time>
      </trkpt>
      <trkpt lat="43.94229" lon="7.59158">
        <ele>1126</ele>
        <time>2022-09-10T11:14:02.000Z</time>
      </trkpt>
      <trkpt lat="43.94226" lon="7.59172">
        <ele>1126.5999755859</ele>
        <time>2022-09-10T11:14:06.000Z</time>
      </trkpt>
      <trkpt lat="43.94224" lon="7.59179">
        <ele>1126.8000488281</ele>
        <time>2022-09-10T11:14:08.000Z</time>
      </trkpt>
      <trkpt lat="43.9422" lon="7.59191">
        <ele>1127.8000488281</ele>
        <time>2022-09-10T11:14:12.000Z</time>
      </trkpt>
      <trkpt lat="43.94217" lon="7.59199">
        <ele>1128.1999511719</ele>
        <time>2022-09-10T11:14:14.000Z</time>
      </trkpt>
      <trkpt lat="43.94213" lon="7.59226">
        <ele>1128.4000244141</ele>
        <time>2022-09-10T11:14:20.000Z</time>
      </trkpt>
      <trkpt lat="43.94218" lon="7.59249">
        <ele>1128.1999511719</ele>
        <time>2022-09-10T11:14:25.000Z</time>
      </trkpt>
      <trkpt lat="43.94227" lon="7.59288">
        <ele>1127.1999511719</ele>
        <time>2022-09-10T11:14:32.000Z</time>
      </trkpt>
      <trkpt lat="43.94228" lon="7.593">
        <ele>1126.5999755859</ele>
        <time>2022-09-10T11:14:34.000Z</time>
      </trkpt>
      <trkpt lat="43.94234" lon="7.59316">
        <ele>1126.5999755859</ele>
        <time>2022-09-10T11:14:37.000Z</time>
      </trkpt>
      <trkpt lat="43.94245" lon="7.59324">
        <ele>1126.5999755859</ele>
        <time>2022-09-10T11:14:40.000Z</time>
      </trkpt>
      <trkpt lat="43.94261" lon="7.59324">
        <ele>1126</ele>
        <time>2022-09-10T11:14:44.000Z</time>
      </trkpt>
      <trkpt lat="43.94266" lon="7.59324">
        <ele>1125.8000488281</ele>
        <time>2022-09-10T11:14:45.000Z</time>
      </trkpt>
      <trkpt lat="43.9427" lon="7.59325">
        <ele>1125.5999755859</ele>
        <time>2022-09-10T11:14:46.000Z</time>
      </trkpt>
      <trkpt lat="43.94287" lon="7.59336">
        <ele>1125.4000244141</ele>
        <time>2022-09-10T11:14:50.000Z</time>
      </trkpt>
      <trkpt lat="43.94301" lon="7.59352">
        <ele>1125.4000244141</ele>
        <time>2022-09-10T11:14:54.000Z</time>
      </trkpt>
      <trkpt lat="43.94304" lon="7.59355">
        <ele>1125.5999755859</ele>
        <time>2022-09-10T11:14:55.000Z</time>
      </trkpt>
      <trkpt lat="43.94307" lon="7.59358">
        <ele>1125.4000244141</ele>
        <time>2022-09-10T11:14:56.000Z</time>
      </trkpt>
      <trkpt lat="43.94321" lon="7.59373">
        <ele>1125</ele>
        <time>2022-09-10T11:15:00.000Z</time>
      </trkpt>
      <trkpt lat="43.9433" lon="7.59385">
        <ele>1124.5999755859</ele>
        <time>2022-09-10T11:15:03.000Z</time>
      </trkpt>
      <trkpt lat="43.94332" lon="7.5939">
        <ele>1124.5999755859</ele>
        <time>2022-09-10T11:15:04.000Z</time>
      </trkpt>
      <trkpt lat="43.94334" lon="7.59393">
        <ele>1124.4000244141</ele>
        <time>2022-09-10T11:15:05.000Z</time>
      </trkpt>
      <trkpt lat="43.94338" lon="7.59402">
        <ele>1124.1999511719</ele>
        <time>2022-09-10T11:15:07.000Z</time>
      </trkpt>
      <trkpt lat="43.9434" lon="7.59408">
        <ele>1124</ele>
        <time>2022-09-10T11:15:08.000Z</time>
      </trkpt>
      <trkpt lat="43.94344" lon="7.59421">
        <ele>1123.8000488281</ele>
        <time>2022-09-10T11:15:10.000Z</time>
      </trkpt>
      <trkpt lat="43.94346" lon="7.59434">
        <ele>1123.5999755859</ele>
        <time>2022-09-10T11:15:12.000Z</time>
      </trkpt>
      <trkpt lat="43.94348" lon="7.59447">
        <ele>1123.4000244141</ele>
        <time>2022-09-10T11:15:14.000Z</time>
      </trkpt>
      <trkpt lat="43.94349" lon="7.59465">
        <ele>1122.8000488281</ele>
        <time>2022-09-10T11:15:17.000Z</time>
      </trkpt>
      <trkpt lat="43.94351" lon="7.59485">
        <ele>1122.5999755859</ele>
        <time>2022-09-10T11:15:20.000Z</time>
      </trkpt>
      <trkpt lat="43.94353" lon="7.59491">
        <ele>1122.5999755859</ele>
        <time>2022-09-10T11:15:21.000Z</time>
      </trkpt>
      <trkpt lat="43.94363" lon="7.59522">
        <ele>1122.5999755859</ele>
        <time>2022-09-10T11:15:26.000Z</time>
      </trkpt>
      <trkpt lat="43.94367" lon="7.59534">
        <ele>1122.1999511719</ele>
        <time>2022-09-10T11:15:28.000Z</time>
      </trkpt>
      <trkpt lat="43.94369" lon="7.5954">
        <ele>1122.1999511719</ele>
        <time>2022-09-10T11:15:29.000Z</time>
      </trkpt>
      <trkpt lat="43.94373" lon="7.59551">
        <ele>1122</ele>
        <time>2022-09-10T11:15:31.000Z</time>
      </trkpt>
      <trkpt lat="43.94376" lon="7.59562">
        <ele>1121.8000488281</ele>
        <time>2022-09-10T11:15:33.000Z</time>
      </trkpt>
      <trkpt lat="43.9438" lon="7.59584">
        <ele>1121.4000244141</ele>
        <time>2022-09-10T11:15:36.000Z</time>
      </trkpt>
      <trkpt lat="43.9438" lon="7.59591">
        <ele>1121</ele>
        <time>2022-09-10T11:15:37.000Z</time>
      </trkpt>
      <trkpt lat="43.9438" lon="7.59616">
        <ele>1120.1999511719</ele>
        <time>2022-09-10T11:15:40.000Z</time>
      </trkpt>
      <trkpt lat="43.94379" lon="7.59625">
        <ele>1119.4000244141</ele>
        <time>2022-09-10T11:15:41.000Z</time>
      </trkpt>
      <trkpt lat="43.94376" lon="7.59633">
        <ele>1118.5999755859</ele>
        <time>2022-09-10T11:15:42.000Z</time>
      </trkpt>
      <trkpt lat="43.94373" lon="7.5964">
        <ele>1117.5999755859</ele>
        <time>2022-09-10T11:15:43.000Z</time>
      </trkpt>
      <trkpt lat="43.94368" lon="7.59656">
        <ele>1116.5999755859</ele>
        <time>2022-09-10T11:15:45.000Z</time>
      </trkpt>
      <trkpt lat="43.94365" lon="7.59671">
        <ele>1116.1999511719</ele>
        <time>2022-09-10T11:15:47.000Z</time>
      </trkpt>
      <trkpt lat="43.94366" lon="7.59689">
        <ele>1115.8000488281</ele>
        <time>2022-09-10T11:15:49.000Z</time>
      </trkpt>
      <trkpt lat="43.94367" lon="7.59698">
        <ele>1115.1999511719</ele>
        <time>2022-09-10T11:15:50.000Z</time>
      </trkpt>
      <trkpt lat="43.94367" lon="7.59708">
        <ele>1114.8000488281</ele>
        <time>2022-09-10T11:15:51.000Z</time>
      </trkpt>
      <trkpt lat="43.94366" lon="7.59718">
        <ele>1113.8000488281</ele>
        <time>2022-09-10T11:15:52.000Z</time>
      </trkpt>
      <trkpt lat="43.94365" lon="7.59727">
        <ele>1113</ele>
        <time>2022-09-10T11:15:53.000Z</time>
      </trkpt>
      <trkpt lat="43.94363" lon="7.59736">
        <ele>1112.4000244141</ele>
        <time>2022-09-10T11:15:54.000Z</time>
      </trkpt>
      <trkpt lat="43.94361" lon="7.59745">
        <ele>1111.8000488281</ele>
        <time>2022-09-10T11:15:55.000Z</time>
      </trkpt>
      <trkpt lat="43.9436" lon="7.59754">
        <ele>1111</ele>
        <time>2022-09-10T11:15:56.000Z</time>
      </trkpt>
      <trkpt lat="43.94363" lon="7.59773">
        <ele>1110.4000244141</ele>
        <time>2022-09-10T11:15:58.000Z</time>
      </trkpt>
      <trkpt lat="43.94365" lon="7.59783">
        <ele>1110</ele>
        <time>2022-09-10T11:15:59.000Z</time>
      </trkpt>
      <trkpt lat="43.94366" lon="7.59789">
        <ele>1109.5999755859</ele>
        <time>2022-09-10T11:16:00.000Z</time>
      </trkpt>
      <trkpt lat="43.94367" lon="7.59809">
        <ele>1109.1999511719</ele>
        <time>2022-09-10T11:16:02.000Z</time>
      </trkpt>
      <trkpt lat="43.94366" lon="7.59817">
        <ele>1108.8000488281</ele>
        <time>2022-09-10T11:16:03.000Z</time>
      </trkpt>
      <trkpt lat="43.94365" lon="7.59827">
        <ele>1108.1999511719</ele>
        <time>2022-09-10T11:16:04.000Z</time>
      </trkpt>
      <trkpt lat="43.94365" lon="7.59836">
        <ele>1107.5999755859</ele>
        <time>2022-09-10T11:16:05.000Z</time>
      </trkpt>
      <trkpt lat="43.94365" lon="7.59845">
        <ele>1107</ele>
        <time>2022-09-10T11:16:06.000Z</time>
      </trkpt>
      <trkpt lat="43.9437" lon="7.59859">
        <ele>1106.5999755859</ele>
        <time>2022-09-10T11:16:08.000Z</time>
      </trkpt>
      <trkpt lat="43.94375" lon="7.59864">
        <ele>1106.1999511719</ele>
        <time>2022-09-10T11:16:09.000Z</time>
      </trkpt>
      <trkpt lat="43.9439" lon="7.59867">
        <ele>1106.8000488281</ele>
        <time>2022-09-10T11:16:12.000Z</time>
      </trkpt>
      <trkpt lat="43.944" lon="7.59865">
        <ele>1107</ele>
        <time>2022-09-10T11:16:14.000Z</time>
      </trkpt>
      <trkpt lat="43.94404" lon="7.59862">
        <ele>1107</ele>
        <time>2022-09-10T11:16:15.000Z</time>
      </trkpt>
      <trkpt lat="43.94418" lon="7.59858">
        <ele>1107</ele>
        <time>2022-09-10T11:16:18.000Z</time>
      </trkpt>
      <trkpt lat="43.9443" lon="7.59866">
        <ele>1107.1999511719</ele>
        <time>2022-09-10T11:16:21.000Z</time>
      </trkpt>
      <trkpt lat="43.94435" lon="7.59881">
        <ele>1107.1999511719</ele>
        <time>2022-09-10T11:16:24.000Z</time>
      </trkpt>
      <trkpt lat="43.94439" lon="7.59894">
        <ele>1107</ele>
        <time>2022-09-10T11:16:26.000Z</time>
      </trkpt>
      <trkpt lat="43.94444" lon="7.59911">
        <ele>1107</ele>
        <time>2022-09-10T11:16:29.000Z</time>
      </trkpt>
      <trkpt lat="43.94449" lon="7.59942">
        <ele>1107.1999511719</ele>
        <time>2022-09-10T11:16:34.000Z</time>
      </trkpt>
      <trkpt lat="43.9445" lon="7.59948">
        <ele>1107.1999511719</ele>
        <time>2022-09-10T11:16:35.000Z</time>
      </trkpt>
      <trkpt lat="43.9445" lon="7.5996">
        <ele>1106.8000488281</ele>
        <time>2022-09-10T11:16:37.000Z</time>
      </trkpt>
      <trkpt lat="43.94449" lon="7.59972">
        <ele>1106.8000488281</ele>
        <time>2022-09-10T11:16:39.000Z</time>
      </trkpt>
      <trkpt lat="43.94441" lon="7.59985">
        <ele>1107.1999511719</ele>
        <time>2022-09-10T11:16:42.000Z</time>
      </trkpt>
      <trkpt lat="43.94436" lon="7.59992">
        <ele>1107.1999511719</ele>
        <time>2022-09-10T11:16:44.000Z</time>
      </trkpt>
      <trkpt lat="43.94428" lon="7.60003">
        <ele>1107.1999511719</ele>
        <time>2022-09-10T11:16:49.000Z</time>
      </trkpt>
      <trkpt lat="43.94428" lon="7.60005">
        <ele>1107</ele>
        <time>2022-09-10T11:16:53.000Z</time>
      </trkpt>
      <trkpt lat="43.94428" lon="7.60005">
        <ele>1107</ele>
        <time>2022-09-10T11:17:01.000Z</time>
      </trkpt>
      <trkpt lat="43.94429" lon="7.60005">
        <ele>1107.1999511719</ele>
        <time>2022-09-10T11:17:25.000Z</time>
      </trkpt>
      <trkpt lat="43.94431" lon="7.60005">
        <ele>1107.1999511719</ele>
        <time>2022-09-10T11:17:51.000Z</time>
      </trkpt>
      <trkpt lat="43.94431" lon="7.60004">
        <ele>1106.5999755859</ele>
        <time>2022-09-10T11:18:16.000Z</time>
      </trkpt>
      <trkpt lat="43.94431" lon="7.60001">
        <ele>1106.4000244141</ele>
        <time>2022-09-10T11:18:32.000Z</time>
      </trkpt>
      <trkpt lat="43.94432" lon="7.59999">
        <ele>1106.5999755859</ele>
        <time>2022-09-10T11:18:49.000Z</time>
      </trkpt>
      <trkpt lat="43.94431" lon="7.59998">
        <ele>1107</ele>
        <time>2022-09-10T11:19:02.000Z</time>
      </trkpt>
      <trkpt lat="43.9443" lon="7.59997">
        <ele>1107</ele>
        <time>2022-09-10T11:19:11.000Z</time>
      </trkpt>
      <trkpt lat="43.94429" lon="7.6">
        <ele>1106.5999755859</ele>
        <time>2022-09-10T11:19:18.000Z</time>
      </trkpt>
      <trkpt lat="43.94426" lon="7.60009">
        <ele>1106.1999511719</ele>
        <time>2022-09-10T11:19:23.000Z</time>
      </trkpt>
      <trkpt lat="43.94423" lon="7.60022">
        <ele>1106</ele>
        <time>2022-09-10T11:19:27.000Z</time>
      </trkpt>
      <trkpt lat="43.94419" lon="7.60036">
        <ele>1105.4000244141</ele>
        <time>2022-09-10T11:19:30.000Z</time>
      </trkpt>
      <trkpt lat="43.94416" lon="7.60048">
        <ele>1104.5999755859</ele>
        <time>2022-09-10T11:19:32.000Z</time>
      </trkpt>
      <trkpt lat="43.94414" lon="7.60061">
        <ele>1103.8000488281</ele>
        <time>2022-09-10T11:19:34.000Z</time>
      </trkpt>
      <trkpt lat="43.94413" lon="7.60068">
        <ele>1103.1999511719</ele>
        <time>2022-09-10T11:19:35.000Z</time>
      </trkpt>
      <trkpt lat="43.94412" lon="7.60076">
        <ele>1102.1999511719</ele>
        <time>2022-09-10T11:19:36.000Z</time>
      </trkpt>
      <trkpt lat="43.94412" lon="7.60084">
        <ele>1101.8000488281</ele>
        <time>2022-09-10T11:19:37.000Z</time>
      </trkpt>
      <trkpt lat="43.94411" lon="7.60099">
        <ele>1101.1999511719</ele>
        <time>2022-09-10T11:19:39.000Z</time>
      </trkpt>
      <trkpt lat="43.94411" lon="7.60109">
        <ele>1101</ele>
        <time>2022-09-10T11:19:40.000Z</time>
      </trkpt>
      <trkpt lat="43.94412" lon="7.60127">
        <ele>1099.5999755859</ele>
        <time>2022-09-10T11:19:42.000Z</time>
      </trkpt>
      <trkpt lat="43.94423" lon="7.60158">
        <ele>1098.1999511719</ele>
        <time>2022-09-10T11:19:46.000Z</time>
      </trkpt>
      <trkpt lat="43.94426" lon="7.60167">
        <ele>1098</ele>
        <time>2022-09-10T11:19:47.000Z</time>
      </trkpt>
      <trkpt lat="43.94429" lon="7.60176">
        <ele>1097</ele>
        <time>2022-09-10T11:19:48.000Z</time>
      </trkpt>
      <trkpt lat="43.9443" lon="7.60184">
        <ele>1096.1999511719</ele>
        <time>2022-09-10T11:19:49.000Z</time>
      </trkpt>
      <trkpt lat="43.9443" lon="7.60195">
        <ele>1095.5999755859</ele>
        <time>2022-09-10T11:19:50.000Z</time>
      </trkpt>
      <trkpt lat="43.94428" lon="7.60214">
        <ele>1094.4000244141</ele>
        <time>2022-09-10T11:19:52.000Z</time>
      </trkpt>
      <trkpt lat="43.94427" lon="7.60226">
        <ele>1094</ele>
        <time>2022-09-10T11:19:53.000Z</time>
      </trkpt>
      <trkpt lat="43.94428" lon="7.60247">
        <ele>1092.5999755859</ele>
        <time>2022-09-10T11:19:55.000Z</time>
      </trkpt>
      <trkpt lat="43.94433" lon="7.60264">
        <ele>1091.4000244141</ele>
        <time>2022-09-10T11:19:57.000Z</time>
      </trkpt>
      <trkpt lat="43.94442" lon="7.60275">
        <ele>1089.5999755859</ele>
        <time>2022-09-10T11:19:59.000Z</time>
      </trkpt>
      <trkpt lat="43.94446" lon="7.60279">
        <ele>1089.1999511719</ele>
        <time>2022-09-10T11:20:00.000Z</time>
      </trkpt>
      <trkpt lat="43.94453" lon="7.60281">
        <ele>1088.5999755859</ele>
        <time>2022-09-10T11:20:01.000Z</time>
      </trkpt>
      <trkpt lat="43.94458" lon="7.6028">
        <ele>1088.1999511719</ele>
        <time>2022-09-10T11:20:02.000Z</time>
      </trkpt>
      <trkpt lat="43.94462" lon="7.60277">
        <ele>1087.4000244141</ele>
        <time>2022-09-10T11:20:03.000Z</time>
      </trkpt>
      <trkpt lat="43.94466" lon="7.60275">
        <ele>1086.8000488281</ele>
        <time>2022-09-10T11:20:04.000Z</time>
      </trkpt>
      <trkpt lat="43.94475" lon="7.60272">
        <ele>1085.5999755859</ele>
        <time>2022-09-10T11:20:06.000Z</time>
      </trkpt>
      <trkpt lat="43.94482" lon="7.6027">
        <ele>1085</ele>
        <time>2022-09-10T11:20:07.000Z</time>
      </trkpt>
      <trkpt lat="43.94489" lon="7.6027">
        <ele>1084.4000244141</ele>
        <time>2022-09-10T11:20:08.000Z</time>
      </trkpt>
      <trkpt lat="43.94502" lon="7.60276">
        <ele>1084.1999511719</ele>
        <time>2022-09-10T11:20:10.000Z</time>
      </trkpt>
      <trkpt lat="43.94515" lon="7.60289">
        <ele>1082.4000244141</ele>
        <time>2022-09-10T11:20:12.000Z</time>
      </trkpt>
      <trkpt lat="43.9452" lon="7.60296">
        <ele>1081.8000488281</ele>
        <time>2022-09-10T11:20:13.000Z</time>
      </trkpt>
      <trkpt lat="43.94535" lon="7.60302">
        <ele>1080.5999755859</ele>
        <time>2022-09-10T11:20:15.000Z</time>
      </trkpt>
      <trkpt lat="43.94542" lon="7.60305">
        <ele>1080.4000244141</ele>
        <time>2022-09-10T11:20:16.000Z</time>
      </trkpt>
      <trkpt lat="43.94556" lon="7.60311">
        <ele>1079.4000244141</ele>
        <time>2022-09-10T11:20:18.000Z</time>
      </trkpt>
      <trkpt lat="43.94572" lon="7.60315">
        <ele>1077.4000244141</ele>
        <time>2022-09-10T11:20:20.000Z</time>
      </trkpt>
      <trkpt lat="43.94589" lon="7.60319">
        <ele>1075.8000488281</ele>
        <time>2022-09-10T11:20:22.000Z</time>
      </trkpt>
      <trkpt lat="43.94606" lon="7.60325">
        <ele>1074.4000244141</ele>
        <time>2022-09-10T11:20:24.000Z</time>
      </trkpt>
      <trkpt lat="43.94621" lon="7.60332">
        <ele>1073</ele>
        <time>2022-09-10T11:20:26.000Z</time>
      </trkpt>
      <trkpt lat="43.94625" lon="7.60337">
        <ele>1072.4000244141</ele>
        <time>2022-09-10T11:20:27.000Z</time>
      </trkpt>
      <trkpt lat="43.94628" lon="7.60344">
        <ele>1071.8000488281</ele>
        <time>2022-09-10T11:20:28.000Z</time>
      </trkpt>
      <trkpt lat="43.94631" lon="7.60357">
        <ele>1071.5999755859</ele>
        <time>2022-09-10T11:20:30.000Z</time>
      </trkpt>
      <trkpt lat="43.94631" lon="7.60368">
        <ele>1071.1999511719</ele>
        <time>2022-09-10T11:20:32.000Z</time>
      </trkpt>
      <trkpt lat="43.94632" lon="7.60379">
        <ele>1071.4000244141</ele>
        <time>2022-09-10T11:20:34.000Z</time>
      </trkpt>
      <trkpt lat="43.94639" lon="7.6042">
        <ele>1072.5999755859</ele>
        <time>2022-09-10T11:20:40.000Z</time>
      </trkpt>
      <trkpt lat="43.94653" lon="7.60441">
        <ele>1072.5999755859</ele>
        <time>2022-09-10T11:20:44.000Z</time>
      </trkpt>
      <trkpt lat="43.94667" lon="7.60451">
        <ele>1072.5999755859</ele>
        <time>2022-09-10T11:20:48.000Z</time>
      </trkpt>
      <trkpt lat="43.9467" lon="7.60453">
        <ele>1072.8000488281</ele>
        <time>2022-09-10T11:20:49.000Z</time>
      </trkpt>
      <trkpt lat="43.94678" lon="7.60458">
        <ele>1073.1999511719</ele>
        <time>2022-09-10T11:20:52.000Z</time>
      </trkpt>
      <trkpt lat="43.94683" lon="7.60461">
        <ele>1073</ele>
        <time>2022-09-10T11:20:54.000Z</time>
      </trkpt>
      <trkpt lat="43.94706" lon="7.60476">
        <ele>1074</ele>
        <time>2022-09-10T11:21:02.000Z</time>
      </trkpt>
      <trkpt lat="43.94712" lon="7.60479">
        <ele>1074.1999511719</ele>
        <time>2022-09-10T11:21:04.000Z</time>
      </trkpt>
      <trkpt lat="43.94729" lon="7.6049">
        <ele>1074.4000244141</ele>
        <time>2022-09-10T11:21:10.000Z</time>
      </trkpt>
      <trkpt lat="43.94753" lon="7.60502">
        <ele>1074.8000488281</ele>
        <time>2022-09-10T11:21:19.000Z</time>
      </trkpt>
      <trkpt lat="43.94759" lon="7.60506">
        <ele>1075.1999511719</ele>
        <time>2022-09-10T11:21:22.000Z</time>
      </trkpt>
      <trkpt lat="43.94766" lon="7.60514">
        <ele>1075.5999755859</ele>
        <time>2022-09-10T11:21:26.000Z</time>
      </trkpt>
      <trkpt lat="43.94769" lon="7.60529">
        <ele>1076.1999511719</ele>
        <time>2022-09-10T11:21:31.000Z</time>
      </trkpt>
      <trkpt lat="43.9477" lon="7.60531">
        <ele>1076.1999511719</ele>
        <time>2022-09-10T11:21:32.000Z</time>
      </trkpt>
      <trkpt lat="43.94767" lon="7.60545">
        <ele>1076.5999755859</ele>
        <time>2022-09-10T11:21:37.000Z</time>
      </trkpt>
      <trkpt lat="43.94761" lon="7.60553">
        <ele>1077.4000244141</ele>
        <time>2022-09-10T11:21:41.000Z</time>
      </trkpt>
      <trkpt lat="43.94758" lon="7.60556">
        <ele>1077.8000488281</ele>
        <time>2022-09-10T11:21:43.000Z</time>
      </trkpt>
      <trkpt lat="43.94753" lon="7.60558">
        <ele>1078.4000244141</ele>
        <time>2022-09-10T11:21:46.000Z</time>
      </trkpt>
      <trkpt lat="43.94745" lon="7.60562">
        <ele>1078.8000488281</ele>
        <time>2022-09-10T11:21:50.000Z</time>
      </trkpt>
      <trkpt lat="43.94739" lon="7.60565">
        <ele>1079.4000244141</ele>
        <time>2022-09-10T11:21:53.000Z</time>
      </trkpt>
      <trkpt lat="43.94732" lon="7.60569">
        <ele>1080.4000244141</ele>
        <time>2022-09-10T11:21:57.000Z</time>
      </trkpt>
      <trkpt lat="43.9473" lon="7.6057">
        <ele>1080.5999755859</ele>
        <time>2022-09-10T11:21:58.000Z</time>
      </trkpt>
      <trkpt lat="43.94719" lon="7.60572">
        <ele>1081.8000488281</ele>
        <time>2022-09-10T11:22:03.000Z</time>
      </trkpt>
      <trkpt lat="43.94712" lon="7.60567">
        <ele>1082.8000488281</ele>
        <time>2022-09-10T11:22:07.000Z</time>
      </trkpt>
      <trkpt lat="43.94709" lon="7.60563">
        <ele>1083.4000244141</ele>
        <time>2022-09-10T11:22:09.000Z</time>
      </trkpt>
      <trkpt lat="43.94706" lon="7.60559">
        <ele>1084.1999511719</ele>
        <time>2022-09-10T11:22:11.000Z</time>
      </trkpt>
      <trkpt lat="43.947" lon="7.60553">
        <ele>1085.1999511719</ele>
        <time>2022-09-10T11:22:15.000Z</time>
      </trkpt>
      <trkpt lat="43.94697" lon="7.6055">
        <ele>1085.8000488281</ele>
        <time>2022-09-10T11:22:17.000Z</time>
      </trkpt>
      <trkpt lat="43.94693" lon="7.60546">
        <ele>1086.4000244141</ele>
        <time>2022-09-10T11:22:19.000Z</time>
      </trkpt>
      <trkpt lat="43.94686" lon="7.60542">
        <ele>1087.5999755859</ele>
        <time>2022-09-10T11:22:23.000Z</time>
      </trkpt>
      <trkpt lat="43.94679" lon="7.60539">
        <ele>1088.5999755859</ele>
        <time>2022-09-10T11:22:27.000Z</time>
      </trkpt>
      <trkpt lat="43.94675" lon="7.60538">
        <ele>1089.1999511719</ele>
        <time>2022-09-10T11:22:30.000Z</time>
      </trkpt>
      <trkpt lat="43.94671" lon="7.60536">
        <ele>1089.8000488281</ele>
        <time>2022-09-10T11:22:32.000Z</time>
      </trkpt>
      <trkpt lat="43.94663" lon="7.60533">
        <ele>1090.8000488281</ele>
        <time>2022-09-10T11:22:36.000Z</time>
      </trkpt>
      <trkpt lat="43.94661" lon="7.60531">
        <ele>1090.8000488281</ele>
        <time>2022-09-10T11:22:37.000Z</time>
      </trkpt>
      <trkpt lat="43.94652" lon="7.60523">
        <ele>1091.8000488281</ele>
        <time>2022-09-10T11:22:42.000Z</time>
      </trkpt>
      <trkpt lat="43.9465" lon="7.60521">
        <ele>1092.1999511719</ele>
        <time>2022-09-10T11:22:43.000Z</time>
      </trkpt>
      <trkpt lat="43.94643" lon="7.60515">
        <ele>1093.1999511719</ele>
        <time>2022-09-10T11:22:47.000Z</time>
      </trkpt>
      <trkpt lat="43.94639" lon="7.60512">
        <ele>1093.5999755859</ele>
        <time>2022-09-10T11:22:49.000Z</time>
      </trkpt>
      <trkpt lat="43.94635" lon="7.60508">
        <ele>1094.1999511719</ele>
        <time>2022-09-10T11:22:51.000Z</time>
      </trkpt>
      <trkpt lat="43.94628" lon="7.605">
        <ele>1095.1999511719</ele>
        <time>2022-09-10T11:22:55.000Z</time>
      </trkpt>
      <trkpt lat="43.94626" lon="7.60498">
        <ele>1095.4000244141</ele>
        <time>2022-09-10T11:22:56.000Z</time>
      </trkpt>
      <trkpt lat="43.94621" lon="7.60492">
        <ele>1096.1999511719</ele>
        <time>2022-09-10T11:22:59.000Z</time>
      </trkpt>
      <trkpt lat="43.94614" lon="7.60484">
        <ele>1097.4000244141</ele>
        <time>2022-09-10T11:23:03.000Z</time>
      </trkpt>
      <trkpt lat="43.94606" lon="7.60472">
        <ele>1098.5999755859</ele>
        <time>2022-09-10T11:23:08.000Z</time>
      </trkpt>
      <trkpt lat="43.94603" lon="7.60468">
        <ele>1099.4000244141</ele>
        <time>2022-09-10T11:23:10.000Z</time>
      </trkpt>
      <trkpt lat="43.94601" lon="7.60465">
        <ele>1100</ele>
        <time>2022-09-10T11:23:11.000Z</time>
      </trkpt>
      <trkpt lat="43.94594" lon="7.60457">
        <ele>1101</ele>
        <time>2022-09-10T11:23:15.000Z</time>
      </trkpt>
      <trkpt lat="43.94592" lon="7.60453">
        <ele>1101.4000244141</ele>
        <time>2022-09-10T11:23:17.000Z</time>
      </trkpt>
      <trkpt lat="43.94586" lon="7.60447">
        <ele>1102.1999511719</ele>
        <time>2022-09-10T11:23:20.000Z</time>
      </trkpt>
      <trkpt lat="43.94581" lon="7.6044">
        <ele>1102.8000488281</ele>
        <time>2022-09-10T11:23:23.000Z</time>
      </trkpt>
      <trkpt lat="43.94576" lon="7.60434">
        <ele>1103.4000244141</ele>
        <time>2022-09-10T11:23:26.000Z</time>
      </trkpt>
      <trkpt lat="43.94569" lon="7.60427">
        <ele>1104.4000244141</ele>
        <time>2022-09-10T11:23:30.000Z</time>
      </trkpt>
      <trkpt lat="43.94567" lon="7.60426">
        <ele>1104.8000488281</ele>
        <time>2022-09-10T11:23:31.000Z</time>
      </trkpt>
      <trkpt lat="43.94558" lon="7.60425">
        <ele>1105.5999755859</ele>
        <time>2022-09-10T11:23:35.000Z</time>
      </trkpt>
      <trkpt lat="43.94554" lon="7.60425">
        <ele>1106</ele>
        <time>2022-09-10T11:23:37.000Z</time>
      </trkpt>
      <trkpt lat="43.94552" lon="7.60426">
        <ele>1106.1999511719</ele>
        <time>2022-09-10T11:23:38.000Z</time>
      </trkpt>
      <trkpt lat="43.9455" lon="7.60428">
        <ele>1106.5999755859</ele>
        <time>2022-09-10T11:23:40.000Z</time>
      </trkpt>
      <trkpt lat="43.94546" lon="7.60432">
        <ele>1107.1999511719</ele>
        <time>2022-09-10T11:23:42.000Z</time>
      </trkpt>
      <trkpt lat="43.94544" lon="7.60437">
        <ele>1107.8000488281</ele>
        <time>2022-09-10T11:23:44.000Z</time>
      </trkpt>
      <trkpt lat="43.94538" lon="7.60445">
        <ele>1109</ele>
        <time>2022-09-10T11:23:48.000Z</time>
      </trkpt>
      <trkpt lat="43.94532" lon="7.60456">
        <ele>1109.8000488281</ele>
        <time>2022-09-10T11:23:52.000Z</time>
      </trkpt>
      <trkpt lat="43.94529" lon="7.60462">
        <ele>1110</ele>
        <time>2022-09-10T11:23:54.000Z</time>
      </trkpt>
      <trkpt lat="43.94527" lon="7.60464">
        <ele>1110.4000244141</ele>
        <time>2022-09-10T11:23:55.000Z</time>
      </trkpt>
      <trkpt lat="43.94521" lon="7.60478">
        <ele>1111.1999511719</ele>
        <time>2022-09-10T11:24:00.000Z</time>
      </trkpt>
      <trkpt lat="43.94518" lon="7.60489">
        <ele>1112</ele>
        <time>2022-09-10T11:24:03.000Z</time>
      </trkpt>
      <trkpt lat="43.94517" lon="7.60492">
        <ele>1112.1999511719</ele>
        <time>2022-09-10T11:24:04.000Z</time>
      </trkpt>
      <trkpt lat="43.94516" lon="7.60511">
        <ele>1113.4000244141</ele>
        <time>2022-09-10T11:24:09.000Z</time>
      </trkpt>
      <trkpt lat="43.94516" lon="7.60515">
        <ele>1113.5999755859</ele>
        <time>2022-09-10T11:24:10.000Z</time>
      </trkpt>
      <trkpt lat="43.94519" lon="7.60532">
        <ele>1114.4000244141</ele>
        <time>2022-09-10T11:24:14.000Z</time>
      </trkpt>
      <trkpt lat="43.94522" lon="7.60543">
        <ele>1115</ele>
        <time>2022-09-10T11:24:17.000Z</time>
      </trkpt>
      <trkpt lat="43.94525" lon="7.6055">
        <ele>1115.4000244141</ele>
        <time>2022-09-10T11:24:19.000Z</time>
      </trkpt>
      <trkpt lat="43.9453" lon="7.6056">
        <ele>1116.1999511719</ele>
        <time>2022-09-10T11:24:22.000Z</time>
      </trkpt>
      <trkpt lat="43.94535" lon="7.60565">
        <ele>1116.5999755859</ele>
        <time>2022-09-10T11:24:24.000Z</time>
      </trkpt>
      <trkpt lat="43.94547" lon="7.60577">
        <ele>1117.8000488281</ele>
        <time>2022-09-10T11:24:29.000Z</time>
      </trkpt>
      <trkpt lat="43.94559" lon="7.60582">
        <ele>1119</ele>
        <time>2022-09-10T11:24:34.000Z</time>
      </trkpt>
      <trkpt lat="43.94562" lon="7.60583">
        <ele>1119.1999511719</ele>
        <time>2022-09-10T11:24:35.000Z</time>
      </trkpt>
      <trkpt lat="43.94571" lon="7.60588">
        <ele>1120.1999511719</ele>
        <time>2022-09-10T11:24:39.000Z</time>
      </trkpt>
      <trkpt lat="43.94579" lon="7.60592">
        <ele>1120.8000488281</ele>
        <time>2022-09-10T11:24:42.000Z</time>
      </trkpt>
      <trkpt lat="43.94582" lon="7.60597">
        <ele>1121.1999511719</ele>
        <time>2022-09-10T11:24:44.000Z</time>
      </trkpt>
      <trkpt lat="43.94584" lon="7.60603">
        <ele>1121.5999755859</ele>
        <time>2022-09-10T11:24:47.000Z</time>
      </trkpt>
      <trkpt lat="43.94585" lon="7.60606">
        <ele>1122</ele>
        <time>2022-09-10T11:24:50.000Z</time>
      </trkpt>
      <trkpt lat="43.94586" lon="7.60609">
        <ele>1122.1999511719</ele>
        <time>2022-09-10T11:24:53.000Z</time>
      </trkpt>
      <trkpt lat="43.94589" lon="7.60609">
        <ele>1122.1999511719</ele>
        <time>2022-09-10T11:24:57.000Z</time>
      </trkpt>
      <trkpt lat="43.94589" lon="7.60608">
        <ele>1122.1999511719</ele>
        <time>2022-09-10T11:24:58.000Z</time>
      </trkpt>
      <trkpt lat="43.94591" lon="7.60597">
        <ele>1121.5999755859</ele>
        <time>2022-09-10T11:25:05.000Z</time>
      </trkpt>
      <trkpt lat="43.94591" lon="7.60591">
        <ele>1121.5999755859</ele>
        <time>2022-09-10T11:25:10.000Z</time>
      </trkpt>
      <trkpt lat="43.94589" lon="7.60592">
        <ele>1121.4000244141</ele>
        <time>2022-09-10T11:25:12.000Z</time>
      </trkpt>
      <trkpt lat="43.94588" lon="7.60593">
        <ele>1121.1999511719</ele>
        <time>2022-09-10T11:25:13.000Z</time>
      </trkpt>
      <trkpt lat="43.94589" lon="7.60594">
        <ele>1121.1999511719</ele>
        <time>2022-09-10T11:25:14.000Z</time>
      </trkpt>
      <trkpt lat="43.94594" lon="7.60597">
        <ele>1121.1999511719</ele>
        <time>2022-09-10T11:25:17.000Z</time>
      </trkpt>
      <trkpt lat="43.94596" lon="7.60599">
        <ele>1121.1999511719</ele>
        <time>2022-09-10T11:25:18.000Z</time>
      </trkpt>
      <trkpt lat="43.94605" lon="7.6061">
        <ele>1122</ele>
        <time>2022-09-10T11:25:22.000Z</time>
      </trkpt>
      <trkpt lat="43.94606" lon="7.60613">
        <ele>1122.4000244141</ele>
        <time>2022-09-10T11:25:23.000Z</time>
      </trkpt>
      <trkpt lat="43.94612" lon="7.60622">
        <ele>1123.8000488281</ele>
        <time>2022-09-10T11:25:26.000Z</time>
      </trkpt>
      <trkpt lat="43.94613" lon="7.60624">
        <ele>1124.1999511719</ele>
        <time>2022-09-10T11:25:27.000Z</time>
      </trkpt>
      <trkpt lat="43.94614" lon="7.6063">
        <ele>1125.1999511719</ele>
        <time>2022-09-10T11:25:29.000Z</time>
      </trkpt>
      <trkpt lat="43.94614" lon="7.60631">
        <ele>1126.1999511719</ele>
        <time>2022-09-10T11:25:31.000Z</time>
      </trkpt>
      <trkpt lat="43.94615" lon="7.60632">
        <ele>1126.5999755859</ele>
        <time>2022-09-10T11:25:32.000Z</time>
      </trkpt>
      <trkpt lat="43.94615" lon="7.60632">
        <ele>1127.1999511719</ele>
        <time>2022-09-10T11:25:34.000Z</time>
      </trkpt>
      <trkpt lat="43.94616" lon="7.60632">
        <ele>1127.1999511719</ele>
        <time>2022-09-10T11:25:36.000Z</time>
      </trkpt>
      <trkpt lat="43.94618" lon="7.60632">
        <ele>1127.4000244141</ele>
        <time>2022-09-10T11:25:37.000Z</time>
      </trkpt>
      <trkpt lat="43.94619" lon="7.60633">
        <ele>1127.5999755859</ele>
        <time>2022-09-10T11:25:40.000Z</time>
      </trkpt>
      <trkpt lat="43.94619" lon="7.60634">
        <ele>1127.5999755859</ele>
        <time>2022-09-10T11:25:42.000Z</time>
      </trkpt>
      <trkpt lat="43.9462" lon="7.60634">
        <ele>1127.8000488281</ele>
        <time>2022-09-10T11:25:46.000Z</time>
      </trkpt>
      <trkpt lat="43.9462" lon="7.60637">
        <ele>1127.8000488281</ele>
        <time>2022-09-10T11:25:53.000Z</time>
      </trkpt>
      <trkpt lat="43.94622" lon="7.6064">
        <ele>1128.4000244141</ele>
        <time>2022-09-10T11:25:59.000Z</time>
      </trkpt>
      <trkpt lat="43.94621" lon="7.60641">
        <ele>1128.5999755859</ele>
        <time>2022-09-10T11:26:01.000Z</time>
      </trkpt>
      <trkpt lat="43.94622" lon="7.60641">
        <ele>1128.8000488281</ele>
        <time>2022-09-10T11:26:06.000Z</time>
      </trkpt>
      <trkpt lat="43.94623" lon="7.60643">
        <ele>1128.8000488281</ele>
        <time>2022-09-10T11:26:12.000Z</time>
      </trkpt>
      <trkpt lat="43.94623" lon="7.60644">
        <ele>1128.8000488281</ele>
        <time>2022-09-10T11:26:19.000Z</time>
      </trkpt>
      <trkpt lat="43.94624" lon="7.60646">
        <ele>1128.8000488281</ele>
        <time>2022-09-10T11:26:25.000Z</time>
      </trkpt>
      <trkpt lat="43.94624" lon="7.60648">
        <ele>1128.8000488281</ele>
        <time>2022-09-10T11:26:26.000Z</time>
      </trkpt>
      <trkpt lat="43.94626" lon="7.60654">
        <ele>1128.8000488281</ele>
        <time>2022-09-10T11:26:29.000Z</time>
      </trkpt>
      <trkpt lat="43.94629" lon="7.60661">
        <ele>1129</ele>
        <time>2022-09-10T11:26:32.000Z</time>
      </trkpt>
      <trkpt lat="43.94636" lon="7.60672">
        <ele>1129.8000488281</ele>
        <time>2022-09-10T11:26:38.000Z</time>
      </trkpt>
      <trkpt lat="43.94636" lon="7.60674">
        <ele>1130</ele>
        <time>2022-09-10T11:26:39.000Z</time>
      </trkpt>
      <trkpt lat="43.94641" lon="7.60684">
        <ele>1131.1999511719</ele>
        <time>2022-09-10T11:26:44.000Z</time>
      </trkpt>
      <trkpt lat="43.94645" lon="7.60692">
        <ele>1132.1999511719</ele>
        <time>2022-09-10T11:26:47.000Z</time>
      </trkpt>
      <trkpt lat="43.94647" lon="7.60695">
        <ele>1132.8000488281</ele>
        <time>2022-09-10T11:26:49.000Z</time>
      </trkpt>
      <trkpt lat="43.9465" lon="7.607">
        <ele>1133.4000244141</ele>
        <time>2022-09-10T11:26:51.000Z</time>
      </trkpt>
      <trkpt lat="43.94655" lon="7.60706">
        <ele>1134.5999755859</ele>
        <time>2022-09-10T11:26:55.000Z</time>
      </trkpt>
      <trkpt lat="43.94661" lon="7.60713">
        <ele>1135</ele>
        <time>2022-09-10T11:26:59.000Z</time>
      </trkpt>
      <trkpt lat="43.94664" lon="7.60718">
        <ele>1135.5999755859</ele>
        <time>2022-09-10T11:27:02.000Z</time>
      </trkpt>
      <trkpt lat="43.94669" lon="7.60722">
        <ele>1135.8000488281</ele>
        <time>2022-09-10T11:27:04.000Z</time>
      </trkpt>
      <trkpt lat="43.94673" lon="7.60729">
        <ele>1136.1999511719</ele>
        <time>2022-09-10T11:27:06.000Z</time>
      </trkpt>
      <trkpt lat="43.94675" lon="7.60738">
        <ele>1137</ele>
        <time>2022-09-10T11:27:08.000Z</time>
      </trkpt>
      <trkpt lat="43.94678" lon="7.60745">
        <ele>1138</ele>
        <time>2022-09-10T11:27:10.000Z</time>
      </trkpt>
      <trkpt lat="43.9468" lon="7.60752">
        <ele>1139.1999511719</ele>
        <time>2022-09-10T11:27:12.000Z</time>
      </trkpt>
      <trkpt lat="43.94682" lon="7.60758">
        <ele>1140.1999511719</ele>
        <time>2022-09-10T11:27:14.000Z</time>
      </trkpt>
      <trkpt lat="43.94683" lon="7.60761">
        <ele>1140.4000244141</ele>
        <time>2022-09-10T11:27:15.000Z</time>
      </trkpt>
      <trkpt lat="43.94685" lon="7.6077">
        <ele>1141.5999755859</ele>
        <time>2022-09-10T11:27:18.000Z</time>
      </trkpt>
      <trkpt lat="43.94685" lon="7.60773">
        <ele>1142</ele>
        <time>2022-09-10T11:27:19.000Z</time>
      </trkpt>
      <trkpt lat="43.94686" lon="7.6078">
        <ele>1143</ele>
        <time>2022-09-10T11:27:21.000Z</time>
      </trkpt>
      <trkpt lat="43.94688" lon="7.60792">
        <ele>1144</ele>
        <time>2022-09-10T11:27:25.000Z</time>
      </trkpt>
      <trkpt lat="43.94688" lon="7.60795">
        <ele>1144.4000244141</ele>
        <time>2022-09-10T11:27:26.000Z</time>
      </trkpt>
      <trkpt lat="43.94688" lon="7.60801">
        <ele>1145.4000244141</ele>
        <time>2022-09-10T11:27:28.000Z</time>
      </trkpt>
      <trkpt lat="43.94688" lon="7.60808">
        <ele>1146.8000488281</ele>
        <time>2022-09-10T11:27:31.000Z</time>
      </trkpt>
      <trkpt lat="43.94688" lon="7.60811">
        <ele>1147.1999511719</ele>
        <time>2022-09-10T11:27:32.000Z</time>
      </trkpt>
      <trkpt lat="43.94688" lon="7.60815">
        <ele>1148</ele>
        <time>2022-09-10T11:27:34.000Z</time>
      </trkpt>
      <trkpt lat="43.94687" lon="7.6082">
        <ele>1148.4000244141</ele>
        <time>2022-09-10T11:27:36.000Z</time>
      </trkpt>
      <trkpt lat="43.94687" lon="7.60825">
        <ele>1149.4000244141</ele>
        <time>2022-09-10T11:27:38.000Z</time>
      </trkpt>
      <trkpt lat="43.94687" lon="7.6083">
        <ele>1150.4000244141</ele>
        <time>2022-09-10T11:27:40.000Z</time>
      </trkpt>
      <trkpt lat="43.94686" lon="7.60836">
        <ele>1151.8000488281</ele>
        <time>2022-09-10T11:27:43.000Z</time>
      </trkpt>
      <trkpt lat="43.94684" lon="7.60842">
        <ele>1153</ele>
        <time>2022-09-10T11:27:46.000Z</time>
      </trkpt>
      <trkpt lat="43.94683" lon="7.60846">
        <ele>1153</ele>
        <time>2022-09-10T11:27:48.000Z</time>
      </trkpt>
      <trkpt lat="43.94687" lon="7.60857">
        <ele>1153.1999511719</ele>
        <time>2022-09-10T11:27:52.000Z</time>
      </trkpt>
      <trkpt lat="43.94695" lon="7.60859">
        <ele>1154</ele>
        <time>2022-09-10T11:27:56.000Z</time>
      </trkpt>
      <trkpt lat="43.94698" lon="7.60862">
        <ele>1155</ele>
        <time>2022-09-10T11:27:58.000Z</time>
      </trkpt>
      <trkpt lat="43.94699" lon="7.60864">
        <ele>1155.4000244141</ele>
        <time>2022-09-10T11:27:59.000Z</time>
      </trkpt>
      <trkpt lat="43.94701" lon="7.60868">
        <ele>1156.4000244141</ele>
        <time>2022-09-10T11:28:01.000Z</time>
      </trkpt>
      <trkpt lat="43.94701" lon="7.6087">
        <ele>1156.5999755859</ele>
        <time>2022-09-10T11:28:02.000Z</time>
      </trkpt>
      <trkpt lat="43.94702" lon="7.6088">
        <ele>1157.8000488281</ele>
        <time>2022-09-10T11:28:07.000Z</time>
      </trkpt>
      <trkpt lat="43.94701" lon="7.60885">
        <ele>1158.4000244141</ele>
        <time>2022-09-10T11:28:09.000Z</time>
      </trkpt>
      <trkpt lat="43.94702" lon="7.60885">
        <ele>1159</ele>
        <time>2022-09-10T11:28:11.000Z</time>
      </trkpt>
      <trkpt lat="43.94702" lon="7.60887">
        <ele>1160</ele>
        <time>2022-09-10T11:28:13.000Z</time>
      </trkpt>
      <trkpt lat="43.94702" lon="7.60892">
        <ele>1161</ele>
        <time>2022-09-10T11:28:18.000Z</time>
      </trkpt>
      <trkpt lat="43.94701" lon="7.60897">
        <ele>1161.1999511719</ele>
        <time>2022-09-10T11:28:20.000Z</time>
      </trkpt>
      <trkpt lat="43.94699" lon="7.60905">
        <ele>1162.1999511719</ele>
        <time>2022-09-10T11:28:23.000Z</time>
      </trkpt>
      <trkpt lat="43.94698" lon="7.6091">
        <ele>1163.1999511719</ele>
        <time>2022-09-10T11:28:25.000Z</time>
      </trkpt>
      <trkpt lat="43.94697" lon="7.60912">
        <ele>1163.5999755859</ele>
        <time>2022-09-10T11:28:26.000Z</time>
      </trkpt>
      <trkpt lat="43.94696" lon="7.60913">
        <ele>1164.1999511719</ele>
        <time>2022-09-10T11:28:27.000Z</time>
      </trkpt>
      <trkpt lat="43.94695" lon="7.60916">
        <ele>1164.8000488281</ele>
        <time>2022-09-10T11:28:28.000Z</time>
      </trkpt>
      <trkpt lat="43.94695" lon="7.60919">
        <ele>1165.1999511719</ele>
        <time>2022-09-10T11:28:29.000Z</time>
      </trkpt>
      <trkpt lat="43.94695" lon="7.60924">
        <ele>1166.4000244141</ele>
        <time>2022-09-10T11:28:31.000Z</time>
      </trkpt>
      <trkpt lat="43.94694" lon="7.60927">
        <ele>1166.8000488281</ele>
        <time>2022-09-10T11:28:32.000Z</time>
      </trkpt>
      <trkpt lat="43.94695" lon="7.60932">
        <ele>1167.8000488281</ele>
        <time>2022-09-10T11:28:34.000Z</time>
      </trkpt>
      <trkpt lat="43.94695" lon="7.6094">
        <ele>1168.8000488281</ele>
        <time>2022-09-10T11:28:37.000Z</time>
      </trkpt>
      <trkpt lat="43.94696" lon="7.60945">
        <ele>1169.8000488281</ele>
        <time>2022-09-10T11:28:39.000Z</time>
      </trkpt>
      <trkpt lat="43.94697" lon="7.6095">
        <ele>1171</ele>
        <time>2022-09-10T11:28:41.000Z</time>
      </trkpt>
      <trkpt lat="43.94697" lon="7.60952">
        <ele>1171.4000244141</ele>
        <time>2022-09-10T11:28:42.000Z</time>
      </trkpt>
      <trkpt lat="43.94697" lon="7.60954">
        <ele>1172</ele>
        <time>2022-09-10T11:28:43.000Z</time>
      </trkpt>
      <trkpt lat="43.94697" lon="7.60962">
        <ele>1173</ele>
        <time>2022-09-10T11:28:46.000Z</time>
      </trkpt>
      <trkpt lat="43.94695" lon="7.60964">
        <ele>1173.1999511719</ele>
        <time>2022-09-10T11:28:47.000Z</time>
      </trkpt>
      <trkpt lat="43.94691" lon="7.60969">
        <ele>1174.1999511719</ele>
        <time>2022-09-10T11:28:50.000Z</time>
      </trkpt>
      <trkpt lat="43.9469" lon="7.6097">
        <ele>1174.8000488281</ele>
        <time>2022-09-10T11:28:51.000Z</time>
      </trkpt>
      <trkpt lat="43.94689" lon="7.60972">
        <ele>1175.4000244141</ele>
        <time>2022-09-10T11:28:52.000Z</time>
      </trkpt>
      <trkpt lat="43.94687" lon="7.60977">
        <ele>1176.8000488281</ele>
        <time>2022-09-10T11:28:55.000Z</time>
      </trkpt>
      <trkpt lat="43.94685" lon="7.6098">
        <ele>1177.1999511719</ele>
        <time>2022-09-10T11:28:57.000Z</time>
      </trkpt>
      <trkpt lat="43.94683" lon="7.60983">
        <ele>1177.8000488281</ele>
        <time>2022-09-10T11:28:59.000Z</time>
      </trkpt>
      <trkpt lat="43.94681" lon="7.60986">
        <ele>1178.8000488281</ele>
        <time>2022-09-10T11:29:01.000Z</time>
      </trkpt>
      <trkpt lat="43.94681" lon="7.60988">
        <ele>1179.4000244141</ele>
        <time>2022-09-10T11:29:02.000Z</time>
      </trkpt>
      <trkpt lat="43.94681" lon="7.60997">
        <ele>1180.5999755859</ele>
        <time>2022-09-10T11:29:05.000Z</time>
      </trkpt>
      <trkpt lat="43.94681" lon="7.61001">
        <ele>1180.8000488281</ele>
        <time>2022-09-10T11:29:06.000Z</time>
      </trkpt>
      <trkpt lat="43.9468" lon="7.61014">
        <ele>1181.1999511719</ele>
        <time>2022-09-10T11:29:10.000Z</time>
      </trkpt>
      <trkpt lat="43.94678" lon="7.61023">
        <ele>1181.5999755859</ele>
        <time>2022-09-10T11:29:13.000Z</time>
      </trkpt>
      <trkpt lat="43.94677" lon="7.61028">
        <ele>1182.1999511719</ele>
        <time>2022-09-10T11:29:15.000Z</time>
      </trkpt>
      <trkpt lat="43.94676" lon="7.61031">
        <ele>1182.8000488281</ele>
        <time>2022-09-10T11:29:16.000Z</time>
      </trkpt>
      <trkpt lat="43.94674" lon="7.61039">
        <ele>1183.1999511719</ele>
        <time>2022-09-10T11:29:19.000Z</time>
      </trkpt>
      <trkpt lat="43.94675" lon="7.61041">
        <ele>1183.1999511719</ele>
        <time>2022-09-10T11:29:20.000Z</time>
      </trkpt>
      <trkpt lat="43.94674" lon="7.61048">
        <ele>1183.5999755859</ele>
        <time>2022-09-10T11:29:23.000Z</time>
      </trkpt>
      <trkpt lat="43.94673" lon="7.61052">
        <ele>1184</ele>
        <time>2022-09-10T11:29:24.000Z</time>
      </trkpt>
      <trkpt lat="43.94672" lon="7.61053">
        <ele>1184.1999511719</ele>
        <time>2022-09-10T11:29:25.000Z</time>
      </trkpt>
      <trkpt lat="43.94671" lon="7.61058">
        <ele>1185.1999511719</ele>
        <time>2022-09-10T11:29:27.000Z</time>
      </trkpt>
      <trkpt lat="43.9467" lon="7.61061">
        <ele>1185.5999755859</ele>
        <time>2022-09-10T11:29:28.000Z</time>
      </trkpt>
      <trkpt lat="43.94669" lon="7.61063">
        <ele>1186.1999511719</ele>
        <time>2022-09-10T11:29:29.000Z</time>
      </trkpt>
      <trkpt lat="43.94669" lon="7.61064">
        <ele>1186.5999755859</ele>
        <time>2022-09-10T11:29:30.000Z</time>
      </trkpt>
      <trkpt lat="43.94665" lon="7.61073">
        <ele>1187.4000244141</ele>
        <time>2022-09-10T11:29:34.000Z</time>
      </trkpt>
      <trkpt lat="43.94664" lon="7.61077">
        <ele>1187.5999755859</ele>
        <time>2022-09-10T11:29:35.000Z</time>
      </trkpt>
      <trkpt lat="43.94659" lon="7.61084">
        <ele>1188.1999511719</ele>
        <time>2022-09-10T11:29:38.000Z</time>
      </trkpt>
      <trkpt lat="43.94657" lon="7.61088">
        <ele>1188.5999755859</ele>
        <time>2022-09-10T11:29:40.000Z</time>
      </trkpt>
      <trkpt lat="43.94649" lon="7.61097">
        <ele>1189.1999511719</ele>
        <time>2022-09-10T11:29:44.000Z</time>
      </trkpt>
      <trkpt lat="43.94646" lon="7.611">
        <ele>1189.5999755859</ele>
        <time>2022-09-10T11:29:46.000Z</time>
      </trkpt>
      <trkpt lat="43.9464" lon="7.6111">
        <ele>1190.8000488281</ele>
        <time>2022-09-10T11:29:50.000Z</time>
      </trkpt>
      <trkpt lat="43.94638" lon="7.61112">
        <ele>1191</ele>
        <time>2022-09-10T11:29:51.000Z</time>
      </trkpt>
      <trkpt lat="43.94636" lon="7.61115">
        <ele>1191.5999755859</ele>
        <time>2022-09-10T11:29:53.000Z</time>
      </trkpt>
      <trkpt lat="43.94635" lon="7.61116">
        <ele>1191.8000488281</ele>
        <time>2022-09-10T11:29:54.000Z</time>
      </trkpt>
      <trkpt lat="43.94635" lon="7.61117">
        <ele>1192.1999511719</ele>
        <time>2022-09-10T11:29:55.000Z</time>
      </trkpt>
      <trkpt lat="43.94633" lon="7.61117">
        <ele>1192.8000488281</ele>
        <time>2022-09-10T11:29:56.000Z</time>
      </trkpt>
      <trkpt lat="43.94632" lon="7.61118">
        <ele>1193.1999511719</ele>
        <time>2022-09-10T11:29:57.000Z</time>
      </trkpt>
      <trkpt lat="43.94628" lon="7.61119">
        <ele>1193.8000488281</ele>
        <time>2022-09-10T11:30:00.000Z</time>
      </trkpt>
      <trkpt lat="43.94625" lon="7.6112">
        <ele>1194.1999511719</ele>
        <time>2022-09-10T11:30:02.000Z</time>
      </trkpt>
      <trkpt lat="43.94624" lon="7.61121">
        <ele>1194.4000244141</ele>
        <time>2022-09-10T11:30:04.000Z</time>
      </trkpt>
      <trkpt lat="43.94622" lon="7.61126">
        <ele>1195.4000244141</ele>
        <time>2022-09-10T11:30:07.000Z</time>
      </trkpt>
      <trkpt lat="43.94621" lon="7.61131">
        <ele>1196</ele>
        <time>2022-09-10T11:30:09.000Z</time>
      </trkpt>
      <trkpt lat="43.9462" lon="7.61138">
        <ele>1196.4000244141</ele>
        <time>2022-09-10T11:30:11.000Z</time>
      </trkpt>
      <trkpt lat="43.94618" lon="7.61143">
        <ele>1197</ele>
        <time>2022-09-10T11:30:13.000Z</time>
      </trkpt>
      <trkpt lat="43.94617" lon="7.61146">
        <ele>1197.1999511719</ele>
        <time>2022-09-10T11:30:14.000Z</time>
      </trkpt>
      <trkpt lat="43.94614" lon="7.61153">
        <ele>1197.8000488281</ele>
        <time>2022-09-10T11:30:17.000Z</time>
      </trkpt>
      <trkpt lat="43.94611" lon="7.61161">
        <ele>1199</ele>
        <time>2022-09-10T11:30:20.000Z</time>
      </trkpt>
      <trkpt lat="43.94608" lon="7.61173">
        <ele>1200.1999511719</ele>
        <time>2022-09-10T11:30:24.000Z</time>
      </trkpt>
      <trkpt lat="43.94608" lon="7.61175">
        <ele>1200.4000244141</ele>
        <time>2022-09-10T11:30:25.000Z</time>
      </trkpt>
      <trkpt lat="43.94608" lon="7.61183">
        <ele>1201.1999511719</ele>
        <time>2022-09-10T11:30:28.000Z</time>
      </trkpt>
      <trkpt lat="43.94607" lon="7.61194">
        <ele>1201.5999755859</ele>
        <time>2022-09-10T11:30:31.000Z</time>
      </trkpt>
      <trkpt lat="43.94599" lon="7.61215">
        <ele>1200.8000488281</ele>
        <time>2022-09-10T11:30:36.000Z</time>
      </trkpt>
      <trkpt lat="43.94595" lon="7.61222">
        <ele>1200</ele>
        <time>2022-09-10T11:30:38.000Z</time>
      </trkpt>
      <trkpt lat="43.94591" lon="7.61228">
        <ele>1199.1999511719</ele>
        <time>2022-09-10T11:30:41.000Z</time>
      </trkpt>
      <trkpt lat="43.9459" lon="7.61231">
        <ele>1199</ele>
        <time>2022-09-10T11:30:43.000Z</time>
      </trkpt>
      <trkpt lat="43.94587" lon="7.6124">
        <ele>1198.8000488281</ele>
        <time>2022-09-10T11:30:47.000Z</time>
      </trkpt>
      <trkpt lat="43.94584" lon="7.61244">
        <ele>1198.5999755859</ele>
        <time>2022-09-10T11:30:48.000Z</time>
      </trkpt>
      <trkpt lat="43.94574" lon="7.6125">
        <ele>1198</ele>
        <time>2022-09-10T11:30:50.000Z</time>
      </trkpt>
      <trkpt lat="43.94563" lon="7.61253">
        <ele>1196.5999755859</ele>
        <time>2022-09-10T11:30:52.000Z</time>
      </trkpt>
      <trkpt lat="43.9456" lon="7.61255">
        <ele>1195.5999755859</ele>
        <time>2022-09-10T11:30:53.000Z</time>
      </trkpt>
      <trkpt lat="43.94556" lon="7.61256">
        <ele>1195</ele>
        <time>2022-09-10T11:30:54.000Z</time>
      </trkpt>
      <trkpt lat="43.94552" lon="7.61258">
        <ele>1194.4000244141</ele>
        <time>2022-09-10T11:30:55.000Z</time>
      </trkpt>
      <trkpt lat="43.94546" lon="7.61266">
        <ele>1194.4000244141</ele>
        <time>2022-09-10T11:30:58.000Z</time>
      </trkpt>
      <trkpt lat="43.94541" lon="7.61271">
        <ele>1195.8000488281</ele>
        <time>2022-09-10T11:31:02.000Z</time>
      </trkpt>
      <trkpt lat="43.9454" lon="7.61271">
        <ele>1196</ele>
        <time>2022-09-10T11:31:03.000Z</time>
      </trkpt>
      <trkpt lat="43.94536" lon="7.6127">
        <ele>1196.4000244141</ele>
        <time>2022-09-10T11:31:08.000Z</time>
      </trkpt>
      <trkpt lat="43.94535" lon="7.61274">
        <ele>1196</ele>
        <time>2022-09-10T11:31:15.000Z</time>
      </trkpt>
      <trkpt lat="43.94536" lon="7.61279">
        <ele>1196.4000244141</ele>
        <time>2022-09-10T11:31:21.000Z</time>
      </trkpt>
      <trkpt lat="43.94533" lon="7.61281">
        <ele>1196.5999755859</ele>
        <time>2022-09-10T11:31:29.000Z</time>
      </trkpt>
      <trkpt lat="43.94531" lon="7.61285">
        <ele>1196.1999511719</ele>
        <time>2022-09-10T11:31:39.000Z</time>
      </trkpt>
      <trkpt lat="43.94531" lon="7.61289">
        <ele>1196.1999511719</ele>
        <time>2022-09-10T11:31:45.000Z</time>
      </trkpt>
      <trkpt lat="43.94529" lon="7.61292">
        <ele>1196.1999511719</ele>
        <time>2022-09-10T11:31:53.000Z</time>
      </trkpt>
      <trkpt lat="43.94529" lon="7.61292">
        <ele>1196.1999511719</ele>
        <time>2022-09-10T11:32:01.000Z</time>
      </trkpt>
      <trkpt lat="43.94531" lon="7.61285">
        <ele>1196</ele>
        <time>2022-09-10T11:32:08.000Z</time>
      </trkpt>
      <trkpt lat="43.9453" lon="7.61285">
        <ele>1196.1999511719</ele>
        <time>2022-09-10T11:32:11.000Z</time>
      </trkpt>
      <trkpt lat="43.94528" lon="7.61287">
        <ele>1196.4000244141</ele>
        <time>2022-09-10T11:32:13.000Z</time>
      </trkpt>
      <trkpt lat="43.9452" lon="7.6129">
        <ele>1196.5999755859</ele>
        <time>2022-09-10T11:32:16.000Z</time>
      </trkpt>
      <trkpt lat="43.94518" lon="7.61291">
        <ele>1196.4000244141</ele>
        <time>2022-09-10T11:32:17.000Z</time>
      </trkpt>
      <trkpt lat="43.94501" lon="7.61297">
        <ele>1196.4000244141</ele>
        <time>2022-09-10T11:32:23.000Z</time>
      </trkpt>
      <trkpt lat="43.94486" lon="7.613">
        <ele>1196.8000488281</ele>
        <time>2022-09-10T11:32:28.000Z</time>
      </trkpt>
      <trkpt lat="43.94482" lon="7.61301">
        <ele>1196.8000488281</ele>
        <time>2022-09-10T11:32:29.000Z</time>
      </trkpt>
      <trkpt lat="43.94457" lon="7.61305">
        <ele>1196.8000488281</ele>
        <time>2022-09-10T11:32:36.000Z</time>
      </trkpt>
      <trkpt lat="43.94453" lon="7.61305">
        <ele>1197</ele>
        <time>2022-09-10T11:32:37.000Z</time>
      </trkpt>
      <trkpt lat="43.94434" lon="7.613">
        <ele>1196.1999511719</ele>
        <time>2022-09-10T11:32:41.000Z</time>
      </trkpt>
      <trkpt lat="43.94421" lon="7.61296">
        <ele>1195.8000488281</ele>
        <time>2022-09-10T11:32:44.000Z</time>
      </trkpt>
      <trkpt lat="43.94403" lon="7.61297">
        <ele>1196</ele>
        <time>2022-09-10T11:32:48.000Z</time>
      </trkpt>
      <trkpt lat="43.94382" lon="7.61306">
        <ele>1196.5999755859</ele>
        <time>2022-09-10T11:32:53.000Z</time>
      </trkpt>
      <trkpt lat="43.94378" lon="7.61307">
        <ele>1196.5999755859</ele>
        <time>2022-09-10T11:32:54.000Z</time>
      </trkpt>
      <trkpt lat="43.94371" lon="7.61309">
        <ele>1197</ele>
        <time>2022-09-10T11:32:56.000Z</time>
      </trkpt>
      <trkpt lat="43.94361" lon="7.61314">
        <ele>1198</ele>
        <time>2022-09-10T11:32:59.000Z</time>
      </trkpt>
      <trkpt lat="43.9435" lon="7.61318">
        <ele>1199</ele>
        <time>2022-09-10T11:33:02.000Z</time>
      </trkpt>
      <trkpt lat="43.94343" lon="7.61318">
        <ele>1199.4000244141</ele>
        <time>2022-09-10T11:33:04.000Z</time>
      </trkpt>
      <trkpt lat="43.94331" lon="7.61315">
        <ele>1200.4000244141</ele>
        <time>2022-09-10T11:33:08.000Z</time>
      </trkpt>
      <trkpt lat="43.94328" lon="7.61313">
        <ele>1200.8000488281</ele>
        <time>2022-09-10T11:33:09.000Z</time>
      </trkpt>
      <trkpt lat="43.94309" lon="7.613">
        <ele>1201.1999511719</ele>
        <time>2022-09-10T11:33:15.000Z</time>
      </trkpt>
      <trkpt lat="43.94287" lon="7.61291">
        <ele>1201.1999511719</ele>
        <time>2022-09-10T11:33:21.000Z</time>
      </trkpt>
      <trkpt lat="43.9428" lon="7.61289">
        <ele>1201.4000244141</ele>
        <time>2022-09-10T11:33:23.000Z</time>
      </trkpt>
      <trkpt lat="43.94271" lon="7.61286">
        <ele>1201.8000488281</ele>
        <time>2022-09-10T11:33:26.000Z</time>
      </trkpt>
      <trkpt lat="43.94255" lon="7.61282">
        <ele>1201.8000488281</ele>
        <time>2022-09-10T11:33:32.000Z</time>
      </trkpt>
      <trkpt lat="43.94247" lon="7.61282">
        <ele>1202.4000244141</ele>
        <time>2022-09-10T11:33:35.000Z</time>
      </trkpt>
      <trkpt lat="43.94241" lon="7.61281">
        <ele>1202.4000244141</ele>
        <time>2022-09-10T11:33:37.000Z</time>
      </trkpt>
      <trkpt lat="43.94218" lon="7.61284">
        <ele>1203</ele>
        <time>2022-09-10T11:33:44.000Z</time>
      </trkpt>
      <trkpt lat="43.94191" lon="7.6129">
        <ele>1202</ele>
        <time>2022-09-10T11:33:51.000Z</time>
      </trkpt>
      <trkpt lat="43.94178" lon="7.61295">
        <ele>1201.8000488281</ele>
        <time>2022-09-10T11:33:54.000Z</time>
      </trkpt>
      <trkpt lat="43.94169" lon="7.61299">
        <ele>1201.4000244141</ele>
        <time>2022-09-10T11:33:56.000Z</time>
      </trkpt>
      <trkpt lat="43.94165" lon="7.613">
        <ele>1201</ele>
        <time>2022-09-10T11:33:57.000Z</time>
      </trkpt>
      <trkpt lat="43.94151" lon="7.61304">
        <ele>1200.4000244141</ele>
        <time>2022-09-10T11:34:00.000Z</time>
      </trkpt>
      <trkpt lat="43.94134" lon="7.6131">
        <ele>1199.1999511719</ele>
        <time>2022-09-10T11:34:04.000Z</time>
      </trkpt>
      <trkpt lat="43.9412" lon="7.61313">
        <ele>1198.8000488281</ele>
        <time>2022-09-10T11:34:07.000Z</time>
      </trkpt>
      <trkpt lat="43.94106" lon="7.61315">
        <ele>1198.4000244141</ele>
        <time>2022-09-10T11:34:10.000Z</time>
      </trkpt>
      <trkpt lat="43.94096" lon="7.61317">
        <ele>1198</ele>
        <time>2022-09-10T11:34:12.000Z</time>
      </trkpt>
      <trkpt lat="43.94081" lon="7.61316">
        <ele>1197.1999511719</ele>
        <time>2022-09-10T11:34:15.000Z</time>
      </trkpt>
      <trkpt lat="43.94077" lon="7.61316">
        <ele>1197</ele>
        <time>2022-09-10T11:34:16.000Z</time>
      </trkpt>
      <trkpt lat="43.94071" lon="7.61314">
        <ele>1196.8000488281</ele>
        <time>2022-09-10T11:34:17.000Z</time>
      </trkpt>
      <trkpt lat="43.94065" lon="7.61311">
        <ele>1196.8000488281</ele>
        <time>2022-09-10T11:34:18.000Z</time>
      </trkpt>
      <trkpt lat="43.94061" lon="7.61306">
        <ele>1196.8000488281</ele>
        <time>2022-09-10T11:34:19.000Z</time>
      </trkpt>
      <trkpt lat="43.94046" lon="7.61282">
        <ele>1195.8000488281</ele>
        <time>2022-09-10T11:34:23.000Z</time>
      </trkpt>
      <trkpt lat="43.9404" lon="7.61251">
        <ele>1194.5999755859</ele>
        <time>2022-09-10T11:34:27.000Z</time>
      </trkpt>
      <trkpt lat="43.94037" lon="7.61211">
        <ele>1194.1999511719</ele>
        <time>2022-09-10T11:34:32.000Z</time>
      </trkpt>
      <trkpt lat="43.94035" lon="7.61197">
        <ele>1193.8000488281</ele>
        <time>2022-09-10T11:34:34.000Z</time>
      </trkpt>
      <trkpt lat="43.94024" lon="7.61178">
        <ele>1193.8000488281</ele>
        <time>2022-09-10T11:34:37.000Z</time>
      </trkpt>
      <trkpt lat="43.94018" lon="7.61173">
        <ele>1193.4000244141</ele>
        <time>2022-09-10T11:34:38.000Z</time>
      </trkpt>
      <trkpt lat="43.94001" lon="7.61161">
        <ele>1192.8000488281</ele>
        <time>2022-09-10T11:34:41.000Z</time>
      </trkpt>
      <trkpt lat="43.93996" lon="7.61156">
        <ele>1192.4000244141</ele>
        <time>2022-09-10T11:34:42.000Z</time>
      </trkpt>
      <trkpt lat="43.9399" lon="7.61151">
        <ele>1192.4000244141</ele>
        <time>2022-09-10T11:34:43.000Z</time>
      </trkpt>
      <trkpt lat="43.93982" lon="7.6114">
        <ele>1191.8000488281</ele>
        <time>2022-09-10T11:34:45.000Z</time>
      </trkpt>
      <trkpt lat="43.93979" lon="7.61133">
        <ele>1191.8000488281</ele>
        <time>2022-09-10T11:34:46.000Z</time>
      </trkpt>
      <trkpt lat="43.93976" lon="7.61117">
        <ele>1191</ele>
        <time>2022-09-10T11:34:48.000Z</time>
      </trkpt>
      <trkpt lat="43.93974" lon="7.61102">
        <ele>1190.4000244141</ele>
        <time>2022-09-10T11:34:50.000Z</time>
      </trkpt>
      <trkpt lat="43.93972" lon="7.61087">
        <ele>1189.5999755859</ele>
        <time>2022-09-10T11:34:52.000Z</time>
      </trkpt>
      <trkpt lat="43.93971" lon="7.61062">
        <ele>1189.1999511719</ele>
        <time>2022-09-10T11:34:55.000Z</time>
      </trkpt>
      <trkpt lat="43.93969" lon="7.61038">
        <ele>1189.1999511719</ele>
        <time>2022-09-10T11:34:58.000Z</time>
      </trkpt>
      <trkpt lat="43.93963" lon="7.61023">
        <ele>1188.8000488281</ele>
        <time>2022-09-10T11:35:00.000Z</time>
      </trkpt>
      <trkpt lat="43.93949" lon="7.61005">
        <ele>1188.1999511719</ele>
        <time>2022-09-10T11:35:03.000Z</time>
      </trkpt>
      <trkpt lat="43.93944" lon="7.61001">
        <ele>1188</ele>
        <time>2022-09-10T11:35:04.000Z</time>
      </trkpt>
      <trkpt lat="43.9393" lon="7.60983">
        <ele>1187.4000244141</ele>
        <time>2022-09-10T11:35:07.000Z</time>
      </trkpt>
      <trkpt lat="43.93922" lon="7.6097">
        <ele>1187</ele>
        <time>2022-09-10T11:35:09.000Z</time>
      </trkpt>
      <trkpt lat="43.93918" lon="7.60962">
        <ele>1186.8000488281</ele>
        <time>2022-09-10T11:35:10.000Z</time>
      </trkpt>
      <trkpt lat="43.93917" lon="7.60953">
        <ele>1186.4000244141</ele>
        <time>2022-09-10T11:35:11.000Z</time>
      </trkpt>
      <trkpt lat="43.93918" lon="7.60935">
        <ele>1185.8000488281</ele>
        <time>2022-09-10T11:35:13.000Z</time>
      </trkpt>
      <trkpt lat="43.93932" lon="7.60906">
        <ele>1185.4000244141</ele>
        <time>2022-09-10T11:35:17.000Z</time>
      </trkpt>
      <trkpt lat="43.93952" lon="7.60871">
        <ele>1185.4000244141</ele>
        <time>2022-09-10T11:35:23.000Z</time>
      </trkpt>
      <trkpt lat="43.93963" lon="7.60846">
        <ele>1184.8000488281</ele>
        <time>2022-09-10T11:35:28.000Z</time>
      </trkpt>
      <trkpt lat="43.93963" lon="7.60842">
        <ele>1184.5999755859</ele>
        <time>2022-09-10T11:35:29.000Z</time>
      </trkpt>
      <trkpt lat="43.93962" lon="7.60838">
        <ele>1184.8000488281</ele>
        <time>2022-09-10T11:35:30.000Z</time>
      </trkpt>
      <trkpt lat="43.93959" lon="7.60836">
        <ele>1184.5999755859</ele>
        <time>2022-09-10T11:35:31.000Z</time>
      </trkpt>
      <trkpt lat="43.93948" lon="7.60839">
        <ele>1183.8000488281</ele>
        <time>2022-09-10T11:35:34.000Z</time>
      </trkpt>
      <trkpt lat="43.93944" lon="7.60841">
        <ele>1183.4000244141</ele>
        <time>2022-09-10T11:35:35.000Z</time>
      </trkpt>
      <trkpt lat="43.93937" lon="7.60846">
        <ele>1182.4000244141</ele>
        <time>2022-09-10T11:35:38.000Z</time>
      </trkpt>
      <trkpt lat="43.93935" lon="7.60847">
        <ele>1182</ele>
        <time>2022-09-10T11:35:39.000Z</time>
      </trkpt>
      <trkpt lat="43.93934" lon="7.6085">
        <ele>1181.8000488281</ele>
        <time>2022-09-10T11:35:41.000Z</time>
      </trkpt>
      <trkpt lat="43.93935" lon="7.60855">
        <ele>1181.5999755859</ele>
        <time>2022-09-10T11:35:43.000Z</time>
      </trkpt>
      <trkpt lat="43.93929" lon="7.60864">
        <ele>1182</ele>
        <time>2022-09-10T11:35:48.000Z</time>
      </trkpt>
      <trkpt lat="43.93925" lon="7.60869">
        <ele>1181.4000244141</ele>
        <time>2022-09-10T11:35:53.000Z</time>
      </trkpt>
      <trkpt lat="43.93924" lon="7.60869">
        <ele>1181.1999511719</ele>
        <time>2022-09-10T11:35:54.000Z</time>
      </trkpt>
      <trkpt lat="43.93924" lon="7.6087">
        <ele>1181.1999511719</ele>
        <time>2022-09-10T11:36:01.000Z</time>
      </trkpt>
      <trkpt lat="43.93922" lon="7.60869">
        <ele>1181.1999511719</ele>
        <time>2022-09-10T11:36:09.000Z</time>
      </trkpt>
      <trkpt lat="43.93924" lon="7.60866">
        <ele>1181.1999511719</ele>
        <time>2022-09-10T11:36:17.000Z</time>
      </trkpt>
      <trkpt lat="43.93924" lon="7.60862">
        <ele>1181.8000488281</ele>
        <time>2022-09-10T11:36:23.000Z</time>
      </trkpt>
      <trkpt lat="43.93924" lon="7.60862">
        <ele>1181.8000488281</ele>
        <time>2022-09-10T11:36:29.000Z</time>
      </trkpt>
      <trkpt lat="43.93924" lon="7.60862">
        <ele>1182</ele>
        <time>2022-09-10T11:36:35.000Z</time>
      </trkpt>
      <trkpt lat="43.93923" lon="7.60861">
        <ele>1182</ele>
        <time>2022-09-10T11:36:44.000Z</time>
      </trkpt>
      <trkpt lat="43.93923" lon="7.60864">
        <ele>1182</ele>
        <time>2022-09-10T11:36:47.000Z</time>
      </trkpt>
      <trkpt lat="43.93921" lon="7.60866">
        <ele>1182</ele>
        <time>2022-09-10T11:36:49.000Z</time>
      </trkpt>
      <trkpt lat="43.93919" lon="7.60866">
        <ele>1181.8000488281</ele>
        <time>2022-09-10T11:36:54.000Z</time>
      </trkpt>
      <trkpt lat="43.93919" lon="7.60867">
        <ele>1181.8000488281</ele>
        <time>2022-09-10T11:37:02.000Z</time>
      </trkpt>
      <trkpt lat="43.9392" lon="7.60869">
        <ele>1181.5999755859</ele>
        <time>2022-09-10T11:37:04.000Z</time>
      </trkpt>
      <trkpt lat="43.9392" lon="7.6087">
        <ele>1181.5999755859</ele>
        <time>2022-09-10T11:37:07.000Z</time>
      </trkpt>
      <trkpt lat="43.9392" lon="7.60871">
        <ele>1182.4000244141</ele>
        <time>2022-09-10T11:37:14.000Z</time>
      </trkpt>
      <trkpt lat="43.93918" lon="7.6087">
        <ele>1181.8000488281</ele>
        <time>2022-09-10T11:37:20.000Z</time>
      </trkpt>
      <trkpt lat="43.93919" lon="7.60871">
        <ele>1182.4000244141</ele>
        <time>2022-09-10T11:37:25.000Z</time>
      </trkpt>
      <trkpt lat="43.93916" lon="7.60864">
        <ele>1182</ele>
        <time>2022-09-10T11:37:31.000Z</time>
      </trkpt>
      <trkpt lat="43.93915" lon="7.60863">
        <ele>1181.8000488281</ele>
        <time>2022-09-10T11:37:38.000Z</time>
      </trkpt>
      <trkpt lat="43.93912" lon="7.60854">
        <ele>1182</ele>
        <time>2022-09-10T11:37:45.000Z</time>
      </trkpt>
      <trkpt lat="43.93913" lon="7.6085">
        <ele>1182</ele>
        <time>2022-09-10T11:37:51.000Z</time>
      </trkpt>
      <trkpt lat="43.93916" lon="7.60843">
        <ele>1181.8000488281</ele>
        <time>2022-09-10T11:38:02.000Z</time>
      </trkpt>
      <trkpt lat="43.93917" lon="7.60844">
        <ele>1181.5999755859</ele>
        <time>2022-09-10T11:38:10.000Z</time>
      </trkpt>
      <trkpt lat="43.93918" lon="7.60845">
        <ele>1181.5999755859</ele>
        <time>2022-09-10T11:38:19.000Z</time>
      </trkpt>
      <trkpt lat="43.93922" lon="7.60852">
        <ele>1181.4000244141</ele>
        <time>2022-09-10T11:38:27.000Z</time>
      </trkpt>
      <trkpt lat="43.93922" lon="7.60852">
        <ele>1181.4000244141</ele>
        <time>2022-09-10T11:38:28.000Z</time>
      </trkpt>
      <trkpt lat="43.93924" lon="7.60856">
        <ele>1181.4000244141</ele>
        <time>2022-09-10T11:38:38.000Z</time>
      </trkpt>
      <trkpt lat="43.93927" lon="7.60858">
        <ele>1181.4000244141</ele>
        <time>2022-09-10T11:38:47.000Z</time>
      </trkpt>
      <trkpt lat="43.93928" lon="7.60858">
        <ele>1181.1999511719</ele>
        <time>2022-09-10T11:38:54.000Z</time>
      </trkpt>
      <trkpt lat="43.93927" lon="7.60858">
        <ele>1181</ele>
        <time>2022-09-10T11:39:03.000Z</time>
      </trkpt>
      <trkpt lat="43.93926" lon="7.60856">
        <ele>1181.1999511719</ele>
        <time>2022-09-10T11:39:08.000Z</time>
      </trkpt>
      <trkpt lat="43.93926" lon="7.60858">
        <ele>1181.1999511719</ele>
        <time>2022-09-10T11:39:12.000Z</time>
      </trkpt>
      <trkpt lat="43.93928" lon="7.60861">
        <ele>1181.4000244141</ele>
        <time>2022-09-10T11:39:20.000Z</time>
      </trkpt>
      <trkpt lat="43.93926" lon="7.60861">
        <ele>1181.4000244141</ele>
        <time>2022-09-10T11:39:25.000Z</time>
      </trkpt>
      <trkpt lat="43.93926" lon="7.60864">
        <ele>1181.1999511719</ele>
        <time>2022-09-10T11:39:32.000Z</time>
      </trkpt>
      <trkpt lat="43.93926" lon="7.60861">
        <ele>1181.1999511719</ele>
        <time>2022-09-10T11:39:37.000Z</time>
      </trkpt>
      <trkpt lat="43.93925" lon="7.6086">
        <ele>1180.5999755859</ele>
        <time>2022-09-10T11:39:43.000Z</time>
      </trkpt>
      <trkpt lat="43.93925" lon="7.60856">
        <ele>1180.5999755859</ele>
        <time>2022-09-10T11:39:49.000Z</time>
      </trkpt>
      <trkpt lat="43.93926" lon="7.60856">
        <ele>1180.4000244141</ele>
        <time>2022-09-10T11:39:53.000Z</time>
      </trkpt>
      <trkpt lat="43.93926" lon="7.60856">
        <ele>1180.4000244141</ele>
        <time>2022-09-10T11:39:55.000Z</time>
      </trkpt>
      <trkpt lat="43.93925" lon="7.60854">
        <ele>1180.4000244141</ele>
        <time>2022-09-10T11:40:02.000Z</time>
      </trkpt>
      <trkpt lat="43.93923" lon="7.60852">
        <ele>1180.8000488281</ele>
        <time>2022-09-10T11:40:07.000Z</time>
      </trkpt>
      <trkpt lat="43.93923" lon="7.60854">
        <ele>1180.4000244141</ele>
        <time>2022-09-10T11:40:12.000Z</time>
      </trkpt>
      <trkpt lat="43.93926" lon="7.60867">
        <ele>1180.8000488281</ele>
        <time>2022-09-10T11:40:24.000Z</time>
      </trkpt>
      <trkpt lat="43.93925" lon="7.60866">
        <ele>1180.8000488281</ele>
        <time>2022-09-10T11:40:28.000Z</time>
      </trkpt>
      <trkpt lat="43.93925" lon="7.60864">
        <ele>1180.5999755859</ele>
        <time>2022-09-10T11:40:33.000Z</time>
      </trkpt>
      <trkpt lat="43.93921" lon="7.60862">
        <ele>1180.8000488281</ele>
        <time>2022-09-10T11:40:38.000Z</time>
      </trkpt>
      <trkpt lat="43.93921" lon="7.60863">
        <ele>1180.4000244141</ele>
        <time>2022-09-10T11:40:44.000Z</time>
      </trkpt>
      <trkpt lat="43.93922" lon="7.60862">
        <ele>1180.4000244141</ele>
        <time>2022-09-10T11:40:45.000Z</time>
      </trkpt>
      <trkpt lat="43.93923" lon="7.60863">
        <ele>1180.4000244141</ele>
        <time>2022-09-10T11:40:48.000Z</time>
      </trkpt>
      <trkpt lat="43.93922" lon="7.60862">
        <ele>1180.4000244141</ele>
        <time>2022-09-10T11:40:50.000Z</time>
      </trkpt>
      <trkpt lat="43.93919" lon="7.6086">
        <ele>1180.4000244141</ele>
        <time>2022-09-10T11:40:52.000Z</time>
      </trkpt>
      <trkpt lat="43.9392" lon="7.60861">
        <ele>1180.4000244141</ele>
        <time>2022-09-10T11:40:57.000Z</time>
      </trkpt>
      <trkpt lat="43.93923" lon="7.60861">
        <ele>1180.5999755859</ele>
        <time>2022-09-10T11:41:03.000Z</time>
      </trkpt>
      <trkpt lat="43.93924" lon="7.60861">
        <ele>1180.5999755859</ele>
        <time>2022-09-10T11:41:12.000Z</time>
      </trkpt>
      <trkpt lat="43.93924" lon="7.6086">
        <ele>1180.5999755859</ele>
        <time>2022-09-10T11:41:18.000Z</time>
      </trkpt>
      <trkpt lat="43.93924" lon="7.60858">
        <ele>1180.5999755859</ele>
        <time>2022-09-10T11:41:19.000Z</time>
      </trkpt>
      <trkpt lat="43.93925" lon="7.6086">
        <ele>1180.4000244141</ele>
        <time>2022-09-10T11:41:22.000Z</time>
      </trkpt>
      <trkpt lat="43.93924" lon="7.60865">
        <ele>1180.5999755859</ele>
        <time>2022-09-10T11:41:27.000Z</time>
      </trkpt>
      <trkpt lat="43.93925" lon="7.60864">
        <ele>1180.1999511719</ele>
        <time>2022-09-10T11:41:33.000Z</time>
      </trkpt>
      <trkpt lat="43.93923" lon="7.60861">
        <ele>1180</ele>
        <time>2022-09-10T11:41:39.000Z</time>
      </trkpt>
      <trkpt lat="43.93922" lon="7.60857">
        <ele>1180.1999511719</ele>
        <time>2022-09-10T11:41:45.000Z</time>
      </trkpt>
      <trkpt lat="43.93922" lon="7.60856">
        <ele>1180.1999511719</ele>
        <time>2022-09-10T11:41:51.000Z</time>
      </trkpt>
      <trkpt lat="43.93922" lon="7.60858">
        <ele>1180.1999511719</ele>
        <time>2022-09-10T11:41:54.000Z</time>
      </trkpt>
      <trkpt lat="43.93923" lon="7.6086">
        <ele>1180.1999511719</ele>
        <time>2022-09-10T11:41:56.000Z</time>
      </trkpt>
      <trkpt lat="43.93924" lon="7.60861">
        <ele>1180.4000244141</ele>
        <time>2022-09-10T11:42:02.000Z</time>
      </trkpt>
      <trkpt lat="43.93925" lon="7.60864">
        <ele>1180.4000244141</ele>
        <time>2022-09-10T11:42:11.000Z</time>
      </trkpt>
      <trkpt lat="43.93923" lon="7.60866">
        <ele>1180.4000244141</ele>
        <time>2022-09-10T11:42:17.000Z</time>
      </trkpt>
      <trkpt lat="43.93922" lon="7.60868">
        <ele>1180.4000244141</ele>
        <time>2022-09-10T11:42:22.000Z</time>
      </trkpt>
      <trkpt lat="43.93923" lon="7.60864">
        <ele>1180.5999755859</ele>
        <time>2022-09-10T11:42:29.000Z</time>
      </trkpt>
      <trkpt lat="43.93923" lon="7.60861">
        <ele>1180.5999755859</ele>
        <time>2022-09-10T11:42:35.000Z</time>
      </trkpt>
      <trkpt lat="43.93923" lon="7.6086">
        <ele>1180.1999511719</ele>
        <time>2022-09-10T11:42:41.000Z</time>
      </trkpt>
      <trkpt lat="43.93924" lon="7.60864">
        <ele>1180.1999511719</ele>
        <time>2022-09-10T11:42:46.000Z</time>
      </trkpt>
      <trkpt lat="43.93924" lon="7.60867">
        <ele>1180.1999511719</ele>
        <time>2022-09-10T11:42:52.000Z</time>
      </trkpt>
      <trkpt lat="43.9392" lon="7.60859">
        <ele>1180.1999511719</ele>
        <time>2022-09-10T11:42:58.000Z</time>
      </trkpt>
      <trkpt lat="43.93921" lon="7.60856">
        <ele>1180</ele>
        <time>2022-09-10T11:43:01.000Z</time>
      </trkpt>
      <trkpt lat="43.93921" lon="7.60852">
        <ele>1180</ele>
        <time>2022-09-10T11:43:03.000Z</time>
      </trkpt>
      <trkpt lat="43.93922" lon="7.60846">
        <ele>1180</ele>
        <time>2022-09-10T11:43:09.000Z</time>
      </trkpt>
      <trkpt lat="43.93922" lon="7.60846">
        <ele>1180</ele>
        <time>2022-09-10T11:43:15.000Z</time>
      </trkpt>
      <trkpt lat="43.93924" lon="7.6085">
        <ele>1179.8000488281</ele>
        <time>2022-09-10T11:43:21.000Z</time>
      </trkpt>
      <trkpt lat="43.93924" lon="7.60849">
        <ele>1179.8000488281</ele>
        <time>2022-09-10T11:43:26.000Z</time>
      </trkpt>
      <trkpt lat="43.93923" lon="7.60852">
        <ele>1179.8000488281</ele>
        <time>2022-09-10T11:43:31.000Z</time>
      </trkpt>
      <trkpt lat="43.93924" lon="7.60851">
        <ele>1179.8000488281</ele>
        <time>2022-09-10T11:43:33.000Z</time>
      </trkpt>
      <trkpt lat="43.93924" lon="7.60851">
        <ele>1180</ele>
        <time>2022-09-10T11:43:36.000Z</time>
      </trkpt>
      <trkpt lat="43.93925" lon="7.60854">
        <ele>1180</ele>
        <time>2022-09-10T11:43:41.000Z</time>
      </trkpt>
      <trkpt lat="43.93926" lon="7.60854">
        <ele>1180</ele>
        <time>2022-09-10T11:43:47.000Z</time>
      </trkpt>
      <trkpt lat="43.93925" lon="7.60854">
        <ele>1179.8000488281</ele>
        <time>2022-09-10T11:43:53.000Z</time>
      </trkpt>
      <trkpt lat="43.93925" lon="7.60853">
        <ele>1179.8000488281</ele>
        <time>2022-09-10T11:44:03.000Z</time>
      </trkpt>
      <trkpt lat="43.93923" lon="7.60855">
        <ele>1179.8000488281</ele>
        <time>2022-09-10T11:44:10.000Z</time>
      </trkpt>
      <trkpt lat="43.93922" lon="7.60846">
        <ele>1180</ele>
        <time>2022-09-10T11:44:19.000Z</time>
      </trkpt>
      <trkpt lat="43.93923" lon="7.60844">
        <ele>1179.8000488281</ele>
        <time>2022-09-10T11:44:25.000Z</time>
      </trkpt>
      <trkpt lat="43.93924" lon="7.60848">
        <ele>1179.8000488281</ele>
        <time>2022-09-10T11:44:33.000Z</time>
      </trkpt>
      <trkpt lat="43.93923" lon="7.60851">
        <ele>1180</ele>
        <time>2022-09-10T11:44:42.000Z</time>
      </trkpt>
      <trkpt lat="43.93927" lon="7.60852">
        <ele>1180.1999511719</ele>
        <time>2022-09-10T11:44:49.000Z</time>
      </trkpt>
      <trkpt lat="43.93926" lon="7.60852">
        <ele>1180</ele>
        <time>2022-09-10T11:44:55.000Z</time>
      </trkpt>
      <trkpt lat="43.93926" lon="7.60854">
        <ele>1180</ele>
        <time>2022-09-10T11:44:57.000Z</time>
      </trkpt>
      <trkpt lat="43.93928" lon="7.60854">
        <ele>1180</ele>
        <time>2022-09-10T11:44:59.000Z</time>
      </trkpt>
      <trkpt lat="43.93926" lon="7.60854">
        <ele>1179.8000488281</ele>
        <time>2022-09-10T11:45:03.000Z</time>
      </trkpt>
      <trkpt lat="43.93926" lon="7.60855">
        <ele>1179.8000488281</ele>
        <time>2022-09-10T11:45:08.000Z</time>
      </trkpt>
      <trkpt lat="43.93926" lon="7.60857">
        <ele>1179.8000488281</ele>
        <time>2022-09-10T11:45:10.000Z</time>
      </trkpt>
      <trkpt lat="43.93926" lon="7.60864">
        <ele>1179.5999755859</ele>
        <time>2022-09-10T11:45:13.000Z</time>
      </trkpt>
      <trkpt lat="43.93924" lon="7.60863">
        <ele>1179.4000244141</ele>
        <time>2022-09-10T11:45:17.000Z</time>
      </trkpt>
      <trkpt lat="43.93921" lon="7.60852">
        <ele>1179.4000244141</ele>
        <time>2022-09-10T11:45:24.000Z</time>
      </trkpt>
      <trkpt lat="43.9392" lon="7.60851">
        <ele>1179.4000244141</ele>
        <time>2022-09-10T11:45:27.000Z</time>
      </trkpt>
      <trkpt lat="43.93921" lon="7.60851">
        <ele>1179.5999755859</ele>
        <time>2022-09-10T11:45:29.000Z</time>
      </trkpt>
      <trkpt lat="43.93924" lon="7.6085">
        <ele>1180</ele>
        <time>2022-09-10T11:45:36.000Z</time>
      </trkpt>
      <trkpt lat="43.93926" lon="7.60856">
        <ele>1180</ele>
        <time>2022-09-10T11:45:43.000Z</time>
      </trkpt>
      <trkpt lat="43.93928" lon="7.60861">
        <ele>1179.8000488281</ele>
        <time>2022-09-10T11:45:48.000Z</time>
      </trkpt>
      <trkpt lat="43.93928" lon="7.6086">
        <ele>1179.5999755859</ele>
        <time>2022-09-10T11:45:54.000Z</time>
      </trkpt>
      <trkpt lat="43.93929" lon="7.60862">
        <ele>1179.5999755859</ele>
        <time>2022-09-10T11:46:00.000Z</time>
      </trkpt>
      <trkpt lat="43.93928" lon="7.60858">
        <ele>1179.5999755859</ele>
        <time>2022-09-10T11:46:06.000Z</time>
      </trkpt>
      <trkpt lat="43.93928" lon="7.60861">
        <ele>1179.5999755859</ele>
        <time>2022-09-10T11:46:14.000Z</time>
      </trkpt>
      <trkpt lat="43.93926" lon="7.6086">
        <ele>1179.4000244141</ele>
        <time>2022-09-10T11:46:20.000Z</time>
      </trkpt>
      <trkpt lat="43.93927" lon="7.6086">
        <ele>1179.4000244141</ele>
        <time>2022-09-10T11:46:27.000Z</time>
      </trkpt>
      <trkpt lat="43.93929" lon="7.60859">
        <ele>1179.4000244141</ele>
        <time>2022-09-10T11:46:33.000Z</time>
      </trkpt>
      <trkpt lat="43.9393" lon="7.60857">
        <ele>1179.4000244141</ele>
        <time>2022-09-10T11:46:36.000Z</time>
      </trkpt>
      <trkpt lat="43.9393" lon="7.60857">
        <ele>1179.1999511719</ele>
        <time>2022-09-10T11:46:39.000Z</time>
      </trkpt>
      <trkpt lat="43.93931" lon="7.60854">
        <ele>1179.4000244141</ele>
        <time>2022-09-10T11:46:44.000Z</time>
      </trkpt>
      <trkpt lat="43.93932" lon="7.60854">
        <ele>1179.4000244141</ele>
        <time>2022-09-10T11:46:46.000Z</time>
      </trkpt>
      <trkpt lat="43.93932" lon="7.60855">
        <ele>1179.1999511719</ele>
        <time>2022-09-10T11:46:51.000Z</time>
      </trkpt>
      <trkpt lat="43.93932" lon="7.60856">
        <ele>1178.8000488281</ele>
        <time>2022-09-10T11:46:59.000Z</time>
      </trkpt>
      <trkpt lat="43.93932" lon="7.60858">
        <ele>1178.8000488281</ele>
        <time>2022-09-10T11:47:05.000Z</time>
      </trkpt>
      <trkpt lat="43.93931" lon="7.60855">
        <ele>1178.5999755859</ele>
        <time>2022-09-10T11:47:08.000Z</time>
      </trkpt>
      <trkpt lat="43.93932" lon="7.60852">
        <ele>1178.8000488281</ele>
        <time>2022-09-10T11:47:10.000Z</time>
      </trkpt>
      <trkpt lat="43.93932" lon="7.60853">
        <ele>1178.8000488281</ele>
        <time>2022-09-10T11:47:15.000Z</time>
      </trkpt>
      <trkpt lat="43.93933" lon="7.60856">
        <ele>1178.8000488281</ele>
        <time>2022-09-10T11:47:17.000Z</time>
      </trkpt>
      <trkpt lat="43.93934" lon="7.60861">
        <ele>1178.8000488281</ele>
        <time>2022-09-10T11:47:21.000Z</time>
      </trkpt>
      <trkpt lat="43.93934" lon="7.60863">
        <ele>1179</ele>
        <time>2022-09-10T11:47:27.000Z</time>
      </trkpt>
      <trkpt lat="43.93932" lon="7.60864">
        <ele>1179</ele>
        <time>2022-09-10T11:47:32.000Z</time>
      </trkpt>
      <trkpt lat="43.93931" lon="7.60862">
        <ele>1179.4000244141</ele>
        <time>2022-09-10T11:47:39.000Z</time>
      </trkpt>
      <trkpt lat="43.93926" lon="7.60862">
        <ele>1179.1999511719</ele>
        <time>2022-09-10T11:47:50.000Z</time>
      </trkpt>
      <trkpt lat="43.93927" lon="7.6086">
        <ele>1179.1999511719</ele>
        <time>2022-09-10T11:48:01.000Z</time>
      </trkpt>
      <trkpt lat="43.93927" lon="7.6086">
        <ele>1178.5999755859</ele>
        <time>2022-09-10T11:48:07.000Z</time>
      </trkpt>
      <trkpt lat="43.93926" lon="7.60864">
        <ele>1178.5999755859</ele>
        <time>2022-09-10T11:48:14.000Z</time>
      </trkpt>
      <trkpt lat="43.93927" lon="7.60863">
        <ele>1178.8000488281</ele>
        <time>2022-09-10T11:48:20.000Z</time>
      </trkpt>
      <trkpt lat="43.93926" lon="7.6086">
        <ele>1178.8000488281</ele>
        <time>2022-09-10T11:48:27.000Z</time>
      </trkpt>
      <trkpt lat="43.93926" lon="7.60855">
        <ele>1178.8000488281</ele>
        <time>2022-09-10T11:48:32.000Z</time>
      </trkpt>
      <trkpt lat="43.93926" lon="7.60855">
        <ele>1179</ele>
        <time>2022-09-10T11:48:33.000Z</time>
      </trkpt>
      <trkpt lat="43.93927" lon="7.60852">
        <ele>1178.8000488281</ele>
        <time>2022-09-10T11:48:34.000Z</time>
      </trkpt>
      <trkpt lat="43.93926" lon="7.60847">
        <ele>1179</ele>
        <time>2022-09-10T11:48:39.000Z</time>
      </trkpt>
      <trkpt lat="43.93924" lon="7.60842">
        <ele>1178.8000488281</ele>
        <time>2022-09-10T11:48:43.000Z</time>
      </trkpt>
      <trkpt lat="43.93925" lon="7.60838">
        <ele>1178.5999755859</ele>
        <time>2022-09-10T11:48:44.000Z</time>
      </trkpt>
      <trkpt lat="43.93925" lon="7.60846">
        <ele>1178.5999755859</ele>
        <time>2022-09-10T11:48:49.000Z</time>
      </trkpt>
      <trkpt lat="43.93927" lon="7.60867">
        <ele>1178.5999755859</ele>
        <time>2022-09-10T11:48:53.000Z</time>
      </trkpt>
      <trkpt lat="43.93929" lon="7.60871">
        <ele>1178.5999755859</ele>
        <time>2022-09-10T11:48:54.000Z</time>
      </trkpt>
      <trkpt lat="43.93928" lon="7.60878">
        <ele>1178.5999755859</ele>
        <time>2022-09-10T11:48:59.000Z</time>
      </trkpt>
      <trkpt lat="43.93928" lon="7.60875">
        <ele>1179</ele>
        <time>2022-09-10T11:49:04.000Z</time>
      </trkpt>
      <trkpt lat="43.93927" lon="7.60873">
        <ele>1179</ele>
        <time>2022-09-10T11:49:10.000Z</time>
      </trkpt>
      <trkpt lat="43.93924" lon="7.6087">
        <ele>1178.8000488281</ele>
        <time>2022-09-10T11:49:16.000Z</time>
      </trkpt>
      <trkpt lat="43.93924" lon="7.6087">
        <ele>1178.8000488281</ele>
        <time>2022-09-10T11:49:18.000Z</time>
      </trkpt>
      <trkpt lat="43.93927" lon="7.60873">
        <ele>1178.8000488281</ele>
        <time>2022-09-10T11:49:21.000Z</time>
      </trkpt>
      <trkpt lat="43.9393" lon="7.60881">
        <ele>1178.8000488281</ele>
        <time>2022-09-10T11:49:26.000Z</time>
      </trkpt>
      <trkpt lat="43.93932" lon="7.60883">
        <ele>1178.8000488281</ele>
        <time>2022-09-10T11:49:29.000Z</time>
      </trkpt>
      <trkpt lat="43.93932" lon="7.60887">
        <ele>1178.8000488281</ele>
        <time>2022-09-10T11:49:31.000Z</time>
      </trkpt>
      <trkpt lat="43.93929" lon="7.60888">
        <ele>1179</ele>
        <time>2022-09-10T11:49:37.000Z</time>
      </trkpt>
      <trkpt lat="43.93931" lon="7.60882">
        <ele>1179</ele>
        <time>2022-09-10T11:49:44.000Z</time>
      </trkpt>
      <trkpt lat="43.93933" lon="7.60877">
        <ele>1178.8000488281</ele>
        <time>2022-09-10T11:49:49.000Z</time>
      </trkpt>
      <trkpt lat="43.93928" lon="7.60856">
        <ele>1178.8000488281</ele>
        <time>2022-09-10T11:49:55.000Z</time>
      </trkpt>
      <trkpt lat="43.93927" lon="7.60846">
        <ele>1178.8000488281</ele>
        <time>2022-09-10T11:49:59.000Z</time>
      </trkpt>
      <trkpt lat="43.93924" lon="7.60846">
        <ele>1178.5999755859</ele>
        <time>2022-09-10T11:50:02.000Z</time>
      </trkpt>
      <trkpt lat="43.93926" lon="7.60849">
        <ele>1178.8000488281</ele>
        <time>2022-09-10T11:50:06.000Z</time>
      </trkpt>
      <trkpt lat="43.93925" lon="7.60852">
        <ele>1178.8000488281</ele>
        <time>2022-09-10T11:50:07.000Z</time>
      </trkpt>
      <trkpt lat="43.93924" lon="7.60854">
        <ele>1178.8000488281</ele>
        <time>2022-09-10T11:50:10.000Z</time>
      </trkpt>
      <trkpt lat="43.93923" lon="7.60856">
        <ele>1178.8000488281</ele>
        <time>2022-09-10T11:50:11.000Z</time>
      </trkpt>
      <trkpt lat="43.93924" lon="7.60857">
        <ele>1178.8000488281</ele>
        <time>2022-09-10T11:50:15.000Z</time>
      </trkpt>
      <trkpt lat="43.93923" lon="7.60856">
        <ele>1178.8000488281</ele>
        <time>2022-09-10T11:50:21.000Z</time>
      </trkpt>
      <trkpt lat="43.93921" lon="7.60854">
        <ele>1178.8000488281</ele>
        <time>2022-09-10T11:50:24.000Z</time>
      </trkpt>
      <trkpt lat="43.93922" lon="7.60853">
        <ele>1178.8000488281</ele>
        <time>2022-09-10T11:50:26.000Z</time>
      </trkpt>
      <trkpt lat="43.93922" lon="7.60854">
        <ele>1178.8000488281</ele>
        <time>2022-09-10T11:50:31.000Z</time>
      </trkpt>
      <trkpt lat="43.93922" lon="7.60859">
        <ele>1178.8000488281</ele>
        <time>2022-09-10T11:50:36.000Z</time>
      </trkpt>
      <trkpt lat="43.93922" lon="7.60864">
        <ele>1178.8000488281</ele>
        <time>2022-09-10T11:50:37.000Z</time>
      </trkpt>
      <trkpt lat="43.93925" lon="7.60878">
        <ele>1178.8000488281</ele>
        <time>2022-09-10T11:50:41.000Z</time>
      </trkpt>
      <trkpt lat="43.93924" lon="7.60882">
        <ele>1178.5999755859</ele>
        <time>2022-09-10T11:50:44.000Z</time>
      </trkpt>
      <trkpt lat="43.93924" lon="7.60877">
        <ele>1178.5999755859</ele>
        <time>2022-09-10T11:50:47.000Z</time>
      </trkpt>
      <trkpt lat="43.93924" lon="7.60878">
        <ele>1178.8000488281</ele>
        <time>2022-09-10T11:50:52.000Z</time>
      </trkpt>
      <trkpt lat="43.93923" lon="7.60866">
        <ele>1178.4000244141</ele>
        <time>2022-09-10T11:50:59.000Z</time>
      </trkpt>
      <trkpt lat="43.93923" lon="7.60867">
        <ele>1178.4000244141</ele>
        <time>2022-09-10T11:51:02.000Z</time>
      </trkpt>
      <trkpt lat="43.93922" lon="7.60869">
        <ele>1178.4000244141</ele>
        <time>2022-09-10T11:51:03.000Z</time>
      </trkpt>
      <trkpt lat="43.9392" lon="7.60893">
        <ele>1179</ele>
        <time>2022-09-10T11:51:15.000Z</time>
      </trkpt>
      <trkpt lat="43.93927" lon="7.60887">
        <ele>1178.5999755859</ele>
        <time>2022-09-10T11:51:23.000Z</time>
      </trkpt>
      <trkpt lat="43.93928" lon="7.60879">
        <ele>1178.4000244141</ele>
        <time>2022-09-10T11:51:28.000Z</time>
      </trkpt>
      <trkpt lat="43.93931" lon="7.60871">
        <ele>1178.5999755859</ele>
        <time>2022-09-10T11:51:33.000Z</time>
      </trkpt>
      <trkpt lat="43.93929" lon="7.60867">
        <ele>1178.5999755859</ele>
        <time>2022-09-10T11:51:40.000Z</time>
      </trkpt>
      <trkpt lat="43.93929" lon="7.60874">
        <ele>1178.8000488281</ele>
        <time>2022-09-10T11:51:46.000Z</time>
      </trkpt>
      <trkpt lat="43.9393" lon="7.60882">
        <ele>1178.8000488281</ele>
        <time>2022-09-10T11:51:53.000Z</time>
      </trkpt>
      <trkpt lat="43.93929" lon="7.60878">
        <ele>1179</ele>
        <time>2022-09-10T11:51:59.000Z</time>
      </trkpt>
      <trkpt lat="43.93927" lon="7.6087">
        <ele>1179</ele>
        <time>2022-09-10T11:52:06.000Z</time>
      </trkpt>
      <trkpt lat="43.93928" lon="7.60873">
        <ele>1179</ele>
        <time>2022-09-10T11:52:12.000Z</time>
      </trkpt>
      <trkpt lat="43.93927" lon="7.60869">
        <ele>1179</ele>
        <time>2022-09-10T11:52:14.000Z</time>
      </trkpt>
      <trkpt lat="43.93927" lon="7.60865">
        <ele>1179</ele>
        <time>2022-09-10T11:52:18.000Z</time>
      </trkpt>
      <trkpt lat="43.93927" lon="7.60867">
        <ele>1179</ele>
        <time>2022-09-10T11:52:23.000Z</time>
      </trkpt>
      <trkpt lat="43.93928" lon="7.60873">
        <ele>1179</ele>
        <time>2022-09-10T11:52:26.000Z</time>
      </trkpt>
      <trkpt lat="43.93929" lon="7.60875">
        <ele>1179.1999511719</ele>
        <time>2022-09-10T11:52:29.000Z</time>
      </trkpt>
      <trkpt lat="43.93928" lon="7.60876">
        <ele>1179.1999511719</ele>
        <time>2022-09-10T11:52:34.000Z</time>
      </trkpt>
      <trkpt lat="43.93929" lon="7.60885">
        <ele>1179.1999511719</ele>
        <time>2022-09-10T11:52:40.000Z</time>
      </trkpt>
      <trkpt lat="43.93932" lon="7.60879">
        <ele>1179.5999755859</ele>
        <time>2022-09-10T11:52:46.000Z</time>
      </trkpt>
      <trkpt lat="43.9393" lon="7.60873">
        <ele>1179.5999755859</ele>
        <time>2022-09-10T11:52:49.000Z</time>
      </trkpt>
      <trkpt lat="43.93928" lon="7.60871">
        <ele>1179.8000488281</ele>
        <time>2022-09-10T11:52:50.000Z</time>
      </trkpt>
      <trkpt lat="43.93922" lon="7.60868">
        <ele>1179.8000488281</ele>
        <time>2022-09-10T11:52:53.000Z</time>
      </trkpt>
      <trkpt lat="43.93918" lon="7.60863">
        <ele>1179.8000488281</ele>
        <time>2022-09-10T11:52:55.000Z</time>
      </trkpt>
      <trkpt lat="43.93917" lon="7.6086">
        <ele>1179.8000488281</ele>
        <time>2022-09-10T11:52:59.000Z</time>
      </trkpt>
      <trkpt lat="43.93916" lon="7.60851">
        <ele>1179.8000488281</ele>
        <time>2022-09-10T11:53:05.000Z</time>
      </trkpt>
      <trkpt lat="43.93916" lon="7.60846">
        <ele>1179.8000488281</ele>
        <time>2022-09-10T11:53:07.000Z</time>
      </trkpt>
      <trkpt lat="43.93917" lon="7.60844">
        <ele>1179.8000488281</ele>
        <time>2022-09-10T11:53:11.000Z</time>
      </trkpt>
      <trkpt lat="43.93918" lon="7.60846">
        <ele>1179.8000488281</ele>
        <time>2022-09-10T11:53:12.000Z</time>
      </trkpt>
      <trkpt lat="43.9392" lon="7.6085">
        <ele>1179.8000488281</ele>
        <time>2022-09-10T11:53:16.000Z</time>
      </trkpt>
      <trkpt lat="43.93922" lon="7.60854">
        <ele>1180</ele>
        <time>2022-09-10T11:53:23.000Z</time>
      </trkpt>
      <trkpt lat="43.93922" lon="7.60857">
        <ele>1180</ele>
        <time>2022-09-10T11:53:31.000Z</time>
      </trkpt>
      <trkpt lat="43.93922" lon="7.60861">
        <ele>1180</ele>
        <time>2022-09-10T11:53:37.000Z</time>
      </trkpt>
      <trkpt lat="43.93922" lon="7.60864">
        <ele>1180</ele>
        <time>2022-09-10T11:53:38.000Z</time>
      </trkpt>
      <trkpt lat="43.93921" lon="7.60869">
        <ele>1180</ele>
        <time>2022-09-10T11:53:41.000Z</time>
      </trkpt>
      <trkpt lat="43.93922" lon="7.60873">
        <ele>1180.1999511719</ele>
        <time>2022-09-10T11:53:44.000Z</time>
      </trkpt>
      <trkpt lat="43.93921" lon="7.60873">
        <ele>1180.1999511719</ele>
        <time>2022-09-10T11:53:45.000Z</time>
      </trkpt>
      <trkpt lat="43.93922" lon="7.60872">
        <ele>1180.1999511719</ele>
        <time>2022-09-10T11:53:46.000Z</time>
      </trkpt>
      <trkpt lat="43.93923" lon="7.6087">
        <ele>1180.1999511719</ele>
        <time>2022-09-10T11:53:51.000Z</time>
      </trkpt>
      <trkpt lat="43.93925" lon="7.60872">
        <ele>1180.1999511719</ele>
        <time>2022-09-10T11:53:56.000Z</time>
      </trkpt>
      <trkpt lat="43.93924" lon="7.60862">
        <ele>1180.1999511719</ele>
        <time>2022-09-10T11:54:01.000Z</time>
      </trkpt>
      <trkpt lat="43.93923" lon="7.60859">
        <ele>1180.4000244141</ele>
        <time>2022-09-10T11:54:02.000Z</time>
      </trkpt>
      <trkpt lat="43.93924" lon="7.60855">
        <ele>1180.5999755859</ele>
        <time>2022-09-10T11:54:06.000Z</time>
      </trkpt>
      <trkpt lat="43.93924" lon="7.60852">
        <ele>1181</ele>
        <time>2022-09-10T11:54:14.000Z</time>
      </trkpt>
      <trkpt lat="43.93924" lon="7.60849">
        <ele>1180.4000244141</ele>
        <time>2022-09-10T11:54:19.000Z</time>
      </trkpt>
      <trkpt lat="43.93923" lon="7.60848">
        <ele>1180.4000244141</ele>
        <time>2022-09-10T11:54:26.000Z</time>
      </trkpt>
      <trkpt lat="43.93925" lon="7.60848">
        <ele>1180.5999755859</ele>
        <time>2022-09-10T11:54:35.000Z</time>
      </trkpt>
      <trkpt lat="43.93925" lon="7.60847">
        <ele>1180.8000488281</ele>
        <time>2022-09-10T11:54:41.000Z</time>
      </trkpt>
      <trkpt lat="43.93925" lon="7.60847">
        <ele>1180.4000244141</ele>
        <time>2022-09-10T11:54:47.000Z</time>
      </trkpt>
      <trkpt lat="43.93925" lon="7.60845">
        <ele>1181</ele>
        <time>2022-09-10T11:54:53.000Z</time>
      </trkpt>
      <trkpt lat="43.93922" lon="7.60838">
        <ele>1181.1999511719</ele>
        <time>2022-09-10T11:55:03.000Z</time>
      </trkpt>
      <trkpt lat="43.93922" lon="7.60839">
        <ele>1181.1999511719</ele>
        <time>2022-09-10T11:55:08.000Z</time>
      </trkpt>
      <trkpt lat="43.93921" lon="7.60837">
        <ele>1181.1999511719</ele>
        <time>2022-09-10T11:55:19.000Z</time>
      </trkpt>
      <trkpt lat="43.93921" lon="7.60836">
        <ele>1181</ele>
        <time>2022-09-10T11:55:28.000Z</time>
      </trkpt>
      <trkpt lat="43.93921" lon="7.60837">
        <ele>1181.1999511719</ele>
        <time>2022-09-10T11:55:34.000Z</time>
      </trkpt>
      <trkpt lat="43.93921" lon="7.60839">
        <ele>1181.1999511719</ele>
        <time>2022-09-10T11:55:41.000Z</time>
      </trkpt>
      <trkpt lat="43.93921" lon="7.60838">
        <ele>1181.1999511719</ele>
        <time>2022-09-10T11:55:47.000Z</time>
      </trkpt>
      <trkpt lat="43.93921" lon="7.60837">
        <ele>1181.1999511719</ele>
        <time>2022-09-10T11:55:48.000Z</time>
      </trkpt>
      <trkpt lat="43.93921" lon="7.60837">
        <ele>1181.1999511719</ele>
        <time>2022-09-10T11:55:52.000Z</time>
      </trkpt>
      <trkpt lat="43.93922" lon="7.60839">
        <ele>1181.1999511719</ele>
        <time>2022-09-10T11:55:57.000Z</time>
      </trkpt>
      <trkpt lat="43.93923" lon="7.60837">
        <ele>1181.1999511719</ele>
        <time>2022-09-10T11:56:02.000Z</time>
      </trkpt>
      <trkpt lat="43.93924" lon="7.60839">
        <ele>1181.1999511719</ele>
        <time>2022-09-10T11:56:04.000Z</time>
      </trkpt>
      <trkpt lat="43.93927" lon="7.60843">
        <ele>1181.1999511719</ele>
        <time>2022-09-10T11:56:08.000Z</time>
      </trkpt>
      <trkpt lat="43.93928" lon="7.60845">
        <ele>1181.1999511719</ele>
        <time>2022-09-10T11:56:11.000Z</time>
      </trkpt>
      <trkpt lat="43.93928" lon="7.60847">
        <ele>1181.1999511719</ele>
        <time>2022-09-10T11:56:17.000Z</time>
      </trkpt>
      <trkpt lat="43.93927" lon="7.6085">
        <ele>1181.1999511719</ele>
        <time>2022-09-10T11:56:22.000Z</time>
      </trkpt>
      <trkpt lat="43.93928" lon="7.60857">
        <ele>1181.1999511719</ele>
        <time>2022-09-10T11:56:29.000Z</time>
      </trkpt>
      <trkpt lat="43.93928" lon="7.60862">
        <ele>1181.1999511719</ele>
        <time>2022-09-10T11:56:35.000Z</time>
      </trkpt>
      <trkpt lat="43.93929" lon="7.60861">
        <ele>1181.4000244141</ele>
        <time>2022-09-10T11:56:38.000Z</time>
      </trkpt>
      <trkpt lat="43.93929" lon="7.60862">
        <ele>1181.5999755859</ele>
        <time>2022-09-10T11:56:39.000Z</time>
      </trkpt>
      <trkpt lat="43.93931" lon="7.60863">
        <ele>1181.5999755859</ele>
        <time>2022-09-10T11:56:40.000Z</time>
      </trkpt>
      <trkpt lat="43.93931" lon="7.6086">
        <ele>1181.4000244141</ele>
        <time>2022-09-10T11:56:43.000Z</time>
      </trkpt>
      <trkpt lat="43.93929" lon="7.60859">
        <ele>1181.4000244141</ele>
        <time>2022-09-10T11:56:46.000Z</time>
      </trkpt>
      <trkpt lat="43.93926" lon="7.60857">
        <ele>1181.4000244141</ele>
        <time>2022-09-10T11:56:48.000Z</time>
      </trkpt>
      <trkpt lat="43.93929" lon="7.60862">
        <ele>1181.5999755859</ele>
        <time>2022-09-10T11:56:53.000Z</time>
      </trkpt>
      <trkpt lat="43.93928" lon="7.60855">
        <ele>1182</ele>
        <time>2022-09-10T11:57:00.000Z</time>
      </trkpt>
      <trkpt lat="43.93927" lon="7.60851">
        <ele>1181.1999511719</ele>
        <time>2022-09-10T11:57:07.000Z</time>
      </trkpt>
      <trkpt lat="43.93927" lon="7.60838">
        <ele>1181.5999755859</ele>
        <time>2022-09-10T11:57:13.000Z</time>
      </trkpt>
      <trkpt lat="43.93926" lon="7.60834">
        <ele>1181.8000488281</ele>
        <time>2022-09-10T11:57:19.000Z</time>
      </trkpt>
      <trkpt lat="43.93926" lon="7.60842">
        <ele>1181.8000488281</ele>
        <time>2022-09-10T11:57:25.000Z</time>
      </trkpt>
      <trkpt lat="43.93926" lon="7.60851">
        <ele>1182</ele>
        <time>2022-09-10T11:57:31.000Z</time>
      </trkpt>
      <trkpt lat="43.93927" lon="7.60856">
        <ele>1181.8000488281</ele>
        <time>2022-09-10T11:57:39.000Z</time>
      </trkpt>
      <trkpt lat="43.93925" lon="7.60858">
        <ele>1181.5999755859</ele>
        <time>2022-09-10T11:57:51.000Z</time>
      </trkpt>
      <trkpt lat="43.93925" lon="7.6086">
        <ele>1181.5999755859</ele>
        <time>2022-09-10T11:58:02.000Z</time>
      </trkpt>
      <trkpt lat="43.93923" lon="7.6086">
        <ele>1181.8000488281</ele>
        <time>2022-09-10T11:58:10.000Z</time>
      </trkpt>
      <trkpt lat="43.93922" lon="7.60862">
        <ele>1182</ele>
        <time>2022-09-10T11:58:17.000Z</time>
      </trkpt>
      <trkpt lat="43.93922" lon="7.60858">
        <ele>1182</ele>
        <time>2022-09-10T11:58:22.000Z</time>
      </trkpt>
      <trkpt lat="43.93924" lon="7.60856">
        <ele>1182</ele>
        <time>2022-09-10T11:58:27.000Z</time>
      </trkpt>
      <trkpt lat="43.93923" lon="7.60851">
        <ele>1182</ele>
        <time>2022-09-10T11:58:30.000Z</time>
      </trkpt>
      <trkpt lat="43.93923" lon="7.60851">
        <ele>1182</ele>
        <time>2022-09-10T11:58:32.000Z</time>
      </trkpt>
      <trkpt lat="43.93922" lon="7.60852">
        <ele>1181.8000488281</ele>
        <time>2022-09-10T11:58:37.000Z</time>
      </trkpt>
      <trkpt lat="43.93921" lon="7.60855">
        <ele>1181.5999755859</ele>
        <time>2022-09-10T11:58:44.000Z</time>
      </trkpt>
      <trkpt lat="43.93922" lon="7.60857">
        <ele>1182</ele>
        <time>2022-09-10T11:58:49.000Z</time>
      </trkpt>
      <trkpt lat="43.93921" lon="7.60856">
        <ele>1182</ele>
        <time>2022-09-10T11:58:55.000Z</time>
      </trkpt>
      <trkpt lat="43.9392" lon="7.60855">
        <ele>1182</ele>
        <time>2022-09-10T11:59:00.000Z</time>
      </trkpt>
      <trkpt lat="43.93919" lon="7.60855">
        <ele>1182</ele>
        <time>2022-09-10T11:59:01.000Z</time>
      </trkpt>
      <trkpt lat="43.93919" lon="7.60853">
        <ele>1181.8000488281</ele>
        <time>2022-09-10T11:59:05.000Z</time>
      </trkpt>
      <trkpt lat="43.93921" lon="7.60858">
        <ele>1181.8000488281</ele>
        <time>2022-09-10T11:59:11.000Z</time>
      </trkpt>
      <trkpt lat="43.93922" lon="7.60857">
        <ele>1181.8000488281</ele>
        <time>2022-09-10T11:59:17.000Z</time>
      </trkpt>
      <trkpt lat="43.93921" lon="7.60856">
        <ele>1181.8000488281</ele>
        <time>2022-09-10T11:59:18.000Z</time>
      </trkpt>
      <trkpt lat="43.93923" lon="7.60858">
        <ele>1182.1999511719</ele>
        <time>2022-09-10T11:59:22.000Z</time>
      </trkpt>
      <trkpt lat="43.93923" lon="7.60858">
        <ele>1182.4000244141</ele>
        <time>2022-09-10T11:59:24.000Z</time>
      </trkpt>
      <trkpt lat="43.93923" lon="7.60854">
        <ele>1182.4000244141</ele>
        <time>2022-09-10T11:59:29.000Z</time>
      </trkpt>
      <trkpt lat="43.93925" lon="7.60859">
        <ele>1182.1999511719</ele>
        <time>2022-09-10T11:59:34.000Z</time>
      </trkpt>
      <trkpt lat="43.93925" lon="7.6086">
        <ele>1182</ele>
        <time>2022-09-10T11:59:35.000Z</time>
      </trkpt>
      <trkpt lat="43.93925" lon="7.60858">
        <ele>1181.8000488281</ele>
        <time>2022-09-10T11:59:40.000Z</time>
      </trkpt>
      <trkpt lat="43.93925" lon="7.60856">
        <ele>1182</ele>
        <time>2022-09-10T11:59:45.000Z</time>
      </trkpt>
      <trkpt lat="43.93924" lon="7.6086">
        <ele>1181.8000488281</ele>
        <time>2022-09-10T11:59:50.000Z</time>
      </trkpt>
      <trkpt lat="43.93924" lon="7.60859">
        <ele>1182</ele>
        <time>2022-09-10T11:59:51.000Z</time>
      </trkpt>
      <trkpt lat="43.93925" lon="7.60861">
        <ele>1181.8000488281</ele>
        <time>2022-09-10T11:59:57.000Z</time>
      </trkpt>
      <trkpt lat="43.93925" lon="7.6086">
        <ele>1181.8000488281</ele>
        <time>2022-09-10T12:00:03.000Z</time>
      </trkpt>
      <trkpt lat="43.93925" lon="7.6086">
        <ele>1182</ele>
        <time>2022-09-10T12:00:08.000Z</time>
      </trkpt>
      <trkpt lat="43.93926" lon="7.60867">
        <ele>1181.5999755859</ele>
        <time>2022-09-10T12:00:14.000Z</time>
      </trkpt>
      <trkpt lat="43.93927" lon="7.60868">
        <ele>1181.4000244141</ele>
        <time>2022-09-10T12:00:15.000Z</time>
      </trkpt>
      <trkpt lat="43.93932" lon="7.60868">
        <ele>1181.5999755859</ele>
        <time>2022-09-10T12:00:18.000Z</time>
      </trkpt>
      <trkpt lat="43.93933" lon="7.60868">
        <ele>1181.5999755859</ele>
        <time>2022-09-10T12:00:19.000Z</time>
      </trkpt>
      <trkpt lat="43.9393" lon="7.60866">
        <ele>1181.5999755859</ele>
        <time>2022-09-10T12:00:22.000Z</time>
      </trkpt>
      <trkpt lat="43.9393" lon="7.60869">
        <ele>1181.5999755859</ele>
        <time>2022-09-10T12:00:28.000Z</time>
      </trkpt>
      <trkpt lat="43.93928" lon="7.6087">
        <ele>1181.8000488281</ele>
        <time>2022-09-10T12:00:33.000Z</time>
      </trkpt>
      <trkpt lat="43.93928" lon="7.60872">
        <ele>1181.5999755859</ele>
        <time>2022-09-10T12:00:34.000Z</time>
      </trkpt>
      <trkpt lat="43.93927" lon="7.60878">
        <ele>1181.5999755859</ele>
        <time>2022-09-10T12:00:37.000Z</time>
      </trkpt>
      <trkpt lat="43.93925" lon="7.60879">
        <ele>1181.5999755859</ele>
        <time>2022-09-10T12:00:42.000Z</time>
      </trkpt>
      <trkpt lat="43.93928" lon="7.60876">
        <ele>1181.8000488281</ele>
        <time>2022-09-10T12:00:49.000Z</time>
      </trkpt>
      <trkpt lat="43.93927" lon="7.60871">
        <ele>1182</ele>
        <time>2022-09-10T12:00:56.000Z</time>
      </trkpt>
      <trkpt lat="43.93927" lon="7.60867">
        <ele>1182</ele>
        <time>2022-09-10T12:01:02.000Z</time>
      </trkpt>
      <trkpt lat="43.93926" lon="7.60863">
        <ele>1182</ele>
        <time>2022-09-10T12:01:07.000Z</time>
      </trkpt>
      <trkpt lat="43.93926" lon="7.60864">
        <ele>1182.4000244141</ele>
        <time>2022-09-10T12:01:15.000Z</time>
      </trkpt>
      <trkpt lat="43.93926" lon="7.60867">
        <ele>1182</ele>
        <time>2022-09-10T12:01:22.000Z</time>
      </trkpt>
      <trkpt lat="43.93926" lon="7.60872">
        <ele>1182</ele>
        <time>2022-09-10T12:01:30.000Z</time>
      </trkpt>
      <trkpt lat="43.93925" lon="7.60871">
        <ele>1182.1999511719</ele>
        <time>2022-09-10T12:01:36.000Z</time>
      </trkpt>
      <trkpt lat="43.93923" lon="7.60869">
        <ele>1182</ele>
        <time>2022-09-10T12:01:39.000Z</time>
      </trkpt>
      <trkpt lat="43.93922" lon="7.60868">
        <ele>1182.1999511719</ele>
        <time>2022-09-10T12:01:42.000Z</time>
      </trkpt>
      <trkpt lat="43.93922" lon="7.60864">
        <ele>1182.1999511719</ele>
        <time>2022-09-10T12:01:48.000Z</time>
      </trkpt>
      <trkpt lat="43.9392" lon="7.60862">
        <ele>1182.1999511719</ele>
        <time>2022-09-10T12:01:54.000Z</time>
      </trkpt>
      <trkpt lat="43.93921" lon="7.60862">
        <ele>1182.5999755859</ele>
        <time>2022-09-10T12:02:01.000Z</time>
      </trkpt>
      <trkpt lat="43.93922" lon="7.60861">
        <ele>1182.5999755859</ele>
        <time>2022-09-10T12:02:07.000Z</time>
      </trkpt>
      <trkpt lat="43.93923" lon="7.60867">
        <ele>1182.4000244141</ele>
        <time>2022-09-10T12:02:10.000Z</time>
      </trkpt>
      <trkpt lat="43.93924" lon="7.60872">
        <ele>1182.4000244141</ele>
        <time>2022-09-10T12:02:12.000Z</time>
      </trkpt>
      <trkpt lat="43.93925" lon="7.6088">
        <ele>1182.5999755859</ele>
        <time>2022-09-10T12:02:18.000Z</time>
      </trkpt>
      <trkpt lat="43.93923" lon="7.6087">
        <ele>1182.4000244141</ele>
        <time>2022-09-10T12:02:25.000Z</time>
      </trkpt>
      <trkpt lat="43.93924" lon="7.60867">
        <ele>1182.4000244141</ele>
        <time>2022-09-10T12:02:31.000Z</time>
      </trkpt>
      <trkpt lat="43.93925" lon="7.60864">
        <ele>1182.4000244141</ele>
        <time>2022-09-10T12:02:37.000Z</time>
      </trkpt>
      <trkpt lat="43.93926" lon="7.60864">
        <ele>1182.8000488281</ele>
        <time>2022-09-10T12:02:43.000Z</time>
      </trkpt>
      <trkpt lat="43.93927" lon="7.60866">
        <ele>1182.8000488281</ele>
        <time>2022-09-10T12:02:45.000Z</time>
      </trkpt>
      <trkpt lat="43.93926" lon="7.60868">
        <ele>1182.5999755859</ele>
        <time>2022-09-10T12:02:48.000Z</time>
      </trkpt>
      <trkpt lat="43.93927" lon="7.60871">
        <ele>1182.8000488281</ele>
        <time>2022-09-10T12:02:55.000Z</time>
      </trkpt>
      <trkpt lat="43.93926" lon="7.60868">
        <ele>1182.8000488281</ele>
        <time>2022-09-10T12:03:01.000Z</time>
      </trkpt>
      <trkpt lat="43.93925" lon="7.60865">
        <ele>1182.4000244141</ele>
        <time>2022-09-10T12:03:07.000Z</time>
      </trkpt>
      <trkpt lat="43.93924" lon="7.60864">
        <ele>1182.5999755859</ele>
        <time>2022-09-10T12:03:14.000Z</time>
      </trkpt>
      <trkpt lat="43.93923" lon="7.60866">
        <ele>1182.4000244141</ele>
        <time>2022-09-10T12:03:20.000Z</time>
      </trkpt>
      <trkpt lat="43.93923" lon="7.60864">
        <ele>1182.4000244141</ele>
        <time>2022-09-10T12:03:22.000Z</time>
      </trkpt>
      <trkpt lat="43.9392" lon="7.60863">
        <ele>1182.1999511719</ele>
        <time>2022-09-10T12:03:25.000Z</time>
      </trkpt>
      <trkpt lat="43.93921" lon="7.60859">
        <ele>1182.1999511719</ele>
        <time>2022-09-10T12:03:28.000Z</time>
      </trkpt>
      <trkpt lat="43.93921" lon="7.60858">
        <ele>1182.4000244141</ele>
        <time>2022-09-10T12:03:30.000Z</time>
      </trkpt>
      <trkpt lat="43.93921" lon="7.60861">
        <ele>1182.4000244141</ele>
        <time>2022-09-10T12:03:35.000Z</time>
      </trkpt>
      <trkpt lat="43.9392" lon="7.60858">
        <ele>1182.4000244141</ele>
        <time>2022-09-10T12:03:39.000Z</time>
      </trkpt>
      <trkpt lat="43.9392" lon="7.60861">
        <ele>1182.4000244141</ele>
        <time>2022-09-10T12:03:44.000Z</time>
      </trkpt>
      <trkpt lat="43.9392" lon="7.60864">
        <ele>1182.5999755859</ele>
        <time>2022-09-10T12:03:50.000Z</time>
      </trkpt>
      <trkpt lat="43.93921" lon="7.60839">
        <ele>1183</ele>
        <time>2022-09-10T12:03:53.000Z</time>
      </trkpt>
      <trkpt lat="43.93921" lon="7.6084">
        <ele>1183.1999511719</ele>
        <time>2022-09-10T12:03:56.000Z</time>
      </trkpt>
      <trkpt lat="43.9392" lon="7.60853">
        <ele>1182.8000488281</ele>
        <time>2022-09-10T12:04:02.000Z</time>
      </trkpt>
      <trkpt lat="43.9392" lon="7.60855">
        <ele>1182.5999755859</ele>
        <time>2022-09-10T12:04:08.000Z</time>
      </trkpt>
      <trkpt lat="43.93921" lon="7.60859">
        <ele>1182.8000488281</ele>
        <time>2022-09-10T12:04:14.000Z</time>
      </trkpt>
      <trkpt lat="43.93921" lon="7.60859">
        <ele>1182.8000488281</ele>
        <time>2022-09-10T12:04:20.000Z</time>
      </trkpt>
      <trkpt lat="43.93918" lon="7.6086">
        <ele>1182.8000488281</ele>
        <time>2022-09-10T12:04:27.000Z</time>
      </trkpt>
      <trkpt lat="43.9392" lon="7.6086">
        <ele>1182.8000488281</ele>
        <time>2022-09-10T12:04:29.000Z</time>
      </trkpt>
      <trkpt lat="43.93921" lon="7.6086">
        <ele>1182.8000488281</ele>
        <time>2022-09-10T12:04:31.000Z</time>
      </trkpt>
      <trkpt lat="43.93928" lon="7.6086">
        <ele>1182.8000488281</ele>
        <time>2022-09-10T12:04:36.000Z</time>
      </trkpt>
      <trkpt lat="43.93929" lon="7.60861">
        <ele>1182.5999755859</ele>
        <time>2022-09-10T12:04:42.000Z</time>
      </trkpt>
      <trkpt lat="43.9393" lon="7.60861">
        <ele>1182.8000488281</ele>
        <time>2022-09-10T12:04:50.000Z</time>
      </trkpt>
      <trkpt lat="43.93932" lon="7.60863">
        <ele>1182.5999755859</ele>
        <time>2022-09-10T12:04:56.000Z</time>
      </trkpt>
      <trkpt lat="43.93932" lon="7.60864">
        <ele>1182.5999755859</ele>
        <time>2022-09-10T12:05:01.000Z</time>
      </trkpt>
      <trkpt lat="43.93931" lon="7.60861">
        <ele>1182.8000488281</ele>
        <time>2022-09-10T12:05:06.000Z</time>
      </trkpt>
      <trkpt lat="43.93931" lon="7.6086">
        <ele>1182.8000488281</ele>
        <time>2022-09-10T12:05:11.000Z</time>
      </trkpt>
      <trkpt lat="43.93929" lon="7.60861">
        <ele>1182.8000488281</ele>
        <time>2022-09-10T12:05:14.000Z</time>
      </trkpt>
      <trkpt lat="43.93929" lon="7.60861">
        <ele>1182.8000488281</ele>
        <time>2022-09-10T12:05:16.000Z</time>
      </trkpt>
      <trkpt lat="43.93927" lon="7.6086">
        <ele>1182.8000488281</ele>
        <time>2022-09-10T12:05:22.000Z</time>
      </trkpt>
      <trkpt lat="43.93927" lon="7.60857">
        <ele>1182.8000488281</ele>
        <time>2022-09-10T12:05:32.000Z</time>
      </trkpt>
      <trkpt lat="43.93927" lon="7.60855">
        <ele>1182.8000488281</ele>
        <time>2022-09-10T12:05:37.000Z</time>
      </trkpt>
      <trkpt lat="43.93927" lon="7.60852">
        <ele>1183</ele>
        <time>2022-09-10T12:05:40.000Z</time>
      </trkpt>
      <trkpt lat="43.93927" lon="7.6085">
        <ele>1183</ele>
        <time>2022-09-10T12:05:43.000Z</time>
      </trkpt>
      <trkpt lat="43.93928" lon="7.60856">
        <ele>1183</ele>
        <time>2022-09-10T12:05:49.000Z</time>
      </trkpt>
      <trkpt lat="43.93928" lon="7.60871">
        <ele>1183</ele>
        <time>2022-09-10T12:05:57.000Z</time>
      </trkpt>
      <trkpt lat="43.93928" lon="7.60865">
        <ele>1183</ele>
        <time>2022-09-10T12:06:04.000Z</time>
      </trkpt>
      <trkpt lat="43.93928" lon="7.60862">
        <ele>1183.1999511719</ele>
        <time>2022-09-10T12:06:12.000Z</time>
      </trkpt>
      <trkpt lat="43.93928" lon="7.60864">
        <ele>1183.1999511719</ele>
        <time>2022-09-10T12:06:22.000Z</time>
      </trkpt>
      <trkpt lat="43.93929" lon="7.60859">
        <ele>1183.4000244141</ele>
        <time>2022-09-10T12:06:31.000Z</time>
      </trkpt>
      <trkpt lat="43.93929" lon="7.60859">
        <ele>1183.4000244141</ele>
        <time>2022-09-10T12:06:32.000Z</time>
      </trkpt>
      <trkpt lat="43.93931" lon="7.6086">
        <ele>1183.4000244141</ele>
        <time>2022-09-10T12:06:38.000Z</time>
      </trkpt>
      <trkpt lat="43.9393" lon="7.60858">
        <ele>1183.4000244141</ele>
        <time>2022-09-10T12:06:41.000Z</time>
      </trkpt>
      <trkpt lat="43.93929" lon="7.60858">
        <ele>1183.4000244141</ele>
        <time>2022-09-10T12:06:44.000Z</time>
      </trkpt>
      <trkpt lat="43.93929" lon="7.60859">
        <ele>1183.4000244141</ele>
        <time>2022-09-10T12:06:50.000Z</time>
      </trkpt>
      <trkpt lat="43.9393" lon="7.60861">
        <ele>1183.5999755859</ele>
        <time>2022-09-10T12:06:55.000Z</time>
      </trkpt>
      <trkpt lat="43.93929" lon="7.60858">
        <ele>1183.4000244141</ele>
        <time>2022-09-10T12:07:01.000Z</time>
      </trkpt>
      <trkpt lat="43.93929" lon="7.60858">
        <ele>1183.5999755859</ele>
        <time>2022-09-10T12:07:06.000Z</time>
      </trkpt>
      <trkpt lat="43.93929" lon="7.60859">
        <ele>1183.8000488281</ele>
        <time>2022-09-10T12:07:13.000Z</time>
      </trkpt>
      <trkpt lat="43.9393" lon="7.60858">
        <ele>1183.5999755859</ele>
        <time>2022-09-10T12:07:21.000Z</time>
      </trkpt>
      <trkpt lat="43.93929" lon="7.60857">
        <ele>1183.5999755859</ele>
        <time>2022-09-10T12:07:27.000Z</time>
      </trkpt>
      <trkpt lat="43.93928" lon="7.60855">
        <ele>1183.8000488281</ele>
        <time>2022-09-10T12:07:32.000Z</time>
      </trkpt>
      <trkpt lat="43.93927" lon="7.60851">
        <ele>1184</ele>
        <time>2022-09-10T12:07:37.000Z</time>
      </trkpt>
      <trkpt lat="43.93928" lon="7.60852">
        <ele>1183.8000488281</ele>
        <time>2022-09-10T12:07:42.000Z</time>
      </trkpt>
      <trkpt lat="43.93928" lon="7.60853">
        <ele>1183.8000488281</ele>
        <time>2022-09-10T12:07:47.000Z</time>
      </trkpt>
      <trkpt lat="43.93929" lon="7.60856">
        <ele>1184.1999511719</ele>
        <time>2022-09-10T12:07:53.000Z</time>
      </trkpt>
      <trkpt lat="43.9393" lon="7.60859">
        <ele>1184</ele>
        <time>2022-09-10T12:07:55.000Z</time>
      </trkpt>
      <trkpt lat="43.93931" lon="7.60862">
        <ele>1183.8000488281</ele>
        <time>2022-09-10T12:07:58.000Z</time>
      </trkpt>
      <trkpt lat="43.93929" lon="7.60865">
        <ele>1183.5999755859</ele>
        <time>2022-09-10T12:08:04.000Z</time>
      </trkpt>
      <trkpt lat="43.93927" lon="7.60864">
        <ele>1183.5999755859</ele>
        <time>2022-09-10T12:08:13.000Z</time>
      </trkpt>
      <trkpt lat="43.93927" lon="7.60862">
        <ele>1183.5999755859</ele>
        <time>2022-09-10T12:08:18.000Z</time>
      </trkpt>
      <trkpt lat="43.93927" lon="7.60863">
        <ele>1183.5999755859</ele>
        <time>2022-09-10T12:08:19.000Z</time>
      </trkpt>
      <trkpt lat="43.93925" lon="7.60862">
        <ele>1183.5999755859</ele>
        <time>2022-09-10T12:08:25.000Z</time>
      </trkpt>
      <trkpt lat="43.93925" lon="7.60865">
        <ele>1183.8000488281</ele>
        <time>2022-09-10T12:08:31.000Z</time>
      </trkpt>
      <trkpt lat="43.93926" lon="7.60868">
        <ele>1183.8000488281</ele>
        <time>2022-09-10T12:08:39.000Z</time>
      </trkpt>
      <trkpt lat="43.93924" lon="7.60871">
        <ele>1183.8000488281</ele>
        <time>2022-09-10T12:08:46.000Z</time>
      </trkpt>
      <trkpt lat="43.93923" lon="7.60875">
        <ele>1183.5999755859</ele>
        <time>2022-09-10T12:08:52.000Z</time>
      </trkpt>
      <trkpt lat="43.93922" lon="7.60874">
        <ele>1183.5999755859</ele>
        <time>2022-09-10T12:09:00.000Z</time>
      </trkpt>
      <trkpt lat="43.93922" lon="7.60872">
        <ele>1183.5999755859</ele>
        <time>2022-09-10T12:09:06.000Z</time>
      </trkpt>
      <trkpt lat="43.93922" lon="7.6087">
        <ele>1183.4000244141</ele>
        <time>2022-09-10T12:09:13.000Z</time>
      </trkpt>
      <trkpt lat="43.93922" lon="7.60872">
        <ele>1183.4000244141</ele>
        <time>2022-09-10T12:09:21.000Z</time>
      </trkpt>
      <trkpt lat="43.93922" lon="7.60873">
        <ele>1183.4000244141</ele>
        <time>2022-09-10T12:09:26.000Z</time>
      </trkpt>
      <trkpt lat="43.93922" lon="7.60875">
        <ele>1183.4000244141</ele>
        <time>2022-09-10T12:09:31.000Z</time>
      </trkpt>
      <trkpt lat="43.93925" lon="7.60871">
        <ele>1183.5999755859</ele>
        <time>2022-09-10T12:09:37.000Z</time>
      </trkpt>
      <trkpt lat="43.93926" lon="7.60869">
        <ele>1183.5999755859</ele>
        <time>2022-09-10T12:09:43.000Z</time>
      </trkpt>
      <trkpt lat="43.93927" lon="7.60869">
        <ele>1183.8000488281</ele>
        <time>2022-09-10T12:09:50.000Z</time>
      </trkpt>
      <trkpt lat="43.93928" lon="7.60865">
        <ele>1183.5999755859</ele>
        <time>2022-09-10T12:09:59.000Z</time>
      </trkpt>
      <trkpt lat="43.93928" lon="7.60865">
        <ele>1183.5999755859</ele>
        <time>2022-09-10T12:10:06.000Z</time>
      </trkpt>
      <trkpt lat="43.93928" lon="7.60866">
        <ele>1183.5999755859</ele>
        <time>2022-09-10T12:10:12.000Z</time>
      </trkpt>
      <trkpt lat="43.93928" lon="7.60866">
        <ele>1183.5999755859</ele>
        <time>2022-09-10T12:10:20.000Z</time>
      </trkpt>
      <trkpt lat="43.93926" lon="7.60864">
        <ele>1183.8000488281</ele>
        <time>2022-09-10T12:10:28.000Z</time>
      </trkpt>
      <trkpt lat="43.93925" lon="7.60864">
        <ele>1183.8000488281</ele>
        <time>2022-09-10T12:10:36.000Z</time>
      </trkpt>
      <trkpt lat="43.93927" lon="7.60867">
        <ele>1183.5999755859</ele>
        <time>2022-09-10T12:10:43.000Z</time>
      </trkpt>
      <trkpt lat="43.93927" lon="7.60869">
        <ele>1183.5999755859</ele>
        <time>2022-09-10T12:10:48.000Z</time>
      </trkpt>
      <trkpt lat="43.93927" lon="7.60866">
        <ele>1183.8000488281</ele>
        <time>2022-09-10T12:10:55.000Z</time>
      </trkpt>
      <trkpt lat="43.93931" lon="7.60858">
        <ele>1183.8000488281</ele>
        <time>2022-09-10T12:11:02.000Z</time>
      </trkpt>
      <trkpt lat="43.93934" lon="7.60862">
        <ele>1184</ele>
        <time>2022-09-10T12:11:07.000Z</time>
      </trkpt>
      <trkpt lat="43.93933" lon="7.60859">
        <ele>1183.8000488281</ele>
        <time>2022-09-10T12:11:15.000Z</time>
      </trkpt>
      <trkpt lat="43.93931" lon="7.60855">
        <ele>1184</ele>
        <time>2022-09-10T12:11:21.000Z</time>
      </trkpt>
      <trkpt lat="43.93931" lon="7.60857">
        <ele>1184.1999511719</ele>
        <time>2022-09-10T12:11:27.000Z</time>
      </trkpt>
      <trkpt lat="43.9393" lon="7.60854">
        <ele>1183.8000488281</ele>
        <time>2022-09-10T12:11:34.000Z</time>
      </trkpt>
      <trkpt lat="43.93928" lon="7.60851">
        <ele>1183.5999755859</ele>
        <time>2022-09-10T12:11:41.000Z</time>
      </trkpt>
      <trkpt lat="43.93928" lon="7.60845">
        <ele>1183.5999755859</ele>
        <time>2022-09-10T12:11:49.000Z</time>
      </trkpt>
      <trkpt lat="43.93926" lon="7.60844">
        <ele>1183.5999755859</ele>
        <time>2022-09-10T12:11:54.000Z</time>
      </trkpt>
      <trkpt lat="43.93926" lon="7.60845">
        <ele>1183.8000488281</ele>
        <time>2022-09-10T12:12:00.000Z</time>
      </trkpt>
      <trkpt lat="43.93925" lon="7.60851">
        <ele>1184</ele>
        <time>2022-09-10T12:12:07.000Z</time>
      </trkpt>
      <trkpt lat="43.93924" lon="7.60848">
        <ele>1183.5999755859</ele>
        <time>2022-09-10T12:12:13.000Z</time>
      </trkpt>
      <trkpt lat="43.93923" lon="7.60844">
        <ele>1183.5999755859</ele>
        <time>2022-09-10T12:12:19.000Z</time>
      </trkpt>
      <trkpt lat="43.93922" lon="7.60846">
        <ele>1183.5999755859</ele>
        <time>2022-09-10T12:12:25.000Z</time>
      </trkpt>
      <trkpt lat="43.93922" lon="7.60852">
        <ele>1183.8000488281</ele>
        <time>2022-09-10T12:12:32.000Z</time>
      </trkpt>
      <trkpt lat="43.93919" lon="7.60851">
        <ele>1183.5999755859</ele>
        <time>2022-09-10T12:12:37.000Z</time>
      </trkpt>
      <trkpt lat="43.93919" lon="7.60849">
        <ele>1183.5999755859</ele>
        <time>2022-09-10T12:12:40.000Z</time>
      </trkpt>
      <trkpt lat="43.9392" lon="7.60848">
        <ele>1183.5999755859</ele>
        <time>2022-09-10T12:12:41.000Z</time>
      </trkpt>
      <trkpt lat="43.9392" lon="7.60847">
        <ele>1183.8000488281</ele>
        <time>2022-09-10T12:12:47.000Z</time>
      </trkpt>
      <trkpt lat="43.93921" lon="7.60852">
        <ele>1183.8000488281</ele>
        <time>2022-09-10T12:12:54.000Z</time>
      </trkpt>
      <trkpt lat="43.93922" lon="7.6085">
        <ele>1183.8000488281</ele>
        <time>2022-09-10T12:12:59.000Z</time>
      </trkpt>
      <trkpt lat="43.93924" lon="7.60849">
        <ele>1183.8000488281</ele>
        <time>2022-09-10T12:13:00.000Z</time>
      </trkpt>
      <trkpt lat="43.93928" lon="7.60846">
        <ele>1183.5999755859</ele>
        <time>2022-09-10T12:13:04.000Z</time>
      </trkpt>
      <trkpt lat="43.93927" lon="7.60846">
        <ele>1183.5999755859</ele>
        <time>2022-09-10T12:13:05.000Z</time>
      </trkpt>
      <trkpt lat="43.93925" lon="7.60852">
        <ele>1183.8000488281</ele>
        <time>2022-09-10T12:13:09.000Z</time>
      </trkpt>
      <trkpt lat="43.93924" lon="7.60856">
        <ele>1183.5999755859</ele>
        <time>2022-09-10T12:13:11.000Z</time>
      </trkpt>
      <trkpt lat="43.93932" lon="7.60875">
        <ele>1183.5999755859</ele>
        <time>2022-09-10T12:13:20.000Z</time>
      </trkpt>
      <trkpt lat="43.93927" lon="7.60872">
        <ele>1183.5999755859</ele>
        <time>2022-09-10T12:13:25.000Z</time>
      </trkpt>
      <trkpt lat="43.93925" lon="7.60876">
        <ele>1183.5999755859</ele>
        <time>2022-09-10T12:13:27.000Z</time>
      </trkpt>
      <trkpt lat="43.93923" lon="7.60879">
        <ele>1183.8000488281</ele>
        <time>2022-09-10T12:13:30.000Z</time>
      </trkpt>
      <trkpt lat="43.93922" lon="7.60865">
        <ele>1184.1999511719</ele>
        <time>2022-09-10T12:13:36.000Z</time>
      </trkpt>
      <trkpt lat="43.93923" lon="7.60864">
        <ele>1184.1999511719</ele>
        <time>2022-09-10T12:13:42.000Z</time>
      </trkpt>
      <trkpt lat="43.9392" lon="7.6087">
        <ele>1184</ele>
        <time>2022-09-10T12:13:48.000Z</time>
      </trkpt>
      <trkpt lat="43.9392" lon="7.60868">
        <ele>1184</ele>
        <time>2022-09-10T12:13:49.000Z</time>
      </trkpt>
      <trkpt lat="43.9392" lon="7.60864">
        <ele>1183.8000488281</ele>
        <time>2022-09-10T12:13:53.000Z</time>
      </trkpt>
      <trkpt lat="43.93922" lon="7.60863">
        <ele>1184.1999511719</ele>
        <time>2022-09-10T12:14:01.000Z</time>
      </trkpt>
      <trkpt lat="43.93925" lon="7.6086">
        <ele>1184.1999511719</ele>
        <time>2022-09-10T12:14:07.000Z</time>
      </trkpt>
      <trkpt lat="43.93928" lon="7.60854">
        <ele>1184.5999755859</ele>
        <time>2022-09-10T12:14:12.000Z</time>
      </trkpt>
      <trkpt lat="43.93928" lon="7.6085">
        <ele>1185</ele>
        <time>2022-09-10T12:14:17.000Z</time>
      </trkpt>
      <trkpt lat="43.93929" lon="7.6085">
        <ele>1185</ele>
        <time>2022-09-10T12:14:18.000Z</time>
      </trkpt>
      <trkpt lat="43.93929" lon="7.60851">
        <ele>1184.5999755859</ele>
        <time>2022-09-10T12:14:25.000Z</time>
      </trkpt>
      <trkpt lat="43.93928" lon="7.60854">
        <ele>1184.1999511719</ele>
        <time>2022-09-10T12:14:34.000Z</time>
      </trkpt>
      <trkpt lat="43.93927" lon="7.60858">
        <ele>1184.4000244141</ele>
        <time>2022-09-10T12:14:38.000Z</time>
      </trkpt>
      <trkpt lat="43.93927" lon="7.60856">
        <ele>1184.8000488281</ele>
        <time>2022-09-10T12:14:43.000Z</time>
      </trkpt>
      <trkpt lat="43.93927" lon="7.60855">
        <ele>1184.5999755859</ele>
        <time>2022-09-10T12:14:48.000Z</time>
      </trkpt>
      <trkpt lat="43.93927" lon="7.60855">
        <ele>1184.4000244141</ele>
        <time>2022-09-10T12:14:55.000Z</time>
      </trkpt>
      <trkpt lat="43.93928" lon="7.60855">
        <ele>1184</ele>
        <time>2022-09-10T12:15:00.000Z</time>
      </trkpt>
      <trkpt lat="43.93928" lon="7.60856">
        <ele>1183.5999755859</ele>
        <time>2022-09-10T12:15:04.000Z</time>
      </trkpt>
      <trkpt lat="43.93928" lon="7.60857">
        <ele>1183.8000488281</ele>
        <time>2022-09-10T12:15:10.000Z</time>
      </trkpt>
      <trkpt lat="43.93926" lon="7.6086">
        <ele>1184.1999511719</ele>
        <time>2022-09-10T12:15:17.000Z</time>
      </trkpt>
      <trkpt lat="43.93927" lon="7.60861">
        <ele>1184.1999511719</ele>
        <time>2022-09-10T12:15:18.000Z</time>
      </trkpt>
      <trkpt lat="43.93925" lon="7.60866">
        <ele>1184</ele>
        <time>2022-09-10T12:15:21.000Z</time>
      </trkpt>
      <trkpt lat="43.93922" lon="7.60871">
        <ele>1184</ele>
        <time>2022-09-10T12:15:25.000Z</time>
      </trkpt>
      <trkpt lat="43.93921" lon="7.60871">
        <ele>1184.1999511719</ele>
        <time>2022-09-10T12:15:27.000Z</time>
      </trkpt>
      <trkpt lat="43.9392" lon="7.60869">
        <ele>1184</ele>
        <time>2022-09-10T12:15:33.000Z</time>
      </trkpt>
      <trkpt lat="43.9392" lon="7.60871">
        <ele>1184</ele>
        <time>2022-09-10T12:15:38.000Z</time>
      </trkpt>
      <trkpt lat="43.93919" lon="7.60871">
        <ele>1184</ele>
        <time>2022-09-10T12:15:43.000Z</time>
      </trkpt>
      <trkpt lat="43.93919" lon="7.60871">
        <ele>1184</ele>
        <time>2022-09-10T12:15:50.000Z</time>
      </trkpt>
      <trkpt lat="43.93921" lon="7.60871">
        <ele>1184</ele>
        <time>2022-09-10T12:15:52.000Z</time>
      </trkpt>
      <trkpt lat="43.93922" lon="7.60871">
        <ele>1184</ele>
        <time>2022-09-10T12:15:54.000Z</time>
      </trkpt>
      <trkpt lat="43.93924" lon="7.60874">
        <ele>1184.4000244141</ele>
        <time>2022-09-10T12:15:58.000Z</time>
      </trkpt>
      <trkpt lat="43.93925" lon="7.60877">
        <ele>1184.1999511719</ele>
        <time>2022-09-10T12:16:05.000Z</time>
      </trkpt>
      <trkpt lat="43.93925" lon="7.60876">
        <ele>1183.8000488281</ele>
        <time>2022-09-10T12:16:11.000Z</time>
      </trkpt>
      <trkpt lat="43.93924" lon="7.60876">
        <ele>1183.8000488281</ele>
        <time>2022-09-10T12:16:17.000Z</time>
      </trkpt>
      <trkpt lat="43.93924" lon="7.60875">
        <ele>1183.8000488281</ele>
        <time>2022-09-10T12:16:26.000Z</time>
      </trkpt>
      <trkpt lat="43.93924" lon="7.60875">
        <ele>1183.5999755859</ele>
        <time>2022-09-10T12:16:34.000Z</time>
      </trkpt>
      <trkpt lat="43.93923" lon="7.60878">
        <ele>1183.5999755859</ele>
        <time>2022-09-10T12:16:41.000Z</time>
      </trkpt>
      <trkpt lat="43.93923" lon="7.60873">
        <ele>1183.5999755859</ele>
        <time>2022-09-10T12:16:47.000Z</time>
      </trkpt>
      <trkpt lat="43.93924" lon="7.60869">
        <ele>1183.5999755859</ele>
        <time>2022-09-10T12:16:52.000Z</time>
      </trkpt>
      <trkpt lat="43.93923" lon="7.60868">
        <ele>1183.5999755859</ele>
        <time>2022-09-10T12:17:00.000Z</time>
      </trkpt>
      <trkpt lat="43.93924" lon="7.60869">
        <ele>1183.5999755859</ele>
        <time>2022-09-10T12:17:08.000Z</time>
      </trkpt>
      <trkpt lat="43.93925" lon="7.60868">
        <ele>1183.5999755859</ele>
        <time>2022-09-10T12:17:17.000Z</time>
      </trkpt>
      <trkpt lat="43.93925" lon="7.60872">
        <ele>1183.5999755859</ele>
        <time>2022-09-10T12:17:23.000Z</time>
      </trkpt>
      <trkpt lat="43.93924" lon="7.60875">
        <ele>1183.5999755859</ele>
        <time>2022-09-10T12:17:29.000Z</time>
      </trkpt>
      <trkpt lat="43.93923" lon="7.60878">
        <ele>1183.8000488281</ele>
        <time>2022-09-10T12:17:31.000Z</time>
      </trkpt>
      <trkpt lat="43.93923" lon="7.60878">
        <ele>1183.8000488281</ele>
        <time>2022-09-10T12:17:34.000Z</time>
      </trkpt>
      <trkpt lat="43.93923" lon="7.60877">
        <ele>1183.8000488281</ele>
        <time>2022-09-10T12:17:41.000Z</time>
      </trkpt>
      <trkpt lat="43.93922" lon="7.60875">
        <ele>1183.8000488281</ele>
        <time>2022-09-10T12:17:43.000Z</time>
      </trkpt>
      <trkpt lat="43.93925" lon="7.6087">
        <ele>1183.8000488281</ele>
        <time>2022-09-10T12:17:48.000Z</time>
      </trkpt>
      <trkpt lat="43.93926" lon="7.6087">
        <ele>1183.8000488281</ele>
        <time>2022-09-10T12:17:49.000Z</time>
      </trkpt>
      <trkpt lat="43.93929" lon="7.60877">
        <ele>1183.8000488281</ele>
        <time>2022-09-10T12:17:55.000Z</time>
      </trkpt>
      <trkpt lat="43.93929" lon="7.60884">
        <ele>1183.8000488281</ele>
        <time>2022-09-10T12:18:01.000Z</time>
      </trkpt>
      <trkpt lat="43.93931" lon="7.60884">
        <ele>1183.8000488281</ele>
        <time>2022-09-10T12:18:06.000Z</time>
      </trkpt>
      <trkpt lat="43.93931" lon="7.60879">
        <ele>1183.8000488281</ele>
        <time>2022-09-10T12:18:11.000Z</time>
      </trkpt>
      <trkpt lat="43.93931" lon="7.60878">
        <ele>1183.8000488281</ele>
        <time>2022-09-10T12:18:12.000Z</time>
      </trkpt>
      <trkpt lat="43.93929" lon="7.60877">
        <ele>1183.8000488281</ele>
        <time>2022-09-10T12:18:18.000Z</time>
      </trkpt>
      <trkpt lat="43.93927" lon="7.60875">
        <ele>1183.8000488281</ele>
        <time>2022-09-10T12:18:25.000Z</time>
      </trkpt>
      <trkpt lat="43.93927" lon="7.60875">
        <ele>1183.8000488281</ele>
        <time>2022-09-10T12:18:31.000Z</time>
      </trkpt>
      <trkpt lat="43.93927" lon="7.60871">
        <ele>1183.8000488281</ele>
        <time>2022-09-10T12:18:40.000Z</time>
      </trkpt>
      <trkpt lat="43.93924" lon="7.60871">
        <ele>1183.8000488281</ele>
        <time>2022-09-10T12:18:47.000Z</time>
      </trkpt>
      <trkpt lat="43.93925" lon="7.60867">
        <ele>1183.8000488281</ele>
        <time>2022-09-10T12:18:54.000Z</time>
      </trkpt>
      <trkpt lat="43.93926" lon="7.60862">
        <ele>1184</ele>
        <time>2022-09-10T12:19:00.000Z</time>
      </trkpt>
      <trkpt lat="43.93925" lon="7.6086">
        <ele>1184</ele>
        <time>2022-09-10T12:19:06.000Z</time>
      </trkpt>
      <trkpt lat="43.93923" lon="7.60863">
        <ele>1184</ele>
        <time>2022-09-10T12:19:11.000Z</time>
      </trkpt>
      <trkpt lat="43.93922" lon="7.60864">
        <ele>1184</ele>
        <time>2022-09-10T12:19:17.000Z</time>
      </trkpt>
      <trkpt lat="43.93922" lon="7.60865">
        <ele>1183.8000488281</ele>
        <time>2022-09-10T12:19:25.000Z</time>
      </trkpt>
      <trkpt lat="43.93923" lon="7.60863">
        <ele>1183.5999755859</ele>
        <time>2022-09-10T12:19:32.000Z</time>
      </trkpt>
      <trkpt lat="43.93924" lon="7.60861">
        <ele>1183.5999755859</ele>
        <time>2022-09-10T12:19:39.000Z</time>
      </trkpt>
      <trkpt lat="43.93923" lon="7.60865">
        <ele>1184</ele>
        <time>2022-09-10T12:19:47.000Z</time>
      </trkpt>
      <trkpt lat="43.93922" lon="7.6087">
        <ele>1184</ele>
        <time>2022-09-10T12:19:51.000Z</time>
      </trkpt>
      <trkpt lat="43.93922" lon="7.60871">
        <ele>1184</ele>
        <time>2022-09-10T12:19:52.000Z</time>
      </trkpt>
      <trkpt lat="43.93923" lon="7.60873">
        <ele>1184</ele>
        <time>2022-09-10T12:19:58.000Z</time>
      </trkpt>
      <trkpt lat="43.93923" lon="7.60869">
        <ele>1184.1999511719</ele>
        <time>2022-09-10T12:20:05.000Z</time>
      </trkpt>
      <trkpt lat="43.93923" lon="7.60865">
        <ele>1184.1999511719</ele>
        <time>2022-09-10T12:20:12.000Z</time>
      </trkpt>
      <trkpt lat="43.9392" lon="7.60868">
        <ele>1184.1999511719</ele>
        <time>2022-09-10T12:20:18.000Z</time>
      </trkpt>
      <trkpt lat="43.93911" lon="7.60867">
        <ele>1184.1999511719</ele>
        <time>2022-09-10T12:20:25.000Z</time>
      </trkpt>
      <trkpt lat="43.9391" lon="7.60866">
        <ele>1184.1999511719</ele>
        <time>2022-09-10T12:20:26.000Z</time>
      </trkpt>
      <trkpt lat="43.9391" lon="7.60864">
        <ele>1184.1999511719</ele>
        <time>2022-09-10T12:20:33.000Z</time>
      </trkpt>
      <trkpt lat="43.93911" lon="7.6086">
        <ele>1184.1999511719</ele>
        <time>2022-09-10T12:20:35.000Z</time>
      </trkpt>
      <trkpt lat="43.93909" lon="7.60858">
        <ele>1184.1999511719</ele>
        <time>2022-09-10T12:20:37.000Z</time>
      </trkpt>
      <trkpt lat="43.93909" lon="7.60858">
        <ele>1184.1999511719</ele>
        <time>2022-09-10T12:20:39.000Z</time>
      </trkpt>
      <trkpt lat="43.93904" lon="7.6086">
        <ele>1184</ele>
        <time>2022-09-10T12:20:44.000Z</time>
      </trkpt>
      <trkpt lat="43.93903" lon="7.60866">
        <ele>1184</ele>
        <time>2022-09-10T12:20:49.000Z</time>
      </trkpt>
      <trkpt lat="43.93898" lon="7.60866">
        <ele>1184</ele>
        <time>2022-09-10T12:20:52.000Z</time>
      </trkpt>
      <trkpt lat="43.93895" lon="7.60865">
        <ele>1184</ele>
        <time>2022-09-10T12:20:54.000Z</time>
      </trkpt>
      <trkpt lat="43.93896" lon="7.60859">
        <ele>1183.8000488281</ele>
        <time>2022-09-10T12:21:00.000Z</time>
      </trkpt>
      <trkpt lat="43.93903" lon="7.60852">
        <ele>1184</ele>
        <time>2022-09-10T12:21:06.000Z</time>
      </trkpt>
      <trkpt lat="43.93906" lon="7.60854">
        <ele>1184.4000244141</ele>
        <time>2022-09-10T12:21:11.000Z</time>
      </trkpt>
      <trkpt lat="43.9391" lon="7.60857">
        <ele>1184</ele>
        <time>2022-09-10T12:21:17.000Z</time>
      </trkpt>
      <trkpt lat="43.93909" lon="7.60857">
        <ele>1184</ele>
        <time>2022-09-10T12:21:19.000Z</time>
      </trkpt>
      <trkpt lat="43.93909" lon="7.60856">
        <ele>1184</ele>
        <time>2022-09-10T12:21:22.000Z</time>
      </trkpt>
      <trkpt lat="43.9391" lon="7.6086">
        <ele>1184</ele>
        <time>2022-09-10T12:21:28.000Z</time>
      </trkpt>
      <trkpt lat="43.93911" lon="7.60862">
        <ele>1184</ele>
        <time>2022-09-10T12:21:33.000Z</time>
      </trkpt>
      <trkpt lat="43.93912" lon="7.60861">
        <ele>1184.1999511719</ele>
        <time>2022-09-10T12:21:35.000Z</time>
      </trkpt>
      <trkpt lat="43.93915" lon="7.60861">
        <ele>1184</ele>
        <time>2022-09-10T12:21:38.000Z</time>
      </trkpt>
      <trkpt lat="43.93915" lon="7.60856">
        <ele>1184</ele>
        <time>2022-09-10T12:21:43.000Z</time>
      </trkpt>
      <trkpt lat="43.93916" lon="7.60851">
        <ele>1183.8000488281</ele>
        <time>2022-09-10T12:21:50.000Z</time>
      </trkpt>
      <trkpt lat="43.93918" lon="7.6085">
        <ele>1183.8000488281</ele>
        <time>2022-09-10T12:21:55.000Z</time>
      </trkpt>
      <trkpt lat="43.93919" lon="7.60854">
        <ele>1184</ele>
        <time>2022-09-10T12:22:01.000Z</time>
      </trkpt>
      <trkpt lat="43.93919" lon="7.60858">
        <ele>1184</ele>
        <time>2022-09-10T12:22:08.000Z</time>
      </trkpt>
      <trkpt lat="43.93918" lon="7.60859">
        <ele>1184.4000244141</ele>
        <time>2022-09-10T12:22:16.000Z</time>
      </trkpt>
      <trkpt lat="43.93918" lon="7.60856">
        <ele>1184.4000244141</ele>
        <time>2022-09-10T12:22:21.000Z</time>
      </trkpt>
      <trkpt lat="43.93918" lon="7.60855">
        <ele>1184.4000244141</ele>
        <time>2022-09-10T12:22:27.000Z</time>
      </trkpt>
      <trkpt lat="43.93919" lon="7.60851">
        <ele>1184.5999755859</ele>
        <time>2022-09-10T12:22:32.000Z</time>
      </trkpt>
      <trkpt lat="43.93919" lon="7.60835">
        <ele>1185</ele>
        <time>2022-09-10T12:22:38.000Z</time>
      </trkpt>
      <trkpt lat="43.93918" lon="7.60833">
        <ele>1184.5999755859</ele>
        <time>2022-09-10T12:22:45.000Z</time>
      </trkpt>
      <trkpt lat="43.93919" lon="7.60835">
        <ele>1184.5999755859</ele>
        <time>2022-09-10T12:22:46.000Z</time>
      </trkpt>
      <trkpt lat="43.93924" lon="7.60846">
        <ele>1184.5999755859</ele>
        <time>2022-09-10T12:22:50.000Z</time>
      </trkpt>
      <trkpt lat="43.9393" lon="7.60855">
        <ele>1184.4000244141</ele>
        <time>2022-09-10T12:22:55.000Z</time>
      </trkpt>
      <trkpt lat="43.93931" lon="7.60856">
        <ele>1184.4000244141</ele>
        <time>2022-09-10T12:22:56.000Z</time>
      </trkpt>
      <trkpt lat="43.93933" lon="7.6086">
        <ele>1184.4000244141</ele>
        <time>2022-09-10T12:23:03.000Z</time>
      </trkpt>
      <trkpt lat="43.93935" lon="7.6086">
        <ele>1184.4000244141</ele>
        <time>2022-09-10T12:23:09.000Z</time>
      </trkpt>
      <trkpt lat="43.93934" lon="7.60861">
        <ele>1184.4000244141</ele>
        <time>2022-09-10T12:23:16.000Z</time>
      </trkpt>
      <trkpt lat="43.93932" lon="7.60865">
        <ele>1184.5999755859</ele>
        <time>2022-09-10T12:23:18.000Z</time>
      </trkpt>
      <trkpt lat="43.93933" lon="7.60883">
        <ele>1184.5999755859</ele>
        <time>2022-09-10T12:23:25.000Z</time>
      </trkpt>
      <trkpt lat="43.9393" lon="7.6088">
        <ele>1184.8000488281</ele>
        <time>2022-09-10T12:23:30.000Z</time>
      </trkpt>
      <trkpt lat="43.93931" lon="7.60872">
        <ele>1184.5999755859</ele>
        <time>2022-09-10T12:23:36.000Z</time>
      </trkpt>
      <trkpt lat="43.9393" lon="7.60868">
        <ele>1184.5999755859</ele>
        <time>2022-09-10T12:23:38.000Z</time>
      </trkpt>
      <trkpt lat="43.93929" lon="7.60865">
        <ele>1184.5999755859</ele>
        <time>2022-09-10T12:23:41.000Z</time>
      </trkpt>
      <trkpt lat="43.93928" lon="7.60862">
        <ele>1184.5999755859</ele>
        <time>2022-09-10T12:23:47.000Z</time>
      </trkpt>
      <trkpt lat="43.93928" lon="7.60857">
        <ele>1184.5999755859</ele>
        <time>2022-09-10T12:23:54.000Z</time>
      </trkpt>
      <trkpt lat="43.93926" lon="7.60856">
        <ele>1184.5999755859</ele>
        <time>2022-09-10T12:24:00.000Z</time>
      </trkpt>
      <trkpt lat="43.93924" lon="7.60853">
        <ele>1184.5999755859</ele>
        <time>2022-09-10T12:24:06.000Z</time>
      </trkpt>
      <trkpt lat="43.93923" lon="7.60855">
        <ele>1184.8000488281</ele>
        <time>2022-09-10T12:24:12.000Z</time>
      </trkpt>
      <trkpt lat="43.93925" lon="7.60858">
        <ele>1184.5999755859</ele>
        <time>2022-09-10T12:24:17.000Z</time>
      </trkpt>
      <trkpt lat="43.93925" lon="7.60856">
        <ele>1184.4000244141</ele>
        <time>2022-09-10T12:24:23.000Z</time>
      </trkpt>
      <trkpt lat="43.93924" lon="7.60854">
        <ele>1184.4000244141</ele>
        <time>2022-09-10T12:24:28.000Z</time>
      </trkpt>
      <trkpt lat="43.93924" lon="7.60854">
        <ele>1184.4000244141</ele>
        <time>2022-09-10T12:24:36.000Z</time>
      </trkpt>
      <trkpt lat="43.93924" lon="7.60853">
        <ele>1184.4000244141</ele>
        <time>2022-09-10T12:24:42.000Z</time>
      </trkpt>
      <trkpt lat="43.93925" lon="7.60852">
        <ele>1184.4000244141</ele>
        <time>2022-09-10T12:24:47.000Z</time>
      </trkpt>
      <trkpt lat="43.93925" lon="7.60851">
        <ele>1184.5999755859</ele>
        <time>2022-09-10T12:24:52.000Z</time>
      </trkpt>
      <trkpt lat="43.93927" lon="7.60854">
        <ele>1184.5999755859</ele>
        <time>2022-09-10T12:24:59.000Z</time>
      </trkpt>
      <trkpt lat="43.93927" lon="7.60857">
        <ele>1184.5999755859</ele>
        <time>2022-09-10T12:25:04.000Z</time>
      </trkpt>
      <trkpt lat="43.93928" lon="7.60859">
        <ele>1184.8000488281</ele>
        <time>2022-09-10T12:25:10.000Z</time>
      </trkpt>
      <trkpt lat="43.93929" lon="7.6086">
        <ele>1185</ele>
        <time>2022-09-10T12:25:16.000Z</time>
      </trkpt>
      <trkpt lat="43.93927" lon="7.60857">
        <ele>1184.4000244141</ele>
        <time>2022-09-10T12:25:21.000Z</time>
      </trkpt>
      <trkpt lat="43.93925" lon="7.60858">
        <ele>1184.4000244141</ele>
        <time>2022-09-10T12:25:22.000Z</time>
      </trkpt>
      <trkpt lat="43.93909" lon="7.6087">
        <ele>1184.1999511719</ele>
        <time>2022-09-10T12:25:39.000Z</time>
      </trkpt>
      <trkpt lat="43.93913" lon="7.60863">
        <ele>1184.1999511719</ele>
        <time>2022-09-10T12:25:41.000Z</time>
      </trkpt>
      <trkpt lat="43.93921" lon="7.60855">
        <ele>1184.1999511719</ele>
        <time>2022-09-10T12:25:46.000Z</time>
      </trkpt>
      <trkpt lat="43.93925" lon="7.60855">
        <ele>1184.1999511719</ele>
        <time>2022-09-10T12:25:52.000Z</time>
      </trkpt>
      <trkpt lat="43.93926" lon="7.60855">
        <ele>1184.1999511719</ele>
        <time>2022-09-10T12:25:53.000Z</time>
      </trkpt>
      <trkpt lat="43.93927" lon="7.60857">
        <ele>1184.1999511719</ele>
        <time>2022-09-10T12:25:57.000Z</time>
      </trkpt>
      <trkpt lat="43.93928" lon="7.60856">
        <ele>1184.1999511719</ele>
        <time>2022-09-10T12:25:58.000Z</time>
      </trkpt>
      <trkpt lat="43.93926" lon="7.60852">
        <ele>1184.4000244141</ele>
        <time>2022-09-10T12:26:01.000Z</time>
      </trkpt>
      <trkpt lat="43.93922" lon="7.60855">
        <ele>1184.4000244141</ele>
        <time>2022-09-10T12:26:06.000Z</time>
      </trkpt>
      <trkpt lat="43.93924" lon="7.60859">
        <ele>1184.5999755859</ele>
        <time>2022-09-10T12:26:07.000Z</time>
      </trkpt>
      <trkpt lat="43.93929" lon="7.60861">
        <ele>1184.4000244141</ele>
        <time>2022-09-10T12:26:11.000Z</time>
      </trkpt>
      <trkpt lat="43.9393" lon="7.60861">
        <ele>1184.4000244141</ele>
        <time>2022-09-10T12:26:12.000Z</time>
      </trkpt>
      <trkpt lat="43.93927" lon="7.60862">
        <ele>1184.8000488281</ele>
        <time>2022-09-10T12:26:17.000Z</time>
      </trkpt>
      <trkpt lat="43.93923" lon="7.60865">
        <ele>1185.1999511719</ele>
        <time>2022-09-10T12:26:22.000Z</time>
      </trkpt>
      <trkpt lat="43.9392" lon="7.60868">
        <ele>1185.1999511719</ele>
        <time>2022-09-10T12:26:27.000Z</time>
      </trkpt>
      <trkpt lat="43.93917" lon="7.60864">
        <ele>1185.1999511719</ele>
        <time>2022-09-10T12:26:33.000Z</time>
      </trkpt>
      <trkpt lat="43.93916" lon="7.60867">
        <ele>1185.1999511719</ele>
        <time>2022-09-10T12:26:38.000Z</time>
      </trkpt>
      <trkpt lat="43.93916" lon="7.6087">
        <ele>1185</ele>
        <time>2022-09-10T12:26:40.000Z</time>
      </trkpt>
      <trkpt lat="43.93915" lon="7.60873">
        <ele>1185</ele>
        <time>2022-09-10T12:26:43.000Z</time>
      </trkpt>
      <trkpt lat="43.93917" lon="7.60872">
        <ele>1185</ele>
        <time>2022-09-10T12:26:48.000Z</time>
      </trkpt>
      <trkpt lat="43.93921" lon="7.60871">
        <ele>1184.8000488281</ele>
        <time>2022-09-10T12:26:53.000Z</time>
      </trkpt>
      <trkpt lat="43.93924" lon="7.60873">
        <ele>1184.5999755859</ele>
        <time>2022-09-10T12:26:57.000Z</time>
      </trkpt>
      <trkpt lat="43.93925" lon="7.60873">
        <ele>1184.5999755859</ele>
        <time>2022-09-10T12:26:58.000Z</time>
      </trkpt>
      <trkpt lat="43.93926" lon="7.60875">
        <ele>1184.4000244141</ele>
        <time>2022-09-10T12:27:02.000Z</time>
      </trkpt>
      <trkpt lat="43.93926" lon="7.60872">
        <ele>1184.5999755859</ele>
        <time>2022-09-10T12:27:03.000Z</time>
      </trkpt>
      <trkpt lat="43.93924" lon="7.60866">
        <ele>1184.8000488281</ele>
        <time>2022-09-10T12:27:07.000Z</time>
      </trkpt>
      <trkpt lat="43.93919" lon="7.6087">
        <ele>1184.8000488281</ele>
        <time>2022-09-10T12:27:11.000Z</time>
      </trkpt>
      <trkpt lat="43.93919" lon="7.60873">
        <ele>1184.8000488281</ele>
        <time>2022-09-10T12:27:15.000Z</time>
      </trkpt>
      <trkpt lat="43.93921" lon="7.60873">
        <ele>1184.8000488281</ele>
        <time>2022-09-10T12:27:18.000Z</time>
      </trkpt>
      <trkpt lat="43.93926" lon="7.6087">
        <ele>1184.8000488281</ele>
        <time>2022-09-10T12:27:22.000Z</time>
      </trkpt>
      <trkpt lat="43.93922" lon="7.60871">
        <ele>1184.8000488281</ele>
        <time>2022-09-10T12:27:26.000Z</time>
      </trkpt>
      <trkpt lat="43.93923" lon="7.60874">
        <ele>1184.8000488281</ele>
        <time>2022-09-10T12:27:28.000Z</time>
      </trkpt>
      <trkpt lat="43.9392" lon="7.60882">
        <ele>1184.5999755859</ele>
        <time>2022-09-10T12:27:31.000Z</time>
      </trkpt>
      <trkpt lat="43.9392" lon="7.60885">
        <ele>1184.5999755859</ele>
        <time>2022-09-10T12:27:33.000Z</time>
      </trkpt>
      <trkpt lat="43.93922" lon="7.60888">
        <ele>1184.5999755859</ele>
        <time>2022-09-10T12:27:37.000Z</time>
      </trkpt>
      <trkpt lat="43.93924" lon="7.60886">
        <ele>1184.4000244141</ele>
        <time>2022-09-10T12:27:38.000Z</time>
      </trkpt>
      <trkpt lat="43.93925" lon="7.60879">
        <ele>1184.4000244141</ele>
        <time>2022-09-10T12:27:41.000Z</time>
      </trkpt>
      <trkpt lat="43.93925" lon="7.60872">
        <ele>1184.1999511719</ele>
        <time>2022-09-10T12:27:46.000Z</time>
      </trkpt>
      <trkpt lat="43.93924" lon="7.60867">
        <ele>1184.4000244141</ele>
        <time>2022-09-10T12:27:52.000Z</time>
      </trkpt>
      <trkpt lat="43.93922" lon="7.60871">
        <ele>1184.4000244141</ele>
        <time>2022-09-10T12:27:57.000Z</time>
      </trkpt>
      <trkpt lat="43.93922" lon="7.60869">
        <ele>1184.5999755859</ele>
        <time>2022-09-10T12:28:03.000Z</time>
      </trkpt>
      <trkpt lat="43.93923" lon="7.60871">
        <ele>1184.5999755859</ele>
        <time>2022-09-10T12:28:09.000Z</time>
      </trkpt>
      <trkpt lat="43.93923" lon="7.60872">
        <ele>1184.5999755859</ele>
        <time>2022-09-10T12:28:15.000Z</time>
      </trkpt>
      <trkpt lat="43.93924" lon="7.6087">
        <ele>1184.5999755859</ele>
        <time>2022-09-10T12:28:20.000Z</time>
      </trkpt>
      <trkpt lat="43.93925" lon="7.60874">
        <ele>1184.5999755859</ele>
        <time>2022-09-10T12:28:26.000Z</time>
      </trkpt>
      <trkpt lat="43.93928" lon="7.60876">
        <ele>1184.5999755859</ele>
        <time>2022-09-10T12:28:32.000Z</time>
      </trkpt>
      <trkpt lat="43.93929" lon="7.60872">
        <ele>1184.8000488281</ele>
        <time>2022-09-10T12:28:38.000Z</time>
      </trkpt>
      <trkpt lat="43.93926" lon="7.60866">
        <ele>1185</ele>
        <time>2022-09-10T12:28:43.000Z</time>
      </trkpt>
      <trkpt lat="43.93914" lon="7.60855">
        <ele>1185</ele>
        <time>2022-09-10T12:28:48.000Z</time>
      </trkpt>
      <trkpt lat="43.93918" lon="7.60847">
        <ele>1185.1999511719</ele>
        <time>2022-09-10T12:28:53.000Z</time>
      </trkpt>
      <trkpt lat="43.93922" lon="7.60846">
        <ele>1185.1999511719</ele>
        <time>2022-09-10T12:28:58.000Z</time>
      </trkpt>
      <trkpt lat="43.93923" lon="7.60844">
        <ele>1185.1999511719</ele>
        <time>2022-09-10T12:28:59.000Z</time>
      </trkpt>
      <trkpt lat="43.93921" lon="7.60852">
        <ele>1185.1999511719</ele>
        <time>2022-09-10T12:29:03.000Z</time>
      </trkpt>
      <trkpt lat="43.93921" lon="7.60853">
        <ele>1185.1999511719</ele>
        <time>2022-09-10T12:29:08.000Z</time>
      </trkpt>
      <trkpt lat="43.93923" lon="7.60856">
        <ele>1185</ele>
        <time>2022-09-10T12:29:13.000Z</time>
      </trkpt>
      <trkpt lat="43.93923" lon="7.60857">
        <ele>1184.8000488281</ele>
        <time>2022-09-10T12:29:15.000Z</time>
      </trkpt>
      <trkpt lat="43.93924" lon="7.60857">
        <ele>1185.1999511719</ele>
        <time>2022-09-10T12:29:21.000Z</time>
      </trkpt>
      <trkpt lat="43.93929" lon="7.6086">
        <ele>1185.1999511719</ele>
        <time>2022-09-10T12:29:30.000Z</time>
      </trkpt>
      <trkpt lat="43.93927" lon="7.60856">
        <ele>1185.1999511719</ele>
        <time>2022-09-10T12:29:37.000Z</time>
      </trkpt>
      <trkpt lat="43.93924" lon="7.60861">
        <ele>1184.8000488281</ele>
        <time>2022-09-10T12:29:43.000Z</time>
      </trkpt>
      <trkpt lat="43.93924" lon="7.60864">
        <ele>1184.4000244141</ele>
        <time>2022-09-10T12:29:48.000Z</time>
      </trkpt>
      <trkpt lat="43.93924" lon="7.60864">
        <ele>1185</ele>
        <time>2022-09-10T12:29:54.000Z</time>
      </trkpt>
      <trkpt lat="43.93924" lon="7.60867">
        <ele>1185.1999511719</ele>
        <time>2022-09-10T12:29:56.000Z</time>
      </trkpt>
      <trkpt lat="43.93924" lon="7.60869">
        <ele>1185.4000244141</ele>
        <time>2022-09-10T12:29:58.000Z</time>
      </trkpt>
      <trkpt lat="43.93925" lon="7.60867">
        <ele>1185.1999511719</ele>
        <time>2022-09-10T12:30:04.000Z</time>
      </trkpt>
      <trkpt lat="43.93925" lon="7.60867">
        <ele>1185.1999511719</ele>
        <time>2022-09-10T12:30:10.000Z</time>
      </trkpt>
      <trkpt lat="43.93925" lon="7.60863">
        <ele>1185</ele>
        <time>2022-09-10T12:30:19.000Z</time>
      </trkpt>
      <trkpt lat="43.93926" lon="7.60859">
        <ele>1185</ele>
        <time>2022-09-10T12:30:27.000Z</time>
      </trkpt>
      <trkpt lat="43.93925" lon="7.60859">
        <ele>1185.1999511719</ele>
        <time>2022-09-10T12:30:36.000Z</time>
      </trkpt>
      <trkpt lat="43.93925" lon="7.60863">
        <ele>1185</ele>
        <time>2022-09-10T12:30:44.000Z</time>
      </trkpt>
      <trkpt lat="43.93928" lon="7.60863">
        <ele>1184.8000488281</ele>
        <time>2022-09-10T12:30:49.000Z</time>
      </trkpt>
      <trkpt lat="43.93928" lon="7.60863">
        <ele>1185</ele>
        <time>2022-09-10T12:30:54.000Z</time>
      </trkpt>
      <trkpt lat="43.93927" lon="7.6086">
        <ele>1185</ele>
        <time>2022-09-10T12:30:59.000Z</time>
      </trkpt>
      <trkpt lat="43.93928" lon="7.60859">
        <ele>1185</ele>
        <time>2022-09-10T12:31:05.000Z</time>
      </trkpt>
      <trkpt lat="43.93927" lon="7.60856">
        <ele>1185</ele>
        <time>2022-09-10T12:31:13.000Z</time>
      </trkpt>
      <trkpt lat="43.93926" lon="7.60859">
        <ele>1185</ele>
        <time>2022-09-10T12:31:15.000Z</time>
      </trkpt>
      <trkpt lat="43.93926" lon="7.60866">
        <ele>1185</ele>
        <time>2022-09-10T12:31:19.000Z</time>
      </trkpt>
      <trkpt lat="43.93924" lon="7.60872">
        <ele>1185.1999511719</ele>
        <time>2022-09-10T12:31:25.000Z</time>
      </trkpt>
      <trkpt lat="43.93925" lon="7.6087">
        <ele>1185.5999755859</ele>
        <time>2022-09-10T12:31:31.000Z</time>
      </trkpt>
      <trkpt lat="43.93928" lon="7.60869">
        <ele>1185.4000244141</ele>
        <time>2022-09-10T12:31:39.000Z</time>
      </trkpt>
      <trkpt lat="43.9393" lon="7.60872">
        <ele>1185.5999755859</ele>
        <time>2022-09-10T12:31:44.000Z</time>
      </trkpt>
      <trkpt lat="43.93931" lon="7.60872">
        <ele>1185.5999755859</ele>
        <time>2022-09-10T12:31:46.000Z</time>
      </trkpt>
      <trkpt lat="43.9393" lon="7.60867">
        <ele>1185.5999755859</ele>
        <time>2022-09-10T12:31:49.000Z</time>
      </trkpt>
      <trkpt lat="43.93929" lon="7.60865">
        <ele>1185.4000244141</ele>
        <time>2022-09-10T12:31:51.000Z</time>
      </trkpt>
      <trkpt lat="43.93928" lon="7.60864">
        <ele>1185.4000244141</ele>
        <time>2022-09-10T12:31:58.000Z</time>
      </trkpt>
      <trkpt lat="43.93927" lon="7.6086">
        <ele>1185.1999511719</ele>
        <time>2022-09-10T12:32:03.000Z</time>
      </trkpt>
      <trkpt lat="43.93929" lon="7.60856">
        <ele>1185</ele>
        <time>2022-09-10T12:32:09.000Z</time>
      </trkpt>
      <trkpt lat="43.93931" lon="7.60857">
        <ele>1185</ele>
        <time>2022-09-10T12:32:12.000Z</time>
      </trkpt>
      <trkpt lat="43.93931" lon="7.60859">
        <ele>1185</ele>
        <time>2022-09-10T12:32:16.000Z</time>
      </trkpt>
      <trkpt lat="43.93931" lon="7.60858">
        <ele>1185.1999511719</ele>
        <time>2022-09-10T12:32:22.000Z</time>
      </trkpt>
      <trkpt lat="43.93931" lon="7.60851">
        <ele>1185</ele>
        <time>2022-09-10T12:32:25.000Z</time>
      </trkpt>
      <trkpt lat="43.93924" lon="7.60844">
        <ele>1185.1999511719</ele>
        <time>2022-09-10T12:33:00.000Z</time>
      </trkpt>
      <trkpt lat="43.93935" lon="7.60838">
        <ele>1185.1999511719</ele>
        <time>2022-09-10T12:33:07.000Z</time>
      </trkpt>
      <trkpt lat="43.93931" lon="7.60838">
        <ele>1185.1999511719</ele>
        <time>2022-09-10T12:33:12.000Z</time>
      </trkpt>
      <trkpt lat="43.93925" lon="7.6084">
        <ele>1185.4000244141</ele>
        <time>2022-09-10T12:33:18.000Z</time>
      </trkpt>
      <trkpt lat="43.93924" lon="7.60841">
        <ele>1185.4000244141</ele>
        <time>2022-09-10T12:33:24.000Z</time>
      </trkpt>
      <trkpt lat="43.93923" lon="7.60847">
        <ele>1185.4000244141</ele>
        <time>2022-09-10T12:33:32.000Z</time>
      </trkpt>
      <trkpt lat="43.93923" lon="7.60852">
        <ele>1185.4000244141</ele>
        <time>2022-09-10T12:33:41.000Z</time>
      </trkpt>
      <trkpt lat="43.93923" lon="7.60858">
        <ele>1185.4000244141</ele>
        <time>2022-09-10T12:33:52.000Z</time>
      </trkpt>
      <trkpt lat="43.93923" lon="7.60863">
        <ele>1185.4000244141</ele>
        <time>2022-09-10T12:33:59.000Z</time>
      </trkpt>
      <trkpt lat="43.93923" lon="7.60863">
        <ele>1185.4000244141</ele>
        <time>2022-09-10T12:34:05.000Z</time>
      </trkpt>
      <trkpt lat="43.93922" lon="7.60859">
        <ele>1185.4000244141</ele>
        <time>2022-09-10T12:34:09.000Z</time>
      </trkpt>
      <trkpt lat="43.93922" lon="7.60856">
        <ele>1185.4000244141</ele>
        <time>2022-09-10T12:34:10.000Z</time>
      </trkpt>
      <trkpt lat="43.93923" lon="7.60838">
        <ele>1185.5999755859</ele>
        <time>2022-09-10T12:34:19.000Z</time>
      </trkpt>
      <trkpt lat="43.93924" lon="7.60827">
        <ele>1185.5999755859</ele>
        <time>2022-09-10T12:34:31.000Z</time>
      </trkpt>
      <trkpt lat="43.93925" lon="7.60817">
        <ele>1185.5999755859</ele>
        <time>2022-09-10T12:34:37.000Z</time>
      </trkpt>
      <trkpt lat="43.93925" lon="7.6082">
        <ele>1185.8000488281</ele>
        <time>2022-09-10T12:34:44.000Z</time>
      </trkpt>
      <trkpt lat="43.93924" lon="7.6083">
        <ele>1185.5999755859</ele>
        <time>2022-09-10T12:34:52.000Z</time>
      </trkpt>
      <trkpt lat="43.93924" lon="7.60833">
        <ele>1185.5999755859</ele>
        <time>2022-09-10T12:34:59.000Z</time>
      </trkpt>
      <trkpt lat="43.93925" lon="7.60821">
        <ele>1185.5999755859</ele>
        <time>2022-09-10T12:35:05.000Z</time>
      </trkpt>
      <trkpt lat="43.93926" lon="7.60821">
        <ele>1185.4000244141</ele>
        <time>2022-09-10T12:35:10.000Z</time>
      </trkpt>
      <trkpt lat="43.93925" lon="7.60828">
        <ele>1185.4000244141</ele>
        <time>2022-09-10T12:35:19.000Z</time>
      </trkpt>
      <trkpt lat="43.93924" lon="7.60834">
        <ele>1185.4000244141</ele>
        <time>2022-09-10T12:35:26.000Z</time>
      </trkpt>
      <trkpt lat="43.93924" lon="7.60836">
        <ele>1185.5999755859</ele>
        <time>2022-09-10T12:35:33.000Z</time>
      </trkpt>
      <trkpt lat="43.93924" lon="7.60843">
        <ele>1185.5999755859</ele>
        <time>2022-09-10T12:35:39.000Z</time>
      </trkpt>
      <trkpt lat="43.93923" lon="7.60851">
        <ele>1185.5999755859</ele>
        <time>2022-09-10T12:35:45.000Z</time>
      </trkpt>
      <trkpt lat="43.93923" lon="7.60859">
        <ele>1185.5999755859</ele>
        <time>2022-09-10T12:35:55.000Z</time>
      </trkpt>
      <trkpt lat="43.93922" lon="7.60862">
        <ele>1185.5999755859</ele>
        <time>2022-09-10T12:36:03.000Z</time>
      </trkpt>
      <trkpt lat="43.93922" lon="7.60857">
        <ele>1185.5999755859</ele>
        <time>2022-09-10T12:36:08.000Z</time>
      </trkpt>
      <trkpt lat="43.93922" lon="7.60855">
        <ele>1185.5999755859</ele>
        <time>2022-09-10T12:36:09.000Z</time>
      </trkpt>
      <trkpt lat="43.93922" lon="7.60843">
        <ele>1185.5999755859</ele>
        <time>2022-09-10T12:36:16.000Z</time>
      </trkpt>
      <trkpt lat="43.93922" lon="7.6084">
        <ele>1185.5999755859</ele>
        <time>2022-09-10T12:36:25.000Z</time>
      </trkpt>
      <trkpt lat="43.93922" lon="7.60851">
        <ele>1185.8000488281</ele>
        <time>2022-09-10T12:36:33.000Z</time>
      </trkpt>
      <trkpt lat="43.93922" lon="7.60859">
        <ele>1185.8000488281</ele>
        <time>2022-09-10T12:36:42.000Z</time>
      </trkpt>
      <trkpt lat="43.93921" lon="7.60856">
        <ele>1185.8000488281</ele>
        <time>2022-09-10T12:36:51.000Z</time>
      </trkpt>
      <trkpt lat="43.93921" lon="7.60857">
        <ele>1185.8000488281</ele>
        <time>2022-09-10T12:36:59.000Z</time>
      </trkpt>
      <trkpt lat="43.9392" lon="7.60866">
        <ele>1185.8000488281</ele>
        <time>2022-09-10T12:37:06.000Z</time>
      </trkpt>
      <trkpt lat="43.9392" lon="7.60869">
        <ele>1185.8000488281</ele>
        <time>2022-09-10T12:37:12.000Z</time>
      </trkpt>
      <trkpt lat="43.93921" lon="7.60868">
        <ele>1185.5999755859</ele>
        <time>2022-09-10T12:37:19.000Z</time>
      </trkpt>
      <trkpt lat="43.93921" lon="7.60875">
        <ele>1185.5999755859</ele>
        <time>2022-09-10T12:37:26.000Z</time>
      </trkpt>
      <trkpt lat="43.93921" lon="7.60881">
        <ele>1185.5999755859</ele>
        <time>2022-09-10T12:37:31.000Z</time>
      </trkpt>
      <trkpt lat="43.9392" lon="7.60874">
        <ele>1185.1999511719</ele>
        <time>2022-09-10T12:37:37.000Z</time>
      </trkpt>
      <trkpt lat="43.93918" lon="7.6087">
        <ele>1185.5999755859</ele>
        <time>2022-09-10T12:37:43.000Z</time>
      </trkpt>
      <trkpt lat="43.93916" lon="7.60872">
        <ele>1185.5999755859</ele>
        <time>2022-09-10T12:37:46.000Z</time>
      </trkpt>
      <trkpt lat="43.93914" lon="7.60874">
        <ele>1185.5999755859</ele>
        <time>2022-09-10T12:37:48.000Z</time>
      </trkpt>
      <trkpt lat="43.93914" lon="7.60872">
        <ele>1185.5999755859</ele>
        <time>2022-09-10T12:37:53.000Z</time>
      </trkpt>
      <trkpt lat="43.93907" lon="7.60877">
        <ele>1185.8000488281</ele>
        <time>2022-09-10T12:37:57.000Z</time>
      </trkpt>
      <trkpt lat="43.93904" lon="7.60871">
        <ele>1185.5999755859</ele>
        <time>2022-09-10T12:38:01.000Z</time>
      </trkpt>
      <trkpt lat="43.93907" lon="7.60869">
        <ele>1185.5999755859</ele>
        <time>2022-09-10T12:38:07.000Z</time>
      </trkpt>
      <trkpt lat="43.93907" lon="7.60865">
        <ele>1185.5999755859</ele>
        <time>2022-09-10T12:38:11.000Z</time>
      </trkpt>
      <trkpt lat="43.93909" lon="7.60862">
        <ele>1185.5999755859</ele>
        <time>2022-09-10T12:38:13.000Z</time>
      </trkpt>
      <trkpt lat="43.93913" lon="7.60849">
        <ele>1185.5999755859</ele>
        <time>2022-09-10T12:38:19.000Z</time>
      </trkpt>
      <trkpt lat="43.93916" lon="7.6084">
        <ele>1185.8000488281</ele>
        <time>2022-09-10T12:38:25.000Z</time>
      </trkpt>
      <trkpt lat="43.93917" lon="7.60843">
        <ele>1185.8000488281</ele>
        <time>2022-09-10T12:38:33.000Z</time>
      </trkpt>
      <trkpt lat="43.93917" lon="7.6085">
        <ele>1185.8000488281</ele>
        <time>2022-09-10T12:38:40.000Z</time>
      </trkpt>
      <trkpt lat="43.93919" lon="7.60855">
        <ele>1185.8000488281</ele>
        <time>2022-09-10T12:38:49.000Z</time>
      </trkpt>
      <trkpt lat="43.93921" lon="7.60857">
        <ele>1186</ele>
        <time>2022-09-10T12:38:56.000Z</time>
      </trkpt>
      <trkpt lat="43.93922" lon="7.60857">
        <ele>1186</ele>
        <time>2022-09-10T12:39:05.000Z</time>
      </trkpt>
      <trkpt lat="43.93921" lon="7.60858">
        <ele>1185.8000488281</ele>
        <time>2022-09-10T12:39:15.000Z</time>
      </trkpt>
      <trkpt lat="43.93924" lon="7.60858">
        <ele>1185.8000488281</ele>
        <time>2022-09-10T12:39:18.000Z</time>
      </trkpt>
      <trkpt lat="43.93926" lon="7.60862">
        <ele>1185.8000488281</ele>
        <time>2022-09-10T12:39:20.000Z</time>
      </trkpt>
      <trkpt lat="43.93925" lon="7.60863">
        <ele>1186</ele>
        <time>2022-09-10T12:39:24.000Z</time>
      </trkpt>
      <trkpt lat="43.93924" lon="7.6086">
        <ele>1186</ele>
        <time>2022-09-10T12:39:29.000Z</time>
      </trkpt>
      <trkpt lat="43.93925" lon="7.60855">
        <ele>1186.1999511719</ele>
        <time>2022-09-10T12:39:32.000Z</time>
      </trkpt>
      <trkpt lat="43.93925" lon="7.6085">
        <ele>1186.1999511719</ele>
        <time>2022-09-10T12:39:35.000Z</time>
      </trkpt>
      <trkpt lat="43.93926" lon="7.60856">
        <ele>1186.1999511719</ele>
        <time>2022-09-10T12:39:40.000Z</time>
      </trkpt>
      <trkpt lat="43.93925" lon="7.60861">
        <ele>1186.4000244141</ele>
        <time>2022-09-10T12:39:47.000Z</time>
      </trkpt>
      <trkpt lat="43.93924" lon="7.60864">
        <ele>1186.1999511719</ele>
        <time>2022-09-10T12:39:55.000Z</time>
      </trkpt>
      <trkpt lat="43.93924" lon="7.60864">
        <ele>1186.1999511719</ele>
        <time>2022-09-10T12:39:59.000Z</time>
      </trkpt>
      <trkpt lat="43.93924" lon="7.60863">
        <ele>1186.1999511719</ele>
        <time>2022-09-10T12:40:00.000Z</time>
      </trkpt>
      <trkpt lat="43.93925" lon="7.60857">
        <ele>1186.4000244141</ele>
        <time>2022-09-10T12:40:05.000Z</time>
      </trkpt>
      <trkpt lat="43.93927" lon="7.60852">
        <ele>1186.4000244141</ele>
        <time>2022-09-10T12:40:11.000Z</time>
      </trkpt>
      <trkpt lat="43.93928" lon="7.6085">
        <ele>1186.4000244141</ele>
        <time>2022-09-10T12:40:12.000Z</time>
      </trkpt>
      <trkpt lat="43.93928" lon="7.60847">
        <ele>1186.4000244141</ele>
        <time>2022-09-10T12:40:16.000Z</time>
      </trkpt>
      <trkpt lat="43.93927" lon="7.60845">
        <ele>1186.4000244141</ele>
        <time>2022-09-10T12:40:20.000Z</time>
      </trkpt>
      <trkpt lat="43.93927" lon="7.60836">
        <ele>1186.4000244141</ele>
        <time>2022-09-10T12:40:26.000Z</time>
      </trkpt>
      <trkpt lat="43.93929" lon="7.6083">
        <ele>1186.5999755859</ele>
        <time>2022-09-10T12:40:32.000Z</time>
      </trkpt>
      <trkpt lat="43.93931" lon="7.60824">
        <ele>1186.5999755859</ele>
        <time>2022-09-10T12:40:38.000Z</time>
      </trkpt>
      <trkpt lat="43.9393" lon="7.60824">
        <ele>1186.4000244141</ele>
        <time>2022-09-10T12:40:44.000Z</time>
      </trkpt>
      <trkpt lat="43.9393" lon="7.60824">
        <ele>1186.4000244141</ele>
        <time>2022-09-10T12:40:50.000Z</time>
      </trkpt>
      <trkpt lat="43.93931" lon="7.60822">
        <ele>1186.1999511719</ele>
        <time>2022-09-10T12:40:56.000Z</time>
      </trkpt>
      <trkpt lat="43.9393" lon="7.60822">
        <ele>1186.1999511719</ele>
        <time>2022-09-10T12:41:02.000Z</time>
      </trkpt>
      <trkpt lat="43.93926" lon="7.60831">
        <ele>1186.4000244141</ele>
        <time>2022-09-10T12:41:11.000Z</time>
      </trkpt>
      <trkpt lat="43.93925" lon="7.60841">
        <ele>1186.4000244141</ele>
        <time>2022-09-10T12:41:18.000Z</time>
      </trkpt>
      <trkpt lat="43.93924" lon="7.60842">
        <ele>1186.5999755859</ele>
        <time>2022-09-10T12:41:26.000Z</time>
      </trkpt>
      <trkpt lat="43.93924" lon="7.60847">
        <ele>1186.5999755859</ele>
        <time>2022-09-10T12:41:32.000Z</time>
      </trkpt>
      <trkpt lat="43.93924" lon="7.60848">
        <ele>1186.5999755859</ele>
        <time>2022-09-10T12:41:33.000Z</time>
      </trkpt>
      <trkpt lat="43.93924" lon="7.60842">
        <ele>1186.5999755859</ele>
        <time>2022-09-10T12:41:39.000Z</time>
      </trkpt>
      <trkpt lat="43.93925" lon="7.60836">
        <ele>1186.5999755859</ele>
        <time>2022-09-10T12:41:44.000Z</time>
      </trkpt>
      <trkpt lat="43.93923" lon="7.60838">
        <ele>1186.4000244141</ele>
        <time>2022-09-10T12:41:49.000Z</time>
      </trkpt>
      <trkpt lat="43.93924" lon="7.60838">
        <ele>1186.5999755859</ele>
        <time>2022-09-10T12:41:54.000Z</time>
      </trkpt>
      <trkpt lat="43.93923" lon="7.60835">
        <ele>1186.4000244141</ele>
        <time>2022-09-10T12:41:56.000Z</time>
      </trkpt>
      <trkpt lat="43.93923" lon="7.60833">
        <ele>1186.4000244141</ele>
        <time>2022-09-10T12:41:59.000Z</time>
      </trkpt>
      <trkpt lat="43.93925" lon="7.60837">
        <ele>1186.4000244141</ele>
        <time>2022-09-10T12:42:05.000Z</time>
      </trkpt>
      <trkpt lat="43.93926" lon="7.60842">
        <ele>1186.5999755859</ele>
        <time>2022-09-10T12:42:12.000Z</time>
      </trkpt>
      <trkpt lat="43.93927" lon="7.60845">
        <ele>1186.5999755859</ele>
        <time>2022-09-10T12:42:20.000Z</time>
      </trkpt>
      <trkpt lat="43.93927" lon="7.60848">
        <ele>1186.8000488281</ele>
        <time>2022-09-10T12:42:25.000Z</time>
      </trkpt>
      <trkpt lat="43.93928" lon="7.60851">
        <ele>1187</ele>
        <time>2022-09-10T12:42:28.000Z</time>
      </trkpt>
      <trkpt lat="43.93929" lon="7.60854">
        <ele>1186.8000488281</ele>
        <time>2022-09-10T12:42:30.000Z</time>
      </trkpt>
      <trkpt lat="43.93927" lon="7.60855">
        <ele>1187</ele>
        <time>2022-09-10T12:42:35.000Z</time>
      </trkpt>
      <trkpt lat="43.93927" lon="7.60852">
        <ele>1187</ele>
        <time>2022-09-10T12:42:40.000Z</time>
      </trkpt>
      <trkpt lat="43.93927" lon="7.60853">
        <ele>1186.8000488281</ele>
        <time>2022-09-10T12:42:46.000Z</time>
      </trkpt>
      <trkpt lat="43.93925" lon="7.60854">
        <ele>1186.5999755859</ele>
        <time>2022-09-10T12:42:51.000Z</time>
      </trkpt>
      <trkpt lat="43.93927" lon="7.60852">
        <ele>1186.5999755859</ele>
        <time>2022-09-10T12:42:57.000Z</time>
      </trkpt>
      <trkpt lat="43.93927" lon="7.60843">
        <ele>1186.8000488281</ele>
        <time>2022-09-10T12:43:04.000Z</time>
      </trkpt>
      <trkpt lat="43.93925" lon="7.60843">
        <ele>1186.5999755859</ele>
        <time>2022-09-10T12:43:06.000Z</time>
      </trkpt>
      <trkpt lat="43.93925" lon="7.60843">
        <ele>1186.5999755859</ele>
        <time>2022-09-10T12:43:09.000Z</time>
      </trkpt>
      <trkpt lat="43.93926" lon="7.60841">
        <ele>1186.5999755859</ele>
        <time>2022-09-10T12:43:10.000Z</time>
      </trkpt>
      <trkpt lat="43.93928" lon="7.60839">
        <ele>1186.8000488281</ele>
        <time>2022-09-10T12:43:14.000Z</time>
      </trkpt>
      <trkpt lat="43.93929" lon="7.60839">
        <ele>1186.5999755859</ele>
        <time>2022-09-10T12:43:19.000Z</time>
      </trkpt>
      <trkpt lat="43.9393" lon="7.60837">
        <ele>1186.5999755859</ele>
        <time>2022-09-10T12:43:24.000Z</time>
      </trkpt>
      <trkpt lat="43.93932" lon="7.60829">
        <ele>1186.8000488281</ele>
        <time>2022-09-10T12:43:29.000Z</time>
      </trkpt>
      <trkpt lat="43.93932" lon="7.60825">
        <ele>1186.8000488281</ele>
        <time>2022-09-10T12:43:34.000Z</time>
      </trkpt>
      <trkpt lat="43.93929" lon="7.60833">
        <ele>1186.8000488281</ele>
        <time>2022-09-10T12:43:40.000Z</time>
      </trkpt>
      <trkpt lat="43.93928" lon="7.60835">
        <ele>1186.8000488281</ele>
        <time>2022-09-10T12:43:45.000Z</time>
      </trkpt>
      <trkpt lat="43.93932" lon="7.60837">
        <ele>1187</ele>
        <time>2022-09-10T12:43:53.000Z</time>
      </trkpt>
      <trkpt lat="43.93947" lon="7.60801">
        <ele>1187</ele>
        <time>2022-09-10T12:44:09.000Z</time>
      </trkpt>
      <trkpt lat="43.93944" lon="7.60829">
        <ele>1187</ele>
        <time>2022-09-10T12:44:12.000Z</time>
      </trkpt>
      <trkpt lat="43.93935" lon="7.60846">
        <ele>1187</ele>
        <time>2022-09-10T12:44:15.000Z</time>
      </trkpt>
      <trkpt lat="43.93932" lon="7.60854">
        <ele>1187</ele>
        <time>2022-09-10T12:44:18.000Z</time>
      </trkpt>
      <trkpt lat="43.9393" lon="7.60852">
        <ele>1187</ele>
        <time>2022-09-10T12:44:23.000Z</time>
      </trkpt>
      <trkpt lat="43.93928" lon="7.60856">
        <ele>1187</ele>
        <time>2022-09-10T12:44:30.000Z</time>
      </trkpt>
      <trkpt lat="43.93933" lon="7.60858">
        <ele>1187</ele>
        <time>2022-09-10T12:44:34.000Z</time>
      </trkpt>
      <trkpt lat="43.93934" lon="7.60861">
        <ele>1187</ele>
        <time>2022-09-10T12:44:38.000Z</time>
      </trkpt>
      <trkpt lat="43.93935" lon="7.60856">
        <ele>1187</ele>
        <time>2022-09-10T12:44:45.000Z</time>
      </trkpt>
      <trkpt lat="43.93934" lon="7.60859">
        <ele>1186.8000488281</ele>
        <time>2022-09-10T12:44:52.000Z</time>
      </trkpt>
      <trkpt lat="43.93922" lon="7.60908">
        <ele>1186.8000488281</ele>
        <time>2022-09-10T12:45:23.000Z</time>
      </trkpt>
      <trkpt lat="43.93922" lon="7.60911">
        <ele>1186.8000488281</ele>
        <time>2022-09-10T12:45:24.000Z</time>
      </trkpt>
      <trkpt lat="43.93907" lon="7.60846">
        <ele>1186.1999511719</ele>
        <time>2022-09-10T12:46:54.000Z</time>
      </trkpt>
      <trkpt lat="43.93918" lon="7.60854">
        <ele>1186.1999511719</ele>
        <time>2022-09-10T12:47:01.000Z</time>
      </trkpt>
      <trkpt lat="43.93923" lon="7.6089">
        <ele>1186</ele>
        <time>2022-09-10T12:47:25.000Z</time>
      </trkpt>
      <trkpt lat="43.93918" lon="7.60882">
        <ele>1186</ele>
        <time>2022-09-10T12:47:27.000Z</time>
      </trkpt>
      <trkpt lat="43.93916" lon="7.60872">
        <ele>1185.8000488281</ele>
        <time>2022-09-10T12:47:29.000Z</time>
      </trkpt>
      <trkpt lat="43.9391" lon="7.6084">
        <ele>1186</ele>
        <time>2022-09-10T12:47:33.000Z</time>
      </trkpt>
      <trkpt lat="43.93909" lon="7.60837">
        <ele>1186</ele>
        <time>2022-09-10T12:47:34.000Z</time>
      </trkpt>
      <trkpt lat="43.93902" lon="7.60808">
        <ele>1186</ele>
        <time>2022-09-10T12:47:38.000Z</time>
      </trkpt>
      <trkpt lat="43.93903" lon="7.60797">
        <ele>1186.1999511719</ele>
        <time>2022-09-10T12:47:40.000Z</time>
      </trkpt>
      <trkpt lat="43.93907" lon="7.60776">
        <ele>1186.1999511719</ele>
        <time>2022-09-10T12:47:44.000Z</time>
      </trkpt>
      <trkpt lat="43.93925" lon="7.60865">
        <ele>1186.4000244141</ele>
        <time>2022-09-10T12:48:39.000Z</time>
      </trkpt>
      <trkpt lat="43.9394" lon="7.608">
        <ele>1186.1999511719</ele>
        <time>2022-09-10T12:48:44.000Z</time>
      </trkpt>
      <trkpt lat="43.93928" lon="7.60851">
        <ele>1186.4000244141</ele>
        <time>2022-09-10T12:48:50.000Z</time>
      </trkpt>
      <trkpt lat="43.93929" lon="7.60854">
        <ele>1186.4000244141</ele>
        <time>2022-09-10T12:49:07.000Z</time>
      </trkpt>
      <trkpt lat="43.93929" lon="7.60853">
        <ele>1186.4000244141</ele>
        <time>2022-09-10T12:49:08.000Z</time>
      </trkpt>
      <trkpt lat="43.93927" lon="7.60857">
        <ele>1186.4000244141</ele>
        <time>2022-09-10T12:49:11.000Z</time>
      </trkpt>
      <trkpt lat="43.93927" lon="7.60857">
        <ele>1186.1999511719</ele>
        <time>2022-09-10T12:49:18.000Z</time>
      </trkpt>
      <trkpt lat="43.93924" lon="7.60847">
        <ele>1186.1999511719</ele>
        <time>2022-09-10T12:49:23.000Z</time>
      </trkpt>
      <trkpt lat="43.93925" lon="7.60848">
        <ele>1186.1999511719</ele>
        <time>2022-09-10T12:49:25.000Z</time>
      </trkpt>
      <trkpt lat="43.93932" lon="7.6085">
        <ele>1186.1999511719</ele>
        <time>2022-09-10T12:49:37.000Z</time>
      </trkpt>
      <trkpt lat="43.93932" lon="7.60852">
        <ele>1186.4000244141</ele>
        <time>2022-09-10T12:49:43.000Z</time>
      </trkpt>
      <trkpt lat="43.93922" lon="7.60854">
        <ele>1186.4000244141</ele>
        <time>2022-09-10T12:49:52.000Z</time>
      </trkpt>
      <trkpt lat="43.93922" lon="7.60864">
        <ele>1186.1999511719</ele>
        <time>2022-09-10T12:49:56.000Z</time>
      </trkpt>
      <trkpt lat="43.93921" lon="7.60873">
        <ele>1186.1999511719</ele>
        <time>2022-09-10T12:50:02.000Z</time>
      </trkpt>
      <trkpt lat="43.9392" lon="7.60874">
        <ele>1186.1999511719</ele>
        <time>2022-09-10T12:50:04.000Z</time>
      </trkpt>
      <trkpt lat="43.93926" lon="7.60851">
        <ele>1186.5999755859</ele>
        <time>2022-09-10T12:50:24.000Z</time>
      </trkpt>
      <trkpt lat="43.93927" lon="7.60861">
        <ele>1186.4000244141</ele>
        <time>2022-09-10T12:50:26.000Z</time>
      </trkpt>
      <trkpt lat="43.93928" lon="7.60874">
        <ele>1186.5999755859</ele>
        <time>2022-09-10T12:50:30.000Z</time>
      </trkpt>
      <trkpt lat="43.93926" lon="7.60874">
        <ele>1186.5999755859</ele>
        <time>2022-09-10T12:50:38.000Z</time>
      </trkpt>
      <trkpt lat="43.93926" lon="7.60875">
        <ele>1186.5999755859</ele>
        <time>2022-09-10T12:50:46.000Z</time>
      </trkpt>
      <trkpt lat="43.93928" lon="7.60875">
        <ele>1186.5999755859</ele>
        <time>2022-09-10T12:50:50.000Z</time>
      </trkpt>
      <trkpt lat="43.93928" lon="7.60875">
        <ele>1186.5999755859</ele>
        <time>2022-09-10T12:50:51.000Z</time>
      </trkpt>
      <trkpt lat="43.93926" lon="7.60865">
        <ele>1186.5999755859</ele>
        <time>2022-09-10T12:50:56.000Z</time>
      </trkpt>
      <trkpt lat="43.93924" lon="7.60862">
        <ele>1186.5999755859</ele>
        <time>2022-09-10T12:50:57.000Z</time>
      </trkpt>
      <trkpt lat="43.93918" lon="7.60851">
        <ele>1186.5999755859</ele>
        <time>2022-09-10T12:51:01.000Z</time>
      </trkpt>
      <trkpt lat="43.93916" lon="7.6085">
        <ele>1186.5999755859</ele>
        <time>2022-09-10T12:51:02.000Z</time>
      </trkpt>
      <trkpt lat="43.93913" lon="7.60847">
        <ele>1186.5999755859</ele>
        <time>2022-09-10T12:51:05.000Z</time>
      </trkpt>
      <trkpt lat="43.93913" lon="7.60847">
        <ele>1186.5999755859</ele>
        <time>2022-09-10T12:51:07.000Z</time>
      </trkpt>
      <trkpt lat="43.93916" lon="7.60848">
        <ele>1186.4000244141</ele>
        <time>2022-09-10T12:51:13.000Z</time>
      </trkpt>
      <trkpt lat="43.93919" lon="7.60854">
        <ele>1186.1999511719</ele>
        <time>2022-09-10T12:51:19.000Z</time>
      </trkpt>
      <trkpt lat="43.93921" lon="7.6086">
        <ele>1186.4000244141</ele>
        <time>2022-09-10T12:51:24.000Z</time>
      </trkpt>
      <trkpt lat="43.93922" lon="7.60866">
        <ele>1187</ele>
        <time>2022-09-10T12:51:33.000Z</time>
      </trkpt>
      <trkpt lat="43.93925" lon="7.6087">
        <ele>1187</ele>
        <time>2022-09-10T12:51:44.000Z</time>
      </trkpt>
      <trkpt lat="43.93925" lon="7.6087">
        <ele>1186.4000244141</ele>
        <time>2022-09-10T12:51:50.000Z</time>
      </trkpt>
      <trkpt lat="43.93927" lon="7.6087">
        <ele>1186.4000244141</ele>
        <time>2022-09-10T12:51:54.000Z</time>
      </trkpt>
      <trkpt lat="43.93927" lon="7.60869">
        <ele>1186.4000244141</ele>
        <time>2022-09-10T12:51:55.000Z</time>
      </trkpt>
      <trkpt lat="43.93927" lon="7.60862">
        <ele>1186.4000244141</ele>
        <time>2022-09-10T12:52:01.000Z</time>
      </trkpt>
      <trkpt lat="43.93926" lon="7.60862">
        <ele>1186.5999755859</ele>
        <time>2022-09-10T12:52:07.000Z</time>
      </trkpt>
      <trkpt lat="43.93922" lon="7.60855">
        <ele>1186.8000488281</ele>
        <time>2022-09-10T12:52:15.000Z</time>
      </trkpt>
      <trkpt lat="43.93921" lon="7.6085">
        <ele>1186.8000488281</ele>
        <time>2022-09-10T12:52:23.000Z</time>
      </trkpt>
      <trkpt lat="43.93919" lon="7.60854">
        <ele>1186.8000488281</ele>
        <time>2022-09-10T12:52:30.000Z</time>
      </trkpt>
      <trkpt lat="43.93919" lon="7.60855">
        <ele>1186.8000488281</ele>
        <time>2022-09-10T12:52:35.000Z</time>
      </trkpt>
      <trkpt lat="43.93918" lon="7.60854">
        <ele>1187</ele>
        <time>2022-09-10T12:52:36.000Z</time>
      </trkpt>
      <trkpt lat="43.93917" lon="7.60851">
        <ele>1186.8000488281</ele>
        <time>2022-09-10T12:52:40.000Z</time>
      </trkpt>
      <trkpt lat="43.93917" lon="7.6085">
        <ele>1186.1999511719</ele>
        <time>2022-09-10T12:52:47.000Z</time>
      </trkpt>
      <trkpt lat="43.93913" lon="7.60845">
        <ele>1186</ele>
        <time>2022-09-10T12:52:51.000Z</time>
      </trkpt>
      <trkpt lat="43.93917" lon="7.60852">
        <ele>1186.1999511719</ele>
        <time>2022-09-10T12:52:55.000Z</time>
      </trkpt>
      <trkpt lat="43.93919" lon="7.60858">
        <ele>1186.1999511719</ele>
        <time>2022-09-10T12:53:03.000Z</time>
      </trkpt>
      <trkpt lat="43.93921" lon="7.60865">
        <ele>1186.1999511719</ele>
        <time>2022-09-10T12:53:12.000Z</time>
      </trkpt>
      <trkpt lat="43.93921" lon="7.60868">
        <ele>1186.1999511719</ele>
        <time>2022-09-10T12:53:17.000Z</time>
      </trkpt>
      <trkpt lat="43.93921" lon="7.60863">
        <ele>1186.1999511719</ele>
        <time>2022-09-10T12:53:22.000Z</time>
      </trkpt>
      <trkpt lat="43.93921" lon="7.60861">
        <ele>1186.1999511719</ele>
        <time>2022-09-10T12:53:23.000Z</time>
      </trkpt>
      <trkpt lat="43.93921" lon="7.60863">
        <ele>1186.4000244141</ele>
        <time>2022-09-10T12:53:26.000Z</time>
      </trkpt>
      <trkpt lat="43.93921" lon="7.60863">
        <ele>1186.4000244141</ele>
        <time>2022-09-10T12:53:27.000Z</time>
      </trkpt>
      <trkpt lat="43.93922" lon="7.60862">
        <ele>1186.8000488281</ele>
        <time>2022-09-10T12:53:32.000Z</time>
      </trkpt>
      <trkpt lat="43.93918" lon="7.60852">
        <ele>1186.8000488281</ele>
        <time>2022-09-10T12:53:38.000Z</time>
      </trkpt>
      <trkpt lat="43.93917" lon="7.60845">
        <ele>1186.8000488281</ele>
        <time>2022-09-10T12:53:43.000Z</time>
      </trkpt>
      <trkpt lat="43.93917" lon="7.60844">
        <ele>1186.8000488281</ele>
        <time>2022-09-10T12:53:44.000Z</time>
      </trkpt>
      <trkpt lat="43.93918" lon="7.60846">
        <ele>1186.5999755859</ele>
        <time>2022-09-10T12:53:48.000Z</time>
      </trkpt>
      <trkpt lat="43.93915" lon="7.60829">
        <ele>1187</ele>
        <time>2022-09-10T12:54:05.000Z</time>
      </trkpt>
      <trkpt lat="43.93903" lon="7.60796">
        <ele>1187</ele>
        <time>2022-09-10T12:54:22.000Z</time>
      </trkpt>
      <trkpt lat="43.93909" lon="7.60818">
        <ele>1187.1999511719</ele>
        <time>2022-09-10T12:54:27.000Z</time>
      </trkpt>
      <trkpt lat="43.93916" lon="7.60853">
        <ele>1187</ele>
        <time>2022-09-10T12:54:33.000Z</time>
      </trkpt>
      <trkpt lat="43.93917" lon="7.60858">
        <ele>1187</ele>
        <time>2022-09-10T12:54:35.000Z</time>
      </trkpt>
      <trkpt lat="43.93923" lon="7.60862">
        <ele>1187</ele>
        <time>2022-09-10T12:54:38.000Z</time>
      </trkpt>
      <trkpt lat="43.93926" lon="7.6087">
        <ele>1187</ele>
        <time>2022-09-10T12:54:42.000Z</time>
      </trkpt>
      <trkpt lat="43.93925" lon="7.60867">
        <ele>1187</ele>
        <time>2022-09-10T12:54:48.000Z</time>
      </trkpt>
      <trkpt lat="43.93923" lon="7.60866">
        <ele>1186.8000488281</ele>
        <time>2022-09-10T12:54:49.000Z</time>
      </trkpt>
      <trkpt lat="43.93922" lon="7.60864">
        <ele>1186.8000488281</ele>
        <time>2022-09-10T12:54:54.000Z</time>
      </trkpt>
      <trkpt lat="43.93922" lon="7.60862">
        <ele>1186.8000488281</ele>
        <time>2022-09-10T12:54:58.000Z</time>
      </trkpt>
      <trkpt lat="43.93921" lon="7.6086">
        <ele>1186.5999755859</ele>
        <time>2022-09-10T12:55:00.000Z</time>
      </trkpt>
      <trkpt lat="43.93922" lon="7.60856">
        <ele>1186.5999755859</ele>
        <time>2022-09-10T12:55:04.000Z</time>
      </trkpt>
      <trkpt lat="43.93923" lon="7.6085">
        <ele>1187</ele>
        <time>2022-09-10T12:55:08.000Z</time>
      </trkpt>
      <trkpt lat="43.93927" lon="7.60856">
        <ele>1187</ele>
        <time>2022-09-10T12:55:13.000Z</time>
      </trkpt>
      <trkpt lat="43.93927" lon="7.60857">
        <ele>1187</ele>
        <time>2022-09-10T12:55:18.000Z</time>
      </trkpt>
      <trkpt lat="43.93929" lon="7.60858">
        <ele>1187.1999511719</ele>
        <time>2022-09-10T12:55:24.000Z</time>
      </trkpt>
      <trkpt lat="43.93931" lon="7.60855">
        <ele>1187.1999511719</ele>
        <time>2022-09-10T12:55:30.000Z</time>
      </trkpt>
      <trkpt lat="43.93931" lon="7.60855">
        <ele>1187.1999511719</ele>
        <time>2022-09-10T12:55:35.000Z</time>
      </trkpt>
      <trkpt lat="43.93934" lon="7.60861">
        <ele>1187.4000244141</ele>
        <time>2022-09-10T12:55:42.000Z</time>
      </trkpt>
      <trkpt lat="43.93934" lon="7.60864">
        <ele>1187.4000244141</ele>
        <time>2022-09-10T12:55:49.000Z</time>
      </trkpt>
      <trkpt lat="43.93933" lon="7.6086">
        <ele>1187.1999511719</ele>
        <time>2022-09-10T12:55:55.000Z</time>
      </trkpt>
      <trkpt lat="43.93936" lon="7.60861">
        <ele>1187.1999511719</ele>
        <time>2022-09-10T12:56:00.000Z</time>
      </trkpt>
      <trkpt lat="43.93934" lon="7.6086">
        <ele>1187.1999511719</ele>
        <time>2022-09-10T12:56:04.000Z</time>
      </trkpt>
      <trkpt lat="43.93934" lon="7.60859">
        <ele>1187.1999511719</ele>
        <time>2022-09-10T12:56:05.000Z</time>
      </trkpt>
      <trkpt lat="43.93934" lon="7.60858">
        <ele>1187.4000244141</ele>
        <time>2022-09-10T12:56:10.000Z</time>
      </trkpt>
      <trkpt lat="43.93933" lon="7.60858">
        <ele>1187.4000244141</ele>
        <time>2022-09-10T12:56:16.000Z</time>
      </trkpt>
      <trkpt lat="43.9393" lon="7.60857">
        <ele>1187.5999755859</ele>
        <time>2022-09-10T12:56:22.000Z</time>
      </trkpt>
      <trkpt lat="43.93929" lon="7.60857">
        <ele>1187.5999755859</ele>
        <time>2022-09-10T12:56:25.000Z</time>
      </trkpt>
      <trkpt lat="43.93927" lon="7.60854">
        <ele>1187.5999755859</ele>
        <time>2022-09-10T12:56:28.000Z</time>
      </trkpt>
      <trkpt lat="43.93927" lon="7.60854">
        <ele>1187.5999755859</ele>
        <time>2022-09-10T12:56:29.000Z</time>
      </trkpt>
      <trkpt lat="43.93928" lon="7.60856">
        <ele>1187.5999755859</ele>
        <time>2022-09-10T12:56:30.000Z</time>
      </trkpt>
      <trkpt lat="43.93928" lon="7.60855">
        <ele>1187.5999755859</ele>
        <time>2022-09-10T12:56:33.000Z</time>
      </trkpt>
      <trkpt lat="43.93929" lon="7.60861">
        <ele>1187.5999755859</ele>
        <time>2022-09-10T12:56:38.000Z</time>
      </trkpt>
      <trkpt lat="43.93929" lon="7.60863">
        <ele>1187.5999755859</ele>
        <time>2022-09-10T12:56:44.000Z</time>
      </trkpt>
      <trkpt lat="43.93927" lon="7.60864">
        <ele>1187.4000244141</ele>
        <time>2022-09-10T12:56:53.000Z</time>
      </trkpt>
      <trkpt lat="43.9393" lon="7.60875">
        <ele>1187.4000244141</ele>
        <time>2022-09-10T12:57:00.000Z</time>
      </trkpt>
      <trkpt lat="43.93925" lon="7.60868">
        <ele>1187.4000244141</ele>
        <time>2022-09-10T12:57:05.000Z</time>
      </trkpt>
      <trkpt lat="43.93924" lon="7.60865">
        <ele>1187.4000244141</ele>
        <time>2022-09-10T12:57:06.000Z</time>
      </trkpt>
      <trkpt lat="43.93922" lon="7.6086">
        <ele>1187.4000244141</ele>
        <time>2022-09-10T12:57:08.000Z</time>
      </trkpt>
      <trkpt lat="43.93923" lon="7.60862">
        <ele>1187.5999755859</ele>
        <time>2022-09-10T12:57:11.000Z</time>
      </trkpt>
      <trkpt lat="43.93924" lon="7.60862">
        <ele>1187.5999755859</ele>
        <time>2022-09-10T12:57:15.000Z</time>
      </trkpt>
      <trkpt lat="43.93924" lon="7.60861">
        <ele>1187.5999755859</ele>
        <time>2022-09-10T12:57:17.000Z</time>
      </trkpt>
      <trkpt lat="43.93922" lon="7.60855">
        <ele>1187.5999755859</ele>
        <time>2022-09-10T12:57:22.000Z</time>
      </trkpt>
      <trkpt lat="43.93922" lon="7.60854">
        <ele>1187.5999755859</ele>
        <time>2022-09-10T12:57:25.000Z</time>
      </trkpt>
      <trkpt lat="43.93921" lon="7.60855">
        <ele>1187.4000244141</ele>
        <time>2022-09-10T12:57:27.000Z</time>
      </trkpt>
      <trkpt lat="43.93923" lon="7.60862">
        <ele>1187.1999511719</ele>
        <time>2022-09-10T12:57:31.000Z</time>
      </trkpt>
      <trkpt lat="43.93924" lon="7.60863">
        <ele>1187.4000244141</ele>
        <time>2022-09-10T12:57:35.000Z</time>
      </trkpt>
      <trkpt lat="43.93924" lon="7.60863">
        <ele>1187.4000244141</ele>
        <time>2022-09-10T12:57:36.000Z</time>
      </trkpt>
      <trkpt lat="43.93925" lon="7.60868">
        <ele>1187.4000244141</ele>
        <time>2022-09-10T12:57:42.000Z</time>
      </trkpt>
      <trkpt lat="43.93927" lon="7.60867">
        <ele>1187.4000244141</ele>
        <time>2022-09-10T12:57:47.000Z</time>
      </trkpt>
      <trkpt lat="43.93927" lon="7.60864">
        <ele>1187.4000244141</ele>
        <time>2022-09-10T12:57:51.000Z</time>
      </trkpt>
      <trkpt lat="43.93925" lon="7.60864">
        <ele>1187.8000488281</ele>
        <time>2022-09-10T12:57:57.000Z</time>
      </trkpt>
      <trkpt lat="43.93925" lon="7.60863">
        <ele>1187.5999755859</ele>
        <time>2022-09-10T12:58:02.000Z</time>
      </trkpt>
      <trkpt lat="43.93928" lon="7.60865">
        <ele>1187.5999755859</ele>
        <time>2022-09-10T12:58:05.000Z</time>
      </trkpt>
      <trkpt lat="43.93928" lon="7.60867">
        <ele>1187.8000488281</ele>
        <time>2022-09-10T12:58:08.000Z</time>
      </trkpt>
      <trkpt lat="43.93927" lon="7.60864">
        <ele>1187.8000488281</ele>
        <time>2022-09-10T12:58:10.000Z</time>
      </trkpt>
      <trkpt lat="43.93926" lon="7.6086">
        <ele>1187.8000488281</ele>
        <time>2022-09-10T12:58:12.000Z</time>
      </trkpt>
      <trkpt lat="43.93918" lon="7.60843">
        <ele>1187.8000488281</ele>
        <time>2022-09-10T12:58:17.000Z</time>
      </trkpt>
      <trkpt lat="43.93917" lon="7.60827">
        <ele>1187.8000488281</ele>
        <time>2022-09-10T12:58:22.000Z</time>
      </trkpt>
      <trkpt lat="43.93909" lon="7.6081">
        <ele>1187.8000488281</ele>
        <time>2022-09-10T12:58:28.000Z</time>
      </trkpt>
      <trkpt lat="43.9391" lon="7.60815">
        <ele>1188</ele>
        <time>2022-09-10T12:58:39.000Z</time>
      </trkpt>
      <trkpt lat="43.93914" lon="7.60823">
        <ele>1188</ele>
        <time>2022-09-10T12:58:43.000Z</time>
      </trkpt>
      <trkpt lat="43.93923" lon="7.60839">
        <ele>1187.8000488281</ele>
        <time>2022-09-10T12:58:49.000Z</time>
      </trkpt>
      <trkpt lat="43.93925" lon="7.60842">
        <ele>1187.8000488281</ele>
        <time>2022-09-10T12:58:50.000Z</time>
      </trkpt>
      <trkpt lat="43.93931" lon="7.6085">
        <ele>1187.5999755859</ele>
        <time>2022-09-10T12:58:54.000Z</time>
      </trkpt>
      <trkpt lat="43.93931" lon="7.6085">
        <ele>1187.5999755859</ele>
        <time>2022-09-10T12:58:55.000Z</time>
      </trkpt>
      <trkpt lat="43.93929" lon="7.60859">
        <ele>1187.8000488281</ele>
        <time>2022-09-10T12:59:00.000Z</time>
      </trkpt>
      <trkpt lat="43.93928" lon="7.60859">
        <ele>1187.8000488281</ele>
        <time>2022-09-10T12:59:01.000Z</time>
      </trkpt>
      <trkpt lat="43.93928" lon="7.60859">
        <ele>1188</ele>
        <time>2022-09-10T12:59:03.000Z</time>
      </trkpt>
      <trkpt lat="43.93927" lon="7.60861">
        <ele>1187.8000488281</ele>
        <time>2022-09-10T12:59:06.000Z</time>
      </trkpt>
      <trkpt lat="43.93928" lon="7.60863">
        <ele>1187.8000488281</ele>
        <time>2022-09-10T12:59:07.000Z</time>
      </trkpt>
      <trkpt lat="43.93931" lon="7.6087">
        <ele>1187.8000488281</ele>
        <time>2022-09-10T12:59:10.000Z</time>
      </trkpt>
      <trkpt lat="43.93937" lon="7.60876">
        <ele>1188</ele>
        <time>2022-09-10T12:59:14.000Z</time>
      </trkpt>
      <trkpt lat="43.93946" lon="7.60883">
        <ele>1187.8000488281</ele>
        <time>2022-09-10T12:59:19.000Z</time>
      </trkpt>
      <trkpt lat="43.93945" lon="7.60882">
        <ele>1188</ele>
        <time>2022-09-10T12:59:23.000Z</time>
      </trkpt>
      <trkpt lat="43.93914" lon="7.60866">
        <ele>1187.5999755859</ele>
        <time>2022-09-10T12:59:55.000Z</time>
      </trkpt>
      <trkpt lat="43.93902" lon="7.60853">
        <ele>1187.8000488281</ele>
        <time>2022-09-10T13:00:00.000Z</time>
      </trkpt>
      <trkpt lat="43.93926" lon="7.6086">
        <ele>1187.5999755859</ele>
        <time>2022-09-10T13:00:07.000Z</time>
      </trkpt>
      <trkpt lat="43.93921" lon="7.60868">
        <ele>1187.5999755859</ele>
        <time>2022-09-10T13:00:21.000Z</time>
      </trkpt>
      <trkpt lat="43.93919" lon="7.60868">
        <ele>1187.5999755859</ele>
        <time>2022-09-10T13:00:22.000Z</time>
      </trkpt>
      <trkpt lat="43.93916" lon="7.60864">
        <ele>1187.4000244141</ele>
        <time>2022-09-10T13:00:30.000Z</time>
      </trkpt>
      <trkpt lat="43.93918" lon="7.60864">
        <ele>1187.4000244141</ele>
        <time>2022-09-10T13:00:33.000Z</time>
      </trkpt>
      <trkpt lat="43.93922" lon="7.6087">
        <ele>1187.4000244141</ele>
        <time>2022-09-10T13:00:36.000Z</time>
      </trkpt>
      <trkpt lat="43.93925" lon="7.60878">
        <ele>1187.1999511719</ele>
        <time>2022-09-10T13:00:41.000Z</time>
      </trkpt>
      <trkpt lat="43.93933" lon="7.60895">
        <ele>1187.1999511719</ele>
        <time>2022-09-10T13:00:45.000Z</time>
      </trkpt>
      <trkpt lat="43.93928" lon="7.60874">
        <ele>1187.8000488281</ele>
        <time>2022-09-10T13:01:13.000Z</time>
      </trkpt>
      <trkpt lat="43.93929" lon="7.60869">
        <ele>1187.8000488281</ele>
        <time>2022-09-10T13:01:17.000Z</time>
      </trkpt>
      <trkpt lat="43.93932" lon="7.60869">
        <ele>1187.5999755859</ele>
        <time>2022-09-10T13:01:20.000Z</time>
      </trkpt>
      <trkpt lat="43.93939" lon="7.60886">
        <ele>1187.4000244141</ele>
        <time>2022-09-10T13:01:54.000Z</time>
      </trkpt>
      <trkpt lat="43.93937" lon="7.60883">
        <ele>1187.5999755859</ele>
        <time>2022-09-10T13:01:56.000Z</time>
      </trkpt>
      <trkpt lat="43.93924" lon="7.60864">
        <ele>1187.5999755859</ele>
        <time>2022-09-10T13:02:02.000Z</time>
      </trkpt>
      <trkpt lat="43.93923" lon="7.60864">
        <ele>1187.5999755859</ele>
        <time>2022-09-10T13:02:08.000Z</time>
      </trkpt>
      <trkpt lat="43.93923" lon="7.60864">
        <ele>1187.5999755859</ele>
        <time>2022-09-10T13:02:09.000Z</time>
      </trkpt>
      <trkpt lat="43.93923" lon="7.60863">
        <ele>1187.5999755859</ele>
        <time>2022-09-10T13:02:13.000Z</time>
      </trkpt>
      <trkpt lat="43.93923" lon="7.60864">
        <ele>1187.8000488281</ele>
        <time>2022-09-10T13:02:18.000Z</time>
      </trkpt>
      <trkpt lat="43.93921" lon="7.60863">
        <ele>1187.8000488281</ele>
        <time>2022-09-10T13:02:24.000Z</time>
      </trkpt>
      <trkpt lat="43.93924" lon="7.60863">
        <ele>1187.8000488281</ele>
        <time>2022-09-10T13:02:29.000Z</time>
      </trkpt>
      <trkpt lat="43.93927" lon="7.60865">
        <ele>1187.8000488281</ele>
        <time>2022-09-10T13:02:34.000Z</time>
      </trkpt>
      <trkpt lat="43.93931" lon="7.60866">
        <ele>1188</ele>
        <time>2022-09-10T13:02:41.000Z</time>
      </trkpt>
      <trkpt lat="43.93933" lon="7.60865">
        <ele>1188</ele>
        <time>2022-09-10T13:02:47.000Z</time>
      </trkpt>
      <trkpt lat="43.93934" lon="7.60859">
        <ele>1187.5999755859</ele>
        <time>2022-09-10T13:02:53.000Z</time>
      </trkpt>
      <trkpt lat="43.93952" lon="7.6087">
        <ele>1188.4000244141</ele>
        <time>2022-09-10T13:03:10.000Z</time>
      </trkpt>
      <trkpt lat="43.93952" lon="7.60869">
        <ele>1188.4000244141</ele>
        <time>2022-09-10T13:03:14.000Z</time>
      </trkpt>
      <trkpt lat="43.93949" lon="7.60852">
        <ele>1188.1999511719</ele>
        <time>2022-09-10T13:03:36.000Z</time>
      </trkpt>
      <trkpt lat="43.9394" lon="7.60876">
        <ele>1187.5999755859</ele>
        <time>2022-09-10T13:04:07.000Z</time>
      </trkpt>
      <trkpt lat="43.93941" lon="7.60881">
        <ele>1187.5999755859</ele>
        <time>2022-09-10T13:04:08.000Z</time>
      </trkpt>
      <trkpt lat="43.93964" lon="7.60936">
        <ele>1188.5999755859</ele>
        <time>2022-09-10T13:04:41.000Z</time>
      </trkpt>
      <trkpt lat="43.93955" lon="7.60915">
        <ele>1188.5999755859</ele>
        <time>2022-09-10T13:04:42.000Z</time>
      </trkpt>
      <trkpt lat="43.93938" lon="7.6088">
        <ele>1188.5999755859</ele>
        <time>2022-09-10T13:04:52.000Z</time>
      </trkpt>
      <trkpt lat="43.93935" lon="7.60873">
        <ele>1188.5999755859</ele>
        <time>2022-09-10T13:05:00.000Z</time>
      </trkpt>
      <trkpt lat="43.93935" lon="7.60873">
        <ele>1188.4000244141</ele>
        <time>2022-09-10T13:05:09.000Z</time>
      </trkpt>
      <trkpt lat="43.93934" lon="7.60872">
        <ele>1188.5999755859</ele>
        <time>2022-09-10T13:05:14.000Z</time>
      </trkpt>
      <trkpt lat="43.93932" lon="7.60866">
        <ele>1188.5999755859</ele>
        <time>2022-09-10T13:05:21.000Z</time>
      </trkpt>
      <trkpt lat="43.9393" lon="7.60863">
        <ele>1188.4000244141</ele>
        <time>2022-09-10T13:05:30.000Z</time>
      </trkpt>
      <trkpt lat="43.93929" lon="7.60861">
        <ele>1188.4000244141</ele>
        <time>2022-09-10T13:05:31.000Z</time>
      </trkpt>
      <trkpt lat="43.93925" lon="7.60859">
        <ele>1188.1999511719</ele>
        <time>2022-09-10T13:05:35.000Z</time>
      </trkpt>
      <trkpt lat="43.93926" lon="7.6086">
        <ele>1188.5999755859</ele>
        <time>2022-09-10T13:05:40.000Z</time>
      </trkpt>
      <trkpt lat="43.9393" lon="7.60871">
        <ele>1188.4000244141</ele>
        <time>2022-09-10T13:05:56.000Z</time>
      </trkpt>
      <trkpt lat="43.93928" lon="7.60868">
        <ele>1188.5999755859</ele>
        <time>2022-09-10T13:05:57.000Z</time>
      </trkpt>
      <trkpt lat="43.93923" lon="7.60865">
        <ele>1188.4000244141</ele>
        <time>2022-09-10T13:06:00.000Z</time>
      </trkpt>
      <trkpt lat="43.93925" lon="7.60868">
        <ele>1188.4000244141</ele>
        <time>2022-09-10T13:06:02.000Z</time>
      </trkpt>
      <trkpt lat="43.93925" lon="7.60872">
        <ele>1188.4000244141</ele>
        <time>2022-09-10T13:06:04.000Z</time>
      </trkpt>
      <trkpt lat="43.93928" lon="7.60876">
        <ele>1188.5999755859</ele>
        <time>2022-09-10T13:06:08.000Z</time>
      </trkpt>
      <trkpt lat="43.93928" lon="7.60876">
        <ele>1188.5999755859</ele>
        <time>2022-09-10T13:06:09.000Z</time>
      </trkpt>
      <trkpt lat="43.93926" lon="7.60873">
        <ele>1188.5999755859</ele>
        <time>2022-09-10T13:06:14.000Z</time>
      </trkpt>
      <trkpt lat="43.9394" lon="7.60889">
        <ele>1188.5999755859</ele>
        <time>2022-09-10T13:07:36.000Z</time>
      </trkpt>
      <trkpt lat="43.93929" lon="7.6087">
        <ele>1189</ele>
        <time>2022-09-10T13:07:42.000Z</time>
      </trkpt>
      <trkpt lat="43.9393" lon="7.60867">
        <ele>1189.1999511719</ele>
        <time>2022-09-10T13:07:47.000Z</time>
      </trkpt>
      <trkpt lat="43.93932" lon="7.6087">
        <ele>1189</ele>
        <time>2022-09-10T13:07:49.000Z</time>
      </trkpt>
      <trkpt lat="43.93933" lon="7.6087">
        <ele>1188.8000488281</ele>
        <time>2022-09-10T13:07:52.000Z</time>
      </trkpt>
      <trkpt lat="43.93933" lon="7.60866">
        <ele>1188.5999755859</ele>
        <time>2022-09-10T13:07:54.000Z</time>
      </trkpt>
      <trkpt lat="43.93932" lon="7.60862">
        <ele>1188.5999755859</ele>
        <time>2022-09-10T13:07:56.000Z</time>
      </trkpt>
      <trkpt lat="43.93923" lon="7.60839">
        <ele>1188.4000244141</ele>
        <time>2022-09-10T13:08:41.000Z</time>
      </trkpt>
      <trkpt lat="43.93922" lon="7.60839">
        <ele>1188.4000244141</ele>
        <time>2022-09-10T13:08:42.000Z</time>
      </trkpt>
      <trkpt lat="43.93928" lon="7.60855">
        <ele>1188.4000244141</ele>
        <time>2022-09-10T13:08:48.000Z</time>
      </trkpt>
      <trkpt lat="43.9395" lon="7.60881">
        <ele>1189</ele>
        <time>2022-09-10T13:10:02.000Z</time>
      </trkpt>
      <trkpt lat="43.9393" lon="7.60864">
        <ele>1188.4000244141</ele>
        <time>2022-09-10T13:10:46.000Z</time>
      </trkpt>
      <trkpt lat="43.9394" lon="7.60861">
        <ele>1188.4000244141</ele>
        <time>2022-09-10T13:10:50.000Z</time>
      </trkpt>
      <trkpt lat="43.9394" lon="7.60859">
        <ele>1188.4000244141</ele>
        <time>2022-09-10T13:10:52.000Z</time>
      </trkpt>
      <trkpt lat="43.93935" lon="7.60852">
        <ele>1188.5999755859</ele>
        <time>2022-09-10T13:10:54.000Z</time>
      </trkpt>
      <trkpt lat="43.93928" lon="7.60848">
        <ele>1188.8000488281</ele>
        <time>2022-09-10T13:10:57.000Z</time>
      </trkpt>
      <trkpt lat="43.93918" lon="7.60845">
        <ele>1189.1999511719</ele>
        <time>2022-09-10T13:11:04.000Z</time>
      </trkpt>
      <trkpt lat="43.9391" lon="7.60849">
        <ele>1189</ele>
        <time>2022-09-10T13:11:12.000Z</time>
      </trkpt>
      <trkpt lat="43.93909" lon="7.6085">
        <ele>1188.8000488281</ele>
        <time>2022-09-10T13:11:15.000Z</time>
      </trkpt>
      <trkpt lat="43.93912" lon="7.60853">
        <ele>1188.8000488281</ele>
        <time>2022-09-10T13:11:18.000Z</time>
      </trkpt>
      <trkpt lat="43.93913" lon="7.60852">
        <ele>1189</ele>
        <time>2022-09-10T13:11:22.000Z</time>
      </trkpt>
      <trkpt lat="43.93915" lon="7.60855">
        <ele>1189</ele>
        <time>2022-09-10T13:11:28.000Z</time>
      </trkpt>
      <trkpt lat="43.93915" lon="7.60854">
        <ele>1188.8000488281</ele>
        <time>2022-09-10T13:11:33.000Z</time>
      </trkpt>
      <trkpt lat="43.93914" lon="7.60853">
        <ele>1188.8000488281</ele>
        <time>2022-09-10T13:11:34.000Z</time>
      </trkpt>
      <trkpt lat="43.93916" lon="7.60854">
        <ele>1188.8000488281</ele>
        <time>2022-09-10T13:11:39.000Z</time>
      </trkpt>
      <trkpt lat="43.93922" lon="7.60861">
        <ele>1188.8000488281</ele>
        <time>2022-09-10T13:11:46.000Z</time>
      </trkpt>
      <trkpt lat="43.93922" lon="7.60862">
        <ele>1188.8000488281</ele>
        <time>2022-09-10T13:11:47.000Z</time>
      </trkpt>
      <trkpt lat="43.93922" lon="7.6086">
        <ele>1189</ele>
        <time>2022-09-10T13:12:01.000Z</time>
      </trkpt>
      <trkpt lat="43.93917" lon="7.60845">
        <ele>1188.8000488281</ele>
        <time>2022-09-10T13:12:05.000Z</time>
      </trkpt>
      <trkpt lat="43.93915" lon="7.6084">
        <ele>1188.8000488281</ele>
        <time>2022-09-10T13:12:06.000Z</time>
      </trkpt>
      <trkpt lat="43.93906" lon="7.60826">
        <ele>1188.8000488281</ele>
        <time>2022-09-10T13:12:09.000Z</time>
      </trkpt>
      <trkpt lat="43.93901" lon="7.60819">
        <ele>1188.8000488281</ele>
        <time>2022-09-10T13:12:12.000Z</time>
      </trkpt>
      <trkpt lat="43.93899" lon="7.60819">
        <ele>1188.8000488281</ele>
        <time>2022-09-10T13:12:17.000Z</time>
      </trkpt>
      <trkpt lat="43.939" lon="7.60822">
        <ele>1188.8000488281</ele>
        <time>2022-09-10T13:12:18.000Z</time>
      </trkpt>
      <trkpt lat="43.93904" lon="7.60831">
        <ele>1188.8000488281</ele>
        <time>2022-09-10T13:12:22.000Z</time>
      </trkpt>
      <trkpt lat="43.93905" lon="7.60838">
        <ele>1188.8000488281</ele>
        <time>2022-09-10T13:12:27.000Z</time>
      </trkpt>
      <trkpt lat="43.93916" lon="7.60867">
        <ele>1188.4000244141</ele>
        <time>2022-09-10T13:12:56.000Z</time>
      </trkpt>
      <trkpt lat="43.93917" lon="7.60868">
        <ele>1188.4000244141</ele>
        <time>2022-09-10T13:12:58.000Z</time>
      </trkpt>
      <trkpt lat="43.93917" lon="7.60867">
        <ele>1188.4000244141</ele>
        <time>2022-09-10T13:13:04.000Z</time>
      </trkpt>
      <trkpt lat="43.93927" lon="7.60893">
        <ele>1188.1999511719</ele>
        <time>2022-09-10T13:13:23.000Z</time>
      </trkpt>
      <trkpt lat="43.93928" lon="7.60895">
        <ele>1188.1999511719</ele>
        <time>2022-09-10T13:13:24.000Z</time>
      </trkpt>
      <trkpt lat="43.93922" lon="7.60873">
        <ele>1188</ele>
        <time>2022-09-10T13:13:31.000Z</time>
      </trkpt>
      <trkpt lat="43.93924" lon="7.6087">
        <ele>1188</ele>
        <time>2022-09-10T13:13:35.000Z</time>
      </trkpt>
      <trkpt lat="43.93925" lon="7.6087">
        <ele>1188</ele>
        <time>2022-09-10T13:13:36.000Z</time>
      </trkpt>
      <trkpt lat="43.9393" lon="7.60873">
        <ele>1188.1999511719</ele>
        <time>2022-09-10T13:13:47.000Z</time>
      </trkpt>
      <trkpt lat="43.9393" lon="7.60871">
        <ele>1188.1999511719</ele>
        <time>2022-09-10T13:13:50.000Z</time>
      </trkpt>
      <trkpt lat="43.9393" lon="7.60869">
        <ele>1188.4000244141</ele>
        <time>2022-09-10T13:13:53.000Z</time>
      </trkpt>
      <trkpt lat="43.93922" lon="7.60857">
        <ele>1188.4000244141</ele>
        <time>2022-09-10T13:14:48.000Z</time>
      </trkpt>
      <trkpt lat="43.93926" lon="7.60863">
        <ele>1188.5999755859</ele>
        <time>2022-09-10T13:14:51.000Z</time>
      </trkpt>
      <trkpt lat="43.93928" lon="7.60865">
        <ele>1188.5999755859</ele>
        <time>2022-09-10T13:14:53.000Z</time>
      </trkpt>
      <trkpt lat="43.9393" lon="7.60867">
        <ele>1188.4000244141</ele>
        <time>2022-09-10T13:14:59.000Z</time>
      </trkpt>
      <trkpt lat="43.93929" lon="7.60867">
        <ele>1188.5999755859</ele>
        <time>2022-09-10T13:15:07.000Z</time>
      </trkpt>
      <trkpt lat="43.93928" lon="7.60866">
        <ele>1188.5999755859</ele>
        <time>2022-09-10T13:15:13.000Z</time>
      </trkpt>
      <trkpt lat="43.9393" lon="7.60866">
        <ele>1188.5999755859</ele>
        <time>2022-09-10T13:15:20.000Z</time>
      </trkpt>
      <trkpt lat="43.93933" lon="7.60866">
        <ele>1188.8000488281</ele>
        <time>2022-09-10T13:15:27.000Z</time>
      </trkpt>
      <trkpt lat="43.93932" lon="7.60866">
        <ele>1188.8000488281</ele>
        <time>2022-09-10T13:15:33.000Z</time>
      </trkpt>
      <trkpt lat="43.93928" lon="7.60866">
        <ele>1188.8000488281</ele>
        <time>2022-09-10T13:15:40.000Z</time>
      </trkpt>
      <trkpt lat="43.93927" lon="7.60866">
        <ele>1188.8000488281</ele>
        <time>2022-09-10T13:15:45.000Z</time>
      </trkpt>
      <trkpt lat="43.93915" lon="7.60864">
        <ele>1188.8000488281</ele>
        <time>2022-09-10T13:16:18.000Z</time>
      </trkpt>
      <trkpt lat="43.93918" lon="7.60865">
        <ele>1188.8000488281</ele>
        <time>2022-09-10T13:16:20.000Z</time>
      </trkpt>
      <trkpt lat="43.93929" lon="7.6087">
        <ele>1189</ele>
        <time>2022-09-10T13:16:25.000Z</time>
      </trkpt>
      <trkpt lat="43.93935" lon="7.60874">
        <ele>1189</ele>
        <time>2022-09-10T13:16:37.000Z</time>
      </trkpt>
      <trkpt lat="43.93927" lon="7.60871">
        <ele>1189</ele>
        <time>2022-09-10T13:16:45.000Z</time>
      </trkpt>
      <trkpt lat="43.93927" lon="7.60871">
        <ele>1189.1999511719</ele>
        <time>2022-09-10T13:16:51.000Z</time>
      </trkpt>
      <trkpt lat="43.93927" lon="7.60869">
        <ele>1189.1999511719</ele>
        <time>2022-09-10T13:16:56.000Z</time>
      </trkpt>
      <trkpt lat="43.93932" lon="7.60874">
        <ele>1189</ele>
        <time>2022-09-10T13:17:05.000Z</time>
      </trkpt>
      <trkpt lat="43.93934" lon="7.60879">
        <ele>1189</ele>
        <time>2022-09-10T13:17:07.000Z</time>
      </trkpt>
      <trkpt lat="43.93935" lon="7.60883">
        <ele>1189</ele>
        <time>2022-09-10T13:17:09.000Z</time>
      </trkpt>
      <trkpt lat="43.93936" lon="7.60884">
        <ele>1189</ele>
        <time>2022-09-10T13:17:12.000Z</time>
      </trkpt>
      <trkpt lat="43.93938" lon="7.60885">
        <ele>1189</ele>
        <time>2022-09-10T13:17:16.000Z</time>
      </trkpt>
      <trkpt lat="43.93932" lon="7.60877">
        <ele>1189.1999511719</ele>
        <time>2022-09-10T13:17:20.000Z</time>
      </trkpt>
      <trkpt lat="43.93931" lon="7.60878">
        <ele>1189.1999511719</ele>
        <time>2022-09-10T13:17:21.000Z</time>
      </trkpt>
      <trkpt lat="43.93924" lon="7.60878">
        <ele>1189.1999511719</ele>
        <time>2022-09-10T13:17:25.000Z</time>
      </trkpt>
      <trkpt lat="43.93925" lon="7.60879">
        <ele>1189.1999511719</ele>
        <time>2022-09-10T13:17:26.000Z</time>
      </trkpt>
      <trkpt lat="43.93924" lon="7.60874">
        <ele>1189.4000244141</ele>
        <time>2022-09-10T13:17:32.000Z</time>
      </trkpt>
      <trkpt lat="43.93924" lon="7.60873">
        <ele>1189.4000244141</ele>
        <time>2022-09-10T13:17:44.000Z</time>
      </trkpt>
      <trkpt lat="43.93924" lon="7.60876">
        <ele>1189.1999511719</ele>
        <time>2022-09-10T13:18:05.000Z</time>
      </trkpt>
      <trkpt lat="43.93924" lon="7.60869">
        <ele>1189.1999511719</ele>
        <time>2022-09-10T13:18:12.000Z</time>
      </trkpt>
      <trkpt lat="43.93925" lon="7.60867">
        <ele>1189.1999511719</ele>
        <time>2022-09-10T13:18:13.000Z</time>
      </trkpt>
      <trkpt lat="43.93923" lon="7.60859">
        <ele>1189.1999511719</ele>
        <time>2022-09-10T13:18:21.000Z</time>
      </trkpt>
      <trkpt lat="43.93924" lon="7.60854">
        <ele>1189.1999511719</ele>
        <time>2022-09-10T13:18:29.000Z</time>
      </trkpt>
      <trkpt lat="43.93921" lon="7.60849">
        <ele>1189</ele>
        <time>2022-09-10T13:18:36.000Z</time>
      </trkpt>
      <trkpt lat="43.93921" lon="7.60852">
        <ele>1189</ele>
        <time>2022-09-10T13:18:43.000Z</time>
      </trkpt>
      <trkpt lat="43.93926" lon="7.60863">
        <ele>1189</ele>
        <time>2022-09-10T13:18:48.000Z</time>
      </trkpt>
      <trkpt lat="43.93927" lon="7.60864">
        <ele>1189</ele>
        <time>2022-09-10T13:18:49.000Z</time>
      </trkpt>
      <trkpt lat="43.93924" lon="7.60858">
        <ele>1189</ele>
        <time>2022-09-10T13:19:01.000Z</time>
      </trkpt>
      <trkpt lat="43.93923" lon="7.60857">
        <ele>1189</ele>
        <time>2022-09-10T13:19:02.000Z</time>
      </trkpt>
      <trkpt lat="43.93916" lon="7.60845">
        <ele>1189.1999511719</ele>
        <time>2022-09-10T13:19:09.000Z</time>
      </trkpt>
      <trkpt lat="43.9392" lon="7.60852">
        <ele>1189.1999511719</ele>
        <time>2022-09-10T13:19:20.000Z</time>
      </trkpt>
      <trkpt lat="43.93922" lon="7.60856">
        <ele>1189.1999511719</ele>
        <time>2022-09-10T13:19:28.000Z</time>
      </trkpt>
      <trkpt lat="43.93923" lon="7.6086">
        <ele>1189</ele>
        <time>2022-09-10T13:19:34.000Z</time>
      </trkpt>
      <trkpt lat="43.93923" lon="7.60862">
        <ele>1188.8000488281</ele>
        <time>2022-09-10T13:19:39.000Z</time>
      </trkpt>
      <trkpt lat="43.9392" lon="7.60867">
        <ele>1188.8000488281</ele>
        <time>2022-09-10T13:19:44.000Z</time>
      </trkpt>
      <trkpt lat="43.93921" lon="7.60869">
        <ele>1188.5999755859</ele>
        <time>2022-09-10T13:19:49.000Z</time>
      </trkpt>
      <trkpt lat="43.93921" lon="7.60874">
        <ele>1188.5999755859</ele>
        <time>2022-09-10T13:19:54.000Z</time>
      </trkpt>
      <trkpt lat="43.93921" lon="7.60873">
        <ele>1188.5999755859</ele>
        <time>2022-09-10T13:19:55.000Z</time>
      </trkpt>
      <trkpt lat="43.93918" lon="7.60868">
        <ele>1188.5999755859</ele>
        <time>2022-09-10T13:20:02.000Z</time>
      </trkpt>
      <trkpt lat="43.93919" lon="7.60869">
        <ele>1188.5999755859</ele>
        <time>2022-09-10T13:20:03.000Z</time>
      </trkpt>
      <trkpt lat="43.9393" lon="7.60866">
        <ele>1188.1999511719</ele>
        <time>2022-09-10T13:21:02.000Z</time>
      </trkpt>
      <trkpt lat="43.93931" lon="7.60861">
        <ele>1188.4000244141</ele>
        <time>2022-09-10T13:21:12.000Z</time>
      </trkpt>
      <trkpt lat="43.93935" lon="7.60865">
        <ele>1188.4000244141</ele>
        <time>2022-09-10T13:21:16.000Z</time>
      </trkpt>
      <trkpt lat="43.93939" lon="7.60869">
        <ele>1188.5999755859</ele>
        <time>2022-09-10T13:21:18.000Z</time>
      </trkpt>
      <trkpt lat="43.93948" lon="7.6088">
        <ele>1188.5999755859</ele>
        <time>2022-09-10T13:21:24.000Z</time>
      </trkpt>
      <trkpt lat="43.9395" lon="7.6088">
        <ele>1188.5999755859</ele>
        <time>2022-09-10T13:21:28.000Z</time>
      </trkpt>
      <trkpt lat="43.93949" lon="7.60879">
        <ele>1188.5999755859</ele>
        <time>2022-09-10T13:21:29.000Z</time>
      </trkpt>
      <trkpt lat="43.93948" lon="7.60875">
        <ele>1188.5999755859</ele>
        <time>2022-09-10T13:21:33.000Z</time>
      </trkpt>
      <trkpt lat="43.9394" lon="7.60868">
        <ele>1188.5999755859</ele>
        <time>2022-09-10T13:21:46.000Z</time>
      </trkpt>
      <trkpt lat="43.93944" lon="7.60873">
        <ele>1188.5999755859</ele>
        <time>2022-09-10T13:21:49.000Z</time>
      </trkpt>
      <trkpt lat="43.93943" lon="7.60874">
        <ele>1188.5999755859</ele>
        <time>2022-09-10T13:21:51.000Z</time>
      </trkpt>
      <trkpt lat="43.93943" lon="7.60872">
        <ele>1188.8000488281</ele>
        <time>2022-09-10T13:21:52.000Z</time>
      </trkpt>
      <trkpt lat="43.93941" lon="7.60872">
        <ele>1188.8000488281</ele>
        <time>2022-09-10T13:21:55.000Z</time>
      </trkpt>
      <trkpt lat="43.93939" lon="7.60871">
        <ele>1188.5999755859</ele>
        <time>2022-09-10T13:21:57.000Z</time>
      </trkpt>
      <trkpt lat="43.93935" lon="7.6087">
        <ele>1188.5999755859</ele>
        <time>2022-09-10T13:22:01.000Z</time>
      </trkpt>
      <trkpt lat="43.93931" lon="7.60866">
        <ele>1188.5999755859</ele>
        <time>2022-09-10T13:22:02.000Z</time>
      </trkpt>
      <trkpt lat="43.93928" lon="7.60864">
        <ele>1188.4000244141</ele>
        <time>2022-09-10T13:22:06.000Z</time>
      </trkpt>
      <trkpt lat="43.93932" lon="7.60867">
        <ele>1188.1999511719</ele>
        <time>2022-09-10T13:22:14.000Z</time>
      </trkpt>
      <trkpt lat="43.93926" lon="7.60866">
        <ele>1188.1999511719</ele>
        <time>2022-09-10T13:22:22.000Z</time>
      </trkpt>
      <trkpt lat="43.93924" lon="7.60866">
        <ele>1188.1999511719</ele>
        <time>2022-09-10T13:22:26.000Z</time>
      </trkpt>
      <trkpt lat="43.93924" lon="7.60866">
        <ele>1188.4000244141</ele>
        <time>2022-09-10T13:22:28.000Z</time>
      </trkpt>
      <trkpt lat="43.93927" lon="7.60868">
        <ele>1188.8000488281</ele>
        <time>2022-09-10T13:22:34.000Z</time>
      </trkpt>
      <trkpt lat="43.93929" lon="7.60868">
        <ele>1188.8000488281</ele>
        <time>2022-09-10T13:22:39.000Z</time>
      </trkpt>
      <trkpt lat="43.93933" lon="7.6087">
        <ele>1188.8000488281</ele>
        <time>2022-09-10T13:22:43.000Z</time>
      </trkpt>
      <trkpt lat="43.93928" lon="7.60877">
        <ele>1188.8000488281</ele>
        <time>2022-09-10T13:23:11.000Z</time>
      </trkpt>
      <trkpt lat="43.93931" lon="7.60869">
        <ele>1189.1999511719</ele>
        <time>2022-09-10T13:23:17.000Z</time>
      </trkpt>
      <trkpt lat="43.93935" lon="7.60871">
        <ele>1188.5999755859</ele>
        <time>2022-09-10T13:23:26.000Z</time>
      </trkpt>
      <trkpt lat="43.93934" lon="7.60871">
        <ele>1188.5999755859</ele>
        <time>2022-09-10T13:23:34.000Z</time>
      </trkpt>
      <trkpt lat="43.93931" lon="7.60871">
        <ele>1188.5999755859</ele>
        <time>2022-09-10T13:23:39.000Z</time>
      </trkpt>
      <trkpt lat="43.93929" lon="7.6087">
        <ele>1188.5999755859</ele>
        <time>2022-09-10T13:23:45.000Z</time>
      </trkpt>
      <trkpt lat="43.93929" lon="7.60875">
        <ele>1189</ele>
        <time>2022-09-10T13:23:51.000Z</time>
      </trkpt>
      <trkpt lat="43.93928" lon="7.60875">
        <ele>1189</ele>
        <time>2022-09-10T13:23:52.000Z</time>
      </trkpt>
      <trkpt lat="43.93928" lon="7.60872">
        <ele>1188.8000488281</ele>
        <time>2022-09-10T13:23:59.000Z</time>
      </trkpt>
      <trkpt lat="43.93929" lon="7.60875">
        <ele>1189</ele>
        <time>2022-09-10T13:24:06.000Z</time>
      </trkpt>
      <trkpt lat="43.93932" lon="7.60872">
        <ele>1189</ele>
        <time>2022-09-10T13:24:13.000Z</time>
      </trkpt>
      <trkpt lat="43.93933" lon="7.60872">
        <ele>1188.8000488281</ele>
        <time>2022-09-10T13:24:18.000Z</time>
      </trkpt>
      <trkpt lat="43.93936" lon="7.60878">
        <ele>1188.8000488281</ele>
        <time>2022-09-10T13:24:25.000Z</time>
      </trkpt>
      <trkpt lat="43.93937" lon="7.60871">
        <ele>1188.8000488281</ele>
        <time>2022-09-10T13:24:31.000Z</time>
      </trkpt>
      <trkpt lat="43.93936" lon="7.60867">
        <ele>1188.5999755859</ele>
        <time>2022-09-10T13:24:33.000Z</time>
      </trkpt>
      <trkpt lat="43.93934" lon="7.60862">
        <ele>1188.5999755859</ele>
        <time>2022-09-10T13:24:39.000Z</time>
      </trkpt>
      <trkpt lat="43.93933" lon="7.60859">
        <ele>1188.5999755859</ele>
        <time>2022-09-10T13:24:40.000Z</time>
      </trkpt>
      <trkpt lat="43.93932" lon="7.60857">
        <ele>1188.8000488281</ele>
        <time>2022-09-10T13:24:44.000Z</time>
      </trkpt>
      <trkpt lat="43.9393" lon="7.60858">
        <ele>1189</ele>
        <time>2022-09-10T13:24:46.000Z</time>
      </trkpt>
      <trkpt lat="43.9393" lon="7.60858">
        <ele>1188.8000488281</ele>
        <time>2022-09-10T13:24:49.000Z</time>
      </trkpt>
      <trkpt lat="43.93931" lon="7.6086">
        <ele>1188.4000244141</ele>
        <time>2022-09-10T13:24:54.000Z</time>
      </trkpt>
      <trkpt lat="43.93928" lon="7.60861">
        <ele>1188.5999755859</ele>
        <time>2022-09-10T13:24:59.000Z</time>
      </trkpt>
      <trkpt lat="43.93932" lon="7.60863">
        <ele>1188.4000244141</ele>
        <time>2022-09-10T13:25:03.000Z</time>
      </trkpt>
      <trkpt lat="43.93936" lon="7.60863">
        <ele>1188.5999755859</ele>
        <time>2022-09-10T13:25:10.000Z</time>
      </trkpt>
      <trkpt lat="43.93938" lon="7.60864">
        <ele>1188.5999755859</ele>
        <time>2022-09-10T13:25:15.000Z</time>
      </trkpt>
      <trkpt lat="43.9394" lon="7.60866">
        <ele>1188.5999755859</ele>
        <time>2022-09-10T13:25:23.000Z</time>
      </trkpt>
      <trkpt lat="43.93936" lon="7.60864">
        <ele>1188.8000488281</ele>
        <time>2022-09-10T13:25:28.000Z</time>
      </trkpt>
      <trkpt lat="43.93932" lon="7.60861">
        <ele>1188.8000488281</ele>
        <time>2022-09-10T13:25:37.000Z</time>
      </trkpt>
      <trkpt lat="43.93929" lon="7.6086">
        <ele>1189.4000244141</ele>
        <time>2022-09-10T13:25:44.000Z</time>
      </trkpt>
      <trkpt lat="43.9393" lon="7.60858">
        <ele>1189.4000244141</ele>
        <time>2022-09-10T13:25:50.000Z</time>
      </trkpt>
      <trkpt lat="43.9393" lon="7.60854">
        <ele>1188.8000488281</ele>
        <time>2022-09-10T13:25:55.000Z</time>
      </trkpt>
      <trkpt lat="43.93929" lon="7.60853">
        <ele>1189</ele>
        <time>2022-09-10T13:25:58.000Z</time>
      </trkpt>
      <trkpt lat="43.93928" lon="7.6085">
        <ele>1189</ele>
        <time>2022-09-10T13:26:03.000Z</time>
      </trkpt>
      <trkpt lat="43.93928" lon="7.6085">
        <ele>1188.5999755859</ele>
        <time>2022-09-10T13:26:08.000Z</time>
      </trkpt>
      <trkpt lat="43.93927" lon="7.60851">
        <ele>1189</ele>
        <time>2022-09-10T13:26:19.000Z</time>
      </trkpt>
      <trkpt lat="43.93925" lon="7.60852">
        <ele>1188.8000488281</ele>
        <time>2022-09-10T13:26:26.000Z</time>
      </trkpt>
      <trkpt lat="43.93924" lon="7.60854">
        <ele>1188.4000244141</ele>
        <time>2022-09-10T13:26:33.000Z</time>
      </trkpt>
      <trkpt lat="43.93925" lon="7.60855">
        <ele>1188.4000244141</ele>
        <time>2022-09-10T13:26:39.000Z</time>
      </trkpt>
      <trkpt lat="43.93925" lon="7.60854">
        <ele>1188.1999511719</ele>
        <time>2022-09-10T13:26:50.000Z</time>
      </trkpt>
      <trkpt lat="43.93924" lon="7.60855">
        <ele>1188.4000244141</ele>
        <time>2022-09-10T13:26:56.000Z</time>
      </trkpt>
      <trkpt lat="43.93924" lon="7.60855">
        <ele>1188.5999755859</ele>
        <time>2022-09-10T13:27:03.000Z</time>
      </trkpt>
      <trkpt lat="43.93924" lon="7.60855">
        <ele>1188.1999511719</ele>
        <time>2022-09-10T13:27:10.000Z</time>
      </trkpt>
      <trkpt lat="43.93922" lon="7.60857">
        <ele>1188.8000488281</ele>
        <time>2022-09-10T13:27:15.000Z</time>
      </trkpt>
      <trkpt lat="43.93922" lon="7.60857">
        <ele>1188.8000488281</ele>
        <time>2022-09-10T13:27:21.000Z</time>
      </trkpt>
      <trkpt lat="43.93922" lon="7.60857">
        <ele>1188.5999755859</ele>
        <time>2022-09-10T13:27:29.000Z</time>
      </trkpt>
      <trkpt lat="43.93922" lon="7.60858">
        <ele>1188.5999755859</ele>
        <time>2022-09-10T13:27:37.000Z</time>
      </trkpt>
      <trkpt lat="43.93921" lon="7.60858">
        <ele>1189</ele>
        <time>2022-09-10T13:27:51.000Z</time>
      </trkpt>
      <trkpt lat="43.93923" lon="7.60858">
        <ele>1189</ele>
        <time>2022-09-10T13:27:58.000Z</time>
      </trkpt>
      <trkpt lat="43.93924" lon="7.60858">
        <ele>1189</ele>
        <time>2022-09-10T13:28:10.000Z</time>
      </trkpt>
      <trkpt lat="43.93925" lon="7.60859">
        <ele>1189.1999511719</ele>
        <time>2022-09-10T13:28:18.000Z</time>
      </trkpt>
      <trkpt lat="43.93925" lon="7.60859">
        <ele>1188.8000488281</ele>
        <time>2022-09-10T13:28:29.000Z</time>
      </trkpt>
      <trkpt lat="43.93926" lon="7.60859">
        <ele>1189.1999511719</ele>
        <time>2022-09-10T13:28:39.000Z</time>
      </trkpt>
      <trkpt lat="43.93926" lon="7.60859">
        <ele>1189.1999511719</ele>
        <time>2022-09-10T13:28:47.000Z</time>
      </trkpt>
      <trkpt lat="43.93926" lon="7.60859">
        <ele>1188.8000488281</ele>
        <time>2022-09-10T13:28:56.000Z</time>
      </trkpt>
      <trkpt lat="43.93927" lon="7.60859">
        <ele>1189.4000244141</ele>
        <time>2022-09-10T13:29:08.000Z</time>
      </trkpt>
      <trkpt lat="43.93928" lon="7.6086">
        <ele>1189.1999511719</ele>
        <time>2022-09-10T13:29:15.000Z</time>
      </trkpt>
      <trkpt lat="43.93928" lon="7.6086">
        <ele>1189.4000244141</ele>
        <time>2022-09-10T13:29:20.000Z</time>
      </trkpt>
      <trkpt lat="43.93929" lon="7.6086">
        <ele>1189.5999755859</ele>
        <time>2022-09-10T13:29:30.000Z</time>
      </trkpt>
      <trkpt lat="43.93929" lon="7.6086">
        <ele>1189.1999511719</ele>
        <time>2022-09-10T13:29:41.000Z</time>
      </trkpt>
      <trkpt lat="43.93928" lon="7.60859">
        <ele>1189</ele>
        <time>2022-09-10T13:29:51.000Z</time>
      </trkpt>
      <trkpt lat="43.93928" lon="7.60859">
        <ele>1189</ele>
        <time>2022-09-10T13:29:59.000Z</time>
      </trkpt>
      <trkpt lat="43.93927" lon="7.60859">
        <ele>1188.5999755859</ele>
        <time>2022-09-10T13:30:05.000Z</time>
      </trkpt>
      <trkpt lat="43.93928" lon="7.60859">
        <ele>1189</ele>
        <time>2022-09-10T13:30:14.000Z</time>
      </trkpt>
      <trkpt lat="43.93929" lon="7.60859">
        <ele>1188.5999755859</ele>
        <time>2022-09-10T13:30:21.000Z</time>
      </trkpt>
      <trkpt lat="43.93929" lon="7.60859">
        <ele>1188.8000488281</ele>
        <time>2022-09-10T13:30:29.000Z</time>
      </trkpt>
      <trkpt lat="43.93929" lon="7.60859">
        <ele>1188.5999755859</ele>
        <time>2022-09-10T13:30:36.000Z</time>
      </trkpt>
      <trkpt lat="43.93929" lon="7.60859">
        <ele>1189</ele>
        <time>2022-09-10T13:30:46.000Z</time>
      </trkpt>
      <trkpt lat="43.93929" lon="7.60859">
        <ele>1189.1999511719</ele>
        <time>2022-09-10T13:30:54.000Z</time>
      </trkpt>
      <trkpt lat="43.93928" lon="7.60859">
        <ele>1189</ele>
        <time>2022-09-10T13:31:01.000Z</time>
      </trkpt>
      <trkpt lat="43.93928" lon="7.60858">
        <ele>1189.1999511719</ele>
        <time>2022-09-10T13:31:07.000Z</time>
      </trkpt>
      <trkpt lat="43.93929" lon="7.60859">
        <ele>1189.4000244141</ele>
        <time>2022-09-10T13:31:14.000Z</time>
      </trkpt>
      <trkpt lat="43.93929" lon="7.60859">
        <ele>1189.1999511719</ele>
        <time>2022-09-10T13:31:23.000Z</time>
      </trkpt>
      <trkpt lat="43.93929" lon="7.6086">
        <ele>1189.1999511719</ele>
        <time>2022-09-10T13:31:39.000Z</time>
      </trkpt>
      <trkpt lat="43.93931" lon="7.60859">
        <ele>1189.1999511719</ele>
        <time>2022-09-10T13:31:49.000Z</time>
      </trkpt>
      <trkpt lat="43.9393" lon="7.60859">
        <ele>1189.1999511719</ele>
        <time>2022-09-10T13:31:53.000Z</time>
      </trkpt>
      <trkpt lat="43.9393" lon="7.60862">
        <ele>1189.1999511719</ele>
        <time>2022-09-10T13:31:59.000Z</time>
      </trkpt>
      <trkpt lat="43.93931" lon="7.60865">
        <ele>1189.8000488281</ele>
        <time>2022-09-10T13:32:03.000Z</time>
      </trkpt>
      <trkpt lat="43.93931" lon="7.60865">
        <ele>1189.8000488281</ele>
        <time>2022-09-10T13:32:05.000Z</time>
      </trkpt>
      <trkpt lat="43.93931" lon="7.60866">
        <ele>1189.5999755859</ele>
        <time>2022-09-10T13:32:29.000Z</time>
      </trkpt>
      <trkpt lat="43.93931" lon="7.60866">
        <ele>1189.4000244141</ele>
        <time>2022-09-10T13:32:58.000Z</time>
      </trkpt>
      <trkpt lat="43.93931" lon="7.60867">
        <ele>1189.4000244141</ele>
        <time>2022-09-10T13:33:10.000Z</time>
      </trkpt>
      <trkpt lat="43.93931" lon="7.60867">
        <ele>1189.8000488281</ele>
        <time>2022-09-10T13:33:39.000Z</time>
      </trkpt>
      <trkpt lat="43.93933" lon="7.60866">
        <ele>1189.8000488281</ele>
        <time>2022-09-10T13:33:53.000Z</time>
      </trkpt>
      <trkpt lat="43.93934" lon="7.60864">
        <ele>1190.4000244141</ele>
        <time>2022-09-10T13:34:02.000Z</time>
      </trkpt>
      <trkpt lat="43.93935" lon="7.60864">
        <ele>1190.4000244141</ele>
        <time>2022-09-10T13:34:11.000Z</time>
      </trkpt>
      <trkpt lat="43.93934" lon="7.60863">
        <ele>1190.4000244141</ele>
        <time>2022-09-10T13:34:32.000Z</time>
      </trkpt>
      <trkpt lat="43.93935" lon="7.60863">
        <ele>1190.1999511719</ele>
        <time>2022-09-10T13:34:56.000Z</time>
      </trkpt>
      <trkpt lat="43.93935" lon="7.60862">
        <ele>1190</ele>
        <time>2022-09-10T13:35:13.000Z</time>
      </trkpt>
      <trkpt lat="43.93935" lon="7.60862">
        <ele>1190</ele>
        <time>2022-09-10T13:35:33.000Z</time>
      </trkpt>
      <trkpt lat="43.93937" lon="7.60857">
        <ele>1190</ele>
        <time>2022-09-10T13:35:41.000Z</time>
      </trkpt>
      <trkpt lat="43.93937" lon="7.60856">
        <ele>1190.1999511719</ele>
        <time>2022-09-10T13:35:47.000Z</time>
      </trkpt>
      <trkpt lat="43.93937" lon="7.60856">
        <ele>1190.1999511719</ele>
        <time>2022-09-10T13:36:03.000Z</time>
      </trkpt>
      <trkpt lat="43.93936" lon="7.60852">
        <ele>1190.4000244141</ele>
        <time>2022-09-10T13:36:15.000Z</time>
      </trkpt>
      <trkpt lat="43.93941" lon="7.60843">
        <ele>1190.1999511719</ele>
        <time>2022-09-10T13:36:20.000Z</time>
      </trkpt>
      <trkpt lat="43.93946" lon="7.60842">
        <ele>1190.4000244141</ele>
        <time>2022-09-10T13:36:22.000Z</time>
      </trkpt>
      <trkpt lat="43.93951" lon="7.6084">
        <ele>1190.8000488281</ele>
        <time>2022-09-10T13:36:25.000Z</time>
      </trkpt>
      <trkpt lat="43.93953" lon="7.60839">
        <ele>1190.8000488281</ele>
        <time>2022-09-10T13:36:26.000Z</time>
      </trkpt>
      <trkpt lat="43.9396" lon="7.60831">
        <ele>1191.5999755859</ele>
        <time>2022-09-10T13:36:32.000Z</time>
      </trkpt>
      <trkpt lat="43.9396" lon="7.60828">
        <ele>1191.8000488281</ele>
        <time>2022-09-10T13:36:33.000Z</time>
      </trkpt>
      <trkpt lat="43.9396" lon="7.60821">
        <ele>1192</ele>
        <time>2022-09-10T13:36:36.000Z</time>
      </trkpt>
      <trkpt lat="43.93962" lon="7.60814">
        <ele>1192.5999755859</ele>
        <time>2022-09-10T13:36:39.000Z</time>
      </trkpt>
      <trkpt lat="43.93963" lon="7.6081">
        <ele>1193</ele>
        <time>2022-09-10T13:36:41.000Z</time>
      </trkpt>
      <trkpt lat="43.93969" lon="7.60799">
        <ele>1194</ele>
        <time>2022-09-10T13:36:47.000Z</time>
      </trkpt>
      <trkpt lat="43.9397" lon="7.60797">
        <ele>1194.1999511719</ele>
        <time>2022-09-10T13:36:48.000Z</time>
      </trkpt>
      <trkpt lat="43.93973" lon="7.60782">
        <ele>1195.1999511719</ele>
        <time>2022-09-10T13:36:55.000Z</time>
      </trkpt>
      <trkpt lat="43.93978" lon="7.6077">
        <ele>1196</ele>
        <time>2022-09-10T13:37:01.000Z</time>
      </trkpt>
      <trkpt lat="43.93978" lon="7.60768">
        <ele>1196.1999511719</ele>
        <time>2022-09-10T13:37:02.000Z</time>
      </trkpt>
      <trkpt lat="43.9398" lon="7.60758">
        <ele>1196.8000488281</ele>
        <time>2022-09-10T13:37:08.000Z</time>
      </trkpt>
      <trkpt lat="43.9398" lon="7.60757">
        <ele>1197</ele>
        <time>2022-09-10T13:37:09.000Z</time>
      </trkpt>
      <trkpt lat="43.93981" lon="7.60754">
        <ele>1197.1999511719</ele>
        <time>2022-09-10T13:37:11.000Z</time>
      </trkpt>
      <trkpt lat="43.93982" lon="7.6075">
        <ele>1197.4000244141</ele>
        <time>2022-09-10T13:37:13.000Z</time>
      </trkpt>
      <trkpt lat="43.93982" lon="7.60744">
        <ele>1197.5999755859</ele>
        <time>2022-09-10T13:37:17.000Z</time>
      </trkpt>
      <trkpt lat="43.93982" lon="7.60744">
        <ele>1197.8000488281</ele>
        <time>2022-09-10T13:37:19.000Z</time>
      </trkpt>
      <trkpt lat="43.93981" lon="7.60747">
        <ele>1198</ele>
        <time>2022-09-10T13:37:22.000Z</time>
      </trkpt>
      <trkpt lat="43.93979" lon="7.6075">
        <ele>1198.1999511719</ele>
        <time>2022-09-10T13:37:24.000Z</time>
      </trkpt>
      <trkpt lat="43.93977" lon="7.6075">
        <ele>1198.4000244141</ele>
        <time>2022-09-10T13:37:25.000Z</time>
      </trkpt>
      <trkpt lat="43.93976" lon="7.60747">
        <ele>1199</ele>
        <time>2022-09-10T13:37:28.000Z</time>
      </trkpt>
      <trkpt lat="43.93977" lon="7.60745">
        <ele>1199.4000244141</ele>
        <time>2022-09-10T13:37:30.000Z</time>
      </trkpt>
      <trkpt lat="43.93978" lon="7.60744">
        <ele>1199.5999755859</ele>
        <time>2022-09-10T13:37:31.000Z</time>
      </trkpt>
      <trkpt lat="43.93978" lon="7.60742">
        <ele>1199.8000488281</ele>
        <time>2022-09-10T13:37:33.000Z</time>
      </trkpt>
      <trkpt lat="43.93978" lon="7.60741">
        <ele>1199.5999755859</ele>
        <time>2022-09-10T13:37:34.000Z</time>
      </trkpt>
      <trkpt lat="43.93978" lon="7.60741">
        <ele>1200</ele>
        <time>2022-09-10T13:37:38.000Z</time>
      </trkpt>
      <trkpt lat="43.93979" lon="7.60741">
        <ele>1199.8000488281</ele>
        <time>2022-09-10T13:37:46.000Z</time>
      </trkpt>
      <trkpt lat="43.93976" lon="7.60742">
        <ele>1200.1999511719</ele>
        <time>2022-09-10T13:37:50.000Z</time>
      </trkpt>
      <trkpt lat="43.93975" lon="7.60742">
        <ele>1200.1999511719</ele>
        <time>2022-09-10T13:37:51.000Z</time>
      </trkpt>
      <trkpt lat="43.93972" lon="7.60741">
        <ele>1200.5999755859</ele>
        <time>2022-09-10T13:37:53.000Z</time>
      </trkpt>
      <trkpt lat="43.9397" lon="7.60742">
        <ele>1201.1999511719</ele>
        <time>2022-09-10T13:37:55.000Z</time>
      </trkpt>
      <trkpt lat="43.9397" lon="7.60742">
        <ele>1201.5999755859</ele>
        <time>2022-09-10T13:37:56.000Z</time>
      </trkpt>
      <trkpt lat="43.93969" lon="7.60743">
        <ele>1201.8000488281</ele>
        <time>2022-09-10T13:37:57.000Z</time>
      </trkpt>
      <trkpt lat="43.93962" lon="7.60748">
        <ele>1203</ele>
        <time>2022-09-10T13:38:00.000Z</time>
      </trkpt>
      <trkpt lat="43.93953" lon="7.60755">
        <ele>1204.1999511719</ele>
        <time>2022-09-10T13:38:05.000Z</time>
      </trkpt>
      <trkpt lat="43.93943" lon="7.60761">
        <ele>1204.5999755859</ele>
        <time>2022-09-10T13:38:09.000Z</time>
      </trkpt>
      <trkpt lat="43.9394" lon="7.60762">
        <ele>1204.5999755859</ele>
        <time>2022-09-10T13:38:10.000Z</time>
      </trkpt>
      <trkpt lat="43.93932" lon="7.60762">
        <ele>1205.4000244141</ele>
        <time>2022-09-10T13:38:13.000Z</time>
      </trkpt>
      <trkpt lat="43.9393" lon="7.60758">
        <ele>1206.1999511719</ele>
        <time>2022-09-10T13:38:15.000Z</time>
      </trkpt>
      <trkpt lat="43.93931" lon="7.60756">
        <ele>1206.4000244141</ele>
        <time>2022-09-10T13:38:16.000Z</time>
      </trkpt>
      <trkpt lat="43.93932" lon="7.60752">
        <ele>1207.4000244141</ele>
        <time>2022-09-10T13:38:19.000Z</time>
      </trkpt>
      <trkpt lat="43.93933" lon="7.6075">
        <ele>1208.5999755859</ele>
        <time>2022-09-10T13:38:21.000Z</time>
      </trkpt>
      <trkpt lat="43.93936" lon="7.60745">
        <ele>1209.4000244141</ele>
        <time>2022-09-10T13:38:24.000Z</time>
      </trkpt>
      <trkpt lat="43.93936" lon="7.60743">
        <ele>1209.5999755859</ele>
        <time>2022-09-10T13:38:25.000Z</time>
      </trkpt>
      <trkpt lat="43.93938" lon="7.60735">
        <ele>1210.8000488281</ele>
        <time>2022-09-10T13:38:29.000Z</time>
      </trkpt>
      <trkpt lat="43.93938" lon="7.60732">
        <ele>1211</ele>
        <time>2022-09-10T13:38:30.000Z</time>
      </trkpt>
      <trkpt lat="43.93937" lon="7.60728">
        <ele>1211.8000488281</ele>
        <time>2022-09-10T13:38:32.000Z</time>
      </trkpt>
      <trkpt lat="43.93937" lon="7.60726">
        <ele>1212</ele>
        <time>2022-09-10T13:38:33.000Z</time>
      </trkpt>
      <trkpt lat="43.93937" lon="7.60723">
        <ele>1212.5999755859</ele>
        <time>2022-09-10T13:38:35.000Z</time>
      </trkpt>
      <trkpt lat="43.93938" lon="7.60721">
        <ele>1212.8000488281</ele>
        <time>2022-09-10T13:38:36.000Z</time>
      </trkpt>
      <trkpt lat="43.93938" lon="7.60717">
        <ele>1213.8000488281</ele>
        <time>2022-09-10T13:38:38.000Z</time>
      </trkpt>
      <trkpt lat="43.93937" lon="7.60714">
        <ele>1214.1999511719</ele>
        <time>2022-09-10T13:38:39.000Z</time>
      </trkpt>
      <trkpt lat="43.93937" lon="7.60709">
        <ele>1215.1999511719</ele>
        <time>2022-09-10T13:38:41.000Z</time>
      </trkpt>
      <trkpt lat="43.93937" lon="7.60706">
        <ele>1216</ele>
        <time>2022-09-10T13:38:43.000Z</time>
      </trkpt>
      <trkpt lat="43.93936" lon="7.60704">
        <ele>1216.4000244141</ele>
        <time>2022-09-10T13:38:44.000Z</time>
      </trkpt>
      <trkpt lat="43.93933" lon="7.60703">
        <ele>1217.1999511719</ele>
        <time>2022-09-10T13:38:46.000Z</time>
      </trkpt>
      <trkpt lat="43.93933" lon="7.60703">
        <ele>1217.5999755859</ele>
        <time>2022-09-10T13:38:47.000Z</time>
      </trkpt>
      <trkpt lat="43.93925" lon="7.60703">
        <ele>1218.1999511719</ele>
        <time>2022-09-10T13:38:50.000Z</time>
      </trkpt>
      <trkpt lat="43.93917" lon="7.60702">
        <ele>1218.1999511719</ele>
        <time>2022-09-10T13:38:55.000Z</time>
      </trkpt>
      <trkpt lat="43.93916" lon="7.607">
        <ele>1218.5999755859</ele>
        <time>2022-09-10T13:38:57.000Z</time>
      </trkpt>
      <trkpt lat="43.93914" lon="7.60698">
        <ele>1219.1999511719</ele>
        <time>2022-09-10T13:38:59.000Z</time>
      </trkpt>
      <trkpt lat="43.93914" lon="7.60695">
        <ele>1219.5999755859</ele>
        <time>2022-09-10T13:39:00.000Z</time>
      </trkpt>
      <trkpt lat="43.93914" lon="7.60691">
        <ele>1221.1999511719</ele>
        <time>2022-09-10T13:39:03.000Z</time>
      </trkpt>
      <trkpt lat="43.93915" lon="7.60686">
        <ele>1222.4000244141</ele>
        <time>2022-09-10T13:39:05.000Z</time>
      </trkpt>
      <trkpt lat="43.93915" lon="7.60681">
        <ele>1223.5999755859</ele>
        <time>2022-09-10T13:39:07.000Z</time>
      </trkpt>
      <trkpt lat="43.93911" lon="7.60675">
        <ele>1224.8000488281</ele>
        <time>2022-09-10T13:39:11.000Z</time>
      </trkpt>
      <trkpt lat="43.93904" lon="7.60668">
        <ele>1226.4000244141</ele>
        <time>2022-09-10T13:39:15.000Z</time>
      </trkpt>
      <trkpt lat="43.93902" lon="7.60666">
        <ele>1227</ele>
        <time>2022-09-10T13:39:16.000Z</time>
      </trkpt>
      <trkpt lat="43.93901" lon="7.60664">
        <ele>1227.8000488281</ele>
        <time>2022-09-10T13:39:17.000Z</time>
      </trkpt>
      <trkpt lat="43.93898" lon="7.6066">
        <ele>1229.1999511719</ele>
        <time>2022-09-10T13:39:19.000Z</time>
      </trkpt>
      <trkpt lat="43.93894" lon="7.60657">
        <ele>1230.5999755859</ele>
        <time>2022-09-10T13:39:21.000Z</time>
      </trkpt>
      <trkpt lat="43.93893" lon="7.60656">
        <ele>1231.1999511719</ele>
        <time>2022-09-10T13:39:22.000Z</time>
      </trkpt>
      <trkpt lat="43.93891" lon="7.60655">
        <ele>1232</ele>
        <time>2022-09-10T13:39:23.000Z</time>
      </trkpt>
      <trkpt lat="43.93887" lon="7.60654">
        <ele>1233.1999511719</ele>
        <time>2022-09-10T13:39:25.000Z</time>
      </trkpt>
      <trkpt lat="43.93886" lon="7.60654">
        <ele>1233.8000488281</ele>
        <time>2022-09-10T13:39:26.000Z</time>
      </trkpt>
      <trkpt lat="43.93885" lon="7.60652">
        <ele>1234.1999511719</ele>
        <time>2022-09-10T13:39:27.000Z</time>
      </trkpt>
      <trkpt lat="43.93879" lon="7.60651">
        <ele>1235.4000244141</ele>
        <time>2022-09-10T13:39:30.000Z</time>
      </trkpt>
      <trkpt lat="43.93875" lon="7.60648">
        <ele>1236</ele>
        <time>2022-09-10T13:39:32.000Z</time>
      </trkpt>
      <trkpt lat="43.93873" lon="7.60646">
        <ele>1236.5999755859</ele>
        <time>2022-09-10T13:39:34.000Z</time>
      </trkpt>
      <trkpt lat="43.93871" lon="7.60644">
        <ele>1236.8000488281</ele>
        <time>2022-09-10T13:39:35.000Z</time>
      </trkpt>
      <trkpt lat="43.93868" lon="7.6064">
        <ele>1237.5999755859</ele>
        <time>2022-09-10T13:39:38.000Z</time>
      </trkpt>
      <trkpt lat="43.93866" lon="7.60637">
        <ele>1238.1999511719</ele>
        <time>2022-09-10T13:39:40.000Z</time>
      </trkpt>
      <trkpt lat="43.93865" lon="7.60636">
        <ele>1238.5999755859</ele>
        <time>2022-09-10T13:39:41.000Z</time>
      </trkpt>
      <trkpt lat="43.93863" lon="7.60633">
        <ele>1239.4000244141</ele>
        <time>2022-09-10T13:39:43.000Z</time>
      </trkpt>
      <trkpt lat="43.93861" lon="7.60632">
        <ele>1239.8000488281</ele>
        <time>2022-09-10T13:39:44.000Z</time>
      </trkpt>
      <trkpt lat="43.93856" lon="7.60627">
        <ele>1240.5999755859</ele>
        <time>2022-09-10T13:39:48.000Z</time>
      </trkpt>
      <trkpt lat="43.93855" lon="7.60625">
        <ele>1240.8000488281</ele>
        <time>2022-09-10T13:39:49.000Z</time>
      </trkpt>
      <trkpt lat="43.93853" lon="7.60622">
        <ele>1241.4000244141</ele>
        <time>2022-09-10T13:39:51.000Z</time>
      </trkpt>
      <trkpt lat="43.9385" lon="7.60619">
        <ele>1242.1999511719</ele>
        <time>2022-09-10T13:39:53.000Z</time>
      </trkpt>
      <trkpt lat="43.9385" lon="7.60617">
        <ele>1242.4000244141</ele>
        <time>2022-09-10T13:39:54.000Z</time>
      </trkpt>
      <trkpt lat="43.93848" lon="7.60613">
        <ele>1243.1999511719</ele>
        <time>2022-09-10T13:39:57.000Z</time>
      </trkpt>
      <trkpt lat="43.93847" lon="7.60611">
        <ele>1243.4000244141</ele>
        <time>2022-09-10T13:39:58.000Z</time>
      </trkpt>
      <trkpt lat="43.93843" lon="7.60607">
        <ele>1244</ele>
        <time>2022-09-10T13:40:01.000Z</time>
      </trkpt>
      <trkpt lat="43.93842" lon="7.60605">
        <ele>1244.1999511719</ele>
        <time>2022-09-10T13:40:02.000Z</time>
      </trkpt>
      <trkpt lat="43.93842" lon="7.60603">
        <ele>1244.4000244141</ele>
        <time>2022-09-10T13:40:03.000Z</time>
      </trkpt>
      <trkpt lat="43.9384" lon="7.606">
        <ele>1244.8000488281</ele>
        <time>2022-09-10T13:40:05.000Z</time>
      </trkpt>
      <trkpt lat="43.93838" lon="7.60595">
        <ele>1245.1999511719</ele>
        <time>2022-09-10T13:40:07.000Z</time>
      </trkpt>
      <trkpt lat="43.93838" lon="7.60594">
        <ele>1245.5999755859</ele>
        <time>2022-09-10T13:40:08.000Z</time>
      </trkpt>
      <trkpt lat="43.93837" lon="7.60592">
        <ele>1245.8000488281</ele>
        <time>2022-09-10T13:40:09.000Z</time>
      </trkpt>
      <trkpt lat="43.93835" lon="7.60589">
        <ele>1246.5999755859</ele>
        <time>2022-09-10T13:40:11.000Z</time>
      </trkpt>
      <trkpt lat="43.93834" lon="7.60588">
        <ele>1247</ele>
        <time>2022-09-10T13:40:12.000Z</time>
      </trkpt>
      <trkpt lat="43.93831" lon="7.60583">
        <ele>1248</ele>
        <time>2022-09-10T13:40:15.000Z</time>
      </trkpt>
      <trkpt lat="43.93827" lon="7.6058">
        <ele>1248.8000488281</ele>
        <time>2022-09-10T13:40:18.000Z</time>
      </trkpt>
      <trkpt lat="43.93826" lon="7.60578">
        <ele>1249</ele>
        <time>2022-09-10T13:40:19.000Z</time>
      </trkpt>
      <trkpt lat="43.93824" lon="7.60575">
        <ele>1249.5999755859</ele>
        <time>2022-09-10T13:40:22.000Z</time>
      </trkpt>
      <trkpt lat="43.93823" lon="7.60574">
        <ele>1249.8000488281</ele>
        <time>2022-09-10T13:40:23.000Z</time>
      </trkpt>
      <trkpt lat="43.9382" lon="7.60572">
        <ele>1250.1999511719</ele>
        <time>2022-09-10T13:40:25.000Z</time>
      </trkpt>
      <trkpt lat="43.93816" lon="7.6057">
        <ele>1251</ele>
        <time>2022-09-10T13:40:28.000Z</time>
      </trkpt>
      <trkpt lat="43.93814" lon="7.60569">
        <ele>1251.1999511719</ele>
        <time>2022-09-10T13:40:29.000Z</time>
      </trkpt>
      <trkpt lat="43.93808" lon="7.60566">
        <ele>1252.4000244141</ele>
        <time>2022-09-10T13:40:33.000Z</time>
      </trkpt>
      <trkpt lat="43.93805" lon="7.60565">
        <ele>1252.8000488281</ele>
        <time>2022-09-10T13:40:35.000Z</time>
      </trkpt>
      <trkpt lat="43.93804" lon="7.60564">
        <ele>1253</ele>
        <time>2022-09-10T13:40:36.000Z</time>
      </trkpt>
      <trkpt lat="43.93801" lon="7.60562">
        <ele>1253.5999755859</ele>
        <time>2022-09-10T13:40:38.000Z</time>
      </trkpt>
      <trkpt lat="43.938" lon="7.60561">
        <ele>1253.8000488281</ele>
        <time>2022-09-10T13:40:39.000Z</time>
      </trkpt>
      <trkpt lat="43.93795" lon="7.6056">
        <ele>1254.5999755859</ele>
        <time>2022-09-10T13:40:42.000Z</time>
      </trkpt>
      <trkpt lat="43.93792" lon="7.60559">
        <ele>1255.4000244141</ele>
        <time>2022-09-10T13:40:45.000Z</time>
      </trkpt>
      <trkpt lat="43.93791" lon="7.60559">
        <ele>1255.5999755859</ele>
        <time>2022-09-10T13:40:46.000Z</time>
      </trkpt>
      <trkpt lat="43.9379" lon="7.60558">
        <ele>1255.8000488281</ele>
        <time>2022-09-10T13:40:47.000Z</time>
      </trkpt>
      <trkpt lat="43.93784" lon="7.60556">
        <ele>1256.1999511719</ele>
        <time>2022-09-10T13:40:50.000Z</time>
      </trkpt>
      <trkpt lat="43.93775" lon="7.60549">
        <ele>1256.5999755859</ele>
        <time>2022-09-10T13:40:56.000Z</time>
      </trkpt>
      <trkpt lat="43.93773" lon="7.60548">
        <ele>1256.5999755859</ele>
        <time>2022-09-10T13:40:57.000Z</time>
      </trkpt>
      <trkpt lat="43.93768" lon="7.60544">
        <ele>1256.8000488281</ele>
        <time>2022-09-10T13:41:01.000Z</time>
      </trkpt>
      <trkpt lat="43.93764" lon="7.60541">
        <ele>1256.8000488281</ele>
        <time>2022-09-10T13:41:04.000Z</time>
      </trkpt>
      <trkpt lat="43.93761" lon="7.60541">
        <ele>1256.8000488281</ele>
        <time>2022-09-10T13:41:06.000Z</time>
      </trkpt>
      <trkpt lat="43.93751" lon="7.60534">
        <ele>1256.8000488281</ele>
        <time>2022-09-10T13:41:12.000Z</time>
      </trkpt>
      <trkpt lat="43.93749" lon="7.60533">
        <ele>1256.8000488281</ele>
        <time>2022-09-10T13:41:13.000Z</time>
      </trkpt>
      <trkpt lat="43.93741" lon="7.60529">
        <ele>1257</ele>
        <time>2022-09-10T13:41:17.000Z</time>
      </trkpt>
      <trkpt lat="43.93731" lon="7.60526">
        <ele>1257.1999511719</ele>
        <time>2022-09-10T13:41:21.000Z</time>
      </trkpt>
      <trkpt lat="43.93728" lon="7.60526">
        <ele>1257</ele>
        <time>2022-09-10T13:41:22.000Z</time>
      </trkpt>
      <trkpt lat="43.93716" lon="7.60522">
        <ele>1256.4000244141</ele>
        <time>2022-09-10T13:41:26.000Z</time>
      </trkpt>
      <trkpt lat="43.93702" lon="7.60521">
        <ele>1256.4000244141</ele>
        <time>2022-09-10T13:41:31.000Z</time>
      </trkpt>
      <trkpt lat="43.93692" lon="7.60518">
        <ele>1256.5999755859</ele>
        <time>2022-09-10T13:41:34.000Z</time>
      </trkpt>
      <trkpt lat="43.93686" lon="7.60516">
        <ele>1257</ele>
        <time>2022-09-10T13:41:36.000Z</time>
      </trkpt>
      <trkpt lat="43.93678" lon="7.60512">
        <ele>1257.8000488281</ele>
        <time>2022-09-10T13:41:40.000Z</time>
      </trkpt>
      <trkpt lat="43.93675" lon="7.60511">
        <ele>1258</ele>
        <time>2022-09-10T13:41:41.000Z</time>
      </trkpt>
      <trkpt lat="43.93665" lon="7.60507">
        <ele>1258.8000488281</ele>
        <time>2022-09-10T13:41:45.000Z</time>
      </trkpt>
      <trkpt lat="43.93663" lon="7.60505">
        <ele>1258.8000488281</ele>
        <time>2022-09-10T13:41:46.000Z</time>
      </trkpt>
      <trkpt lat="43.9366" lon="7.60502">
        <ele>1258.1999511719</ele>
        <time>2022-09-10T13:41:50.000Z</time>
      </trkpt>
      <trkpt lat="43.93648" lon="7.605">
        <ele>1258</ele>
        <time>2022-09-10T13:41:57.000Z</time>
      </trkpt>
      <trkpt lat="43.9364" lon="7.60495">
        <ele>1257.5999755859</ele>
        <time>2022-09-10T13:42:00.000Z</time>
      </trkpt>
      <trkpt lat="43.93633" lon="7.60493">
        <ele>1257.5999755859</ele>
        <time>2022-09-10T13:42:02.000Z</time>
      </trkpt>
      <trkpt lat="43.93617" lon="7.60492">
        <ele>1257.8000488281</ele>
        <time>2022-09-10T13:42:07.000Z</time>
      </trkpt>
      <trkpt lat="43.93615" lon="7.60492">
        <ele>1258</ele>
        <time>2022-09-10T13:42:08.000Z</time>
      </trkpt>
      <trkpt lat="43.93603" lon="7.60489">
        <ele>1258.8000488281</ele>
        <time>2022-09-10T13:42:13.000Z</time>
      </trkpt>
      <trkpt lat="43.93592" lon="7.60482">
        <ele>1260</ele>
        <time>2022-09-10T13:42:17.000Z</time>
      </trkpt>
      <trkpt lat="43.93591" lon="7.60481">
        <ele>1260.5999755859</ele>
        <time>2022-09-10T13:42:18.000Z</time>
      </trkpt>
      <trkpt lat="43.93589" lon="7.6048">
        <ele>1261.1999511719</ele>
        <time>2022-09-10T13:42:19.000Z</time>
      </trkpt>
      <trkpt lat="43.93585" lon="7.60478">
        <ele>1262.4000244141</ele>
        <time>2022-09-10T13:42:21.000Z</time>
      </trkpt>
      <trkpt lat="43.93584" lon="7.60477">
        <ele>1263.1999511719</ele>
        <time>2022-09-10T13:42:23.000Z</time>
      </trkpt>
      <trkpt lat="43.93583" lon="7.60477">
        <ele>1263.5999755859</ele>
        <time>2022-09-10T13:42:25.000Z</time>
      </trkpt>
      <trkpt lat="43.9358" lon="7.60478">
        <ele>1263.8000488281</ele>
        <time>2022-09-10T13:42:27.000Z</time>
      </trkpt>
      <trkpt lat="43.93578" lon="7.60478">
        <ele>1263.8000488281</ele>
        <time>2022-09-10T13:42:28.000Z</time>
      </trkpt>
      <trkpt lat="43.93576" lon="7.60477">
        <ele>1264</ele>
        <time>2022-09-10T13:42:29.000Z</time>
      </trkpt>
      <trkpt lat="43.93571" lon="7.60474">
        <ele>1263.8000488281</ele>
        <time>2022-09-10T13:42:32.000Z</time>
      </trkpt>
      <trkpt lat="43.93559" lon="7.60461">
        <ele>1263.1999511719</ele>
        <time>2022-09-10T13:42:36.000Z</time>
      </trkpt>
      <trkpt lat="43.93552" lon="7.60452">
        <ele>1262.4000244141</ele>
        <time>2022-09-10T13:42:39.000Z</time>
      </trkpt>
      <trkpt lat="43.93549" lon="7.60448">
        <ele>1262.1999511719</ele>
        <time>2022-09-10T13:42:41.000Z</time>
      </trkpt>
      <trkpt lat="43.93547" lon="7.60445">
        <ele>1262</ele>
        <time>2022-09-10T13:42:43.000Z</time>
      </trkpt>
      <trkpt lat="43.93546" lon="7.60445">
        <ele>1261.4000244141</ele>
        <time>2022-09-10T13:42:45.000Z</time>
      </trkpt>
      <trkpt lat="43.93546" lon="7.60444">
        <ele>1261.1999511719</ele>
        <time>2022-09-10T13:42:46.000Z</time>
      </trkpt>
      <trkpt lat="43.93539" lon="7.60438">
        <ele>1260.5999755859</ele>
        <time>2022-09-10T13:42:56.000Z</time>
      </trkpt>
      <trkpt lat="43.93536" lon="7.60434">
        <ele>1260.4000244141</ele>
        <time>2022-09-10T13:42:58.000Z</time>
      </trkpt>
      <trkpt lat="43.93536" lon="7.60431">
        <ele>1260.4000244141</ele>
        <time>2022-09-10T13:43:00.000Z</time>
      </trkpt>
      <trkpt lat="43.93537" lon="7.60428">
        <ele>1260.4000244141</ele>
        <time>2022-09-10T13:43:03.000Z</time>
      </trkpt>
      <trkpt lat="43.93536" lon="7.60423">
        <ele>1261.1999511719</ele>
        <time>2022-09-10T13:43:06.000Z</time>
      </trkpt>
      <trkpt lat="43.93534" lon="7.60409">
        <ele>1261.5999755859</ele>
        <time>2022-09-10T13:43:10.000Z</time>
      </trkpt>
      <trkpt lat="43.93529" lon="7.60398">
        <ele>1261.4000244141</ele>
        <time>2022-09-10T13:43:14.000Z</time>
      </trkpt>
      <trkpt lat="43.93524" lon="7.60393">
        <ele>1261.1999511719</ele>
        <time>2022-09-10T13:43:18.000Z</time>
      </trkpt>
      <trkpt lat="43.93516" lon="7.60385">
        <ele>1261.5999755859</ele>
        <time>2022-09-10T13:43:24.000Z</time>
      </trkpt>
      <trkpt lat="43.93502" lon="7.60381">
        <ele>1261</ele>
        <time>2022-09-10T13:43:27.000Z</time>
      </trkpt>
      <trkpt lat="43.93498" lon="7.60381">
        <ele>1260.4000244141</ele>
        <time>2022-09-10T13:43:28.000Z</time>
      </trkpt>
      <trkpt lat="43.93491" lon="7.60381">
        <ele>1259.5999755859</ele>
        <time>2022-09-10T13:43:29.000Z</time>
      </trkpt>
      <trkpt lat="43.93484" lon="7.60382">
        <ele>1258.5999755859</ele>
        <time>2022-09-10T13:43:30.000Z</time>
      </trkpt>
      <trkpt lat="43.93478" lon="7.60382">
        <ele>1257.8000488281</ele>
        <time>2022-09-10T13:43:31.000Z</time>
      </trkpt>
      <trkpt lat="43.93473" lon="7.60381">
        <ele>1256.8000488281</ele>
        <time>2022-09-10T13:43:32.000Z</time>
      </trkpt>
      <trkpt lat="43.93466" lon="7.60381">
        <ele>1255.8000488281</ele>
        <time>2022-09-10T13:43:34.000Z</time>
      </trkpt>
      <trkpt lat="43.9346" lon="7.60373">
        <ele>1256</ele>
        <time>2022-09-10T13:43:38.000Z</time>
      </trkpt>
      <trkpt lat="43.9346" lon="7.60366">
        <ele>1257.4000244141</ele>
        <time>2022-09-10T13:43:40.000Z</time>
      </trkpt>
      <trkpt lat="43.93459" lon="7.60359">
        <ele>1258.1999511719</ele>
        <time>2022-09-10T13:43:42.000Z</time>
      </trkpt>
      <trkpt lat="43.93456" lon="7.60356">
        <ele>1258.5999755859</ele>
        <time>2022-09-10T13:43:43.000Z</time>
      </trkpt>
      <trkpt lat="43.93451" lon="7.60354">
        <ele>1258.8000488281</ele>
        <time>2022-09-10T13:43:45.000Z</time>
      </trkpt>
      <trkpt lat="43.93442" lon="7.60358">
        <ele>1259.4000244141</ele>
        <time>2022-09-10T13:43:49.000Z</time>
      </trkpt>
      <trkpt lat="43.9344" lon="7.60361">
        <ele>1259.5999755859</ele>
        <time>2022-09-10T13:43:50.000Z</time>
      </trkpt>
      <trkpt lat="43.93438" lon="7.60365">
        <ele>1260.1999511719</ele>
        <time>2022-09-10T13:43:52.000Z</time>
      </trkpt>
      <trkpt lat="43.93436" lon="7.60366">
        <ele>1260.4000244141</ele>
        <time>2022-09-10T13:43:53.000Z</time>
      </trkpt>
      <trkpt lat="43.93433" lon="7.60367">
        <ele>1260.5999755859</ele>
        <time>2022-09-10T13:43:54.000Z</time>
      </trkpt>
      <trkpt lat="43.93428" lon="7.60366">
        <ele>1260.5999755859</ele>
        <time>2022-09-10T13:43:56.000Z</time>
      </trkpt>
      <trkpt lat="43.93421" lon="7.60365">
        <ele>1261</ele>
        <time>2022-09-10T13:43:58.000Z</time>
      </trkpt>
      <trkpt lat="43.93411" lon="7.60358">
        <ele>1261.4000244141</ele>
        <time>2022-09-10T13:44:01.000Z</time>
      </trkpt>
      <trkpt lat="43.93399" lon="7.6035">
        <ele>1261.4000244141</ele>
        <time>2022-09-10T13:44:05.000Z</time>
      </trkpt>
      <trkpt lat="43.93385" lon="7.60343">
        <ele>1261</ele>
        <time>2022-09-10T13:44:09.000Z</time>
      </trkpt>
      <trkpt lat="43.93375" lon="7.60346">
        <ele>1260.1999511719</ele>
        <time>2022-09-10T13:44:13.000Z</time>
      </trkpt>
      <trkpt lat="43.93371" lon="7.60349">
        <ele>1259.8000488281</ele>
        <time>2022-09-10T13:44:15.000Z</time>
      </trkpt>
      <trkpt lat="43.93367" lon="7.6035">
        <ele>1259.4000244141</ele>
        <time>2022-09-10T13:44:16.000Z</time>
      </trkpt>
      <trkpt lat="43.93362" lon="7.60351">
        <ele>1259.4000244141</ele>
        <time>2022-09-10T13:44:17.000Z</time>
      </trkpt>
      <trkpt lat="43.93342" lon="7.60344">
        <ele>1258.8000488281</ele>
        <time>2022-09-10T13:44:21.000Z</time>
      </trkpt>
      <trkpt lat="43.93337" lon="7.60345">
        <ele>1258.1999511719</ele>
        <time>2022-09-10T13:44:22.000Z</time>
      </trkpt>
      <trkpt lat="43.93327" lon="7.60347">
        <ele>1257.5999755859</ele>
        <time>2022-09-10T13:44:24.000Z</time>
      </trkpt>
      <trkpt lat="43.93321" lon="7.60347">
        <ele>1257</ele>
        <time>2022-09-10T13:44:25.000Z</time>
      </trkpt>
      <trkpt lat="43.93305" lon="7.60337">
        <ele>1256.1999511719</ele>
        <time>2022-09-10T13:44:28.000Z</time>
      </trkpt>
      <trkpt lat="43.93298" lon="7.60334">
        <ele>1255.8000488281</ele>
        <time>2022-09-10T13:44:29.000Z</time>
      </trkpt>
      <trkpt lat="43.93284" lon="7.60333">
        <ele>1254.8000488281</ele>
        <time>2022-09-10T13:44:31.000Z</time>
      </trkpt>
      <trkpt lat="43.93271" lon="7.60333">
        <ele>1253.5999755859</ele>
        <time>2022-09-10T13:44:33.000Z</time>
      </trkpt>
      <trkpt lat="43.93264" lon="7.60332">
        <ele>1252.5999755859</ele>
        <time>2022-09-10T13:44:34.000Z</time>
      </trkpt>
      <trkpt lat="43.93259" lon="7.60335">
        <ele>1252</ele>
        <time>2022-09-10T13:44:35.000Z</time>
      </trkpt>
      <trkpt lat="43.93255" lon="7.6034">
        <ele>1251.1999511719</ele>
        <time>2022-09-10T13:44:36.000Z</time>
      </trkpt>
      <trkpt lat="43.9325" lon="7.6035">
        <ele>1249.8000488281</ele>
        <time>2022-09-10T13:44:38.000Z</time>
      </trkpt>
      <trkpt lat="43.93243" lon="7.60359">
        <ele>1248.5999755859</ele>
        <time>2022-09-10T13:44:40.000Z</time>
      </trkpt>
      <trkpt lat="43.93242" lon="7.60359">
        <ele>1246.5999755859</ele>
        <time>2022-09-10T13:44:42.000Z</time>
      </trkpt>
      <trkpt lat="43.9324" lon="7.60361">
        <ele>1245</ele>
        <time>2022-09-10T13:44:44.000Z</time>
      </trkpt>
      <trkpt lat="43.93241" lon="7.60361">
        <ele>1244.5999755859</ele>
        <time>2022-09-10T13:44:45.000Z</time>
      </trkpt>
      <trkpt lat="43.93241" lon="7.60363">
        <ele>1244</ele>
        <time>2022-09-10T13:44:47.000Z</time>
      </trkpt>
      <trkpt lat="43.9324" lon="7.60364">
        <ele>1243.8000488281</ele>
        <time>2022-09-10T13:44:49.000Z</time>
      </trkpt>
      <trkpt lat="43.93238" lon="7.60368">
        <ele>1243.8000488281</ele>
        <time>2022-09-10T13:44:56.000Z</time>
      </trkpt>
      <trkpt lat="43.93237" lon="7.60371">
        <ele>1244.1999511719</ele>
        <time>2022-09-10T13:45:06.000Z</time>
      </trkpt>
      <trkpt lat="43.93233" lon="7.60375">
        <ele>1244</ele>
        <time>2022-09-10T13:45:17.000Z</time>
      </trkpt>
      <trkpt lat="43.93233" lon="7.60378">
        <ele>1242.8000488281</ele>
        <time>2022-09-10T13:45:22.000Z</time>
      </trkpt>
      <trkpt lat="43.93233" lon="7.60378">
        <ele>1242.5999755859</ele>
        <time>2022-09-10T13:45:23.000Z</time>
      </trkpt>
      <trkpt lat="43.93233" lon="7.60378">
        <ele>1242</ele>
        <time>2022-09-10T13:45:29.000Z</time>
      </trkpt>
      <trkpt lat="43.93234" lon="7.60378">
        <ele>1242</ele>
        <time>2022-09-10T13:45:32.000Z</time>
      </trkpt>
      <trkpt lat="43.93234" lon="7.60377">
        <ele>1241.8000488281</ele>
        <time>2022-09-10T13:45:33.000Z</time>
      </trkpt>
      <trkpt lat="43.93235" lon="7.60378">
        <ele>1241.5999755859</ele>
        <time>2022-09-10T13:45:36.000Z</time>
      </trkpt>
      <trkpt lat="43.93236" lon="7.60377">
        <ele>1241.4000244141</ele>
        <time>2022-09-10T13:45:41.000Z</time>
      </trkpt>
      <trkpt lat="43.93235" lon="7.60377">
        <ele>1241.4000244141</ele>
        <time>2022-09-10T13:45:48.000Z</time>
      </trkpt>
      <trkpt lat="43.93235" lon="7.60379">
        <ele>1241.5999755859</ele>
        <time>2022-09-10T13:45:59.000Z</time>
      </trkpt>
      <trkpt lat="43.93235" lon="7.60379">
        <ele>1241.4000244141</ele>
        <time>2022-09-10T13:46:06.000Z</time>
      </trkpt>
      <trkpt lat="43.93235" lon="7.60379">
        <ele>1241.4000244141</ele>
        <time>2022-09-10T13:46:20.000Z</time>
      </trkpt>
      <trkpt lat="43.93234" lon="7.60379">
        <ele>1242.1999511719</ele>
        <time>2022-09-10T13:46:37.000Z</time>
      </trkpt>
      <trkpt lat="43.93235" lon="7.60383">
        <ele>1241.8000488281</ele>
        <time>2022-09-10T13:46:50.000Z</time>
      </trkpt>
      <trkpt lat="43.93235" lon="7.60384">
        <ele>1241.8000488281</ele>
        <time>2022-09-10T13:46:51.000Z</time>
      </trkpt>
      <trkpt lat="43.9324" lon="7.60398">
        <ele>1241.5999755859</ele>
        <time>2022-09-10T13:46:55.000Z</time>
      </trkpt>
      <trkpt lat="43.93242" lon="7.60411">
        <ele>1240.5999755859</ele>
        <time>2022-09-10T13:46:58.000Z</time>
      </trkpt>
      <trkpt lat="43.93242" lon="7.60416">
        <ele>1240</ele>
        <time>2022-09-10T13:46:59.000Z</time>
      </trkpt>
      <trkpt lat="43.93242" lon="7.60422">
        <ele>1239.5999755859</ele>
        <time>2022-09-10T13:47:00.000Z</time>
      </trkpt>
      <trkpt lat="43.93239" lon="7.60426">
        <ele>1239</ele>
        <time>2022-09-10T13:47:01.000Z</time>
      </trkpt>
      <trkpt lat="43.93231" lon="7.60431">
        <ele>1237.4000244141</ele>
        <time>2022-09-10T13:47:03.000Z</time>
      </trkpt>
      <trkpt lat="43.93223" lon="7.60437">
        <ele>1236</ele>
        <time>2022-09-10T13:47:05.000Z</time>
      </trkpt>
      <trkpt lat="43.93216" lon="7.6044">
        <ele>1234</ele>
        <time>2022-09-10T13:47:07.000Z</time>
      </trkpt>
      <trkpt lat="43.93207" lon="7.60442">
        <ele>1232.4000244141</ele>
        <time>2022-09-10T13:47:09.000Z</time>
      </trkpt>
      <trkpt lat="43.93203" lon="7.60443">
        <ele>1230.4000244141</ele>
        <time>2022-09-10T13:47:10.000Z</time>
      </trkpt>
      <trkpt lat="43.93198" lon="7.60444">
        <ele>1229.4000244141</ele>
        <time>2022-09-10T13:47:11.000Z</time>
      </trkpt>
      <trkpt lat="43.93192" lon="7.60446">
        <ele>1228.4000244141</ele>
        <time>2022-09-10T13:47:12.000Z</time>
      </trkpt>
      <trkpt lat="43.93181" lon="7.60451">
        <ele>1227</ele>
        <time>2022-09-10T13:47:14.000Z</time>
      </trkpt>
      <trkpt lat="43.93176" lon="7.60455">
        <ele>1226.4000244141</ele>
        <time>2022-09-10T13:47:15.000Z</time>
      </trkpt>
      <trkpt lat="43.93174" lon="7.60459">
        <ele>1225.5999755859</ele>
        <time>2022-09-10T13:47:16.000Z</time>
      </trkpt>
      <trkpt lat="43.93168" lon="7.60473">
        <ele>1224.4000244141</ele>
        <time>2022-09-10T13:47:18.000Z</time>
      </trkpt>
      <trkpt lat="43.93164" lon="7.60482">
        <ele>1224.4000244141</ele>
        <time>2022-09-10T13:47:19.000Z</time>
      </trkpt>
      <trkpt lat="43.93155" lon="7.60498">
        <ele>1223.1999511719</ele>
        <time>2022-09-10T13:47:21.000Z</time>
      </trkpt>
      <trkpt lat="43.93152" lon="7.60507">
        <ele>1222.4000244141</ele>
        <time>2022-09-10T13:47:22.000Z</time>
      </trkpt>
      <trkpt lat="43.9315" lon="7.60515">
        <ele>1221.8000488281</ele>
        <time>2022-09-10T13:47:23.000Z</time>
      </trkpt>
      <trkpt lat="43.93145" lon="7.6053">
        <ele>1220.8000488281</ele>
        <time>2022-09-10T13:47:25.000Z</time>
      </trkpt>
      <trkpt lat="43.93138" lon="7.60533">
        <ele>1219.8000488281</ele>
        <time>2022-09-10T13:47:27.000Z</time>
      </trkpt>
      <trkpt lat="43.93131" lon="7.60542">
        <ele>1218.4000244141</ele>
        <time>2022-09-10T13:47:30.000Z</time>
      </trkpt>
      <trkpt lat="43.93128" lon="7.60546">
        <ele>1218.1999511719</ele>
        <time>2022-09-10T13:47:31.000Z</time>
      </trkpt>
      <trkpt lat="43.93124" lon="7.6055">
        <ele>1217.5999755859</ele>
        <time>2022-09-10T13:47:32.000Z</time>
      </trkpt>
      <trkpt lat="43.93121" lon="7.60553">
        <ele>1217.1999511719</ele>
        <time>2022-09-10T13:47:33.000Z</time>
      </trkpt>
      <trkpt lat="43.93115" lon="7.60559">
        <ele>1216.5999755859</ele>
        <time>2022-09-10T13:47:35.000Z</time>
      </trkpt>
      <trkpt lat="43.93113" lon="7.60562">
        <ele>1215.5999755859</ele>
        <time>2022-09-10T13:47:36.000Z</time>
      </trkpt>
      <trkpt lat="43.93112" lon="7.60568">
        <ele>1215</ele>
        <time>2022-09-10T13:47:37.000Z</time>
      </trkpt>
      <trkpt lat="43.9311" lon="7.60573">
        <ele>1214.1999511719</ele>
        <time>2022-09-10T13:47:38.000Z</time>
      </trkpt>
      <trkpt lat="43.93104" lon="7.60581">
        <ele>1212.8000488281</ele>
        <time>2022-09-10T13:47:40.000Z</time>
      </trkpt>
      <trkpt lat="43.93097" lon="7.60588">
        <ele>1211.4000244141</ele>
        <time>2022-09-10T13:47:42.000Z</time>
      </trkpt>
      <trkpt lat="43.93094" lon="7.60588">
        <ele>1212</ele>
        <time>2022-09-10T13:47:43.000Z</time>
      </trkpt>
      <trkpt lat="43.93088" lon="7.60589">
        <ele>1211.1999511719</ele>
        <time>2022-09-10T13:47:45.000Z</time>
      </trkpt>
      <trkpt lat="43.93085" lon="7.60592">
        <ele>1210</ele>
        <time>2022-09-10T13:47:46.000Z</time>
      </trkpt>
      <trkpt lat="43.93081" lon="7.60596">
        <ele>1207</ele>
        <time>2022-09-10T13:47:47.000Z</time>
      </trkpt>
      <trkpt lat="43.93076" lon="7.60599">
        <ele>1205.8000488281</ele>
        <time>2022-09-10T13:47:48.000Z</time>
      </trkpt>
      <trkpt lat="43.9307" lon="7.60601">
        <ele>1204.5999755859</ele>
        <time>2022-09-10T13:47:49.000Z</time>
      </trkpt>
      <trkpt lat="43.93065" lon="7.60602">
        <ele>1203.4000244141</ele>
        <time>2022-09-10T13:47:50.000Z</time>
      </trkpt>
      <trkpt lat="43.93062" lon="7.60601">
        <ele>1202.1999511719</ele>
        <time>2022-09-10T13:47:51.000Z</time>
      </trkpt>
      <trkpt lat="43.9306" lon="7.60602">
        <ele>1201.1999511719</ele>
        <time>2022-09-10T13:47:52.000Z</time>
      </trkpt>
      <trkpt lat="43.9306" lon="7.60602">
        <ele>1200</ele>
        <time>2022-09-10T13:47:53.000Z</time>
      </trkpt>
      <trkpt lat="43.9306" lon="7.60602">
        <ele>1198.8000488281</ele>
        <time>2022-09-10T13:47:55.000Z</time>
      </trkpt>
      <trkpt lat="43.9306" lon="7.60602">
        <ele>1198.8000488281</ele>
        <time>2022-09-10T13:47:56.000Z</time>
      </trkpt>
      <trkpt lat="43.93058" lon="7.60605">
        <ele>1198.8000488281</ele>
        <time>2022-09-10T13:48:06.000Z</time>
      </trkpt>
      <trkpt lat="43.93056" lon="7.60605">
        <ele>1198.4000244141</ele>
        <time>2022-09-10T13:48:07.000Z</time>
      </trkpt>
      <trkpt lat="43.9305" lon="7.60611">
        <ele>1197.8000488281</ele>
        <time>2022-09-10T13:48:09.000Z</time>
      </trkpt>
      <trkpt lat="43.93046" lon="7.60612">
        <ele>1197.4000244141</ele>
        <time>2022-09-10T13:48:10.000Z</time>
      </trkpt>
      <trkpt lat="43.93038" lon="7.60611">
        <ele>1196.8000488281</ele>
        <time>2022-09-10T13:48:12.000Z</time>
      </trkpt>
      <trkpt lat="43.93034" lon="7.6061">
        <ele>1196.4000244141</ele>
        <time>2022-09-10T13:48:13.000Z</time>
      </trkpt>
      <trkpt lat="43.93025" lon="7.60611">
        <ele>1195.1999511719</ele>
        <time>2022-09-10T13:48:15.000Z</time>
      </trkpt>
      <trkpt lat="43.9302" lon="7.60612">
        <ele>1195</ele>
        <time>2022-09-10T13:48:16.000Z</time>
      </trkpt>
      <trkpt lat="43.93015" lon="7.60614">
        <ele>1194.5999755859</ele>
        <time>2022-09-10T13:48:17.000Z</time>
      </trkpt>
      <trkpt lat="43.9301" lon="7.60616">
        <ele>1193.8000488281</ele>
        <time>2022-09-10T13:48:18.000Z</time>
      </trkpt>
      <trkpt lat="43.93006" lon="7.6062">
        <ele>1193.1999511719</ele>
        <time>2022-09-10T13:48:19.000Z</time>
      </trkpt>
      <trkpt lat="43.93003" lon="7.60623">
        <ele>1192.4000244141</ele>
        <time>2022-09-10T13:48:20.000Z</time>
      </trkpt>
      <trkpt lat="43.92999" lon="7.60625">
        <ele>1190.8000488281</ele>
        <time>2022-09-10T13:48:21.000Z</time>
      </trkpt>
      <trkpt lat="43.92997" lon="7.60628">
        <ele>1190.5999755859</ele>
        <time>2022-09-10T13:48:22.000Z</time>
      </trkpt>
      <trkpt lat="43.92994" lon="7.6063">
        <ele>1189.4000244141</ele>
        <time>2022-09-10T13:48:23.000Z</time>
      </trkpt>
      <trkpt lat="43.92991" lon="7.60632">
        <ele>1188</ele>
        <time>2022-09-10T13:48:24.000Z</time>
      </trkpt>
      <trkpt lat="43.9299" lon="7.60633">
        <ele>1186</ele>
        <time>2022-09-10T13:48:25.000Z</time>
      </trkpt>
      <trkpt lat="43.92991" lon="7.60632">
        <ele>1184.8000488281</ele>
        <time>2022-09-10T13:48:26.000Z</time>
      </trkpt>
      <trkpt lat="43.9299" lon="7.60634">
        <ele>1183.4000244141</ele>
        <time>2022-09-10T13:48:27.000Z</time>
      </trkpt>
      <trkpt lat="43.9299" lon="7.60634">
        <ele>1182</ele>
        <time>2022-09-10T13:48:29.000Z</time>
      </trkpt>
      <trkpt lat="43.92991" lon="7.60635">
        <ele>1180.5999755859</ele>
        <time>2022-09-10T13:48:33.000Z</time>
      </trkpt>
      <trkpt lat="43.92992" lon="7.60636">
        <ele>1179.5999755859</ele>
        <time>2022-09-10T13:48:35.000Z</time>
      </trkpt>
      <trkpt lat="43.92994" lon="7.60636">
        <ele>1179.4000244141</ele>
        <time>2022-09-10T13:48:36.000Z</time>
      </trkpt>
      <trkpt lat="43.92996" lon="7.60638">
        <ele>1179</ele>
        <time>2022-09-10T13:48:37.000Z</time>
      </trkpt>
      <trkpt lat="43.92995" lon="7.60644">
        <ele>1178.1999511719</ele>
        <time>2022-09-10T13:48:39.000Z</time>
      </trkpt>
      <trkpt lat="43.92993" lon="7.60644">
        <ele>1177.8000488281</ele>
        <time>2022-09-10T13:48:40.000Z</time>
      </trkpt>
      <trkpt lat="43.92982" lon="7.60647">
        <ele>1177</ele>
        <time>2022-09-10T13:48:44.000Z</time>
      </trkpt>
      <trkpt lat="43.92969" lon="7.6065">
        <ele>1176.5999755859</ele>
        <time>2022-09-10T13:48:48.000Z</time>
      </trkpt>
      <trkpt lat="43.92965" lon="7.60651">
        <ele>1176.5999755859</ele>
        <time>2022-09-10T13:48:49.000Z</time>
      </trkpt>
      <trkpt lat="43.92959" lon="7.60649">
        <ele>1176</ele>
        <time>2022-09-10T13:48:51.000Z</time>
      </trkpt>
      <trkpt lat="43.92954" lon="7.60649">
        <ele>1175.5999755859</ele>
        <time>2022-09-10T13:48:53.000Z</time>
      </trkpt>
      <trkpt lat="43.92948" lon="7.60649">
        <ele>1174.8000488281</ele>
        <time>2022-09-10T13:48:55.000Z</time>
      </trkpt>
      <trkpt lat="43.92945" lon="7.6065">
        <ele>1174.5999755859</ele>
        <time>2022-09-10T13:48:56.000Z</time>
      </trkpt>
      <trkpt lat="43.92936" lon="7.6065">
        <ele>1173.5999755859</ele>
        <time>2022-09-10T13:48:59.000Z</time>
      </trkpt>
      <trkpt lat="43.9292" lon="7.60653">
        <ele>1172.5999755859</ele>
        <time>2022-09-10T13:49:05.000Z</time>
      </trkpt>
      <trkpt lat="43.92907" lon="7.60655">
        <ele>1173</ele>
        <time>2022-09-10T13:49:10.000Z</time>
      </trkpt>
      <trkpt lat="43.92894" lon="7.60663">
        <ele>1173.5999755859</ele>
        <time>2022-09-10T13:49:15.000Z</time>
      </trkpt>
      <trkpt lat="43.92891" lon="7.60665">
        <ele>1173.5999755859</ele>
        <time>2022-09-10T13:49:16.000Z</time>
      </trkpt>
      <trkpt lat="43.92867" lon="7.60678">
        <ele>1174.4000244141</ele>
        <time>2022-09-10T13:49:23.000Z</time>
      </trkpt>
      <trkpt lat="43.92845" lon="7.60682">
        <ele>1174.4000244141</ele>
        <time>2022-09-10T13:49:29.000Z</time>
      </trkpt>
      <trkpt lat="43.92833" lon="7.60684">
        <ele>1174.1999511719</ele>
        <time>2022-09-10T13:49:32.000Z</time>
      </trkpt>
      <trkpt lat="43.92825" lon="7.60681">
        <ele>1174.1999511719</ele>
        <time>2022-09-10T13:49:34.000Z</time>
      </trkpt>
      <trkpt lat="43.92822" lon="7.60679">
        <ele>1174.1999511719</ele>
        <time>2022-09-10T13:49:35.000Z</time>
      </trkpt>
      <trkpt lat="43.92807" lon="7.60675">
        <ele>1173.5999755859</ele>
        <time>2022-09-10T13:49:39.000Z</time>
      </trkpt>
      <trkpt lat="43.92803" lon="7.60676">
        <ele>1173.4000244141</ele>
        <time>2022-09-10T13:49:40.000Z</time>
      </trkpt>
      <trkpt lat="43.92785" lon="7.60679">
        <ele>1173</ele>
        <time>2022-09-10T13:49:44.000Z</time>
      </trkpt>
      <trkpt lat="43.9278" lon="7.60681">
        <ele>1172.5999755859</ele>
        <time>2022-09-10T13:49:45.000Z</time>
      </trkpt>
      <trkpt lat="43.92772" lon="7.60685">
        <ele>1172</ele>
        <time>2022-09-10T13:49:47.000Z</time>
      </trkpt>
      <trkpt lat="43.92763" lon="7.60689">
        <ele>1171.5999755859</ele>
        <time>2022-09-10T13:49:49.000Z</time>
      </trkpt>
      <trkpt lat="43.92758" lon="7.60691">
        <ele>1171.5999755859</ele>
        <time>2022-09-10T13:49:50.000Z</time>
      </trkpt>
      <trkpt lat="43.92753" lon="7.60694">
        <ele>1171.1999511719</ele>
        <time>2022-09-10T13:49:51.000Z</time>
      </trkpt>
      <trkpt lat="43.92733" lon="7.60704">
        <ele>1170.5999755859</ele>
        <time>2022-09-10T13:49:55.000Z</time>
      </trkpt>
      <trkpt lat="43.92727" lon="7.60705">
        <ele>1170.4000244141</ele>
        <time>2022-09-10T13:49:56.000Z</time>
      </trkpt>
      <trkpt lat="43.92722" lon="7.60708">
        <ele>1170.1999511719</ele>
        <time>2022-09-10T13:49:57.000Z</time>
      </trkpt>
      <trkpt lat="43.92713" lon="7.60713">
        <ele>1169.8000488281</ele>
        <time>2022-09-10T13:49:59.000Z</time>
      </trkpt>
      <trkpt lat="43.92708" lon="7.60715">
        <ele>1169.4000244141</ele>
        <time>2022-09-10T13:50:00.000Z</time>
      </trkpt>
      <trkpt lat="43.92697" lon="7.60728">
        <ele>1168.5999755859</ele>
        <time>2022-09-10T13:50:04.000Z</time>
      </trkpt>
      <trkpt lat="43.9269" lon="7.60738">
        <ele>1168.4000244141</ele>
        <time>2022-09-10T13:50:06.000Z</time>
      </trkpt>
      <trkpt lat="43.92686" lon="7.60741">
        <ele>1168</ele>
        <time>2022-09-10T13:50:07.000Z</time>
      </trkpt>
      <trkpt lat="43.92675" lon="7.60745">
        <ele>1167</ele>
        <time>2022-09-10T13:50:11.000Z</time>
      </trkpt>
      <trkpt lat="43.92673" lon="7.60745">
        <ele>1167</ele>
        <time>2022-09-10T13:50:13.000Z</time>
      </trkpt>
      <trkpt lat="43.92669" lon="7.60746">
        <ele>1166.8000488281</ele>
        <time>2022-09-10T13:50:17.000Z</time>
      </trkpt>
      <trkpt lat="43.92669" lon="7.60752">
        <ele>1166.5999755859</ele>
        <time>2022-09-10T13:50:21.000Z</time>
      </trkpt>
      <trkpt lat="43.92669" lon="7.60753">
        <ele>1166</ele>
        <time>2022-09-10T13:50:23.000Z</time>
      </trkpt>
      <trkpt lat="43.92669" lon="7.60753">
        <ele>1164.8000488281</ele>
        <time>2022-09-10T13:50:25.000Z</time>
      </trkpt>
      <trkpt lat="43.9267" lon="7.60753">
        <ele>1164</ele>
        <time>2022-09-10T13:50:26.000Z</time>
      </trkpt>
      <trkpt lat="43.9267" lon="7.60754">
        <ele>1163.5999755859</ele>
        <time>2022-09-10T13:50:27.000Z</time>
      </trkpt>
      <trkpt lat="43.92673" lon="7.60759">
        <ele>1162.8000488281</ele>
        <time>2022-09-10T13:50:35.000Z</time>
      </trkpt>
      <trkpt lat="43.92674" lon="7.60762">
        <ele>1162.5999755859</ele>
        <time>2022-09-10T13:50:37.000Z</time>
      </trkpt>
      <trkpt lat="43.92675" lon="7.60766">
        <ele>1161.4000244141</ele>
        <time>2022-09-10T13:50:39.000Z</time>
      </trkpt>
      <trkpt lat="43.92676" lon="7.60769">
        <ele>1160.8000488281</ele>
        <time>2022-09-10T13:50:40.000Z</time>
      </trkpt>
      <trkpt lat="43.92677" lon="7.60771">
        <ele>1160</ele>
        <time>2022-09-10T13:50:41.000Z</time>
      </trkpt>
      <trkpt lat="43.92678" lon="7.60773">
        <ele>1158.5999755859</ele>
        <time>2022-09-10T13:50:43.000Z</time>
      </trkpt>
      <trkpt lat="43.9268" lon="7.60775">
        <ele>1157.8000488281</ele>
        <time>2022-09-10T13:50:44.000Z</time>
      </trkpt>
      <trkpt lat="43.9268" lon="7.60779">
        <ele>1156.8000488281</ele>
        <time>2022-09-10T13:50:45.000Z</time>
      </trkpt>
      <trkpt lat="43.92677" lon="7.60785">
        <ele>1155.1999511719</ele>
        <time>2022-09-10T13:50:47.000Z</time>
      </trkpt>
      <trkpt lat="43.92675" lon="7.60788">
        <ele>1154.5999755859</ele>
        <time>2022-09-10T13:50:48.000Z</time>
      </trkpt>
      <trkpt lat="43.92673" lon="7.6079">
        <ele>1153.8000488281</ele>
        <time>2022-09-10T13:50:49.000Z</time>
      </trkpt>
      <trkpt lat="43.92668" lon="7.60793">
        <ele>1151.8000488281</ele>
        <time>2022-09-10T13:50:51.000Z</time>
      </trkpt>
      <trkpt lat="43.92666" lon="7.60799">
        <ele>1150.8000488281</ele>
        <time>2022-09-10T13:50:52.000Z</time>
      </trkpt>
      <trkpt lat="43.92664" lon="7.60813">
        <ele>1148.8000488281</ele>
        <time>2022-09-10T13:50:54.000Z</time>
      </trkpt>
      <trkpt lat="43.92665" lon="7.60817">
        <ele>1147.8000488281</ele>
        <time>2022-09-10T13:50:55.000Z</time>
      </trkpt>
      <trkpt lat="43.92665" lon="7.60821">
        <ele>1146.5999755859</ele>
        <time>2022-09-10T13:50:56.000Z</time>
      </trkpt>
      <trkpt lat="43.92664" lon="7.60824">
        <ele>1145</ele>
        <time>2022-09-10T13:50:57.000Z</time>
      </trkpt>
      <trkpt lat="43.92665" lon="7.60828">
        <ele>1143</ele>
        <time>2022-09-10T13:50:59.000Z</time>
      </trkpt>
      <trkpt lat="43.92667" lon="7.6083">
        <ele>1141.8000488281</ele>
        <time>2022-09-10T13:51:00.000Z</time>
      </trkpt>
      <trkpt lat="43.92662" lon="7.60837">
        <ele>1140</ele>
        <time>2022-09-10T13:51:02.000Z</time>
      </trkpt>
      <trkpt lat="43.92655" lon="7.60842">
        <ele>1138.1999511719</ele>
        <time>2022-09-10T13:51:04.000Z</time>
      </trkpt>
      <trkpt lat="43.92654" lon="7.60847">
        <ele>1137.4000244141</ele>
        <time>2022-09-10T13:51:05.000Z</time>
      </trkpt>
      <trkpt lat="43.92653" lon="7.60852">
        <ele>1136.4000244141</ele>
        <time>2022-09-10T13:51:06.000Z</time>
      </trkpt>
      <trkpt lat="43.92652" lon="7.6086">
        <ele>1135.4000244141</ele>
        <time>2022-09-10T13:51:08.000Z</time>
      </trkpt>
      <trkpt lat="43.92649" lon="7.60861">
        <ele>1134.4000244141</ele>
        <time>2022-09-10T13:51:09.000Z</time>
      </trkpt>
      <trkpt lat="43.92647" lon="7.60865">
        <ele>1133</ele>
        <time>2022-09-10T13:51:11.000Z</time>
      </trkpt>
      <trkpt lat="43.92646" lon="7.60871">
        <ele>1131.5999755859</ele>
        <time>2022-09-10T13:51:12.000Z</time>
      </trkpt>
      <trkpt lat="43.92646" lon="7.60877">
        <ele>1130.4000244141</ele>
        <time>2022-09-10T13:51:13.000Z</time>
      </trkpt>
      <trkpt lat="43.9264" lon="7.60884">
        <ele>1128.4000244141</ele>
        <time>2022-09-10T13:51:15.000Z</time>
      </trkpt>
      <trkpt lat="43.92636" lon="7.60895">
        <ele>1127.1999511719</ele>
        <time>2022-09-10T13:51:17.000Z</time>
      </trkpt>
      <trkpt lat="43.92632" lon="7.60899">
        <ele>1126.5999755859</ele>
        <time>2022-09-10T13:51:18.000Z</time>
      </trkpt>
      <trkpt lat="43.92629" lon="7.60902">
        <ele>1126</ele>
        <time>2022-09-10T13:51:19.000Z</time>
      </trkpt>
      <trkpt lat="43.92624" lon="7.60908">
        <ele>1124.1999511719</ele>
        <time>2022-09-10T13:51:21.000Z</time>
      </trkpt>
      <trkpt lat="43.92621" lon="7.6091">
        <ele>1123.4000244141</ele>
        <time>2022-09-10T13:51:22.000Z</time>
      </trkpt>
      <trkpt lat="43.92618" lon="7.60912">
        <ele>1122.4000244141</ele>
        <time>2022-09-10T13:51:23.000Z</time>
      </trkpt>
      <trkpt lat="43.92616" lon="7.60917">
        <ele>1121.5999755859</ele>
        <time>2022-09-10T13:51:24.000Z</time>
      </trkpt>
      <trkpt lat="43.92613" lon="7.60922">
        <ele>1120</ele>
        <time>2022-09-10T13:51:25.000Z</time>
      </trkpt>
      <trkpt lat="43.92612" lon="7.60924">
        <ele>1119</ele>
        <time>2022-09-10T13:51:26.000Z</time>
      </trkpt>
      <trkpt lat="43.92611" lon="7.60926">
        <ele>1117.4000244141</ele>
        <time>2022-09-10T13:51:27.000Z</time>
      </trkpt>
      <trkpt lat="43.92609" lon="7.6093">
        <ele>1115.8000488281</ele>
        <time>2022-09-10T13:51:29.000Z</time>
      </trkpt>
      <trkpt lat="43.92609" lon="7.60932">
        <ele>1115.5999755859</ele>
        <time>2022-09-10T13:51:30.000Z</time>
      </trkpt>
      <trkpt lat="43.92605" lon="7.60938">
        <ele>1114.8000488281</ele>
        <time>2022-09-10T13:51:35.000Z</time>
      </trkpt>
      <trkpt lat="43.92605" lon="7.60938">
        <ele>1114.5999755859</ele>
        <time>2022-09-10T13:51:37.000Z</time>
      </trkpt>
      <trkpt lat="43.92601" lon="7.60939">
        <ele>1114.1999511719</ele>
        <time>2022-09-10T13:51:47.000Z</time>
      </trkpt>
      <trkpt lat="43.926" lon="7.60929">
        <ele>1113.5999755859</ele>
        <time>2022-09-10T13:51:50.000Z</time>
      </trkpt>
      <trkpt lat="43.926" lon="7.60927">
        <ele>1113</ele>
        <time>2022-09-10T13:51:51.000Z</time>
      </trkpt>
      <trkpt lat="43.92599" lon="7.60925">
        <ele>1112.5999755859</ele>
        <time>2022-09-10T13:51:52.000Z</time>
      </trkpt>
      <trkpt lat="43.92599" lon="7.60924">
        <ele>1112.1999511719</ele>
        <time>2022-09-10T13:51:53.000Z</time>
      </trkpt>
      <trkpt lat="43.92598" lon="7.60924">
        <ele>1111.5999755859</ele>
        <time>2022-09-10T13:51:54.000Z</time>
      </trkpt>
      <trkpt lat="43.92597" lon="7.60925">
        <ele>1111</ele>
        <time>2022-09-10T13:51:55.000Z</time>
      </trkpt>
      <trkpt lat="43.92591" lon="7.6093">
        <ele>1109.8000488281</ele>
        <time>2022-09-10T13:51:57.000Z</time>
      </trkpt>
      <trkpt lat="43.92585" lon="7.60932">
        <ele>1108</ele>
        <time>2022-09-10T13:51:59.000Z</time>
      </trkpt>
      <trkpt lat="43.92582" lon="7.60933">
        <ele>1106.5999755859</ele>
        <time>2022-09-10T13:52:00.000Z</time>
      </trkpt>
      <trkpt lat="43.92579" lon="7.60935">
        <ele>1105.4000244141</ele>
        <time>2022-09-10T13:52:01.000Z</time>
      </trkpt>
      <trkpt lat="43.92577" lon="7.60937">
        <ele>1104</ele>
        <time>2022-09-10T13:52:02.000Z</time>
      </trkpt>
      <trkpt lat="43.92574" lon="7.60939">
        <ele>1102.4000244141</ele>
        <time>2022-09-10T13:52:03.000Z</time>
      </trkpt>
      <trkpt lat="43.92571" lon="7.60938">
        <ele>1101.1999511719</ele>
        <time>2022-09-10T13:52:04.000Z</time>
      </trkpt>
      <trkpt lat="43.92568" lon="7.60938">
        <ele>1100</ele>
        <time>2022-09-10T13:52:05.000Z</time>
      </trkpt>
      <trkpt lat="43.92568" lon="7.60939">
        <ele>1098</ele>
        <time>2022-09-10T13:52:07.000Z</time>
      </trkpt>
      <trkpt lat="43.92567" lon="7.60939">
        <ele>1097</ele>
        <time>2022-09-10T13:52:08.000Z</time>
      </trkpt>
      <trkpt lat="43.92567" lon="7.60938">
        <ele>1095.8000488281</ele>
        <time>2022-09-10T13:52:09.000Z</time>
      </trkpt>
      <trkpt lat="43.92567" lon="7.60938">
        <ele>1093.8000488281</ele>
        <time>2022-09-10T13:52:15.000Z</time>
      </trkpt>
      <trkpt lat="43.92567" lon="7.60941">
        <ele>1094.1999511719</ele>
        <time>2022-09-10T13:52:23.000Z</time>
      </trkpt>
      <trkpt lat="43.92567" lon="7.60942">
        <ele>1094.1999511719</ele>
        <time>2022-09-10T13:52:31.000Z</time>
      </trkpt>
      <trkpt lat="43.92566" lon="7.60944">
        <ele>1094.1999511719</ele>
        <time>2022-09-10T13:52:37.000Z</time>
      </trkpt>
      <trkpt lat="43.92564" lon="7.60945">
        <ele>1094</ele>
        <time>2022-09-10T13:52:44.000Z</time>
      </trkpt>
      <trkpt lat="43.9256" lon="7.60949">
        <ele>1093.8000488281</ele>
        <time>2022-09-10T13:52:47.000Z</time>
      </trkpt>
      <trkpt lat="43.9256" lon="7.60952">
        <ele>1093.4000244141</ele>
        <time>2022-09-10T13:52:48.000Z</time>
      </trkpt>
      <trkpt lat="43.9256" lon="7.60958">
        <ele>1092</ele>
        <time>2022-09-10T13:52:51.000Z</time>
      </trkpt>
      <trkpt lat="43.92561" lon="7.60961">
        <ele>1091.4000244141</ele>
        <time>2022-09-10T13:52:52.000Z</time>
      </trkpt>
      <trkpt lat="43.92562" lon="7.60965">
        <ele>1090.5999755859</ele>
        <time>2022-09-10T13:52:53.000Z</time>
      </trkpt>
      <trkpt lat="43.92565" lon="7.60975">
        <ele>1089.1999511719</ele>
        <time>2022-09-10T13:52:55.000Z</time>
      </trkpt>
      <trkpt lat="43.92566" lon="7.6098">
        <ele>1088.5999755859</ele>
        <time>2022-09-10T13:52:56.000Z</time>
      </trkpt>
      <trkpt lat="43.92566" lon="7.60985">
        <ele>1088</ele>
        <time>2022-09-10T13:52:57.000Z</time>
      </trkpt>
      <trkpt lat="43.92568" lon="7.60991">
        <ele>1086.4000244141</ele>
        <time>2022-09-10T13:52:59.000Z</time>
      </trkpt>
      <trkpt lat="43.92568" lon="7.60994">
        <ele>1086</ele>
        <time>2022-09-10T13:53:00.000Z</time>
      </trkpt>
      <trkpt lat="43.92566" lon="7.60993">
        <ele>1085.4000244141</ele>
        <time>2022-09-10T13:53:01.000Z</time>
      </trkpt>
      <trkpt lat="43.92564" lon="7.60993">
        <ele>1084.1999511719</ele>
        <time>2022-09-10T13:53:03.000Z</time>
      </trkpt>
      <trkpt lat="43.92567" lon="7.60996">
        <ele>1083.5999755859</ele>
        <time>2022-09-10T13:53:06.000Z</time>
      </trkpt>
      <trkpt lat="43.9257" lon="7.60996">
        <ele>1083.4000244141</ele>
        <time>2022-09-10T13:53:07.000Z</time>
      </trkpt>
      <trkpt lat="43.92576" lon="7.60995">
        <ele>1083</ele>
        <time>2022-09-10T13:53:09.000Z</time>
      </trkpt>
      <trkpt lat="43.92584" lon="7.60997">
        <ele>1082</ele>
        <time>2022-09-10T13:53:12.000Z</time>
      </trkpt>
      <trkpt lat="43.92589" lon="7.60997">
        <ele>1081</ele>
        <time>2022-09-10T13:53:14.000Z</time>
      </trkpt>
      <trkpt lat="43.92589" lon="7.60998">
        <ele>1080.5999755859</ele>
        <time>2022-09-10T13:53:15.000Z</time>
      </trkpt>
      <trkpt lat="43.9259" lon="7.60999">
        <ele>1079.4000244141</ele>
        <time>2022-09-10T13:53:18.000Z</time>
      </trkpt>
      <trkpt lat="43.92589" lon="7.60999">
        <ele>1079</ele>
        <time>2022-09-10T13:53:20.000Z</time>
      </trkpt>
      <trkpt lat="43.92588" lon="7.60999">
        <ele>1078.8000488281</ele>
        <time>2022-09-10T13:53:25.000Z</time>
      </trkpt>
      <trkpt lat="43.92586" lon="7.60999">
        <ele>1078.8000488281</ele>
        <time>2022-09-10T13:53:26.000Z</time>
      </trkpt>
      <trkpt lat="43.92573" lon="7.61001">
        <ele>1078.5999755859</ele>
        <time>2022-09-10T13:53:31.000Z</time>
      </trkpt>
      <trkpt lat="43.92562" lon="7.61006">
        <ele>1078.1999511719</ele>
        <time>2022-09-10T13:53:35.000Z</time>
      </trkpt>
      <trkpt lat="43.92561" lon="7.61007">
        <ele>1078</ele>
        <time>2022-09-10T13:53:36.000Z</time>
      </trkpt>
      <trkpt lat="43.9256" lon="7.61008">
        <ele>1077.5999755859</ele>
        <time>2022-09-10T13:53:37.000Z</time>
      </trkpt>
      <trkpt lat="43.92561" lon="7.61011">
        <ele>1077</ele>
        <time>2022-09-10T13:53:39.000Z</time>
      </trkpt>
      <trkpt lat="43.92561" lon="7.61014">
        <ele>1076.5999755859</ele>
        <time>2022-09-10T13:53:40.000Z</time>
      </trkpt>
      <trkpt lat="43.92559" lon="7.61022">
        <ele>1075.5999755859</ele>
        <time>2022-09-10T13:53:43.000Z</time>
      </trkpt>
      <trkpt lat="43.92557" lon="7.61024">
        <ele>1074.8000488281</ele>
        <time>2022-09-10T13:53:44.000Z</time>
      </trkpt>
      <trkpt lat="43.92555" lon="7.61025">
        <ele>1073.8000488281</ele>
        <time>2022-09-10T13:53:45.000Z</time>
      </trkpt>
      <trkpt lat="43.92554" lon="7.61031">
        <ele>1071.8000488281</ele>
        <time>2022-09-10T13:53:47.000Z</time>
      </trkpt>
      <trkpt lat="43.92555" lon="7.61034">
        <ele>1070.4000244141</ele>
        <time>2022-09-10T13:53:48.000Z</time>
      </trkpt>
      <trkpt lat="43.92556" lon="7.61038">
        <ele>1069.4000244141</ele>
        <time>2022-09-10T13:53:49.000Z</time>
      </trkpt>
      <trkpt lat="43.92557" lon="7.61041">
        <ele>1068</ele>
        <time>2022-09-10T13:53:50.000Z</time>
      </trkpt>
      <trkpt lat="43.92557" lon="7.61045">
        <ele>1066.5999755859</ele>
        <time>2022-09-10T13:53:51.000Z</time>
      </trkpt>
      <trkpt lat="43.92557" lon="7.61048">
        <ele>1065.4000244141</ele>
        <time>2022-09-10T13:53:52.000Z</time>
      </trkpt>
      <trkpt lat="43.92557" lon="7.6105">
        <ele>1064.1999511719</ele>
        <time>2022-09-10T13:53:53.000Z</time>
      </trkpt>
      <trkpt lat="43.92558" lon="7.6105">
        <ele>1063.1999511719</ele>
        <time>2022-09-10T13:53:54.000Z</time>
      </trkpt>
      <trkpt lat="43.9256" lon="7.61054">
        <ele>1061.4000244141</ele>
        <time>2022-09-10T13:53:56.000Z</time>
      </trkpt>
      <trkpt lat="43.92556" lon="7.61058">
        <ele>1060.4000244141</ele>
        <time>2022-09-10T13:53:58.000Z</time>
      </trkpt>
      <trkpt lat="43.92554" lon="7.61062">
        <ele>1059.5999755859</ele>
        <time>2022-09-10T13:53:59.000Z</time>
      </trkpt>
      <trkpt lat="43.92552" lon="7.61067">
        <ele>1059.1999511719</ele>
        <time>2022-09-10T13:54:00.000Z</time>
      </trkpt>
      <trkpt lat="43.92553" lon="7.61074">
        <ele>1057.8000488281</ele>
        <time>2022-09-10T13:54:02.000Z</time>
      </trkpt>
      <trkpt lat="43.92552" lon="7.61083">
        <ele>1056.4000244141</ele>
        <time>2022-09-10T13:54:04.000Z</time>
      </trkpt>
      <trkpt lat="43.92552" lon="7.61089">
        <ele>1055.8000488281</ele>
        <time>2022-09-10T13:54:05.000Z</time>
      </trkpt>
      <trkpt lat="43.9255" lon="7.61095">
        <ele>1055.1999511719</ele>
        <time>2022-09-10T13:54:06.000Z</time>
      </trkpt>
      <trkpt lat="43.9255" lon="7.61101">
        <ele>1053.4000244141</ele>
        <time>2022-09-10T13:54:08.000Z</time>
      </trkpt>
      <trkpt lat="43.9255" lon="7.61108">
        <ele>1052.4000244141</ele>
        <time>2022-09-10T13:54:09.000Z</time>
      </trkpt>
      <trkpt lat="43.92549" lon="7.61121">
        <ele>1050.4000244141</ele>
        <time>2022-09-10T13:54:11.000Z</time>
      </trkpt>
      <trkpt lat="43.92548" lon="7.61125">
        <ele>1049.4000244141</ele>
        <time>2022-09-10T13:54:12.000Z</time>
      </trkpt>
      <trkpt lat="43.92546" lon="7.61129">
        <ele>1049</ele>
        <time>2022-09-10T13:54:13.000Z</time>
      </trkpt>
      <trkpt lat="43.92545" lon="7.61132">
        <ele>1048.1999511719</ele>
        <time>2022-09-10T13:54:14.000Z</time>
      </trkpt>
      <trkpt lat="43.92544" lon="7.61139">
        <ele>1047</ele>
        <time>2022-09-10T13:54:16.000Z</time>
      </trkpt>
      <trkpt lat="43.92543" lon="7.61146">
        <ele>1046.4000244141</ele>
        <time>2022-09-10T13:54:18.000Z</time>
      </trkpt>
      <trkpt lat="43.92544" lon="7.6115">
        <ele>1046</ele>
        <time>2022-09-10T13:54:20.000Z</time>
      </trkpt>
      <trkpt lat="43.92544" lon="7.61155">
        <ele>1045.1999511719</ele>
        <time>2022-09-10T13:54:22.000Z</time>
      </trkpt>
      <trkpt lat="43.92543" lon="7.61157">
        <ele>1045</ele>
        <time>2022-09-10T13:54:23.000Z</time>
      </trkpt>
      <trkpt lat="43.92542" lon="7.61159">
        <ele>1044.5999755859</ele>
        <time>2022-09-10T13:54:24.000Z</time>
      </trkpt>
      <trkpt lat="43.9254" lon="7.61169">
        <ele>1044</ele>
        <time>2022-09-10T13:54:27.000Z</time>
      </trkpt>
      <trkpt lat="43.92537" lon="7.61173">
        <ele>1044</ele>
        <time>2022-09-10T13:54:31.000Z</time>
      </trkpt>
      <trkpt lat="43.92536" lon="7.61175">
        <ele>1043.5999755859</ele>
        <time>2022-09-10T13:54:32.000Z</time>
      </trkpt>
      <trkpt lat="43.92534" lon="7.61176">
        <ele>1043.4000244141</ele>
        <time>2022-09-10T13:54:33.000Z</time>
      </trkpt>
      <trkpt lat="43.92532" lon="7.61178">
        <ele>1042.8000488281</ele>
        <time>2022-09-10T13:54:35.000Z</time>
      </trkpt>
      <trkpt lat="43.92532" lon="7.61178">
        <ele>1042</ele>
        <time>2022-09-10T13:54:36.000Z</time>
      </trkpt>
      <trkpt lat="43.92532" lon="7.61179">
        <ele>1040.5999755859</ele>
        <time>2022-09-10T13:54:38.000Z</time>
      </trkpt>
      <trkpt lat="43.92532" lon="7.61179">
        <ele>1039.8000488281</ele>
        <time>2022-09-10T13:54:40.000Z</time>
      </trkpt>
      <trkpt lat="43.92532" lon="7.6118">
        <ele>1039.5999755859</ele>
        <time>2022-09-10T13:54:45.000Z</time>
      </trkpt>
      <trkpt lat="43.92532" lon="7.6118">
        <ele>1039.5999755859</ele>
        <time>2022-09-10T13:54:47.000Z</time>
      </trkpt>
      <trkpt lat="43.92533" lon="7.61181">
        <ele>1040</ele>
        <time>2022-09-10T13:55:01.000Z</time>
      </trkpt>
      <trkpt lat="43.9253" lon="7.61191">
        <ele>1040</ele>
        <time>2022-09-10T13:55:08.000Z</time>
      </trkpt>
      <trkpt lat="43.92529" lon="7.61192">
        <ele>1040</ele>
        <time>2022-09-10T13:55:09.000Z</time>
      </trkpt>
      <trkpt lat="43.92525" lon="7.61202">
        <ele>1038.4000244141</ele>
        <time>2022-09-10T13:55:12.000Z</time>
      </trkpt>
      <trkpt lat="43.92524" lon="7.61204">
        <ele>1037.5999755859</ele>
        <time>2022-09-10T13:55:13.000Z</time>
      </trkpt>
      <trkpt lat="43.92524" lon="7.61208">
        <ele>1036.5999755859</ele>
        <time>2022-09-10T13:55:14.000Z</time>
      </trkpt>
      <trkpt lat="43.92519" lon="7.61223">
        <ele>1035.5999755859</ele>
        <time>2022-09-10T13:55:17.000Z</time>
      </trkpt>
      <trkpt lat="43.92515" lon="7.61237">
        <ele>1034.8000488281</ele>
        <time>2022-09-10T13:55:20.000Z</time>
      </trkpt>
      <trkpt lat="43.92511" lon="7.61245">
        <ele>1034.1999511719</ele>
        <time>2022-09-10T13:55:22.000Z</time>
      </trkpt>
      <trkpt lat="43.92507" lon="7.61249">
        <ele>1033.5999755859</ele>
        <time>2022-09-10T13:55:23.000Z</time>
      </trkpt>
      <trkpt lat="43.92503" lon="7.61254">
        <ele>1033.1999511719</ele>
        <time>2022-09-10T13:55:24.000Z</time>
      </trkpt>
      <trkpt lat="43.92499" lon="7.6126">
        <ele>1032.5999755859</ele>
        <time>2022-09-10T13:55:25.000Z</time>
      </trkpt>
      <trkpt lat="43.92493" lon="7.61263">
        <ele>1031.1999511719</ele>
        <time>2022-09-10T13:55:27.000Z</time>
      </trkpt>
      <trkpt lat="43.92491" lon="7.61264">
        <ele>1030</ele>
        <time>2022-09-10T13:55:28.000Z</time>
      </trkpt>
      <trkpt lat="43.92488" lon="7.61269">
        <ele>1028.1999511719</ele>
        <time>2022-09-10T13:55:30.000Z</time>
      </trkpt>
      <trkpt lat="43.92483" lon="7.61274">
        <ele>1027.5999755859</ele>
        <time>2022-09-10T13:55:32.000Z</time>
      </trkpt>
      <trkpt lat="43.92481" lon="7.61276">
        <ele>1027.1999511719</ele>
        <time>2022-09-10T13:55:33.000Z</time>
      </trkpt>
      <trkpt lat="43.92479" lon="7.61279">
        <ele>1026.5999755859</ele>
        <time>2022-09-10T13:55:34.000Z</time>
      </trkpt>
      <trkpt lat="43.92478" lon="7.61283">
        <ele>1026</ele>
        <time>2022-09-10T13:55:35.000Z</time>
      </trkpt>
      <trkpt lat="43.92476" lon="7.61289">
        <ele>1025</ele>
        <time>2022-09-10T13:55:36.000Z</time>
      </trkpt>
      <trkpt lat="43.92473" lon="7.61294">
        <ele>1024.4000244141</ele>
        <time>2022-09-10T13:55:37.000Z</time>
      </trkpt>
      <trkpt lat="43.92467" lon="7.61302">
        <ele>1022.5999755859</ele>
        <time>2022-09-10T13:55:39.000Z</time>
      </trkpt>
      <trkpt lat="43.92466" lon="7.61307">
        <ele>1021.4000244141</ele>
        <time>2022-09-10T13:55:40.000Z</time>
      </trkpt>
      <trkpt lat="43.92462" lon="7.61312">
        <ele>1020.200012207</ele>
        <time>2022-09-10T13:55:41.000Z</time>
      </trkpt>
      <trkpt lat="43.92454" lon="7.6132">
        <ele>1020.799987793</ele>
        <time>2022-09-10T13:55:43.000Z</time>
      </trkpt>
      <trkpt lat="43.92447" lon="7.61329">
        <ele>1018.200012207</ele>
        <time>2022-09-10T13:55:45.000Z</time>
      </trkpt>
      <trkpt lat="43.92443" lon="7.61331">
        <ele>1016.799987793</ele>
        <time>2022-09-10T13:55:46.000Z</time>
      </trkpt>
      <trkpt lat="43.92434" lon="7.61345">
        <ele>1015.799987793</ele>
        <time>2022-09-10T13:55:49.000Z</time>
      </trkpt>
      <trkpt lat="43.9243" lon="7.61348">
        <ele>1015.799987793</ele>
        <time>2022-09-10T13:55:50.000Z</time>
      </trkpt>
      <trkpt lat="43.92422" lon="7.61357">
        <ele>1016.4000244141</ele>
        <time>2022-09-10T13:55:53.000Z</time>
      </trkpt>
      <trkpt lat="43.9242" lon="7.61359">
        <ele>1017</ele>
        <time>2022-09-10T13:55:54.000Z</time>
      </trkpt>
      <trkpt lat="43.92415" lon="7.61363">
        <ele>1018</ele>
        <time>2022-09-10T13:55:57.000Z</time>
      </trkpt>
      <trkpt lat="43.92415" lon="7.61364">
        <ele>1018</ele>
        <time>2022-09-10T13:55:58.000Z</time>
      </trkpt>
      <trkpt lat="43.92413" lon="7.61365">
        <ele>1018.200012207</ele>
        <time>2022-09-10T13:56:00.000Z</time>
      </trkpt>
      <trkpt lat="43.92406" lon="7.61368">
        <ele>1018.4000244141</ele>
        <time>2022-09-10T13:56:04.000Z</time>
      </trkpt>
      <trkpt lat="43.92404" lon="7.61376">
        <ele>1016.799987793</ele>
        <time>2022-09-10T13:56:07.000Z</time>
      </trkpt>
      <trkpt lat="43.92402" lon="7.61379">
        <ele>1016</ele>
        <time>2022-09-10T13:56:08.000Z</time>
      </trkpt>
      <trkpt lat="43.92399" lon="7.61381">
        <ele>1015</ele>
        <time>2022-09-10T13:56:09.000Z</time>
      </trkpt>
      <trkpt lat="43.92397" lon="7.61383">
        <ele>1014</ele>
        <time>2022-09-10T13:56:10.000Z</time>
      </trkpt>
      <trkpt lat="43.92395" lon="7.61386">
        <ele>1013</ele>
        <time>2022-09-10T13:56:11.000Z</time>
      </trkpt>
      <trkpt lat="43.92395" lon="7.61388">
        <ele>1011.799987793</ele>
        <time>2022-09-10T13:56:12.000Z</time>
      </trkpt>
      <trkpt lat="43.92395" lon="7.61389">
        <ele>1010.4000244141</ele>
        <time>2022-09-10T13:56:13.000Z</time>
      </trkpt>
      <trkpt lat="43.92397" lon="7.61395">
        <ele>1009</ele>
        <time>2022-09-10T13:56:15.000Z</time>
      </trkpt>
      <trkpt lat="43.92396" lon="7.61403">
        <ele>1007.799987793</ele>
        <time>2022-09-10T13:56:17.000Z</time>
      </trkpt>
      <trkpt lat="43.92393" lon="7.61405">
        <ele>1006.799987793</ele>
        <time>2022-09-10T13:56:18.000Z</time>
      </trkpt>
      <trkpt lat="43.92387" lon="7.61405">
        <ele>1005.200012207</ele>
        <time>2022-09-10T13:56:20.000Z</time>
      </trkpt>
      <trkpt lat="43.92375" lon="7.61414">
        <ele>1003.799987793</ele>
        <time>2022-09-10T13:56:24.000Z</time>
      </trkpt>
      <trkpt lat="43.92365" lon="7.61417">
        <ele>1002.5999755859</ele>
        <time>2022-09-10T13:56:27.000Z</time>
      </trkpt>
      <trkpt lat="43.92356" lon="7.61425">
        <ele>1001.799987793</ele>
        <time>2022-09-10T13:56:30.000Z</time>
      </trkpt>
      <trkpt lat="43.92354" lon="7.61426">
        <ele>1000.5999755859</ele>
        <time>2022-09-10T13:56:31.000Z</time>
      </trkpt>
      <trkpt lat="43.92351" lon="7.61433">
        <ele>999</ele>
        <time>2022-09-10T13:56:33.000Z</time>
      </trkpt>
      <trkpt lat="43.92344" lon="7.6144">
        <ele>997.79998779297</ele>
        <time>2022-09-10T13:56:35.000Z</time>
      </trkpt>
      <trkpt lat="43.92341" lon="7.61443">
        <ele>997.40002441406</ele>
        <time>2022-09-10T13:56:36.000Z</time>
      </trkpt>
      <trkpt lat="43.9234" lon="7.61445">
        <ele>996.59997558594</ele>
        <time>2022-09-10T13:56:37.000Z</time>
      </trkpt>
      <trkpt lat="43.92339" lon="7.61454">
        <ele>996.40002441406</ele>
        <time>2022-09-10T13:56:39.000Z</time>
      </trkpt>
      <trkpt lat="43.92335" lon="7.61461">
        <ele>994.79998779297</ele>
        <time>2022-09-10T13:56:41.000Z</time>
      </trkpt>
      <trkpt lat="43.92333" lon="7.61463">
        <ele>994.40002441406</ele>
        <time>2022-09-10T13:56:42.000Z</time>
      </trkpt>
      <trkpt lat="43.92331" lon="7.61465">
        <ele>993.59997558594</ele>
        <time>2022-09-10T13:56:43.000Z</time>
      </trkpt>
      <trkpt lat="43.92329" lon="7.61467">
        <ele>992.40002441406</ele>
        <time>2022-09-10T13:56:44.000Z</time>
      </trkpt>
      <trkpt lat="43.92327" lon="7.6147">
        <ele>991.20001220703</ele>
        <time>2022-09-10T13:56:45.000Z</time>
      </trkpt>
      <trkpt lat="43.92326" lon="7.61476">
        <ele>990.59997558594</ele>
        <time>2022-09-10T13:56:46.000Z</time>
      </trkpt>
      <trkpt lat="43.92324" lon="7.61482">
        <ele>989.40002441406</ele>
        <time>2022-09-10T13:56:47.000Z</time>
      </trkpt>
      <trkpt lat="43.92321" lon="7.61488">
        <ele>988</ele>
        <time>2022-09-10T13:56:48.000Z</time>
      </trkpt>
      <trkpt lat="43.92318" lon="7.61493">
        <ele>987</ele>
        <time>2022-09-10T13:56:49.000Z</time>
      </trkpt>
      <trkpt lat="43.92318" lon="7.61499">
        <ele>986</ele>
        <time>2022-09-10T13:56:50.000Z</time>
      </trkpt>
      <trkpt lat="43.92316" lon="7.61506">
        <ele>984.20001220703</ele>
        <time>2022-09-10T13:56:51.000Z</time>
      </trkpt>
      <trkpt lat="43.92314" lon="7.61513">
        <ele>983.20001220703</ele>
        <time>2022-09-10T13:56:52.000Z</time>
      </trkpt>
      <trkpt lat="43.92312" lon="7.61519">
        <ele>982.59997558594</ele>
        <time>2022-09-10T13:56:53.000Z</time>
      </trkpt>
      <trkpt lat="43.92311" lon="7.61527">
        <ele>981.79998779297</ele>
        <time>2022-09-10T13:56:54.000Z</time>
      </trkpt>
      <trkpt lat="43.92308" lon="7.61534">
        <ele>980.59997558594</ele>
        <time>2022-09-10T13:56:55.000Z</time>
      </trkpt>
      <trkpt lat="43.92304" lon="7.61539">
        <ele>980.20001220703</ele>
        <time>2022-09-10T13:56:56.000Z</time>
      </trkpt>
      <trkpt lat="43.92296" lon="7.61542">
        <ele>979.20001220703</ele>
        <time>2022-09-10T13:56:58.000Z</time>
      </trkpt>
      <trkpt lat="43.92292" lon="7.61544">
        <ele>978.20001220703</ele>
        <time>2022-09-10T13:56:59.000Z</time>
      </trkpt>
      <trkpt lat="43.92291" lon="7.61546">
        <ele>977.40002441406</ele>
        <time>2022-09-10T13:57:00.000Z</time>
      </trkpt>
      <trkpt lat="43.9229" lon="7.61548">
        <ele>976.40002441406</ele>
        <time>2022-09-10T13:57:01.000Z</time>
      </trkpt>
      <trkpt lat="43.92288" lon="7.61551">
        <ele>975.20001220703</ele>
        <time>2022-09-10T13:57:02.000Z</time>
      </trkpt>
      <trkpt lat="43.92287" lon="7.61553">
        <ele>973.59997558594</ele>
        <time>2022-09-10T13:57:04.000Z</time>
      </trkpt>
      <trkpt lat="43.92285" lon="7.61555">
        <ele>972.59997558594</ele>
        <time>2022-09-10T13:57:06.000Z</time>
      </trkpt>
      <trkpt lat="43.92284" lon="7.61558">
        <ele>972.20001220703</ele>
        <time>2022-09-10T13:57:07.000Z</time>
      </trkpt>
      <trkpt lat="43.92282" lon="7.61567">
        <ele>970.79998779297</ele>
        <time>2022-09-10T13:57:10.000Z</time>
      </trkpt>
      <trkpt lat="43.92279" lon="7.61573">
        <ele>969.59997558594</ele>
        <time>2022-09-10T13:57:12.000Z</time>
      </trkpt>
      <trkpt lat="43.92275" lon="7.61579">
        <ele>968.59997558594</ele>
        <time>2022-09-10T13:57:14.000Z</time>
      </trkpt>
      <trkpt lat="43.92274" lon="7.61582">
        <ele>967.79998779297</ele>
        <time>2022-09-10T13:57:15.000Z</time>
      </trkpt>
      <trkpt lat="43.92273" lon="7.61587">
        <ele>966.59997558594</ele>
        <time>2022-09-10T13:57:16.000Z</time>
      </trkpt>
      <trkpt lat="43.92274" lon="7.61589">
        <ele>965.59997558594</ele>
        <time>2022-09-10T13:57:17.000Z</time>
      </trkpt>
      <trkpt lat="43.92274" lon="7.61587">
        <ele>964.40002441406</ele>
        <time>2022-09-10T13:57:18.000Z</time>
      </trkpt>
      <trkpt lat="43.92274" lon="7.61589">
        <ele>963.20001220703</ele>
        <time>2022-09-10T13:57:19.000Z</time>
      </trkpt>
      <trkpt lat="43.92274" lon="7.61589">
        <ele>961.79998779297</ele>
        <time>2022-09-10T13:57:21.000Z</time>
      </trkpt>
      <trkpt lat="43.92274" lon="7.61591">
        <ele>961.40002441406</ele>
        <time>2022-09-10T13:57:32.000Z</time>
      </trkpt>
      <trkpt lat="43.92274" lon="7.61593">
        <ele>961.20001220703</ele>
        <time>2022-09-10T13:57:41.000Z</time>
      </trkpt>
      <trkpt lat="43.92274" lon="7.61594">
        <ele>961</ele>
        <time>2022-09-10T13:57:43.000Z</time>
      </trkpt>
      <trkpt lat="43.92274" lon="7.61594">
        <ele>960.79998779297</ele>
        <time>2022-09-10T13:57:48.000Z</time>
      </trkpt>
      <trkpt lat="43.92274" lon="7.61594">
        <ele>960.79998779297</ele>
        <time>2022-09-10T13:57:50.000Z</time>
      </trkpt>
      <trkpt lat="43.92274" lon="7.61594">
        <ele>961</ele>
        <time>2022-09-10T13:58:13.000Z</time>
      </trkpt>
      <trkpt lat="43.92274" lon="7.61593">
        <ele>960.79998779297</ele>
        <time>2022-09-10T13:58:21.000Z</time>
      </trkpt>
      <trkpt lat="43.92274" lon="7.61594">
        <ele>960.40002441406</ele>
        <time>2022-09-10T13:58:40.000Z</time>
      </trkpt>
      <trkpt lat="43.92274" lon="7.61596">
        <ele>960.59997558594</ele>
        <time>2022-09-10T13:58:50.000Z</time>
      </trkpt>
      <trkpt lat="43.92273" lon="7.61597">
        <ele>960.40002441406</ele>
        <time>2022-09-10T13:59:05.000Z</time>
      </trkpt>
      <trkpt lat="43.92273" lon="7.61597">
        <ele>960.79998779297</ele>
        <time>2022-09-10T13:59:14.000Z</time>
      </trkpt>
      <trkpt lat="43.92273" lon="7.61597">
        <ele>960.20001220703</ele>
        <time>2022-09-10T13:59:29.000Z</time>
      </trkpt>
      <trkpt lat="43.92273" lon="7.61597">
        <ele>960.40002441406</ele>
        <time>2022-09-10T13:59:46.000Z</time>
      </trkpt>
      <trkpt lat="43.92273" lon="7.61597">
        <ele>960.40002441406</ele>
        <time>2022-09-10T14:00:07.000Z</time>
      </trkpt>
      <trkpt lat="43.92274" lon="7.61596">
        <ele>960.40002441406</ele>
        <time>2022-09-10T14:00:34.000Z</time>
      </trkpt>
      <trkpt lat="43.92274" lon="7.61596">
        <ele>960.59997558594</ele>
        <time>2022-09-10T14:00:55.000Z</time>
      </trkpt>
      <trkpt lat="43.92274" lon="7.61598">
        <ele>960.40002441406</ele>
        <time>2022-09-10T14:01:01.000Z</time>
      </trkpt>
      <trkpt lat="43.92274" lon="7.61602">
        <ele>960.59997558594</ele>
        <time>2022-09-10T14:01:03.000Z</time>
      </trkpt>
      <trkpt lat="43.92274" lon="7.61612">
        <ele>960.40002441406</ele>
        <time>2022-09-10T14:01:07.000Z</time>
      </trkpt>
      <trkpt lat="43.92274" lon="7.61616">
        <ele>959.79998779297</ele>
        <time>2022-09-10T14:01:08.000Z</time>
      </trkpt>
      <trkpt lat="43.92274" lon="7.61619">
        <ele>959.20001220703</ele>
        <time>2022-09-10T14:01:09.000Z</time>
      </trkpt>
      <trkpt lat="43.92272" lon="7.61622">
        <ele>958</ele>
        <time>2022-09-10T14:01:10.000Z</time>
      </trkpt>
      <trkpt lat="43.9227" lon="7.61625">
        <ele>957</ele>
        <time>2022-09-10T14:01:11.000Z</time>
      </trkpt>
      <trkpt lat="43.92267" lon="7.61628">
        <ele>955.79998779297</ele>
        <time>2022-09-10T14:01:12.000Z</time>
      </trkpt>
      <trkpt lat="43.92264" lon="7.6163">
        <ele>954.59997558594</ele>
        <time>2022-09-10T14:01:13.000Z</time>
      </trkpt>
      <trkpt lat="43.92259" lon="7.61633">
        <ele>952.59997558594</ele>
        <time>2022-09-10T14:01:15.000Z</time>
      </trkpt>
      <trkpt lat="43.92258" lon="7.61633">
        <ele>951.40002441406</ele>
        <time>2022-09-10T14:01:17.000Z</time>
      </trkpt>
      <trkpt lat="43.92256" lon="7.61633">
        <ele>950.79998779297</ele>
        <time>2022-09-10T14:01:29.000Z</time>
      </trkpt>
      <trkpt lat="43.9225" lon="7.61629">
        <ele>951</ele>
        <time>2022-09-10T14:01:37.000Z</time>
      </trkpt>
      <trkpt lat="43.92248" lon="7.61627">
        <ele>951</ele>
        <time>2022-09-10T14:01:42.000Z</time>
      </trkpt>
      <trkpt lat="43.92248" lon="7.61626">
        <ele>951.20001220703</ele>
        <time>2022-09-10T14:01:52.000Z</time>
      </trkpt>
      <trkpt lat="43.92246" lon="7.61625">
        <ele>951.20001220703</ele>
        <time>2022-09-10T14:01:57.000Z</time>
      </trkpt>
      <trkpt lat="43.92245" lon="7.61624">
        <ele>951</ele>
        <time>2022-09-10T14:02:05.000Z</time>
      </trkpt>
      <trkpt lat="43.92245" lon="7.61624">
        <ele>951</ele>
        <time>2022-09-10T14:02:11.000Z</time>
      </trkpt>
      <trkpt lat="43.92243" lon="7.61623">
        <ele>950.79998779297</ele>
        <time>2022-09-10T14:02:18.000Z</time>
      </trkpt>
      <trkpt lat="43.92243" lon="7.61622">
        <ele>950.59997558594</ele>
        <time>2022-09-10T14:02:22.000Z</time>
      </trkpt>
      <trkpt lat="43.92246" lon="7.61624">
        <ele>950.59997558594</ele>
        <time>2022-09-10T14:02:27.000Z</time>
      </trkpt>
      <trkpt lat="43.92246" lon="7.61624">
        <ele>951.20001220703</ele>
        <time>2022-09-10T14:02:34.000Z</time>
      </trkpt>
      <trkpt lat="43.92247" lon="7.61624">
        <ele>951</ele>
        <time>2022-09-10T14:02:42.000Z</time>
      </trkpt>
      <trkpt lat="43.92248" lon="7.61625">
        <ele>950.79998779297</ele>
        <time>2022-09-10T14:02:51.000Z</time>
      </trkpt>
      <trkpt lat="43.9225" lon="7.61625">
        <ele>950.79998779297</ele>
        <time>2022-09-10T14:03:03.000Z</time>
      </trkpt>
      <trkpt lat="43.92252" lon="7.61626">
        <ele>951.59997558594</ele>
        <time>2022-09-10T14:03:21.000Z</time>
      </trkpt>
      <trkpt lat="43.92252" lon="7.61626">
        <ele>951.59997558594</ele>
        <time>2022-09-10T14:03:28.000Z</time>
      </trkpt>
      <trkpt lat="43.92252" lon="7.61627">
        <ele>951</ele>
        <time>2022-09-10T14:03:39.000Z</time>
      </trkpt>
      <trkpt lat="43.92251" lon="7.61627">
        <ele>951.79998779297</ele>
        <time>2022-09-10T14:03:49.000Z</time>
      </trkpt>
      <trkpt lat="43.92251" lon="7.61627">
        <ele>951.40002441406</ele>
        <time>2022-09-10T14:04:05.000Z</time>
      </trkpt>
      <trkpt lat="43.9225" lon="7.61628">
        <ele>951.59997558594</ele>
        <time>2022-09-10T14:04:19.000Z</time>
      </trkpt>
      <trkpt lat="43.92251" lon="7.61628">
        <ele>951.59997558594</ele>
        <time>2022-09-10T14:04:33.000Z</time>
      </trkpt>
      <trkpt lat="43.92251" lon="7.61628">
        <ele>951.40002441406</ele>
        <time>2022-09-10T14:04:47.000Z</time>
      </trkpt>
      <trkpt lat="43.92251" lon="7.61628">
        <ele>951.40002441406</ele>
        <time>2022-09-10T14:04:58.000Z</time>
      </trkpt>
      <trkpt lat="43.92251" lon="7.61628">
        <ele>951.40002441406</ele>
        <time>2022-09-10T14:05:16.000Z</time>
      </trkpt>
      <trkpt lat="43.92251" lon="7.61628">
        <ele>951.20001220703</ele>
        <time>2022-09-10T14:05:33.000Z</time>
      </trkpt>
      <trkpt lat="43.9225" lon="7.61628">
        <ele>951.20001220703</ele>
        <time>2022-09-10T14:05:42.000Z</time>
      </trkpt>
      <trkpt lat="43.92249" lon="7.61628">
        <ele>951.40002441406</ele>
        <time>2022-09-10T14:05:56.000Z</time>
      </trkpt>
      <trkpt lat="43.92249" lon="7.61628">
        <ele>951.59997558594</ele>
        <time>2022-09-10T14:06:02.000Z</time>
      </trkpt>
      <trkpt lat="43.92249" lon="7.61629">
        <ele>951.59997558594</ele>
        <time>2022-09-10T14:06:09.000Z</time>
      </trkpt>
      <trkpt lat="43.92249" lon="7.61629">
        <ele>952</ele>
        <time>2022-09-10T14:06:18.000Z</time>
      </trkpt>
      <trkpt lat="43.92249" lon="7.61629">
        <ele>951.59997558594</ele>
        <time>2022-09-10T14:06:27.000Z</time>
      </trkpt>
      <trkpt lat="43.92249" lon="7.61629">
        <ele>951.59997558594</ele>
        <time>2022-09-10T14:06:43.000Z</time>
      </trkpt>
      <trkpt lat="43.9225" lon="7.61629">
        <ele>951.59997558594</ele>
        <time>2022-09-10T14:06:56.000Z</time>
      </trkpt>
      <trkpt lat="43.9225" lon="7.61628">
        <ele>951.59997558594</ele>
        <time>2022-09-10T14:07:11.000Z</time>
      </trkpt>
      <trkpt lat="43.9225" lon="7.61628">
        <ele>951.59997558594</ele>
        <time>2022-09-10T14:07:28.000Z</time>
      </trkpt>
      <trkpt lat="43.9225" lon="7.61628">
        <ele>951.79998779297</ele>
        <time>2022-09-10T14:07:43.000Z</time>
      </trkpt>
      <trkpt lat="43.92251" lon="7.61628">
        <ele>952</ele>
        <time>2022-09-10T14:07:54.000Z</time>
      </trkpt>
      <trkpt lat="43.9225" lon="7.61628">
        <ele>951.59997558594</ele>
        <time>2022-09-10T14:08:03.000Z</time>
      </trkpt>
      <trkpt lat="43.9225" lon="7.61628">
        <ele>952</ele>
        <time>2022-09-10T14:08:10.000Z</time>
      </trkpt>
      <trkpt lat="43.92249" lon="7.61628">
        <ele>951.20001220703</ele>
        <time>2022-09-10T14:08:21.000Z</time>
      </trkpt>
      <trkpt lat="43.9225" lon="7.61627">
        <ele>951.40002441406</ele>
        <time>2022-09-10T14:08:38.000Z</time>
      </trkpt>
      <trkpt lat="43.9225" lon="7.61627">
        <ele>951.59997558594</ele>
        <time>2022-09-10T14:08:51.000Z</time>
      </trkpt>
      <trkpt lat="43.9225" lon="7.61627">
        <ele>951.40002441406</ele>
        <time>2022-09-10T14:09:00.000Z</time>
      </trkpt>
      <trkpt lat="43.9225" lon="7.61627">
        <ele>951.59997558594</ele>
        <time>2022-09-10T14:09:09.000Z</time>
      </trkpt>
      <trkpt lat="43.9225" lon="7.61626">
        <ele>951.59997558594</ele>
        <time>2022-09-10T14:09:21.000Z</time>
      </trkpt>
      <trkpt lat="43.92249" lon="7.61626">
        <ele>951.40002441406</ele>
        <time>2022-09-10T14:09:34.000Z</time>
      </trkpt>
      <trkpt lat="43.92249" lon="7.61626">
        <ele>951.40002441406</ele>
        <time>2022-09-10T14:09:53.000Z</time>
      </trkpt>
      <trkpt lat="43.9225" lon="7.61626">
        <ele>951.40002441406</ele>
        <time>2022-09-10T14:10:11.000Z</time>
      </trkpt>
      <trkpt lat="43.92249" lon="7.61625">
        <ele>951.40002441406</ele>
        <time>2022-09-10T14:10:16.000Z</time>
      </trkpt>
      <trkpt lat="43.9225" lon="7.61626">
        <ele>951.20001220703</ele>
        <time>2022-09-10T14:10:24.000Z</time>
      </trkpt>
      <trkpt lat="43.9225" lon="7.61626">
        <ele>951.20001220703</ele>
        <time>2022-09-10T14:10:32.000Z</time>
      </trkpt>
      <trkpt lat="43.9225" lon="7.61627">
        <ele>951</ele>
        <time>2022-09-10T14:10:46.000Z</time>
      </trkpt>
      <trkpt lat="43.92251" lon="7.61627">
        <ele>950.79998779297</ele>
        <time>2022-09-10T14:11:02.000Z</time>
      </trkpt>
      <trkpt lat="43.92251" lon="7.61626">
        <ele>951</ele>
        <time>2022-09-10T14:11:18.000Z</time>
      </trkpt>
      <trkpt lat="43.9225" lon="7.61624">
        <ele>951</ele>
        <time>2022-09-10T14:11:44.000Z</time>
      </trkpt>
      <trkpt lat="43.9225" lon="7.61624">
        <ele>950.79998779297</ele>
        <time>2022-09-10T14:12:06.000Z</time>
      </trkpt>
      <trkpt lat="43.9225" lon="7.61624">
        <ele>950.79998779297</ele>
        <time>2022-09-10T14:12:15.000Z</time>
      </trkpt>
      <trkpt lat="43.92249" lon="7.61625">
        <ele>951</ele>
        <time>2022-09-10T14:12:23.000Z</time>
      </trkpt>
      <trkpt lat="43.92249" lon="7.61626">
        <ele>950.40002441406</ele>
        <time>2022-09-10T14:12:31.000Z</time>
      </trkpt>
      <trkpt lat="43.92249" lon="7.61626">
        <ele>951.20001220703</ele>
        <time>2022-09-10T14:12:42.000Z</time>
      </trkpt>
      <trkpt lat="43.92249" lon="7.61626">
        <ele>950.79998779297</ele>
        <time>2022-09-10T14:12:51.000Z</time>
      </trkpt>
      <trkpt lat="43.9225" lon="7.61626">
        <ele>951</ele>
        <time>2022-09-10T14:13:07.000Z</time>
      </trkpt>
      <trkpt lat="43.92249" lon="7.61625">
        <ele>950.40002441406</ele>
        <time>2022-09-10T14:13:14.000Z</time>
      </trkpt>
      <trkpt lat="43.92248" lon="7.61624">
        <ele>950.40002441406</ele>
        <time>2022-09-10T14:13:21.000Z</time>
      </trkpt>
      <trkpt lat="43.92247" lon="7.61622">
        <ele>950.40002441406</ele>
        <time>2022-09-10T14:13:40.000Z</time>
      </trkpt>
      <trkpt lat="43.92247" lon="7.61622">
        <ele>950.59997558594</ele>
        <time>2022-09-10T14:13:52.000Z</time>
      </trkpt>
      <trkpt lat="43.92247" lon="7.61621">
        <ele>950.59997558594</ele>
        <time>2022-09-10T14:14:01.000Z</time>
      </trkpt>
      <trkpt lat="43.92247" lon="7.61622">
        <ele>950.59997558594</ele>
        <time>2022-09-10T14:14:12.000Z</time>
      </trkpt>
      <trkpt lat="43.92247" lon="7.61621">
        <ele>950.79998779297</ele>
        <time>2022-09-10T14:14:25.000Z</time>
      </trkpt>
      <trkpt lat="43.92247" lon="7.61621">
        <ele>950.59997558594</ele>
        <time>2022-09-10T14:14:32.000Z</time>
      </trkpt>
      <trkpt lat="43.92247" lon="7.61621">
        <ele>950.79998779297</ele>
        <time>2022-09-10T14:14:43.000Z</time>
      </trkpt>
      <trkpt lat="43.92247" lon="7.61621">
        <ele>951.20001220703</ele>
        <time>2022-09-10T14:14:48.000Z</time>
      </trkpt>
      <trkpt lat="43.92247" lon="7.6162">
        <ele>950.79998779297</ele>
        <time>2022-09-10T14:14:59.000Z</time>
      </trkpt>
      <trkpt lat="43.92247" lon="7.6162">
        <ele>951</ele>
        <time>2022-09-10T14:15:14.000Z</time>
      </trkpt>
      <trkpt lat="43.92247" lon="7.61619">
        <ele>951.20001220703</ele>
        <time>2022-09-10T14:15:26.000Z</time>
      </trkpt>
      <trkpt lat="43.92246" lon="7.61618">
        <ele>951.40002441406</ele>
        <time>2022-09-10T14:15:33.000Z</time>
      </trkpt>
      <trkpt lat="43.92246" lon="7.61618">
        <ele>951.40002441406</ele>
        <time>2022-09-10T14:15:37.000Z</time>
      </trkpt>
      <trkpt lat="43.92246" lon="7.6162">
        <ele>951.20001220703</ele>
        <time>2022-09-10T14:15:50.000Z</time>
      </trkpt>
      <trkpt lat="43.92246" lon="7.61621">
        <ele>951.20001220703</ele>
        <time>2022-09-10T14:16:02.000Z</time>
      </trkpt>
      <trkpt lat="43.92246" lon="7.61621">
        <ele>950.79998779297</ele>
        <time>2022-09-10T14:16:09.000Z</time>
      </trkpt>
      <trkpt lat="43.92246" lon="7.61621">
        <ele>950.40002441406</ele>
        <time>2022-09-10T14:16:16.000Z</time>
      </trkpt>
      <trkpt lat="43.92246" lon="7.61621">
        <ele>950.59997558594</ele>
        <time>2022-09-10T14:16:20.000Z</time>
      </trkpt>
      <trkpt lat="43.92246" lon="7.6162">
        <ele>950.79998779297</ele>
        <time>2022-09-10T14:16:29.000Z</time>
      </trkpt>
      <trkpt lat="43.92246" lon="7.61621">
        <ele>950.40002441406</ele>
        <time>2022-09-10T14:16:41.000Z</time>
      </trkpt>
      <trkpt lat="43.92246" lon="7.6162">
        <ele>950.59997558594</ele>
        <time>2022-09-10T14:16:50.000Z</time>
      </trkpt>
      <trkpt lat="43.92247" lon="7.6162">
        <ele>950.59997558594</ele>
        <time>2022-09-10T14:17:01.000Z</time>
      </trkpt>
      <trkpt lat="43.92247" lon="7.61622">
        <ele>950.59997558594</ele>
        <time>2022-09-10T14:17:10.000Z</time>
      </trkpt>
      <trkpt lat="43.92247" lon="7.61621">
        <ele>950.40002441406</ele>
        <time>2022-09-10T14:17:21.000Z</time>
      </trkpt>
      <trkpt lat="43.92246" lon="7.61622">
        <ele>951.20001220703</ele>
        <time>2022-09-10T14:17:33.000Z</time>
      </trkpt>
      <trkpt lat="43.92247" lon="7.61621">
        <ele>951.40002441406</ele>
        <time>2022-09-10T14:17:39.000Z</time>
      </trkpt>
      <trkpt lat="43.92247" lon="7.61621">
        <ele>951.40002441406</ele>
        <time>2022-09-10T14:17:40.000Z</time>
      </trkpt>
      <trkpt lat="43.92246" lon="7.61622">
        <ele>950.40002441406</ele>
        <time>2022-09-10T14:17:53.000Z</time>
      </trkpt>
      <trkpt lat="43.92246" lon="7.61622">
        <ele>951</ele>
        <time>2022-09-10T14:18:03.000Z</time>
      </trkpt>
      <trkpt lat="43.92247" lon="7.61621">
        <ele>951.20001220703</ele>
        <time>2022-09-10T14:18:15.000Z</time>
      </trkpt>
      <trkpt lat="43.92247" lon="7.61621">
        <ele>950.79998779297</ele>
        <time>2022-09-10T14:18:21.000Z</time>
      </trkpt>
      <trkpt lat="43.92247" lon="7.61622">
        <ele>950.79998779297</ele>
        <time>2022-09-10T14:18:35.000Z</time>
      </trkpt>
      <trkpt lat="43.92247" lon="7.61622">
        <ele>950.79998779297</ele>
        <time>2022-09-10T14:18:40.000Z</time>
      </trkpt>
      <trkpt lat="43.92247" lon="7.61621">
        <ele>950.59997558594</ele>
        <time>2022-09-10T14:18:49.000Z</time>
      </trkpt>
      <trkpt lat="43.92247" lon="7.61622">
        <ele>951.20001220703</ele>
        <time>2022-09-10T14:18:57.000Z</time>
      </trkpt>
      <trkpt lat="43.92247" lon="7.61623">
        <ele>951.40002441406</ele>
        <time>2022-09-10T14:19:03.000Z</time>
      </trkpt>
      <trkpt lat="43.92247" lon="7.61624">
        <ele>951.20001220703</ele>
        <time>2022-09-10T14:19:11.000Z</time>
      </trkpt>
      <trkpt lat="43.92244" lon="7.61623">
        <ele>951</ele>
        <time>2022-09-10T14:19:16.000Z</time>
      </trkpt>
      <trkpt lat="43.92243" lon="7.61623">
        <ele>950.79998779297</ele>
        <time>2022-09-10T14:19:21.000Z</time>
      </trkpt>
      <trkpt lat="43.92242" lon="7.61626">
        <ele>950.79998779297</ele>
        <time>2022-09-10T14:19:25.000Z</time>
      </trkpt>
      <trkpt lat="43.92241" lon="7.6163">
        <ele>951</ele>
        <time>2022-09-10T14:19:26.000Z</time>
      </trkpt>
      <trkpt lat="43.92244" lon="7.6164">
        <ele>950.20001220703</ele>
        <time>2022-09-10T14:19:29.000Z</time>
      </trkpt>
      <trkpt lat="43.92243" lon="7.61645">
        <ele>949.59997558594</ele>
        <time>2022-09-10T14:19:30.000Z</time>
      </trkpt>
      <trkpt lat="43.9224" lon="7.61647">
        <ele>949</ele>
        <time>2022-09-10T14:19:31.000Z</time>
      </trkpt>
      <trkpt lat="43.92233" lon="7.61653">
        <ele>947.59997558594</ele>
        <time>2022-09-10T14:19:33.000Z</time>
      </trkpt>
      <trkpt lat="43.92231" lon="7.61662">
        <ele>946.40002441406</ele>
        <time>2022-09-10T14:19:35.000Z</time>
      </trkpt>
      <trkpt lat="43.9223" lon="7.61667">
        <ele>945.79998779297</ele>
        <time>2022-09-10T14:19:36.000Z</time>
      </trkpt>
      <trkpt lat="43.92227" lon="7.61669">
        <ele>945.20001220703</ele>
        <time>2022-09-10T14:19:37.000Z</time>
      </trkpt>
      <trkpt lat="43.9222" lon="7.61673">
        <ele>944</ele>
        <time>2022-09-10T14:19:39.000Z</time>
      </trkpt>
      <trkpt lat="43.92215" lon="7.61685">
        <ele>943.20001220703</ele>
        <time>2022-09-10T14:19:41.000Z</time>
      </trkpt>
      <trkpt lat="43.92214" lon="7.61687">
        <ele>942.40002441406</ele>
        <time>2022-09-10T14:19:42.000Z</time>
      </trkpt>
      <trkpt lat="43.92213" lon="7.61688">
        <ele>941.20001220703</ele>
        <time>2022-09-10T14:19:45.000Z</time>
      </trkpt>
      <trkpt lat="43.92213" lon="7.61689">
        <ele>940.40002441406</ele>
        <time>2022-09-10T14:20:01.000Z</time>
      </trkpt>
      <trkpt lat="43.92211" lon="7.61691">
        <ele>940.40002441406</ele>
        <time>2022-09-10T14:20:06.000Z</time>
      </trkpt>
      <trkpt lat="43.9221" lon="7.61691">
        <ele>940.20001220703</ele>
        <time>2022-09-10T14:20:08.000Z</time>
      </trkpt>
      <trkpt lat="43.9221" lon="7.6169">
        <ele>940.40002441406</ele>
        <time>2022-09-10T14:20:24.000Z</time>
      </trkpt>
      <trkpt lat="43.9221" lon="7.61691">
        <ele>939.59997558594</ele>
        <time>2022-09-10T14:20:32.000Z</time>
      </trkpt>
      <trkpt lat="43.92209" lon="7.61691">
        <ele>939.79998779297</ele>
        <time>2022-09-10T14:20:44.000Z</time>
      </trkpt>
      <trkpt lat="43.92209" lon="7.61691">
        <ele>939.40002441406</ele>
        <time>2022-09-10T14:20:56.000Z</time>
      </trkpt>
      <trkpt lat="43.92209" lon="7.61691">
        <ele>939.79998779297</ele>
        <time>2022-09-10T14:21:07.000Z</time>
      </trkpt>
      <trkpt lat="43.92209" lon="7.6169">
        <ele>940.20001220703</ele>
        <time>2022-09-10T14:21:23.000Z</time>
      </trkpt>
      <trkpt lat="43.92209" lon="7.61689">
        <ele>940</ele>
        <time>2022-09-10T14:21:51.000Z</time>
      </trkpt>
      <trkpt lat="43.9221" lon="7.6169">
        <ele>940</ele>
        <time>2022-09-10T14:22:14.000Z</time>
      </trkpt>
      <trkpt lat="43.9221" lon="7.6169">
        <ele>940.20001220703</ele>
        <time>2022-09-10T14:22:41.000Z</time>
      </trkpt>
      <trkpt lat="43.9221" lon="7.6169">
        <ele>940</ele>
        <time>2022-09-10T14:23:10.000Z</time>
      </trkpt>
      <trkpt lat="43.92211" lon="7.6169">
        <ele>940.20001220703</ele>
        <time>2022-09-10T14:23:40.000Z</time>
      </trkpt>
      <trkpt lat="43.92211" lon="7.61691">
        <ele>939.79998779297</ele>
        <time>2022-09-10T14:23:46.000Z</time>
      </trkpt>
      <trkpt lat="43.92209" lon="7.61689">
        <ele>940.20001220703</ele>
        <time>2022-09-10T14:23:59.000Z</time>
      </trkpt>
      <trkpt lat="43.92212" lon="7.61688">
        <ele>940</ele>
        <time>2022-09-10T14:24:05.000Z</time>
      </trkpt>
      <trkpt lat="43.92213" lon="7.61687">
        <ele>940.20001220703</ele>
        <time>2022-09-10T14:24:11.000Z</time>
      </trkpt>
      <trkpt lat="43.92213" lon="7.61686">
        <ele>941</ele>
        <time>2022-09-10T14:24:24.000Z</time>
      </trkpt>
      <trkpt lat="43.92212" lon="7.61687">
        <ele>941</ele>
        <time>2022-09-10T14:24:39.000Z</time>
      </trkpt>
      <trkpt lat="43.92212" lon="7.61688">
        <ele>941</ele>
        <time>2022-09-10T14:24:54.000Z</time>
      </trkpt>
      <trkpt lat="43.92213" lon="7.61688">
        <ele>940.59997558594</ele>
        <time>2022-09-10T14:25:03.000Z</time>
      </trkpt>
      <trkpt lat="43.92213" lon="7.61688">
        <ele>940.20001220703</ele>
        <time>2022-09-10T14:25:08.000Z</time>
      </trkpt>
      <trkpt lat="43.92213" lon="7.61689">
        <ele>940.59997558594</ele>
        <time>2022-09-10T14:25:15.000Z</time>
      </trkpt>
      <trkpt lat="43.92213" lon="7.61688">
        <ele>940.59997558594</ele>
        <time>2022-09-10T14:25:27.000Z</time>
      </trkpt>
      <trkpt lat="43.92213" lon="7.61688">
        <ele>940.40002441406</ele>
        <time>2022-09-10T14:25:37.000Z</time>
      </trkpt>
      <trkpt lat="43.92213" lon="7.61688">
        <ele>940.20001220703</ele>
        <time>2022-09-10T14:25:52.000Z</time>
      </trkpt>
      <trkpt lat="43.92212" lon="7.61688">
        <ele>940.20001220703</ele>
        <time>2022-09-10T14:26:13.000Z</time>
      </trkpt>
      <trkpt lat="43.92212" lon="7.61689">
        <ele>940.20001220703</ele>
        <time>2022-09-10T14:26:18.000Z</time>
      </trkpt>
      <trkpt lat="43.92213" lon="7.61688">
        <ele>940.20001220703</ele>
        <time>2022-09-10T14:26:26.000Z</time>
      </trkpt>
      <trkpt lat="43.92212" lon="7.61688">
        <ele>940</ele>
        <time>2022-09-10T14:26:43.000Z</time>
      </trkpt>
      <trkpt lat="43.92212" lon="7.61688">
        <ele>940.20001220703</ele>
        <time>2022-09-10T14:26:58.000Z</time>
      </trkpt>
      <trkpt lat="43.92212" lon="7.61687">
        <ele>939.59997558594</ele>
        <time>2022-09-10T14:27:15.000Z</time>
      </trkpt>
      <trkpt lat="43.92212" lon="7.61687">
        <ele>939.59997558594</ele>
        <time>2022-09-10T14:27:35.000Z</time>
      </trkpt>
      <trkpt lat="43.92212" lon="7.61687">
        <ele>939.59997558594</ele>
        <time>2022-09-10T14:27:47.000Z</time>
      </trkpt>
      <trkpt lat="43.9221" lon="7.61687">
        <ele>939.40002441406</ele>
        <time>2022-09-10T14:28:00.000Z</time>
      </trkpt>
      <trkpt lat="43.92209" lon="7.61688">
        <ele>939.20001220703</ele>
        <time>2022-09-10T14:28:07.000Z</time>
      </trkpt>
      <trkpt lat="43.92209" lon="7.6169">
        <ele>938.59997558594</ele>
        <time>2022-09-10T14:28:22.000Z</time>
      </trkpt>
      <trkpt lat="43.92206" lon="7.6169">
        <ele>938.59997558594</ele>
        <time>2022-09-10T14:28:30.000Z</time>
      </trkpt>
      <trkpt lat="43.92206" lon="7.61691">
        <ele>938.59997558594</ele>
        <time>2022-09-10T14:28:31.000Z</time>
      </trkpt>
      <trkpt lat="43.92206" lon="7.61691">
        <ele>938.40002441406</ele>
        <time>2022-09-10T14:28:37.000Z</time>
      </trkpt>
      <trkpt lat="43.92206" lon="7.61691">
        <ele>938.40002441406</ele>
        <time>2022-09-10T14:28:47.000Z</time>
      </trkpt>
      <trkpt lat="43.92205" lon="7.61692">
        <ele>938.20001220703</ele>
        <time>2022-09-10T14:28:49.000Z</time>
      </trkpt>
      <trkpt lat="43.92202" lon="7.61695">
        <ele>938.20001220703</ele>
        <time>2022-09-10T14:28:51.000Z</time>
      </trkpt>
      <trkpt lat="43.9219" lon="7.61707">
        <ele>938.20001220703</ele>
        <time>2022-09-10T14:28:55.000Z</time>
      </trkpt>
      <trkpt lat="43.92174" lon="7.61723">
        <ele>937</ele>
        <time>2022-09-10T14:29:00.000Z</time>
      </trkpt>
      <trkpt lat="43.92171" lon="7.61725">
        <ele>936.79998779297</ele>
        <time>2022-09-10T14:29:01.000Z</time>
      </trkpt>
      <trkpt lat="43.92169" lon="7.61728">
        <ele>936.59997558594</ele>
        <time>2022-09-10T14:29:02.000Z</time>
      </trkpt>
      <trkpt lat="43.92164" lon="7.61732">
        <ele>935.79998779297</ele>
        <time>2022-09-10T14:29:04.000Z</time>
      </trkpt>
      <trkpt lat="43.92161" lon="7.61734">
        <ele>935.40002441406</ele>
        <time>2022-09-10T14:29:05.000Z</time>
      </trkpt>
      <trkpt lat="43.92158" lon="7.6174">
        <ele>934.40002441406</ele>
        <time>2022-09-10T14:29:07.000Z</time>
      </trkpt>
      <trkpt lat="43.92156" lon="7.61743">
        <ele>934</ele>
        <time>2022-09-10T14:29:08.000Z</time>
      </trkpt>
      <trkpt lat="43.92154" lon="7.61746">
        <ele>933.79998779297</ele>
        <time>2022-09-10T14:29:09.000Z</time>
      </trkpt>
      <trkpt lat="43.92152" lon="7.6175">
        <ele>933.40002441406</ele>
        <time>2022-09-10T14:29:10.000Z</time>
      </trkpt>
      <trkpt lat="43.92151" lon="7.61756">
        <ele>932</ele>
        <time>2022-09-10T14:29:12.000Z</time>
      </trkpt>
      <trkpt lat="43.92151" lon="7.6176">
        <ele>931.40002441406</ele>
        <time>2022-09-10T14:29:13.000Z</time>
      </trkpt>
      <trkpt lat="43.9215" lon="7.61763">
        <ele>930.59997558594</ele>
        <time>2022-09-10T14:29:14.000Z</time>
      </trkpt>
      <trkpt lat="43.92147" lon="7.61767">
        <ele>929.40002441406</ele>
        <time>2022-09-10T14:29:16.000Z</time>
      </trkpt>
      <trkpt lat="43.92145" lon="7.61769">
        <ele>929</ele>
        <time>2022-09-10T14:29:17.000Z</time>
      </trkpt>
      <trkpt lat="43.92142" lon="7.61773">
        <ele>928</ele>
        <time>2022-09-10T14:29:19.000Z</time>
      </trkpt>
      <trkpt lat="43.92141" lon="7.61779">
        <ele>926</ele>
        <time>2022-09-10T14:29:21.000Z</time>
      </trkpt>
      <trkpt lat="43.9214" lon="7.61783">
        <ele>924.79998779297</ele>
        <time>2022-09-10T14:29:22.000Z</time>
      </trkpt>
      <trkpt lat="43.92138" lon="7.61787">
        <ele>923.40002441406</ele>
        <time>2022-09-10T14:29:23.000Z</time>
      </trkpt>
      <trkpt lat="43.92137" lon="7.6179">
        <ele>922</ele>
        <time>2022-09-10T14:29:24.000Z</time>
      </trkpt>
      <trkpt lat="43.92137" lon="7.61794">
        <ele>920.79998779297</ele>
        <time>2022-09-10T14:29:25.000Z</time>
      </trkpt>
      <trkpt lat="43.92137" lon="7.61801">
        <ele>919</ele>
        <time>2022-09-10T14:29:27.000Z</time>
      </trkpt>
      <trkpt lat="43.92137" lon="7.61804">
        <ele>917.59997558594</ele>
        <time>2022-09-10T14:29:28.000Z</time>
      </trkpt>
      <trkpt lat="43.92139" lon="7.61805">
        <ele>916.79998779297</ele>
        <time>2022-09-10T14:29:29.000Z</time>
      </trkpt>
      <trkpt lat="43.9214" lon="7.61805">
        <ele>915.79998779297</ele>
        <time>2022-09-10T14:29:30.000Z</time>
      </trkpt>
      <trkpt lat="43.9214" lon="7.61803">
        <ele>915</ele>
        <time>2022-09-10T14:29:31.000Z</time>
      </trkpt>
      <trkpt lat="43.9214" lon="7.61802">
        <ele>914.59997558594</ele>
        <time>2022-09-10T14:29:32.000Z</time>
      </trkpt>
      <trkpt lat="43.9214" lon="7.61801">
        <ele>914.59997558594</ele>
        <time>2022-09-10T14:29:33.000Z</time>
      </trkpt>
      <trkpt lat="43.92138" lon="7.61803">
        <ele>914.79998779297</ele>
        <time>2022-09-10T14:29:36.000Z</time>
      </trkpt>
      <trkpt lat="43.92138" lon="7.61804">
        <ele>915.20001220703</ele>
        <time>2022-09-10T14:29:41.000Z</time>
      </trkpt>
      <trkpt lat="43.92137" lon="7.61804">
        <ele>915.59997558594</ele>
        <time>2022-09-10T14:29:58.000Z</time>
      </trkpt>
      <trkpt lat="43.92137" lon="7.61805">
        <ele>915.79998779297</ele>
        <time>2022-09-10T14:30:06.000Z</time>
      </trkpt>
      <trkpt lat="43.92137" lon="7.61805">
        <ele>916</ele>
        <time>2022-09-10T14:30:08.000Z</time>
      </trkpt>
      <trkpt lat="43.92137" lon="7.61805">
        <ele>916.40002441406</ele>
        <time>2022-09-10T14:30:40.000Z</time>
      </trkpt>
      <trkpt lat="43.92136" lon="7.61806">
        <ele>916.40002441406</ele>
        <time>2022-09-10T14:31:16.000Z</time>
      </trkpt>
      <trkpt lat="43.92135" lon="7.61806">
        <ele>916.20001220703</ele>
        <time>2022-09-10T14:31:32.000Z</time>
      </trkpt>
      <trkpt lat="43.92132" lon="7.61807">
        <ele>916</ele>
        <time>2022-09-10T14:31:39.000Z</time>
      </trkpt>
      <trkpt lat="43.92121" lon="7.61813">
        <ele>915.79998779297</ele>
        <time>2022-09-10T14:31:44.000Z</time>
      </trkpt>
      <trkpt lat="43.92109" lon="7.61823">
        <ele>914.59997558594</ele>
        <time>2022-09-10T14:31:48.000Z</time>
      </trkpt>
      <trkpt lat="43.92104" lon="7.61824">
        <ele>914</ele>
        <time>2022-09-10T14:31:49.000Z</time>
      </trkpt>
      <trkpt lat="43.92101" lon="7.61826">
        <ele>913.59997558594</ele>
        <time>2022-09-10T14:31:50.000Z</time>
      </trkpt>
      <trkpt lat="43.92097" lon="7.6183">
        <ele>912.40002441406</ele>
        <time>2022-09-10T14:31:51.000Z</time>
      </trkpt>
      <trkpt lat="43.92093" lon="7.61835">
        <ele>911.79998779297</ele>
        <time>2022-09-10T14:31:52.000Z</time>
      </trkpt>
      <trkpt lat="43.92088" lon="7.61841">
        <ele>910.79998779297</ele>
        <time>2022-09-10T14:31:53.000Z</time>
      </trkpt>
      <trkpt lat="43.92083" lon="7.61845">
        <ele>910</ele>
        <time>2022-09-10T14:31:54.000Z</time>
      </trkpt>
      <trkpt lat="43.92077" lon="7.61849">
        <ele>909.20001220703</ele>
        <time>2022-09-10T14:31:55.000Z</time>
      </trkpt>
      <trkpt lat="43.92071" lon="7.61851">
        <ele>908.40002441406</ele>
        <time>2022-09-10T14:31:56.000Z</time>
      </trkpt>
      <trkpt lat="43.92066" lon="7.61854">
        <ele>907.79998779297</ele>
        <time>2022-09-10T14:31:57.000Z</time>
      </trkpt>
      <trkpt lat="43.92053" lon="7.61861">
        <ele>906.20001220703</ele>
        <time>2022-09-10T14:31:59.000Z</time>
      </trkpt>
      <trkpt lat="43.92047" lon="7.61863">
        <ele>905.20001220703</ele>
        <time>2022-09-10T14:32:00.000Z</time>
      </trkpt>
      <trkpt lat="43.92042" lon="7.61864">
        <ele>904</ele>
        <time>2022-09-10T14:32:01.000Z</time>
      </trkpt>
      <trkpt lat="43.92037" lon="7.61863">
        <ele>904.59997558594</ele>
        <time>2022-09-10T14:32:02.000Z</time>
      </trkpt>
      <trkpt lat="43.92025" lon="7.6187">
        <ele>903.79998779297</ele>
        <time>2022-09-10T14:32:05.000Z</time>
      </trkpt>
      <trkpt lat="43.92021" lon="7.61883">
        <ele>902.79998779297</ele>
        <time>2022-09-10T14:32:07.000Z</time>
      </trkpt>
      <trkpt lat="43.92018" lon="7.61894">
        <ele>902</ele>
        <time>2022-09-10T14:32:09.000Z</time>
      </trkpt>
      <trkpt lat="43.92017" lon="7.619">
        <ele>901.59997558594</ele>
        <time>2022-09-10T14:32:10.000Z</time>
      </trkpt>
      <trkpt lat="43.92014" lon="7.61911">
        <ele>900.59997558594</ele>
        <time>2022-09-10T14:32:13.000Z</time>
      </trkpt>
      <trkpt lat="43.9201" lon="7.61913">
        <ele>900.40002441406</ele>
        <time>2022-09-10T14:32:14.000Z</time>
      </trkpt>
      <trkpt lat="43.92004" lon="7.61908">
        <ele>900</ele>
        <time>2022-09-10T14:32:16.000Z</time>
      </trkpt>
      <trkpt lat="43.92002" lon="7.61899">
        <ele>899.40002441406</ele>
        <time>2022-09-10T14:32:18.000Z</time>
      </trkpt>
      <trkpt lat="43.92002" lon="7.61894">
        <ele>899.20001220703</ele>
        <time>2022-09-10T14:32:19.000Z</time>
      </trkpt>
      <trkpt lat="43.91998" lon="7.6188">
        <ele>898</ele>
        <time>2022-09-10T14:32:22.000Z</time>
      </trkpt>
      <trkpt lat="43.91991" lon="7.61865">
        <ele>897.20001220703</ele>
        <time>2022-09-10T14:32:25.000Z</time>
      </trkpt>
      <trkpt lat="43.91988" lon="7.61861">
        <ele>896.59997558594</ele>
        <time>2022-09-10T14:32:26.000Z</time>
      </trkpt>
      <trkpt lat="43.91984" lon="7.61851">
        <ele>895.59997558594</ele>
        <time>2022-09-10T14:32:28.000Z</time>
      </trkpt>
      <trkpt lat="43.91977" lon="7.61841">
        <ele>894.20001220703</ele>
        <time>2022-09-10T14:32:31.000Z</time>
      </trkpt>
      <trkpt lat="43.91975" lon="7.6184">
        <ele>894</ele>
        <time>2022-09-10T14:32:32.000Z</time>
      </trkpt>
      <trkpt lat="43.91972" lon="7.61841">
        <ele>892.59997558594</ele>
        <time>2022-09-10T14:32:34.000Z</time>
      </trkpt>
      <trkpt lat="43.91972" lon="7.61841">
        <ele>891.59997558594</ele>
        <time>2022-09-10T14:32:36.000Z</time>
      </trkpt>
      <trkpt lat="43.91971" lon="7.61842">
        <ele>891.20001220703</ele>
        <time>2022-09-10T14:32:42.000Z</time>
      </trkpt>
      <trkpt lat="43.91971" lon="7.61842">
        <ele>890.40002441406</ele>
        <time>2022-09-10T14:32:48.000Z</time>
      </trkpt>
      <trkpt lat="43.91971" lon="7.61843">
        <ele>889.40002441406</ele>
        <time>2022-09-10T14:32:55.000Z</time>
      </trkpt>
      <trkpt lat="43.91967" lon="7.61846">
        <ele>889</ele>
        <time>2022-09-10T14:32:58.000Z</time>
      </trkpt>
      <trkpt lat="43.91967" lon="7.61846">
        <ele>889</ele>
        <time>2022-09-10T14:32:59.000Z</time>
      </trkpt>
      <trkpt lat="43.91963" lon="7.61845">
        <ele>888.40002441406</ele>
        <time>2022-09-10T14:33:02.000Z</time>
      </trkpt>
      <trkpt lat="43.91958" lon="7.61842">
        <ele>887.59997558594</ele>
        <time>2022-09-10T14:33:04.000Z</time>
      </trkpt>
      <trkpt lat="43.91956" lon="7.61842">
        <ele>887</ele>
        <time>2022-09-10T14:33:05.000Z</time>
      </trkpt>
      <trkpt lat="43.91954" lon="7.61841">
        <ele>886.20001220703</ele>
        <time>2022-09-10T14:33:06.000Z</time>
      </trkpt>
      <trkpt lat="43.91952" lon="7.61839">
        <ele>885.79998779297</ele>
        <time>2022-09-10T14:33:07.000Z</time>
      </trkpt>
      <trkpt lat="43.91949" lon="7.61838">
        <ele>884.20001220703</ele>
        <time>2022-09-10T14:33:09.000Z</time>
      </trkpt>
      <trkpt lat="43.91946" lon="7.6184">
        <ele>882.79998779297</ele>
        <time>2022-09-10T14:33:11.000Z</time>
      </trkpt>
      <trkpt lat="43.91941" lon="7.61844">
        <ele>880.79998779297</ele>
        <time>2022-09-10T14:33:13.000Z</time>
      </trkpt>
      <trkpt lat="43.91935" lon="7.61842">
        <ele>878.20001220703</ele>
        <time>2022-09-10T14:33:15.000Z</time>
      </trkpt>
      <trkpt lat="43.91932" lon="7.61838">
        <ele>876.79998779297</ele>
        <time>2022-09-10T14:33:16.000Z</time>
      </trkpt>
      <trkpt lat="43.9193" lon="7.61835">
        <ele>875.40002441406</ele>
        <time>2022-09-10T14:33:17.000Z</time>
      </trkpt>
      <trkpt lat="43.91928" lon="7.61834">
        <ele>874.20001220703</ele>
        <time>2022-09-10T14:33:18.000Z</time>
      </trkpt>
      <trkpt lat="43.91926" lon="7.61835">
        <ele>872.79998779297</ele>
        <time>2022-09-10T14:33:19.000Z</time>
      </trkpt>
      <trkpt lat="43.91924" lon="7.61837">
        <ele>871.40002441406</ele>
        <time>2022-09-10T14:33:20.000Z</time>
      </trkpt>
      <trkpt lat="43.91922" lon="7.61838">
        <ele>870.40002441406</ele>
        <time>2022-09-10T14:33:21.000Z</time>
      </trkpt>
      <trkpt lat="43.91918" lon="7.61841">
        <ele>868.79998779297</ele>
        <time>2022-09-10T14:33:23.000Z</time>
      </trkpt>
      <trkpt lat="43.91916" lon="7.61841">
        <ele>867.59997558594</ele>
        <time>2022-09-10T14:33:24.000Z</time>
      </trkpt>
      <trkpt lat="43.91913" lon="7.6184">
        <ele>866.79998779297</ele>
        <time>2022-09-10T14:33:25.000Z</time>
      </trkpt>
      <trkpt lat="43.91911" lon="7.61837">
        <ele>866</ele>
        <time>2022-09-10T14:33:26.000Z</time>
      </trkpt>
      <trkpt lat="43.91909" lon="7.61834">
        <ele>865.20001220703</ele>
        <time>2022-09-10T14:33:27.000Z</time>
      </trkpt>
      <trkpt lat="43.91907" lon="7.61831">
        <ele>864.40002441406</ele>
        <time>2022-09-10T14:33:28.000Z</time>
      </trkpt>
      <trkpt lat="43.91902" lon="7.6183">
        <ele>863</ele>
        <time>2022-09-10T14:33:30.000Z</time>
      </trkpt>
      <trkpt lat="43.91897" lon="7.61832">
        <ele>861.40002441406</ele>
        <time>2022-09-10T14:33:32.000Z</time>
      </trkpt>
      <trkpt lat="43.91894" lon="7.61832">
        <ele>860.20001220703</ele>
        <time>2022-09-10T14:33:33.000Z</time>
      </trkpt>
      <trkpt lat="43.91891" lon="7.61831">
        <ele>859.40002441406</ele>
        <time>2022-09-10T14:33:34.000Z</time>
      </trkpt>
      <trkpt lat="43.91887" lon="7.61829">
        <ele>858.59997558594</ele>
        <time>2022-09-10T14:33:35.000Z</time>
      </trkpt>
      <trkpt lat="43.91881" lon="7.61827">
        <ele>856.40002441406</ele>
        <time>2022-09-10T14:33:37.000Z</time>
      </trkpt>
      <trkpt lat="43.91878" lon="7.61825">
        <ele>855</ele>
        <time>2022-09-10T14:33:38.000Z</time>
      </trkpt>
      <trkpt lat="43.91875" lon="7.61823">
        <ele>853.59997558594</ele>
        <time>2022-09-10T14:33:39.000Z</time>
      </trkpt>
      <trkpt lat="43.91873" lon="7.6182">
        <ele>852.40002441406</ele>
        <time>2022-09-10T14:33:40.000Z</time>
      </trkpt>
      <trkpt lat="43.91872" lon="7.61817">
        <ele>851.20001220703</ele>
        <time>2022-09-10T14:33:41.000Z</time>
      </trkpt>
      <trkpt lat="43.9187" lon="7.61816">
        <ele>849.20001220703</ele>
        <time>2022-09-10T14:33:43.000Z</time>
      </trkpt>
      <trkpt lat="43.91869" lon="7.61818">
        <ele>848.20001220703</ele>
        <time>2022-09-10T14:33:44.000Z</time>
      </trkpt>
      <trkpt lat="43.91865" lon="7.61819">
        <ele>846.59997558594</ele>
        <time>2022-09-10T14:33:46.000Z</time>
      </trkpt>
      <trkpt lat="43.91864" lon="7.61817">
        <ele>846</ele>
        <time>2022-09-10T14:33:47.000Z</time>
      </trkpt>
      <trkpt lat="43.91862" lon="7.61814">
        <ele>845.40002441406</ele>
        <time>2022-09-10T14:33:48.000Z</time>
      </trkpt>
      <trkpt lat="43.9186" lon="7.61811">
        <ele>844.20001220703</ele>
        <time>2022-09-10T14:33:50.000Z</time>
      </trkpt>
      <trkpt lat="43.91858" lon="7.61812">
        <ele>843.59997558594</ele>
        <time>2022-09-10T14:33:51.000Z</time>
      </trkpt>
      <trkpt lat="43.91856" lon="7.61814">
        <ele>842.79998779297</ele>
        <time>2022-09-10T14:33:52.000Z</time>
      </trkpt>
      <trkpt lat="43.91851" lon="7.6182">
        <ele>841.40002441406</ele>
        <time>2022-09-10T14:33:54.000Z</time>
      </trkpt>
      <trkpt lat="43.91847" lon="7.6182">
        <ele>840.59997558594</ele>
        <time>2022-09-10T14:33:55.000Z</time>
      </trkpt>
      <trkpt lat="43.91845" lon="7.61818">
        <ele>840</ele>
        <time>2022-09-10T14:33:56.000Z</time>
      </trkpt>
      <trkpt lat="43.91844" lon="7.61814">
        <ele>839.79998779297</ele>
        <time>2022-09-10T14:33:57.000Z</time>
      </trkpt>
      <trkpt lat="43.91843" lon="7.61808">
        <ele>838.79998779297</ele>
        <time>2022-09-10T14:33:58.000Z</time>
      </trkpt>
      <trkpt lat="43.91838" lon="7.61807">
        <ele>837.20001220703</ele>
        <time>2022-09-10T14:34:00.000Z</time>
      </trkpt>
      <trkpt lat="43.91834" lon="7.61807">
        <ele>836.20001220703</ele>
        <time>2022-09-10T14:34:01.000Z</time>
      </trkpt>
      <trkpt lat="43.91827" lon="7.61808">
        <ele>835</ele>
        <time>2022-09-10T14:34:03.000Z</time>
      </trkpt>
      <trkpt lat="43.91824" lon="7.61814">
        <ele>833.40002441406</ele>
        <time>2022-09-10T14:34:04.000Z</time>
      </trkpt>
      <trkpt lat="43.9182" lon="7.61818">
        <ele>832</ele>
        <time>2022-09-10T14:34:05.000Z</time>
      </trkpt>
      <trkpt lat="43.91816" lon="7.61821">
        <ele>831</ele>
        <time>2022-09-10T14:34:06.000Z</time>
      </trkpt>
      <trkpt lat="43.91812" lon="7.61822">
        <ele>829.40002441406</ele>
        <time>2022-09-10T14:34:07.000Z</time>
      </trkpt>
      <trkpt lat="43.91808" lon="7.61823">
        <ele>828</ele>
        <time>2022-09-10T14:34:08.000Z</time>
      </trkpt>
      <trkpt lat="43.91803" lon="7.61824">
        <ele>827</ele>
        <time>2022-09-10T14:34:09.000Z</time>
      </trkpt>
      <trkpt lat="43.91799" lon="7.61822">
        <ele>825.79998779297</ele>
        <time>2022-09-10T14:34:10.000Z</time>
      </trkpt>
      <trkpt lat="43.91795" lon="7.61821">
        <ele>824.40002441406</ele>
        <time>2022-09-10T14:34:11.000Z</time>
      </trkpt>
      <trkpt lat="43.91791" lon="7.61818">
        <ele>823.20001220703</ele>
        <time>2022-09-10T14:34:12.000Z</time>
      </trkpt>
      <trkpt lat="43.91788" lon="7.61814">
        <ele>821.40002441406</ele>
        <time>2022-09-10T14:34:13.000Z</time>
      </trkpt>
      <trkpt lat="43.91785" lon="7.61809">
        <ele>820</ele>
        <time>2022-09-10T14:34:14.000Z</time>
      </trkpt>
      <trkpt lat="43.91783" lon="7.61806">
        <ele>818.40002441406</ele>
        <time>2022-09-10T14:34:15.000Z</time>
      </trkpt>
      <trkpt lat="43.91779" lon="7.61803">
        <ele>816.79998779297</ele>
        <time>2022-09-10T14:34:16.000Z</time>
      </trkpt>
      <trkpt lat="43.91776" lon="7.61801">
        <ele>815.40002441406</ele>
        <time>2022-09-10T14:34:17.000Z</time>
      </trkpt>
      <trkpt lat="43.91771" lon="7.61798">
        <ele>814</ele>
        <time>2022-09-10T14:34:18.000Z</time>
      </trkpt>
      <trkpt lat="43.91767" lon="7.61795">
        <ele>812.79998779297</ele>
        <time>2022-09-10T14:34:19.000Z</time>
      </trkpt>
      <trkpt lat="43.91765" lon="7.61791">
        <ele>811.79998779297</ele>
        <time>2022-09-10T14:34:20.000Z</time>
      </trkpt>
      <trkpt lat="43.91762" lon="7.61786">
        <ele>810.79998779297</ele>
        <time>2022-09-10T14:34:21.000Z</time>
      </trkpt>
      <trkpt lat="43.91755" lon="7.61779">
        <ele>808.59997558594</ele>
        <time>2022-09-10T14:34:23.000Z</time>
      </trkpt>
      <trkpt lat="43.91752" lon="7.61776">
        <ele>807</ele>
        <time>2022-09-10T14:34:24.000Z</time>
      </trkpt>
      <trkpt lat="43.9175" lon="7.61773">
        <ele>805.40002441406</ele>
        <time>2022-09-10T14:34:25.000Z</time>
      </trkpt>
      <trkpt lat="43.91747" lon="7.61769">
        <ele>803.40002441406</ele>
        <time>2022-09-10T14:34:26.000Z</time>
      </trkpt>
      <trkpt lat="43.91745" lon="7.61767">
        <ele>801.79998779297</ele>
        <time>2022-09-10T14:34:27.000Z</time>
      </trkpt>
      <trkpt lat="43.91742" lon="7.61763">
        <ele>800.20001220703</ele>
        <time>2022-09-10T14:34:28.000Z</time>
      </trkpt>
      <trkpt lat="43.91739" lon="7.6176">
        <ele>799.20001220703</ele>
        <time>2022-09-10T14:34:29.000Z</time>
      </trkpt>
      <trkpt lat="43.91735" lon="7.61758">
        <ele>798</ele>
        <time>2022-09-10T14:34:30.000Z</time>
      </trkpt>
      <trkpt lat="43.91731" lon="7.61758">
        <ele>796.20001220703</ele>
        <time>2022-09-10T14:34:31.000Z</time>
      </trkpt>
      <trkpt lat="43.91727" lon="7.61755">
        <ele>794.59997558594</ele>
        <time>2022-09-10T14:34:33.000Z</time>
      </trkpt>
      <trkpt lat="43.91727" lon="7.61752">
        <ele>793.59997558594</ele>
        <time>2022-09-10T14:34:34.000Z</time>
      </trkpt>
      <trkpt lat="43.91728" lon="7.6175">
        <ele>793.40002441406</ele>
        <time>2022-09-10T14:34:35.000Z</time>
      </trkpt>
      <trkpt lat="43.91724" lon="7.61744">
        <ele>792.40002441406</ele>
        <time>2022-09-10T14:34:38.000Z</time>
      </trkpt>
      <trkpt lat="43.91718" lon="7.61742">
        <ele>790.59997558594</ele>
        <time>2022-09-10T14:34:40.000Z</time>
      </trkpt>
      <trkpt lat="43.91715" lon="7.6174">
        <ele>789.59997558594</ele>
        <time>2022-09-10T14:34:41.000Z</time>
      </trkpt>
      <trkpt lat="43.91712" lon="7.61737">
        <ele>789</ele>
        <time>2022-09-10T14:34:42.000Z</time>
      </trkpt>
      <trkpt lat="43.91708" lon="7.61735">
        <ele>788.40002441406</ele>
        <time>2022-09-10T14:34:43.000Z</time>
      </trkpt>
      <trkpt lat="43.91701" lon="7.61732">
        <ele>786.20001220703</ele>
        <time>2022-09-10T14:34:45.000Z</time>
      </trkpt>
      <trkpt lat="43.91699" lon="7.61729">
        <ele>785.20001220703</ele>
        <time>2022-09-10T14:34:46.000Z</time>
      </trkpt>
      <trkpt lat="43.91697" lon="7.61726">
        <ele>784</ele>
        <time>2022-09-10T14:34:47.000Z</time>
      </trkpt>
      <trkpt lat="43.91696" lon="7.61723">
        <ele>783</ele>
        <time>2022-09-10T14:34:48.000Z</time>
      </trkpt>
      <trkpt lat="43.91693" lon="7.61719">
        <ele>781</ele>
        <time>2022-09-10T14:34:50.000Z</time>
      </trkpt>
      <trkpt lat="43.91691" lon="7.61714">
        <ele>779.59997558594</ele>
        <time>2022-09-10T14:34:52.000Z</time>
      </trkpt>
      <trkpt lat="43.91688" lon="7.6171">
        <ele>777.79998779297</ele>
        <time>2022-09-10T14:34:54.000Z</time>
      </trkpt>
      <trkpt lat="43.91685" lon="7.61706">
        <ele>777</ele>
        <time>2022-09-10T14:34:55.000Z</time>
      </trkpt>
      <trkpt lat="43.91683" lon="7.61702">
        <ele>775.59997558594</ele>
        <time>2022-09-10T14:34:56.000Z</time>
      </trkpt>
      <trkpt lat="43.91678" lon="7.61694">
        <ele>773.79998779297</ele>
        <time>2022-09-10T14:34:58.000Z</time>
      </trkpt>
      <trkpt lat="43.91676" lon="7.6169">
        <ele>772.79998779297</ele>
        <time>2022-09-10T14:34:59.000Z</time>
      </trkpt>
      <trkpt lat="43.91673" lon="7.61686">
        <ele>771.59997558594</ele>
        <time>2022-09-10T14:35:00.000Z</time>
      </trkpt>
      <trkpt lat="43.9167" lon="7.6168">
        <ele>769.59997558594</ele>
        <time>2022-09-10T14:35:02.000Z</time>
      </trkpt>
      <trkpt lat="43.91668" lon="7.61676">
        <ele>768.20001220703</ele>
        <time>2022-09-10T14:35:03.000Z</time>
      </trkpt>
      <trkpt lat="43.91666" lon="7.61671">
        <ele>766.79998779297</ele>
        <time>2022-09-10T14:35:04.000Z</time>
      </trkpt>
      <trkpt lat="43.91663" lon="7.61667">
        <ele>765.59997558594</ele>
        <time>2022-09-10T14:35:05.000Z</time>
      </trkpt>
      <trkpt lat="43.9166" lon="7.61659">
        <ele>763.20001220703</ele>
        <time>2022-09-10T14:35:07.000Z</time>
      </trkpt>
      <trkpt lat="43.91658" lon="7.61656">
        <ele>761.40002441406</ele>
        <time>2022-09-10T14:35:08.000Z</time>
      </trkpt>
      <trkpt lat="43.91655" lon="7.61653">
        <ele>760.20001220703</ele>
        <time>2022-09-10T14:35:09.000Z</time>
      </trkpt>
      <trkpt lat="43.91652" lon="7.61651">
        <ele>758.79998779297</ele>
        <time>2022-09-10T14:35:10.000Z</time>
      </trkpt>
      <trkpt lat="43.9165" lon="7.61651">
        <ele>759.40002441406</ele>
        <time>2022-09-10T14:35:11.000Z</time>
      </trkpt>
      <trkpt lat="43.91644" lon="7.61656">
        <ele>758</ele>
        <time>2022-09-10T14:35:14.000Z</time>
      </trkpt>
      <trkpt lat="43.91643" lon="7.61654">
        <ele>757.20001220703</ele>
        <time>2022-09-10T14:35:15.000Z</time>
      </trkpt>
      <trkpt lat="43.91643" lon="7.61648">
        <ele>756.20001220703</ele>
        <time>2022-09-10T14:35:17.000Z</time>
      </trkpt>
      <trkpt lat="43.91644" lon="7.61646">
        <ele>754.40002441406</ele>
        <time>2022-09-10T14:35:19.000Z</time>
      </trkpt>
      <trkpt lat="43.91644" lon="7.61644">
        <ele>753.59997558594</ele>
        <time>2022-09-10T14:35:21.000Z</time>
      </trkpt>
      <trkpt lat="43.91644" lon="7.61644">
        <ele>753.40002441406</ele>
        <time>2022-09-10T14:35:22.000Z</time>
      </trkpt>
      <trkpt lat="43.91644" lon="7.61643">
        <ele>752.20001220703</ele>
        <time>2022-09-10T14:35:27.000Z</time>
      </trkpt>
      <trkpt lat="43.91644" lon="7.61641">
        <ele>752</ele>
        <time>2022-09-10T14:35:28.000Z</time>
      </trkpt>
      <trkpt lat="43.91646" lon="7.61637">
        <ele>750.79998779297</ele>
        <time>2022-09-10T14:35:31.000Z</time>
      </trkpt>
      <trkpt lat="43.91647" lon="7.61632">
        <ele>750.20001220703</ele>
        <time>2022-09-10T14:35:33.000Z</time>
      </trkpt>
      <trkpt lat="43.91648" lon="7.6163">
        <ele>749.79998779297</ele>
        <time>2022-09-10T14:35:34.000Z</time>
      </trkpt>
      <trkpt lat="43.91647" lon="7.61628">
        <ele>748.40002441406</ele>
        <time>2022-09-10T14:35:36.000Z</time>
      </trkpt>
      <trkpt lat="43.91645" lon="7.61627">
        <ele>747.79998779297</ele>
        <time>2022-09-10T14:35:37.000Z</time>
      </trkpt>
      <trkpt lat="43.91643" lon="7.61625">
        <ele>747.59997558594</ele>
        <time>2022-09-10T14:35:38.000Z</time>
      </trkpt>
      <trkpt lat="43.91642" lon="7.61624">
        <ele>747.20001220703</ele>
        <time>2022-09-10T14:35:39.000Z</time>
      </trkpt>
      <trkpt lat="43.91637" lon="7.61624">
        <ele>746.40002441406</ele>
        <time>2022-09-10T14:35:41.000Z</time>
      </trkpt>
      <trkpt lat="43.91634" lon="7.61625">
        <ele>746</ele>
        <time>2022-09-10T14:35:42.000Z</time>
      </trkpt>
      <trkpt lat="43.91628" lon="7.61629">
        <ele>745.79998779297</ele>
        <time>2022-09-10T14:35:45.000Z</time>
      </trkpt>
      <trkpt lat="43.91627" lon="7.61629">
        <ele>745</ele>
        <time>2022-09-10T14:35:49.000Z</time>
      </trkpt>
      <trkpt lat="43.91627" lon="7.61629">
        <ele>744.79998779297</ele>
        <time>2022-09-10T14:35:51.000Z</time>
      </trkpt>
      <trkpt lat="43.91625" lon="7.61627">
        <ele>744</ele>
        <time>2022-09-10T14:35:57.000Z</time>
      </trkpt>
      <trkpt lat="43.91625" lon="7.61626">
        <ele>743.40002441406</ele>
        <time>2022-09-10T14:35:58.000Z</time>
      </trkpt>
      <trkpt lat="43.91625" lon="7.61624">
        <ele>742.40002441406</ele>
        <time>2022-09-10T14:36:00.000Z</time>
      </trkpt>
      <trkpt lat="43.91625" lon="7.6162">
        <ele>741.20001220703</ele>
        <time>2022-09-10T14:36:03.000Z</time>
      </trkpt>
      <trkpt lat="43.91626" lon="7.61619">
        <ele>740.20001220703</ele>
        <time>2022-09-10T14:36:05.000Z</time>
      </trkpt>
      <trkpt lat="43.91626" lon="7.61618">
        <ele>739.79998779297</ele>
        <time>2022-09-10T14:36:06.000Z</time>
      </trkpt>
      <trkpt lat="43.91626" lon="7.61618">
        <ele>738.40002441406</ele>
        <time>2022-09-10T14:36:09.000Z</time>
      </trkpt>
      <trkpt lat="43.91626" lon="7.61618">
        <ele>737.79998779297</ele>
        <time>2022-09-10T14:36:11.000Z</time>
      </trkpt>
      <trkpt lat="43.91626" lon="7.61617">
        <ele>737.40002441406</ele>
        <time>2022-09-10T14:36:13.000Z</time>
      </trkpt>
      <trkpt lat="43.91626" lon="7.61616">
        <ele>737.20001220703</ele>
        <time>2022-09-10T14:36:14.000Z</time>
      </trkpt>
      <trkpt lat="43.91629" lon="7.61613">
        <ele>737</ele>
        <time>2022-09-10T14:36:17.000Z</time>
      </trkpt>
      <trkpt lat="43.91627" lon="7.6161">
        <ele>736.20001220703</ele>
        <time>2022-09-10T14:36:20.000Z</time>
      </trkpt>
      <trkpt lat="43.91626" lon="7.6161">
        <ele>735.79998779297</ele>
        <time>2022-09-10T14:36:21.000Z</time>
      </trkpt>
      <trkpt lat="43.91623" lon="7.6161">
        <ele>735</ele>
        <time>2022-09-10T14:36:22.000Z</time>
      </trkpt>
      <trkpt lat="43.91621" lon="7.61609">
        <ele>734.20001220703</ele>
        <time>2022-09-10T14:36:23.000Z</time>
      </trkpt>
      <trkpt lat="43.91618" lon="7.61609">
        <ele>733.59997558594</ele>
        <time>2022-09-10T14:36:24.000Z</time>
      </trkpt>
      <trkpt lat="43.91615" lon="7.61611">
        <ele>733</ele>
        <time>2022-09-10T14:36:25.000Z</time>
      </trkpt>
      <trkpt lat="43.91613" lon="7.61614">
        <ele>732</ele>
        <time>2022-09-10T14:36:26.000Z</time>
      </trkpt>
      <trkpt lat="43.9161" lon="7.61618">
        <ele>731</ele>
        <time>2022-09-10T14:36:28.000Z</time>
      </trkpt>
      <trkpt lat="43.9161" lon="7.61618">
        <ele>730.40002441406</ele>
        <time>2022-09-10T14:36:29.000Z</time>
      </trkpt>
      <trkpt lat="43.91609" lon="7.61618">
        <ele>730.59997558594</ele>
        <time>2022-09-10T14:36:36.000Z</time>
      </trkpt>
      <trkpt lat="43.91609" lon="7.61619">
        <ele>731</ele>
        <time>2022-09-10T14:36:42.000Z</time>
      </trkpt>
      <trkpt lat="43.91608" lon="7.61619">
        <ele>730.59997558594</ele>
        <time>2022-09-10T14:36:50.000Z</time>
      </trkpt>
      <trkpt lat="43.91607" lon="7.61621">
        <ele>730.40002441406</ele>
        <time>2022-09-10T14:36:58.000Z</time>
      </trkpt>
      <trkpt lat="43.91606" lon="7.61624">
        <ele>730.20001220703</ele>
        <time>2022-09-10T14:37:09.000Z</time>
      </trkpt>
      <trkpt lat="43.91605" lon="7.61624">
        <ele>730</ele>
        <time>2022-09-10T14:37:12.000Z</time>
      </trkpt>
      <trkpt lat="43.91605" lon="7.61624">
        <ele>730</ele>
        <time>2022-09-10T14:37:19.000Z</time>
      </trkpt>
      <trkpt lat="43.91605" lon="7.61624">
        <ele>730.20001220703</ele>
        <time>2022-09-10T14:37:27.000Z</time>
      </trkpt>
      <trkpt lat="43.91604" lon="7.61626">
        <ele>730.20001220703</ele>
        <time>2022-09-10T14:37:41.000Z</time>
      </trkpt>
      <trkpt lat="43.91602" lon="7.61627">
        <ele>730</ele>
        <time>2022-09-10T14:37:57.000Z</time>
      </trkpt>
      <trkpt lat="43.91602" lon="7.61627">
        <ele>730</ele>
        <time>2022-09-10T14:38:10.000Z</time>
      </trkpt>
      <trkpt lat="43.91602" lon="7.61626">
        <ele>730.20001220703</ele>
        <time>2022-09-10T14:38:16.000Z</time>
      </trkpt>
      <trkpt lat="43.91602" lon="7.61626">
        <ele>730</ele>
        <time>2022-09-10T14:38:31.000Z</time>
      </trkpt>
      <trkpt lat="43.91602" lon="7.61626">
        <ele>730</ele>
        <time>2022-09-10T14:38:42.000Z</time>
      </trkpt>
      <trkpt lat="43.91603" lon="7.61626">
        <ele>730</ele>
        <time>2022-09-10T14:38:57.000Z</time>
      </trkpt>
      <trkpt lat="43.91603" lon="7.61626">
        <ele>730.20001220703</ele>
        <time>2022-09-10T14:39:11.000Z</time>
      </trkpt>
      <trkpt lat="43.91603" lon="7.61626">
        <ele>730</ele>
        <time>2022-09-10T14:39:29.000Z</time>
      </trkpt>
      <trkpt lat="43.91603" lon="7.61628">
        <ele>730</ele>
        <time>2022-09-10T14:39:33.000Z</time>
      </trkpt>
      <trkpt lat="43.91602" lon="7.6163">
        <ele>730.20001220703</ele>
        <time>2022-09-10T14:39:35.000Z</time>
      </trkpt>
      <trkpt lat="43.91599" lon="7.61641">
        <ele>730.59997558594</ele>
        <time>2022-09-10T14:39:39.000Z</time>
      </trkpt>
      <trkpt lat="43.91597" lon="7.61666">
        <ele>729</ele>
        <time>2022-09-10T14:39:44.000Z</time>
      </trkpt>
      <trkpt lat="43.91597" lon="7.61669">
        <ele>728.59997558594</ele>
        <time>2022-09-10T14:39:45.000Z</time>
      </trkpt>
      <trkpt lat="43.91597" lon="7.61675">
        <ele>728.20001220703</ele>
        <time>2022-09-10T14:39:47.000Z</time>
      </trkpt>
      <trkpt lat="43.91596" lon="7.61689">
        <ele>728.20001220703</ele>
        <time>2022-09-10T14:39:51.000Z</time>
      </trkpt>
      <trkpt lat="43.91593" lon="7.61703">
        <ele>727.59997558594</ele>
        <time>2022-09-10T14:39:54.000Z</time>
      </trkpt>
      <trkpt lat="43.91593" lon="7.61708">
        <ele>727.40002441406</ele>
        <time>2022-09-10T14:39:55.000Z</time>
      </trkpt>
      <trkpt lat="43.91591" lon="7.61714">
        <ele>727.40002441406</ele>
        <time>2022-09-10T14:39:56.000Z</time>
      </trkpt>
      <trkpt lat="43.91586" lon="7.61732">
        <ele>727</ele>
        <time>2022-09-10T14:39:59.000Z</time>
      </trkpt>
      <trkpt lat="43.91585" lon="7.61739">
        <ele>727</ele>
        <time>2022-09-10T14:40:00.000Z</time>
      </trkpt>
      <trkpt lat="43.91584" lon="7.61746">
        <ele>726.79998779297</ele>
        <time>2022-09-10T14:40:01.000Z</time>
      </trkpt>
      <trkpt lat="43.91585" lon="7.61765">
        <ele>726.79998779297</ele>
        <time>2022-09-10T14:40:04.000Z</time>
      </trkpt>
      <trkpt lat="43.91587" lon="7.61772">
        <ele>726.59997558594</ele>
        <time>2022-09-10T14:40:05.000Z</time>
      </trkpt>
      <trkpt lat="43.91592" lon="7.61789">
        <ele>726.79998779297</ele>
        <time>2022-09-10T14:40:09.000Z</time>
      </trkpt>
      <trkpt lat="43.91592" lon="7.61805">
        <ele>727.79998779297</ele>
        <time>2022-09-10T14:40:13.000Z</time>
      </trkpt>
      <trkpt lat="43.91589" lon="7.61815">
        <ele>727.79998779297</ele>
        <time>2022-09-10T14:40:15.000Z</time>
      </trkpt>
      <trkpt lat="43.91589" lon="7.61819">
        <ele>727.59997558594</ele>
        <time>2022-09-10T14:40:16.000Z</time>
      </trkpt>
      <trkpt lat="43.91585" lon="7.61824">
        <ele>726.40002441406</ele>
        <time>2022-09-10T14:40:18.000Z</time>
      </trkpt>
      <trkpt lat="43.91584" lon="7.61825">
        <ele>725.59997558594</ele>
        <time>2022-09-10T14:40:19.000Z</time>
      </trkpt>
      <trkpt lat="43.91583" lon="7.61826">
        <ele>724.59997558594</ele>
        <time>2022-09-10T14:40:20.000Z</time>
      </trkpt>
      <trkpt lat="43.9158" lon="7.61829">
        <ele>723.20001220703</ele>
        <time>2022-09-10T14:40:22.000Z</time>
      </trkpt>
      <trkpt lat="43.91578" lon="7.6183">
        <ele>722.59997558594</ele>
        <time>2022-09-10T14:40:23.000Z</time>
      </trkpt>
      <trkpt lat="43.91577" lon="7.61831">
        <ele>721.59997558594</ele>
        <time>2022-09-10T14:40:24.000Z</time>
      </trkpt>
      <trkpt lat="43.91573" lon="7.61835">
        <ele>720</ele>
        <time>2022-09-10T14:40:26.000Z</time>
      </trkpt>
      <trkpt lat="43.91571" lon="7.61837">
        <ele>718.40002441406</ele>
        <time>2022-09-10T14:40:27.000Z</time>
      </trkpt>
      <trkpt lat="43.91571" lon="7.6184">
        <ele>716.59997558594</ele>
        <time>2022-09-10T14:40:29.000Z</time>
      </trkpt>
      <trkpt lat="43.9157" lon="7.61842">
        <ele>714.79998779297</ele>
        <time>2022-09-10T14:40:31.000Z</time>
      </trkpt>
      <trkpt lat="43.91566" lon="7.61851">
        <ele>713.79998779297</ele>
        <time>2022-09-10T14:40:38.000Z</time>
      </trkpt>
      <trkpt lat="43.91563" lon="7.61852">
        <ele>712.40002441406</ele>
        <time>2022-09-10T14:40:41.000Z</time>
      </trkpt>
      <trkpt lat="43.91563" lon="7.61847">
        <ele>711.20001220703</ele>
        <time>2022-09-10T14:40:43.000Z</time>
      </trkpt>
      <trkpt lat="43.91564" lon="7.61839">
        <ele>710.40002441406</ele>
        <time>2022-09-10T14:40:45.000Z</time>
      </trkpt>
      <trkpt lat="43.91564" lon="7.61835">
        <ele>710.20001220703</ele>
        <time>2022-09-10T14:40:46.000Z</time>
      </trkpt>
      <trkpt lat="43.91562" lon="7.61831">
        <ele>710</ele>
        <time>2022-09-10T14:40:47.000Z</time>
      </trkpt>
      <trkpt lat="43.91561" lon="7.61825">
        <ele>709.59997558594</ele>
        <time>2022-09-10T14:40:48.000Z</time>
      </trkpt>
      <trkpt lat="43.91557" lon="7.61819">
        <ele>708.59997558594</ele>
        <time>2022-09-10T14:40:50.000Z</time>
      </trkpt>
      <trkpt lat="43.91556" lon="7.6182">
        <ele>708.40002441406</ele>
        <time>2022-09-10T14:40:51.000Z</time>
      </trkpt>
      <trkpt lat="43.91555" lon="7.61825">
        <ele>707.20001220703</ele>
        <time>2022-09-10T14:40:53.000Z</time>
      </trkpt>
      <trkpt lat="43.91553" lon="7.6183">
        <ele>706.79998779297</ele>
        <time>2022-09-10T14:40:54.000Z</time>
      </trkpt>
      <trkpt lat="43.91551" lon="7.61836">
        <ele>705.79998779297</ele>
        <time>2022-09-10T14:40:55.000Z</time>
      </trkpt>
      <trkpt lat="43.91549" lon="7.61844">
        <ele>704.59997558594</ele>
        <time>2022-09-10T14:40:56.000Z</time>
      </trkpt>
      <trkpt lat="43.91547" lon="7.6185">
        <ele>703.59997558594</ele>
        <time>2022-09-10T14:40:57.000Z</time>
      </trkpt>
      <trkpt lat="43.91547" lon="7.61858">
        <ele>702.59997558594</ele>
        <time>2022-09-10T14:40:58.000Z</time>
      </trkpt>
      <trkpt lat="43.91546" lon="7.61863">
        <ele>701.40002441406</ele>
        <time>2022-09-10T14:40:59.000Z</time>
      </trkpt>
      <trkpt lat="43.91545" lon="7.61866">
        <ele>701</ele>
        <time>2022-09-10T14:41:00.000Z</time>
      </trkpt>
      <trkpt lat="43.91544" lon="7.6187">
        <ele>700.79998779297</ele>
        <time>2022-09-10T14:41:04.000Z</time>
      </trkpt>
      <trkpt lat="43.91544" lon="7.6187">
        <ele>701.40002441406</ele>
        <time>2022-09-10T14:41:10.000Z</time>
      </trkpt>
      <trkpt lat="43.91544" lon="7.61869">
        <ele>701.59997558594</ele>
        <time>2022-09-10T14:41:11.000Z</time>
      </trkpt>
      <trkpt lat="43.91545" lon="7.61861">
        <ele>701.59997558594</ele>
        <time>2022-09-10T14:41:14.000Z</time>
      </trkpt>
      <trkpt lat="43.91546" lon="7.61836">
        <ele>702</ele>
        <time>2022-09-10T14:41:20.000Z</time>
      </trkpt>
      <trkpt lat="43.91547" lon="7.61807">
        <ele>702</ele>
        <time>2022-09-10T14:41:25.000Z</time>
      </trkpt>
      <trkpt lat="43.91549" lon="7.61765">
        <ele>701.40002441406</ele>
        <time>2022-09-10T14:41:32.000Z</time>
      </trkpt>
      <trkpt lat="43.91551" lon="7.6173">
        <ele>701.40002441406</ele>
        <time>2022-09-10T14:41:38.000Z</time>
      </trkpt>
      <trkpt lat="43.91548" lon="7.61713">
        <ele>701.40002441406</ele>
        <time>2022-09-10T14:41:42.000Z</time>
      </trkpt>
      <trkpt lat="43.91537" lon="7.61708">
        <ele>701.59997558594</ele>
        <time>2022-09-10T14:41:46.000Z</time>
      </trkpt>
      <trkpt lat="43.91534" lon="7.6171">
        <ele>701.79998779297</ele>
        <time>2022-09-10T14:41:50.000Z</time>
      </trkpt>
      <trkpt lat="43.91534" lon="7.61712">
        <ele>702.40002441406</ele>
        <time>2022-09-10T14:41:57.000Z</time>
      </trkpt>
      <trkpt lat="43.91532" lon="7.61717">
        <ele>702.20001220703</ele>
        <time>2022-09-10T14:42:02.000Z</time>
      </trkpt>
      <trkpt lat="43.91526" lon="7.6173">
        <ele>702.40002441406</ele>
        <time>2022-09-10T14:42:06.000Z</time>
      </trkpt>
      <trkpt lat="43.91525" lon="7.61734">
        <ele>702.59997558594</ele>
        <time>2022-09-10T14:42:07.000Z</time>
      </trkpt>
      <trkpt lat="43.91516" lon="7.61755">
        <ele>703</ele>
        <time>2022-09-10T14:42:12.000Z</time>
      </trkpt>
      <trkpt lat="43.91512" lon="7.61764">
        <ele>703.59997558594</ele>
        <time>2022-09-10T14:42:14.000Z</time>
      </trkpt>
      <trkpt lat="43.915" lon="7.61779">
        <ele>704.20001220703</ele>
        <time>2022-09-10T14:42:19.000Z</time>
      </trkpt>
      <trkpt lat="43.91493" lon="7.61778">
        <ele>704.79998779297</ele>
        <time>2022-09-10T14:42:21.000Z</time>
      </trkpt>
      <trkpt lat="43.91486" lon="7.61775">
        <ele>705.40002441406</ele>
        <time>2022-09-10T14:42:23.000Z</time>
      </trkpt>
      <trkpt lat="43.91477" lon="7.6177">
        <ele>706</ele>
        <time>2022-09-10T14:42:26.000Z</time>
      </trkpt>
      <trkpt lat="43.91466" lon="7.61768">
        <ele>706.40002441406</ele>
        <time>2022-09-10T14:42:29.000Z</time>
      </trkpt>
      <trkpt lat="43.91456" lon="7.61768">
        <ele>707.20001220703</ele>
        <time>2022-09-10T14:42:32.000Z</time>
      </trkpt>
      <trkpt lat="43.9145" lon="7.61771">
        <ele>707.79998779297</ele>
        <time>2022-09-10T14:42:34.000Z</time>
      </trkpt>
      <trkpt lat="43.91444" lon="7.61773">
        <ele>708.40002441406</ele>
        <time>2022-09-10T14:42:36.000Z</time>
      </trkpt>
      <trkpt lat="43.9143" lon="7.61777">
        <ele>709.20001220703</ele>
        <time>2022-09-10T14:42:41.000Z</time>
      </trkpt>
      <trkpt lat="43.91426" lon="7.61777">
        <ele>709.59997558594</ele>
        <time>2022-09-10T14:42:43.000Z</time>
      </trkpt>
      <trkpt lat="43.91422" lon="7.61777">
        <ele>710</ele>
        <time>2022-09-10T14:42:45.000Z</time>
      </trkpt>
      <trkpt lat="43.91415" lon="7.61778">
        <ele>710.59997558594</ele>
        <time>2022-09-10T14:42:48.000Z</time>
      </trkpt>
      <trkpt lat="43.91408" lon="7.61777">
        <ele>711.40002441406</ele>
        <time>2022-09-10T14:42:51.000Z</time>
      </trkpt>
      <trkpt lat="43.914" lon="7.61776">
        <ele>711.79998779297</ele>
        <time>2022-09-10T14:42:54.000Z</time>
      </trkpt>
      <trkpt lat="43.91392" lon="7.61777">
        <ele>712.20001220703</ele>
        <time>2022-09-10T14:42:57.000Z</time>
      </trkpt>
      <trkpt lat="43.91378" lon="7.6178">
        <ele>713</ele>
        <time>2022-09-10T14:43:02.000Z</time>
      </trkpt>
      <trkpt lat="43.91375" lon="7.61781">
        <ele>713.20001220703</ele>
        <time>2022-09-10T14:43:03.000Z</time>
      </trkpt>
      <trkpt lat="43.9136" lon="7.61791">
        <ele>714.20001220703</ele>
        <time>2022-09-10T14:43:09.000Z</time>
      </trkpt>
      <trkpt lat="43.91345" lon="7.61803">
        <ele>715</ele>
        <time>2022-09-10T14:43:15.000Z</time>
      </trkpt>
      <trkpt lat="43.9134" lon="7.61807">
        <ele>715.20001220703</ele>
        <time>2022-09-10T14:43:17.000Z</time>
      </trkpt>
      <trkpt lat="43.91326" lon="7.61817">
        <ele>715.79998779297</ele>
        <time>2022-09-10T14:43:22.000Z</time>
      </trkpt>
      <trkpt lat="43.91315" lon="7.6183">
        <ele>716</ele>
        <time>2022-09-10T14:43:27.000Z</time>
      </trkpt>
      <trkpt lat="43.91302" lon="7.61849">
        <ele>716.40002441406</ele>
        <time>2022-09-10T14:43:33.000Z</time>
      </trkpt>
      <trkpt lat="43.91285" lon="7.61876">
        <ele>716.59997558594</ele>
        <time>2022-09-10T14:43:40.000Z</time>
      </trkpt>
      <trkpt lat="43.91275" lon="7.61894">
        <ele>716.59997558594</ele>
        <time>2022-09-10T14:43:45.000Z</time>
      </trkpt>
      <trkpt lat="43.91259" lon="7.61921">
        <ele>716.59997558594</ele>
        <time>2022-09-10T14:43:52.000Z</time>
      </trkpt>
      <trkpt lat="43.9124" lon="7.61946">
        <ele>716.79998779297</ele>
        <time>2022-09-10T14:43:59.000Z</time>
      </trkpt>
      <trkpt lat="43.91226" lon="7.61948">
        <ele>716.79998779297</ele>
        <time>2022-09-10T14:44:03.000Z</time>
      </trkpt>
      <trkpt lat="43.91202" lon="7.61941">
        <ele>717</ele>
        <time>2022-09-10T14:44:10.000Z</time>
      </trkpt>
      <trkpt lat="43.91179" lon="7.61935">
        <ele>717</ele>
        <time>2022-09-10T14:44:17.000Z</time>
      </trkpt>
      <trkpt lat="43.9116" lon="7.61929">
        <ele>717.20001220703</ele>
        <time>2022-09-10T14:44:23.000Z</time>
      </trkpt>
      <trkpt lat="43.91156" lon="7.61927">
        <ele>717.40002441406</ele>
        <time>2022-09-10T14:44:24.000Z</time>
      </trkpt>
      <trkpt lat="43.91137" lon="7.61923">
        <ele>717.40002441406</ele>
        <time>2022-09-10T14:44:30.000Z</time>
      </trkpt>
      <trkpt lat="43.91114" lon="7.61916">
        <ele>717.59997558594</ele>
        <time>2022-09-10T14:44:37.000Z</time>
      </trkpt>
      <trkpt lat="43.91102" lon="7.61912">
        <ele>717.79998779297</ele>
        <time>2022-09-10T14:44:42.000Z</time>
      </trkpt>
      <trkpt lat="43.91102" lon="7.61904">
        <ele>718.20001220703</ele>
        <time>2022-09-10T14:44:46.000Z</time>
      </trkpt>
      <trkpt lat="43.91105" lon="7.61902">
        <ele>718.59997558594</ele>
        <time>2022-09-10T14:44:48.000Z</time>
      </trkpt>
      <trkpt lat="43.91109" lon="7.61901">
        <ele>719.20001220703</ele>
        <time>2022-09-10T14:44:51.000Z</time>
      </trkpt>
      <trkpt lat="43.91112" lon="7.619">
        <ele>719.79998779297</ele>
        <time>2022-09-10T14:44:53.000Z</time>
      </trkpt>
      <trkpt lat="43.91119" lon="7.619">
        <ele>720.79998779297</ele>
        <time>2022-09-10T14:44:57.000Z</time>
      </trkpt>
      <trkpt lat="43.9112" lon="7.61896">
        <ele>721</ele>
        <time>2022-09-10T14:44:58.000Z</time>
      </trkpt>
      <trkpt lat="43.91118" lon="7.61892">
        <ele>721.20001220703</ele>
        <time>2022-09-10T14:45:00.000Z</time>
      </trkpt>
      <trkpt lat="43.9111" lon="7.6189">
        <ele>722</ele>
        <time>2022-09-10T14:45:03.000Z</time>
      </trkpt>
      <trkpt lat="43.91107" lon="7.61889">
        <ele>722.40002441406</ele>
        <time>2022-09-10T14:45:04.000Z</time>
      </trkpt>
      <trkpt lat="43.91102" lon="7.61887">
        <ele>723.40002441406</ele>
        <time>2022-09-10T14:45:06.000Z</time>
      </trkpt>
      <trkpt lat="43.91099" lon="7.61887">
        <ele>723.59997558594</ele>
        <time>2022-09-10T14:45:07.000Z</time>
      </trkpt>
      <trkpt lat="43.91097" lon="7.61887">
        <ele>723.79998779297</ele>
        <time>2022-09-10T14:45:08.000Z</time>
      </trkpt>
      <trkpt lat="43.91094" lon="7.61888">
        <ele>723.79998779297</ele>
        <time>2022-09-10T14:45:09.000Z</time>
      </trkpt>
      <trkpt lat="43.91085" lon="7.61892">
        <ele>724.40002441406</ele>
        <time>2022-09-10T14:45:13.000Z</time>
      </trkpt>
      <trkpt lat="43.91082" lon="7.61893">
        <ele>724.59997558594</ele>
        <time>2022-09-10T14:45:14.000Z</time>
      </trkpt>
      <trkpt lat="43.91073" lon="7.61898">
        <ele>725.59997558594</ele>
        <time>2022-09-10T14:45:18.000Z</time>
      </trkpt>
      <trkpt lat="43.91069" lon="7.61902">
        <ele>725.79998779297</ele>
        <time>2022-09-10T14:45:20.000Z</time>
      </trkpt>
      <trkpt lat="43.91065" lon="7.61908">
        <ele>726.59997558594</ele>
        <time>2022-09-10T14:45:23.000Z</time>
      </trkpt>
      <trkpt lat="43.91063" lon="7.6191">
        <ele>726.79998779297</ele>
        <time>2022-09-10T14:45:24.000Z</time>
      </trkpt>
      <trkpt lat="43.9106" lon="7.61913">
        <ele>727.59997558594</ele>
        <time>2022-09-10T14:45:26.000Z</time>
      </trkpt>
      <trkpt lat="43.91056" lon="7.61915">
        <ele>728.20001220703</ele>
        <time>2022-09-10T14:45:29.000Z</time>
      </trkpt>
      <trkpt lat="43.91055" lon="7.61917">
        <ele>728.79998779297</ele>
        <time>2022-09-10T14:45:30.000Z</time>
      </trkpt>
      <trkpt lat="43.91048" lon="7.61923">
        <ele>730</ele>
        <time>2022-09-10T14:45:34.000Z</time>
      </trkpt>
      <trkpt lat="43.91038" lon="7.61929">
        <ele>731.20001220703</ele>
        <time>2022-09-10T14:45:40.000Z</time>
      </trkpt>
      <trkpt lat="43.91031" lon="7.61933">
        <ele>732.40002441406</ele>
        <time>2022-09-10T14:45:44.000Z</time>
      </trkpt>
      <trkpt lat="43.91026" lon="7.61937">
        <ele>733.20001220703</ele>
        <time>2022-09-10T14:45:47.000Z</time>
      </trkpt>
      <trkpt lat="43.91025" lon="7.61938">
        <ele>733.59997558594</ele>
        <time>2022-09-10T14:45:48.000Z</time>
      </trkpt>
      <trkpt lat="43.91018" lon="7.61942">
        <ele>734.59997558594</ele>
        <time>2022-09-10T14:45:52.000Z</time>
      </trkpt>
      <trkpt lat="43.91015" lon="7.61945">
        <ele>735.20001220703</ele>
        <time>2022-09-10T14:45:54.000Z</time>
      </trkpt>
      <trkpt lat="43.91012" lon="7.61945">
        <ele>735.79998779297</ele>
        <time>2022-09-10T14:45:56.000Z</time>
      </trkpt>
      <trkpt lat="43.91009" lon="7.61947">
        <ele>736.40002441406</ele>
        <time>2022-09-10T14:45:58.000Z</time>
      </trkpt>
      <trkpt lat="43.91007" lon="7.61947">
        <ele>736.79998779297</ele>
        <time>2022-09-10T14:45:59.000Z</time>
      </trkpt>
      <trkpt lat="43.91003" lon="7.61948">
        <ele>737.79998779297</ele>
        <time>2022-09-10T14:46:02.000Z</time>
      </trkpt>
      <trkpt lat="43.91" lon="7.61948">
        <ele>738.40002441406</ele>
        <time>2022-09-10T14:46:04.000Z</time>
      </trkpt>
      <trkpt lat="43.90998" lon="7.61949">
        <ele>738.79998779297</ele>
        <time>2022-09-10T14:46:05.000Z</time>
      </trkpt>
      <trkpt lat="43.90993" lon="7.61952">
        <ele>740</ele>
        <time>2022-09-10T14:46:08.000Z</time>
      </trkpt>
      <trkpt lat="43.90989" lon="7.61955">
        <ele>741</ele>
        <time>2022-09-10T14:46:10.000Z</time>
      </trkpt>
      <trkpt lat="43.90987" lon="7.61955">
        <ele>741.40002441406</ele>
        <time>2022-09-10T14:46:11.000Z</time>
      </trkpt>
      <trkpt lat="43.90978" lon="7.6196">
        <ele>742</ele>
        <time>2022-09-10T14:46:16.000Z</time>
      </trkpt>
      <trkpt lat="43.90971" lon="7.61963">
        <ele>742.59997558594</ele>
        <time>2022-09-10T14:46:19.000Z</time>
      </trkpt>
      <trkpt lat="43.90965" lon="7.61965">
        <ele>743</ele>
        <time>2022-09-10T14:46:22.000Z</time>
      </trkpt>
      <trkpt lat="43.90959" lon="7.61966">
        <ele>743.59997558594</ele>
        <time>2022-09-10T14:46:25.000Z</time>
      </trkpt>
      <trkpt lat="43.90952" lon="7.61971">
        <ele>744.59997558594</ele>
        <time>2022-09-10T14:46:29.000Z</time>
      </trkpt>
      <trkpt lat="43.90951" lon="7.61972">
        <ele>745</ele>
        <time>2022-09-10T14:46:30.000Z</time>
      </trkpt>
      <trkpt lat="43.9095" lon="7.61972">
        <ele>745.40002441406</ele>
        <time>2022-09-10T14:46:31.000Z</time>
      </trkpt>
      <trkpt lat="43.90946" lon="7.61973">
        <ele>745.79998779297</ele>
        <time>2022-09-10T14:46:33.000Z</time>
      </trkpt>
      <trkpt lat="43.90945" lon="7.61973">
        <ele>746.20001220703</ele>
        <time>2022-09-10T14:46:34.000Z</time>
      </trkpt>
      <trkpt lat="43.90939" lon="7.61972">
        <ele>746.40002441406</ele>
        <time>2022-09-10T14:46:37.000Z</time>
      </trkpt>
      <trkpt lat="43.90932" lon="7.61974">
        <ele>747.20001220703</ele>
        <time>2022-09-10T14:46:40.000Z</time>
      </trkpt>
      <trkpt lat="43.9093" lon="7.61974">
        <ele>747.59997558594</ele>
        <time>2022-09-10T14:46:41.000Z</time>
      </trkpt>
      <trkpt lat="43.90927" lon="7.61974">
        <ele>747.79998779297</ele>
        <time>2022-09-10T14:46:42.000Z</time>
      </trkpt>
      <trkpt lat="43.90923" lon="7.61976">
        <ele>748.59997558594</ele>
        <time>2022-09-10T14:46:44.000Z</time>
      </trkpt>
      <trkpt lat="43.90918" lon="7.61979">
        <ele>749</ele>
        <time>2022-09-10T14:46:46.000Z</time>
      </trkpt>
      <trkpt lat="43.90913" lon="7.6198">
        <ele>749.40002441406</ele>
        <time>2022-09-10T14:46:48.000Z</time>
      </trkpt>
      <trkpt lat="43.90908" lon="7.61982">
        <ele>749.59997558594</ele>
        <time>2022-09-10T14:46:50.000Z</time>
      </trkpt>
      <trkpt lat="43.90904" lon="7.61984">
        <ele>750.20001220703</ele>
        <time>2022-09-10T14:46:52.000Z</time>
      </trkpt>
      <trkpt lat="43.90899" lon="7.61984">
        <ele>750.59997558594</ele>
        <time>2022-09-10T14:46:54.000Z</time>
      </trkpt>
      <trkpt lat="43.90891" lon="7.61985">
        <ele>751.59997558594</ele>
        <time>2022-09-10T14:46:57.000Z</time>
      </trkpt>
      <trkpt lat="43.90887" lon="7.61986">
        <ele>751.79998779297</ele>
        <time>2022-09-10T14:46:58.000Z</time>
      </trkpt>
      <trkpt lat="43.90874" lon="7.61987">
        <ele>751.79998779297</ele>
        <time>2022-09-10T14:47:02.000Z</time>
      </trkpt>
      <trkpt lat="43.90869" lon="7.61986">
        <ele>751.79998779297</ele>
        <time>2022-09-10T14:47:04.000Z</time>
      </trkpt>
      <trkpt lat="43.90865" lon="7.61987">
        <ele>751.79998779297</ele>
        <time>2022-09-10T14:47:06.000Z</time>
      </trkpt>
      <trkpt lat="43.90852" lon="7.61989">
        <ele>752.59997558594</ele>
        <time>2022-09-10T14:47:11.000Z</time>
      </trkpt>
      <trkpt lat="43.90842" lon="7.61991">
        <ele>752.79998779297</ele>
        <time>2022-09-10T14:47:14.000Z</time>
      </trkpt>
      <trkpt lat="43.90828" lon="7.61995">
        <ele>753.20001220703</ele>
        <time>2022-09-10T14:47:19.000Z</time>
      </trkpt>
      <trkpt lat="43.90814" lon="7.62005">
        <ele>753.79998779297</ele>
        <time>2022-09-10T14:47:24.000Z</time>
      </trkpt>
      <trkpt lat="43.90811" lon="7.62006">
        <ele>754</ele>
        <time>2022-09-10T14:47:25.000Z</time>
      </trkpt>
      <trkpt lat="43.90808" lon="7.6201">
        <ele>754.59997558594</ele>
        <time>2022-09-10T14:47:27.000Z</time>
      </trkpt>
      <trkpt lat="43.90807" lon="7.62013">
        <ele>755.40002441406</ele>
        <time>2022-09-10T14:47:28.000Z</time>
      </trkpt>
      <trkpt lat="43.90805" lon="7.62016">
        <ele>755.79998779297</ele>
        <time>2022-09-10T14:47:29.000Z</time>
      </trkpt>
      <trkpt lat="43.90803" lon="7.62018">
        <ele>756.40002441406</ele>
        <time>2022-09-10T14:47:30.000Z</time>
      </trkpt>
      <trkpt lat="43.90792" lon="7.62025">
        <ele>757.20001220703</ele>
        <time>2022-09-10T14:47:34.000Z</time>
      </trkpt>
      <trkpt lat="43.9079" lon="7.62027">
        <ele>757</ele>
        <time>2022-09-10T14:47:35.000Z</time>
      </trkpt>
      <trkpt lat="43.90782" lon="7.62032">
        <ele>756.79998779297</ele>
        <time>2022-09-10T14:47:38.000Z</time>
      </trkpt>
      <trkpt lat="43.90776" lon="7.62036">
        <ele>756.59997558594</ele>
        <time>2022-09-10T14:47:40.000Z</time>
      </trkpt>
      <trkpt lat="43.90762" lon="7.62041">
        <ele>756.20001220703</ele>
        <time>2022-09-10T14:47:44.000Z</time>
      </trkpt>
      <trkpt lat="43.90742" lon="7.62045">
        <ele>755.59997558594</ele>
        <time>2022-09-10T14:47:48.000Z</time>
      </trkpt>
      <trkpt lat="43.90737" lon="7.62047">
        <ele>755.40002441406</ele>
        <time>2022-09-10T14:47:49.000Z</time>
      </trkpt>
      <trkpt lat="43.90731" lon="7.62048">
        <ele>755.20001220703</ele>
        <time>2022-09-10T14:47:50.000Z</time>
      </trkpt>
      <trkpt lat="43.90713" lon="7.62052">
        <ele>753.59997558594</ele>
        <time>2022-09-10T14:47:53.000Z</time>
      </trkpt>
      <trkpt lat="43.90692" lon="7.62056">
        <ele>753</ele>
        <time>2022-09-10T14:47:57.000Z</time>
      </trkpt>
      <trkpt lat="43.90686" lon="7.62058">
        <ele>753</ele>
        <time>2022-09-10T14:47:58.000Z</time>
      </trkpt>
      <trkpt lat="43.90663" lon="7.6206">
        <ele>753.40002441406</ele>
        <time>2022-09-10T14:48:03.000Z</time>
      </trkpt>
      <trkpt lat="43.9065" lon="7.62055">
        <ele>754.79998779297</ele>
        <time>2022-09-10T14:48:07.000Z</time>
      </trkpt>
      <trkpt lat="43.90632" lon="7.62052">
        <ele>756</ele>
        <time>2022-09-10T14:48:13.000Z</time>
      </trkpt>
      <trkpt lat="43.90614" lon="7.62051">
        <ele>756.20001220703</ele>
        <time>2022-09-10T14:48:19.000Z</time>
      </trkpt>
      <trkpt lat="43.90599" lon="7.62051">
        <ele>755.59997558594</ele>
        <time>2022-09-10T14:48:23.000Z</time>
      </trkpt>
      <trkpt lat="43.90587" lon="7.62049">
        <ele>754.79998779297</ele>
        <time>2022-09-10T14:48:26.000Z</time>
      </trkpt>
      <trkpt lat="43.90579" lon="7.62047">
        <ele>754.20001220703</ele>
        <time>2022-09-10T14:48:28.000Z</time>
      </trkpt>
      <trkpt lat="43.90574" lon="7.62045">
        <ele>753.59997558594</ele>
        <time>2022-09-10T14:48:29.000Z</time>
      </trkpt>
      <trkpt lat="43.90566" lon="7.62041">
        <ele>753.40002441406</ele>
        <time>2022-09-10T14:48:31.000Z</time>
      </trkpt>
      <trkpt lat="43.90562" lon="7.62041">
        <ele>753.40002441406</ele>
        <time>2022-09-10T14:48:32.000Z</time>
      </trkpt>
      <trkpt lat="43.90558" lon="7.62039">
        <ele>753.40002441406</ele>
        <time>2022-09-10T14:48:33.000Z</time>
      </trkpt>
      <trkpt lat="43.90548" lon="7.62035">
        <ele>753.20001220703</ele>
        <time>2022-09-10T14:48:35.000Z</time>
      </trkpt>
      <trkpt lat="43.9054" lon="7.6203">
        <ele>752.79998779297</ele>
        <time>2022-09-10T14:48:37.000Z</time>
      </trkpt>
      <trkpt lat="43.90535" lon="7.62028">
        <ele>752.20001220703</ele>
        <time>2022-09-10T14:48:38.000Z</time>
      </trkpt>
      <trkpt lat="43.9053" lon="7.62026">
        <ele>751.79998779297</ele>
        <time>2022-09-10T14:48:39.000Z</time>
      </trkpt>
      <trkpt lat="43.9052" lon="7.62018">
        <ele>751.40002441406</ele>
        <time>2022-09-10T14:48:41.000Z</time>
      </trkpt>
      <trkpt lat="43.90515" lon="7.62016">
        <ele>751.20001220703</ele>
        <time>2022-09-10T14:48:42.000Z</time>
      </trkpt>
      <trkpt lat="43.90501" lon="7.62004">
        <ele>751</ele>
        <time>2022-09-10T14:48:45.000Z</time>
      </trkpt>
      <trkpt lat="43.90496" lon="7.61999">
        <ele>751</ele>
        <time>2022-09-10T14:48:46.000Z</time>
      </trkpt>
      <trkpt lat="43.90492" lon="7.61995">
        <ele>751</ele>
        <time>2022-09-10T14:48:47.000Z</time>
      </trkpt>
      <trkpt lat="43.90481" lon="7.6199">
        <ele>750.79998779297</ele>
        <time>2022-09-10T14:48:49.000Z</time>
      </trkpt>
      <trkpt lat="43.90471" lon="7.61986">
        <ele>750.59997558594</ele>
        <time>2022-09-10T14:48:51.000Z</time>
      </trkpt>
      <trkpt lat="43.90452" lon="7.61984">
        <ele>750.40002441406</ele>
        <time>2022-09-10T14:48:55.000Z</time>
      </trkpt>
      <trkpt lat="43.90433" lon="7.61985">
        <ele>752</ele>
        <time>2022-09-10T14:49:00.000Z</time>
      </trkpt>
      <trkpt lat="43.9042" lon="7.61986">
        <ele>753.40002441406</ele>
        <time>2022-09-10T14:49:04.000Z</time>
      </trkpt>
      <trkpt lat="43.90418" lon="7.61987">
        <ele>753.79998779297</ele>
        <time>2022-09-10T14:49:05.000Z</time>
      </trkpt>
      <trkpt lat="43.90413" lon="7.61988">
        <ele>754.79998779297</ele>
        <time>2022-09-10T14:49:07.000Z</time>
      </trkpt>
      <trkpt lat="43.90408" lon="7.61989">
        <ele>756</ele>
        <time>2022-09-10T14:49:09.000Z</time>
      </trkpt>
      <trkpt lat="43.90405" lon="7.6199">
        <ele>756.59997558594</ele>
        <time>2022-09-10T14:49:10.000Z</time>
      </trkpt>
      <trkpt lat="43.90402" lon="7.6199">
        <ele>757</ele>
        <time>2022-09-10T14:49:11.000Z</time>
      </trkpt>
      <trkpt lat="43.90386" lon="7.61992">
        <ele>758.20001220703</ele>
        <time>2022-09-10T14:49:16.000Z</time>
      </trkpt>
      <trkpt lat="43.90376" lon="7.61993">
        <ele>759.40002441406</ele>
        <time>2022-09-10T14:49:20.000Z</time>
      </trkpt>
      <trkpt lat="43.90374" lon="7.61993">
        <ele>759.79998779297</ele>
        <time>2022-09-10T14:49:21.000Z</time>
      </trkpt>
      <trkpt lat="43.9037" lon="7.61995">
        <ele>760.79998779297</ele>
        <time>2022-09-10T14:49:23.000Z</time>
      </trkpt>
      <trkpt lat="43.90365" lon="7.61998">
        <ele>762</ele>
        <time>2022-09-10T14:49:26.000Z</time>
      </trkpt>
      <trkpt lat="43.90361" lon="7.62001">
        <ele>763</ele>
        <time>2022-09-10T14:49:28.000Z</time>
      </trkpt>
      <trkpt lat="43.90359" lon="7.62004">
        <ele>763.20001220703</ele>
        <time>2022-09-10T14:49:29.000Z</time>
      </trkpt>
      <trkpt lat="43.90347" lon="7.62011">
        <ele>764.20001220703</ele>
        <time>2022-09-10T14:49:34.000Z</time>
      </trkpt>
      <trkpt lat="43.90336" lon="7.62015">
        <ele>765.20001220703</ele>
        <time>2022-09-10T14:49:38.000Z</time>
      </trkpt>
      <trkpt lat="43.90329" lon="7.6202">
        <ele>765.59997558594</ele>
        <time>2022-09-10T14:49:40.000Z</time>
      </trkpt>
      <trkpt lat="43.9031" lon="7.6204">
        <ele>765.59997558594</ele>
        <time>2022-09-10T14:49:47.000Z</time>
      </trkpt>
      <trkpt lat="43.90304" lon="7.62045">
        <ele>766.20001220703</ele>
        <time>2022-09-10T14:49:50.000Z</time>
      </trkpt>
      <trkpt lat="43.903" lon="7.62048">
        <ele>767.40002441406</ele>
        <time>2022-09-10T14:49:52.000Z</time>
      </trkpt>
      <trkpt lat="43.90298" lon="7.6205">
        <ele>767.79998779297</ele>
        <time>2022-09-10T14:49:53.000Z</time>
      </trkpt>
      <trkpt lat="43.90294" lon="7.62053">
        <ele>768.40002441406</ele>
        <time>2022-09-10T14:49:55.000Z</time>
      </trkpt>
      <trkpt lat="43.90286" lon="7.62058">
        <ele>769.20001220703</ele>
        <time>2022-09-10T14:49:59.000Z</time>
      </trkpt>
      <trkpt lat="43.90281" lon="7.6206">
        <ele>769.59997558594</ele>
        <time>2022-09-10T14:50:01.000Z</time>
      </trkpt>
      <trkpt lat="43.90272" lon="7.62069">
        <ele>770.40002441406</ele>
        <time>2022-09-10T14:50:05.000Z</time>
      </trkpt>
      <trkpt lat="43.90264" lon="7.62074">
        <ele>770.59997558594</ele>
        <time>2022-09-10T14:50:08.000Z</time>
      </trkpt>
      <trkpt lat="43.9026" lon="7.62076">
        <ele>771.20001220703</ele>
        <time>2022-09-10T14:50:10.000Z</time>
      </trkpt>
      <trkpt lat="43.90256" lon="7.62079">
        <ele>771.79998779297</ele>
        <time>2022-09-10T14:50:12.000Z</time>
      </trkpt>
      <trkpt lat="43.90251" lon="7.62085">
        <ele>772.59997558594</ele>
        <time>2022-09-10T14:50:15.000Z</time>
      </trkpt>
      <trkpt lat="43.90249" lon="7.62086">
        <ele>772.79998779297</ele>
        <time>2022-09-10T14:50:16.000Z</time>
      </trkpt>
      <trkpt lat="43.90242" lon="7.62092">
        <ele>774.20001220703</ele>
        <time>2022-09-10T14:50:20.000Z</time>
      </trkpt>
      <trkpt lat="43.90234" lon="7.62097">
        <ele>775.59997558594</ele>
        <time>2022-09-10T14:50:24.000Z</time>
      </trkpt>
      <trkpt lat="43.90232" lon="7.62098">
        <ele>775.79998779297</ele>
        <time>2022-09-10T14:50:25.000Z</time>
      </trkpt>
      <trkpt lat="43.90228" lon="7.62101">
        <ele>776.59997558594</ele>
        <time>2022-09-10T14:50:27.000Z</time>
      </trkpt>
      <trkpt lat="43.90224" lon="7.62102">
        <ele>777.20001220703</ele>
        <time>2022-09-10T14:50:29.000Z</time>
      </trkpt>
      <trkpt lat="43.90217" lon="7.62106">
        <ele>777.59997558594</ele>
        <time>2022-09-10T14:50:32.000Z</time>
      </trkpt>
      <trkpt lat="43.9021" lon="7.62111">
        <ele>778.79998779297</ele>
        <time>2022-09-10T14:50:35.000Z</time>
      </trkpt>
      <trkpt lat="43.90203" lon="7.62118">
        <ele>780</ele>
        <time>2022-09-10T14:50:39.000Z</time>
      </trkpt>
      <trkpt lat="43.90201" lon="7.62118">
        <ele>780.20001220703</ele>
        <time>2022-09-10T14:50:40.000Z</time>
      </trkpt>
      <trkpt lat="43.90196" lon="7.6212">
        <ele>781</ele>
        <time>2022-09-10T14:50:42.000Z</time>
      </trkpt>
      <trkpt lat="43.90191" lon="7.6212">
        <ele>782</ele>
        <time>2022-09-10T14:50:45.000Z</time>
      </trkpt>
      <trkpt lat="43.90189" lon="7.62121">
        <ele>782.40002441406</ele>
        <time>2022-09-10T14:50:46.000Z</time>
      </trkpt>
      <trkpt lat="43.90184" lon="7.62124">
        <ele>783.59997558594</ele>
        <time>2022-09-10T14:50:49.000Z</time>
      </trkpt>
      <trkpt lat="43.9018" lon="7.62129">
        <ele>784.59997558594</ele>
        <time>2022-09-10T14:50:52.000Z</time>
      </trkpt>
      <trkpt lat="43.90178" lon="7.62132">
        <ele>784.79998779297</ele>
        <time>2022-09-10T14:50:53.000Z</time>
      </trkpt>
      <trkpt lat="43.90171" lon="7.62138">
        <ele>785.79998779297</ele>
        <time>2022-09-10T14:50:57.000Z</time>
      </trkpt>
      <trkpt lat="43.90161" lon="7.62144">
        <ele>787</ele>
        <time>2022-09-10T14:51:03.000Z</time>
      </trkpt>
      <trkpt lat="43.90154" lon="7.62147">
        <ele>788.20001220703</ele>
        <time>2022-09-10T14:51:07.000Z</time>
      </trkpt>
      <trkpt lat="43.90151" lon="7.62149">
        <ele>789.20001220703</ele>
        <time>2022-09-10T14:51:09.000Z</time>
      </trkpt>
      <trkpt lat="43.90145" lon="7.6215">
        <ele>790.20001220703</ele>
        <time>2022-09-10T14:51:12.000Z</time>
      </trkpt>
      <trkpt lat="43.90139" lon="7.62152">
        <ele>791.20001220703</ele>
        <time>2022-09-10T14:51:15.000Z</time>
      </trkpt>
      <trkpt lat="43.90135" lon="7.62153">
        <ele>791.79998779297</ele>
        <time>2022-09-10T14:51:17.000Z</time>
      </trkpt>
      <trkpt lat="43.90131" lon="7.62154">
        <ele>792.40002441406</ele>
        <time>2022-09-10T14:51:19.000Z</time>
      </trkpt>
      <trkpt lat="43.90125" lon="7.62154">
        <ele>793.59997558594</ele>
        <time>2022-09-10T14:51:22.000Z</time>
      </trkpt>
      <trkpt lat="43.90122" lon="7.62154">
        <ele>794.59997558594</ele>
        <time>2022-09-10T14:51:24.000Z</time>
      </trkpt>
      <trkpt lat="43.9012" lon="7.62153">
        <ele>795</ele>
        <time>2022-09-10T14:51:25.000Z</time>
      </trkpt>
      <trkpt lat="43.90107" lon="7.62151">
        <ele>796</ele>
        <time>2022-09-10T14:51:30.000Z</time>
      </trkpt>
      <trkpt lat="43.90102" lon="7.62149">
        <ele>796.20001220703</ele>
        <time>2022-09-10T14:51:32.000Z</time>
      </trkpt>
      <trkpt lat="43.90085" lon="7.62139">
        <ele>797.20001220703</ele>
        <time>2022-09-10T14:51:38.000Z</time>
      </trkpt>
      <trkpt lat="43.90083" lon="7.62137">
        <ele>797.20001220703</ele>
        <time>2022-09-10T14:51:39.000Z</time>
      </trkpt>
      <trkpt lat="43.9006" lon="7.62125">
        <ele>797.20001220703</ele>
        <time>2022-09-10T14:51:46.000Z</time>
      </trkpt>
      <trkpt lat="43.90031" lon="7.62107">
        <ele>796.20001220703</ele>
        <time>2022-09-10T14:51:53.000Z</time>
      </trkpt>
      <trkpt lat="43.90027" lon="7.62105">
        <ele>796</ele>
        <time>2022-09-10T14:51:54.000Z</time>
      </trkpt>
      <trkpt lat="43.90018" lon="7.621">
        <ele>796</ele>
        <time>2022-09-10T14:51:56.000Z</time>
      </trkpt>
      <trkpt lat="43.90008" lon="7.6209">
        <ele>796.20001220703</ele>
        <time>2022-09-10T14:51:59.000Z</time>
      </trkpt>
      <trkpt lat="43.89994" lon="7.62087">
        <ele>797</ele>
        <time>2022-09-10T14:52:03.000Z</time>
      </trkpt>
      <trkpt lat="43.8999" lon="7.62087">
        <ele>797.20001220703</ele>
        <time>2022-09-10T14:52:04.000Z</time>
      </trkpt>
      <trkpt lat="43.89982" lon="7.62088">
        <ele>798.40002441406</ele>
        <time>2022-09-10T14:52:07.000Z</time>
      </trkpt>
      <trkpt lat="43.89979" lon="7.62089">
        <ele>799</ele>
        <time>2022-09-10T14:52:08.000Z</time>
      </trkpt>
      <trkpt lat="43.89976" lon="7.6209">
        <ele>799.40002441406</ele>
        <time>2022-09-10T14:52:09.000Z</time>
      </trkpt>
      <trkpt lat="43.89973" lon="7.62091">
        <ele>799.79998779297</ele>
        <time>2022-09-10T14:52:10.000Z</time>
      </trkpt>
      <trkpt lat="43.89962" lon="7.62094">
        <ele>800.79998779297</ele>
        <time>2022-09-10T14:52:14.000Z</time>
      </trkpt>
      <trkpt lat="43.89959" lon="7.62095">
        <ele>801</ele>
        <time>2022-09-10T14:52:15.000Z</time>
      </trkpt>
      <trkpt lat="43.89949" lon="7.62097">
        <ele>802</ele>
        <time>2022-09-10T14:52:18.000Z</time>
      </trkpt>
      <trkpt lat="43.89935" lon="7.62098">
        <ele>803</ele>
        <time>2022-09-10T14:52:22.000Z</time>
      </trkpt>
      <trkpt lat="43.89928" lon="7.62096">
        <ele>803.20001220703</ele>
        <time>2022-09-10T14:52:24.000Z</time>
      </trkpt>
      <trkpt lat="43.89912" lon="7.62095">
        <ele>803.59997558594</ele>
        <time>2022-09-10T14:52:28.000Z</time>
      </trkpt>
      <trkpt lat="43.89908" lon="7.62094">
        <ele>803.59997558594</ele>
        <time>2022-09-10T14:52:29.000Z</time>
      </trkpt>
      <trkpt lat="43.89894" lon="7.62091">
        <ele>803.40002441406</ele>
        <time>2022-09-10T14:52:32.000Z</time>
      </trkpt>
      <trkpt lat="43.89884" lon="7.6209">
        <ele>802.79998779297</ele>
        <time>2022-09-10T14:52:34.000Z</time>
      </trkpt>
      <trkpt lat="43.8986" lon="7.6209">
        <ele>802.20001220703</ele>
        <time>2022-09-10T14:52:39.000Z</time>
      </trkpt>
      <trkpt lat="43.89854" lon="7.6209">
        <ele>802.20001220703</ele>
        <time>2022-09-10T14:52:40.000Z</time>
      </trkpt>
      <trkpt lat="43.89838" lon="7.62087">
        <ele>801.79998779297</ele>
        <time>2022-09-10T14:52:43.000Z</time>
      </trkpt>
      <trkpt lat="43.89827" lon="7.62088">
        <ele>801.59997558594</ele>
        <time>2022-09-10T14:52:45.000Z</time>
      </trkpt>
      <trkpt lat="43.89816" lon="7.62088">
        <ele>801.79998779297</ele>
        <time>2022-09-10T14:52:48.000Z</time>
      </trkpt>
      <trkpt lat="43.89815" lon="7.62087">
        <ele>802.79998779297</ele>
        <time>2022-09-10T14:52:52.000Z</time>
      </trkpt>
      <trkpt lat="43.89815" lon="7.62088">
        <ele>803.20001220703</ele>
        <time>2022-09-10T14:52:54.000Z</time>
      </trkpt>
      <trkpt lat="43.89816" lon="7.62088">
        <ele>803.20001220703</ele>
        <time>2022-09-10T14:53:00.000Z</time>
      </trkpt>
      <trkpt lat="43.89816" lon="7.62089">
        <ele>803.20001220703</ele>
        <time>2022-09-10T14:53:01.000Z</time>
      </trkpt>
      <trkpt lat="43.89817" lon="7.62091">
        <ele>802.79998779297</ele>
        <time>2022-09-10T14:53:05.000Z</time>
      </trkpt>
      <trkpt lat="43.89818" lon="7.62092">
        <ele>803</ele>
        <time>2022-09-10T14:53:14.000Z</time>
      </trkpt>
      <trkpt lat="43.89817" lon="7.62094">
        <ele>803</ele>
        <time>2022-09-10T14:53:28.000Z</time>
      </trkpt>
      <trkpt lat="43.89818" lon="7.62095">
        <ele>803.20001220703</ele>
        <time>2022-09-10T14:53:40.000Z</time>
      </trkpt>
      <trkpt lat="43.89818" lon="7.62094">
        <ele>803.40002441406</ele>
        <time>2022-09-10T14:53:46.000Z</time>
      </trkpt>
      <trkpt lat="43.89816" lon="7.62094">
        <ele>803.40002441406</ele>
        <time>2022-09-10T14:53:48.000Z</time>
      </trkpt>
      <trkpt lat="43.89814" lon="7.62091">
        <ele>803.40002441406</ele>
        <time>2022-09-10T14:53:53.000Z</time>
      </trkpt>
      <trkpt lat="43.89806" lon="7.62086">
        <ele>803.59997558594</ele>
        <time>2022-09-10T14:53:56.000Z</time>
      </trkpt>
      <trkpt lat="43.89803" lon="7.62083">
        <ele>803.79998779297</ele>
        <time>2022-09-10T14:53:57.000Z</time>
      </trkpt>
      <trkpt lat="43.89793" lon="7.62073">
        <ele>804.20001220703</ele>
        <time>2022-09-10T14:54:00.000Z</time>
      </trkpt>
      <trkpt lat="43.89786" lon="7.62067">
        <ele>804.79998779297</ele>
        <time>2022-09-10T14:54:02.000Z</time>
      </trkpt>
      <trkpt lat="43.89779" lon="7.62059">
        <ele>805.59997558594</ele>
        <time>2022-09-10T14:54:04.000Z</time>
      </trkpt>
      <trkpt lat="43.89775" lon="7.62055">
        <ele>805.79998779297</ele>
        <time>2022-09-10T14:54:05.000Z</time>
      </trkpt>
      <trkpt lat="43.89771" lon="7.62052">
        <ele>805.79998779297</ele>
        <time>2022-09-10T14:54:06.000Z</time>
      </trkpt>
      <trkpt lat="43.89749" lon="7.62042">
        <ele>806.20001220703</ele>
        <time>2022-09-10T14:54:11.000Z</time>
      </trkpt>
      <trkpt lat="43.89744" lon="7.62041">
        <ele>806.59997558594</ele>
        <time>2022-09-10T14:54:12.000Z</time>
      </trkpt>
      <trkpt lat="43.89737" lon="7.62041">
        <ele>806.79998779297</ele>
        <time>2022-09-10T14:54:13.000Z</time>
      </trkpt>
      <trkpt lat="43.89727" lon="7.62038">
        <ele>807</ele>
        <time>2022-09-10T14:54:15.000Z</time>
      </trkpt>
      <trkpt lat="43.89723" lon="7.62035">
        <ele>806.79998779297</ele>
        <time>2022-09-10T14:54:16.000Z</time>
      </trkpt>
      <trkpt lat="43.89706" lon="7.62014">
        <ele>805.79998779297</ele>
        <time>2022-09-10T14:54:20.000Z</time>
      </trkpt>
      <trkpt lat="43.89703" lon="7.62008">
        <ele>805.59997558594</ele>
        <time>2022-09-10T14:54:21.000Z</time>
      </trkpt>
      <trkpt lat="43.89697" lon="7.61996">
        <ele>804.59997558594</ele>
        <time>2022-09-10T14:54:23.000Z</time>
      </trkpt>
      <trkpt lat="43.89694" lon="7.61989">
        <ele>804</ele>
        <time>2022-09-10T14:54:24.000Z</time>
      </trkpt>
      <trkpt lat="43.89691" lon="7.61983">
        <ele>803.59997558594</ele>
        <time>2022-09-10T14:54:25.000Z</time>
      </trkpt>
      <trkpt lat="43.89684" lon="7.61966">
        <ele>802.40002441406</ele>
        <time>2022-09-10T14:54:28.000Z</time>
      </trkpt>
      <trkpt lat="43.89682" lon="7.61959">
        <ele>802.20001220703</ele>
        <time>2022-09-10T14:54:29.000Z</time>
      </trkpt>
      <trkpt lat="43.89676" lon="7.61949">
        <ele>801.59997558594</ele>
        <time>2022-09-10T14:54:31.000Z</time>
      </trkpt>
      <trkpt lat="43.89674" lon="7.61944">
        <ele>801.20001220703</ele>
        <time>2022-09-10T14:54:32.000Z</time>
      </trkpt>
      <trkpt lat="43.89666" lon="7.61933">
        <ele>800.59997558594</ele>
        <time>2022-09-10T14:54:34.000Z</time>
      </trkpt>
      <trkpt lat="43.89662" lon="7.61927">
        <ele>799.79998779297</ele>
        <time>2022-09-10T14:54:35.000Z</time>
      </trkpt>
      <trkpt lat="43.89658" lon="7.61915">
        <ele>798.40002441406</ele>
        <time>2022-09-10T14:54:37.000Z</time>
      </trkpt>
      <trkpt lat="43.89657" lon="7.61908">
        <ele>797.40002441406</ele>
        <time>2022-09-10T14:54:38.000Z</time>
      </trkpt>
      <trkpt lat="43.89656" lon="7.61901">
        <ele>796.40002441406</ele>
        <time>2022-09-10T14:54:39.000Z</time>
      </trkpt>
      <trkpt lat="43.89655" lon="7.61893">
        <ele>795.20001220703</ele>
        <time>2022-09-10T14:54:40.000Z</time>
      </trkpt>
      <trkpt lat="43.89654" lon="7.61888">
        <ele>794.20001220703</ele>
        <time>2022-09-10T14:54:41.000Z</time>
      </trkpt>
      <trkpt lat="43.89652" lon="7.61885">
        <ele>792</ele>
        <time>2022-09-10T14:54:42.000Z</time>
      </trkpt>
      <trkpt lat="43.89647" lon="7.61882">
        <ele>790.59997558594</ele>
        <time>2022-09-10T14:54:43.000Z</time>
      </trkpt>
      <trkpt lat="43.89642" lon="7.61878">
        <ele>789.59997558594</ele>
        <time>2022-09-10T14:54:44.000Z</time>
      </trkpt>
      <trkpt lat="43.89637" lon="7.61874">
        <ele>788.20001220703</ele>
        <time>2022-09-10T14:54:45.000Z</time>
      </trkpt>
      <trkpt lat="43.89633" lon="7.61867">
        <ele>787.20001220703</ele>
        <time>2022-09-10T14:54:46.000Z</time>
      </trkpt>
      <trkpt lat="43.89631" lon="7.6186">
        <ele>786.79998779297</ele>
        <time>2022-09-10T14:54:47.000Z</time>
      </trkpt>
      <trkpt lat="43.89628" lon="7.61852">
        <ele>785.79998779297</ele>
        <time>2022-09-10T14:54:48.000Z</time>
      </trkpt>
      <trkpt lat="43.89626" lon="7.61844">
        <ele>784.59997558594</ele>
        <time>2022-09-10T14:54:49.000Z</time>
      </trkpt>
      <trkpt lat="43.89625" lon="7.61831">
        <ele>783</ele>
        <time>2022-09-10T14:54:51.000Z</time>
      </trkpt>
      <trkpt lat="43.89621" lon="7.61817">
        <ele>781.79998779297</ele>
        <time>2022-09-10T14:54:53.000Z</time>
      </trkpt>
      <trkpt lat="43.89617" lon="7.61803">
        <ele>779.79998779297</ele>
        <time>2022-09-10T14:54:55.000Z</time>
      </trkpt>
      <trkpt lat="43.89616" lon="7.61792">
        <ele>777.59997558594</ele>
        <time>2022-09-10T14:54:57.000Z</time>
      </trkpt>
      <trkpt lat="43.89612" lon="7.6179">
        <ele>776.59997558594</ele>
        <time>2022-09-10T14:54:58.000Z</time>
      </trkpt>
      <trkpt lat="43.89609" lon="7.61791">
        <ele>776.40002441406</ele>
        <time>2022-09-10T14:54:59.000Z</time>
      </trkpt>
      <trkpt lat="43.89604" lon="7.61793">
        <ele>775.59997558594</ele>
        <time>2022-09-10T14:55:00.000Z</time>
      </trkpt>
      <trkpt lat="43.89599" lon="7.61794">
        <ele>775</ele>
        <time>2022-09-10T14:55:01.000Z</time>
      </trkpt>
      <trkpt lat="43.89586" lon="7.61782">
        <ele>773.59997558594</ele>
        <time>2022-09-10T14:55:04.000Z</time>
      </trkpt>
      <trkpt lat="43.89581" lon="7.61776">
        <ele>773.20001220703</ele>
        <time>2022-09-10T14:55:05.000Z</time>
      </trkpt>
      <trkpt lat="43.89573" lon="7.61765">
        <ele>772.40002441406</ele>
        <time>2022-09-10T14:55:07.000Z</time>
      </trkpt>
      <trkpt lat="43.89564" lon="7.61754">
        <ele>771.40002441406</ele>
        <time>2022-09-10T14:55:09.000Z</time>
      </trkpt>
      <trkpt lat="43.89561" lon="7.61748">
        <ele>771</ele>
        <time>2022-09-10T14:55:10.000Z</time>
      </trkpt>
      <trkpt lat="43.89556" lon="7.61741">
        <ele>770.20001220703</ele>
        <time>2022-09-10T14:55:12.000Z</time>
      </trkpt>
      <trkpt lat="43.89551" lon="7.61739">
        <ele>770</ele>
        <time>2022-09-10T14:55:13.000Z</time>
      </trkpt>
      <trkpt lat="43.89544" lon="7.6173">
        <ele>768.79998779297</ele>
        <time>2022-09-10T14:55:15.000Z</time>
      </trkpt>
      <trkpt lat="43.89532" lon="7.61713">
        <ele>767.40002441406</ele>
        <time>2022-09-10T14:55:18.000Z</time>
      </trkpt>
      <trkpt lat="43.8953" lon="7.61709">
        <ele>766.59997558594</ele>
        <time>2022-09-10T14:55:19.000Z</time>
      </trkpt>
      <trkpt lat="43.89527" lon="7.61704">
        <ele>766.20001220703</ele>
        <time>2022-09-10T14:55:20.000Z</time>
      </trkpt>
      <trkpt lat="43.8952" lon="7.61694">
        <ele>765</ele>
        <time>2022-09-10T14:55:22.000Z</time>
      </trkpt>
      <trkpt lat="43.89515" lon="7.61689">
        <ele>764</ele>
        <time>2022-09-10T14:55:23.000Z</time>
      </trkpt>
      <trkpt lat="43.89508" lon="7.61681">
        <ele>762.20001220703</ele>
        <time>2022-09-10T14:55:25.000Z</time>
      </trkpt>
      <trkpt lat="43.89505" lon="7.61678">
        <ele>761.20001220703</ele>
        <time>2022-09-10T14:55:26.000Z</time>
      </trkpt>
      <trkpt lat="43.89502" lon="7.61675">
        <ele>760.79998779297</ele>
        <time>2022-09-10T14:55:27.000Z</time>
      </trkpt>
      <trkpt lat="43.89499" lon="7.61679">
        <ele>760</ele>
        <time>2022-09-10T14:55:28.000Z</time>
      </trkpt>
      <trkpt lat="43.89495" lon="7.61682">
        <ele>759.20001220703</ele>
        <time>2022-09-10T14:55:29.000Z</time>
      </trkpt>
      <trkpt lat="43.89488" lon="7.617">
        <ele>757.40002441406</ele>
        <time>2022-09-10T14:55:32.000Z</time>
      </trkpt>
      <trkpt lat="43.89489" lon="7.61713">
        <ele>755.59997558594</ele>
        <time>2022-09-10T14:55:34.000Z</time>
      </trkpt>
      <trkpt lat="43.8949" lon="7.61719">
        <ele>754.79998779297</ele>
        <time>2022-09-10T14:55:35.000Z</time>
      </trkpt>
      <trkpt lat="43.89493" lon="7.61725">
        <ele>753.59997558594</ele>
        <time>2022-09-10T14:55:36.000Z</time>
      </trkpt>
      <trkpt lat="43.89499" lon="7.61738">
        <ele>752.79998779297</ele>
        <time>2022-09-10T14:55:38.000Z</time>
      </trkpt>
      <trkpt lat="43.89501" lon="7.61745">
        <ele>752.59997558594</ele>
        <time>2022-09-10T14:55:39.000Z</time>
      </trkpt>
      <trkpt lat="43.89504" lon="7.61751">
        <ele>752.20001220703</ele>
        <time>2022-09-10T14:55:40.000Z</time>
      </trkpt>
      <trkpt lat="43.89503" lon="7.61768">
        <ele>752.59997558594</ele>
        <time>2022-09-10T14:55:43.000Z</time>
      </trkpt>
      <trkpt lat="43.895" lon="7.6178">
        <ele>753</ele>
        <time>2022-09-10T14:55:45.000Z</time>
      </trkpt>
      <trkpt lat="43.89497" lon="7.61795">
        <ele>752.59997558594</ele>
        <time>2022-09-10T14:55:47.000Z</time>
      </trkpt>
      <trkpt lat="43.89496" lon="7.61803">
        <ele>752</ele>
        <time>2022-09-10T14:55:48.000Z</time>
      </trkpt>
      <trkpt lat="43.89496" lon="7.61812">
        <ele>751</ele>
        <time>2022-09-10T14:55:49.000Z</time>
      </trkpt>
      <trkpt lat="43.89494" lon="7.61819">
        <ele>749.59997558594</ele>
        <time>2022-09-10T14:55:50.000Z</time>
      </trkpt>
      <trkpt lat="43.89491" lon="7.61825">
        <ele>748.40002441406</ele>
        <time>2022-09-10T14:55:51.000Z</time>
      </trkpt>
      <trkpt lat="43.89488" lon="7.6183">
        <ele>746.40002441406</ele>
        <time>2022-09-10T14:55:52.000Z</time>
      </trkpt>
      <trkpt lat="43.89485" lon="7.61837">
        <ele>744.79998779297</ele>
        <time>2022-09-10T14:55:53.000Z</time>
      </trkpt>
      <trkpt lat="43.89482" lon="7.61843">
        <ele>743.59997558594</ele>
        <time>2022-09-10T14:55:54.000Z</time>
      </trkpt>
      <trkpt lat="43.8948" lon="7.6185">
        <ele>743</ele>
        <time>2022-09-10T14:55:55.000Z</time>
      </trkpt>
      <trkpt lat="43.89478" lon="7.61857">
        <ele>742</ele>
        <time>2022-09-10T14:55:56.000Z</time>
      </trkpt>
      <trkpt lat="43.89472" lon="7.61869">
        <ele>742</ele>
        <time>2022-09-10T14:55:58.000Z</time>
      </trkpt>
      <trkpt lat="43.89463" lon="7.61886">
        <ele>741.20001220703</ele>
        <time>2022-09-10T14:56:01.000Z</time>
      </trkpt>
      <trkpt lat="43.89461" lon="7.61892">
        <ele>740.79998779297</ele>
        <time>2022-09-10T14:56:02.000Z</time>
      </trkpt>
      <trkpt lat="43.89455" lon="7.61903">
        <ele>739</ele>
        <time>2022-09-10T14:56:04.000Z</time>
      </trkpt>
      <trkpt lat="43.89452" lon="7.61907">
        <ele>737.79998779297</ele>
        <time>2022-09-10T14:56:05.000Z</time>
      </trkpt>
      <trkpt lat="43.8945" lon="7.61911">
        <ele>737.20001220703</ele>
        <time>2022-09-10T14:56:06.000Z</time>
      </trkpt>
      <trkpt lat="43.89449" lon="7.61916">
        <ele>736.79998779297</ele>
        <time>2022-09-10T14:56:07.000Z</time>
      </trkpt>
      <trkpt lat="43.89449" lon="7.61928">
        <ele>736.79998779297</ele>
        <time>2022-09-10T14:56:09.000Z</time>
      </trkpt>
      <trkpt lat="43.89449" lon="7.61944">
        <ele>736.79998779297</ele>
        <time>2022-09-10T14:56:11.000Z</time>
      </trkpt>
      <trkpt lat="43.8945" lon="7.61951">
        <ele>736.59997558594</ele>
        <time>2022-09-10T14:56:12.000Z</time>
      </trkpt>
      <trkpt lat="43.89455" lon="7.61968">
        <ele>735.79998779297</ele>
        <time>2022-09-10T14:56:15.000Z</time>
      </trkpt>
      <trkpt lat="43.89469" lon="7.61982">
        <ele>734.20001220703</ele>
        <time>2022-09-10T14:56:19.000Z</time>
      </trkpt>
      <trkpt lat="43.89473" lon="7.61985">
        <ele>733.40002441406</ele>
        <time>2022-09-10T14:56:20.000Z</time>
      </trkpt>
      <trkpt lat="43.89478" lon="7.61987">
        <ele>732.79998779297</ele>
        <time>2022-09-10T14:56:21.000Z</time>
      </trkpt>
      <trkpt lat="43.89483" lon="7.61988">
        <ele>732.20001220703</ele>
        <time>2022-09-10T14:56:22.000Z</time>
      </trkpt>
      <trkpt lat="43.89488" lon="7.61991">
        <ele>731.59997558594</ele>
        <time>2022-09-10T14:56:23.000Z</time>
      </trkpt>
      <trkpt lat="43.89496" lon="7.62001">
        <ele>730.20001220703</ele>
        <time>2022-09-10T14:56:25.000Z</time>
      </trkpt>
      <trkpt lat="43.89498" lon="7.62012">
        <ele>728.79998779297</ele>
        <time>2022-09-10T14:56:27.000Z</time>
      </trkpt>
      <trkpt lat="43.89493" lon="7.62018">
        <ele>727.40002441406</ele>
        <time>2022-09-10T14:56:29.000Z</time>
      </trkpt>
      <trkpt lat="43.8949" lon="7.6202">
        <ele>726.79998779297</ele>
        <time>2022-09-10T14:56:30.000Z</time>
      </trkpt>
      <trkpt lat="43.89487" lon="7.62021">
        <ele>726.40002441406</ele>
        <time>2022-09-10T14:56:31.000Z</time>
      </trkpt>
      <trkpt lat="43.89485" lon="7.62022">
        <ele>725.79998779297</ele>
        <time>2022-09-10T14:56:32.000Z</time>
      </trkpt>
      <trkpt lat="43.89485" lon="7.62022">
        <ele>725.40002441406</ele>
        <time>2022-09-10T14:56:33.000Z</time>
      </trkpt>
      <trkpt lat="43.89484" lon="7.62022">
        <ele>725</ele>
        <time>2022-09-10T14:56:34.000Z</time>
      </trkpt>
      <trkpt lat="43.8948" lon="7.62025">
        <ele>724.59997558594</ele>
        <time>2022-09-10T14:56:42.000Z</time>
      </trkpt>
      <trkpt lat="43.8947" lon="7.62035">
        <ele>724.40002441406</ele>
        <time>2022-09-10T14:56:46.000Z</time>
      </trkpt>
      <trkpt lat="43.89464" lon="7.62042">
        <ele>723.59997558594</ele>
        <time>2022-09-10T14:56:48.000Z</time>
      </trkpt>
      <trkpt lat="43.89457" lon="7.62052">
        <ele>723</ele>
        <time>2022-09-10T14:56:51.000Z</time>
      </trkpt>
      <trkpt lat="43.89452" lon="7.62067">
        <ele>722.40002441406</ele>
        <time>2022-09-10T14:56:54.000Z</time>
      </trkpt>
      <trkpt lat="43.89449" lon="7.62072">
        <ele>722</ele>
        <time>2022-09-10T14:56:55.000Z</time>
      </trkpt>
      <trkpt lat="43.89446" lon="7.62077">
        <ele>721.59997558594</ele>
        <time>2022-09-10T14:56:56.000Z</time>
      </trkpt>
      <trkpt lat="43.89443" lon="7.62078">
        <ele>721.40002441406</ele>
        <time>2022-09-10T14:56:57.000Z</time>
      </trkpt>
      <trkpt lat="43.89439" lon="7.62079">
        <ele>720.79998779297</ele>
        <time>2022-09-10T14:56:58.000Z</time>
      </trkpt>
      <trkpt lat="43.89424" lon="7.62083">
        <ele>721.20001220703</ele>
        <time>2022-09-10T14:57:01.000Z</time>
      </trkpt>
      <trkpt lat="43.8942" lon="7.62085">
        <ele>721.40002441406</ele>
        <time>2022-09-10T14:57:02.000Z</time>
      </trkpt>
      <trkpt lat="43.89404" lon="7.62099">
        <ele>721.79998779297</ele>
        <time>2022-09-10T14:57:06.000Z</time>
      </trkpt>
      <trkpt lat="43.89393" lon="7.62101">
        <ele>722.59997558594</ele>
        <time>2022-09-10T14:57:09.000Z</time>
      </trkpt>
      <trkpt lat="43.89375" lon="7.62105">
        <ele>722.20001220703</ele>
        <time>2022-09-10T14:57:13.000Z</time>
      </trkpt>
      <trkpt lat="43.89365" lon="7.62108">
        <ele>720.40002441406</ele>
        <time>2022-09-10T14:57:15.000Z</time>
      </trkpt>
      <trkpt lat="43.89362" lon="7.62111">
        <ele>720.20001220703</ele>
        <time>2022-09-10T14:57:16.000Z</time>
      </trkpt>
      <trkpt lat="43.8936" lon="7.62113">
        <ele>719.40002441406</ele>
        <time>2022-09-10T14:57:17.000Z</time>
      </trkpt>
      <trkpt lat="43.8936" lon="7.62113">
        <ele>719</ele>
        <time>2022-09-10T14:57:18.000Z</time>
      </trkpt>
      <trkpt lat="43.8936" lon="7.62114">
        <ele>718.20001220703</ele>
        <time>2022-09-10T14:57:19.000Z</time>
      </trkpt>
      <trkpt lat="43.89358" lon="7.62116">
        <ele>718.79998779297</ele>
        <time>2022-09-10T14:57:40.000Z</time>
      </trkpt>
      <trkpt lat="43.89353" lon="7.62123">
        <ele>718.79998779297</ele>
        <time>2022-09-10T14:57:45.000Z</time>
      </trkpt>
      <trkpt lat="43.89343" lon="7.62139">
        <ele>720</ele>
        <time>2022-09-10T14:57:50.000Z</time>
      </trkpt>
      <trkpt lat="43.89341" lon="7.62142">
        <ele>720.20001220703</ele>
        <time>2022-09-10T14:57:51.000Z</time>
      </trkpt>
      <trkpt lat="43.89333" lon="7.62149">
        <ele>721.40002441406</ele>
        <time>2022-09-10T14:57:54.000Z</time>
      </trkpt>
      <trkpt lat="43.89331" lon="7.6215">
        <ele>721.79998779297</ele>
        <time>2022-09-10T14:57:55.000Z</time>
      </trkpt>
      <trkpt lat="43.89326" lon="7.62153">
        <ele>722.40002441406</ele>
        <time>2022-09-10T14:57:57.000Z</time>
      </trkpt>
      <trkpt lat="43.89318" lon="7.62158">
        <ele>723.79998779297</ele>
        <time>2022-09-10T14:58:00.000Z</time>
      </trkpt>
      <trkpt lat="43.89308" lon="7.62164">
        <ele>724.79998779297</ele>
        <time>2022-09-10T14:58:04.000Z</time>
      </trkpt>
      <trkpt lat="43.893" lon="7.62168">
        <ele>725.40002441406</ele>
        <time>2022-09-10T14:58:07.000Z</time>
      </trkpt>
      <trkpt lat="43.89296" lon="7.62171">
        <ele>725.79998779297</ele>
        <time>2022-09-10T14:58:09.000Z</time>
      </trkpt>
      <trkpt lat="43.89288" lon="7.62179">
        <ele>727.20001220703</ele>
        <time>2022-09-10T14:58:13.000Z</time>
      </trkpt>
      <trkpt lat="43.89281" lon="7.62187">
        <ele>728.20001220703</ele>
        <time>2022-09-10T14:58:16.000Z</time>
      </trkpt>
      <trkpt lat="43.89277" lon="7.62192">
        <ele>728.79998779297</ele>
        <time>2022-09-10T14:58:18.000Z</time>
      </trkpt>
      <trkpt lat="43.89271" lon="7.62198">
        <ele>729.40002441406</ele>
        <time>2022-09-10T14:58:21.000Z</time>
      </trkpt>
      <trkpt lat="43.89261" lon="7.62204">
        <ele>730.20001220703</ele>
        <time>2022-09-10T14:58:25.000Z</time>
      </trkpt>
      <trkpt lat="43.89253" lon="7.62205">
        <ele>730.40002441406</ele>
        <time>2022-09-10T14:58:28.000Z</time>
      </trkpt>
      <trkpt lat="43.89242" lon="7.62209">
        <ele>730.59997558594</ele>
        <time>2022-09-10T14:58:32.000Z</time>
      </trkpt>
      <trkpt lat="43.89228" lon="7.62215">
        <ele>731.20001220703</ele>
        <time>2022-09-10T14:58:38.000Z</time>
      </trkpt>
      <trkpt lat="43.89225" lon="7.62215">
        <ele>731.40002441406</ele>
        <time>2022-09-10T14:58:42.000Z</time>
      </trkpt>
      <trkpt lat="43.89225" lon="7.62215">
        <ele>731.40002441406</ele>
        <time>2022-09-10T14:58:43.000Z</time>
      </trkpt>
      <trkpt lat="43.89222" lon="7.62216">
        <ele>731.40002441406</ele>
        <time>2022-09-10T14:58:58.000Z</time>
      </trkpt>
      <trkpt lat="43.89212" lon="7.6221">
        <ele>731</ele>
        <time>2022-09-10T14:59:02.000Z</time>
      </trkpt>
      <trkpt lat="43.89204" lon="7.62206">
        <ele>730</ele>
        <time>2022-09-10T14:59:04.000Z</time>
      </trkpt>
      <trkpt lat="43.89199" lon="7.62202">
        <ele>729</ele>
        <time>2022-09-10T14:59:06.000Z</time>
      </trkpt>
      <trkpt lat="43.89197" lon="7.622">
        <ele>728.59997558594</ele>
        <time>2022-09-10T14:59:07.000Z</time>
      </trkpt>
      <trkpt lat="43.89187" lon="7.62191">
        <ele>728.79998779297</ele>
        <time>2022-09-10T14:59:12.000Z</time>
      </trkpt>
      <trkpt lat="43.89177" lon="7.62188">
        <ele>730.20001220703</ele>
        <time>2022-09-10T14:59:16.000Z</time>
      </trkpt>
      <trkpt lat="43.89173" lon="7.62188">
        <ele>731.40002441406</ele>
        <time>2022-09-10T14:59:18.000Z</time>
      </trkpt>
      <trkpt lat="43.89168" lon="7.62189">
        <ele>732.59997558594</ele>
        <time>2022-09-10T14:59:20.000Z</time>
      </trkpt>
      <trkpt lat="43.89166" lon="7.62189">
        <ele>732.79998779297</ele>
        <time>2022-09-10T14:59:21.000Z</time>
      </trkpt>
      <trkpt lat="43.89163" lon="7.62186">
        <ele>733.59997558594</ele>
        <time>2022-09-10T14:59:23.000Z</time>
      </trkpt>
      <trkpt lat="43.89161" lon="7.62181">
        <ele>734</ele>
        <time>2022-09-10T14:59:25.000Z</time>
      </trkpt>
      <trkpt lat="43.89158" lon="7.62176">
        <ele>734.20001220703</ele>
        <time>2022-09-10T14:59:27.000Z</time>
      </trkpt>
      <trkpt lat="43.89156" lon="7.6217">
        <ele>734.20001220703</ele>
        <time>2022-09-10T14:59:28.000Z</time>
      </trkpt>
      <trkpt lat="43.89154" lon="7.62163">
        <ele>734</ele>
        <time>2022-09-10T14:59:29.000Z</time>
      </trkpt>
      <trkpt lat="43.89145" lon="7.62136">
        <ele>731.59997558594</ele>
        <time>2022-09-10T14:59:33.000Z</time>
      </trkpt>
      <trkpt lat="43.8914" lon="7.62132">
        <ele>730.59997558594</ele>
        <time>2022-09-10T14:59:34.000Z</time>
      </trkpt>
      <trkpt lat="43.89135" lon="7.6213">
        <ele>729.20001220703</ele>
        <time>2022-09-10T14:59:35.000Z</time>
      </trkpt>
      <trkpt lat="43.89131" lon="7.62128">
        <ele>727.79998779297</ele>
        <time>2022-09-10T14:59:36.000Z</time>
      </trkpt>
      <trkpt lat="43.89128" lon="7.62124">
        <ele>726.79998779297</ele>
        <time>2022-09-10T14:59:37.000Z</time>
      </trkpt>
      <trkpt lat="43.89125" lon="7.62118">
        <ele>726</ele>
        <time>2022-09-10T14:59:38.000Z</time>
      </trkpt>
      <trkpt lat="43.89121" lon="7.62114">
        <ele>725.59997558594</ele>
        <time>2022-09-10T14:59:39.000Z</time>
      </trkpt>
      <trkpt lat="43.89113" lon="7.6211">
        <ele>724.59997558594</ele>
        <time>2022-09-10T14:59:41.000Z</time>
      </trkpt>
      <trkpt lat="43.89108" lon="7.62109">
        <ele>724.59997558594</ele>
        <time>2022-09-10T14:59:42.000Z</time>
      </trkpt>
      <trkpt lat="43.89094" lon="7.6211">
        <ele>724</ele>
        <time>2022-09-10T14:59:45.000Z</time>
      </trkpt>
      <trkpt lat="43.8909" lon="7.62109">
        <ele>724.40002441406</ele>
        <time>2022-09-10T14:59:46.000Z</time>
      </trkpt>
      <trkpt lat="43.89086" lon="7.62109">
        <ele>724.59997558594</ele>
        <time>2022-09-10T14:59:47.000Z</time>
      </trkpt>
      <trkpt lat="43.89078" lon="7.62114">
        <ele>724.59997558594</ele>
        <time>2022-09-10T14:59:49.000Z</time>
      </trkpt>
      <trkpt lat="43.89067" lon="7.62125">
        <ele>723.79998779297</ele>
        <time>2022-09-10T14:59:52.000Z</time>
      </trkpt>
      <trkpt lat="43.89062" lon="7.62122">
        <ele>723.20001220703</ele>
        <time>2022-09-10T14:59:53.000Z</time>
      </trkpt>
      <trkpt lat="43.89055" lon="7.62112">
        <ele>722</ele>
        <time>2022-09-10T14:59:55.000Z</time>
      </trkpt>
      <trkpt lat="43.8905" lon="7.62103">
        <ele>721</ele>
        <time>2022-09-10T14:59:57.000Z</time>
      </trkpt>
      <trkpt lat="43.89044" lon="7.62101">
        <ele>720.20001220703</ele>
        <time>2022-09-10T14:59:58.000Z</time>
      </trkpt>
      <trkpt lat="43.89039" lon="7.62097">
        <ele>719.40002441406</ele>
        <time>2022-09-10T14:59:59.000Z</time>
      </trkpt>
      <trkpt lat="43.89033" lon="7.62094">
        <ele>718.40002441406</ele>
        <time>2022-09-10T15:00:00.000Z</time>
      </trkpt>
      <trkpt lat="43.89027" lon="7.62093">
        <ele>717</ele>
        <time>2022-09-10T15:00:01.000Z</time>
      </trkpt>
      <trkpt lat="43.89022" lon="7.62094">
        <ele>715.79998779297</ele>
        <time>2022-09-10T15:00:02.000Z</time>
      </trkpt>
      <trkpt lat="43.89017" lon="7.62097">
        <ele>714.40002441406</ele>
        <time>2022-09-10T15:00:03.000Z</time>
      </trkpt>
      <trkpt lat="43.89012" lon="7.62107">
        <ele>713</ele>
        <time>2022-09-10T15:00:05.000Z</time>
      </trkpt>
      <trkpt lat="43.89008" lon="7.62111">
        <ele>712.20001220703</ele>
        <time>2022-09-10T15:00:08.000Z</time>
      </trkpt>
      <trkpt lat="43.89008" lon="7.62112">
        <ele>712.20001220703</ele>
        <time>2022-09-10T15:00:14.000Z</time>
      </trkpt>
      <trkpt lat="43.89007" lon="7.62113">
        <ele>712.20001220703</ele>
        <time>2022-09-10T15:00:32.000Z</time>
      </trkpt>
      <trkpt lat="43.89005" lon="7.62114">
        <ele>712.59997558594</ele>
        <time>2022-09-10T15:01:01.000Z</time>
      </trkpt>
      <trkpt lat="43.88993" lon="7.62116">
        <ele>712.59997558594</ele>
        <time>2022-09-10T15:01:05.000Z</time>
      </trkpt>
      <trkpt lat="43.88989" lon="7.62117">
        <ele>712.59997558594</ele>
        <time>2022-09-10T15:01:06.000Z</time>
      </trkpt>
      <trkpt lat="43.88976" lon="7.62126">
        <ele>711.59997558594</ele>
        <time>2022-09-10T15:01:09.000Z</time>
      </trkpt>
      <trkpt lat="43.88961" lon="7.62142">
        <ele>710</ele>
        <time>2022-09-10T15:01:12.000Z</time>
      </trkpt>
      <trkpt lat="43.88954" lon="7.62148">
        <ele>709.79998779297</ele>
        <time>2022-09-10T15:01:13.000Z</time>
      </trkpt>
      <trkpt lat="43.88942" lon="7.62155">
        <ele>708.40002441406</ele>
        <time>2022-09-10T15:01:15.000Z</time>
      </trkpt>
      <trkpt lat="43.88936" lon="7.62156">
        <ele>708</ele>
        <time>2022-09-10T15:01:16.000Z</time>
      </trkpt>
      <trkpt lat="43.88927" lon="7.62153">
        <ele>707.20001220703</ele>
        <time>2022-09-10T15:01:18.000Z</time>
      </trkpt>
      <trkpt lat="43.88925" lon="7.62152">
        <ele>706.40002441406</ele>
        <time>2022-09-10T15:01:19.000Z</time>
      </trkpt>
      <trkpt lat="43.88922" lon="7.62152">
        <ele>705.79998779297</ele>
        <time>2022-09-10T15:01:20.000Z</time>
      </trkpt>
      <trkpt lat="43.88915" lon="7.62149">
        <ele>704.79998779297</ele>
        <time>2022-09-10T15:01:22.000Z</time>
      </trkpt>
      <trkpt lat="43.88909" lon="7.6215">
        <ele>704</ele>
        <time>2022-09-10T15:01:23.000Z</time>
      </trkpt>
      <trkpt lat="43.88904" lon="7.62154">
        <ele>703</ele>
        <time>2022-09-10T15:01:24.000Z</time>
      </trkpt>
      <trkpt lat="43.88896" lon="7.62166">
        <ele>701.20001220703</ele>
        <time>2022-09-10T15:01:26.000Z</time>
      </trkpt>
      <trkpt lat="43.88887" lon="7.62173">
        <ele>699.40002441406</ele>
        <time>2022-09-10T15:01:28.000Z</time>
      </trkpt>
      <trkpt lat="43.88882" lon="7.62174">
        <ele>698.79998779297</ele>
        <time>2022-09-10T15:01:29.000Z</time>
      </trkpt>
      <trkpt lat="43.88877" lon="7.62176">
        <ele>697.79998779297</ele>
        <time>2022-09-10T15:01:30.000Z</time>
      </trkpt>
      <trkpt lat="43.88871" lon="7.6218">
        <ele>696.40002441406</ele>
        <time>2022-09-10T15:01:31.000Z</time>
      </trkpt>
      <trkpt lat="43.88866" lon="7.62184">
        <ele>695</ele>
        <time>2022-09-10T15:01:32.000Z</time>
      </trkpt>
      <trkpt lat="43.88861" lon="7.62187">
        <ele>693.79998779297</ele>
        <time>2022-09-10T15:01:33.000Z</time>
      </trkpt>
      <trkpt lat="43.88855" lon="7.62189">
        <ele>692.59997558594</ele>
        <time>2022-09-10T15:01:34.000Z</time>
      </trkpt>
      <trkpt lat="43.88846" lon="7.62193">
        <ele>691.79998779297</ele>
        <time>2022-09-10T15:01:36.000Z</time>
      </trkpt>
      <trkpt lat="43.88842" lon="7.62193">
        <ele>691.59997558594</ele>
        <time>2022-09-10T15:01:37.000Z</time>
      </trkpt>
      <trkpt lat="43.88832" lon="7.62194">
        <ele>691.59997558594</ele>
        <time>2022-09-10T15:01:40.000Z</time>
      </trkpt>
      <trkpt lat="43.88825" lon="7.62194">
        <ele>692.59997558594</ele>
        <time>2022-09-10T15:01:42.000Z</time>
      </trkpt>
      <trkpt lat="43.88822" lon="7.62194">
        <ele>693</ele>
        <time>2022-09-10T15:01:43.000Z</time>
      </trkpt>
      <trkpt lat="43.88817" lon="7.62191">
        <ele>694</ele>
        <time>2022-09-10T15:01:45.000Z</time>
      </trkpt>
      <trkpt lat="43.88816" lon="7.6219">
        <ele>694.79998779297</ele>
        <time>2022-09-10T15:01:47.000Z</time>
      </trkpt>
      <trkpt lat="43.88815" lon="7.6219">
        <ele>695.40002441406</ele>
        <time>2022-09-10T15:01:48.000Z</time>
      </trkpt>
      <trkpt lat="43.88815" lon="7.6219">
        <ele>696.59997558594</ele>
        <time>2022-09-10T15:01:51.000Z</time>
      </trkpt>
      <trkpt lat="43.88815" lon="7.6219">
        <ele>696.79998779297</ele>
        <time>2022-09-10T15:01:58.000Z</time>
      </trkpt>
      <trkpt lat="43.88815" lon="7.6219">
        <ele>696.79998779297</ele>
        <time>2022-09-10T15:02:00.000Z</time>
      </trkpt>
      <trkpt lat="43.88811" lon="7.6219">
        <ele>696.79998779297</ele>
        <time>2022-09-10T15:02:02.000Z</time>
      </trkpt>
      <trkpt lat="43.88807" lon="7.62201">
        <ele>696.59997558594</ele>
        <time>2022-09-10T15:02:05.000Z</time>
      </trkpt>
      <trkpt lat="43.88807" lon="7.62204">
        <ele>695.40002441406</ele>
        <time>2022-09-10T15:02:07.000Z</time>
      </trkpt>
      <trkpt lat="43.88807" lon="7.62205">
        <ele>695</ele>
        <time>2022-09-10T15:02:08.000Z</time>
      </trkpt>
      <trkpt lat="43.88807" lon="7.62204">
        <ele>694</ele>
        <time>2022-09-10T15:02:10.000Z</time>
      </trkpt>
      <trkpt lat="43.88807" lon="7.62204">
        <ele>694.20001220703</ele>
        <time>2022-09-10T15:02:15.000Z</time>
      </trkpt>
      <trkpt lat="43.88807" lon="7.62205">
        <ele>693.79998779297</ele>
        <time>2022-09-10T15:02:30.000Z</time>
      </trkpt>
      <trkpt lat="43.88808" lon="7.62205">
        <ele>693.79998779297</ele>
        <time>2022-09-10T15:02:39.000Z</time>
      </trkpt>
      <trkpt lat="43.88807" lon="7.62205">
        <ele>694</ele>
        <time>2022-09-10T15:02:40.000Z</time>
      </trkpt>
      <trkpt lat="43.88807" lon="7.62202">
        <ele>694.40002441406</ele>
        <time>2022-09-10T15:02:43.000Z</time>
      </trkpt>
      <trkpt lat="43.88807" lon="7.62201">
        <ele>694.79998779297</ele>
        <time>2022-09-10T15:02:50.000Z</time>
      </trkpt>
      <trkpt lat="43.88808" lon="7.62193">
        <ele>695</ele>
        <time>2022-09-10T15:02:53.000Z</time>
      </trkpt>
      <trkpt lat="43.88811" lon="7.62189">
        <ele>695.20001220703</ele>
        <time>2022-09-10T15:02:55.000Z</time>
      </trkpt>
      <trkpt lat="43.88811" lon="7.62185">
        <ele>695.79998779297</ele>
        <time>2022-09-10T15:02:57.000Z</time>
      </trkpt>
      <trkpt lat="43.8881" lon="7.62182">
        <ele>696.40002441406</ele>
        <time>2022-09-10T15:02:58.000Z</time>
      </trkpt>
      <trkpt lat="43.8881" lon="7.62179">
        <ele>697</ele>
        <time>2022-09-10T15:02:59.000Z</time>
      </trkpt>
      <trkpt lat="43.88809" lon="7.62173">
        <ele>697.59997558594</ele>
        <time>2022-09-10T15:03:01.000Z</time>
      </trkpt>
      <trkpt lat="43.88811" lon="7.62165">
        <ele>697.79998779297</ele>
        <time>2022-09-10T15:03:04.000Z</time>
      </trkpt>
      <trkpt lat="43.88813" lon="7.62163">
        <ele>697.59997558594</ele>
        <time>2022-09-10T15:03:07.000Z</time>
      </trkpt>
      <trkpt lat="43.88813" lon="7.62162">
        <ele>697.20001220703</ele>
        <time>2022-09-10T15:03:19.000Z</time>
      </trkpt>
      <trkpt lat="43.88813" lon="7.62163">
        <ele>697.20001220703</ele>
        <time>2022-09-10T15:03:27.000Z</time>
      </trkpt>
      <trkpt lat="43.88814" lon="7.6216">
        <ele>697.20001220703</ele>
        <time>2022-09-10T15:03:33.000Z</time>
      </trkpt>
      <trkpt lat="43.88814" lon="7.62157">
        <ele>697.40002441406</ele>
        <time>2022-09-10T15:03:34.000Z</time>
      </trkpt>
      <trkpt lat="43.88809" lon="7.62149">
        <ele>697</ele>
        <time>2022-09-10T15:03:37.000Z</time>
      </trkpt>
      <trkpt lat="43.88811" lon="7.62145">
        <ele>696.40002441406</ele>
        <time>2022-09-10T15:03:38.000Z</time>
      </trkpt>
      <trkpt lat="43.88812" lon="7.62142">
        <ele>696.20001220703</ele>
        <time>2022-09-10T15:03:39.000Z</time>
      </trkpt>
      <trkpt lat="43.88811" lon="7.62138">
        <ele>695.59997558594</ele>
        <time>2022-09-10T15:03:40.000Z</time>
      </trkpt>
      <trkpt lat="43.8881" lon="7.62133">
        <ele>695</ele>
        <time>2022-09-10T15:03:41.000Z</time>
      </trkpt>
      <trkpt lat="43.88805" lon="7.62126">
        <ele>693.20001220703</ele>
        <time>2022-09-10T15:03:43.000Z</time>
      </trkpt>
      <trkpt lat="43.88802" lon="7.62124">
        <ele>692.20001220703</ele>
        <time>2022-09-10T15:03:44.000Z</time>
      </trkpt>
      <trkpt lat="43.88797" lon="7.62115">
        <ele>690</ele>
        <time>2022-09-10T15:03:46.000Z</time>
      </trkpt>
      <trkpt lat="43.8879" lon="7.62103">
        <ele>688.40002441406</ele>
        <time>2022-09-10T15:03:48.000Z</time>
      </trkpt>
      <trkpt lat="43.88782" lon="7.62095">
        <ele>686.59997558594</ele>
        <time>2022-09-10T15:03:50.000Z</time>
      </trkpt>
      <trkpt lat="43.88779" lon="7.62092">
        <ele>686</ele>
        <time>2022-09-10T15:03:51.000Z</time>
      </trkpt>
      <trkpt lat="43.8878" lon="7.62087">
        <ele>685</ele>
        <time>2022-09-10T15:03:52.000Z</time>
      </trkpt>
      <trkpt lat="43.8878" lon="7.62085">
        <ele>683.79998779297</ele>
        <time>2022-09-10T15:03:53.000Z</time>
      </trkpt>
      <trkpt lat="43.88777" lon="7.62084">
        <ele>682.40002441406</ele>
        <time>2022-09-10T15:03:55.000Z</time>
      </trkpt>
      <trkpt lat="43.88774" lon="7.62081">
        <ele>681.79998779297</ele>
        <time>2022-09-10T15:03:57.000Z</time>
      </trkpt>
      <trkpt lat="43.88772" lon="7.62078">
        <ele>681.40002441406</ele>
        <time>2022-09-10T15:03:58.000Z</time>
      </trkpt>
      <trkpt lat="43.8877" lon="7.62072">
        <ele>680.40002441406</ele>
        <time>2022-09-10T15:04:01.000Z</time>
      </trkpt>
      <trkpt lat="43.88769" lon="7.6207">
        <ele>679.59997558594</ele>
        <time>2022-09-10T15:04:02.000Z</time>
      </trkpt>
      <trkpt lat="43.88768" lon="7.62063">
        <ele>678</ele>
        <time>2022-09-10T15:04:04.000Z</time>
      </trkpt>
      <trkpt lat="43.88767" lon="7.62056">
        <ele>676.40002441406</ele>
        <time>2022-09-10T15:04:06.000Z</time>
      </trkpt>
      <trkpt lat="43.88761" lon="7.62052">
        <ele>675</ele>
        <time>2022-09-10T15:04:08.000Z</time>
      </trkpt>
      <trkpt lat="43.8876" lon="7.62051">
        <ele>674.59997558594</ele>
        <time>2022-09-10T15:04:09.000Z</time>
      </trkpt>
      <trkpt lat="43.88758" lon="7.6205">
        <ele>673.59997558594</ele>
        <time>2022-09-10T15:04:10.000Z</time>
      </trkpt>
      <trkpt lat="43.88754" lon="7.62048">
        <ele>671.79998779297</ele>
        <time>2022-09-10T15:04:12.000Z</time>
      </trkpt>
      <trkpt lat="43.88751" lon="7.6205">
        <ele>671</ele>
        <time>2022-09-10T15:04:13.000Z</time>
      </trkpt>
      <trkpt lat="43.88747" lon="7.62049">
        <ele>670</ele>
        <time>2022-09-10T15:04:14.000Z</time>
      </trkpt>
      <trkpt lat="43.88746" lon="7.62047">
        <ele>669.79998779297</ele>
        <time>2022-09-10T15:04:15.000Z</time>
      </trkpt>
      <trkpt lat="43.88746" lon="7.62044">
        <ele>669</ele>
        <time>2022-09-10T15:04:16.000Z</time>
      </trkpt>
      <trkpt lat="43.88746" lon="7.62035">
        <ele>668.40002441406</ele>
        <time>2022-09-10T15:04:18.000Z</time>
      </trkpt>
      <trkpt lat="43.88745" lon="7.6203">
        <ele>667.59997558594</ele>
        <time>2022-09-10T15:04:19.000Z</time>
      </trkpt>
      <trkpt lat="43.88738" lon="7.62021">
        <ele>666.20001220703</ele>
        <time>2022-09-10T15:04:21.000Z</time>
      </trkpt>
      <trkpt lat="43.88729" lon="7.62011">
        <ele>664.79998779297</ele>
        <time>2022-09-10T15:04:23.000Z</time>
      </trkpt>
      <trkpt lat="43.88725" lon="7.62005">
        <ele>663.79998779297</ele>
        <time>2022-09-10T15:04:24.000Z</time>
      </trkpt>
      <trkpt lat="43.8872" lon="7.61998">
        <ele>662.79998779297</ele>
        <time>2022-09-10T15:04:25.000Z</time>
      </trkpt>
      <trkpt lat="43.88716" lon="7.6199">
        <ele>662.20001220703</ele>
        <time>2022-09-10T15:04:26.000Z</time>
      </trkpt>
      <trkpt lat="43.88713" lon="7.61982">
        <ele>661.40002441406</ele>
        <time>2022-09-10T15:04:27.000Z</time>
      </trkpt>
      <trkpt lat="43.8871" lon="7.61975">
        <ele>660.40002441406</ele>
        <time>2022-09-10T15:04:28.000Z</time>
      </trkpt>
      <trkpt lat="43.88702" lon="7.61961">
        <ele>658.79998779297</ele>
        <time>2022-09-10T15:04:30.000Z</time>
      </trkpt>
      <trkpt lat="43.88698" lon="7.61955">
        <ele>658</ele>
        <time>2022-09-10T15:04:31.000Z</time>
      </trkpt>
      <trkpt lat="43.88693" lon="7.61942">
        <ele>657.40002441406</ele>
        <time>2022-09-10T15:04:33.000Z</time>
      </trkpt>
      <trkpt lat="43.88687" lon="7.6193">
        <ele>656.59997558594</ele>
        <time>2022-09-10T15:04:35.000Z</time>
      </trkpt>
      <trkpt lat="43.88683" lon="7.61923">
        <ele>656.40002441406</ele>
        <time>2022-09-10T15:04:36.000Z</time>
      </trkpt>
      <trkpt lat="43.88674" lon="7.61912">
        <ele>656.40002441406</ele>
        <time>2022-09-10T15:04:38.000Z</time>
      </trkpt>
      <trkpt lat="43.88669" lon="7.61908">
        <ele>654.59997558594</ele>
        <time>2022-09-10T15:04:39.000Z</time>
      </trkpt>
      <trkpt lat="43.88663" lon="7.61905">
        <ele>652.79998779297</ele>
        <time>2022-09-10T15:04:40.000Z</time>
      </trkpt>
      <trkpt lat="43.88655" lon="7.61899">
        <ele>651.40002441406</ele>
        <time>2022-09-10T15:04:42.000Z</time>
      </trkpt>
      <trkpt lat="43.88646" lon="7.61896">
        <ele>650.20001220703</ele>
        <time>2022-09-10T15:04:44.000Z</time>
      </trkpt>
      <trkpt lat="43.88643" lon="7.61898">
        <ele>649</ele>
        <time>2022-09-10T15:04:45.000Z</time>
      </trkpt>
      <trkpt lat="43.88637" lon="7.61901">
        <ele>647.59997558594</ele>
        <time>2022-09-10T15:04:47.000Z</time>
      </trkpt>
      <trkpt lat="43.88627" lon="7.61905">
        <ele>646</ele>
        <time>2022-09-10T15:04:50.000Z</time>
      </trkpt>
      <trkpt lat="43.88613" lon="7.61902">
        <ele>645.20001220703</ele>
        <time>2022-09-10T15:04:53.000Z</time>
      </trkpt>
      <trkpt lat="43.88608" lon="7.61901">
        <ele>644.59997558594</ele>
        <time>2022-09-10T15:04:54.000Z</time>
      </trkpt>
      <trkpt lat="43.88603" lon="7.61901">
        <ele>643.40002441406</ele>
        <time>2022-09-10T15:04:55.000Z</time>
      </trkpt>
      <trkpt lat="43.88599" lon="7.61901">
        <ele>642</ele>
        <time>2022-09-10T15:04:56.000Z</time>
      </trkpt>
      <trkpt lat="43.88596" lon="7.619">
        <ele>640.59997558594</ele>
        <time>2022-09-10T15:04:57.000Z</time>
      </trkpt>
      <trkpt lat="43.88591" lon="7.61898">
        <ele>639</ele>
        <time>2022-09-10T15:04:59.000Z</time>
      </trkpt>
      <trkpt lat="43.88587" lon="7.61899">
        <ele>637.59997558594</ele>
        <time>2022-09-10T15:05:00.000Z</time>
      </trkpt>
      <trkpt lat="43.88584" lon="7.619">
        <ele>636.40002441406</ele>
        <time>2022-09-10T15:05:01.000Z</time>
      </trkpt>
      <trkpt lat="43.88581" lon="7.619">
        <ele>635.59997558594</ele>
        <time>2022-09-10T15:05:02.000Z</time>
      </trkpt>
      <trkpt lat="43.88579" lon="7.61898">
        <ele>635</ele>
        <time>2022-09-10T15:05:03.000Z</time>
      </trkpt>
      <trkpt lat="43.88575" lon="7.61892">
        <ele>633</ele>
        <time>2022-09-10T15:05:05.000Z</time>
      </trkpt>
      <trkpt lat="43.88573" lon="7.6189">
        <ele>631.20001220703</ele>
        <time>2022-09-10T15:05:06.000Z</time>
      </trkpt>
      <trkpt lat="43.88565" lon="7.61884">
        <ele>629.20001220703</ele>
        <time>2022-09-10T15:05:08.000Z</time>
      </trkpt>
      <trkpt lat="43.88561" lon="7.61881">
        <ele>627.59997558594</ele>
        <time>2022-09-10T15:05:09.000Z</time>
      </trkpt>
      <trkpt lat="43.88553" lon="7.6188">
        <ele>625.79998779297</ele>
        <time>2022-09-10T15:05:11.000Z</time>
      </trkpt>
      <trkpt lat="43.8855" lon="7.61877">
        <ele>624.59997558594</ele>
        <time>2022-09-10T15:05:12.000Z</time>
      </trkpt>
      <trkpt lat="43.88543" lon="7.61873">
        <ele>623.59997558594</ele>
        <time>2022-09-10T15:05:14.000Z</time>
      </trkpt>
      <trkpt lat="43.8854" lon="7.61874">
        <ele>622.40002441406</ele>
        <time>2022-09-10T15:05:15.000Z</time>
      </trkpt>
      <trkpt lat="43.88537" lon="7.61876">
        <ele>621.79998779297</ele>
        <time>2022-09-10T15:05:16.000Z</time>
      </trkpt>
      <trkpt lat="43.88522" lon="7.61877">
        <ele>621.40002441406</ele>
        <time>2022-09-10T15:05:20.000Z</time>
      </trkpt>
      <trkpt lat="43.88509" lon="7.61872">
        <ele>620</ele>
        <time>2022-09-10T15:05:23.000Z</time>
      </trkpt>
      <trkpt lat="43.88505" lon="7.6187">
        <ele>619.20001220703</ele>
        <time>2022-09-10T15:05:24.000Z</time>
      </trkpt>
      <trkpt lat="43.88501" lon="7.6187">
        <ele>618.20001220703</ele>
        <time>2022-09-10T15:05:25.000Z</time>
      </trkpt>
      <trkpt lat="43.88497" lon="7.6187">
        <ele>618.20001220703</ele>
        <time>2022-09-10T15:05:26.000Z</time>
      </trkpt>
      <trkpt lat="43.88486" lon="7.6187">
        <ele>616.59997558594</ele>
        <time>2022-09-10T15:05:28.000Z</time>
      </trkpt>
      <trkpt lat="43.88474" lon="7.61867">
        <ele>614.79998779297</ele>
        <time>2022-09-10T15:05:30.000Z</time>
      </trkpt>
      <trkpt lat="43.8847" lon="7.61867">
        <ele>612.59997558594</ele>
        <time>2022-09-10T15:05:31.000Z</time>
      </trkpt>
      <trkpt lat="43.88467" lon="7.61868">
        <ele>609</ele>
        <time>2022-09-10T15:05:32.000Z</time>
      </trkpt>
      <trkpt lat="43.88464" lon="7.61868">
        <ele>607.59997558594</ele>
        <time>2022-09-10T15:05:33.000Z</time>
      </trkpt>
      <trkpt lat="43.88461" lon="7.61866">
        <ele>606.59997558594</ele>
        <time>2022-09-10T15:05:34.000Z</time>
      </trkpt>
      <trkpt lat="43.88458" lon="7.61864">
        <ele>605.20001220703</ele>
        <time>2022-09-10T15:05:36.000Z</time>
      </trkpt>
      <trkpt lat="43.88455" lon="7.61864">
        <ele>603.79998779297</ele>
        <time>2022-09-10T15:05:38.000Z</time>
      </trkpt>
      <trkpt lat="43.88454" lon="7.61863">
        <ele>602.79998779297</ele>
        <time>2022-09-10T15:05:39.000Z</time>
      </trkpt>
      <trkpt lat="43.88451" lon="7.61863">
        <ele>602.20001220703</ele>
        <time>2022-09-10T15:05:40.000Z</time>
      </trkpt>
      <trkpt lat="43.88446" lon="7.61864">
        <ele>601.40002441406</ele>
        <time>2022-09-10T15:05:42.000Z</time>
      </trkpt>
      <trkpt lat="43.88444" lon="7.61865">
        <ele>600.20001220703</ele>
        <time>2022-09-10T15:05:43.000Z</time>
      </trkpt>
      <trkpt lat="43.88442" lon="7.61866">
        <ele>599.20001220703</ele>
        <time>2022-09-10T15:05:44.000Z</time>
      </trkpt>
      <trkpt lat="43.88439" lon="7.61867">
        <ele>598.20001220703</ele>
        <time>2022-09-10T15:05:46.000Z</time>
      </trkpt>
      <trkpt lat="43.88437" lon="7.61869">
        <ele>598</ele>
        <time>2022-09-10T15:05:47.000Z</time>
      </trkpt>
      <trkpt lat="43.88433" lon="7.61872">
        <ele>596.79998779297</ele>
        <time>2022-09-10T15:05:49.000Z</time>
      </trkpt>
      <trkpt lat="43.88427" lon="7.61873">
        <ele>595.59997558594</ele>
        <time>2022-09-10T15:05:51.000Z</time>
      </trkpt>
      <trkpt lat="43.88423" lon="7.61872">
        <ele>594.59997558594</ele>
        <time>2022-09-10T15:05:52.000Z</time>
      </trkpt>
      <trkpt lat="43.88419" lon="7.6187">
        <ele>593.40002441406</ele>
        <time>2022-09-10T15:05:53.000Z</time>
      </trkpt>
      <trkpt lat="43.88414" lon="7.61869">
        <ele>592.20001220703</ele>
        <time>2022-09-10T15:05:54.000Z</time>
      </trkpt>
      <trkpt lat="43.88409" lon="7.61869">
        <ele>591.20001220703</ele>
        <time>2022-09-10T15:05:55.000Z</time>
      </trkpt>
      <trkpt lat="43.88405" lon="7.6187">
        <ele>590.20001220703</ele>
        <time>2022-09-10T15:05:56.000Z</time>
      </trkpt>
      <trkpt lat="43.88403" lon="7.61871">
        <ele>589.20001220703</ele>
        <time>2022-09-10T15:05:57.000Z</time>
      </trkpt>
      <trkpt lat="43.884" lon="7.61872">
        <ele>588.79998779297</ele>
        <time>2022-09-10T15:05:58.000Z</time>
      </trkpt>
      <trkpt lat="43.88397" lon="7.61871">
        <ele>587.40002441406</ele>
        <time>2022-09-10T15:05:59.000Z</time>
      </trkpt>
      <trkpt lat="43.88395" lon="7.61869">
        <ele>586.40002441406</ele>
        <time>2022-09-10T15:06:00.000Z</time>
      </trkpt>
      <trkpt lat="43.88393" lon="7.61867">
        <ele>585.59997558594</ele>
        <time>2022-09-10T15:06:01.000Z</time>
      </trkpt>
      <trkpt lat="43.88392" lon="7.61866">
        <ele>584.40002441406</ele>
        <time>2022-09-10T15:06:02.000Z</time>
      </trkpt>
      <trkpt lat="43.88388" lon="7.61864">
        <ele>583</ele>
        <time>2022-09-10T15:06:04.000Z</time>
      </trkpt>
      <trkpt lat="43.88385" lon="7.61861">
        <ele>581.59997558594</ele>
        <time>2022-09-10T15:06:06.000Z</time>
      </trkpt>
      <trkpt lat="43.88381" lon="7.61856">
        <ele>580</ele>
        <time>2022-09-10T15:06:08.000Z</time>
      </trkpt>
      <trkpt lat="43.88379" lon="7.61853">
        <ele>578.79998779297</ele>
        <time>2022-09-10T15:06:09.000Z</time>
      </trkpt>
      <trkpt lat="43.88376" lon="7.61851">
        <ele>577.59997558594</ele>
        <time>2022-09-10T15:06:10.000Z</time>
      </trkpt>
      <trkpt lat="43.88373" lon="7.61849">
        <ele>576</ele>
        <time>2022-09-10T15:06:11.000Z</time>
      </trkpt>
      <trkpt lat="43.88369" lon="7.61847">
        <ele>574.59997558594</ele>
        <time>2022-09-10T15:06:12.000Z</time>
      </trkpt>
      <trkpt lat="43.88364" lon="7.61845">
        <ele>573.20001220703</ele>
        <time>2022-09-10T15:06:13.000Z</time>
      </trkpt>
      <trkpt lat="43.88359" lon="7.61844">
        <ele>571.79998779297</ele>
        <time>2022-09-10T15:06:14.000Z</time>
      </trkpt>
      <trkpt lat="43.88355" lon="7.61843">
        <ele>570.40002441406</ele>
        <time>2022-09-10T15:06:15.000Z</time>
      </trkpt>
      <trkpt lat="43.88351" lon="7.61842">
        <ele>568.79998779297</ele>
        <time>2022-09-10T15:06:16.000Z</time>
      </trkpt>
      <trkpt lat="43.88347" lon="7.61842">
        <ele>567.40002441406</ele>
        <time>2022-09-10T15:06:17.000Z</time>
      </trkpt>
      <trkpt lat="43.88343" lon="7.61842">
        <ele>565.79998779297</ele>
        <time>2022-09-10T15:06:18.000Z</time>
      </trkpt>
      <trkpt lat="43.88339" lon="7.61841">
        <ele>564.40002441406</ele>
        <time>2022-09-10T15:06:19.000Z</time>
      </trkpt>
      <trkpt lat="43.88335" lon="7.61839">
        <ele>563</ele>
        <time>2022-09-10T15:06:20.000Z</time>
      </trkpt>
      <trkpt lat="43.88333" lon="7.61838">
        <ele>562</ele>
        <time>2022-09-10T15:06:21.000Z</time>
      </trkpt>
      <trkpt lat="43.88333" lon="7.61838">
        <ele>561.20001220703</ele>
        <time>2022-09-10T15:06:22.000Z</time>
      </trkpt>
      <trkpt lat="43.88332" lon="7.61838">
        <ele>559.40002441406</ele>
        <time>2022-09-10T15:06:24.000Z</time>
      </trkpt>
      <trkpt lat="43.88332" lon="7.61838">
        <ele>558.59997558594</ele>
        <time>2022-09-10T15:06:25.000Z</time>
      </trkpt>
      <trkpt lat="43.88332" lon="7.61838">
        <ele>557.79998779297</ele>
        <time>2022-09-10T15:06:26.000Z</time>
      </trkpt>
      <trkpt lat="43.8833" lon="7.61836">
        <ele>557.20001220703</ele>
        <time>2022-09-10T15:06:36.000Z</time>
      </trkpt>
      <trkpt lat="43.88326" lon="7.6183">
        <ele>556.79998779297</ele>
        <time>2022-09-10T15:06:41.000Z</time>
      </trkpt>
      <trkpt lat="43.88324" lon="7.61829">
        <ele>555.59997558594</ele>
        <time>2022-09-10T15:06:43.000Z</time>
      </trkpt>
      <trkpt lat="43.88323" lon="7.61829">
        <ele>555</ele>
        <time>2022-09-10T15:06:44.000Z</time>
      </trkpt>
      <trkpt lat="43.88322" lon="7.6183">
        <ele>554.40002441406</ele>
        <time>2022-09-10T15:06:45.000Z</time>
      </trkpt>
      <trkpt lat="43.88322" lon="7.6183">
        <ele>553.40002441406</ele>
        <time>2022-09-10T15:06:47.000Z</time>
      </trkpt>
      <trkpt lat="43.88321" lon="7.61831">
        <ele>552.79998779297</ele>
        <time>2022-09-10T15:06:51.000Z</time>
      </trkpt>
      <trkpt lat="43.88319" lon="7.61834">
        <ele>552.79998779297</ele>
        <time>2022-09-10T15:07:12.000Z</time>
      </trkpt>
      <trkpt lat="43.88318" lon="7.61834">
        <ele>552.79998779297</ele>
        <time>2022-09-10T15:07:13.000Z</time>
      </trkpt>
      <trkpt lat="43.88314" lon="7.61831">
        <ele>552.20001220703</ele>
        <time>2022-09-10T15:07:17.000Z</time>
      </trkpt>
      <trkpt lat="43.88313" lon="7.61831">
        <ele>551.59997558594</ele>
        <time>2022-09-10T15:07:18.000Z</time>
      </trkpt>
      <trkpt lat="43.88313" lon="7.6183">
        <ele>551</ele>
        <time>2022-09-10T15:07:19.000Z</time>
      </trkpt>
      <trkpt lat="43.8831" lon="7.61829">
        <ele>549.79998779297</ele>
        <time>2022-09-10T15:07:21.000Z</time>
      </trkpt>
      <trkpt lat="43.88307" lon="7.61827">
        <ele>548.79998779297</ele>
        <time>2022-09-10T15:07:23.000Z</time>
      </trkpt>
      <trkpt lat="43.88304" lon="7.61827">
        <ele>548.40002441406</ele>
        <time>2022-09-10T15:07:24.000Z</time>
      </trkpt>
      <trkpt lat="43.88296" lon="7.61824">
        <ele>547.79998779297</ele>
        <time>2022-09-10T15:07:26.000Z</time>
      </trkpt>
      <trkpt lat="43.88293" lon="7.6182">
        <ele>547</ele>
        <time>2022-09-10T15:07:27.000Z</time>
      </trkpt>
      <trkpt lat="43.88287" lon="7.61821">
        <ele>545.79998779297</ele>
        <time>2022-09-10T15:07:28.000Z</time>
      </trkpt>
      <trkpt lat="43.88282" lon="7.6182">
        <ele>544.79998779297</ele>
        <time>2022-09-10T15:07:29.000Z</time>
      </trkpt>
      <trkpt lat="43.88277" lon="7.6182">
        <ele>543.79998779297</ele>
        <time>2022-09-10T15:07:30.000Z</time>
      </trkpt>
      <trkpt lat="43.88272" lon="7.61819">
        <ele>542</ele>
        <time>2022-09-10T15:07:31.000Z</time>
      </trkpt>
      <trkpt lat="43.88261" lon="7.61817">
        <ele>540.79998779297</ele>
        <time>2022-09-10T15:07:33.000Z</time>
      </trkpt>
      <trkpt lat="43.88255" lon="7.61816">
        <ele>540.20001220703</ele>
        <time>2022-09-10T15:07:34.000Z</time>
      </trkpt>
      <trkpt lat="43.8825" lon="7.61817">
        <ele>539.59997558594</ele>
        <time>2022-09-10T15:07:35.000Z</time>
      </trkpt>
      <trkpt lat="43.88239" lon="7.61818">
        <ele>538.40002441406</ele>
        <time>2022-09-10T15:07:37.000Z</time>
      </trkpt>
      <trkpt lat="43.88233" lon="7.61817">
        <ele>537.79998779297</ele>
        <time>2022-09-10T15:07:38.000Z</time>
      </trkpt>
      <trkpt lat="43.88221" lon="7.61817">
        <ele>538</ele>
        <time>2022-09-10T15:07:40.000Z</time>
      </trkpt>
      <trkpt lat="43.88202" lon="7.61817">
        <ele>537.40002441406</ele>
        <time>2022-09-10T15:07:43.000Z</time>
      </trkpt>
      <trkpt lat="43.88196" lon="7.61816">
        <ele>536.79998779297</ele>
        <time>2022-09-10T15:07:44.000Z</time>
      </trkpt>
      <trkpt lat="43.88184" lon="7.61814">
        <ele>535.40002441406</ele>
        <time>2022-09-10T15:07:46.000Z</time>
      </trkpt>
      <trkpt lat="43.88173" lon="7.61815">
        <ele>535.20001220703</ele>
        <time>2022-09-10T15:07:48.000Z</time>
      </trkpt>
      <trkpt lat="43.88158" lon="7.61815">
        <ele>535.40002441406</ele>
        <time>2022-09-10T15:07:51.000Z</time>
      </trkpt>
      <trkpt lat="43.88157" lon="7.61814">
        <ele>535.40002441406</ele>
        <time>2022-09-10T15:07:54.000Z</time>
      </trkpt>
      <trkpt lat="43.88158" lon="7.61815">
        <ele>535.79998779297</ele>
        <time>2022-09-10T15:08:14.000Z</time>
      </trkpt>
      <trkpt lat="43.88158" lon="7.61814">
        <ele>536.20001220703</ele>
        <time>2022-09-10T15:08:50.000Z</time>
      </trkpt>
      <trkpt lat="43.88158" lon="7.61814">
        <ele>535.59997558594</ele>
        <time>2022-09-10T15:09:03.000Z</time>
      </trkpt>
      <trkpt lat="43.88157" lon="7.61814">
        <ele>535.79998779297</ele>
        <time>2022-09-10T15:09:14.000Z</time>
      </trkpt>
      <trkpt lat="43.88155" lon="7.61814">
        <ele>535.79998779297</ele>
        <time>2022-09-10T15:09:15.000Z</time>
      </trkpt>
      <trkpt lat="43.88146" lon="7.61812">
        <ele>536.40002441406</ele>
        <time>2022-09-10T15:09:19.000Z</time>
      </trkpt>
      <trkpt lat="43.88143" lon="7.61812">
        <ele>536.20001220703</ele>
        <time>2022-09-10T15:09:20.000Z</time>
      </trkpt>
      <trkpt lat="43.88132" lon="7.61811">
        <ele>534.59997558594</ele>
        <time>2022-09-10T15:09:23.000Z</time>
      </trkpt>
      <trkpt lat="43.88121" lon="7.61804">
        <ele>532.79998779297</ele>
        <time>2022-09-10T15:09:25.000Z</time>
      </trkpt>
      <trkpt lat="43.88116" lon="7.618">
        <ele>531.59997558594</ele>
        <time>2022-09-10T15:09:26.000Z</time>
      </trkpt>
      <trkpt lat="43.8811" lon="7.61796">
        <ele>530.59997558594</ele>
        <time>2022-09-10T15:09:27.000Z</time>
      </trkpt>
      <trkpt lat="43.88097" lon="7.61796">
        <ele>528.40002441406</ele>
        <time>2022-09-10T15:09:29.000Z</time>
      </trkpt>
      <trkpt lat="43.88091" lon="7.61797">
        <ele>527.40002441406</ele>
        <time>2022-09-10T15:09:30.000Z</time>
      </trkpt>
      <trkpt lat="43.88085" lon="7.61798">
        <ele>526.40002441406</ele>
        <time>2022-09-10T15:09:31.000Z</time>
      </trkpt>
      <trkpt lat="43.88079" lon="7.618">
        <ele>525.59997558594</ele>
        <time>2022-09-10T15:09:32.000Z</time>
      </trkpt>
      <trkpt lat="43.88074" lon="7.61804">
        <ele>524.79998779297</ele>
        <time>2022-09-10T15:09:33.000Z</time>
      </trkpt>
      <trkpt lat="43.88068" lon="7.61807">
        <ele>524</ele>
        <time>2022-09-10T15:09:34.000Z</time>
      </trkpt>
      <trkpt lat="43.88062" lon="7.6181">
        <ele>523</ele>
        <time>2022-09-10T15:09:35.000Z</time>
      </trkpt>
      <trkpt lat="43.88058" lon="7.61813">
        <ele>521.79998779297</ele>
        <time>2022-09-10T15:09:36.000Z</time>
      </trkpt>
      <trkpt lat="43.88054" lon="7.61818">
        <ele>520.20001220703</ele>
        <time>2022-09-10T15:09:37.000Z</time>
      </trkpt>
      <trkpt lat="43.88051" lon="7.61824">
        <ele>518.79998779297</ele>
        <time>2022-09-10T15:09:38.000Z</time>
      </trkpt>
      <trkpt lat="43.88048" lon="7.6183">
        <ele>516.79998779297</ele>
        <time>2022-09-10T15:09:39.000Z</time>
      </trkpt>
      <trkpt lat="43.88043" lon="7.61834">
        <ele>515</ele>
        <time>2022-09-10T15:09:40.000Z</time>
      </trkpt>
      <trkpt lat="43.88039" lon="7.61835">
        <ele>514</ele>
        <time>2022-09-10T15:09:41.000Z</time>
      </trkpt>
      <trkpt lat="43.88036" lon="7.61836">
        <ele>513</ele>
        <time>2022-09-10T15:09:42.000Z</time>
      </trkpt>
      <trkpt lat="43.88029" lon="7.61839">
        <ele>511.60000610352</ele>
        <time>2022-09-10T15:09:44.000Z</time>
      </trkpt>
      <trkpt lat="43.88017" lon="7.61837">
        <ele>510.20001220703</ele>
        <time>2022-09-10T15:09:46.000Z</time>
      </trkpt>
      <trkpt lat="43.88011" lon="7.61836">
        <ele>509.39999389648</ele>
        <time>2022-09-10T15:09:47.000Z</time>
      </trkpt>
      <trkpt lat="43.88005" lon="7.61836">
        <ele>508</ele>
        <time>2022-09-10T15:09:48.000Z</time>
      </trkpt>
      <trkpt lat="43.87999" lon="7.61839">
        <ele>506.39999389648</ele>
        <time>2022-09-10T15:09:49.000Z</time>
      </trkpt>
      <trkpt lat="43.87994" lon="7.61839">
        <ele>505.20001220703</ele>
        <time>2022-09-10T15:09:50.000Z</time>
      </trkpt>
      <trkpt lat="43.87986" lon="7.61835">
        <ele>503.39999389648</ele>
        <time>2022-09-10T15:09:52.000Z</time>
      </trkpt>
      <trkpt lat="43.87982" lon="7.61834">
        <ele>502.79998779297</ele>
        <time>2022-09-10T15:09:53.000Z</time>
      </trkpt>
      <trkpt lat="43.87975" lon="7.61831">
        <ele>502</ele>
        <time>2022-09-10T15:09:55.000Z</time>
      </trkpt>
      <trkpt lat="43.87973" lon="7.61828">
        <ele>501.39999389648</ele>
        <time>2022-09-10T15:09:56.000Z</time>
      </trkpt>
      <trkpt lat="43.8797" lon="7.61827">
        <ele>500.60000610352</ele>
        <time>2022-09-10T15:09:57.000Z</time>
      </trkpt>
      <trkpt lat="43.87952" lon="7.61824">
        <ele>499</ele>
        <time>2022-09-10T15:10:00.000Z</time>
      </trkpt>
      <trkpt lat="43.87945" lon="7.61823">
        <ele>498.20001220703</ele>
        <time>2022-09-10T15:10:01.000Z</time>
      </trkpt>
      <trkpt lat="43.87938" lon="7.61822">
        <ele>497.39999389648</ele>
        <time>2022-09-10T15:10:02.000Z</time>
      </trkpt>
      <trkpt lat="43.87928" lon="7.61822">
        <ele>495.79998779297</ele>
        <time>2022-09-10T15:10:04.000Z</time>
      </trkpt>
      <trkpt lat="43.87925" lon="7.61823">
        <ele>495.20001220703</ele>
        <time>2022-09-10T15:10:05.000Z</time>
      </trkpt>
      <trkpt lat="43.87922" lon="7.61825">
        <ele>494.60000610352</ele>
        <time>2022-09-10T15:10:06.000Z</time>
      </trkpt>
      <trkpt lat="43.87917" lon="7.61826">
        <ele>493.60000610352</ele>
        <time>2022-09-10T15:10:08.000Z</time>
      </trkpt>
      <trkpt lat="43.87912" lon="7.61824">
        <ele>492.39999389648</ele>
        <time>2022-09-10T15:10:10.000Z</time>
      </trkpt>
      <trkpt lat="43.87906" lon="7.61821">
        <ele>491</ele>
        <time>2022-09-10T15:10:12.000Z</time>
      </trkpt>
      <trkpt lat="43.87901" lon="7.61815">
        <ele>489.20001220703</ele>
        <time>2022-09-10T15:10:14.000Z</time>
      </trkpt>
      <trkpt lat="43.87899" lon="7.61814">
        <ele>488</ele>
        <time>2022-09-10T15:10:15.000Z</time>
      </trkpt>
      <trkpt lat="43.87897" lon="7.61814">
        <ele>487.20001220703</ele>
        <time>2022-09-10T15:10:16.000Z</time>
      </trkpt>
      <trkpt lat="43.87894" lon="7.61815">
        <ele>486.20001220703</ele>
        <time>2022-09-10T15:10:17.000Z</time>
      </trkpt>
      <trkpt lat="43.87885" lon="7.61816">
        <ele>483.79998779297</ele>
        <time>2022-09-10T15:10:19.000Z</time>
      </trkpt>
      <trkpt lat="43.87881" lon="7.6182">
        <ele>482.79998779297</ele>
        <time>2022-09-10T15:10:20.000Z</time>
      </trkpt>
      <trkpt lat="43.87874" lon="7.61824">
        <ele>481.60000610352</ele>
        <time>2022-09-10T15:10:21.000Z</time>
      </trkpt>
      <trkpt lat="43.87869" lon="7.61826">
        <ele>481.39999389648</ele>
        <time>2022-09-10T15:10:22.000Z</time>
      </trkpt>
      <trkpt lat="43.87863" lon="7.61828">
        <ele>480.79998779297</ele>
        <time>2022-09-10T15:10:23.000Z</time>
      </trkpt>
      <trkpt lat="43.87858" lon="7.6183">
        <ele>480</ele>
        <time>2022-09-10T15:10:24.000Z</time>
      </trkpt>
      <trkpt lat="43.87852" lon="7.6183">
        <ele>478.79998779297</ele>
        <time>2022-09-10T15:10:26.000Z</time>
      </trkpt>
      <trkpt lat="43.87849" lon="7.61833">
        <ele>478.60000610352</ele>
        <time>2022-09-10T15:10:27.000Z</time>
      </trkpt>
      <trkpt lat="43.87841" lon="7.61838">
        <ele>477.39999389648</ele>
        <time>2022-09-10T15:10:29.000Z</time>
      </trkpt>
      <trkpt lat="43.87831" lon="7.61843">
        <ele>477.20001220703</ele>
        <time>2022-09-10T15:10:31.000Z</time>
      </trkpt>
      <trkpt lat="43.87825" lon="7.61846">
        <ele>476.39999389648</ele>
        <time>2022-09-10T15:10:32.000Z</time>
      </trkpt>
      <trkpt lat="43.87819" lon="7.61848">
        <ele>475.39999389648</ele>
        <time>2022-09-10T15:10:33.000Z</time>
      </trkpt>
      <trkpt lat="43.87813" lon="7.61849">
        <ele>475</ele>
        <time>2022-09-10T15:10:34.000Z</time>
      </trkpt>
      <trkpt lat="43.87794" lon="7.6185">
        <ele>474</ele>
        <time>2022-09-10T15:10:37.000Z</time>
      </trkpt>
      <trkpt lat="43.87788" lon="7.61851">
        <ele>473.79998779297</ele>
        <time>2022-09-10T15:10:38.000Z</time>
      </trkpt>
      <trkpt lat="43.87779" lon="7.61858">
        <ele>473.20001220703</ele>
        <time>2022-09-10T15:10:40.000Z</time>
      </trkpt>
      <trkpt lat="43.87761" lon="7.61861">
        <ele>473.39999389648</ele>
        <time>2022-09-10T15:10:43.000Z</time>
      </trkpt>
      <trkpt lat="43.87748" lon="7.61865">
        <ele>473.39999389648</ele>
        <time>2022-09-10T15:10:45.000Z</time>
      </trkpt>
      <trkpt lat="43.87727" lon="7.61876">
        <ele>473.79998779297</ele>
        <time>2022-09-10T15:10:48.000Z</time>
      </trkpt>
      <trkpt lat="43.87704" lon="7.61892">
        <ele>473.20001220703</ele>
        <time>2022-09-10T15:10:52.000Z</time>
      </trkpt>
      <trkpt lat="43.877" lon="7.61895">
        <ele>472.79998779297</ele>
        <time>2022-09-10T15:10:53.000Z</time>
      </trkpt>
      <trkpt lat="43.87698" lon="7.61898">
        <ele>472.60000610352</ele>
        <time>2022-09-10T15:10:54.000Z</time>
      </trkpt>
      <trkpt lat="43.87695" lon="7.61905">
        <ele>471.79998779297</ele>
        <time>2022-09-10T15:10:56.000Z</time>
      </trkpt>
      <trkpt lat="43.87693" lon="7.61906">
        <ele>471.39999389648</ele>
        <time>2022-09-10T15:10:57.000Z</time>
      </trkpt>
      <trkpt lat="43.87685" lon="7.61907">
        <ele>470.20001220703</ele>
        <time>2022-09-10T15:10:59.000Z</time>
      </trkpt>
      <trkpt lat="43.8768" lon="7.61908">
        <ele>469.20001220703</ele>
        <time>2022-09-10T15:11:01.000Z</time>
      </trkpt>
      <trkpt lat="43.87676" lon="7.61909">
        <ele>468.60000610352</ele>
        <time>2022-09-10T15:11:02.000Z</time>
      </trkpt>
      <trkpt lat="43.87667" lon="7.6191">
        <ele>468</ele>
        <time>2022-09-10T15:11:04.000Z</time>
      </trkpt>
      <trkpt lat="43.87656" lon="7.61914">
        <ele>467.39999389648</ele>
        <time>2022-09-10T15:11:06.000Z</time>
      </trkpt>
      <trkpt lat="43.87651" lon="7.61914">
        <ele>467.20001220703</ele>
        <time>2022-09-10T15:11:07.000Z</time>
      </trkpt>
      <trkpt lat="43.87647" lon="7.61914">
        <ele>466</ele>
        <time>2022-09-10T15:11:08.000Z</time>
      </trkpt>
      <trkpt lat="43.87632" lon="7.61913">
        <ele>464.60000610352</ele>
        <time>2022-09-10T15:11:10.000Z</time>
      </trkpt>
      <trkpt lat="43.87624" lon="7.61914">
        <ele>463.39999389648</ele>
        <time>2022-09-10T15:11:11.000Z</time>
      </trkpt>
      <trkpt lat="43.87618" lon="7.61916">
        <ele>462.39999389648</ele>
        <time>2022-09-10T15:11:12.000Z</time>
      </trkpt>
      <trkpt lat="43.87612" lon="7.61918">
        <ele>460.79998779297</ele>
        <time>2022-09-10T15:11:13.000Z</time>
      </trkpt>
      <trkpt lat="43.87606" lon="7.61918">
        <ele>459</ele>
        <time>2022-09-10T15:11:14.000Z</time>
      </trkpt>
      <trkpt lat="43.87601" lon="7.61916">
        <ele>457.79998779297</ele>
        <time>2022-09-10T15:11:15.000Z</time>
      </trkpt>
      <trkpt lat="43.87596" lon="7.61912">
        <ele>457</ele>
        <time>2022-09-10T15:11:16.000Z</time>
      </trkpt>
      <trkpt lat="43.87589" lon="7.61906">
        <ele>455.60000610352</ele>
        <time>2022-09-10T15:11:17.000Z</time>
      </trkpt>
      <trkpt lat="43.87584" lon="7.61903">
        <ele>455.39999389648</ele>
        <time>2022-09-10T15:11:18.000Z</time>
      </trkpt>
      <trkpt lat="43.87577" lon="7.61901">
        <ele>454.60000610352</ele>
        <time>2022-09-10T15:11:19.000Z</time>
      </trkpt>
      <trkpt lat="43.87569" lon="7.61899">
        <ele>453.60000610352</ele>
        <time>2022-09-10T15:11:20.000Z</time>
      </trkpt>
      <trkpt lat="43.87558" lon="7.61894">
        <ele>451.39999389648</ele>
        <time>2022-09-10T15:11:22.000Z</time>
      </trkpt>
      <trkpt lat="43.87554" lon="7.61891">
        <ele>450.20001220703</ele>
        <time>2022-09-10T15:11:23.000Z</time>
      </trkpt>
      <trkpt lat="43.87552" lon="7.61891">
        <ele>448.20001220703</ele>
        <time>2022-09-10T15:11:24.000Z</time>
      </trkpt>
      <trkpt lat="43.87551" lon="7.61891">
        <ele>447</ele>
        <time>2022-09-10T15:11:25.000Z</time>
      </trkpt>
      <trkpt lat="43.87552" lon="7.61891">
        <ele>445.60000610352</ele>
        <time>2022-09-10T15:11:26.000Z</time>
      </trkpt>
      <trkpt lat="43.87552" lon="7.61891">
        <ele>444.39999389648</ele>
        <time>2022-09-10T15:11:28.000Z</time>
      </trkpt>
      <trkpt lat="43.87551" lon="7.61892">
        <ele>444.20001220703</ele>
        <time>2022-09-10T15:11:32.000Z</time>
      </trkpt>
      <trkpt lat="43.87551" lon="7.61893">
        <ele>444.60000610352</ele>
        <time>2022-09-10T15:11:43.000Z</time>
      </trkpt>
      <trkpt lat="43.87553" lon="7.61893">
        <ele>444.60000610352</ele>
        <time>2022-09-10T15:11:46.000Z</time>
      </trkpt>
      <trkpt lat="43.87553" lon="7.61893">
        <ele>444.60000610352</ele>
        <time>2022-09-10T15:11:47.000Z</time>
      </trkpt>
      <trkpt lat="43.87553" lon="7.61893">
        <ele>445</ele>
        <time>2022-09-10T15:11:53.000Z</time>
      </trkpt>
      <trkpt lat="43.87554" lon="7.61894">
        <ele>445</ele>
        <time>2022-09-10T15:12:01.000Z</time>
      </trkpt>
      <trkpt lat="43.87554" lon="7.61894">
        <ele>445.39999389648</ele>
        <time>2022-09-10T15:12:05.000Z</time>
      </trkpt>
      <trkpt lat="43.87553" lon="7.61894">
        <ele>445</ele>
        <time>2022-09-10T15:12:21.000Z</time>
      </trkpt>
      <trkpt lat="43.87553" lon="7.61895">
        <ele>445.20001220703</ele>
        <time>2022-09-10T15:12:30.000Z</time>
      </trkpt>
      <trkpt lat="43.87552" lon="7.61896">
        <ele>445.79998779297</ele>
        <time>2022-09-10T15:12:36.000Z</time>
      </trkpt>
      <trkpt lat="43.87549" lon="7.61902">
        <ele>445.79998779297</ele>
        <time>2022-09-10T15:12:39.000Z</time>
      </trkpt>
      <trkpt lat="43.87548" lon="7.61903">
        <ele>445.60000610352</ele>
        <time>2022-09-10T15:12:40.000Z</time>
      </trkpt>
      <trkpt lat="43.87541" lon="7.61895">
        <ele>445.20001220703</ele>
        <time>2022-09-10T15:12:43.000Z</time>
      </trkpt>
      <trkpt lat="43.87536" lon="7.61892">
        <ele>444</ele>
        <time>2022-09-10T15:12:45.000Z</time>
      </trkpt>
      <trkpt lat="43.87533" lon="7.61893">
        <ele>442.39999389648</ele>
        <time>2022-09-10T15:12:47.000Z</time>
      </trkpt>
      <trkpt lat="43.8753" lon="7.61894">
        <ele>441.20001220703</ele>
        <time>2022-09-10T15:12:49.000Z</time>
      </trkpt>
      <trkpt lat="43.87522" lon="7.61897">
        <ele>440.39999389648</ele>
        <time>2022-09-10T15:12:52.000Z</time>
      </trkpt>
      <trkpt lat="43.87519" lon="7.61895">
        <ele>439.60000610352</ele>
        <time>2022-09-10T15:12:53.000Z</time>
      </trkpt>
      <trkpt lat="43.87516" lon="7.61893">
        <ele>439</ele>
        <time>2022-09-10T15:12:54.000Z</time>
      </trkpt>
      <trkpt lat="43.87513" lon="7.61891">
        <ele>437.79998779297</ele>
        <time>2022-09-10T15:12:55.000Z</time>
      </trkpt>
      <trkpt lat="43.8751" lon="7.61891">
        <ele>436.60000610352</ele>
        <time>2022-09-10T15:12:56.000Z</time>
      </trkpt>
      <trkpt lat="43.87507" lon="7.61891">
        <ele>435.20001220703</ele>
        <time>2022-09-10T15:12:57.000Z</time>
      </trkpt>
      <trkpt lat="43.87505" lon="7.6189">
        <ele>434.20001220703</ele>
        <time>2022-09-10T15:12:58.000Z</time>
      </trkpt>
      <trkpt lat="43.87503" lon="7.6189">
        <ele>433.60000610352</ele>
        <time>2022-09-10T15:12:59.000Z</time>
      </trkpt>
      <trkpt lat="43.875" lon="7.6189">
        <ele>432.20001220703</ele>
        <time>2022-09-10T15:13:01.000Z</time>
      </trkpt>
      <trkpt lat="43.87496" lon="7.6189">
        <ele>432</ele>
        <time>2022-09-10T15:13:02.000Z</time>
      </trkpt>
      <trkpt lat="43.87491" lon="7.61889">
        <ele>431.20001220703</ele>
        <time>2022-09-10T15:13:04.000Z</time>
      </trkpt>
      <trkpt lat="43.87483" lon="7.61889">
        <ele>429.79998779297</ele>
        <time>2022-09-10T15:13:06.000Z</time>
      </trkpt>
      <trkpt lat="43.87477" lon="7.61881">
        <ele>428.79998779297</ele>
        <time>2022-09-10T15:13:08.000Z</time>
      </trkpt>
      <trkpt lat="43.87475" lon="7.61878">
        <ele>428</ele>
        <time>2022-09-10T15:13:09.000Z</time>
      </trkpt>
      <trkpt lat="43.87474" lon="7.61874">
        <ele>427.20001220703</ele>
        <time>2022-09-10T15:13:10.000Z</time>
      </trkpt>
      <trkpt lat="43.87476" lon="7.61871">
        <ele>426.20001220703</ele>
        <time>2022-09-10T15:13:11.000Z</time>
      </trkpt>
      <trkpt lat="43.87479" lon="7.6187">
        <ele>425</ele>
        <time>2022-09-10T15:13:12.000Z</time>
      </trkpt>
      <trkpt lat="43.87482" lon="7.61869">
        <ele>423.20001220703</ele>
        <time>2022-09-10T15:13:13.000Z</time>
      </trkpt>
      <trkpt lat="43.87489" lon="7.61866">
        <ele>421.39999389648</ele>
        <time>2022-09-10T15:13:15.000Z</time>
      </trkpt>
      <trkpt lat="43.87491" lon="7.61863">
        <ele>420.79998779297</ele>
        <time>2022-09-10T15:13:16.000Z</time>
      </trkpt>
      <trkpt lat="43.87492" lon="7.6186">
        <ele>420.39999389648</ele>
        <time>2022-09-10T15:13:17.000Z</time>
      </trkpt>
      <trkpt lat="43.87488" lon="7.6186">
        <ele>419</ele>
        <time>2022-09-10T15:13:19.000Z</time>
      </trkpt>
      <trkpt lat="43.8748" lon="7.61857">
        <ele>417.79998779297</ele>
        <time>2022-09-10T15:13:21.000Z</time>
      </trkpt>
      <trkpt lat="43.87474" lon="7.61855">
        <ele>417</ele>
        <time>2022-09-10T15:13:22.000Z</time>
      </trkpt>
      <trkpt lat="43.87468" lon="7.61852">
        <ele>416.79998779297</ele>
        <time>2022-09-10T15:13:23.000Z</time>
      </trkpt>
      <trkpt lat="43.87459" lon="7.61848">
        <ele>415.39999389648</ele>
        <time>2022-09-10T15:13:25.000Z</time>
      </trkpt>
      <trkpt lat="43.87456" lon="7.61847">
        <ele>414.79998779297</ele>
        <time>2022-09-10T15:13:26.000Z</time>
      </trkpt>
      <trkpt lat="43.87453" lon="7.61847">
        <ele>414.20001220703</ele>
        <time>2022-09-10T15:13:27.000Z</time>
      </trkpt>
      <trkpt lat="43.87449" lon="7.6185">
        <ele>411.60000610352</ele>
        <time>2022-09-10T15:13:29.000Z</time>
      </trkpt>
      <trkpt lat="43.87447" lon="7.61851">
        <ele>410.60000610352</ele>
        <time>2022-09-10T15:13:30.000Z</time>
      </trkpt>
      <trkpt lat="43.87445" lon="7.61851">
        <ele>409.39999389648</ele>
        <time>2022-09-10T15:13:31.000Z</time>
      </trkpt>
      <trkpt lat="43.87442" lon="7.6185">
        <ele>408</ele>
        <time>2022-09-10T15:13:33.000Z</time>
      </trkpt>
      <trkpt lat="43.87441" lon="7.61848">
        <ele>407.39999389648</ele>
        <time>2022-09-10T15:13:34.000Z</time>
      </trkpt>
      <trkpt lat="43.87442" lon="7.61844">
        <ele>406.60000610352</ele>
        <time>2022-09-10T15:13:36.000Z</time>
      </trkpt>
      <trkpt lat="43.87442" lon="7.61843">
        <ele>406.20001220703</ele>
        <time>2022-09-10T15:13:37.000Z</time>
      </trkpt>
      <trkpt lat="43.87441" lon="7.61841">
        <ele>405.60000610352</ele>
        <time>2022-09-10T15:13:38.000Z</time>
      </trkpt>
      <trkpt lat="43.87441" lon="7.61839">
        <ele>405.20001220703</ele>
        <time>2022-09-10T15:13:39.000Z</time>
      </trkpt>
      <trkpt lat="43.87442" lon="7.61831">
        <ele>404</ele>
        <time>2022-09-10T15:13:42.000Z</time>
      </trkpt>
      <trkpt lat="43.87441" lon="7.6183">
        <ele>403.60000610352</ele>
        <time>2022-09-10T15:13:43.000Z</time>
      </trkpt>
      <trkpt lat="43.87435" lon="7.61827">
        <ele>402.60000610352</ele>
        <time>2022-09-10T15:13:45.000Z</time>
      </trkpt>
      <trkpt lat="43.87432" lon="7.61825">
        <ele>402</ele>
        <time>2022-09-10T15:13:46.000Z</time>
      </trkpt>
      <trkpt lat="43.87429" lon="7.61823">
        <ele>401.20001220703</ele>
        <time>2022-09-10T15:13:47.000Z</time>
      </trkpt>
      <trkpt lat="43.87426" lon="7.61821">
        <ele>399.60000610352</ele>
        <time>2022-09-10T15:13:49.000Z</time>
      </trkpt>
      <trkpt lat="43.87424" lon="7.61819">
        <ele>399.39999389648</ele>
        <time>2022-09-10T15:13:50.000Z</time>
      </trkpt>
      <trkpt lat="43.87421" lon="7.61814">
        <ele>398.20001220703</ele>
        <time>2022-09-10T15:13:52.000Z</time>
      </trkpt>
      <trkpt lat="43.87417" lon="7.61809">
        <ele>397</ele>
        <time>2022-09-10T15:13:54.000Z</time>
      </trkpt>
      <trkpt lat="43.87415" lon="7.61809">
        <ele>396</ele>
        <time>2022-09-10T15:13:55.000Z</time>
      </trkpt>
      <trkpt lat="43.87412" lon="7.61808">
        <ele>395</ele>
        <time>2022-09-10T15:13:56.000Z</time>
      </trkpt>
      <trkpt lat="43.87409" lon="7.61802">
        <ele>393.60000610352</ele>
        <time>2022-09-10T15:13:58.000Z</time>
      </trkpt>
      <trkpt lat="43.87407" lon="7.61796">
        <ele>392.60000610352</ele>
        <time>2022-09-10T15:13:59.000Z</time>
      </trkpt>
      <trkpt lat="43.87404" lon="7.61791">
        <ele>391.60000610352</ele>
        <time>2022-09-10T15:14:00.000Z</time>
      </trkpt>
      <trkpt lat="43.87394" lon="7.61786">
        <ele>389.79998779297</ele>
        <time>2022-09-10T15:14:02.000Z</time>
      </trkpt>
      <trkpt lat="43.87388" lon="7.61782">
        <ele>389</ele>
        <time>2022-09-10T15:14:03.000Z</time>
      </trkpt>
      <trkpt lat="43.8738" lon="7.61778">
        <ele>387.60000610352</ele>
        <time>2022-09-10T15:14:04.000Z</time>
      </trkpt>
      <trkpt lat="43.8737" lon="7.61773">
        <ele>386</ele>
        <time>2022-09-10T15:14:05.000Z</time>
      </trkpt>
      <trkpt lat="43.87362" lon="7.61769">
        <ele>383.20001220703</ele>
        <time>2022-09-10T15:14:06.000Z</time>
      </trkpt>
      <trkpt lat="43.87354" lon="7.61763">
        <ele>381</ele>
        <time>2022-09-10T15:14:07.000Z</time>
      </trkpt>
      <trkpt lat="43.87348" lon="7.61759">
        <ele>378.60000610352</ele>
        <time>2022-09-10T15:14:08.000Z</time>
      </trkpt>
      <trkpt lat="43.87342" lon="7.61754">
        <ele>376.39999389648</ele>
        <time>2022-09-10T15:14:09.000Z</time>
      </trkpt>
      <trkpt lat="43.87338" lon="7.61752">
        <ele>374.60000610352</ele>
        <time>2022-09-10T15:14:10.000Z</time>
      </trkpt>
      <trkpt lat="43.87334" lon="7.6175">
        <ele>372.79998779297</ele>
        <time>2022-09-10T15:14:11.000Z</time>
      </trkpt>
      <trkpt lat="43.87331" lon="7.61749">
        <ele>371.60000610352</ele>
        <time>2022-09-10T15:14:12.000Z</time>
      </trkpt>
      <trkpt lat="43.87324" lon="7.61749">
        <ele>370</ele>
        <time>2022-09-10T15:14:14.000Z</time>
      </trkpt>
      <trkpt lat="43.87322" lon="7.6175">
        <ele>369</ele>
        <time>2022-09-10T15:14:15.000Z</time>
      </trkpt>
      <trkpt lat="43.8732" lon="7.61753">
        <ele>368.39999389648</ele>
        <time>2022-09-10T15:14:16.000Z</time>
      </trkpt>
      <trkpt lat="43.87317" lon="7.61763">
        <ele>367.20001220703</ele>
        <time>2022-09-10T15:14:19.000Z</time>
      </trkpt>
      <trkpt lat="43.87316" lon="7.61771">
        <ele>366.39999389648</ele>
        <time>2022-09-10T15:14:21.000Z</time>
      </trkpt>
      <trkpt lat="43.87315" lon="7.61775">
        <ele>365.79998779297</ele>
        <time>2022-09-10T15:14:22.000Z</time>
      </trkpt>
      <trkpt lat="43.8731" lon="7.61777">
        <ele>364.39999389648</ele>
        <time>2022-09-10T15:14:24.000Z</time>
      </trkpt>
      <trkpt lat="43.87304" lon="7.6177">
        <ele>363</ele>
        <time>2022-09-10T15:14:26.000Z</time>
      </trkpt>
      <trkpt lat="43.87299" lon="7.61766">
        <ele>362.20001220703</ele>
        <time>2022-09-10T15:14:27.000Z</time>
      </trkpt>
      <trkpt lat="43.87294" lon="7.61762">
        <ele>361.39999389648</ele>
        <time>2022-09-10T15:14:28.000Z</time>
      </trkpt>
      <trkpt lat="43.87287" lon="7.61757">
        <ele>360.39999389648</ele>
        <time>2022-09-10T15:14:29.000Z</time>
      </trkpt>
      <trkpt lat="43.87282" lon="7.61753">
        <ele>359.39999389648</ele>
        <time>2022-09-10T15:14:30.000Z</time>
      </trkpt>
      <trkpt lat="43.87279" lon="7.61748">
        <ele>358.20001220703</ele>
        <time>2022-09-10T15:14:31.000Z</time>
      </trkpt>
      <trkpt lat="43.87279" lon="7.61742">
        <ele>357</ele>
        <time>2022-09-10T15:14:32.000Z</time>
      </trkpt>
      <trkpt lat="43.87279" lon="7.61737">
        <ele>356.20001220703</ele>
        <time>2022-09-10T15:14:33.000Z</time>
      </trkpt>
      <trkpt lat="43.87278" lon="7.61732">
        <ele>355.39999389648</ele>
        <time>2022-09-10T15:14:34.000Z</time>
      </trkpt>
      <trkpt lat="43.87273" lon="7.6173">
        <ele>354.39999389648</ele>
        <time>2022-09-10T15:14:35.000Z</time>
      </trkpt>
      <trkpt lat="43.87267" lon="7.61731">
        <ele>353.39999389648</ele>
        <time>2022-09-10T15:14:36.000Z</time>
      </trkpt>
      <trkpt lat="43.87259" lon="7.61731">
        <ele>352.79998779297</ele>
        <time>2022-09-10T15:14:37.000Z</time>
      </trkpt>
      <trkpt lat="43.87252" lon="7.61732">
        <ele>352</ele>
        <time>2022-09-10T15:14:38.000Z</time>
      </trkpt>
      <trkpt lat="43.87242" lon="7.61735">
        <ele>350.79998779297</ele>
        <time>2022-09-10T15:14:39.000Z</time>
      </trkpt>
      <trkpt lat="43.87234" lon="7.6174">
        <ele>349.39999389648</ele>
        <time>2022-09-10T15:14:40.000Z</time>
      </trkpt>
      <trkpt lat="43.87228" lon="7.61747">
        <ele>350.60000610352</ele>
        <time>2022-09-10T15:14:41.000Z</time>
      </trkpt>
      <trkpt lat="43.87223" lon="7.61765">
        <ele>349.60000610352</ele>
        <time>2022-09-10T15:14:43.000Z</time>
      </trkpt>
      <trkpt lat="43.87218" lon="7.61785">
        <ele>348.39999389648</ele>
        <time>2022-09-10T15:14:46.000Z</time>
      </trkpt>
      <trkpt lat="43.87212" lon="7.61797">
        <ele>346.39999389648</ele>
        <time>2022-09-10T15:14:48.000Z</time>
      </trkpt>
      <trkpt lat="43.87211" lon="7.61803">
        <ele>344.79998779297</ele>
        <time>2022-09-10T15:14:49.000Z</time>
      </trkpt>
      <trkpt lat="43.87214" lon="7.61809">
        <ele>343</ele>
        <time>2022-09-10T15:14:50.000Z</time>
      </trkpt>
      <trkpt lat="43.87219" lon="7.61812">
        <ele>341.39999389648</ele>
        <time>2022-09-10T15:14:51.000Z</time>
      </trkpt>
      <trkpt lat="43.87224" lon="7.61814">
        <ele>340</ele>
        <time>2022-09-10T15:14:52.000Z</time>
      </trkpt>
      <trkpt lat="43.87231" lon="7.61817">
        <ele>338.79998779297</ele>
        <time>2022-09-10T15:14:53.000Z</time>
      </trkpt>
      <trkpt lat="43.87238" lon="7.61821">
        <ele>337.79998779297</ele>
        <time>2022-09-10T15:14:54.000Z</time>
      </trkpt>
      <trkpt lat="43.87249" lon="7.61833">
        <ele>335.60000610352</ele>
        <time>2022-09-10T15:14:56.000Z</time>
      </trkpt>
      <trkpt lat="43.87253" lon="7.61838">
        <ele>334.39999389648</ele>
        <time>2022-09-10T15:14:57.000Z</time>
      </trkpt>
      <trkpt lat="43.87256" lon="7.61841">
        <ele>332.60000610352</ele>
        <time>2022-09-10T15:14:58.000Z</time>
      </trkpt>
      <trkpt lat="43.87259" lon="7.61846">
        <ele>331</ele>
        <time>2022-09-10T15:14:59.000Z</time>
      </trkpt>
      <trkpt lat="43.87259" lon="7.61851">
        <ele>329.79998779297</ele>
        <time>2022-09-10T15:15:00.000Z</time>
      </trkpt>
      <trkpt lat="43.87258" lon="7.61854">
        <ele>328.79998779297</ele>
        <time>2022-09-10T15:15:01.000Z</time>
      </trkpt>
      <trkpt lat="43.87254" lon="7.61855">
        <ele>327.60000610352</ele>
        <time>2022-09-10T15:15:02.000Z</time>
      </trkpt>
      <trkpt lat="43.87244" lon="7.61851">
        <ele>326</ele>
        <time>2022-09-10T15:15:04.000Z</time>
      </trkpt>
      <trkpt lat="43.87239" lon="7.61852">
        <ele>325.39999389648</ele>
        <time>2022-09-10T15:15:05.000Z</time>
      </trkpt>
      <trkpt lat="43.8723" lon="7.61853">
        <ele>324.39999389648</ele>
        <time>2022-09-10T15:15:06.000Z</time>
      </trkpt>
      <trkpt lat="43.87221" lon="7.61855">
        <ele>323.60000610352</ele>
        <time>2022-09-10T15:15:07.000Z</time>
      </trkpt>
      <trkpt lat="43.87213" lon="7.61856">
        <ele>322.60000610352</ele>
        <time>2022-09-10T15:15:08.000Z</time>
      </trkpt>
      <trkpt lat="43.87203" lon="7.61857">
        <ele>321.39999389648</ele>
        <time>2022-09-10T15:15:09.000Z</time>
      </trkpt>
      <trkpt lat="43.87194" lon="7.61858">
        <ele>320.39999389648</ele>
        <time>2022-09-10T15:15:10.000Z</time>
      </trkpt>
      <trkpt lat="43.87185" lon="7.61861">
        <ele>319.39999389648</ele>
        <time>2022-09-10T15:15:11.000Z</time>
      </trkpt>
      <trkpt lat="43.87178" lon="7.61863">
        <ele>318.60000610352</ele>
        <time>2022-09-10T15:15:12.000Z</time>
      </trkpt>
      <trkpt lat="43.87173" lon="7.61863">
        <ele>318.39999389648</ele>
        <time>2022-09-10T15:15:13.000Z</time>
      </trkpt>
      <trkpt lat="43.87161" lon="7.61864">
        <ele>317.39999389648</ele>
        <time>2022-09-10T15:15:15.000Z</time>
      </trkpt>
      <trkpt lat="43.8715" lon="7.61862">
        <ele>316</ele>
        <time>2022-09-10T15:15:17.000Z</time>
      </trkpt>
      <trkpt lat="43.87144" lon="7.6186">
        <ele>315.39999389648</ele>
        <time>2022-09-10T15:15:18.000Z</time>
      </trkpt>
      <trkpt lat="43.87138" lon="7.61858">
        <ele>314.79998779297</ele>
        <time>2022-09-10T15:15:19.000Z</time>
      </trkpt>
      <trkpt lat="43.87125" lon="7.61853">
        <ele>313.60000610352</ele>
        <time>2022-09-10T15:15:21.000Z</time>
      </trkpt>
      <trkpt lat="43.87114" lon="7.6185">
        <ele>312.60000610352</ele>
        <time>2022-09-10T15:15:23.000Z</time>
      </trkpt>
      <trkpt lat="43.87101" lon="7.61848">
        <ele>311</ele>
        <time>2022-09-10T15:15:25.000Z</time>
      </trkpt>
      <trkpt lat="43.87087" lon="7.61844">
        <ele>309.79998779297</ele>
        <time>2022-09-10T15:15:27.000Z</time>
      </trkpt>
      <trkpt lat="43.87066" lon="7.61836">
        <ele>308.39999389648</ele>
        <time>2022-09-10T15:15:30.000Z</time>
      </trkpt>
      <trkpt lat="43.87059" lon="7.61833">
        <ele>307</ele>
        <time>2022-09-10T15:15:31.000Z</time>
      </trkpt>
      <trkpt lat="43.87048" lon="7.61827">
        <ele>306.20001220703</ele>
        <time>2022-09-10T15:15:33.000Z</time>
      </trkpt>
      <trkpt lat="43.87044" lon="7.61821">
        <ele>305.20001220703</ele>
        <time>2022-09-10T15:15:34.000Z</time>
      </trkpt>
      <trkpt lat="43.87039" lon="7.61816">
        <ele>303.60000610352</ele>
        <time>2022-09-10T15:15:35.000Z</time>
      </trkpt>
      <trkpt lat="43.87033" lon="7.61815">
        <ele>302.39999389648</ele>
        <time>2022-09-10T15:15:36.000Z</time>
      </trkpt>
      <trkpt lat="43.87026" lon="7.61818">
        <ele>301.20001220703</ele>
        <time>2022-09-10T15:15:37.000Z</time>
      </trkpt>
      <trkpt lat="43.87013" lon="7.61825">
        <ele>299.20001220703</ele>
        <time>2022-09-10T15:15:39.000Z</time>
      </trkpt>
      <trkpt lat="43.87007" lon="7.61826">
        <ele>298</ele>
        <time>2022-09-10T15:15:40.000Z</time>
      </trkpt>
      <trkpt lat="43.87" lon="7.61826">
        <ele>297</ele>
        <time>2022-09-10T15:15:41.000Z</time>
      </trkpt>
      <trkpt lat="43.86995" lon="7.61825">
        <ele>296.20001220703</ele>
        <time>2022-09-10T15:15:42.000Z</time>
      </trkpt>
      <trkpt lat="43.86991" lon="7.61815">
        <ele>294.39999389648</ele>
        <time>2022-09-10T15:15:44.000Z</time>
      </trkpt>
      <trkpt lat="43.86996" lon="7.61806">
        <ele>293.60000610352</ele>
        <time>2022-09-10T15:15:46.000Z</time>
      </trkpt>
      <trkpt lat="43.87001" lon="7.61804">
        <ele>293.20001220703</ele>
        <time>2022-09-10T15:15:47.000Z</time>
      </trkpt>
      <trkpt lat="43.87015" lon="7.61796">
        <ele>293</ele>
        <time>2022-09-10T15:15:50.000Z</time>
      </trkpt>
      <trkpt lat="43.87023" lon="7.6178">
        <ele>292.39999389648</ele>
        <time>2022-09-10T15:15:53.000Z</time>
      </trkpt>
      <trkpt lat="43.87026" lon="7.61773">
        <ele>292.20001220703</ele>
        <time>2022-09-10T15:15:54.000Z</time>
      </trkpt>
      <trkpt lat="43.87029" lon="7.61767">
        <ele>291.79998779297</ele>
        <time>2022-09-10T15:15:55.000Z</time>
      </trkpt>
      <trkpt lat="43.87033" lon="7.61757">
        <ele>290.79998779297</ele>
        <time>2022-09-10T15:15:57.000Z</time>
      </trkpt>
      <trkpt lat="43.87036" lon="7.61749">
        <ele>289.79998779297</ele>
        <time>2022-09-10T15:15:59.000Z</time>
      </trkpt>
      <trkpt lat="43.87037" lon="7.61745">
        <ele>289.39999389648</ele>
        <time>2022-09-10T15:16:00.000Z</time>
      </trkpt>
      <trkpt lat="43.87041" lon="7.6174">
        <ele>289</ele>
        <time>2022-09-10T15:16:02.000Z</time>
      </trkpt>
      <trkpt lat="43.87043" lon="7.6174">
        <ele>289</ele>
        <time>2022-09-10T15:16:03.000Z</time>
      </trkpt>
      <trkpt lat="43.87061" lon="7.61735">
        <ele>288.39999389648</ele>
        <time>2022-09-10T15:16:08.000Z</time>
      </trkpt>
      <trkpt lat="43.87065" lon="7.61735">
        <ele>288.20001220703</ele>
        <time>2022-09-10T15:16:09.000Z</time>
      </trkpt>
      <trkpt lat="43.8707" lon="7.61733">
        <ele>287.79998779297</ele>
        <time>2022-09-10T15:16:10.000Z</time>
      </trkpt>
      <trkpt lat="43.87081" lon="7.61727">
        <ele>287</ele>
        <time>2022-09-10T15:16:12.000Z</time>
      </trkpt>
      <trkpt lat="43.87086" lon="7.61721">
        <ele>286.60000610352</ele>
        <time>2022-09-10T15:16:13.000Z</time>
      </trkpt>
      <trkpt lat="43.87091" lon="7.61713">
        <ele>286</ele>
        <time>2022-09-10T15:16:14.000Z</time>
      </trkpt>
      <trkpt lat="43.87095" lon="7.61706">
        <ele>285.20001220703</ele>
        <time>2022-09-10T15:16:15.000Z</time>
      </trkpt>
      <trkpt lat="43.87099" lon="7.617">
        <ele>284.39999389648</ele>
        <time>2022-09-10T15:16:16.000Z</time>
      </trkpt>
      <trkpt lat="43.87103" lon="7.61694">
        <ele>283.79998779297</ele>
        <time>2022-09-10T15:16:17.000Z</time>
      </trkpt>
      <trkpt lat="43.87108" lon="7.6169">
        <ele>283.39999389648</ele>
        <time>2022-09-10T15:16:18.000Z</time>
      </trkpt>
      <trkpt lat="43.87117" lon="7.61687">
        <ele>282.79998779297</ele>
        <time>2022-09-10T15:16:20.000Z</time>
      </trkpt>
      <trkpt lat="43.87133" lon="7.61683">
        <ele>283.60000610352</ele>
        <time>2022-09-10T15:16:25.000Z</time>
      </trkpt>
      <trkpt lat="43.87156" lon="7.61667">
        <ele>283.39999389648</ele>
        <time>2022-09-10T15:16:30.000Z</time>
      </trkpt>
      <trkpt lat="43.87171" lon="7.61653">
        <ele>282</ele>
        <time>2022-09-10T15:16:33.000Z</time>
      </trkpt>
      <trkpt lat="43.87176" lon="7.61644">
        <ele>280.39999389648</ele>
        <time>2022-09-10T15:16:35.000Z</time>
      </trkpt>
      <trkpt lat="43.87183" lon="7.61631">
        <ele>279</ele>
        <time>2022-09-10T15:16:37.000Z</time>
      </trkpt>
      <trkpt lat="43.87187" lon="7.61624">
        <ele>278.39999389648</ele>
        <time>2022-09-10T15:16:38.000Z</time>
      </trkpt>
      <trkpt lat="43.87193" lon="7.61617">
        <ele>277.79998779297</ele>
        <time>2022-09-10T15:16:39.000Z</time>
      </trkpt>
      <trkpt lat="43.87204" lon="7.61606">
        <ele>276.39999389648</ele>
        <time>2022-09-10T15:16:41.000Z</time>
      </trkpt>
      <trkpt lat="43.8721" lon="7.61602">
        <ele>275.79998779297</ele>
        <time>2022-09-10T15:16:42.000Z</time>
      </trkpt>
      <trkpt lat="43.87216" lon="7.61598">
        <ele>275.39999389648</ele>
        <time>2022-09-10T15:16:43.000Z</time>
      </trkpt>
      <trkpt lat="43.87233" lon="7.61587">
        <ele>274.60000610352</ele>
        <time>2022-09-10T15:16:46.000Z</time>
      </trkpt>
      <trkpt lat="43.87239" lon="7.61589">
        <ele>273.79998779297</ele>
        <time>2022-09-10T15:16:47.000Z</time>
      </trkpt>
      <trkpt lat="43.87249" lon="7.61595">
        <ele>272.39999389648</ele>
        <time>2022-09-10T15:16:49.000Z</time>
      </trkpt>
      <trkpt lat="43.87253" lon="7.61597">
        <ele>271.60000610352</ele>
        <time>2022-09-10T15:16:50.000Z</time>
      </trkpt>
      <trkpt lat="43.87256" lon="7.61597">
        <ele>271</ele>
        <time>2022-09-10T15:16:51.000Z</time>
      </trkpt>
      <trkpt lat="43.87257" lon="7.61595">
        <ele>270.60000610352</ele>
        <time>2022-09-10T15:16:52.000Z</time>
      </trkpt>
      <trkpt lat="43.87254" lon="7.6159">
        <ele>269.79998779297</ele>
        <time>2022-09-10T15:16:54.000Z</time>
      </trkpt>
      <trkpt lat="43.87251" lon="7.61587">
        <ele>269.39999389648</ele>
        <time>2022-09-10T15:16:55.000Z</time>
      </trkpt>
      <trkpt lat="43.87247" lon="7.61584">
        <ele>269</ele>
        <time>2022-09-10T15:16:56.000Z</time>
      </trkpt>
      <trkpt lat="43.87237" lon="7.61578">
        <ele>268.60000610352</ele>
        <time>2022-09-10T15:16:58.000Z</time>
      </trkpt>
      <trkpt lat="43.8722" lon="7.61577">
        <ele>267.39999389648</ele>
        <time>2022-09-10T15:17:01.000Z</time>
      </trkpt>
      <trkpt lat="43.87215" lon="7.61581">
        <ele>267</ele>
        <time>2022-09-10T15:17:02.000Z</time>
      </trkpt>
      <trkpt lat="43.87205" lon="7.61593">
        <ele>266.60000610352</ele>
        <time>2022-09-10T15:17:05.000Z</time>
      </trkpt>
      <trkpt lat="43.87202" lon="7.61596">
        <ele>266.60000610352</ele>
        <time>2022-09-10T15:17:06.000Z</time>
      </trkpt>
      <trkpt lat="43.87186" lon="7.6161">
        <ele>268.39999389648</ele>
        <time>2022-09-10T15:17:11.000Z</time>
      </trkpt>
      <trkpt lat="43.87171" lon="7.61631">
        <ele>268.60000610352</ele>
        <time>2022-09-10T15:17:15.000Z</time>
      </trkpt>
      <trkpt lat="43.87167" lon="7.61636">
        <ele>268.60000610352</ele>
        <time>2022-09-10T15:17:16.000Z</time>
      </trkpt>
      <trkpt lat="43.87146" lon="7.61646">
        <ele>268.20001220703</ele>
        <time>2022-09-10T15:17:20.000Z</time>
      </trkpt>
      <trkpt lat="43.87138" lon="7.61647">
        <ele>268.20001220703</ele>
        <time>2022-09-10T15:17:21.000Z</time>
      </trkpt>
      <trkpt lat="43.8712" lon="7.6165">
        <ele>266.39999389648</ele>
        <time>2022-09-10T15:17:23.000Z</time>
      </trkpt>
      <trkpt lat="43.8711" lon="7.6165">
        <ele>265.20001220703</ele>
        <time>2022-09-10T15:17:24.000Z</time>
      </trkpt>
      <trkpt lat="43.87102" lon="7.61651">
        <ele>263.60000610352</ele>
        <time>2022-09-10T15:17:25.000Z</time>
      </trkpt>
      <trkpt lat="43.87095" lon="7.61654">
        <ele>262</ele>
        <time>2022-09-10T15:17:26.000Z</time>
      </trkpt>
      <trkpt lat="43.87088" lon="7.61659">
        <ele>260.79998779297</ele>
        <time>2022-09-10T15:17:27.000Z</time>
      </trkpt>
      <trkpt lat="43.87076" lon="7.61672">
        <ele>259.20001220703</ele>
        <time>2022-09-10T15:17:29.000Z</time>
      </trkpt>
      <trkpt lat="43.87061" lon="7.61678">
        <ele>257.39999389648</ele>
        <time>2022-09-10T15:17:31.000Z</time>
      </trkpt>
      <trkpt lat="43.87054" lon="7.61676">
        <ele>256.39999389648</ele>
        <time>2022-09-10T15:17:32.000Z</time>
      </trkpt>
      <trkpt lat="43.87046" lon="7.61674">
        <ele>255.19999694824</ele>
        <time>2022-09-10T15:17:33.000Z</time>
      </trkpt>
      <trkpt lat="43.87038" lon="7.61667">
        <ele>254</ele>
        <time>2022-09-10T15:17:34.000Z</time>
      </trkpt>
      <trkpt lat="43.87031" lon="7.6166">
        <ele>253</ele>
        <time>2022-09-10T15:17:35.000Z</time>
      </trkpt>
      <trkpt lat="43.87018" lon="7.61652">
        <ele>251</ele>
        <time>2022-09-10T15:17:37.000Z</time>
      </trkpt>
      <trkpt lat="43.87006" lon="7.6165">
        <ele>248.80000305176</ele>
        <time>2022-09-10T15:17:39.000Z</time>
      </trkpt>
      <trkpt lat="43.87002" lon="7.61652">
        <ele>247.39999389648</ele>
        <time>2022-09-10T15:17:40.000Z</time>
      </trkpt>
      <trkpt lat="43.86998" lon="7.61656">
        <ele>246</ele>
        <time>2022-09-10T15:17:41.000Z</time>
      </trkpt>
      <trkpt lat="43.86994" lon="7.61661">
        <ele>244.39999389648</ele>
        <time>2022-09-10T15:17:42.000Z</time>
      </trkpt>
      <trkpt lat="43.86989" lon="7.61667">
        <ele>243.39999389648</ele>
        <time>2022-09-10T15:17:43.000Z</time>
      </trkpt>
      <trkpt lat="43.86982" lon="7.61673">
        <ele>242.19999694824</ele>
        <time>2022-09-10T15:17:44.000Z</time>
      </trkpt>
      <trkpt lat="43.86975" lon="7.61679">
        <ele>241</ele>
        <time>2022-09-10T15:17:45.000Z</time>
      </trkpt>
      <trkpt lat="43.86969" lon="7.61682">
        <ele>240</ele>
        <time>2022-09-10T15:17:46.000Z</time>
      </trkpt>
      <trkpt lat="43.86963" lon="7.61685">
        <ele>238.60000610352</ele>
        <time>2022-09-10T15:17:47.000Z</time>
      </trkpt>
      <trkpt lat="43.86957" lon="7.61686">
        <ele>237</ele>
        <time>2022-09-10T15:17:48.000Z</time>
      </trkpt>
      <trkpt lat="43.86951" lon="7.61687">
        <ele>235.60000610352</ele>
        <time>2022-09-10T15:17:49.000Z</time>
      </trkpt>
      <trkpt lat="43.86943" lon="7.61686">
        <ele>234</ele>
        <time>2022-09-10T15:17:50.000Z</time>
      </trkpt>
      <trkpt lat="43.86936" lon="7.61685">
        <ele>232.60000610352</ele>
        <time>2022-09-10T15:17:51.000Z</time>
      </trkpt>
      <trkpt lat="43.86929" lon="7.61684">
        <ele>231.19999694824</ele>
        <time>2022-09-10T15:17:52.000Z</time>
      </trkpt>
      <trkpt lat="43.86924" lon="7.61682">
        <ele>229.80000305176</ele>
        <time>2022-09-10T15:17:53.000Z</time>
      </trkpt>
      <trkpt lat="43.8692" lon="7.61681">
        <ele>228.19999694824</ele>
        <time>2022-09-10T15:17:54.000Z</time>
      </trkpt>
      <trkpt lat="43.86916" lon="7.6168">
        <ele>226.80000305176</ele>
        <time>2022-09-10T15:17:56.000Z</time>
      </trkpt>
      <trkpt lat="43.86915" lon="7.6168">
        <ele>226.19999694824</ele>
        <time>2022-09-10T15:17:57.000Z</time>
      </trkpt>
      <trkpt lat="43.86913" lon="7.61679">
        <ele>225.80000305176</ele>
        <time>2022-09-10T15:18:00.000Z</time>
      </trkpt>
      <trkpt lat="43.86913" lon="7.61679">
        <ele>225.39999389648</ele>
        <time>2022-09-10T15:18:02.000Z</time>
      </trkpt>
      <trkpt lat="43.86908" lon="7.61677">
        <ele>225.39999389648</ele>
        <time>2022-09-10T15:18:16.000Z</time>
      </trkpt>
      <trkpt lat="43.86903" lon="7.61673">
        <ele>224.80000305176</ele>
        <time>2022-09-10T15:18:21.000Z</time>
      </trkpt>
      <trkpt lat="43.86902" lon="7.61674">
        <ele>224.80000305176</ele>
        <time>2022-09-10T15:18:22.000Z</time>
      </trkpt>
      <trkpt lat="43.86901" lon="7.61677">
        <ele>224.39999389648</ele>
        <time>2022-09-10T15:18:27.000Z</time>
      </trkpt>
      <trkpt lat="43.86899" lon="7.61677">
        <ele>224.39999389648</ele>
        <time>2022-09-10T15:18:28.000Z</time>
      </trkpt>
      <trkpt lat="43.86894" lon="7.61683">
        <ele>224.80000305176</ele>
        <time>2022-09-10T15:18:30.000Z</time>
      </trkpt>
      <trkpt lat="43.86886" lon="7.61691">
        <ele>224.60000610352</ele>
        <time>2022-09-10T15:18:33.000Z</time>
      </trkpt>
      <trkpt lat="43.8688" lon="7.61695">
        <ele>223.80000305176</ele>
        <time>2022-09-10T15:18:35.000Z</time>
      </trkpt>
      <trkpt lat="43.86877" lon="7.61697">
        <ele>223.39999389648</ele>
        <time>2022-09-10T15:18:36.000Z</time>
      </trkpt>
      <trkpt lat="43.86872" lon="7.61703">
        <ele>222.19999694824</ele>
        <time>2022-09-10T15:18:38.000Z</time>
      </trkpt>
      <trkpt lat="43.8687" lon="7.61706">
        <ele>221.39999389648</ele>
        <time>2022-09-10T15:18:39.000Z</time>
      </trkpt>
      <trkpt lat="43.86868" lon="7.61709">
        <ele>220.80000305176</ele>
        <time>2022-09-10T15:18:40.000Z</time>
      </trkpt>
      <trkpt lat="43.86865" lon="7.61713">
        <ele>219.39999389648</ele>
        <time>2022-09-10T15:18:42.000Z</time>
      </trkpt>
      <trkpt lat="43.86864" lon="7.61713">
        <ele>218.80000305176</ele>
        <time>2022-09-10T15:18:43.000Z</time>
      </trkpt>
      <trkpt lat="43.86864" lon="7.61708">
        <ele>218.39999389648</ele>
        <time>2022-09-10T15:18:45.000Z</time>
      </trkpt>
      <trkpt lat="43.86865" lon="7.61705">
        <ele>217.80000305176</ele>
        <time>2022-09-10T15:18:46.000Z</time>
      </trkpt>
      <trkpt lat="43.86867" lon="7.61701">
        <ele>217</ele>
        <time>2022-09-10T15:18:48.000Z</time>
      </trkpt>
      <trkpt lat="43.86865" lon="7.617">
        <ele>216</ele>
        <time>2022-09-10T15:18:50.000Z</time>
      </trkpt>
      <trkpt lat="43.8686" lon="7.61704">
        <ele>214.80000305176</ele>
        <time>2022-09-10T15:18:52.000Z</time>
      </trkpt>
      <trkpt lat="43.86858" lon="7.61707">
        <ele>214.19999694824</ele>
        <time>2022-09-10T15:18:53.000Z</time>
      </trkpt>
      <trkpt lat="43.86855" lon="7.6171">
        <ele>213.80000305176</ele>
        <time>2022-09-10T15:18:54.000Z</time>
      </trkpt>
      <trkpt lat="43.86848" lon="7.61714">
        <ele>212.60000610352</ele>
        <time>2022-09-10T15:18:56.000Z</time>
      </trkpt>
      <trkpt lat="43.86843" lon="7.61715">
        <ele>211.19999694824</ele>
        <time>2022-09-10T15:18:58.000Z</time>
      </trkpt>
      <trkpt lat="43.86843" lon="7.61716">
        <ele>210</ele>
        <time>2022-09-10T15:18:59.000Z</time>
      </trkpt>
      <trkpt lat="43.86843" lon="7.61716">
        <ele>208.39999389648</ele>
        <time>2022-09-10T15:19:01.000Z</time>
      </trkpt>
      <trkpt lat="43.86842" lon="7.61716">
        <ele>207.39999389648</ele>
        <time>2022-09-10T15:19:04.000Z</time>
      </trkpt>
      <trkpt lat="43.86842" lon="7.61716">
        <ele>207.19999694824</ele>
        <time>2022-09-10T15:19:07.000Z</time>
      </trkpt>
      <trkpt lat="43.86841" lon="7.61716">
        <ele>207.19999694824</ele>
        <time>2022-09-10T15:19:14.000Z</time>
      </trkpt>
      <trkpt lat="43.86839" lon="7.61716">
        <ele>207.19999694824</ele>
        <time>2022-09-10T15:19:27.000Z</time>
      </trkpt>
      <trkpt lat="43.86839" lon="7.61716">
        <ele>207.19999694824</ele>
        <time>2022-09-10T15:19:36.000Z</time>
      </trkpt>
      <trkpt lat="43.86839" lon="7.61716">
        <ele>207.19999694824</ele>
        <time>2022-09-10T15:19:46.000Z</time>
      </trkpt>
      <trkpt lat="43.86838" lon="7.61716">
        <ele>206.80000305176</ele>
        <time>2022-09-10T15:20:05.000Z</time>
      </trkpt>
      <trkpt lat="43.86836" lon="7.61716">
        <ele>206.80000305176</ele>
        <time>2022-09-10T15:20:17.000Z</time>
      </trkpt>
      <trkpt lat="43.86834" lon="7.61717">
        <ele>206.39999389648</ele>
        <time>2022-09-10T15:20:19.000Z</time>
      </trkpt>
      <trkpt lat="43.86833" lon="7.61717">
        <ele>206.19999694824</ele>
        <time>2022-09-10T15:20:20.000Z</time>
      </trkpt>
      <trkpt lat="43.86832" lon="7.61718">
        <ele>205.19999694824</ele>
        <time>2022-09-10T15:20:23.000Z</time>
      </trkpt>
      <trkpt lat="43.8682" lon="7.61718">
        <ele>204.80000305176</ele>
        <time>2022-09-10T15:20:26.000Z</time>
      </trkpt>
      <trkpt lat="43.86816" lon="7.61718">
        <ele>204.39999389648</ele>
        <time>2022-09-10T15:20:27.000Z</time>
      </trkpt>
      <trkpt lat="43.86812" lon="7.61719">
        <ele>203.80000305176</ele>
        <time>2022-09-10T15:20:28.000Z</time>
      </trkpt>
      <trkpt lat="43.86804" lon="7.61725">
        <ele>202.39999389648</ele>
        <time>2022-09-10T15:20:30.000Z</time>
      </trkpt>
      <trkpt lat="43.86799" lon="7.61726">
        <ele>201.60000610352</ele>
        <time>2022-09-10T15:20:31.000Z</time>
      </trkpt>
      <trkpt lat="43.86795" lon="7.61727">
        <ele>201</ele>
        <time>2022-09-10T15:20:32.000Z</time>
      </trkpt>
      <trkpt lat="43.86788" lon="7.61726">
        <ele>199.39999389648</ele>
        <time>2022-09-10T15:20:34.000Z</time>
      </trkpt>
      <trkpt lat="43.86785" lon="7.61725">
        <ele>198.80000305176</ele>
        <time>2022-09-10T15:20:35.000Z</time>
      </trkpt>
      <trkpt lat="43.86781" lon="7.61725">
        <ele>198</ele>
        <time>2022-09-10T15:20:36.000Z</time>
      </trkpt>
      <trkpt lat="43.86776" lon="7.61725">
        <ele>197.19999694824</ele>
        <time>2022-09-10T15:20:37.000Z</time>
      </trkpt>
      <trkpt lat="43.86772" lon="7.61723">
        <ele>195.80000305176</ele>
        <time>2022-09-10T15:20:38.000Z</time>
      </trkpt>
      <trkpt lat="43.86767" lon="7.61722">
        <ele>195</ele>
        <time>2022-09-10T15:20:39.000Z</time>
      </trkpt>
      <trkpt lat="43.86762" lon="7.61722">
        <ele>194</ele>
        <time>2022-09-10T15:20:40.000Z</time>
      </trkpt>
      <trkpt lat="43.86757" lon="7.61722">
        <ele>193</ele>
        <time>2022-09-10T15:20:41.000Z</time>
      </trkpt>
      <trkpt lat="43.86747" lon="7.61725">
        <ele>191.39999389648</ele>
        <time>2022-09-10T15:20:43.000Z</time>
      </trkpt>
      <trkpt lat="43.86743" lon="7.61726">
        <ele>190.19999694824</ele>
        <time>2022-09-10T15:20:44.000Z</time>
      </trkpt>
      <trkpt lat="43.86737" lon="7.61726">
        <ele>188.80000305176</ele>
        <time>2022-09-10T15:20:45.000Z</time>
      </trkpt>
      <trkpt lat="43.86732" lon="7.61726">
        <ele>187.60000610352</ele>
        <time>2022-09-10T15:20:46.000Z</time>
      </trkpt>
      <trkpt lat="43.86726" lon="7.61727">
        <ele>186.60000610352</ele>
        <time>2022-09-10T15:20:47.000Z</time>
      </trkpt>
      <trkpt lat="43.86721" lon="7.61727">
        <ele>185.80000305176</ele>
        <time>2022-09-10T15:20:48.000Z</time>
      </trkpt>
      <trkpt lat="43.86714" lon="7.61728">
        <ele>184.60000610352</ele>
        <time>2022-09-10T15:20:49.000Z</time>
      </trkpt>
      <trkpt lat="43.86703" lon="7.61733">
        <ele>183</ele>
        <time>2022-09-10T15:20:51.000Z</time>
      </trkpt>
      <trkpt lat="43.86695" lon="7.61742">
        <ele>181.19999694824</ele>
        <time>2022-09-10T15:20:53.000Z</time>
      </trkpt>
      <trkpt lat="43.86686" lon="7.61749">
        <ele>179.60000610352</ele>
        <time>2022-09-10T15:20:55.000Z</time>
      </trkpt>
      <trkpt lat="43.86685" lon="7.61753">
        <ele>178.80000305176</ele>
        <time>2022-09-10T15:20:56.000Z</time>
      </trkpt>
      <trkpt lat="43.86683" lon="7.61755">
        <ele>178.19999694824</ele>
        <time>2022-09-10T15:20:57.000Z</time>
      </trkpt>
      <trkpt lat="43.86679" lon="7.6176">
        <ele>178.80000305176</ele>
        <time>2022-09-10T15:21:00.000Z</time>
      </trkpt>
      <trkpt lat="43.86675" lon="7.61761">
        <ele>179.19999694824</ele>
        <time>2022-09-10T15:21:01.000Z</time>
      </trkpt>
      <trkpt lat="43.86668" lon="7.61765">
        <ele>179.60000610352</ele>
        <time>2022-09-10T15:21:03.000Z</time>
      </trkpt>
      <trkpt lat="43.86663" lon="7.61765">
        <ele>179.60000610352</ele>
        <time>2022-09-10T15:21:04.000Z</time>
      </trkpt>
      <trkpt lat="43.86647" lon="7.61769">
        <ele>179</ele>
        <time>2022-09-10T15:21:07.000Z</time>
      </trkpt>
      <trkpt lat="43.86641" lon="7.6177">
        <ele>178.60000610352</ele>
        <time>2022-09-10T15:21:08.000Z</time>
      </trkpt>
      <trkpt lat="43.86635" lon="7.61772">
        <ele>178.19999694824</ele>
        <time>2022-09-10T15:21:09.000Z</time>
      </trkpt>
      <trkpt lat="43.86627" lon="7.61772">
        <ele>176.80000305176</ele>
        <time>2022-09-10T15:21:11.000Z</time>
      </trkpt>
      <trkpt lat="43.86623" lon="7.61773">
        <ele>176.60000610352</ele>
        <time>2022-09-10T15:21:12.000Z</time>
      </trkpt>
      <trkpt lat="43.86615" lon="7.61773">
        <ele>176.19999694824</ele>
        <time>2022-09-10T15:21:14.000Z</time>
      </trkpt>
      <trkpt lat="43.86608" lon="7.61773">
        <ele>175.80000305176</ele>
        <time>2022-09-10T15:21:16.000Z</time>
      </trkpt>
      <trkpt lat="43.86598" lon="7.61772">
        <ele>175</ele>
        <time>2022-09-10T15:21:19.000Z</time>
      </trkpt>
      <trkpt lat="43.86595" lon="7.6177">
        <ele>174.80000305176</ele>
        <time>2022-09-10T15:21:20.000Z</time>
      </trkpt>
      <trkpt lat="43.86586" lon="7.61767">
        <ele>173.39999389648</ele>
        <time>2022-09-10T15:21:23.000Z</time>
      </trkpt>
      <trkpt lat="43.86581" lon="7.61765">
        <ele>173</ele>
        <time>2022-09-10T15:21:24.000Z</time>
      </trkpt>
      <trkpt lat="43.86574" lon="7.61763">
        <ele>172.19999694824</ele>
        <time>2022-09-10T15:21:26.000Z</time>
      </trkpt>
      <trkpt lat="43.86571" lon="7.61761">
        <ele>172</ele>
        <time>2022-09-10T15:21:27.000Z</time>
      </trkpt>
      <trkpt lat="43.86557" lon="7.61755">
        <ele>170.60000610352</ele>
        <time>2022-09-10T15:21:31.000Z</time>
      </trkpt>
      <trkpt lat="43.86554" lon="7.61754">
        <ele>170</ele>
        <time>2022-09-10T15:21:32.000Z</time>
      </trkpt>
      <trkpt lat="43.8655" lon="7.61754">
        <ele>169.19999694824</ele>
        <time>2022-09-10T15:21:33.000Z</time>
      </trkpt>
      <trkpt lat="43.86543" lon="7.61753">
        <ele>167.19999694824</ele>
        <time>2022-09-10T15:21:35.000Z</time>
      </trkpt>
      <trkpt lat="43.86536" lon="7.61755">
        <ele>165.80000305176</ele>
        <time>2022-09-10T15:21:37.000Z</time>
      </trkpt>
      <trkpt lat="43.86532" lon="7.61758">
        <ele>165.19999694824</ele>
        <time>2022-09-10T15:21:38.000Z</time>
      </trkpt>
      <trkpt lat="43.86529" lon="7.61761">
        <ele>164</ele>
        <time>2022-09-10T15:21:39.000Z</time>
      </trkpt>
      <trkpt lat="43.86522" lon="7.61768">
        <ele>162.39999389648</ele>
        <time>2022-09-10T15:21:41.000Z</time>
      </trkpt>
      <trkpt lat="43.86518" lon="7.61772">
        <ele>161.80000305176</ele>
        <time>2022-09-10T15:21:42.000Z</time>
      </trkpt>
      <trkpt lat="43.86513" lon="7.61775">
        <ele>161</ele>
        <time>2022-09-10T15:21:43.000Z</time>
      </trkpt>
      <trkpt lat="43.86509" lon="7.61779">
        <ele>160.60000610352</ele>
        <time>2022-09-10T15:21:44.000Z</time>
      </trkpt>
      <trkpt lat="43.86507" lon="7.61783">
        <ele>160.39999389648</ele>
        <time>2022-09-10T15:21:45.000Z</time>
      </trkpt>
      <trkpt lat="43.86503" lon="7.61786">
        <ele>159.80000305176</ele>
        <time>2022-09-10T15:21:46.000Z</time>
      </trkpt>
      <trkpt lat="43.86496" lon="7.61795">
        <ele>159.19999694824</ele>
        <time>2022-09-10T15:21:48.000Z</time>
      </trkpt>
      <trkpt lat="43.86493" lon="7.61798">
        <ele>158.80000305176</ele>
        <time>2022-09-10T15:21:49.000Z</time>
      </trkpt>
      <trkpt lat="43.86485" lon="7.61812">
        <ele>156.60000610352</ele>
        <time>2022-09-10T15:21:52.000Z</time>
      </trkpt>
      <trkpt lat="43.86484" lon="7.61817">
        <ele>156</ele>
        <time>2022-09-10T15:21:53.000Z</time>
      </trkpt>
      <trkpt lat="43.86482" lon="7.61824">
        <ele>155.19999694824</ele>
        <time>2022-09-10T15:21:54.000Z</time>
      </trkpt>
      <trkpt lat="43.86479" lon="7.61836">
        <ele>153.80000305176</ele>
        <time>2022-09-10T15:21:56.000Z</time>
      </trkpt>
      <trkpt lat="43.86477" lon="7.61844">
        <ele>153.19999694824</ele>
        <time>2022-09-10T15:21:57.000Z</time>
      </trkpt>
      <trkpt lat="43.86475" lon="7.6185">
        <ele>152.60000610352</ele>
        <time>2022-09-10T15:21:58.000Z</time>
      </trkpt>
      <trkpt lat="43.86472" lon="7.61864">
        <ele>151</ele>
        <time>2022-09-10T15:22:00.000Z</time>
      </trkpt>
      <trkpt lat="43.86469" lon="7.61878">
        <ele>149.39999389648</ele>
        <time>2022-09-10T15:22:02.000Z</time>
      </trkpt>
      <trkpt lat="43.86467" lon="7.61885">
        <ele>148.39999389648</ele>
        <time>2022-09-10T15:22:03.000Z</time>
      </trkpt>
      <trkpt lat="43.86465" lon="7.61893">
        <ele>147.80000305176</ele>
        <time>2022-09-10T15:22:04.000Z</time>
      </trkpt>
      <trkpt lat="43.8646" lon="7.6191">
        <ele>146.39999389648</ele>
        <time>2022-09-10T15:22:06.000Z</time>
      </trkpt>
      <trkpt lat="43.86457" lon="7.61917">
        <ele>146</ele>
        <time>2022-09-10T15:22:07.000Z</time>
      </trkpt>
      <trkpt lat="43.86453" lon="7.61924">
        <ele>145.39999389648</ele>
        <time>2022-09-10T15:22:08.000Z</time>
      </trkpt>
      <trkpt lat="43.8645" lon="7.61931">
        <ele>144.80000305176</ele>
        <time>2022-09-10T15:22:09.000Z</time>
      </trkpt>
      <trkpt lat="43.86444" lon="7.61945">
        <ele>142.60000610352</ele>
        <time>2022-09-10T15:22:11.000Z</time>
      </trkpt>
      <trkpt lat="43.86441" lon="7.61951">
        <ele>141.19999694824</ele>
        <time>2022-09-10T15:22:12.000Z</time>
      </trkpt>
      <trkpt lat="43.86438" lon="7.61956">
        <ele>140.39999389648</ele>
        <time>2022-09-10T15:22:13.000Z</time>
      </trkpt>
      <trkpt lat="43.86435" lon="7.61961">
        <ele>140</ele>
        <time>2022-09-10T15:22:14.000Z</time>
      </trkpt>
      <trkpt lat="43.86432" lon="7.61969">
        <ele>139.80000305176</ele>
        <time>2022-09-10T15:22:16.000Z</time>
      </trkpt>
      <trkpt lat="43.86431" lon="7.61974">
        <ele>139.80000305176</ele>
        <time>2022-09-10T15:22:17.000Z</time>
      </trkpt>
      <trkpt lat="43.86424" lon="7.61986">
        <ele>138.80000305176</ele>
        <time>2022-09-10T15:22:20.000Z</time>
      </trkpt>
      <trkpt lat="43.86418" lon="7.61993">
        <ele>138.80000305176</ele>
        <time>2022-09-10T15:22:22.000Z</time>
      </trkpt>
      <trkpt lat="43.86402" lon="7.62004">
        <ele>137.80000305176</ele>
        <time>2022-09-10T15:22:26.000Z</time>
      </trkpt>
      <trkpt lat="43.86397" lon="7.62006">
        <ele>137</ele>
        <time>2022-09-10T15:22:27.000Z</time>
      </trkpt>
      <trkpt lat="43.86386" lon="7.62012">
        <ele>135.19999694824</ele>
        <time>2022-09-10T15:22:29.000Z</time>
      </trkpt>
      <trkpt lat="43.86379" lon="7.62015">
        <ele>134</ele>
        <time>2022-09-10T15:22:30.000Z</time>
      </trkpt>
      <trkpt lat="43.86372" lon="7.62018">
        <ele>132.60000610352</ele>
        <time>2022-09-10T15:22:31.000Z</time>
      </trkpt>
      <trkpt lat="43.86365" lon="7.62021">
        <ele>131.19999694824</ele>
        <time>2022-09-10T15:22:32.000Z</time>
      </trkpt>
      <trkpt lat="43.8636" lon="7.62025">
        <ele>129.80000305176</ele>
        <time>2022-09-10T15:22:33.000Z</time>
      </trkpt>
      <trkpt lat="43.8635" lon="7.62033">
        <ele>128.39999389648</ele>
        <time>2022-09-10T15:22:35.000Z</time>
      </trkpt>
      <trkpt lat="43.86343" lon="7.6204">
        <ele>128.19999694824</ele>
        <time>2022-09-10T15:22:38.000Z</time>
      </trkpt>
      <trkpt lat="43.86331" lon="7.6204">
        <ele>128.39999389648</ele>
        <time>2022-09-10T15:22:41.000Z</time>
      </trkpt>
      <trkpt lat="43.86325" lon="7.62039">
        <ele>128.19999694824</ele>
        <time>2022-09-10T15:22:42.000Z</time>
      </trkpt>
      <trkpt lat="43.86313" lon="7.62034">
        <ele>127</ele>
        <time>2022-09-10T15:22:44.000Z</time>
      </trkpt>
      <trkpt lat="43.86307" lon="7.62034">
        <ele>126.19999694824</ele>
        <time>2022-09-10T15:22:45.000Z</time>
      </trkpt>
      <trkpt lat="43.86301" lon="7.62034">
        <ele>125</ele>
        <time>2022-09-10T15:22:46.000Z</time>
      </trkpt>
      <trkpt lat="43.86295" lon="7.62035">
        <ele>124</ele>
        <time>2022-09-10T15:22:47.000Z</time>
      </trkpt>
      <trkpt lat="43.8629" lon="7.62035">
        <ele>123</ele>
        <time>2022-09-10T15:22:48.000Z</time>
      </trkpt>
      <trkpt lat="43.86277" lon="7.62034">
        <ele>121.40000152588</ele>
        <time>2022-09-10T15:22:50.000Z</time>
      </trkpt>
      <trkpt lat="43.86265" lon="7.62035">
        <ele>120.19999694824</ele>
        <time>2022-09-10T15:22:52.000Z</time>
      </trkpt>
      <trkpt lat="43.8626" lon="7.62037">
        <ele>119.19999694824</ele>
        <time>2022-09-10T15:22:53.000Z</time>
      </trkpt>
      <trkpt lat="43.86255" lon="7.62039">
        <ele>118</ele>
        <time>2022-09-10T15:22:54.000Z</time>
      </trkpt>
      <trkpt lat="43.86251" lon="7.62042">
        <ele>116.80000305176</ele>
        <time>2022-09-10T15:22:55.000Z</time>
      </trkpt>
      <trkpt lat="43.86247" lon="7.62047">
        <ele>115.59999847412</ele>
        <time>2022-09-10T15:22:56.000Z</time>
      </trkpt>
      <trkpt lat="43.86243" lon="7.62054">
        <ele>114.40000152588</ele>
        <time>2022-09-10T15:22:57.000Z</time>
      </trkpt>
      <trkpt lat="43.86241" lon="7.62061">
        <ele>113.19999694824</ele>
        <time>2022-09-10T15:22:58.000Z</time>
      </trkpt>
      <trkpt lat="43.86238" lon="7.62072">
        <ele>112.19999694824</ele>
        <time>2022-09-10T15:22:59.000Z</time>
      </trkpt>
      <trkpt lat="43.86236" lon="7.6208">
        <ele>111</ele>
        <time>2022-09-10T15:23:00.000Z</time>
      </trkpt>
      <trkpt lat="43.86234" lon="7.62088">
        <ele>109.40000152588</ele>
        <time>2022-09-10T15:23:01.000Z</time>
      </trkpt>
      <trkpt lat="43.86232" lon="7.62097">
        <ele>108</ele>
        <time>2022-09-10T15:23:02.000Z</time>
      </trkpt>
      <trkpt lat="43.86231" lon="7.62106">
        <ele>106.80000305176</ele>
        <time>2022-09-10T15:23:03.000Z</time>
      </trkpt>
      <trkpt lat="43.8623" lon="7.62116">
        <ele>105.40000152588</ele>
        <time>2022-09-10T15:23:04.000Z</time>
      </trkpt>
      <trkpt lat="43.86228" lon="7.62126">
        <ele>104.19999694824</ele>
        <time>2022-09-10T15:23:05.000Z</time>
      </trkpt>
      <trkpt lat="43.86226" lon="7.62135">
        <ele>103</ele>
        <time>2022-09-10T15:23:06.000Z</time>
      </trkpt>
      <trkpt lat="43.86222" lon="7.6215">
        <ele>101</ele>
        <time>2022-09-10T15:23:08.000Z</time>
      </trkpt>
      <trkpt lat="43.86218" lon="7.62163">
        <ele>99.199996948242</ele>
        <time>2022-09-10T15:23:10.000Z</time>
      </trkpt>
      <trkpt lat="43.86215" lon="7.62179">
        <ele>97.599998474121</ele>
        <time>2022-09-10T15:23:12.000Z</time>
      </trkpt>
      <trkpt lat="43.86213" lon="7.62192">
        <ele>95.800003051758</ele>
        <time>2022-09-10T15:23:14.000Z</time>
      </trkpt>
      <trkpt lat="43.86212" lon="7.62196">
        <ele>94.800003051758</ele>
        <time>2022-09-10T15:23:15.000Z</time>
      </trkpt>
      <trkpt lat="43.86211" lon="7.622">
        <ele>93.599998474121</ele>
        <time>2022-09-10T15:23:16.000Z</time>
      </trkpt>
      <trkpt lat="43.86207" lon="7.62201">
        <ele>91.800003051758</ele>
        <time>2022-09-10T15:23:18.000Z</time>
      </trkpt>
      <trkpt lat="43.86205" lon="7.622">
        <ele>91.199996948242</ele>
        <time>2022-09-10T15:23:19.000Z</time>
      </trkpt>
      <trkpt lat="43.86203" lon="7.622">
        <ele>90.599998474121</ele>
        <time>2022-09-10T15:23:23.000Z</time>
      </trkpt>
      <trkpt lat="43.86203" lon="7.622">
        <ele>91.199996948242</ele>
        <time>2022-09-10T15:23:41.000Z</time>
      </trkpt>
      <trkpt lat="43.86202" lon="7.622">
        <ele>91.199996948242</ele>
        <time>2022-09-10T15:24:07.000Z</time>
      </trkpt>
      <trkpt lat="43.86203" lon="7.62201">
        <ele>91.199996948242</ele>
        <time>2022-09-10T15:24:19.000Z</time>
      </trkpt>
      <trkpt lat="43.86203" lon="7.62205">
        <ele>91.199996948242</ele>
        <time>2022-09-10T15:24:24.000Z</time>
      </trkpt>
      <trkpt lat="43.86201" lon="7.62206">
        <ele>91.199996948242</ele>
        <time>2022-09-10T15:24:25.000Z</time>
      </trkpt>
      <trkpt lat="43.86189" lon="7.62205">
        <ele>91.400001525879</ele>
        <time>2022-09-10T15:24:29.000Z</time>
      </trkpt>
      <trkpt lat="43.86162" lon="7.62206">
        <ele>91</ele>
        <time>2022-09-10T15:24:36.000Z</time>
      </trkpt>
      <trkpt lat="43.86158" lon="7.62208">
        <ele>91</ele>
        <time>2022-09-10T15:24:37.000Z</time>
      </trkpt>
      <trkpt lat="43.86147" lon="7.62218">
        <ele>90.800003051758</ele>
        <time>2022-09-10T15:24:40.000Z</time>
      </trkpt>
      <trkpt lat="43.86133" lon="7.62247">
        <ele>90</ele>
        <time>2022-09-10T15:24:45.000Z</time>
      </trkpt>
      <trkpt lat="43.86132" lon="7.62253">
        <ele>89.599998474121</ele>
        <time>2022-09-10T15:24:46.000Z</time>
      </trkpt>
      <trkpt lat="43.86127" lon="7.62276">
        <ele>88.599998474121</ele>
        <time>2022-09-10T15:24:50.000Z</time>
      </trkpt>
      <trkpt lat="43.86124" lon="7.62282">
        <ele>88.400001525879</ele>
        <time>2022-09-10T15:24:51.000Z</time>
      </trkpt>
      <trkpt lat="43.86115" lon="7.62298">
        <ele>88</ele>
        <time>2022-09-10T15:24:54.000Z</time>
      </trkpt>
      <trkpt lat="43.86107" lon="7.62307">
        <ele>87.599998474121</ele>
        <time>2022-09-10T15:24:56.000Z</time>
      </trkpt>
      <trkpt lat="43.86099" lon="7.62314">
        <ele>87.400001525879</ele>
        <time>2022-09-10T15:24:58.000Z</time>
      </trkpt>
      <trkpt lat="43.86081" lon="7.62329">
        <ele>86.800003051758</ele>
        <time>2022-09-10T15:25:02.000Z</time>
      </trkpt>
      <trkpt lat="43.86068" lon="7.62339">
        <ele>86.400001525879</ele>
        <time>2022-09-10T15:25:05.000Z</time>
      </trkpt>
      <trkpt lat="43.86049" lon="7.62355">
        <ele>85.400001525879</ele>
        <time>2022-09-10T15:25:10.000Z</time>
      </trkpt>
      <trkpt lat="43.86045" lon="7.62358">
        <ele>85.400001525879</ele>
        <time>2022-09-10T15:25:11.000Z</time>
      </trkpt>
      <trkpt lat="43.86041" lon="7.6236">
        <ele>85.199996948242</ele>
        <time>2022-09-10T15:25:12.000Z</time>
      </trkpt>
      <trkpt lat="43.86023" lon="7.6237">
        <ele>84.599998474121</ele>
        <time>2022-09-10T15:25:16.000Z</time>
      </trkpt>
      <trkpt lat="43.85997" lon="7.62376">
        <ele>84.199996948242</ele>
        <time>2022-09-10T15:25:22.000Z</time>
      </trkpt>
      <trkpt lat="43.85973" lon="7.62378">
        <ele>84.199996948242</ele>
        <time>2022-09-10T15:25:28.000Z</time>
      </trkpt>
      <trkpt lat="43.85963" lon="7.62378">
        <ele>84</ele>
        <time>2022-09-10T15:25:30.000Z</time>
      </trkpt>
      <trkpt lat="43.85923" lon="7.62382">
        <ele>83.400001525879</ele>
        <time>2022-09-10T15:25:39.000Z</time>
      </trkpt>
      <trkpt lat="43.85894" lon="7.62384">
        <ele>83</ele>
        <time>2022-09-10T15:25:46.000Z</time>
      </trkpt>
      <trkpt lat="43.85885" lon="7.62385">
        <ele>82.800003051758</ele>
        <time>2022-09-10T15:25:48.000Z</time>
      </trkpt>
      <trkpt lat="43.85842" lon="7.62389">
        <ele>82.800003051758</ele>
        <time>2022-09-10T15:25:58.000Z</time>
      </trkpt>
      <trkpt lat="43.85796" lon="7.62393">
        <ele>82.599998474121</ele>
        <time>2022-09-10T15:26:08.000Z</time>
      </trkpt>
      <trkpt lat="43.8575" lon="7.6239">
        <ele>82</ele>
        <time>2022-09-10T15:26:18.000Z</time>
      </trkpt>
      <trkpt lat="43.85701" lon="7.6238">
        <ele>82.199996948242</ele>
        <time>2022-09-10T15:26:29.000Z</time>
      </trkpt>
      <trkpt lat="43.8566" lon="7.62373">
        <ele>81.599998474121</ele>
        <time>2022-09-10T15:26:38.000Z</time>
      </trkpt>
      <trkpt lat="43.85606" lon="7.62366">
        <ele>81.199996948242</ele>
        <time>2022-09-10T15:26:50.000Z</time>
      </trkpt>
      <trkpt lat="43.85574" lon="7.6237">
        <ele>81</ele>
        <time>2022-09-10T15:26:57.000Z</time>
      </trkpt>
      <trkpt lat="43.85561" lon="7.62373">
        <ele>80.599998474121</ele>
        <time>2022-09-10T15:27:00.000Z</time>
      </trkpt>
      <trkpt lat="43.85509" lon="7.62384">
        <ele>80.400001525879</ele>
        <time>2022-09-10T15:27:11.000Z</time>
      </trkpt>
      <trkpt lat="43.85478" lon="7.62391">
        <ele>80</ele>
        <time>2022-09-10T15:27:18.000Z</time>
      </trkpt>
      <trkpt lat="43.85474" lon="7.62391">
        <ele>80</ele>
        <time>2022-09-10T15:27:19.000Z</time>
      </trkpt>
      <trkpt lat="43.85456" lon="7.62392">
        <ele>79.599998474121</ele>
        <time>2022-09-10T15:27:24.000Z</time>
      </trkpt>
      <trkpt lat="43.85451" lon="7.62392">
        <ele>79.599998474121</ele>
        <time>2022-09-10T15:27:25.000Z</time>
      </trkpt>
      <trkpt lat="43.8543" lon="7.62397">
        <ele>79.199996948242</ele>
        <time>2022-09-10T15:27:30.000Z</time>
      </trkpt>
      <trkpt lat="43.85409" lon="7.62403">
        <ele>79</ele>
        <time>2022-09-10T15:27:34.000Z</time>
      </trkpt>
      <trkpt lat="43.85404" lon="7.62405">
        <ele>79</ele>
        <time>2022-09-10T15:27:35.000Z</time>
      </trkpt>
      <trkpt lat="43.854" lon="7.62406">
        <ele>79</ele>
        <time>2022-09-10T15:27:36.000Z</time>
      </trkpt>
      <trkpt lat="43.85386" lon="7.62409">
        <ele>78.599998474121</ele>
        <time>2022-09-10T15:27:39.000Z</time>
      </trkpt>
      <trkpt lat="43.85377" lon="7.62411">
        <ele>78.599998474121</ele>
        <time>2022-09-10T15:27:41.000Z</time>
      </trkpt>
      <trkpt lat="43.85355" lon="7.62415">
        <ele>78.599998474121</ele>
        <time>2022-09-10T15:27:46.000Z</time>
      </trkpt>
      <trkpt lat="43.85327" lon="7.62421">
        <ele>78.400001525879</ele>
        <time>2022-09-10T15:27:52.000Z</time>
      </trkpt>
      <trkpt lat="43.85292" lon="7.62427">
        <ele>78.599998474121</ele>
        <time>2022-09-10T15:28:00.000Z</time>
      </trkpt>
      <trkpt lat="43.8527" lon="7.62418">
        <ele>78.400001525879</ele>
        <time>2022-09-10T15:28:05.000Z</time>
      </trkpt>
      <trkpt lat="43.85235" lon="7.62399">
        <ele>78.199996948242</ele>
        <time>2022-09-10T15:28:13.000Z</time>
      </trkpt>
      <trkpt lat="43.85219" lon="7.6239">
        <ele>77.800003051758</ele>
        <time>2022-09-10T15:28:16.000Z</time>
      </trkpt>
      <trkpt lat="43.85202" lon="7.62378">
        <ele>77.599998474121</ele>
        <time>2022-09-10T15:28:20.000Z</time>
      </trkpt>
      <trkpt lat="43.85199" lon="7.62374">
        <ele>77.599998474121</ele>
        <time>2022-09-10T15:28:21.000Z</time>
      </trkpt>
      <trkpt lat="43.85186" lon="7.62367">
        <ele>77.400001525879</ele>
        <time>2022-09-10T15:28:24.000Z</time>
      </trkpt>
      <trkpt lat="43.85175" lon="7.62361">
        <ele>77.400001525879</ele>
        <time>2022-09-10T15:28:28.000Z</time>
      </trkpt>
      <trkpt lat="43.85168" lon="7.62357">
        <ele>77.400001525879</ele>
        <time>2022-09-10T15:28:34.000Z</time>
      </trkpt>
      <trkpt lat="43.85158" lon="7.6235">
        <ele>77.400001525879</ele>
        <time>2022-09-10T15:28:40.000Z</time>
      </trkpt>
      <trkpt lat="43.85143" lon="7.62339">
        <ele>77.599998474121</ele>
        <time>2022-09-10T15:28:46.000Z</time>
      </trkpt>
      <trkpt lat="43.85134" lon="7.6233">
        <ele>77.599998474121</ele>
        <time>2022-09-10T15:28:50.000Z</time>
      </trkpt>
      <trkpt lat="43.85133" lon="7.62327">
        <ele>77.599998474121</ele>
        <time>2022-09-10T15:28:51.000Z</time>
      </trkpt>
      <trkpt lat="43.85131" lon="7.62309">
        <ele>77.599998474121</ele>
        <time>2022-09-10T15:28:55.000Z</time>
      </trkpt>
      <trkpt lat="43.8513" lon="7.62304">
        <ele>77.599998474121</ele>
        <time>2022-09-10T15:28:56.000Z</time>
      </trkpt>
      <trkpt lat="43.85123" lon="7.62289">
        <ele>77.599998474121</ele>
        <time>2022-09-10T15:29:01.000Z</time>
      </trkpt>
      <trkpt lat="43.85114" lon="7.62293">
        <ele>77.599998474121</ele>
        <time>2022-09-10T15:29:05.000Z</time>
      </trkpt>
      <trkpt lat="43.85108" lon="7.623">
        <ele>77.599998474121</ele>
        <time>2022-09-10T15:29:09.000Z</time>
      </trkpt>
      <trkpt lat="43.851" lon="7.62299">
        <ele>77.599998474121</ele>
        <time>2022-09-10T15:29:12.000Z</time>
      </trkpt>
      <trkpt lat="43.85094" lon="7.62296">
        <ele>77.800003051758</ele>
        <time>2022-09-10T15:29:16.000Z</time>
      </trkpt>
      <trkpt lat="43.85093" lon="7.62296">
        <ele>77.800003051758</ele>
        <time>2022-09-10T15:29:17.000Z</time>
      </trkpt>
      <trkpt lat="43.85092" lon="7.62292">
        <ele>77.599998474121</ele>
        <time>2022-09-10T15:29:20.000Z</time>
      </trkpt>
      <trkpt lat="43.85095" lon="7.62294">
        <ele>77.800003051758</ele>
        <time>2022-09-10T15:29:24.000Z</time>
      </trkpt>
      <trkpt lat="43.85096" lon="7.62295">
        <ele>78</ele>
        <time>2022-09-10T15:29:30.000Z</time>
      </trkpt>
      <trkpt lat="43.85094" lon="7.62297">
        <ele>78</ele>
        <time>2022-09-10T15:29:52.000Z</time>
      </trkpt>
      <trkpt lat="43.85093" lon="7.62298">
        <ele>78.400001525879</ele>
        <time>2022-09-10T15:30:10.000Z</time>
      </trkpt>
      <trkpt lat="43.85092" lon="7.623">
        <ele>78.400001525879</ele>
        <time>2022-09-10T15:30:28.000Z</time>
      </trkpt>
      <trkpt lat="43.85093" lon="7.62299">
        <ele>78.199996948242</ele>
        <time>2022-09-10T15:30:35.000Z</time>
      </trkpt>
      <trkpt lat="43.85094" lon="7.62298">
        <ele>78.400001525879</ele>
        <time>2022-09-10T15:30:44.000Z</time>
      </trkpt>
      <trkpt lat="43.85096" lon="7.62297">
        <ele>78.400001525879</ele>
        <time>2022-09-10T15:30:51.000Z</time>
      </trkpt>
      <trkpt lat="43.85096" lon="7.62297">
        <ele>77.800003051758</ele>
        <time>2022-09-10T15:31:01.000Z</time>
      </trkpt>
      <trkpt lat="43.85096" lon="7.62299">
        <ele>78</ele>
        <time>2022-09-10T15:31:10.000Z</time>
      </trkpt>
      <trkpt lat="43.85095" lon="7.62297">
        <ele>78</ele>
        <time>2022-09-10T15:31:17.000Z</time>
      </trkpt>
      <trkpt lat="43.85095" lon="7.62295">
        <ele>77.599998474121</ele>
        <time>2022-09-10T15:31:25.000Z</time>
      </trkpt>
      <trkpt lat="43.85094" lon="7.62292">
        <ele>77.599998474121</ele>
        <time>2022-09-10T15:31:31.000Z</time>
      </trkpt>
      <trkpt lat="43.85095" lon="7.6229">
        <ele>77.599998474121</ele>
        <time>2022-09-10T15:31:43.000Z</time>
      </trkpt>
      <trkpt lat="43.85095" lon="7.6229">
        <ele>78</ele>
        <time>2022-09-10T15:31:52.000Z</time>
      </trkpt>
      <trkpt lat="43.85094" lon="7.62291">
        <ele>77.599998474121</ele>
        <time>2022-09-10T15:32:00.000Z</time>
      </trkpt>
      <trkpt lat="43.85094" lon="7.6229">
        <ele>77.599998474121</ele>
        <time>2022-09-10T15:32:06.000Z</time>
      </trkpt>
      <trkpt lat="43.85094" lon="7.62289">
        <ele>77.400001525879</ele>
        <time>2022-09-10T15:32:12.000Z</time>
      </trkpt>
      <trkpt lat="43.85094" lon="7.62288">
        <ele>77.199996948242</ele>
        <time>2022-09-10T15:32:19.000Z</time>
      </trkpt>
      <trkpt lat="43.85093" lon="7.62287">
        <ele>77.599998474121</ele>
        <time>2022-09-10T15:32:26.000Z</time>
      </trkpt>
      <trkpt lat="43.85093" lon="7.62288">
        <ele>77</ele>
        <time>2022-09-10T15:32:32.000Z</time>
      </trkpt>
      <trkpt lat="43.8509" lon="7.62288">
        <ele>77.400001525879</ele>
        <time>2022-09-10T15:32:38.000Z</time>
      </trkpt>
      <trkpt lat="43.85089" lon="7.62286">
        <ele>77.400001525879</ele>
        <time>2022-09-10T15:32:39.000Z</time>
      </trkpt>
      <trkpt lat="43.85082" lon="7.6228">
        <ele>77.199996948242</ele>
        <time>2022-09-10T15:32:43.000Z</time>
      </trkpt>
      <trkpt lat="43.85071" lon="7.62281">
        <ele>76.800003051758</ele>
        <time>2022-09-10T15:32:46.000Z</time>
      </trkpt>
      <trkpt lat="43.85067" lon="7.62281">
        <ele>76.599998474121</ele>
        <time>2022-09-10T15:32:47.000Z</time>
      </trkpt>
      <trkpt lat="43.85064" lon="7.62282">
        <ele>76.599998474121</ele>
        <time>2022-09-10T15:32:48.000Z</time>
      </trkpt>
      <trkpt lat="43.85055" lon="7.62288">
        <ele>76.599998474121</ele>
        <time>2022-09-10T15:32:51.000Z</time>
      </trkpt>
      <trkpt lat="43.85037" lon="7.62299">
        <ele>76</ele>
        <time>2022-09-10T15:32:58.000Z</time>
      </trkpt>
      <trkpt lat="43.85013" lon="7.62314">
        <ele>76.199996948242</ele>
        <time>2022-09-10T15:33:05.000Z</time>
      </trkpt>
      <trkpt lat="43.85007" lon="7.62323">
        <ele>76</ele>
        <time>2022-09-10T15:33:08.000Z</time>
      </trkpt>
      <trkpt lat="43.85007" lon="7.62327">
        <ele>75.800003051758</ele>
        <time>2022-09-10T15:33:09.000Z</time>
      </trkpt>
      <trkpt lat="43.85008" lon="7.62333">
        <ele>76</ele>
        <time>2022-09-10T15:33:12.000Z</time>
      </trkpt>
      <trkpt lat="43.85008" lon="7.62334">
        <ele>76</ele>
        <time>2022-09-10T15:33:13.000Z</time>
      </trkpt>
      <trkpt lat="43.85009" lon="7.62337">
        <ele>76.199996948242</ele>
        <time>2022-09-10T15:33:16.000Z</time>
      </trkpt>
      <trkpt lat="43.85009" lon="7.62339">
        <ele>76.199996948242</ele>
        <time>2022-09-10T15:33:17.000Z</time>
      </trkpt>
      <trkpt lat="43.85012" lon="7.62347">
        <ele>76.199996948242</ele>
        <time>2022-09-10T15:33:21.000Z</time>
      </trkpt>
      <trkpt lat="43.85013" lon="7.6235">
        <ele>76.400001525879</ele>
        <time>2022-09-10T15:33:22.000Z</time>
      </trkpt>
      <trkpt lat="43.85018" lon="7.62364">
        <ele>76</ele>
        <time>2022-09-10T15:33:27.000Z</time>
      </trkpt>
      <trkpt lat="43.8502" lon="7.62382">
        <ele>76.199996948242</ele>
        <time>2022-09-10T15:33:33.000Z</time>
      </trkpt>
      <trkpt lat="43.85019" lon="7.62383">
        <ele>76.199996948242</ele>
        <time>2022-09-10T15:33:34.000Z</time>
      </trkpt>
      <trkpt lat="43.85021" lon="7.62384">
        <ele>76.199996948242</ele>
        <time>2022-09-10T15:33:37.000Z</time>
      </trkpt>
      <trkpt lat="43.85021" lon="7.62383">
        <ele>76.199996948242</ele>
        <time>2022-09-10T15:33:38.000Z</time>
      </trkpt>
      <trkpt lat="43.85019" lon="7.62374">
        <ele>76</ele>
        <time>2022-09-10T15:33:42.000Z</time>
      </trkpt>
      <trkpt lat="43.85015" lon="7.62356">
        <ele>76.400001525879</ele>
        <time>2022-09-10T15:33:48.000Z</time>
      </trkpt>
      <trkpt lat="43.85014" lon="7.62351">
        <ele>76.400001525879</ele>
        <time>2022-09-10T15:33:49.000Z</time>
      </trkpt>
      <trkpt lat="43.85007" lon="7.62327">
        <ele>76</ele>
        <time>2022-09-10T15:33:55.000Z</time>
      </trkpt>
      <trkpt lat="43.84997" lon="7.62319">
        <ele>75.800003051758</ele>
        <time>2022-09-10T15:33:59.000Z</time>
      </trkpt>
      <trkpt lat="43.84993" lon="7.62318">
        <ele>75.599998474121</ele>
        <time>2022-09-10T15:34:00.000Z</time>
      </trkpt>
      <trkpt lat="43.84981" lon="7.62316">
        <ele>75.400001525879</ele>
        <time>2022-09-10T15:34:03.000Z</time>
      </trkpt>
      <trkpt lat="43.84977" lon="7.62316">
        <ele>75.400001525879</ele>
        <time>2022-09-10T15:34:04.000Z</time>
      </trkpt>
      <trkpt lat="43.84959" lon="7.62315">
        <ele>76.400001525879</ele>
        <time>2022-09-10T15:34:09.000Z</time>
      </trkpt>
      <trkpt lat="43.84956" lon="7.62314">
        <ele>76.800003051758</ele>
        <time>2022-09-10T15:34:10.000Z</time>
      </trkpt>
      <trkpt lat="43.84945" lon="7.6231">
        <ele>78.199996948242</ele>
        <time>2022-09-10T15:34:13.000Z</time>
      </trkpt>
      <trkpt lat="43.84938" lon="7.62306">
        <ele>79</ele>
        <time>2022-09-10T15:34:15.000Z</time>
      </trkpt>
      <trkpt lat="43.84932" lon="7.62304">
        <ele>79.199996948242</ele>
        <time>2022-09-10T15:34:17.000Z</time>
      </trkpt>
      <trkpt lat="43.84916" lon="7.62301">
        <ele>79.800003051758</ele>
        <time>2022-09-10T15:34:21.000Z</time>
      </trkpt>
      <trkpt lat="43.84909" lon="7.62299">
        <ele>80.400001525879</ele>
        <time>2022-09-10T15:34:23.000Z</time>
      </trkpt>
      <trkpt lat="43.84896" lon="7.62294">
        <ele>81.400001525879</ele>
        <time>2022-09-10T15:34:27.000Z</time>
      </trkpt>
      <trkpt lat="43.84886" lon="7.6229">
        <ele>82.400001525879</ele>
        <time>2022-09-10T15:34:31.000Z</time>
      </trkpt>
      <trkpt lat="43.84885" lon="7.62288">
        <ele>82.800003051758</ele>
        <time>2022-09-10T15:34:32.000Z</time>
      </trkpt>
      <trkpt lat="43.84882" lon="7.62287">
        <ele>83.599998474121</ele>
        <time>2022-09-10T15:34:35.000Z</time>
      </trkpt>
      <trkpt lat="43.84878" lon="7.62286">
        <ele>83.800003051758</ele>
        <time>2022-09-10T15:34:37.000Z</time>
      </trkpt>
      <trkpt lat="43.84874" lon="7.62283">
        <ele>84.199996948242</ele>
        <time>2022-09-10T15:34:39.000Z</time>
      </trkpt>
      <trkpt lat="43.84867" lon="7.62279">
        <ele>84.599998474121</ele>
        <time>2022-09-10T15:34:42.000Z</time>
      </trkpt>
      <trkpt lat="43.84854" lon="7.62274">
        <ele>85.400001525879</ele>
        <time>2022-09-10T15:34:49.000Z</time>
      </trkpt>
      <trkpt lat="43.84847" lon="7.62272">
        <ele>85.599998474121</ele>
        <time>2022-09-10T15:34:52.000Z</time>
      </trkpt>
      <trkpt lat="43.84836" lon="7.62268">
        <ele>86</ele>
        <time>2022-09-10T15:34:57.000Z</time>
      </trkpt>
      <trkpt lat="43.84819" lon="7.62262">
        <ele>86.400001525879</ele>
        <time>2022-09-10T15:35:05.000Z</time>
      </trkpt>
      <trkpt lat="43.84802" lon="7.62261">
        <ele>86.599998474121</ele>
        <time>2022-09-10T15:35:12.000Z</time>
      </trkpt>
      <trkpt lat="43.848" lon="7.6226">
        <ele>86.800003051758</ele>
        <time>2022-09-10T15:35:13.000Z</time>
      </trkpt>
      <trkpt lat="43.84784" lon="7.62255">
        <ele>86.800003051758</ele>
        <time>2022-09-10T15:35:18.000Z</time>
      </trkpt>
      <trkpt lat="43.84761" lon="7.62253">
        <ele>87</ele>
        <time>2022-09-10T15:35:26.000Z</time>
      </trkpt>
      <trkpt lat="43.84736" lon="7.62247">
        <ele>87.199996948242</ele>
        <time>2022-09-10T15:35:34.000Z</time>
      </trkpt>
      <trkpt lat="43.84735" lon="7.62234">
        <ele>87.599998474121</ele>
        <time>2022-09-10T15:35:37.000Z</time>
      </trkpt>
      <trkpt lat="43.84737" lon="7.62226">
        <ele>87.800003051758</ele>
        <time>2022-09-10T15:35:39.000Z</time>
      </trkpt>
      <trkpt lat="43.84738" lon="7.62222">
        <ele>87.800003051758</ele>
        <time>2022-09-10T15:35:40.000Z</time>
      </trkpt>
      <trkpt lat="43.84741" lon="7.62215">
        <ele>87.800003051758</ele>
        <time>2022-09-10T15:35:42.000Z</time>
      </trkpt>
      <trkpt lat="43.84746" lon="7.62194">
        <ele>88.199996948242</ele>
        <time>2022-09-10T15:35:48.000Z</time>
      </trkpt>
      <trkpt lat="43.84743" lon="7.6218">
        <ele>88.800003051758</ele>
        <time>2022-09-10T15:35:52.000Z</time>
      </trkpt>
      <trkpt lat="43.8474" lon="7.62176">
        <ele>89</ele>
        <time>2022-09-10T15:35:54.000Z</time>
      </trkpt>
      <trkpt lat="43.84735" lon="7.62172">
        <ele>89.800003051758</ele>
        <time>2022-09-10T15:35:58.000Z</time>
      </trkpt>
      <trkpt lat="43.84733" lon="7.62174">
        <ele>89.800003051758</ele>
        <time>2022-09-10T15:35:59.000Z</time>
      </trkpt>
      <trkpt lat="43.84728" lon="7.62178">
        <ele>90.400001525879</ele>
        <time>2022-09-10T15:36:02.000Z</time>
      </trkpt>
      <trkpt lat="43.84726" lon="7.6218">
        <ele>90.800003051758</ele>
        <time>2022-09-10T15:36:04.000Z</time>
      </trkpt>
      <trkpt lat="43.84724" lon="7.6218">
        <ele>91</ele>
        <time>2022-09-10T15:36:05.000Z</time>
      </trkpt>
      <trkpt lat="43.84723" lon="7.62181">
        <ele>91.800003051758</ele>
        <time>2022-09-10T15:36:09.000Z</time>
      </trkpt>
      <trkpt lat="43.84723" lon="7.62181">
        <ele>91.800003051758</ele>
        <time>2022-09-10T15:36:21.000Z</time>
      </trkpt>
      <trkpt lat="43.8472" lon="7.62182">
        <ele>92</ele>
        <time>2022-09-10T15:36:24.000Z</time>
      </trkpt>
      <trkpt lat="43.84716" lon="7.62184">
        <ele>92.400001525879</ele>
        <time>2022-09-10T15:36:26.000Z</time>
      </trkpt>
      <trkpt lat="43.84708" lon="7.62184">
        <ele>93.400001525879</ele>
        <time>2022-09-10T15:36:29.000Z</time>
      </trkpt>
      <trkpt lat="43.847" lon="7.62185">
        <ele>94.599998474121</ele>
        <time>2022-09-10T15:36:32.000Z</time>
      </trkpt>
      <trkpt lat="43.84692" lon="7.62186">
        <ele>95.800003051758</ele>
        <time>2022-09-10T15:36:35.000Z</time>
      </trkpt>
      <trkpt lat="43.84686" lon="7.62186">
        <ele>96.800003051758</ele>
        <time>2022-09-10T15:36:37.000Z</time>
      </trkpt>
      <trkpt lat="43.84681" lon="7.62188">
        <ele>98</ele>
        <time>2022-09-10T15:36:39.000Z</time>
      </trkpt>
      <trkpt lat="43.84678" lon="7.62188">
        <ele>98.599998474121</ele>
        <time>2022-09-10T15:36:40.000Z</time>
      </trkpt>
      <trkpt lat="43.84676" lon="7.62187">
        <ele>99.199996948242</ele>
        <time>2022-09-10T15:36:41.000Z</time>
      </trkpt>
      <trkpt lat="43.84672" lon="7.62184">
        <ele>100.40000152588</ele>
        <time>2022-09-10T15:36:43.000Z</time>
      </trkpt>
      <trkpt lat="43.84671" lon="7.62184">
        <ele>100.80000305176</ele>
        <time>2022-09-10T15:36:44.000Z</time>
      </trkpt>
      <trkpt lat="43.84667" lon="7.62181">
        <ele>101.80000305176</ele>
        <time>2022-09-10T15:36:46.000Z</time>
      </trkpt>
      <trkpt lat="43.84666" lon="7.62178">
        <ele>102.59999847412</ele>
        <time>2022-09-10T15:36:48.000Z</time>
      </trkpt>
      <trkpt lat="43.84665" lon="7.62177">
        <ele>102.80000305176</ele>
        <time>2022-09-10T15:36:49.000Z</time>
      </trkpt>
      <trkpt lat="43.8466" lon="7.62177">
        <ele>104</ele>
        <time>2022-09-10T15:36:52.000Z</time>
      </trkpt>
      <trkpt lat="43.84658" lon="7.62172">
        <ele>105</ele>
        <time>2022-09-10T15:36:55.000Z</time>
      </trkpt>
      <trkpt lat="43.84656" lon="7.62173">
        <ele>105.40000152588</ele>
        <time>2022-09-10T15:36:56.000Z</time>
      </trkpt>
      <trkpt lat="43.84654" lon="7.62175">
        <ele>106</ele>
        <time>2022-09-10T15:36:58.000Z</time>
      </trkpt>
      <trkpt lat="43.84649" lon="7.62178">
        <ele>106.59999847412</ele>
        <time>2022-09-10T15:37:01.000Z</time>
      </trkpt>
      <trkpt lat="43.84645" lon="7.6218">
        <ele>107.19999694824</ele>
        <time>2022-09-10T15:37:03.000Z</time>
      </trkpt>
      <trkpt lat="43.84634" lon="7.62185">
        <ele>108.19999694824</ele>
        <time>2022-09-10T15:37:09.000Z</time>
      </trkpt>
      <trkpt lat="43.84624" lon="7.62189">
        <ele>109.19999694824</ele>
        <time>2022-09-10T15:37:15.000Z</time>
      </trkpt>
      <trkpt lat="43.84622" lon="7.62188">
        <ele>109.40000152588</ele>
        <time>2022-09-10T15:37:16.000Z</time>
      </trkpt>
      <trkpt lat="43.84612" lon="7.62184">
        <ele>110.40000152588</ele>
        <time>2022-09-10T15:37:22.000Z</time>
      </trkpt>
      <trkpt lat="43.8461" lon="7.62183">
        <ele>110.59999847412</ele>
        <time>2022-09-10T15:37:23.000Z</time>
      </trkpt>
      <trkpt lat="43.84605" lon="7.62184">
        <ele>111.40000152588</ele>
        <time>2022-09-10T15:37:26.000Z</time>
      </trkpt>
      <trkpt lat="43.846" lon="7.62187">
        <ele>112</ele>
        <time>2022-09-10T15:37:29.000Z</time>
      </trkpt>
      <trkpt lat="43.84597" lon="7.6219">
        <ele>112.40000152588</ele>
        <time>2022-09-10T15:37:31.000Z</time>
      </trkpt>
      <trkpt lat="43.84588" lon="7.62198">
        <ele>113.19999694824</ele>
        <time>2022-09-10T15:37:36.000Z</time>
      </trkpt>
      <trkpt lat="43.84585" lon="7.62201">
        <ele>113.59999847412</ele>
        <time>2022-09-10T15:37:38.000Z</time>
      </trkpt>
      <trkpt lat="43.84577" lon="7.62208">
        <ele>114.19999694824</ele>
        <time>2022-09-10T15:37:43.000Z</time>
      </trkpt>
      <trkpt lat="43.84576" lon="7.62209">
        <ele>114.40000152588</ele>
        <time>2022-09-10T15:37:44.000Z</time>
      </trkpt>
      <trkpt lat="43.84569" lon="7.62212">
        <ele>114.59999847412</ele>
        <time>2022-09-10T15:37:47.000Z</time>
      </trkpt>
      <trkpt lat="43.84557" lon="7.62203">
        <ele>115.19999694824</ele>
        <time>2022-09-10T15:37:53.000Z</time>
      </trkpt>
      <trkpt lat="43.84554" lon="7.62183">
        <ele>115.80000305176</ele>
        <time>2022-09-10T15:37:59.000Z</time>
      </trkpt>
      <trkpt lat="43.84554" lon="7.62177">
        <ele>116</ele>
        <time>2022-09-10T15:38:01.000Z</time>
      </trkpt>
      <trkpt lat="43.84556" lon="7.62163">
        <ele>116.80000305176</ele>
        <time>2022-09-10T15:38:06.000Z</time>
      </trkpt>
      <trkpt lat="43.84557" lon="7.62154">
        <ele>117.80000305176</ele>
        <time>2022-09-10T15:38:10.000Z</time>
      </trkpt>
      <trkpt lat="43.84556" lon="7.62146">
        <ele>118.40000152588</ele>
        <time>2022-09-10T15:38:13.000Z</time>
      </trkpt>
      <trkpt lat="43.84556" lon="7.62139">
        <ele>119</ele>
        <time>2022-09-10T15:38:15.000Z</time>
      </trkpt>
      <trkpt lat="43.84556" lon="7.62131">
        <ele>120</ele>
        <time>2022-09-10T15:38:18.000Z</time>
      </trkpt>
      <trkpt lat="43.84556" lon="7.62124">
        <ele>121.19999694824</ele>
        <time>2022-09-10T15:38:20.000Z</time>
      </trkpt>
      <trkpt lat="43.84556" lon="7.62121">
        <ele>121.59999847412</ele>
        <time>2022-09-10T15:38:21.000Z</time>
      </trkpt>
      <trkpt lat="43.84555" lon="7.62118">
        <ele>122.19999694824</ele>
        <time>2022-09-10T15:38:22.000Z</time>
      </trkpt>
      <trkpt lat="43.84554" lon="7.6211">
        <ele>123.19999694824</ele>
        <time>2022-09-10T15:38:25.000Z</time>
      </trkpt>
      <trkpt lat="43.84552" lon="7.62102">
        <ele>124.19999694824</ele>
        <time>2022-09-10T15:38:28.000Z</time>
      </trkpt>
      <trkpt lat="43.84551" lon="7.62099">
        <ele>124.59999847412</ele>
        <time>2022-09-10T15:38:29.000Z</time>
      </trkpt>
      <trkpt lat="43.84547" lon="7.62092">
        <ele>125.59999847412</ele>
        <time>2022-09-10T15:38:32.000Z</time>
      </trkpt>
      <trkpt lat="43.84542" lon="7.62083">
        <ele>126.80000305176</ele>
        <time>2022-09-10T15:38:36.000Z</time>
      </trkpt>
      <trkpt lat="43.84541" lon="7.6208">
        <ele>127</ele>
        <time>2022-09-10T15:38:37.000Z</time>
      </trkpt>
      <trkpt lat="43.84537" lon="7.62073">
        <ele>127.80000305176</ele>
        <time>2022-09-10T15:38:40.000Z</time>
      </trkpt>
      <trkpt lat="43.8453" lon="7.62064">
        <ele>129</ele>
        <time>2022-09-10T15:38:44.000Z</time>
      </trkpt>
      <trkpt lat="43.84529" lon="7.62062">
        <ele>129</ele>
        <time>2022-09-10T15:38:45.000Z</time>
      </trkpt>
      <trkpt lat="43.84518" lon="7.62058">
        <ele>130</ele>
        <time>2022-09-10T15:38:51.000Z</time>
      </trkpt>
      <trkpt lat="43.84512" lon="7.62072">
        <ele>131.19999694824</ele>
        <time>2022-09-10T15:38:56.000Z</time>
      </trkpt>
      <trkpt lat="43.84506" lon="7.62089">
        <ele>132.19999694824</ele>
        <time>2022-09-10T15:39:02.000Z</time>
      </trkpt>
      <trkpt lat="43.84503" lon="7.62094">
        <ele>132.60000610352</ele>
        <time>2022-09-10T15:39:04.000Z</time>
      </trkpt>
      <trkpt lat="43.84495" lon="7.62104">
        <ele>133.19999694824</ele>
        <time>2022-09-10T15:39:08.000Z</time>
      </trkpt>
      <trkpt lat="43.84489" lon="7.62109">
        <ele>133.60000610352</ele>
        <time>2022-09-10T15:39:11.000Z</time>
      </trkpt>
      <trkpt lat="43.8448" lon="7.62114">
        <ele>134.19999694824</ele>
        <time>2022-09-10T15:39:15.000Z</time>
      </trkpt>
      <trkpt lat="43.84471" lon="7.62119">
        <ele>134.80000305176</ele>
        <time>2022-09-10T15:39:19.000Z</time>
      </trkpt>
      <trkpt lat="43.84467" lon="7.6212">
        <ele>135.39999389648</ele>
        <time>2022-09-10T15:39:21.000Z</time>
      </trkpt>
      <trkpt lat="43.84453" lon="7.62125">
        <ele>136.60000610352</ele>
        <time>2022-09-10T15:39:27.000Z</time>
      </trkpt>
      <trkpt lat="43.84449" lon="7.62127">
        <ele>137</ele>
        <time>2022-09-10T15:39:29.000Z</time>
      </trkpt>
      <trkpt lat="43.8444" lon="7.6213">
        <ele>137.60000610352</ele>
        <time>2022-09-10T15:39:33.000Z</time>
      </trkpt>
      <trkpt lat="43.84435" lon="7.62131">
        <ele>138</ele>
        <time>2022-09-10T15:39:35.000Z</time>
      </trkpt>
      <trkpt lat="43.8443" lon="7.62133">
        <ele>138.80000305176</ele>
        <time>2022-09-10T15:39:38.000Z</time>
      </trkpt>
      <trkpt lat="43.84422" lon="7.62135">
        <ele>139.80000305176</ele>
        <time>2022-09-10T15:39:42.000Z</time>
      </trkpt>
      <trkpt lat="43.84421" lon="7.62136">
        <ele>140</ele>
        <time>2022-09-10T15:39:43.000Z</time>
      </trkpt>
      <trkpt lat="43.84412" lon="7.62137">
        <ele>140.80000305176</ele>
        <time>2022-09-10T15:39:47.000Z</time>
      </trkpt>
      <trkpt lat="43.84405" lon="7.62137">
        <ele>141.19999694824</ele>
        <time>2022-09-10T15:39:50.000Z</time>
      </trkpt>
      <trkpt lat="43.84395" lon="7.62137">
        <ele>142</ele>
        <time>2022-09-10T15:39:54.000Z</time>
      </trkpt>
      <trkpt lat="43.84383" lon="7.62134">
        <ele>142.60000610352</ele>
        <time>2022-09-10T15:39:59.000Z</time>
      </trkpt>
      <trkpt lat="43.84378" lon="7.62133">
        <ele>143</ele>
        <time>2022-09-10T15:40:01.000Z</time>
      </trkpt>
      <trkpt lat="43.84359" lon="7.62125">
        <ele>143.80000305176</ele>
        <time>2022-09-10T15:40:09.000Z</time>
      </trkpt>
      <trkpt lat="43.84357" lon="7.62123">
        <ele>144</ele>
        <time>2022-09-10T15:40:10.000Z</time>
      </trkpt>
      <trkpt lat="43.84348" lon="7.62113">
        <ele>145.19999694824</ele>
        <time>2022-09-10T15:40:15.000Z</time>
      </trkpt>
      <trkpt lat="43.84347" lon="7.6211">
        <ele>145.39999389648</ele>
        <time>2022-09-10T15:40:16.000Z</time>
      </trkpt>
      <trkpt lat="43.84342" lon="7.62103">
        <ele>146.39999389648</ele>
        <time>2022-09-10T15:40:19.000Z</time>
      </trkpt>
      <trkpt lat="43.84335" lon="7.62091">
        <ele>147.60000610352</ele>
        <time>2022-09-10T15:40:24.000Z</time>
      </trkpt>
      <trkpt lat="43.84334" lon="7.62089">
        <ele>147.80000305176</ele>
        <time>2022-09-10T15:40:25.000Z</time>
      </trkpt>
      <trkpt lat="43.84328" lon="7.62083">
        <ele>148.80000305176</ele>
        <time>2022-09-10T15:40:29.000Z</time>
      </trkpt>
      <trkpt lat="43.84324" lon="7.62084">
        <ele>149.39999389648</ele>
        <time>2022-09-10T15:40:31.000Z</time>
      </trkpt>
      <trkpt lat="43.84319" lon="7.62088">
        <ele>150</ele>
        <time>2022-09-10T15:40:34.000Z</time>
      </trkpt>
      <trkpt lat="43.84313" lon="7.62093">
        <ele>150.60000610352</ele>
        <time>2022-09-10T15:40:37.000Z</time>
      </trkpt>
      <trkpt lat="43.84311" lon="7.62095">
        <ele>151</ele>
        <time>2022-09-10T15:40:38.000Z</time>
      </trkpt>
      <trkpt lat="43.84301" lon="7.62103">
        <ele>152.19999694824</ele>
        <time>2022-09-10T15:40:43.000Z</time>
      </trkpt>
      <trkpt lat="43.843" lon="7.62104">
        <ele>152.39999389648</ele>
        <time>2022-09-10T15:40:44.000Z</time>
      </trkpt>
      <trkpt lat="43.84294" lon="7.62108">
        <ele>153.19999694824</ele>
        <time>2022-09-10T15:40:47.000Z</time>
      </trkpt>
      <trkpt lat="43.84287" lon="7.62113">
        <ele>154</ele>
        <time>2022-09-10T15:40:51.000Z</time>
      </trkpt>
      <trkpt lat="43.84286" lon="7.62115">
        <ele>154.19999694824</ele>
        <time>2022-09-10T15:40:52.000Z</time>
      </trkpt>
      <trkpt lat="43.84278" lon="7.62125">
        <ele>155.39999389648</ele>
        <time>2022-09-10T15:40:57.000Z</time>
      </trkpt>
      <trkpt lat="43.8427" lon="7.62135">
        <ele>156.60000610352</ele>
        <time>2022-09-10T15:41:02.000Z</time>
      </trkpt>
      <trkpt lat="43.84266" lon="7.62141">
        <ele>157.19999694824</ele>
        <time>2022-09-10T15:41:05.000Z</time>
      </trkpt>
      <trkpt lat="43.84261" lon="7.62146">
        <ele>158</ele>
        <time>2022-09-10T15:41:08.000Z</time>
      </trkpt>
      <trkpt lat="43.84254" lon="7.62153">
        <ele>158.80000305176</ele>
        <time>2022-09-10T15:41:12.000Z</time>
      </trkpt>
      <trkpt lat="43.84251" lon="7.62157">
        <ele>159</ele>
        <time>2022-09-10T15:41:14.000Z</time>
      </trkpt>
      <trkpt lat="43.8424" lon="7.62161">
        <ele>160</ele>
        <time>2022-09-10T15:41:19.000Z</time>
      </trkpt>
      <trkpt lat="43.84238" lon="7.62162">
        <ele>160</ele>
        <time>2022-09-10T15:41:20.000Z</time>
      </trkpt>
      <trkpt lat="43.84225" lon="7.62167">
        <ele>161.19999694824</ele>
        <time>2022-09-10T15:41:27.000Z</time>
      </trkpt>
      <trkpt lat="43.84223" lon="7.62168">
        <ele>161.19999694824</ele>
        <time>2022-09-10T15:41:28.000Z</time>
      </trkpt>
      <trkpt lat="43.84215" lon="7.6218">
        <ele>161.80000305176</ele>
        <time>2022-09-10T15:41:34.000Z</time>
      </trkpt>
      <trkpt lat="43.84209" lon="7.62197">
        <ele>162.19999694824</ele>
        <time>2022-09-10T15:41:39.000Z</time>
      </trkpt>
      <trkpt lat="43.84208" lon="7.62203">
        <ele>162.19999694824</ele>
        <time>2022-09-10T15:41:41.000Z</time>
      </trkpt>
      <trkpt lat="43.84199" lon="7.62223">
        <ele>162.80000305176</ele>
        <time>2022-09-10T15:41:48.000Z</time>
      </trkpt>
      <trkpt lat="43.84192" lon="7.62232">
        <ele>163.19999694824</ele>
        <time>2022-09-10T15:41:52.000Z</time>
      </trkpt>
      <trkpt lat="43.84185" lon="7.62236">
        <ele>163.60000610352</ele>
        <time>2022-09-10T15:41:55.000Z</time>
      </trkpt>
      <trkpt lat="43.8417" lon="7.62241">
        <ele>164.39999389648</ele>
        <time>2022-09-10T15:42:02.000Z</time>
      </trkpt>
      <trkpt lat="43.84164" lon="7.62243">
        <ele>165</ele>
        <time>2022-09-10T15:42:05.000Z</time>
      </trkpt>
      <trkpt lat="43.84158" lon="7.62246">
        <ele>165.60000610352</ele>
        <time>2022-09-10T15:42:08.000Z</time>
      </trkpt>
      <trkpt lat="43.84148" lon="7.6225">
        <ele>166.60000610352</ele>
        <time>2022-09-10T15:42:13.000Z</time>
      </trkpt>
      <trkpt lat="43.84138" lon="7.62256">
        <ele>167.80000305176</ele>
        <time>2022-09-10T15:42:18.000Z</time>
      </trkpt>
      <trkpt lat="43.84128" lon="7.62261">
        <ele>169</ele>
        <time>2022-09-10T15:42:23.000Z</time>
      </trkpt>
      <trkpt lat="43.84119" lon="7.62263">
        <ele>170.19999694824</ele>
        <time>2022-09-10T15:42:27.000Z</time>
      </trkpt>
      <trkpt lat="43.84111" lon="7.62264">
        <ele>170.80000305176</ele>
        <time>2022-09-10T15:42:31.000Z</time>
      </trkpt>
      <trkpt lat="43.84107" lon="7.62263">
        <ele>171.19999694824</ele>
        <time>2022-09-10T15:42:33.000Z</time>
      </trkpt>
      <trkpt lat="43.84097" lon="7.62255">
        <ele>172.19999694824</ele>
        <time>2022-09-10T15:42:38.000Z</time>
      </trkpt>
      <trkpt lat="43.84084" lon="7.6224">
        <ele>172.80000305176</ele>
        <time>2022-09-10T15:42:45.000Z</time>
      </trkpt>
      <trkpt lat="43.84075" lon="7.62229">
        <ele>173.19999694824</ele>
        <time>2022-09-10T15:42:50.000Z</time>
      </trkpt>
      <trkpt lat="43.84068" lon="7.62221">
        <ele>173.80000305176</ele>
        <time>2022-09-10T15:42:54.000Z</time>
      </trkpt>
      <trkpt lat="43.84058" lon="7.62211">
        <ele>174.39999389648</ele>
        <time>2022-09-10T15:42:59.000Z</time>
      </trkpt>
      <trkpt lat="43.84055" lon="7.62206">
        <ele>174.60000610352</ele>
        <time>2022-09-10T15:43:01.000Z</time>
      </trkpt>
      <trkpt lat="43.84043" lon="7.62191">
        <ele>175.39999389648</ele>
        <time>2022-09-10T15:43:07.000Z</time>
      </trkpt>
      <trkpt lat="43.84038" lon="7.62183">
        <ele>175.80000305176</ele>
        <time>2022-09-10T15:43:10.000Z</time>
      </trkpt>
      <trkpt lat="43.84027" lon="7.6217">
        <ele>176.39999389648</ele>
        <time>2022-09-10T15:43:15.000Z</time>
      </trkpt>
      <trkpt lat="43.8402" lon="7.62165">
        <ele>176.60000610352</ele>
        <time>2022-09-10T15:43:18.000Z</time>
      </trkpt>
      <trkpt lat="43.84007" lon="7.62169">
        <ele>177</ele>
        <time>2022-09-10T15:43:23.000Z</time>
      </trkpt>
      <trkpt lat="43.83998" lon="7.62179">
        <ele>177.60000610352</ele>
        <time>2022-09-10T15:43:27.000Z</time>
      </trkpt>
      <trkpt lat="43.83993" lon="7.62183">
        <ele>178</ele>
        <time>2022-09-10T15:43:29.000Z</time>
      </trkpt>
      <trkpt lat="43.83988" lon="7.62186">
        <ele>178.60000610352</ele>
        <time>2022-09-10T15:43:31.000Z</time>
      </trkpt>
      <trkpt lat="43.83972" lon="7.6219">
        <ele>179.60000610352</ele>
        <time>2022-09-10T15:43:37.000Z</time>
      </trkpt>
      <trkpt lat="43.83954" lon="7.62185">
        <ele>180.60000610352</ele>
        <time>2022-09-10T15:43:44.000Z</time>
      </trkpt>
      <trkpt lat="43.83952" lon="7.62183">
        <ele>180.80000305176</ele>
        <time>2022-09-10T15:43:45.000Z</time>
      </trkpt>
      <trkpt lat="43.83942" lon="7.6217">
        <ele>181.19999694824</ele>
        <time>2022-09-10T15:43:50.000Z</time>
      </trkpt>
      <trkpt lat="43.83931" lon="7.62165">
        <ele>181.19999694824</ele>
        <time>2022-09-10T15:43:55.000Z</time>
      </trkpt>
      <trkpt lat="43.8392" lon="7.62176">
        <ele>181.60000610352</ele>
        <time>2022-09-10T15:44:00.000Z</time>
      </trkpt>
      <trkpt lat="43.83914" lon="7.62182">
        <ele>182</ele>
        <time>2022-09-10T15:44:03.000Z</time>
      </trkpt>
      <trkpt lat="43.83902" lon="7.6219">
        <ele>182.80000305176</ele>
        <time>2022-09-10T15:44:08.000Z</time>
      </trkpt>
      <trkpt lat="43.83897" lon="7.62193">
        <ele>183</ele>
        <time>2022-09-10T15:44:10.000Z</time>
      </trkpt>
      <trkpt lat="43.83884" lon="7.62197">
        <ele>183.39999389648</ele>
        <time>2022-09-10T15:44:15.000Z</time>
      </trkpt>
      <trkpt lat="43.83877" lon="7.6219">
        <ele>183.80000305176</ele>
        <time>2022-09-10T15:44:19.000Z</time>
      </trkpt>
      <trkpt lat="43.83876" lon="7.62187">
        <ele>184.19999694824</ele>
        <time>2022-09-10T15:44:20.000Z</time>
      </trkpt>
      <trkpt lat="43.83879" lon="7.62179">
        <ele>185.39999389648</ele>
        <time>2022-09-10T15:44:23.000Z</time>
      </trkpt>
      <trkpt lat="43.83884" lon="7.62174">
        <ele>186.60000610352</ele>
        <time>2022-09-10T15:44:26.000Z</time>
      </trkpt>
      <trkpt lat="43.8389" lon="7.62171">
        <ele>187.39999389648</ele>
        <time>2022-09-10T15:44:29.000Z</time>
      </trkpt>
      <trkpt lat="43.83892" lon="7.6217">
        <ele>187.60000610352</ele>
        <time>2022-09-10T15:44:30.000Z</time>
      </trkpt>
      <trkpt lat="43.83894" lon="7.62168">
        <ele>187.80000305176</ele>
        <time>2022-09-10T15:44:31.000Z</time>
      </trkpt>
      <trkpt lat="43.83903" lon="7.62162">
        <ele>189</ele>
        <time>2022-09-10T15:44:36.000Z</time>
      </trkpt>
      <trkpt lat="43.83905" lon="7.62161">
        <ele>189.19999694824</ele>
        <time>2022-09-10T15:44:37.000Z</time>
      </trkpt>
      <trkpt lat="43.83909" lon="7.62155">
        <ele>190</ele>
        <time>2022-09-10T15:44:40.000Z</time>
      </trkpt>
      <trkpt lat="43.83914" lon="7.62147">
        <ele>191</ele>
        <time>2022-09-10T15:44:43.000Z</time>
      </trkpt>
      <trkpt lat="43.83916" lon="7.62144">
        <ele>191.39999389648</ele>
        <time>2022-09-10T15:44:44.000Z</time>
      </trkpt>
      <trkpt lat="43.83923" lon="7.62129">
        <ele>192.39999389648</ele>
        <time>2022-09-10T15:44:49.000Z</time>
      </trkpt>
      <trkpt lat="43.83928" lon="7.62123">
        <ele>193</ele>
        <time>2022-09-10T15:44:52.000Z</time>
      </trkpt>
      <trkpt lat="43.83935" lon="7.62119">
        <ele>193.60000610352</ele>
        <time>2022-09-10T15:44:55.000Z</time>
      </trkpt>
      <trkpt lat="43.83942" lon="7.62119">
        <ele>194.19999694824</ele>
        <time>2022-09-10T15:44:58.000Z</time>
      </trkpt>
      <trkpt lat="43.83947" lon="7.62122">
        <ele>194.80000305176</ele>
        <time>2022-09-10T15:45:00.000Z</time>
      </trkpt>
      <trkpt lat="43.83959" lon="7.62128">
        <ele>195.80000305176</ele>
        <time>2022-09-10T15:45:05.000Z</time>
      </trkpt>
      <trkpt lat="43.83975" lon="7.62126">
        <ele>196.80000305176</ele>
        <time>2022-09-10T15:45:11.000Z</time>
      </trkpt>
      <trkpt lat="43.83978" lon="7.62125">
        <ele>197.19999694824</ele>
        <time>2022-09-10T15:45:12.000Z</time>
      </trkpt>
      <trkpt lat="43.83991" lon="7.62112">
        <ele>198</ele>
        <time>2022-09-10T15:45:18.000Z</time>
      </trkpt>
      <trkpt lat="43.84005" lon="7.62098">
        <ele>198.60000610352</ele>
        <time>2022-09-10T15:45:24.000Z</time>
      </trkpt>
      <trkpt lat="43.84015" lon="7.62102">
        <ele>199.19999694824</ele>
        <time>2022-09-10T15:45:28.000Z</time>
      </trkpt>
      <trkpt lat="43.84029" lon="7.62113">
        <ele>200.19999694824</ele>
        <time>2022-09-10T15:45:34.000Z</time>
      </trkpt>
      <trkpt lat="43.84034" lon="7.62116">
        <ele>200.60000610352</ele>
        <time>2022-09-10T15:45:36.000Z</time>
      </trkpt>
      <trkpt lat="43.84045" lon="7.62119">
        <ele>201.19999694824</ele>
        <time>2022-09-10T15:45:40.000Z</time>
      </trkpt>
      <trkpt lat="43.8405" lon="7.62121">
        <ele>201.39999389648</ele>
        <time>2022-09-10T15:45:42.000Z</time>
      </trkpt>
      <trkpt lat="43.84063" lon="7.62128">
        <ele>202.39999389648</ele>
        <time>2022-09-10T15:45:48.000Z</time>
      </trkpt>
      <trkpt lat="43.84066" lon="7.62129">
        <ele>202.60000610352</ele>
        <time>2022-09-10T15:45:49.000Z</time>
      </trkpt>
      <trkpt lat="43.84074" lon="7.62133">
        <ele>203.60000610352</ele>
        <time>2022-09-10T15:45:53.000Z</time>
      </trkpt>
      <trkpt lat="43.84085" lon="7.62137">
        <ele>204.60000610352</ele>
        <time>2022-09-10T15:45:58.000Z</time>
      </trkpt>
      <trkpt lat="43.84087" lon="7.62137">
        <ele>204.80000305176</ele>
        <time>2022-09-10T15:45:59.000Z</time>
      </trkpt>
      <trkpt lat="43.84099" lon="7.62134">
        <ele>206</ele>
        <time>2022-09-10T15:46:04.000Z</time>
      </trkpt>
      <trkpt lat="43.84113" lon="7.62126">
        <ele>207.19999694824</ele>
        <time>2022-09-10T15:46:10.000Z</time>
      </trkpt>
      <trkpt lat="43.84119" lon="7.62121">
        <ele>207.80000305176</ele>
        <time>2022-09-10T15:46:13.000Z</time>
      </trkpt>
      <trkpt lat="43.84123" lon="7.62117">
        <ele>208.39999389648</ele>
        <time>2022-09-10T15:46:15.000Z</time>
      </trkpt>
      <trkpt lat="43.84132" lon="7.62107">
        <ele>209.60000610352</ele>
        <time>2022-09-10T15:46:20.000Z</time>
      </trkpt>
      <trkpt lat="43.84143" lon="7.62095">
        <ele>210.60000610352</ele>
        <time>2022-09-10T15:46:26.000Z</time>
      </trkpt>
      <trkpt lat="43.84151" lon="7.62081">
        <ele>211.60000610352</ele>
        <time>2022-09-10T15:46:31.000Z</time>
      </trkpt>
      <trkpt lat="43.84154" lon="7.62072">
        <ele>212.19999694824</ele>
        <time>2022-09-10T15:46:34.000Z</time>
      </trkpt>
      <trkpt lat="43.84165" lon="7.62053">
        <ele>212.60000610352</ele>
        <time>2022-09-10T15:46:40.000Z</time>
      </trkpt>
      <trkpt lat="43.84167" lon="7.62049">
        <ele>212.60000610352</ele>
        <time>2022-09-10T15:46:41.000Z</time>
      </trkpt>
      <trkpt lat="43.84184" lon="7.62033">
        <ele>212.60000610352</ele>
        <time>2022-09-10T15:46:47.000Z</time>
      </trkpt>
      <trkpt lat="43.84209" lon="7.62006">
        <ele>212.39999389648</ele>
        <time>2022-09-10T15:46:55.000Z</time>
      </trkpt>
      <trkpt lat="43.84235" lon="7.61988">
        <ele>212.19999694824</ele>
        <time>2022-09-10T15:47:02.000Z</time>
      </trkpt>
      <trkpt lat="43.84251" lon="7.61974">
        <ele>211.80000305176</ele>
        <time>2022-09-10T15:47:06.000Z</time>
      </trkpt>
      <trkpt lat="43.84254" lon="7.6197">
        <ele>211.60000610352</ele>
        <time>2022-09-10T15:47:07.000Z</time>
      </trkpt>
      <trkpt lat="43.84257" lon="7.61966">
        <ele>211.80000305176</ele>
        <time>2022-09-10T15:47:08.000Z</time>
      </trkpt>
      <trkpt lat="43.84267" lon="7.61936">
        <ele>211.60000610352</ele>
        <time>2022-09-10T15:47:13.000Z</time>
      </trkpt>
      <trkpt lat="43.84268" lon="7.61929">
        <ele>211.19999694824</ele>
        <time>2022-09-10T15:47:14.000Z</time>
      </trkpt>
      <trkpt lat="43.84273" lon="7.61916">
        <ele>211</ele>
        <time>2022-09-10T15:47:16.000Z</time>
      </trkpt>
      <trkpt lat="43.84279" lon="7.61914">
        <ele>210.60000610352</ele>
        <time>2022-09-10T15:47:17.000Z</time>
      </trkpt>
      <trkpt lat="43.84295" lon="7.61914">
        <ele>209.60000610352</ele>
        <time>2022-09-10T15:47:20.000Z</time>
      </trkpt>
      <trkpt lat="43.84317" lon="7.61914">
        <ele>209</ele>
        <time>2022-09-10T15:47:24.000Z</time>
      </trkpt>
      <trkpt lat="43.84322" lon="7.61916">
        <ele>209</ele>
        <time>2022-09-10T15:47:25.000Z</time>
      </trkpt>
      <trkpt lat="43.84337" lon="7.61921">
        <ele>208.60000610352</ele>
        <time>2022-09-10T15:47:28.000Z</time>
      </trkpt>
      <trkpt lat="43.84346" lon="7.61925">
        <ele>208.39999389648</ele>
        <time>2022-09-10T15:47:30.000Z</time>
      </trkpt>
      <trkpt lat="43.84363" lon="7.61933">
        <ele>208.39999389648</ele>
        <time>2022-09-10T15:47:35.000Z</time>
      </trkpt>
      <trkpt lat="43.84383" lon="7.61951">
        <ele>209.60000610352</ele>
        <time>2022-09-10T15:47:42.000Z</time>
      </trkpt>
      <trkpt lat="43.84399" lon="7.6196">
        <ele>210.80000305176</ele>
        <time>2022-09-10T15:47:48.000Z</time>
      </trkpt>
      <trkpt lat="43.84401" lon="7.61959">
        <ele>211</ele>
        <time>2022-09-10T15:47:49.000Z</time>
      </trkpt>
      <trkpt lat="43.84407" lon="7.61952">
        <ele>211.39999389648</ele>
        <time>2022-09-10T15:47:52.000Z</time>
      </trkpt>
      <trkpt lat="43.84409" lon="7.61945">
        <ele>211.80000305176</ele>
        <time>2022-09-10T15:47:54.000Z</time>
      </trkpt>
      <trkpt lat="43.8441" lon="7.61938">
        <ele>212.39999389648</ele>
        <time>2022-09-10T15:47:56.000Z</time>
      </trkpt>
      <trkpt lat="43.8441" lon="7.61934">
        <ele>212.60000610352</ele>
        <time>2022-09-10T15:47:57.000Z</time>
      </trkpt>
      <trkpt lat="43.8441" lon="7.61931">
        <ele>213</ele>
        <time>2022-09-10T15:47:58.000Z</time>
      </trkpt>
      <trkpt lat="43.8441" lon="7.61913">
        <ele>214</ele>
        <time>2022-09-10T15:48:02.000Z</time>
      </trkpt>
      <trkpt lat="43.8441" lon="7.61896">
        <ele>215</ele>
        <time>2022-09-10T15:48:06.000Z</time>
      </trkpt>
      <trkpt lat="43.8441" lon="7.61877">
        <ele>216</ele>
        <time>2022-09-10T15:48:10.000Z</time>
      </trkpt>
      <trkpt lat="43.84411" lon="7.61858">
        <ele>217</ele>
        <time>2022-09-10T15:48:14.000Z</time>
      </trkpt>
      <trkpt lat="43.84411" lon="7.61853">
        <ele>217.19999694824</ele>
        <time>2022-09-10T15:48:15.000Z</time>
      </trkpt>
      <trkpt lat="43.84414" lon="7.61828">
        <ele>218.39999389648</ele>
        <time>2022-09-10T15:48:21.000Z</time>
      </trkpt>
      <trkpt lat="43.84415" lon="7.61825">
        <ele>218.60000610352</ele>
        <time>2022-09-10T15:48:22.000Z</time>
      </trkpt>
      <trkpt lat="43.84429" lon="7.61807">
        <ele>219.19999694824</ele>
        <time>2022-09-10T15:48:28.000Z</time>
      </trkpt>
      <trkpt lat="43.84447" lon="7.61799">
        <ele>219.19999694824</ele>
        <time>2022-09-10T15:48:34.000Z</time>
      </trkpt>
      <trkpt lat="43.8446" lon="7.61798">
        <ele>219.39999389648</ele>
        <time>2022-09-10T15:48:38.000Z</time>
      </trkpt>
      <trkpt lat="43.84478" lon="7.61795">
        <ele>219.60000610352</ele>
        <time>2022-09-10T15:48:44.000Z</time>
      </trkpt>
      <trkpt lat="43.84503" lon="7.61792">
        <ele>219.80000305176</ele>
        <time>2022-09-10T15:48:52.000Z</time>
      </trkpt>
      <trkpt lat="43.84534" lon="7.61793">
        <ele>220.19999694824</ele>
        <time>2022-09-10T15:49:00.000Z</time>
      </trkpt>
      <trkpt lat="43.8456" lon="7.61805">
        <ele>220</ele>
        <time>2022-09-10T15:49:07.000Z</time>
      </trkpt>
      <trkpt lat="43.84584" lon="7.618">
        <ele>220.19999694824</ele>
        <time>2022-09-10T15:49:13.000Z</time>
      </trkpt>
      <trkpt lat="43.84619" lon="7.61787">
        <ele>220.39999389648</ele>
        <time>2022-09-10T15:49:22.000Z</time>
      </trkpt>
      <trkpt lat="43.84632" lon="7.61783">
        <ele>220.60000610352</ele>
        <time>2022-09-10T15:49:26.000Z</time>
      </trkpt>
      <trkpt lat="43.8464" lon="7.61781">
        <ele>220.80000305176</ele>
        <time>2022-09-10T15:49:29.000Z</time>
      </trkpt>
      <trkpt lat="43.84669" lon="7.61774">
        <ele>221.60000610352</ele>
        <time>2022-09-10T15:49:38.000Z</time>
      </trkpt>
      <trkpt lat="43.84675" lon="7.61773">
        <ele>221.60000610352</ele>
        <time>2022-09-10T15:49:41.000Z</time>
      </trkpt>
      <trkpt lat="43.84678" lon="7.61772">
        <ele>222</ele>
        <time>2022-09-10T15:49:43.000Z</time>
      </trkpt>
      <trkpt lat="43.84678" lon="7.6177">
        <ele>222.39999389648</ele>
        <time>2022-09-10T15:49:45.000Z</time>
      </trkpt>
      <trkpt lat="43.84674" lon="7.6177">
        <ele>222.39999389648</ele>
        <time>2022-09-10T15:49:47.000Z</time>
      </trkpt>
      <trkpt lat="43.8467" lon="7.61772">
        <ele>222.19999694824</ele>
        <time>2022-09-10T15:49:49.000Z</time>
      </trkpt>
      <trkpt lat="43.84662" lon="7.61774">
        <ele>222</ele>
        <time>2022-09-10T15:49:52.000Z</time>
      </trkpt>
      <trkpt lat="43.84641" lon="7.6178">
        <ele>221</ele>
        <time>2022-09-10T15:49:59.000Z</time>
      </trkpt>
      <trkpt lat="43.8463" lon="7.61784">
        <ele>220.80000305176</ele>
        <time>2022-09-10T15:50:05.000Z</time>
      </trkpt>
      <trkpt lat="43.8463" lon="7.61783">
        <ele>221</ele>
        <time>2022-09-10T15:50:10.000Z</time>
      </trkpt>
      <trkpt lat="43.8463" lon="7.61783">
        <ele>221.39999389648</ele>
        <time>2022-09-10T15:50:31.000Z</time>
      </trkpt>
      <trkpt lat="43.84631" lon="7.61782">
        <ele>221.60000610352</ele>
        <time>2022-09-10T15:50:54.000Z</time>
      </trkpt>
      <trkpt lat="43.84631" lon="7.61782">
        <ele>221.39999389648</ele>
        <time>2022-09-10T15:51:11.000Z</time>
      </trkpt>
      <trkpt lat="43.84631" lon="7.61782">
        <ele>221.39999389648</ele>
        <time>2022-09-10T15:51:42.000Z</time>
      </trkpt>
      <trkpt lat="43.8463" lon="7.61782">
        <ele>221.39999389648</ele>
        <time>2022-09-10T15:52:12.000Z</time>
      </trkpt>
      <trkpt lat="43.84624" lon="7.61784">
        <ele>221.19999694824</ele>
        <time>2022-09-10T15:52:19.000Z</time>
      </trkpt>
      <trkpt lat="43.84605" lon="7.6179">
        <ele>220.39999389648</ele>
        <time>2022-09-10T15:52:25.000Z</time>
      </trkpt>
      <trkpt lat="43.84574" lon="7.61799">
        <ele>219.80000305176</ele>
        <time>2022-09-10T15:52:34.000Z</time>
      </trkpt>
      <trkpt lat="43.84553" lon="7.61799">
        <ele>219.80000305176</ele>
        <time>2022-09-10T15:52:40.000Z</time>
      </trkpt>
      <trkpt lat="43.84533" lon="7.61789">
        <ele>220</ele>
        <time>2022-09-10T15:52:46.000Z</time>
      </trkpt>
      <trkpt lat="43.84513" lon="7.61787">
        <ele>220</ele>
        <time>2022-09-10T15:52:52.000Z</time>
      </trkpt>
      <trkpt lat="43.84483" lon="7.61789">
        <ele>219.80000305176</ele>
        <time>2022-09-10T15:53:02.000Z</time>
      </trkpt>
      <trkpt lat="43.84461" lon="7.61795">
        <ele>220</ele>
        <time>2022-09-10T15:53:11.000Z</time>
      </trkpt>
      <trkpt lat="43.84441" lon="7.61795">
        <ele>220</ele>
        <time>2022-09-10T15:53:18.000Z</time>
      </trkpt>
      <trkpt lat="43.8443" lon="7.61803">
        <ele>219.60000610352</ele>
        <time>2022-09-10T15:53:22.000Z</time>
      </trkpt>
      <trkpt lat="43.84417" lon="7.61816">
        <ele>219.60000610352</ele>
        <time>2022-09-10T15:53:28.000Z</time>
      </trkpt>
      <trkpt lat="43.84413" lon="7.61828">
        <ele>219.80000305176</ele>
        <time>2022-09-10T15:53:33.000Z</time>
      </trkpt>
      <trkpt lat="43.84414" lon="7.61829">
        <ele>219.80000305176</ele>
        <time>2022-09-10T15:53:34.000Z</time>
      </trkpt>
      <trkpt lat="43.84415" lon="7.61825">
        <ele>219.60000610352</ele>
        <time>2022-09-10T15:53:36.000Z</time>
      </trkpt>
      <trkpt lat="43.8442" lon="7.61814">
        <ele>219.60000610352</ele>
        <time>2022-09-10T15:53:40.000Z</time>
      </trkpt>
      <trkpt lat="43.84427" lon="7.61807">
        <ele>220</ele>
        <time>2022-09-10T15:53:43.000Z</time>
      </trkpt>
      <trkpt lat="43.84439" lon="7.61799">
        <ele>219.80000305176</ele>
        <time>2022-09-10T15:53:47.000Z</time>
      </trkpt>
      <trkpt lat="43.84456" lon="7.61798">
        <ele>220.19999694824</ele>
        <time>2022-09-10T15:53:53.000Z</time>
      </trkpt>
      <trkpt lat="43.84479" lon="7.61793">
        <ele>220.60000610352</ele>
        <time>2022-09-10T15:54:02.000Z</time>
      </trkpt>
      <trkpt lat="43.84482" lon="7.61791">
        <ele>220.80000305176</ele>
        <time>2022-09-10T15:54:07.000Z</time>
      </trkpt>
      <trkpt lat="43.84482" lon="7.61791">
        <ele>221.19999694824</ele>
        <time>2022-09-10T15:54:20.000Z</time>
      </trkpt>
      <trkpt lat="43.84483" lon="7.61791">
        <ele>221.39999389648</ele>
        <time>2022-09-10T15:54:40.000Z</time>
      </trkpt>
      <trkpt lat="43.84483" lon="7.61791">
        <ele>221.39999389648</ele>
        <time>2022-09-10T15:54:46.000Z</time>
      </trkpt>
      <trkpt lat="43.84483" lon="7.61791">
        <ele>221.60000610352</ele>
        <time>2022-09-10T15:55:03.000Z</time>
      </trkpt>
      <trkpt lat="43.84483" lon="7.6179">
        <ele>221.39999389648</ele>
        <time>2022-09-10T15:55:18.000Z</time>
      </trkpt>
      <trkpt lat="43.84484" lon="7.61789">
        <ele>221.19999694824</ele>
        <time>2022-09-10T15:55:26.000Z</time>
      </trkpt>
      <trkpt lat="43.84487" lon="7.6179">
        <ele>221.19999694824</ele>
        <time>2022-09-10T15:55:28.000Z</time>
      </trkpt>
      <trkpt lat="43.84493" lon="7.61789">
        <ele>221.19999694824</ele>
        <time>2022-09-10T15:55:31.000Z</time>
      </trkpt>
      <trkpt lat="43.845" lon="7.61789">
        <ele>221.19999694824</ele>
        <time>2022-09-10T15:55:34.000Z</time>
      </trkpt>
      <trkpt lat="43.84519" lon="7.61789">
        <ele>221.39999389648</ele>
        <time>2022-09-10T15:55:42.000Z</time>
      </trkpt>
      <trkpt lat="43.84542" lon="7.61796">
        <ele>221.19999694824</ele>
        <time>2022-09-10T15:55:51.000Z</time>
      </trkpt>
      <trkpt lat="43.84565" lon="7.61804">
        <ele>221.19999694824</ele>
        <time>2022-09-10T15:56:00.000Z</time>
      </trkpt>
      <trkpt lat="43.8459" lon="7.61796">
        <ele>221.19999694824</ele>
        <time>2022-09-10T15:56:09.000Z</time>
      </trkpt>
      <trkpt lat="43.84611" lon="7.6179">
        <ele>221.19999694824</ele>
        <time>2022-09-10T15:56:17.000Z</time>
      </trkpt>
      <trkpt lat="43.84629" lon="7.61784">
        <ele>221.60000610352</ele>
        <time>2022-09-10T15:56:25.000Z</time>
      </trkpt>
      <trkpt lat="43.84635" lon="7.61782">
        <ele>222</ele>
        <time>2022-09-10T15:56:31.000Z</time>
      </trkpt>
      <trkpt lat="43.84635" lon="7.61782">
        <ele>222.19999694824</ele>
        <time>2022-09-10T15:56:45.000Z</time>
      </trkpt>
      <trkpt lat="43.84636" lon="7.61782">
        <ele>222.19999694824</ele>
        <time>2022-09-10T15:57:18.000Z</time>
      </trkpt>
      <trkpt lat="43.84638" lon="7.61782">
        <ele>222.19999694824</ele>
        <time>2022-09-10T15:57:34.000Z</time>
      </trkpt>
      <trkpt lat="43.84638" lon="7.61783">
        <ele>222.19999694824</ele>
        <time>2022-09-10T15:57:43.000Z</time>
      </trkpt>
      <trkpt lat="43.84638" lon="7.61783">
        <ele>222</ele>
        <time>2022-09-10T15:58:02.000Z</time>
      </trkpt>
      <trkpt lat="43.84637" lon="7.61783">
        <ele>222</ele>
        <time>2022-09-10T15:58:23.000Z</time>
      </trkpt>
      <trkpt lat="43.8464" lon="7.61781">
        <ele>222</ele>
        <time>2022-09-10T15:58:40.000Z</time>
      </trkpt>
      <trkpt lat="43.84646" lon="7.61778">
        <ele>222</ele>
        <time>2022-09-10T15:58:45.000Z</time>
      </trkpt>
      <trkpt lat="43.84647" lon="7.61778">
        <ele>222</ele>
        <time>2022-09-10T15:58:46.000Z</time>
      </trkpt>
      <trkpt lat="43.84649" lon="7.61777">
        <ele>222</ele>
        <time>2022-09-10T15:58:47.000Z</time>
      </trkpt>
      <trkpt lat="43.84654" lon="7.61777">
        <ele>222</ele>
        <time>2022-09-10T15:58:50.000Z</time>
      </trkpt>
      <trkpt lat="43.84661" lon="7.61776">
        <ele>222.19999694824</ele>
        <time>2022-09-10T15:58:56.000Z</time>
      </trkpt>
      <trkpt lat="43.84662" lon="7.61776">
        <ele>222.39999389648</ele>
        <time>2022-09-10T15:59:01.000Z</time>
      </trkpt>
      <trkpt lat="43.84662" lon="7.61777">
        <ele>222.39999389648</ele>
        <time>2022-09-10T15:59:05.000Z</time>
      </trkpt>
      <trkpt lat="43.84661" lon="7.61778">
        <ele>222.19999694824</ele>
        <time>2022-09-10T15:59:08.000Z</time>
      </trkpt>
      <trkpt lat="43.84661" lon="7.61778">
        <ele>222.19999694824</ele>
        <time>2022-09-10T15:59:16.000Z</time>
      </trkpt>
      <trkpt lat="43.84662" lon="7.61777">
        <ele>221.80000305176</ele>
        <time>2022-09-10T15:59:23.000Z</time>
      </trkpt>
      <trkpt lat="43.84663" lon="7.61777">
        <ele>221.80000305176</ele>
        <time>2022-09-10T15:59:29.000Z</time>
      </trkpt>
      <trkpt lat="43.84663" lon="7.61778">
        <ele>222.39999389648</ele>
        <time>2022-09-10T15:59:40.000Z</time>
      </trkpt>
      <trkpt lat="43.84662" lon="7.61778">
        <ele>222.19999694824</ele>
        <time>2022-09-10T15:59:48.000Z</time>
      </trkpt>
      <trkpt lat="43.84663" lon="7.61777">
        <ele>222</ele>
        <time>2022-09-10T16:00:03.000Z</time>
      </trkpt>
      <trkpt lat="43.84663" lon="7.61777">
        <ele>222.19999694824</ele>
        <time>2022-09-10T16:00:16.000Z</time>
      </trkpt>
      <trkpt lat="43.84662" lon="7.61778">
        <ele>221.60000610352</ele>
        <time>2022-09-10T16:00:33.000Z</time>
      </trkpt>
      <trkpt lat="43.84663" lon="7.61779">
        <ele>221.60000610352</ele>
        <time>2022-09-10T16:00:51.000Z</time>
      </trkpt>
      <trkpt lat="43.84662" lon="7.61781">
        <ele>221.39999389648</ele>
        <time>2022-09-10T16:01:00.000Z</time>
      </trkpt>
      <trkpt lat="43.84662" lon="7.61782">
        <ele>221.39999389648</ele>
        <time>2022-09-10T16:01:09.000Z</time>
      </trkpt>
      <trkpt lat="43.84662" lon="7.61781">
        <ele>221.80000305176</ele>
        <time>2022-09-10T16:01:15.000Z</time>
      </trkpt>
      <trkpt lat="43.84663" lon="7.61779">
        <ele>222</ele>
        <time>2022-09-10T16:01:24.000Z</time>
      </trkpt>
      <trkpt lat="43.84663" lon="7.61779">
        <ele>221.60000610352</ele>
        <time>2022-09-10T16:01:32.000Z</time>
      </trkpt>
      <trkpt lat="43.84663" lon="7.61778">
        <ele>221.60000610352</ele>
        <time>2022-09-10T16:01:41.000Z</time>
      </trkpt>
      <trkpt lat="43.84664" lon="7.61777">
        <ele>221.80000305176</ele>
        <time>2022-09-10T16:01:48.000Z</time>
      </trkpt>
      <trkpt lat="43.84664" lon="7.61778">
        <ele>221.39999389648</ele>
        <time>2022-09-10T16:01:53.000Z</time>
      </trkpt>
      <trkpt lat="43.84664" lon="7.61777">
        <ele>221.19999694824</ele>
        <time>2022-09-10T16:02:05.000Z</time>
      </trkpt>
      <trkpt lat="43.84663" lon="7.61777">
        <ele>221.19999694824</ele>
        <time>2022-09-10T16:02:26.000Z</time>
      </trkpt>
      <trkpt lat="43.84662" lon="7.61775">
        <ele>221.19999694824</ele>
        <time>2022-09-10T16:02:44.000Z</time>
      </trkpt>
      <trkpt lat="43.84662" lon="7.61775">
        <ele>221</ele>
        <time>2022-09-10T16:02:56.000Z</time>
      </trkpt>
      <trkpt lat="43.84662" lon="7.61775">
        <ele>221</ele>
        <time>2022-09-10T16:03:05.000Z</time>
      </trkpt>
      <trkpt lat="43.84663" lon="7.61774">
        <ele>221.19999694824</ele>
        <time>2022-09-10T16:03:18.000Z</time>
      </trkpt>
      <trkpt lat="43.84663" lon="7.61774">
        <ele>221.60000610352</ele>
        <time>2022-09-10T16:03:30.000Z</time>
      </trkpt>
      <trkpt lat="43.84663" lon="7.61774">
        <ele>221.39999389648</ele>
        <time>2022-09-10T16:03:32.000Z</time>
      </trkpt>
      <trkpt lat="43.82404" lon="7.58703">
        <ele>57.400001525879</ele>
        <time>2022-09-10T17:23:06.000Z</time>
      </trkpt>
    </trkseg>
  </trk>
</gpx>